<?xml version='1.0' encoding='UTF-8'?><gpx version="1.1" creator="JPX - https://github.com/jenetics/jpx" xmlns="http://www.topografix.com/GPX/1/1"><trk><trkseg><trkpt lat="43.45469833246954" lon="11.42400853863527"><ele>333.0</ele><time>2026-05-02T07:51:57.001Z</time></trkpt><trkpt lat="43.4547144502697" lon="11.423886716054815"><ele>333.0</ele><time>2026-05-02T07:52:03Z</time></trkpt><trkpt lat="43.45464993282007" lon="11.42380247251408"><ele>333.0</ele><time>2026-05-02T07:52:04Z</time></trkpt><trkpt lat="43.45455248601964" lon="11.423710720110059"><ele>333.0</ele><time>2026-05-02T07:52:05Z</time></trkpt><trkpt lat="43.45443533696656" lon="11.423603886730717"><ele>333.0</ele><time>2026-05-02T07:52:06Z</time></trkpt><trkpt lat="43.45430488001949" lon="11.423455336533111"><ele>332.3333333333333</ele><time>2026-05-02T07:52:07Z</time></trkpt><trkpt lat="43.454181640299794" lon="11.423278349321297"><ele>331.66666666666663</ele><time>2026-05-02T07:52:08Z</time></trkpt><trkpt lat="43.45405895479225" lon="11.423085549285261"><ele>331.0</ele><time>2026-05-02T07:52:09Z</time></trkpt><trkpt lat="43.45393220004766" lon="11.42288200356655"><ele>332.3333333333333</ele><time>2026-05-02T07:52:10Z</time></trkpt><trkpt lat="43.45379897330686" lon="11.4226804814899"><ele>333.6666666666667</ele><time>2026-05-02T07:52:11Z</time></trkpt><trkpt lat="43.453666370774854" lon="11.422478943447787"><ele>335.0</ele><time>2026-05-02T07:52:12Z</time></trkpt><trkpt lat="43.45353763909638" lon="11.422280847441442"><ele>334.0</ele><time>2026-05-02T07:52:13Z</time></trkpt><trkpt lat="43.45341301617964" lon="11.422084614033123"><ele>333.0</ele><time>2026-05-02T07:52:14Z</time></trkpt><trkpt lat="43.45329440297139" lon="11.42189884721235"><ele>332.0</ele><time>2026-05-02T07:52:15Z</time></trkpt><trkpt lat="43.45317759941835" lon="11.421720245553272"><ele>332.0</ele><time>2026-05-02T07:52:16Z</time></trkpt><trkpt lat="43.453061402609414" lon="11.421550523682596"><ele>332.0</ele><time>2026-05-02T07:52:17Z</time></trkpt><trkpt lat="43.45292606983993" lon="11.421399548985937"><ele>332.0</ele><time>2026-05-02T07:52:18Z</time></trkpt><trkpt lat="43.4527727306523" lon="11.421294721127884"><ele>332.75</ele><time>2026-05-02T07:52:19Z</time></trkpt><trkpt lat="43.452629351644646" lon="11.421203348511197"><ele>333.5</ele><time>2026-05-02T07:52:20Z</time></trkpt><trkpt lat="43.452506224760334" lon="11.421102271446891"><ele>334.25</ele><time>2026-05-02T07:52:21Z</time></trkpt><trkpt lat="43.45239433125777" lon="11.420973874567009"><ele>335.0</ele><time>2026-05-02T07:52:22Z</time></trkpt><trkpt lat="43.45228701140293" lon="11.420819661954189"><ele>335.0</ele><time>2026-05-02T07:52:23Z</time></trkpt><trkpt lat="43.45217967879228" lon="11.42064579055766"><ele>335.0</ele><time>2026-05-02T07:52:24Z</time></trkpt><trkpt lat="43.45207065510878" lon="11.420472379633285"><ele>335.0</ele><time>2026-05-02T07:52:25Z</time></trkpt><trkpt lat="43.451971181637596" lon="11.420311906194677"><ele>334.0</ele><time>2026-05-02T07:52:26Z</time></trkpt><trkpt lat="43.45190902559422" lon="11.420176676939665"><ele>333.0</ele><time>2026-05-02T07:52:27Z</time></trkpt><trkpt lat="43.45182201712891" lon="11.420035812134406"><ele>332.0</ele><time>2026-05-02T07:52:28Z</time></trkpt><trkpt lat="43.45173473343293" lon="11.419894901450009"><ele>331.0</ele><time>2026-05-02T07:52:29Z</time></trkpt><trkpt lat="43.45164966721909" lon="11.419764383249502"><ele>332.0</ele><time>2026-05-02T07:52:30Z</time></trkpt><trkpt lat="43.451547576930814" lon="11.419627283852435"><ele>333.0</ele><time>2026-05-02T07:52:31Z</time></trkpt><trkpt lat="43.45142342888585" lon="11.419499896314518"><ele>334.0</ele><time>2026-05-02T07:52:32Z</time></trkpt><trkpt lat="43.451294986340486" lon="11.419379410351935"><ele>332.0</ele><time>2026-05-02T07:52:33Z</time></trkpt><trkpt lat="43.45117615776173" lon="11.419264253403345"><ele>330.0</ele><time>2026-05-02T07:52:34Z</time></trkpt><trkpt lat="43.45104871126846" lon="11.419180528339828"><ele>328.0</ele><time>2026-05-02T07:52:35Z</time></trkpt><trkpt lat="43.45091079253619" lon="11.41911498510634"><ele>326.0</ele><time>2026-05-02T07:52:36Z</time></trkpt><trkpt lat="43.45076279887791" lon="11.419064636904956"><ele>326.0</ele><time>2026-05-02T07:52:37Z</time></trkpt><trkpt lat="43.45060443243088" lon="11.419030000670357"><ele>326.0</ele><time>2026-05-02T07:52:38Z</time></trkpt><trkpt lat="43.450440526268885" lon="11.418996886159734"><ele>326.0</ele><time>2026-05-02T07:52:39Z</time></trkpt><trkpt lat="43.450267977748084" lon="11.418968677845148"><ele>325.33333333333337</ele><time>2026-05-02T07:52:40Z</time></trkpt><trkpt lat="43.4500879376286" lon="11.418942931846637"><ele>324.6666666666667</ele><time>2026-05-02T07:52:41Z</time></trkpt><trkpt lat="43.44990789762864" lon="11.41889413169478"><ele>324.0</ele><time>2026-05-02T07:52:42Z</time></trkpt><trkpt lat="43.44974257598008" lon="11.418815352547137"><ele>326.3333333333333</ele><time>2026-05-02T07:52:43Z</time></trkpt><trkpt lat="43.44958833813903" lon="11.418730378020234"><ele>328.66666666666663</ele><time>2026-05-02T07:52:44Z</time></trkpt><trkpt lat="43.44943423335215" lon="11.418653252542473"><ele>331.0</ele><time>2026-05-02T07:52:45Z</time></trkpt><trkpt lat="43.44927059858446" lon="11.418600213355749"><ele>331.0</ele><time>2026-05-02T07:52:46Z</time></trkpt><trkpt lat="43.44910591490628" lon="11.418566789760535"><ele>331.0</ele><time>2026-05-02T07:52:47Z</time></trkpt><trkpt lat="43.448933271412294" lon="11.418548851576723"><ele>331.0</ele><time>2026-05-02T07:52:48Z</time></trkpt><trkpt lat="43.44876186197404" lon="11.418539625023122"><ele>331.0</ele><time>2026-05-02T07:52:49Z</time></trkpt><trkpt lat="43.44859587208587" lon="11.418526293953084"><ele>331.0</ele><time>2026-05-02T07:52:50Z</time></trkpt><trkpt lat="43.44844883595003" lon="11.418494895778403"><ele>331.0</ele><time>2026-05-02T07:52:51Z</time></trkpt><trkpt lat="43.448299324444605" lon="11.418428190888289"><ele>331.0</ele><time>2026-05-02T07:52:52Z</time></trkpt><trkpt lat="43.44813932531411" lon="11.418307854057717"><ele>331.0</ele><time>2026-05-02T07:52:53Z</time></trkpt><trkpt lat="43.447987485486244" lon="11.418159462157574"><ele>331.0</ele><time>2026-05-02T07:52:54Z</time></trkpt><trkpt lat="43.44784347972468" lon="11.418002998598247"><ele>333.3333333333333</ele><time>2026-05-02T07:52:55Z</time></trkpt><trkpt lat="43.4477033770313" lon="11.417868903241123"><ele>335.6666666666667</ele><time>2026-05-02T07:52:56Z</time></trkpt><trkpt lat="43.44754994937926" lon="11.417768972439037"><ele>338.0</ele><time>2026-05-02T07:52:57Z</time></trkpt><trkpt lat="43.447375876041164" lon="11.41771070992222"><ele>338.0</ele><time>2026-05-02T07:52:58Z</time></trkpt><trkpt lat="43.44720084257443" lon="11.417680224864428"><ele>338.0</ele><time>2026-05-02T07:52:59Z</time></trkpt><trkpt lat="43.4470435090766" lon="11.417648606669967"><ele>338.0</ele><time>2026-05-02T07:53:00Z</time></trkpt><trkpt lat="43.446890443942806" lon="11.417612503472117"><ele>338.6666666666667</ele><time>2026-05-02T07:53:01Z</time></trkpt><trkpt lat="43.44673367414018" lon="11.417577824236533"><ele>339.3333333333333</ele><time>2026-05-02T07:53:02Z</time></trkpt><trkpt lat="43.44657786107975" lon="11.417539538679081"><ele>340.0</ele><time>2026-05-02T07:53:03Z</time></trkpt><trkpt lat="43.446431449566695" lon="11.417503774632022"><ele>343.0</ele><time>2026-05-02T07:53:04Z</time></trkpt><trkpt lat="43.44628841218952" lon="11.417474266915026"><ele>346.0</ele><time>2026-05-02T07:53:05Z</time></trkpt><trkpt lat="43.44616072647157" lon="11.417469870767004"><ele>349.0</ele><time>2026-05-02T07:53:06Z</time></trkpt><trkpt lat="43.44604106383168" lon="11.417524756541821"><ele>352.0</ele><time>2026-05-02T07:53:07Z</time></trkpt><trkpt lat="43.445934705948865" lon="11.417646471866306"><ele>352.0</ele><time>2026-05-02T07:53:08Z</time></trkpt><trkpt lat="43.445847386416155" lon="11.417814952710618"><ele>352.0</ele><time>2026-05-02T07:53:09Z</time></trkpt><trkpt lat="43.445774855133294" lon="11.418018196920643"><ele>352.0</ele><time>2026-05-02T07:53:10Z</time></trkpt><trkpt lat="43.44571858041193" lon="11.418251928317224"><ele>348.66666666666663</ele><time>2026-05-02T07:53:11Z</time></trkpt><trkpt lat="43.44567212241857" lon="11.418482391469798"><ele>345.3333333333333</ele><time>2026-05-02T07:53:12Z</time></trkpt><trkpt lat="43.44563887240509" lon="11.418710860894675"><ele>342.0</ele><time>2026-05-02T07:53:13Z</time></trkpt><trkpt lat="43.44562226073493" lon="11.418934048938116"><ele>340.0</ele><time>2026-05-02T07:53:14Z</time></trkpt><trkpt lat="43.445629621646574" lon="11.419132546213973"><ele>338.0</ele><time>2026-05-02T07:53:15Z</time></trkpt><trkpt lat="43.44565102126565" lon="11.419297874897172"><ele>336.0</ele><time>2026-05-02T07:53:16Z</time></trkpt><trkpt lat="43.44564643551702" lon="11.419449794365482"><ele>334.0</ele><time>2026-05-02T07:53:17Z</time></trkpt><trkpt lat="43.44561107820118" lon="11.419594401367387"><ele>335.25</ele><time>2026-05-02T07:53:18Z</time></trkpt><trkpt lat="43.4455366628893" lon="11.419714374788745"><ele>336.5</ele><time>2026-05-02T07:53:19Z</time></trkpt><trkpt lat="43.44542035975232" lon="11.419790790933138"><ele>337.75</ele><time>2026-05-02T07:53:20Z</time></trkpt><trkpt lat="43.4452730279146" lon="11.419858432540137"><ele>339.0</ele><time>2026-05-02T07:53:21Z</time></trkpt><trkpt lat="43.44512949072616" lon="11.41993287817123"><ele>339.0</ele><time>2026-05-02T07:53:22Z</time></trkpt><trkpt lat="43.444997420639645" lon="11.420001031704754"><ele>339.0</ele><time>2026-05-02T07:53:23Z</time></trkpt><trkpt lat="43.44487470167317" lon="11.420072611171353"><ele>339.0</ele><time>2026-05-02T07:53:24Z</time></trkpt><trkpt lat="43.44475167479906" lon="11.420152569833862"><ele>339.0</ele><time>2026-05-02T07:53:25Z</time></trkpt><trkpt lat="43.44463377761275" lon="11.420250874844703"><ele>338.5</ele><time>2026-05-02T07:53:26Z</time></trkpt><trkpt lat="43.44452419293837" lon="11.420369784842558"><ele>338.0</ele><time>2026-05-02T07:53:27Z</time></trkpt><trkpt lat="43.444429034244756" lon="11.420519622326045"><ele>337.5</ele><time>2026-05-02T07:53:28Z</time></trkpt><trkpt lat="43.44433003183212" lon="11.420686442714675"><ele>337.0</ele><time>2026-05-02T07:53:29Z</time></trkpt><trkpt lat="43.44422637097724" lon="11.420847573778712"><ele>337.0</ele><time>2026-05-02T07:53:30Z</time></trkpt><trkpt lat="43.44410204489733" lon="11.420988633342947"><ele>337.0</ele><time>2026-05-02T07:53:31Z</time></trkpt><trkpt lat="43.443943859091235" lon="11.421102691132681"><ele>337.0</ele><time>2026-05-02T07:53:32Z</time></trkpt><trkpt lat="43.44376234296979" lon="11.421203360104874"><ele>340.0</ele><time>2026-05-02T07:53:33Z</time></trkpt><trkpt lat="43.44359333231989" lon="11.421306479239316"><ele>343.0</ele><time>2026-05-02T07:53:33.999Z</time></trkpt><trkpt lat="43.44344766833339" lon="11.421415805640473"><ele>346.0</ele><time>2026-05-02T07:53:34.999Z</time></trkpt><trkpt lat="43.443311442909916" lon="11.421512089172955"><ele>341.5</ele><time>2026-05-02T07:53:35.999Z</time></trkpt><trkpt lat="43.44317888952914" lon="11.421579200474685"><ele>337.0</ele><time>2026-05-02T07:53:36.999Z</time></trkpt><trkpt lat="43.443035785462286" lon="11.4216041334634"><ele>332.5</ele><time>2026-05-02T07:53:37.999Z</time></trkpt><trkpt lat="43.44288232388101" lon="11.421599339511022"><ele>328.0</ele><time>2026-05-02T07:53:38.999Z</time></trkpt><trkpt lat="43.442715772693056" lon="11.421587725088107"><ele>328.0</ele><time>2026-05-02T07:53:39.999Z</time></trkpt><trkpt lat="43.44254580546325" lon="11.421578810146139"><ele>328.0</ele><time>2026-05-02T07:53:40.999Z</time></trkpt><trkpt lat="43.442370219301395" lon="11.42155935241532"><ele>328.0</ele><time>2026-05-02T07:53:41.999Z</time></trkpt><trkpt lat="43.44219334794901" lon="11.421529804407626"><ele>326.3333333333333</ele><time>2026-05-02T07:53:42.999Z</time></trkpt><trkpt lat="43.44202382089091" lon="11.421500202732117"><ele>324.6666666666667</ele><time>2026-05-02T07:53:43.999Z</time></trkpt><trkpt lat="43.44185004725118" lon="11.421473652646366"><ele>323.0</ele><time>2026-05-02T07:53:44.999Z</time></trkpt><trkpt lat="43.44168000879715" lon="11.42142595203316"><ele>323.0</ele><time>2026-05-02T07:53:45.999Z</time></trkpt><trkpt lat="43.441504940402446" lon="11.421398924576964"><ele>323.0</ele><time>2026-05-02T07:53:46.999Z</time></trkpt><trkpt lat="43.441336780007006" lon="11.421371692228288"><ele>323.0</ele><time>2026-05-02T07:53:47.999Z</time></trkpt><trkpt lat="43.44117725704153" lon="11.421323953911052"><ele>325.33333333333337</ele><time>2026-05-02T07:53:48.999Z</time></trkpt><trkpt lat="43.44102152354744" lon="11.421242708771642"><ele>327.6666666666667</ele><time>2026-05-02T07:53:49.999Z</time></trkpt><trkpt lat="43.440867711542275" lon="11.421125553070379"><ele>330.0</ele><time>2026-05-02T07:53:50.999Z</time></trkpt><trkpt lat="43.440701171194064" lon="11.421008086352646"><ele>330.0</ele><time>2026-05-02T07:53:51.999Z</time></trkpt><trkpt lat="43.44054735400148" lon="11.420869777054724"><ele>330.0</ele><time>2026-05-02T07:53:52.999Z</time></trkpt><trkpt lat="43.44039502575091" lon="11.420740253294806"><ele>330.0</ele><time>2026-05-02T07:53:53.999Z</time></trkpt><trkpt lat="43.44024173011885" lon="11.420607254321723"><ele>329.6666666666667</ele><time>2026-05-02T07:53:54.999Z</time></trkpt><trkpt lat="43.44009129963912" lon="11.420477505112078"><ele>329.33333333333337</ele><time>2026-05-02T07:53:55.999Z</time></trkpt><trkpt lat="43.439939160358456" lon="11.420344637984593"><ele>329.0</ele><time>2026-05-02T07:53:56.999Z</time></trkpt><trkpt lat="43.439784918522975" lon="11.420208983703121"><ele>325.33333333333337</ele><time>2026-05-02T07:53:57.999Z</time></trkpt><trkpt lat="43.439625018895974" lon="11.420073325659562"><ele>321.6666666666667</ele><time>2026-05-02T07:53:58.999Z</time></trkpt><trkpt lat="43.43945844267742" lon="11.419943926687735"><ele>318.0</ele><time>2026-05-02T07:53:59.999Z</time></trkpt><trkpt lat="43.439283221827154" lon="11.419821349497447"><ele>318.0</ele><time>2026-05-02T07:54:00.999Z</time></trkpt><trkpt lat="43.43909821182753" lon="11.419721240143893"><ele>318.0</ele><time>2026-05-02T07:54:01.999Z</time></trkpt><trkpt lat="43.4388988762817" lon="11.419652945507423"><ele>318.0</ele><time>2026-05-02T07:54:02.999Z</time></trkpt><trkpt lat="43.438691113079656" lon="11.419612572585503"><ele>321.3333333333333</ele><time>2026-05-02T07:54:03.999Z</time></trkpt><trkpt lat="43.43849319305146" lon="11.419590105183259"><ele>324.66666666666663</ele><time>2026-05-02T07:54:04.999Z</time></trkpt><trkpt lat="43.438306616759306" lon="11.419584155550693"><ele>328.0</ele><time>2026-05-02T07:54:05.999Z</time></trkpt><trkpt lat="43.43812648522478" lon="11.419566919407677"><ele>326.3333333333333</ele><time>2026-05-02T07:54:06.999Z</time></trkpt><trkpt lat="43.4379436751743" lon="11.419542496620398"><ele>324.6666666666667</ele><time>2026-05-02T07:54:07.999Z</time></trkpt><trkpt lat="43.437763143294504" lon="11.419509108646333"><ele>323.0</ele><time>2026-05-02T07:54:08.999Z</time></trkpt><trkpt lat="43.43758834297004" lon="11.419474161828486"><ele>323.0</ele><time>2026-05-02T07:54:09.999Z</time></trkpt><trkpt lat="43.43741618397063" lon="11.419451402825999"><ele>323.0</ele><time>2026-05-02T07:54:10.999Z</time></trkpt><trkpt lat="43.43724613928952" lon="11.419404213088002"><ele>323.0</ele><time>2026-05-02T07:54:11.999Z</time></trkpt><trkpt lat="43.43708207769046" lon="11.419393003052829"><ele>322.0</ele><time>2026-05-02T07:54:12.999Z</time></trkpt><trkpt lat="43.43691859558551" lon="11.419362757087619"><ele>321.0</ele><time>2026-05-02T07:54:13.999Z</time></trkpt><trkpt lat="43.436747847015894" lon="11.419330549308926"><ele>320.0</ele><time>2026-05-02T07:54:14.999Z</time></trkpt><trkpt lat="43.43658191856408" lon="11.419300432669422"><ele>320.0</ele><time>2026-05-02T07:54:15.999Z</time></trkpt><trkpt lat="43.43641248737277" lon="11.41927043717587"><ele>320.0</ele><time>2026-05-02T07:54:16.999Z</time></trkpt><trkpt lat="43.436245059672146" lon="11.419240149704343"><ele>320.0</ele><time>2026-05-02T07:54:17.999Z</time></trkpt><trkpt lat="43.43608326542987" lon="11.419203984032054"><ele>318.6666666666667</ele><time>2026-05-02T07:54:18.999Z</time></trkpt><trkpt lat="43.435921260633904" lon="11.419177687126247"><ele>317.3333333333333</ele><time>2026-05-02T07:54:19.999Z</time></trkpt><trkpt lat="43.43576919399976" lon="11.419150379822893"><ele>316.0</ele><time>2026-05-02T07:54:20.999Z</time></trkpt><trkpt lat="43.43562521126563" lon="11.41911924706896"><ele>316.0</ele><time>2026-05-02T07:54:21.999Z</time></trkpt><trkpt lat="43.43548457835563" lon="11.419091670745727"><ele>316.0</ele><time>2026-05-02T07:54:22.999Z</time></trkpt><trkpt lat="43.43535213319916" lon="11.41908669662305"><ele>316.0</ele><time>2026-05-02T07:54:23.999Z</time></trkpt><trkpt lat="43.43521311904839" lon="11.41912137114434"><ele>316.0</ele><time>2026-05-02T07:54:24.999Z</time></trkpt><trkpt lat="43.435070369993994" lon="11.419198725692274"><ele>317.0</ele><time>2026-05-02T07:54:25.999Z</time></trkpt><trkpt lat="43.43493480340896" lon="11.419309060537895"><ele>318.0</ele><time>2026-05-02T07:54:27Z</time></trkpt><trkpt lat="43.43481019822488" lon="11.419430112678453"><ele>319.0</ele><time>2026-05-02T07:54:28Z</time></trkpt><trkpt lat="43.43469359765035" lon="11.419536439648795"><ele>318.25</ele><time>2026-05-02T07:54:29Z</time></trkpt><trkpt lat="43.43458210831046" lon="11.419649989249175"><ele>317.5</ele><time>2026-05-02T07:54:30Z</time></trkpt><trkpt lat="43.434474629559176" lon="11.419774846500804"><ele>316.75</ele><time>2026-05-02T07:54:31Z</time></trkpt><trkpt lat="43.4343695617032" lon="11.419896339099575"><ele>316.0</ele><time>2026-05-02T07:54:32Z</time></trkpt><trkpt lat="43.43426792890297" lon="11.420004852192"><ele>316.0</ele><time>2026-05-02T07:54:33Z</time></trkpt><trkpt lat="43.43417686777906" lon="11.42010200534497"><ele>316.0</ele><time>2026-05-02T07:54:34Z</time></trkpt><trkpt lat="43.43409013532772" lon="11.420204679001289"><ele>316.0</ele><time>2026-05-02T07:54:35Z</time></trkpt><trkpt lat="43.43400879061889" lon="11.420303679315438"><ele>316.0</ele><time>2026-05-02T07:54:36Z</time></trkpt><trkpt lat="43.43393198771573" lon="11.420392165576823"><ele>316.0</ele><time>2026-05-02T07:54:37Z</time></trkpt><trkpt lat="43.433860930489985" lon="11.420484878606556"><ele>313.40000000000003</ele><time>2026-05-02T07:54:38Z</time></trkpt><trkpt lat="43.43379330274999" lon="11.42058098011249"><ele>310.8</ele><time>2026-05-02T07:54:39Z</time></trkpt><trkpt lat="43.43372271683165" lon="11.420673290548503"><ele>308.20000000000005</ele><time>2026-05-02T07:54:40Z</time></trkpt><trkpt lat="43.43365700041438" lon="11.420760256342556"><ele>305.6</ele><time>2026-05-02T07:54:41Z</time></trkpt><trkpt lat="43.433588090933476" lon="11.420837911316442"><ele>303.0</ele><time>2026-05-02T07:54:42Z</time></trkpt><trkpt lat="43.43350646716491" lon="11.420900693412442"><ele>303.0</ele><time>2026-05-02T07:54:43Z</time></trkpt><trkpt lat="43.433403268146044" lon="11.420915047445863"><ele>303.0</ele><time>2026-05-02T07:54:44Z</time></trkpt><trkpt lat="43.433296829298385" lon="11.420868023105012"><ele>303.0</ele><time>2026-05-02T07:54:45Z</time></trkpt><trkpt lat="43.433200795506" lon="11.420761295876025"><ele>303.0</ele><time>2026-05-02T07:54:46Z</time></trkpt><trkpt lat="43.433125946212776" lon="11.420631844949199"><ele>303.0</ele><time>2026-05-02T07:54:47Z</time></trkpt><trkpt lat="43.433059302092154" lon="11.420487152226844"><ele>303.0</ele><time>2026-05-02T07:54:48Z</time></trkpt><trkpt lat="43.433002227452235" lon="11.42033575752704"><ele>303.0</ele><time>2026-05-02T07:54:49Z</time></trkpt><trkpt lat="43.43294304803247" lon="11.420174994099362"><ele>303.0</ele><time>2026-05-02T07:54:50Z</time></trkpt><trkpt lat="43.43288263524186" lon="11.420018442934452"><ele>303.25</ele><time>2026-05-02T07:54:51Z</time></trkpt><trkpt lat="43.43281943488564" lon="11.419864279129053"><ele>303.5</ele><time>2026-05-02T07:54:52Z</time></trkpt><trkpt lat="43.43275216042205" lon="11.419716296114645"><ele>303.75</ele><time>2026-05-02T07:54:53Z</time></trkpt><trkpt lat="43.432674303334394" lon="11.419571338418521"><ele>304.0</ele><time>2026-05-02T07:54:54Z</time></trkpt><trkpt lat="43.43258856754272" lon="11.419435307149243"><ele>304.0</ele><time>2026-05-02T07:54:55Z</time></trkpt><trkpt lat="43.4324998321474" lon="11.41931042246508"><ele>304.0</ele><time>2026-05-02T07:54:56Z</time></trkpt><trkpt lat="43.43241300292543" lon="11.41918714424392"><ele>304.0</ele><time>2026-05-02T07:54:57Z</time></trkpt><trkpt lat="43.43232492277615" lon="11.419054033504203"><ele>304.0</ele><time>2026-05-02T07:54:58Z</time></trkpt><trkpt lat="43.43223639818147" lon="11.418921458438499"><ele>302.75</ele><time>2026-05-02T07:54:59Z</time></trkpt><trkpt lat="43.432148281190436" lon="11.418788608220389"><ele>301.5</ele><time>2026-05-02T07:55:00Z</time></trkpt><trkpt lat="43.43205706769929" lon="11.41864894809127"><ele>300.25</ele><time>2026-05-02T07:55:01Z</time></trkpt><trkpt lat="43.43196588178416" lon="11.418510681621866"><ele>299.0</ele><time>2026-05-02T07:55:02Z</time></trkpt><trkpt lat="43.43187386193298" lon="11.418366758841024"><ele>299.0</ele><time>2026-05-02T07:55:03Z</time></trkpt><trkpt lat="43.43178689019233" lon="11.418233270767352"><ele>299.0</ele><time>2026-05-02T07:55:04Z</time></trkpt><trkpt lat="43.43170489073016" lon="11.418109466507035"><ele>299.0</ele><time>2026-05-02T07:55:05Z</time></trkpt><trkpt lat="43.431629522145904" lon="11.417994390671373"><ele>299.0</ele><time>2026-05-02T07:55:06Z</time></trkpt><trkpt lat="43.43156242330861" lon="11.417891694639712"><ele>299.33333333333337</ele><time>2026-05-02T07:55:07Z</time></trkpt><trkpt lat="43.431503393152774" lon="11.417805814993168"><ele>299.6666666666667</ele><time>2026-05-02T07:55:08Z</time></trkpt><trkpt lat="43.43144624609816" lon="11.41772666491757"><ele>300.0</ele><time>2026-05-02T07:55:09Z</time></trkpt><trkpt lat="43.43139365422633" lon="11.417653426312489"><ele>300.3333333333333</ele><time>2026-05-02T07:55:10Z</time></trkpt><trkpt lat="43.43134625763482" lon="11.417591494354012"><ele>300.66666666666663</ele><time>2026-05-02T07:55:11Z</time></trkpt><trkpt lat="43.4312308638829" lon="11.417548416986218"><ele>301.0</ele><time>2026-05-02T07:55:13Z</time></trkpt><trkpt lat="43.431176519068856" lon="11.417592869830383"><ele>301.0</ele><time>2026-05-02T07:55:14Z</time></trkpt><trkpt lat="43.43110804926897" lon="11.417659822564836"><ele>301.0</ele><time>2026-05-02T07:55:15Z</time></trkpt><trkpt lat="43.43104441342214" lon="11.41770770914849"><ele>301.0</ele><time>2026-05-02T07:55:16Z</time></trkpt><trkpt lat="43.43095735835209" lon="11.417786785877585"><ele>301.0</ele><time>2026-05-02T07:55:17Z</time></trkpt><trkpt lat="43.430838358821724" lon="11.41789219450486"><ele>301.0</ele><time>2026-05-02T07:55:18Z</time></trkpt><trkpt lat="43.430698442009856" lon="11.417996142647276"><ele>301.3333333333333</ele><time>2026-05-02T07:55:19Z</time></trkpt><trkpt lat="43.43055839718358" lon="11.418098008282112"><ele>301.6666666666667</ele><time>2026-05-02T07:55:20Z</time></trkpt><trkpt lat="43.43041030083964" lon="11.418200567581708"><ele>302.0</ele><time>2026-05-02T07:55:21Z</time></trkpt><trkpt lat="43.43025419419704" lon="11.418312720782085"><ele>302.0</ele><time>2026-05-02T07:55:22Z</time></trkpt><trkpt lat="43.43010197504495" lon="11.41842753704345"><ele>302.0</ele><time>2026-05-02T07:55:23Z</time></trkpt><trkpt lat="43.42994648511675" lon="11.418542363171126"><ele>302.0</ele><time>2026-05-02T07:55:24Z</time></trkpt><trkpt lat="43.429795806840694" lon="11.41865652917203"><ele>302.6666666666667</ele><time>2026-05-02T07:55:25Z</time></trkpt><trkpt lat="43.429640598055414" lon="11.418770202333278"><ele>303.3333333333333</ele><time>2026-05-02T07:55:26Z</time></trkpt><trkpt lat="43.429476196452896" lon="11.418888312307713"><ele>304.0</ele><time>2026-05-02T07:55:27Z</time></trkpt><trkpt lat="43.429314658791256" lon="11.418988148186662"><ele>305.5</ele><time>2026-05-02T07:55:28Z</time></trkpt><trkpt lat="43.42914150408446" lon="11.41905622884814"><ele>307.0</ele><time>2026-05-02T07:55:29Z</time></trkpt><trkpt lat="43.42902383467072" lon="11.419093256638572"><ele>308.5</ele><time>2026-05-02T07:55:30Z</time></trkpt><trkpt lat="43.42890526055912" lon="11.419129778731087"><ele>310.0</ele><time>2026-05-02T07:55:31Z</time></trkpt><trkpt lat="43.428789446472635" lon="11.419155868228046"><ele>310.2</ele><time>2026-05-02T07:55:32Z</time></trkpt><trkpt lat="43.42867644859422" lon="11.41917986147584"><ele>310.4</ele><time>2026-05-02T07:55:33Z</time></trkpt><trkpt lat="43.42856992148365" lon="11.419206569981398"><ele>310.6</ele><time>2026-05-02T07:55:34Z</time></trkpt><trkpt lat="43.42847405546186" lon="11.419243870867774"><ele>310.8</ele><time>2026-05-02T07:55:35Z</time></trkpt><trkpt lat="43.42837630697403" lon="11.419295940107949"><ele>311.0</ele><time>2026-05-02T07:55:36Z</time></trkpt><trkpt lat="43.428275895909685" lon="11.419366621403181"><ele>311.0</ele><time>2026-05-02T07:55:37Z</time></trkpt><trkpt lat="43.42818291801939" lon="11.419451388713782"><ele>311.0</ele><time>2026-05-02T07:55:38Z</time></trkpt><trkpt lat="43.428096193734724" lon="11.419543510288339"><ele>311.0</ele><time>2026-05-02T07:55:39Z</time></trkpt><trkpt lat="43.428014162556664" lon="11.4196440461015"><ele>311.0</ele><time>2026-05-02T07:55:39.998Z</time></trkpt><trkpt lat="43.42793340640262" lon="11.419748750544585"><ele>311.0</ele><time>2026-05-02T07:55:40.998Z</time></trkpt><trkpt lat="43.42785205302031" lon="11.419864071178656"><ele>311.40000000000003</ele><time>2026-05-02T07:55:41.998Z</time></trkpt><trkpt lat="43.42777973458601" lon="11.419986491282323"><ele>311.8</ele><time>2026-05-02T07:55:42.998Z</time></trkpt><trkpt lat="43.427734300975466" lon="11.420111625981068"><ele>312.20000000000005</ele><time>2026-05-02T07:55:43.998Z</time></trkpt><trkpt lat="43.42770469557512" lon="11.420216814535094"><ele>312.6</ele><time>2026-05-02T07:55:44.998Z</time></trkpt><trkpt lat="43.4277151797785" lon="11.42033041094226"><ele>313.0</ele><time>2026-05-02T07:55:45.998Z</time></trkpt><trkpt lat="43.42775284084486" lon="11.420482786303996"><ele>312.3333333333333</ele><time>2026-05-02T07:55:46.998Z</time></trkpt><trkpt lat="43.42779922296058" lon="11.420689941317788"><ele>311.6666666666667</ele><time>2026-05-02T07:55:47.998Z</time></trkpt><trkpt lat="43.42783798085619" lon="11.420949582217158"><ele>311.0</ele><time>2026-05-02T07:55:48.998Z</time></trkpt><trkpt lat="43.42785944419516" lon="11.421234639917026"><ele>310.6666666666667</ele><time>2026-05-02T07:55:49.998Z</time></trkpt><trkpt lat="43.42785870555489" lon="11.421518555351703"><ele>310.3333333333333</ele><time>2026-05-02T07:55:50.998Z</time></trkpt><trkpt lat="43.427837148895" lon="11.421801635259813"><ele>310.0</ele><time>2026-05-02T07:55:51.998Z</time></trkpt><trkpt lat="43.42778935014062" lon="11.422080609610223"><ele>312.66666666666663</ele><time>2026-05-02T07:55:52.998Z</time></trkpt><trkpt lat="43.427715296920496" lon="11.422326787666346"><ele>315.3333333333333</ele><time>2026-05-02T07:55:53.999Z</time></trkpt><trkpt lat="43.42762971605619" lon="11.422532085495712"><ele>318.0</ele><time>2026-05-02T07:55:54.999Z</time></trkpt><trkpt lat="43.42753969075615" lon="11.422646190055321"><ele>318.0</ele><time>2026-05-02T07:55:55.999Z</time></trkpt><trkpt lat="43.427428601729794" lon="11.422726983108898"><ele>318.0</ele><time>2026-05-02T07:55:56.999Z</time></trkpt><trkpt lat="43.42726792345843" lon="11.42279080458382"><ele>318.0</ele><time>2026-05-02T07:55:57.999Z</time></trkpt><trkpt lat="43.42705580588843" lon="11.422818662884664"><ele>316.6666666666667</ele><time>2026-05-02T07:55:58.999Z</time></trkpt><trkpt lat="43.42685611078995" lon="11.42283927125337"><ele>315.33333333333337</ele><time>2026-05-02T07:55:59.999Z</time></trkpt><trkpt lat="43.4266617892752" lon="11.422869504220879"><ele>314.0</ele><time>2026-05-02T07:56:00.999Z</time></trkpt><trkpt lat="43.426487356723506" lon="11.422915144785582"><ele>314.0</ele><time>2026-05-02T07:56:01.999Z</time></trkpt><trkpt lat="43.42634872552242" lon="11.42296568397001"><ele>314.0</ele><time>2026-05-02T07:56:02.999Z</time></trkpt><trkpt lat="43.42623959917503" lon="11.423025195160976"><ele>314.0</ele><time>2026-05-02T07:56:03.999Z</time></trkpt><trkpt lat="43.426165116730395" lon="11.423120246371862"><ele>314.0</ele><time>2026-05-02T07:56:04.999Z</time></trkpt><trkpt lat="43.426125337979435" lon="11.423270755705577"><ele>314.25</ele><time>2026-05-02T07:56:05.999Z</time></trkpt><trkpt lat="43.426127271440365" lon="11.42345422391416"><ele>314.5</ele><time>2026-05-02T07:56:06.999Z</time></trkpt><trkpt lat="43.42617629335773" lon="11.423633573299808"><ele>314.75</ele><time>2026-05-02T07:56:07.999Z</time></trkpt><trkpt lat="43.426238087406794" lon="11.423805795522535"><ele>315.0</ele><time>2026-05-02T07:56:08.999Z</time></trkpt><trkpt lat="43.426282608191364" lon="11.42397462463695"><ele>321.0</ele><time>2026-05-02T07:56:09.999Z</time></trkpt><trkpt lat="43.42632620077665" lon="11.424168526932505"><ele>327.0</ele><time>2026-05-02T07:56:10.999Z</time></trkpt><trkpt lat="43.426370024484406" lon="11.42437296921635"><ele>333.0</ele><time>2026-05-02T07:56:11.999Z</time></trkpt><trkpt lat="43.42641456206168" lon="11.424579889182503"><ele>331.6666666666667</ele><time>2026-05-02T07:56:12.999Z</time></trkpt><trkpt lat="43.42646151028742" lon="11.424788292473215"><ele>330.33333333333337</ele><time>2026-05-02T07:56:13.999Z</time></trkpt><trkpt lat="43.42649840130135" lon="11.425000125300372"><ele>329.0</ele><time>2026-05-02T07:56:14.999Z</time></trkpt><trkpt lat="43.426540024438935" lon="11.425217439019937"><ele>329.0</ele><time>2026-05-02T07:56:15.999Z</time></trkpt><trkpt lat="43.426571993319584" lon="11.425431777517215"><ele>329.0</ele><time>2026-05-02T07:56:16.999Z</time></trkpt><trkpt lat="43.426582720866875" lon="11.425656120347218"><ele>329.0</ele><time>2026-05-02T07:56:17.999Z</time></trkpt><trkpt lat="43.42656487665764" lon="11.425881330738727"><ele>329.33333333333337</ele><time>2026-05-02T07:56:18.999Z</time></trkpt><trkpt lat="43.426535637183534" lon="11.42610832102255"><ele>329.6666666666667</ele><time>2026-05-02T07:56:19.999Z</time></trkpt><trkpt lat="43.426495858006405" lon="11.426331741308113"><ele>330.0</ele><time>2026-05-02T07:56:20.999Z</time></trkpt><trkpt lat="43.426448970123914" lon="11.426551190471548"><ele>330.3333333333333</ele><time>2026-05-02T07:56:21.999Z</time></trkpt><trkpt lat="43.426388959379445" lon="11.426760818937103"><ele>330.66666666666663</ele><time>2026-05-02T07:56:22.999Z</time></trkpt><trkpt lat="43.426314587392305" lon="11.42695326362926"><ele>331.0</ele><time>2026-05-02T07:56:23.999Z</time></trkpt><trkpt lat="43.426226717025024" lon="11.427111264963115"><ele>330.0</ele><time>2026-05-02T07:56:24.999Z</time></trkpt><trkpt lat="43.42612940789277" lon="11.42724062766275"><ele>329.0</ele><time>2026-05-02T07:56:25.999Z</time></trkpt><trkpt lat="43.426033769050676" lon="11.427345453879527"><ele>328.0</ele><time>2026-05-02T07:56:26.999Z</time></trkpt><trkpt lat="43.425952530107466" lon="11.427457037866505"><ele>327.0</ele><time>2026-05-02T07:56:27.999Z</time></trkpt><trkpt lat="43.42590428367627" lon="11.427604943671673"><ele>327.0</ele><time>2026-05-02T07:56:28.999Z</time></trkpt><trkpt lat="43.4258947911437" lon="11.427793949503046"><ele>327.0</ele><time>2026-05-02T07:56:29.999Z</time></trkpt><trkpt lat="43.42590714335584" lon="11.42801935784779"><ele>327.0</ele><time>2026-05-02T07:56:30.999Z</time></trkpt><trkpt lat="43.42592064427776" lon="11.428225376281208"><ele>327.25</ele><time>2026-05-02T07:56:31.999Z</time></trkpt><trkpt lat="43.42592675554975" lon="11.428423189183048"><ele>327.5</ele><time>2026-05-02T07:56:32.999Z</time></trkpt><trkpt lat="43.42593169367039" lon="11.428623035587181"><ele>327.75</ele><time>2026-05-02T07:56:33.999Z</time></trkpt><trkpt lat="43.425932600304094" lon="11.428824589896646"><ele>328.0</ele><time>2026-05-02T07:56:34.999Z</time></trkpt><trkpt lat="43.42593438180141" lon="11.429030198967105"><ele>329.3333333333333</ele><time>2026-05-02T07:56:36Z</time></trkpt><trkpt lat="43.425932154413736" lon="11.429240002317357"><ele>330.6666666666667</ele><time>2026-05-02T07:56:37Z</time></trkpt><trkpt lat="43.425931576438046" lon="11.429450886933935"><ele>332.0</ele><time>2026-05-02T07:56:38Z</time></trkpt><trkpt lat="43.425930815604005" lon="11.429655827869873"><ele>332.0</ele><time>2026-05-02T07:56:39Z</time></trkpt><trkpt lat="43.42593540911367" lon="11.429842992418056"><ele>332.0</ele><time>2026-05-02T07:56:40Z</time></trkpt><trkpt lat="43.425935581899516" lon="11.430022951660765"><ele>332.0</ele><time>2026-05-02T07:56:41Z</time></trkpt><trkpt lat="43.42593005930065" lon="11.43018776551442"><ele>332.0</ele><time>2026-05-02T07:56:42Z</time></trkpt><trkpt lat="43.425921468064715" lon="11.430355500828075"><ele>332.5</ele><time>2026-05-02T07:56:43Z</time></trkpt><trkpt lat="43.42589109712134" lon="11.430535140582197"><ele>333.0</ele><time>2026-05-02T07:56:44Z</time></trkpt><trkpt lat="43.42584302421326" lon="11.43072274430262"><ele>333.5</ele><time>2026-05-02T07:56:45Z</time></trkpt><trkpt lat="43.42577540627214" lon="11.430901692598896"><ele>334.0</ele><time>2026-05-02T07:56:46Z</time></trkpt><trkpt lat="43.42570343858934" lon="11.431063400656965"><ele>334.0</ele><time>2026-05-02T07:56:47Z</time></trkpt><trkpt lat="43.42563732675212" lon="11.43122562540606"><ele>334.0</ele><time>2026-05-02T07:56:48Z</time></trkpt><trkpt lat="43.425581188698025" lon="11.431391006081702"><ele>334.0</ele><time>2026-05-02T07:56:49Z</time></trkpt><trkpt lat="43.42552983692295" lon="11.431539954910379"><ele>334.0</ele><time>2026-05-02T07:56:50Z</time></trkpt><trkpt lat="43.42548262066562" lon="11.43167064875645"><ele>335.0</ele><time>2026-05-02T07:56:51Z</time></trkpt><trkpt lat="43.42544269063385" lon="11.431785503706983"><ele>336.0</ele><time>2026-05-02T07:56:52Z</time></trkpt><trkpt lat="43.425407499930394" lon="11.431890411099143"><ele>337.0</ele><time>2026-05-02T07:56:53Z</time></trkpt><trkpt lat="43.425374648269056" lon="11.431985453992434"><ele>338.0</ele><time>2026-05-02T07:56:54Z</time></trkpt><trkpt lat="43.425339194291546" lon="11.432080912807262"><ele>339.0</ele><time>2026-05-02T07:56:55Z</time></trkpt><trkpt lat="43.42528313523078" lon="11.432171081509308"><ele>340.0</ele><time>2026-05-02T07:56:56Z</time></trkpt><trkpt lat="43.42519869236399" lon="11.432237002572311"><ele>340.0</ele><time>2026-05-02T07:56:57Z</time></trkpt><trkpt lat="43.42509626977755" lon="11.432267506915183"><ele>340.0</ele><time>2026-05-02T07:56:58Z</time></trkpt><trkpt lat="43.424999777291866" lon="11.432311040391301"><ele>340.0</ele><time>2026-05-02T07:56:59Z</time></trkpt><trkpt lat="43.424917673717985" lon="11.432442086204023"><ele>340.0</ele><time>2026-05-02T07:57:00Z</time></trkpt><trkpt lat="43.424859569956055" lon="11.432630447534333"><ele>340.0</ele><time>2026-05-02T07:57:01Z</time></trkpt><trkpt lat="43.42480340893342" lon="11.432825798952376"><ele>340.0</ele><time>2026-05-02T07:57:02Z</time></trkpt><trkpt lat="43.424732924990636" lon="11.433036128331393"><ele>340.0</ele><time>2026-05-02T07:57:03Z</time></trkpt><trkpt lat="43.42464491176608" lon="11.433265667845356"><ele>343.66666666666663</ele><time>2026-05-02T07:57:04Z</time></trkpt><trkpt lat="43.42455247038766" lon="11.433502076196632"><ele>347.3333333333333</ele><time>2026-05-02T07:57:05Z</time></trkpt><trkpt lat="43.42446572101035" lon="11.433741024528258"><ele>351.0</ele><time>2026-05-02T07:57:06Z</time></trkpt><trkpt lat="43.42440240201659" lon="11.433975295174431"><ele>351.0</ele><time>2026-05-02T07:57:07Z</time></trkpt><trkpt lat="43.424366300821056" lon="11.43420302277492"><ele>351.0</ele><time>2026-05-02T07:57:08Z</time></trkpt><trkpt lat="43.424355453820475" lon="11.434391150188818"><ele>351.0</ele><time>2026-05-02T07:57:09Z</time></trkpt><trkpt lat="43.42436124641509" lon="11.434553012643281"><ele>351.0</ele><time>2026-05-02T07:57:10Z</time></trkpt><trkpt lat="43.42438630736145" lon="11.434706274287091"><ele>350.5</ele><time>2026-05-02T07:57:11Z</time></trkpt><trkpt lat="43.424442415899826" lon="11.43484867284517"><ele>350.0</ele><time>2026-05-02T07:57:12Z</time></trkpt><trkpt lat="43.424521533108226" lon="11.434979435411979"><ele>349.5</ele><time>2026-05-02T07:57:13Z</time></trkpt><trkpt lat="43.42462713677338" lon="11.435087580308121"><ele>349.0</ele><time>2026-05-02T07:57:14Z</time></trkpt><trkpt lat="43.424751263141076" lon="11.43516343249666"><ele>347.5</ele><time>2026-05-02T07:57:15Z</time></trkpt><trkpt lat="43.42487679920284" lon="11.435225930190557"><ele>346.0</ele><time>2026-05-02T07:57:16Z</time></trkpt><trkpt lat="43.42499322722965" lon="11.435291764010778"><ele>344.5</ele><time>2026-05-02T07:57:17Z</time></trkpt><trkpt lat="43.42510756943567" lon="11.435360770046575"><ele>343.0</ele><time>2026-05-02T07:57:18Z</time></trkpt><trkpt lat="43.42521379940662" lon="11.435439192844456"><ele>344.79999999999995</ele><time>2026-05-02T07:57:19Z</time></trkpt><trkpt lat="43.42529808145829" lon="11.43553603126088"><ele>346.6</ele><time>2026-05-02T07:57:20Z</time></trkpt><trkpt lat="43.425357903836115" lon="11.435646133180919"><ele>348.4</ele><time>2026-05-02T07:57:21Z</time></trkpt><trkpt lat="43.425378794524434" lon="11.435780026893145"><ele>350.20000000000005</ele><time>2026-05-02T07:57:22Z</time></trkpt><trkpt lat="43.42534901423718" lon="11.435907505382682"><ele>352.0</ele><time>2026-05-02T07:57:23Z</time></trkpt><trkpt lat="43.42528438479008" lon="11.436025182222233"><ele>352.0</ele><time>2026-05-02T07:57:24Z</time></trkpt><trkpt lat="43.42520308275105" lon="11.436109722587009"><ele>352.0</ele><time>2026-05-02T07:57:25Z</time></trkpt><trkpt lat="43.425115726137186" lon="11.436206922184029"><ele>352.0</ele><time>2026-05-02T07:57:26Z</time></trkpt><trkpt lat="43.425053622410324" lon="11.436342868525337"><ele>352.0</ele><time>2026-05-02T07:57:27Z</time></trkpt><trkpt lat="43.42500559639187" lon="11.436507365723134"><ele>352.75</ele><time>2026-05-02T07:57:28Z</time></trkpt><trkpt lat="43.42497604896008" lon="11.436678446922091"><ele>353.5</ele><time>2026-05-02T07:57:29Z</time></trkpt><trkpt lat="43.42495741223983" lon="11.436863609289995"><ele>354.25</ele><time>2026-05-02T07:57:30Z</time></trkpt><trkpt lat="43.424953025100486" lon="11.437054655310172"><ele>355.0</ele><time>2026-05-02T07:57:31Z</time></trkpt><trkpt lat="43.42494869754911" lon="11.437245345515551"><ele>355.0</ele><time>2026-05-02T07:57:32Z</time></trkpt><trkpt lat="43.42495381420152" lon="11.43743969264713"><ele>355.0</ele><time>2026-05-02T07:57:33Z</time></trkpt><trkpt lat="43.424967814868445" lon="11.43763278327139"><ele>355.0</ele><time>2026-05-02T07:57:34Z</time></trkpt><trkpt lat="43.4250001138499" lon="11.437838822294758"><ele>355.0</ele><time>2026-05-02T07:57:35Z</time></trkpt><trkpt lat="43.42504441710178" lon="11.438050088810021"><ele>357.0</ele><time>2026-05-02T07:57:36Z</time></trkpt><trkpt lat="43.42509630385282" lon="11.438267798004825"><ele>359.0</ele><time>2026-05-02T07:57:37Z</time></trkpt><trkpt lat="43.42514736394469" lon="11.43848313361818"><ele>361.0</ele><time>2026-05-02T07:57:38Z</time></trkpt><trkpt lat="43.425193106622125" lon="11.438680818569775"><ele>362.75</ele><time>2026-05-02T07:57:39Z</time></trkpt><trkpt lat="43.42523498571994" lon="11.438864327929668"><ele>364.5</ele><time>2026-05-02T07:57:40Z</time></trkpt><trkpt lat="43.42527398746428" lon="11.439023237532728"><ele>366.25</ele><time>2026-05-02T07:57:41Z</time></trkpt><trkpt lat="43.425315068907416" lon="11.43916608056281"><ele>368.0</ele><time>2026-05-02T07:57:42Z</time></trkpt><trkpt lat="43.42536964539321" lon="11.439288265582261"><ele>368.0</ele><time>2026-05-02T07:57:43Z</time></trkpt><trkpt lat="43.42545832556161" lon="11.43936203643533"><ele>368.0</ele><time>2026-05-02T07:57:44Z</time></trkpt><trkpt lat="43.4255691654354" lon="11.439384381415753"><ele>368.0</ele><time>2026-05-02T07:57:45Z</time></trkpt><trkpt lat="43.425684673614924" lon="11.439366528784072"><ele>368.0</ele><time>2026-05-02T07:57:45.999Z</time></trkpt><trkpt lat="43.42577871108431" lon="11.439337661206629"><ele>368.0</ele><time>2026-05-02T07:57:46.999Z</time></trkpt><trkpt lat="43.425865090433405" lon="11.439346663421597"><ele>366.25</ele><time>2026-05-02T07:57:47.999Z</time></trkpt><trkpt lat="43.42595934573167" lon="11.439403884734741"><ele>364.5</ele><time>2026-05-02T07:57:48.999Z</time></trkpt><trkpt lat="43.42605219459338" lon="11.439517304251154"><ele>362.75</ele><time>2026-05-02T07:57:49.999Z</time></trkpt><trkpt lat="43.42611481076975" lon="11.439676741186812"><ele>361.0</ele><time>2026-05-02T07:57:50.999Z</time></trkpt><trkpt lat="43.426139783334555" lon="11.439864656184932"><ele>361.0</ele><time>2026-05-02T07:57:51.999Z</time></trkpt><trkpt lat="43.42613738547575" lon="11.440067771805039"><ele>361.0</ele><time>2026-05-02T07:57:52.999Z</time></trkpt><trkpt lat="43.4261333652678" lon="11.440267298625251"><ele>361.0</ele><time>2026-05-02T07:57:53.999Z</time></trkpt><trkpt lat="43.42613873061701" lon="11.440458392463487"><ele>361.0</ele><time>2026-05-02T07:57:54.999Z</time></trkpt><trkpt lat="43.42614578877351" lon="11.440630328366826"><ele>361.6</ele><time>2026-05-02T07:57:55.999Z</time></trkpt><trkpt lat="43.42615632289665" lon="11.440783336717848"><ele>362.20000000000005</ele><time>2026-05-02T07:57:56.999Z</time></trkpt><trkpt lat="43.42616298406173" lon="11.44092078473024"><ele>362.79999999999995</ele><time>2026-05-02T07:57:57.999Z</time></trkpt><trkpt lat="43.426166625806914" lon="11.441061131994017"><ele>363.4</ele><time>2026-05-02T07:57:58.999Z</time></trkpt><trkpt lat="43.42616356544934" lon="11.441210477679938"><ele>364.0</ele><time>2026-05-02T07:57:59.999Z</time></trkpt><trkpt lat="43.426135800069424" lon="11.44136024787515"><ele>364.0</ele><time>2026-05-02T07:58:00.999Z</time></trkpt><trkpt lat="43.42606461840939" lon="11.441478390181384"><ele>364.0</ele><time>2026-05-02T07:58:01.999Z</time></trkpt><trkpt lat="43.425955352979756" lon="11.441549950272204"><ele>364.0</ele><time>2026-05-02T07:58:02.999Z</time></trkpt><trkpt lat="43.425832906459135" lon="11.441615514194437"><ele>364.0</ele><time>2026-05-02T07:58:03.999Z</time></trkpt><trkpt lat="43.425697606287294" lon="11.441661241900391"><ele>364.0</ele><time>2026-05-02T07:58:04.999Z</time></trkpt><trkpt lat="43.425570231840624" lon="11.441718784097482"><ele>364.0</ele><time>2026-05-02T07:58:05.999Z</time></trkpt><trkpt lat="43.42544815783898" lon="11.441783947261527"><ele>364.0</ele><time>2026-05-02T07:58:06.999Z</time></trkpt><trkpt lat="43.425330121081544" lon="11.441862278089891"><ele>364.0</ele><time>2026-05-02T07:58:07.999Z</time></trkpt><trkpt lat="43.425221819142635" lon="11.441967167933006"><ele>365.66666666666663</ele><time>2026-05-02T07:58:08.999Z</time></trkpt><trkpt lat="43.42511812156456" lon="11.442120675343686"><ele>367.3333333333333</ele><time>2026-05-02T07:58:09.999Z</time></trkpt><trkpt lat="43.42503293707996" lon="11.442321027931579"><ele>369.0</ele><time>2026-05-02T07:58:10.999Z</time></trkpt><trkpt lat="43.42497320236431" lon="11.442520048593174"><ele>369.0</ele><time>2026-05-02T07:58:11.999Z</time></trkpt><trkpt lat="43.42492550147442" lon="11.442702056520456"><ele>369.0</ele><time>2026-05-02T07:58:12.999Z</time></trkpt><trkpt lat="43.42488760722801" lon="11.442867166887956"><ele>369.0</ele><time>2026-05-02T07:58:14Z</time></trkpt><trkpt lat="43.42485770107253" lon="11.443047738450893"><ele>369.0</ele><time>2026-05-02T07:58:15Z</time></trkpt><trkpt lat="43.424845184768316" lon="11.44323949647851"><ele>368.75</ele><time>2026-05-02T07:58:16Z</time></trkpt><trkpt lat="43.42484516086179" lon="11.44342706491831"><ele>368.5</ele><time>2026-05-02T07:58:17Z</time></trkpt><trkpt lat="43.42483818152897" lon="11.443596451204897"><ele>368.25</ele><time>2026-05-02T07:58:18Z</time></trkpt><trkpt lat="43.42481867192229" lon="11.443753938935616"><ele>368.0</ele><time>2026-05-02T07:58:19Z</time></trkpt><trkpt lat="43.42478349516403" lon="11.443894086407976"><ele>367.59999999999997</ele><time>2026-05-02T07:58:20Z</time></trkpt><trkpt lat="43.424733468098566" lon="11.444009149718093"><ele>367.2</ele><time>2026-05-02T07:58:21Z</time></trkpt><trkpt lat="43.42465995402695" lon="11.44411008224223"><ele>366.8</ele><time>2026-05-02T07:58:22Z</time></trkpt><trkpt lat="43.424581632073576" lon="11.444206416987686"><ele>366.4</ele><time>2026-05-02T07:58:23Z</time></trkpt><trkpt lat="43.42449775590423" lon="11.444300403958723"><ele>366.0</ele><time>2026-05-02T07:58:24Z</time></trkpt><trkpt lat="43.424421972601685" lon="11.444401664471203"><ele>369.5</ele><time>2026-05-02T07:58:25Z</time></trkpt><trkpt lat="43.424346534606435" lon="11.444532378812319"><ele>373.0</ele><time>2026-05-02T07:58:26Z</time></trkpt><trkpt lat="43.42427390933377" lon="11.444712425556398"><ele>376.5</ele><time>2026-05-02T07:58:27Z</time></trkpt><trkpt lat="43.42422339172507" lon="11.444868334867424"><ele>380.0</ele><time>2026-05-02T07:58:28Z</time></trkpt><trkpt lat="43.4241552994787" lon="11.445007548510183"><ele>380.0</ele><time>2026-05-02T07:58:29Z</time></trkpt><trkpt lat="43.42409573802096" lon="11.445138398942703"><ele>380.0</ele><time>2026-05-02T07:58:30Z</time></trkpt><trkpt lat="43.42402919496392" lon="11.445281705886726"><ele>380.0</ele><time>2026-05-02T07:58:31Z</time></trkpt><trkpt lat="43.42396649256514" lon="11.44544439313763"><ele>380.0</ele><time>2026-05-02T07:58:32Z</time></trkpt><trkpt lat="43.42391159682872" lon="11.445587507480793"><ele>380.0</ele><time>2026-05-02T07:58:33Z</time></trkpt><trkpt lat="43.42387037153392" lon="11.445713888809433"><ele>380.0</ele><time>2026-05-02T07:58:34Z</time></trkpt><trkpt lat="43.4238612197726" lon="11.445841949846223"><ele>380.0</ele><time>2026-05-02T07:58:35Z</time></trkpt><trkpt lat="43.42388739244328" lon="11.44598464822714"><ele>380.0</ele><time>2026-05-02T07:58:36Z</time></trkpt><trkpt lat="43.423954588384184" lon="11.446104262061654"><ele>380.0</ele><time>2026-05-02T07:58:37Z</time></trkpt><trkpt lat="43.42405901752301" lon="11.44617343421719"><ele>380.0</ele><time>2026-05-02T07:58:38Z</time></trkpt><trkpt lat="43.424191585211084" lon="11.446209137771486"><ele>380.0</ele><time>2026-05-02T07:58:39Z</time></trkpt><trkpt lat="43.42431499069859" lon="11.446232861287585"><ele>380.0</ele><time>2026-05-02T07:58:40Z</time></trkpt><trkpt lat="43.42440167968071" lon="11.44632744400225"><ele>380.0</ele><time>2026-05-02T07:58:41Z</time></trkpt><trkpt lat="43.42446277621687" lon="11.446465042573577"><ele>382.5</ele><time>2026-05-02T07:58:42Z</time></trkpt><trkpt lat="43.4245002424271" lon="11.446626061010294"><ele>385.0</ele><time>2026-05-02T07:58:43Z</time></trkpt><trkpt lat="43.42450629857328" lon="11.446794932678495"><ele>387.5</ele><time>2026-05-02T07:58:44Z</time></trkpt><trkpt lat="43.4244927145707" lon="11.446952139478592"><ele>390.0</ele><time>2026-05-02T07:58:45Z</time></trkpt><trkpt lat="43.42446187113282" lon="11.447105328409677"><ele>391.0</ele><time>2026-05-02T07:58:46Z</time></trkpt><trkpt lat="43.424429304919805" lon="11.44726224567799"><ele>392.0</ele><time>2026-05-02T07:58:47Z</time></trkpt><trkpt lat="43.424376007884646" lon="11.447415690129256"><ele>393.0</ele><time>2026-05-02T07:58:48Z</time></trkpt><trkpt lat="43.42429968678778" lon="11.447556054508405"><ele>394.0</ele><time>2026-05-02T07:58:49Z</time></trkpt><trkpt lat="43.42420417460123" lon="11.447677921086214"><ele>394.0</ele><time>2026-05-02T07:58:50Z</time></trkpt><trkpt lat="43.424093221594084" lon="11.447783742366543"><ele>394.0</ele><time>2026-05-02T07:58:51Z</time></trkpt><trkpt lat="43.42398127104922" lon="11.447879503452485"><ele>394.0</ele><time>2026-05-02T07:58:52Z</time></trkpt><trkpt lat="43.42388923808012" lon="11.447989468061882"><ele>394.0</ele><time>2026-05-02T07:58:53Z</time></trkpt><trkpt lat="43.42383162261235" lon="11.44812752187613"><ele>393.5</ele><time>2026-05-02T07:58:54Z</time></trkpt><trkpt lat="43.423808661732075" lon="11.448299822224808"><ele>393.0</ele><time>2026-05-02T07:58:55Z</time></trkpt><trkpt lat="43.42382472255848" lon="11.4484781749503"><ele>392.5</ele><time>2026-05-02T07:58:56Z</time></trkpt><trkpt lat="43.42387947960282" lon="11.448643015983794"><ele>392.0</ele><time>2026-05-02T07:58:57Z</time></trkpt><trkpt lat="43.423938443757315" lon="11.448796692176549"><ele>392.0</ele><time>2026-05-02T07:58:58Z</time></trkpt><trkpt lat="43.42398354409294" lon="11.448959666074257"><ele>392.0</ele><time>2026-05-02T07:58:59Z</time></trkpt><trkpt lat="43.424013107699025" lon="11.449127939333188"><ele>392.0</ele><time>2026-05-02T07:59:00Z</time></trkpt><trkpt lat="43.424016349791806" lon="11.449300653068068"><ele>392.0</ele><time>2026-05-02T07:59:01Z</time></trkpt><trkpt lat="43.42398981225418" lon="11.449474547288688"><ele>390.0</ele><time>2026-05-02T07:59:02Z</time></trkpt><trkpt lat="43.42394121431774" lon="11.449660170957998"><ele>388.0</ele><time>2026-05-02T07:59:03Z</time></trkpt><trkpt lat="43.423893906791456" lon="11.449802808853"><ele>386.0</ele><time>2026-05-02T07:59:04Z</time></trkpt><trkpt lat="43.42383082490745" lon="11.44994092563057"><ele>384.0</ele><time>2026-05-02T07:59:05Z</time></trkpt><trkpt lat="43.4237492576407" lon="11.450068278780163"><ele>387.25</ele><time>2026-05-02T07:59:06Z</time></trkpt><trkpt lat="43.423654659286356" lon="11.450194198261388"><ele>390.5</ele><time>2026-05-02T07:59:07Z</time></trkpt><trkpt lat="43.42355389389901" lon="11.450314303740392"><ele>393.75</ele><time>2026-05-02T07:59:08Z</time></trkpt><trkpt lat="43.423463498216044" lon="11.45045115632372"><ele>397.0</ele><time>2026-05-02T07:59:09Z</time></trkpt><trkpt lat="43.423365517830334" lon="11.450590902641796"><ele>397.0</ele><time>2026-05-02T07:59:10Z</time></trkpt><trkpt lat="43.4232600700986" lon="11.450717024667487"><ele>397.0</ele><time>2026-05-02T07:59:11Z</time></trkpt><trkpt lat="43.42314561344376" lon="11.450821090651424"><ele>397.0</ele><time>2026-05-02T07:59:12Z</time></trkpt><trkpt lat="43.423032253582235" lon="11.450917354908867"><ele>397.0</ele><time>2026-05-02T07:59:13Z</time></trkpt><trkpt lat="43.422921365767714" lon="11.451019782272617"><ele>396.75</ele><time>2026-05-02T07:59:14Z</time></trkpt><trkpt lat="43.422815144441955" lon="11.45112002624698"><ele>396.5</ele><time>2026-05-02T07:59:15Z</time></trkpt><trkpt lat="43.42269710273938" lon="11.451212102198506"><ele>396.25</ele><time>2026-05-02T07:59:16Z</time></trkpt><trkpt lat="43.422570340588464" lon="11.45128730655189"><ele>396.0</ele><time>2026-05-02T07:59:17Z</time></trkpt><trkpt lat="43.42243797983463" lon="11.451339299248009"><ele>396.0</ele><time>2026-05-02T07:59:18Z</time></trkpt><trkpt lat="43.422310245749344" lon="11.451352579969308"><ele>396.0</ele><time>2026-05-02T07:59:19Z</time></trkpt><trkpt lat="43.42219835448993" lon="11.451354422038136"><ele>396.0</ele><time>2026-05-02T07:59:20Z</time></trkpt><trkpt lat="43.422093190221744" lon="11.451352196835987"><ele>396.0</ele><time>2026-05-02T07:59:21Z</time></trkpt><trkpt lat="43.42198885942841" lon="11.451353253720411"><ele>396.0</ele><time>2026-05-02T07:59:22Z</time></trkpt><trkpt lat="43.42189779225603" lon="11.451395836686624"><ele>402.4</ele><time>2026-05-02T07:59:23Z</time></trkpt><trkpt lat="43.421832364116995" lon="11.451488881228128"><ele>408.8</ele><time>2026-05-02T07:59:24.001Z</time></trkpt><trkpt lat="43.421792891441704" lon="11.451616763250755"><ele>415.19999999999993</ele><time>2026-05-02T07:59:25.001Z</time></trkpt><trkpt lat="43.42177724320959" lon="11.45176911988776"><ele>421.59999999999997</ele><time>2026-05-02T07:59:26.001Z</time></trkpt><trkpt lat="43.42177854321004" lon="11.451934456825134"><ele>428.0</ele><time>2026-05-02T07:59:27.001Z</time></trkpt><trkpt lat="43.42178157174804" lon="11.452094230372216"><ele>425.75</ele><time>2026-05-02T07:59:28.001Z</time></trkpt><trkpt lat="43.42176423368812" lon="11.452264713763451"><ele>423.5</ele><time>2026-05-02T07:59:29.001Z</time></trkpt><trkpt lat="43.42170346862136" lon="11.452443650829032"><ele>421.25</ele><time>2026-05-02T07:59:30.001Z</time></trkpt><trkpt lat="43.421627683641866" lon="11.452616539468313"><ele>419.0</ele><time>2026-05-02T07:59:31.001Z</time></trkpt><trkpt lat="43.42157958401214" lon="11.452770372447137"><ele>419.0</ele><time>2026-05-02T07:59:32.001Z</time></trkpt><trkpt lat="43.421565810303655" lon="11.452917815465577"><ele>419.0</ele><time>2026-05-02T07:59:33.001Z</time></trkpt><trkpt lat="43.421594473272975" lon="11.453075843439336"><ele>419.0</ele><time>2026-05-02T07:59:34.001Z</time></trkpt><trkpt lat="43.421659927178915" lon="11.453216282127192"><ele>419.0</ele><time>2026-05-02T07:59:35.001Z</time></trkpt><trkpt lat="43.421743955023025" lon="11.453327286172295"><ele>418.2</ele><time>2026-05-02T07:59:36.001Z</time></trkpt><trkpt lat="43.42181412480702" lon="11.453439655144592"><ele>417.4</ele><time>2026-05-02T07:59:37.001Z</time></trkpt><trkpt lat="43.421854052410886" lon="11.453566454711574"><ele>416.6</ele><time>2026-05-02T07:59:38.001Z</time></trkpt><trkpt lat="43.42186538532367" lon="11.453709374707932"><ele>415.8</ele><time>2026-05-02T07:59:39.001Z</time></trkpt><trkpt lat="43.42183607201735" lon="11.453869255111002"><ele>415.0</ele><time>2026-05-02T07:59:40.001Z</time></trkpt><trkpt lat="43.4217808056428" lon="11.454012560481688"><ele>414.5</ele><time>2026-05-02T07:59:41.001Z</time></trkpt><trkpt lat="43.42171088831732" lon="11.454133985509854"><ele>414.0</ele><time>2026-05-02T07:59:42.001Z</time></trkpt><trkpt lat="43.4216205211305" lon="11.454225224338366"><ele>413.5</ele><time>2026-05-02T07:59:43.001Z</time></trkpt><trkpt lat="43.42152058578256" lon="11.454313817066337"><ele>413.0</ele><time>2026-05-02T07:59:44.001Z</time></trkpt><trkpt lat="43.42142154468462" lon="11.454395011786927"><ele>413.0</ele><time>2026-05-02T07:59:45.001Z</time></trkpt><trkpt lat="43.42132465013271" lon="11.454465167373503"><ele>413.0</ele><time>2026-05-02T07:59:46.001Z</time></trkpt><trkpt lat="43.42122426182273" lon="11.454530870946158"><ele>413.0</ele><time>2026-05-02T07:59:47.001Z</time></trkpt><trkpt lat="43.42112117172531" lon="11.454606868492796"><ele>413.0</ele><time>2026-05-02T07:59:48.001Z</time></trkpt><trkpt lat="43.4210168176297" lon="11.454710965201311"><ele>416.0</ele><time>2026-05-02T07:59:49.001Z</time></trkpt><trkpt lat="43.42091779083693" lon="11.454854664089218"><ele>419.0</ele><time>2026-05-02T07:59:50.001Z</time></trkpt><trkpt lat="43.42083962444417" lon="11.455040140393685"><ele>422.0</ele><time>2026-05-02T07:59:51.001Z</time></trkpt><trkpt lat="43.42075590699879" lon="11.455224153174349"><ele>422.0</ele><time>2026-05-02T07:59:51.999Z</time></trkpt><trkpt lat="43.42063741941207" lon="11.455388489650238"><ele>422.0</ele><time>2026-05-02T07:59:52.999Z</time></trkpt><trkpt lat="43.420509767144544" lon="11.455545914481954"><ele>422.0</ele><time>2026-05-02T07:59:53.999Z</time></trkpt><trkpt lat="43.42038057457857" lon="11.455709760517703"><ele>424.0</ele><time>2026-05-02T07:59:54.999Z</time></trkpt><trkpt lat="43.42026680929332" lon="11.455871052706387"><ele>426.0</ele><time>2026-05-02T07:59:55.999Z</time></trkpt><trkpt lat="43.42015669924612" lon="11.456037727308624"><ele>428.0</ele><time>2026-05-02T07:59:56.999Z</time></trkpt><trkpt lat="43.42005145104151" lon="11.456193715322671"><ele>426.75</ele><time>2026-05-02T07:59:57.999Z</time></trkpt><trkpt lat="43.419947816845735" lon="11.45633728459878"><ele>425.5</ele><time>2026-05-02T07:59:58.999Z</time></trkpt><trkpt lat="43.41985180663892" lon="11.456473453763266"><ele>424.25</ele><time>2026-05-02T07:59:59.999Z</time></trkpt><trkpt lat="43.419765647787514" lon="11.456584831651096"><ele>423.0</ele><time>2026-05-02T08:00:00.999Z</time></trkpt><trkpt lat="43.41968110085277" lon="11.456691390818666"><ele>426.25</ele><time>2026-05-02T08:00:01.999Z</time></trkpt><trkpt lat="43.41958055454712" lon="11.456788539001078"><ele>429.5</ele><time>2026-05-02T08:00:02.999Z</time></trkpt><trkpt lat="43.41945593705029" lon="11.45685024858661"><ele>432.75</ele><time>2026-05-02T08:00:03.999Z</time></trkpt><trkpt lat="43.419321879182846" lon="11.456875686860995"><ele>436.0</ele><time>2026-05-02T08:00:04.999Z</time></trkpt><trkpt lat="43.41920625561694" lon="11.456884779465689"><ele>436.0</ele><time>2026-05-02T08:00:05.999Z</time></trkpt><trkpt lat="43.4191119984033" lon="11.456932652043868"><ele>436.0</ele><time>2026-05-02T08:00:06.999Z</time></trkpt><trkpt lat="43.41904159092596" lon="11.457037039578164"><ele>436.0</ele><time>2026-05-02T08:00:08Z</time></trkpt><trkpt lat="43.419003646466834" lon="11.457169041829252"><ele>436.0</ele><time>2026-05-02T08:00:09Z</time></trkpt><trkpt lat="43.41898876563304" lon="11.457309604020896"><ele>436.0</ele><time>2026-05-02T08:00:10Z</time></trkpt><trkpt lat="43.41898431118192" lon="11.457432707775"><ele>435.4</ele><time>2026-05-02T08:00:11Z</time></trkpt><trkpt lat="43.41897715676314" lon="11.457531612165665"><ele>434.8</ele><time>2026-05-02T08:00:12Z</time></trkpt><trkpt lat="43.418948469313406" lon="11.457636186594957"><ele>434.19999999999993</ele><time>2026-05-02T08:00:13Z</time></trkpt><trkpt lat="43.418894563363914" lon="11.45772425358574"><ele>433.59999999999997</ele><time>2026-05-02T08:00:14Z</time></trkpt><trkpt lat="43.41881755186492" lon="11.45781639290194"><ele>433.0</ele><time>2026-05-02T08:00:15Z</time></trkpt><trkpt lat="43.418712786680196" lon="11.457908916254985"><ele>433.0</ele><time>2026-05-02T08:00:16Z</time></trkpt><trkpt lat="43.41860414870048" lon="11.45797886352326"><ele>432.99999999999994</ele><time>2026-05-02T08:00:17Z</time></trkpt><trkpt lat="43.41851273887739" lon="11.458045591365506"><ele>432.99999999999994</ele><time>2026-05-02T08:00:18Z</time></trkpt><trkpt lat="43.418420568308996" lon="11.458111807863373"><ele>433.0</ele><time>2026-05-02T08:00:19Z</time></trkpt><trkpt lat="43.41831419296226" lon="11.458194350311157"><ele>433.0</ele><time>2026-05-02T08:00:20Z</time></trkpt><trkpt lat="43.41820652113211" lon="11.458280686732087"><ele>433.0</ele><time>2026-05-02T08:00:21Z</time></trkpt><trkpt lat="43.41809225937824" lon="11.458366180170326"><ele>433.0</ele><time>2026-05-02T08:00:22Z</time></trkpt><trkpt lat="43.4179687050469" lon="11.458429387451885"><ele>433.0</ele><time>2026-05-02T08:00:23Z</time></trkpt><trkpt lat="43.41784649492705" lon="11.458444219862384"><ele>433.0</ele><time>2026-05-02T08:00:24Z</time></trkpt><trkpt lat="43.417729903531054" lon="11.458401512105597"><ele>434.5</ele><time>2026-05-02T08:00:25Z</time></trkpt><trkpt lat="43.41761394790303" lon="11.458331180262274"><ele>436.0</ele><time>2026-05-02T08:00:26Z</time></trkpt><trkpt lat="43.4174964829757" lon="11.458228187554422"><ele>437.5</ele><time>2026-05-02T08:00:27Z</time></trkpt><trkpt lat="43.417393186007594" lon="11.458135048125843"><ele>439.0</ele><time>2026-05-02T08:00:28Z</time></trkpt><trkpt lat="43.417299435684455" lon="11.458073393277502"><ele>439.00000000000006</ele><time>2026-05-02T08:00:29Z</time></trkpt><trkpt lat="43.4172106174402" lon="11.458039807707912"><ele>439.0</ele><time>2026-05-02T08:00:30Z</time></trkpt><trkpt lat="43.41712607512791" lon="11.458016722475337"><ele>439.0</ele><time>2026-05-02T08:00:31Z</time></trkpt><trkpt lat="43.417044749667625" lon="11.45800069869108"><ele>439.0</ele><time>2026-05-02T08:00:32Z</time></trkpt><trkpt lat="43.41696569767384" lon="11.457992724234634"><ele>439.00000000000006</ele><time>2026-05-02T08:00:33Z</time></trkpt><trkpt lat="43.416882344846385" lon="11.45798813511406"><ele>439.0</ele><time>2026-05-02T08:00:34Z</time></trkpt><trkpt lat="43.416791899386666" lon="11.457980970028496"><ele>439.4</ele><time>2026-05-02T08:00:35Z</time></trkpt><trkpt lat="43.41670246894941" lon="11.457971385680272"><ele>439.79999999999995</ele><time>2026-05-02T08:00:36Z</time></trkpt><trkpt lat="43.41661028375365" lon="11.457963111277737"><ele>440.20000000000005</ele><time>2026-05-02T08:00:37Z</time></trkpt><trkpt lat="43.41651414030446" lon="11.457967438687994"><ele>440.6</ele><time>2026-05-02T08:00:38Z</time></trkpt><trkpt lat="43.41642020141187" lon="11.457997921134105"><ele>441.0</ele><time>2026-05-02T08:00:39Z</time></trkpt><trkpt lat="43.416345480367006" lon="11.458052741753157"><ele>441.8333333333333</ele><time>2026-05-02T08:00:40Z</time></trkpt><trkpt lat="43.41627989116382" lon="11.45810618251213"><ele>442.66666666666663</ele><time>2026-05-02T08:00:41Z</time></trkpt><trkpt lat="43.41622369341215" lon="11.458161129774037"><ele>443.5</ele><time>2026-05-02T08:00:42Z</time></trkpt><trkpt lat="43.41617124952679" lon="11.458220764306391"><ele>444.3333333333333</ele><time>2026-05-02T08:00:43Z</time></trkpt><trkpt lat="43.416072466368064" lon="11.458356062815604"><ele>445.16666666666663</ele><time>2026-05-02T08:00:45Z</time></trkpt><trkpt lat="43.41601377281373" lon="11.458452974056316"><ele>446.0</ele><time>2026-05-02T08:00:46Z</time></trkpt><trkpt lat="43.415961895410824" lon="11.458568336675416"><ele>446.0</ele><time>2026-05-02T08:00:47Z</time></trkpt><trkpt lat="43.415923102095114" lon="11.458704225395753"><ele>446.0</ele><time>2026-05-02T08:00:48Z</time></trkpt><trkpt lat="43.41589661275893" lon="11.458848282763164"><ele>446.0</ele><time>2026-05-02T08:00:49Z</time></trkpt><trkpt lat="43.41587133849304" lon="11.458973086746662"><ele>446.0</ele><time>2026-05-02T08:00:50Z</time></trkpt><trkpt lat="43.41585417991064" lon="11.459065156626572"><ele>446.0</ele><time>2026-05-02T08:00:51Z</time></trkpt><trkpt lat="43.41586016953286" lon="11.459194622149377"><ele>446.8</ele><time>2026-05-02T08:00:53Z</time></trkpt><trkpt lat="43.41589420319593" lon="11.45928671313593"><ele>447.6</ele><time>2026-05-02T08:00:55Z</time></trkpt><trkpt lat="43.41586049790591" lon="11.459381561930847"><ele>448.4</ele><time>2026-05-02T08:00:59Z</time></trkpt><trkpt lat="43.41586442029717" lon="11.459481345540613"><ele>449.2</ele><time>2026-05-02T08:13:49Z</time></trkpt><trkpt lat="43.41587716315116" lon="11.459634663502936"><ele>450.0</ele><time>2026-05-02T08:13:51Z</time></trkpt><trkpt lat="43.41587509215002" lon="11.459825377605107"><ele>451.1666666666667</ele><time>2026-05-02T08:13:53Z</time></trkpt><trkpt lat="43.41588290158441" lon="11.459932058733735"><ele>452.33333333333337</ele><time>2026-05-02T08:13:54Z</time></trkpt><trkpt lat="43.41588316436072" lon="11.460045150790629"><ele>453.5</ele><time>2026-05-02T08:13:55Z</time></trkpt><trkpt lat="43.415888685600024" lon="11.460160988378465"><ele>454.6666666666667</ele><time>2026-05-02T08:13:56Z</time></trkpt><trkpt lat="43.41588716095812" lon="11.460285817614357"><ele>455.83333333333337</ele><time>2026-05-02T08:13:57Z</time></trkpt><trkpt lat="43.415889437401695" lon="11.460406407706895"><ele>457.0</ele><time>2026-05-02T08:13:58Z</time></trkpt><trkpt lat="43.415884494103814" lon="11.460549013524027"><ele>459.8</ele><time>2026-05-02T08:13:59Z</time></trkpt><trkpt lat="43.415900698086006" lon="11.460696063192486"><ele>462.6</ele><time>2026-05-02T08:14:00Z</time></trkpt><trkpt lat="43.4159462847856" lon="11.460810573778293"><ele>465.40000000000003</ele><time>2026-05-02T08:14:01Z</time></trkpt><trkpt lat="43.4160055856382" lon="11.460885165312718"><ele>468.20000000000005</ele><time>2026-05-02T08:14:02Z</time></trkpt><trkpt lat="43.41606722593238" lon="11.460973317789119"><ele>471.0</ele><time>2026-05-02T08:14:03Z</time></trkpt><trkpt lat="43.416128970003456" lon="11.461052012147082"><ele>471.0</ele><time>2026-05-02T08:14:04Z</time></trkpt><trkpt lat="43.41616205082184" lon="11.46121331406986"><ele>471.0</ele><time>2026-05-02T08:14:06Z</time></trkpt><trkpt lat="43.416137181259785" lon="11.461296236858114"><ele>471.0</ele><time>2026-05-02T08:14:07Z</time></trkpt><trkpt lat="43.41606582077769" lon="11.461387230802856"><ele>471.0</ele><time>2026-05-02T08:14:08Z</time></trkpt><trkpt lat="43.415982631223024" lon="11.46145634445349"><ele>471.0</ele><time>2026-05-02T08:14:09Z</time></trkpt><trkpt lat="43.41589545213772" lon="11.461497670751374"><ele>471.0</ele><time>2026-05-02T08:14:10Z</time></trkpt><trkpt lat="43.415816356786074" lon="11.46148198286583"><ele>471.0</ele><time>2026-05-02T08:14:11Z</time></trkpt><trkpt lat="43.41573074299444" lon="11.461427450473469"><ele>471.0</ele><time>2026-05-02T08:14:12Z</time></trkpt><trkpt lat="43.41566795668392" lon="11.461326602633997"><ele>471.0</ele><time>2026-05-02T08:14:13Z</time></trkpt><trkpt lat="43.41562214194115" lon="11.461199209000057"><ele>471.0</ele><time>2026-05-02T08:14:14Z</time></trkpt><trkpt lat="43.415602345325354" lon="11.461059763301266"><ele>471.0</ele><time>2026-05-02T08:14:15Z</time></trkpt><trkpt lat="43.415593689788416" lon="11.460911732335603"><ele>471.0</ele><time>2026-05-02T08:14:16Z</time></trkpt><trkpt lat="43.41555697073224" lon="11.460834131260304"><ele>471.0</ele><time>2026-05-02T08:14:17Z</time></trkpt><trkpt lat="43.41551396199948" lon="11.460754150505675"><ele>471.0</ele><time>2026-05-02T08:14:18Z</time></trkpt><trkpt lat="43.4154551115195" lon="11.460686300170757"><ele>471.0</ele><time>2026-05-02T08:14:19Z</time></trkpt><trkpt lat="43.415396688042534" lon="11.460642670029674"><ele>471.0</ele><time>2026-05-02T08:14:20Z</time></trkpt><trkpt lat="43.41533394115428" lon="11.46060506512452"><ele>472.8</ele><time>2026-05-02T08:14:21Z</time></trkpt><trkpt lat="43.41524580425485" lon="11.460638684146957"><ele>474.6</ele><time>2026-05-02T08:14:24Z</time></trkpt><trkpt lat="43.41527186437373" lon="11.460768117242154"><ele>476.4</ele><time>2026-05-02T08:14:27Z</time></trkpt><trkpt lat="43.41536031057273" lon="11.460843318173753"><ele>478.2</ele><time>2026-05-02T08:14:29Z</time></trkpt><trkpt lat="43.41543396173877" lon="11.460918665090347"><ele>480.0</ele><time>2026-05-02T08:14:31Z</time></trkpt><trkpt lat="43.41547269544545" lon="11.461047599141773"><ele>480.0</ele><time>2026-05-02T08:14:33Z</time></trkpt><trkpt lat="43.41548244081449" lon="11.46120356649433"><ele>480.0</ele><time>2026-05-02T08:14:35Z</time></trkpt><trkpt lat="43.41544710102438" lon="11.461348619881955"><ele>480.0</ele><time>2026-05-02T08:14:37Z</time></trkpt><trkpt lat="43.41541297342228" lon="11.461436635398371"><ele>480.0</ele><time>2026-05-02T08:14:38Z</time></trkpt><trkpt lat="43.41537846904732" lon="11.4615405828879"><ele>480.0</ele><time>2026-05-02T08:14:39Z</time></trkpt><trkpt lat="43.41535741624023" lon="11.461647993232113"><ele>481.6666666666667</ele><time>2026-05-02T08:14:40Z</time></trkpt><trkpt lat="43.41536556321216" lon="11.461766490653998"><ele>483.33333333333337</ele><time>2026-05-02T08:14:42Z</time></trkpt><trkpt lat="43.41530575637201" lon="11.461815278896909"><ele>485.0</ele><time>2026-05-02T08:14:44Z</time></trkpt><trkpt lat="43.415248866717405" lon="11.461763731099335"><ele>486.6666666666667</ele><time>2026-05-02T08:14:46Z</time></trkpt><trkpt lat="43.415211220869146" lon="11.46159598194458"><ele>488.33333333333337</ele><time>2026-05-02T08:14:48Z</time></trkpt><trkpt lat="43.4151921395587" lon="11.461487582998949"><ele>490.0</ele><time>2026-05-02T08:14:49Z</time></trkpt><trkpt lat="43.415104666798904" lon="11.461411501030696"><ele>490.00000000000006</ele><time>2026-05-02T08:14:51Z</time></trkpt><trkpt lat="43.41504368744413" lon="11.461369566634087"><ele>490.0</ele><time>2026-05-02T08:14:53Z</time></trkpt><trkpt lat="43.41496048790665" lon="11.461437201236482"><ele>490.0</ele><time>2026-05-02T08:14:55Z</time></trkpt><trkpt lat="43.414945913380535" lon="11.461590836552627"><ele>490.0</ele><time>2026-05-02T08:14:57Z</time></trkpt><trkpt lat="43.41493682158851" lon="11.461698649669929"><ele>490.00000000000006</ele><time>2026-05-02T08:14:58Z</time></trkpt><trkpt lat="43.41492379585894" lon="11.461813297552714"><ele>490.0</ele><time>2026-05-02T08:14:59Z</time></trkpt><trkpt lat="43.414883287037235" lon="11.461959504425348"><ele>490.0</ele><time>2026-05-02T08:15:01Z</time></trkpt><trkpt lat="43.41480449264097" lon="11.46209753689827"><ele>490.0</ele><time>2026-05-02T08:15:03Z</time></trkpt><trkpt lat="43.41472726167365" lon="11.462222187992364"><ele>490.0</ele><time>2026-05-02T08:15:05Z</time></trkpt><trkpt lat="43.41468922946146" lon="11.462359339830787"><ele>490.0</ele><time>2026-05-02T08:15:07Z</time></trkpt><trkpt lat="43.41467861967535" lon="11.462458880230548"><ele>490.0</ele><time>2026-05-02T08:15:08Z</time></trkpt><trkpt lat="43.41464899706916" lon="11.462576704396778"><ele>493.33333333333337</ele><time>2026-05-02T08:15:09Z</time></trkpt><trkpt lat="43.414611839288966" lon="11.462668710834858"><ele>496.6666666666667</ele><time>2026-05-02T08:15:10Z</time></trkpt><trkpt lat="43.41457699275429" lon="11.462763751090282"><ele>500.0</ele><time>2026-05-02T08:15:11Z</time></trkpt><trkpt lat="43.41454269352882" lon="11.462863102952198"><ele>503.33333333333337</ele><time>2026-05-02T08:15:12Z</time></trkpt><trkpt lat="43.41452305355937" lon="11.462968176290204"><ele>506.6666666666667</ele><time>2026-05-02T08:15:13Z</time></trkpt><trkpt lat="43.414528970415894" lon="11.463147846637398"><ele>510.0</ele><time>2026-05-02T08:15:15Z</time></trkpt><trkpt lat="43.41454540723786" lon="11.463240100728733"><ele>512.3333333333334</ele><time>2026-05-02T08:15:16Z</time></trkpt><trkpt lat="43.41456514227951" lon="11.463351310527173"><ele>514.6666666666666</ele><time>2026-05-02T08:15:17Z</time></trkpt><trkpt lat="43.41457375569868" lon="11.463472956749087"><ele>517.0</ele><time>2026-05-02T08:15:18Z</time></trkpt><trkpt lat="43.4145756783291" lon="11.463592502182298"><ele>519.3333333333333</ele><time>2026-05-02T08:15:19Z</time></trkpt><trkpt lat="43.414561097385246" lon="11.463704899948105"><ele>521.6666666666666</ele><time>2026-05-02T08:15:20Z</time></trkpt><trkpt lat="43.41453977823006" lon="11.463825499270717"><ele>524.0</ele><time>2026-05-02T08:15:21Z</time></trkpt><trkpt lat="43.41451190123839" lon="11.463930072050204"><ele>524.0</ele><time>2026-05-02T08:15:22Z</time></trkpt><trkpt lat="43.41444309943246" lon="11.464085000550336"><ele>524.0</ele><time>2026-05-02T08:15:24Z</time></trkpt><trkpt lat="43.414393193304754" lon="11.46415179955027"><ele>524.0</ele><time>2026-05-02T08:15:25Z</time></trkpt><trkpt lat="43.414339205117585" lon="11.464228030728831"><ele>524.0</ele><time>2026-05-02T08:15:26Z</time></trkpt><trkpt lat="43.41424877641988" lon="11.464295663187539"><ele>524.0</ele><time>2026-05-02T08:15:28Z</time></trkpt><trkpt lat="43.41419280330539" lon="11.46434082805656"><ele>524.0</ele><time>2026-05-02T08:15:29Z</time></trkpt><trkpt lat="43.414137372952" lon="11.464400893722077"><ele>524.0</ele><time>2026-05-02T08:15:30Z</time></trkpt><trkpt lat="43.4140667376951" lon="11.464456619856573"><ele>524.0</ele><time>2026-05-02T08:15:31Z</time></trkpt><trkpt lat="43.41399895480944" lon="11.464497655531082"><ele>524.0</ele><time>2026-05-02T08:15:32Z</time></trkpt><trkpt lat="43.41392534708888" lon="11.464533247759523"><ele>524.0</ele><time>2026-05-02T08:15:33Z</time></trkpt><trkpt lat="43.41385658516577" lon="11.464556594308988"><ele>524.0</ele><time>2026-05-02T08:15:34Z</time></trkpt><trkpt lat="43.41373198488969" lon="11.464606311174311"><ele>524.0</ele><time>2026-05-02T08:15:36Z</time></trkpt><trkpt lat="43.41366793499756" lon="11.46461400187425"><ele>522.8333333333333</ele><time>2026-05-02T08:15:37Z</time></trkpt><trkpt lat="43.41360179482093" lon="11.46463641184173"><ele>521.6666666666666</ele><time>2026-05-02T08:15:38Z</time></trkpt><trkpt lat="43.413535245760656" lon="11.464648473552646"><ele>520.5</ele><time>2026-05-02T08:15:39Z</time></trkpt><trkpt lat="43.413464672928576" lon="11.464648228879897"><ele>519.3333333333334</ele><time>2026-05-02T08:15:40Z</time></trkpt><trkpt lat="43.4133238538958" lon="11.464623707677266"><ele>518.1666666666667</ele><time>2026-05-02T08:15:42Z</time></trkpt><trkpt lat="43.413248945491475" lon="11.464575492297957"><ele>517.0</ele><time>2026-05-02T08:15:43Z</time></trkpt><trkpt lat="43.413186187520026" lon="11.464526038042264"><ele>516.4</ele><time>2026-05-02T08:15:44Z</time></trkpt><trkpt lat="43.41311762045888" lon="11.46447507736232"><ele>515.8000000000001</ele><time>2026-05-02T08:15:45Z</time></trkpt><trkpt lat="43.41305727111475" lon="11.464433407943432"><ele>515.2</ele><time>2026-05-02T08:15:46Z</time></trkpt><trkpt lat="43.412995291070125" lon="11.464395062756548"><ele>514.6</ele><time>2026-05-02T08:15:47Z</time></trkpt><trkpt lat="43.41287348141094" lon="11.464370404331541"><ele>514.0</ele><time>2026-05-02T08:15:49Z</time></trkpt><trkpt lat="43.412758905814066" lon="11.464366793740368"><ele>514.0</ele><time>2026-05-02T08:15:51Z</time></trkpt><trkpt lat="43.412639509649175" lon="11.464351805389688"><ele>514.0</ele><time>2026-05-02T08:15:53Z</time></trkpt><trkpt lat="43.4125728582687" lon="11.46435770801505"><ele>514.0</ele><time>2026-05-02T08:15:54Z</time></trkpt><trkpt lat="43.41250778185515" lon="11.464372509000448"><ele>514.0</ele><time>2026-05-02T08:15:55Z</time></trkpt><trkpt lat="43.41244354502668" lon="11.46440369860886"><ele>514.0</ele><time>2026-05-02T08:15:56Z</time></trkpt><trkpt lat="43.41237394726308" lon="11.464439091450192"><ele>514.0</ele><time>2026-05-02T08:15:57Z</time></trkpt><trkpt lat="43.41230755588959" lon="11.464481887441574"><ele>514.0</ele><time>2026-05-02T08:15:58Z</time></trkpt><trkpt lat="43.412238566488156" lon="11.464522572229098"><ele>514.0</ele><time>2026-05-02T08:15:59Z</time></trkpt><trkpt lat="43.41217600514547" lon="11.464575761808476"><ele>514.0</ele><time>2026-05-02T08:16:00Z</time></trkpt><trkpt lat="43.41205983719129" lon="11.464647506409204"><ele>514.0</ele><time>2026-05-02T08:16:02Z</time></trkpt><trkpt lat="43.41199108380764" lon="11.464681597786173"><ele>514.0</ele><time>2026-05-02T08:16:03Z</time></trkpt><trkpt lat="43.41192849751188" lon="11.464730254763614"><ele>514.0</ele><time>2026-05-02T08:16:04Z</time></trkpt><trkpt lat="43.41186864471502" lon="11.464773359621542"><ele>512.1666666666667</ele><time>2026-05-02T08:16:05Z</time></trkpt><trkpt lat="43.41179399756842" lon="11.464837725587003"><ele>510.33333333333337</ele><time>2026-05-02T08:16:06Z</time></trkpt><trkpt lat="43.41168080063692" lon="11.464895306859903"><ele>508.5</ele><time>2026-05-02T08:16:08Z</time></trkpt><trkpt lat="43.4116103770253" lon="11.464866717912287"><ele>506.66666666666663</ele><time>2026-05-02T08:16:09Z</time></trkpt><trkpt lat="43.41154034178525" lon="11.464843821464413"><ele>504.8333333333333</ele><time>2026-05-02T08:16:10Z</time></trkpt><trkpt lat="43.41148739745017" lon="11.464793637361124"><ele>503.0</ele><time>2026-05-02T08:16:11Z</time></trkpt><trkpt lat="43.411377341970855" lon="11.464711964662303"><ele>501.8333333333333</ele><time>2026-05-02T08:16:13Z</time></trkpt><trkpt lat="43.41131249524992" lon="11.464676220025304"><ele>500.66666666666663</ele><time>2026-05-02T08:16:14Z</time></trkpt><trkpt lat="43.411242603438744" lon="11.464622320609237"><ele>499.5</ele><time>2026-05-02T08:16:15Z</time></trkpt><trkpt lat="43.41118235753881" lon="11.464578380712714"><ele>498.33333333333337</ele><time>2026-05-02T08:16:16Z</time></trkpt><trkpt lat="43.4111252432123" lon="11.464531545758804"><ele>497.1666666666667</ele><time>2026-05-02T08:16:17Z</time></trkpt><trkpt lat="43.41103649857686" lon="11.464408527949063"><ele>496.0</ele><time>2026-05-02T08:16:19Z</time></trkpt><trkpt lat="43.41095118274782" lon="11.464430820425044"><ele>495.6</ele><time>2026-05-02T08:16:20Z</time></trkpt><trkpt lat="43.41087586000684" lon="11.464456320993374"><ele>495.20000000000005</ele><time>2026-05-02T08:16:21Z</time></trkpt><trkpt lat="43.41078368940927" lon="11.4644789128489"><ele>494.79999999999995</ele><time>2026-05-02T08:16:22Z</time></trkpt><trkpt lat="43.410696864332806" lon="11.464467041356361"><ele>494.4</ele><time>2026-05-02T08:16:23Z</time></trkpt><trkpt lat="43.41059779181729" lon="11.464473711336066"><ele>494.0</ele><time>2026-05-02T08:16:24Z</time></trkpt><trkpt lat="43.410491420166096" lon="11.464477928725163"><ele>493.5</ele><time>2026-05-02T08:16:25Z</time></trkpt><trkpt lat="43.410383369454664" lon="11.464482774877476"><ele>493.0</ele><time>2026-05-02T08:16:26Z</time></trkpt><trkpt lat="43.41027340340637" lon="11.464477053547329"><ele>492.5</ele><time>2026-05-02T08:16:27Z</time></trkpt><trkpt lat="43.41016070082988" lon="11.46447583865829"><ele>492.0</ele><time>2026-05-02T08:16:28Z</time></trkpt><trkpt lat="43.4100321216964" lon="11.46448754180878"><ele>492.0</ele><time>2026-05-02T08:16:29Z</time></trkpt><trkpt lat="43.40988532241818" lon="11.46448821869253"><ele>492.0</ele><time>2026-05-02T08:16:30Z</time></trkpt><trkpt lat="43.40975310553669" lon="11.464489998269288"><ele>492.0</ele><time>2026-05-02T08:16:31Z</time></trkpt><trkpt lat="43.40962913432414" lon="11.464498854352604"><ele>492.0</ele><time>2026-05-02T08:16:32Z</time></trkpt><trkpt lat="43.40951435991693" lon="11.4645089026688"><ele>492.20000000000005</ele><time>2026-05-02T08:16:33Z</time></trkpt><trkpt lat="43.409409324989305" lon="11.464511900881611"><ele>492.40000000000003</ele><time>2026-05-02T08:16:34Z</time></trkpt><trkpt lat="43.409306298068834" lon="11.464525347505818"><ele>492.59999999999997</ele><time>2026-05-02T08:16:35Z</time></trkpt><trkpt lat="43.40921026864965" lon="11.464531200867253"><ele>492.79999999999995</ele><time>2026-05-02T08:16:36Z</time></trkpt><trkpt lat="43.40912066341898" lon="11.464533904051576"><ele>493.0</ele><time>2026-05-02T08:16:37Z</time></trkpt><trkpt lat="43.4090480445341" lon="11.464547147285723"><ele>493.00000000000006</ele><time>2026-05-02T08:16:38Z</time></trkpt><trkpt lat="43.408978887670216" lon="11.464554482407287"><ele>493.0</ele><time>2026-05-02T08:16:39Z</time></trkpt><trkpt lat="43.40889294449507" lon="11.464557543533324"><ele>493.0</ele><time>2026-05-02T08:16:39.999Z</time></trkpt><trkpt lat="43.40880723991887" lon="11.46456612080711"><ele>493.0</ele><time>2026-05-02T08:16:40.999Z</time></trkpt><trkpt lat="43.40873182061409" lon="11.46457326986076"><ele>493.00000000000006</ele><time>2026-05-02T08:16:41.999Z</time></trkpt><trkpt lat="43.408655074513476" lon="11.46457031847232"><ele>493.0</ele><time>2026-05-02T08:16:42.999Z</time></trkpt><trkpt lat="43.40857854061199" lon="11.464562081905981"><ele>492.33333333333337</ele><time>2026-05-02T08:16:43.999Z</time></trkpt><trkpt lat="43.40850581523773" lon="11.464554638454649"><ele>491.6666666666667</ele><time>2026-05-02T08:16:44.999Z</time></trkpt><trkpt lat="43.40842047860579" lon="11.464551799692286"><ele>491.0</ele><time>2026-05-02T08:16:45.999Z</time></trkpt><trkpt lat="43.408330985019134" lon="11.464544625594232"><ele>490.33333333333337</ele><time>2026-05-02T08:16:46.999Z</time></trkpt><trkpt lat="43.40823715934328" lon="11.464535200108523"><ele>489.6666666666667</ele><time>2026-05-02T08:16:47.999Z</time></trkpt><trkpt lat="43.40813659979905" lon="11.46452814856182"><ele>489.0</ele><time>2026-05-02T08:16:48.999Z</time></trkpt><trkpt lat="43.40803556909066" lon="11.464537995400702"><ele>486.5</ele><time>2026-05-02T08:16:49.999Z</time></trkpt><trkpt lat="43.40792693263844" lon="11.464544794467553"><ele>484.0</ele><time>2026-05-02T08:16:50.999Z</time></trkpt><trkpt lat="43.407810058831636" lon="11.464555290310921"><ele>481.5</ele><time>2026-05-02T08:16:51.999Z</time></trkpt><trkpt lat="43.40769378443861" lon="11.464569902530812"><ele>479.0</ele><time>2026-05-02T08:16:52.999Z</time></trkpt><trkpt lat="43.407585074703476" lon="11.464584326819855"><ele>478.99999999999994</ele><time>2026-05-02T08:16:53.999Z</time></trkpt><trkpt lat="43.407490898373574" lon="11.464593662459336"><ele>479.0</ele><time>2026-05-02T08:16:54.999Z</time></trkpt><trkpt lat="43.40739884080397" lon="11.464606593661149"><ele>479.0</ele><time>2026-05-02T08:16:55.999Z</time></trkpt><trkpt lat="43.40730619431762" lon="11.464619810516721"><ele>479.0</ele><time>2026-05-02T08:16:56.999Z</time></trkpt><trkpt lat="43.407223694748545" lon="11.464634254048805"><ele>478.99999999999994</ele><time>2026-05-02T08:16:57.999Z</time></trkpt><trkpt lat="43.407143765464525" lon="11.46464772468472"><ele>479.0</ele><time>2026-05-02T08:16:58.999Z</time></trkpt><trkpt lat="43.407061754778056" lon="11.464655913651786"><ele>478.79999999999995</ele><time>2026-05-02T08:16:59.999Z</time></trkpt><trkpt lat="43.4069630085631" lon="11.46464784485313"><ele>478.59999999999997</ele><time>2026-05-02T08:17:00.999Z</time></trkpt><trkpt lat="43.406846792611525" lon="11.464622421591127"><ele>478.4</ele><time>2026-05-02T08:17:01.999Z</time></trkpt><trkpt lat="43.406752292478366" lon="11.464587477112271"><ele>478.2</ele><time>2026-05-02T08:17:02.999Z</time></trkpt><trkpt lat="43.40667184491059" lon="11.464555869519995"><ele>478.0</ele><time>2026-05-02T08:17:03.999Z</time></trkpt><trkpt lat="43.4065960324771" lon="11.464529246799492"><ele>477.4285714285715</ele><time>2026-05-02T08:17:04.999Z</time></trkpt><trkpt lat="43.40652299235084" lon="11.464504889921965"><ele>476.8571428571429</ele><time>2026-05-02T08:17:05.999Z</time></trkpt><trkpt lat="43.40645111061054" lon="11.464480687920313"><ele>476.2857142857143</ele><time>2026-05-02T08:17:06.999Z</time></trkpt><trkpt lat="43.406376974942276" lon="11.464459659067707"><ele>475.7142857142857</ele><time>2026-05-02T08:17:07.999Z</time></trkpt><trkpt lat="43.40630432502539" lon="11.464437036316463"><ele>475.1428571428571</ele><time>2026-05-02T08:17:08.999Z</time></trkpt><trkpt lat="43.406231493955985" lon="11.464413090960925"><ele>474.5714285714285</ele><time>2026-05-02T08:17:09.999Z</time></trkpt><trkpt lat="43.40615923569667" lon="11.464386300269725"><ele>473.99999999999994</ele><time>2026-05-02T08:17:10.999Z</time></trkpt><trkpt lat="43.40608674200296" lon="11.464354216012259"><ele>473.0</ele><time>2026-05-02T08:17:11.999Z</time></trkpt><trkpt lat="43.40601653498882" lon="11.464312503627646"><ele>472.0</ele><time>2026-05-02T08:17:12.999Z</time></trkpt><trkpt lat="43.40594696554871" lon="11.464264672240182"><ele>471.0</ele><time>2026-05-02T08:17:13.999Z</time></trkpt><trkpt lat="43.405880391263835" lon="11.464213725764479"><ele>470.0</ele><time>2026-05-02T08:17:15Z</time></trkpt><trkpt lat="43.40581349398742" lon="11.464163441154783"><ele>469.0</ele><time>2026-05-02T08:17:16Z</time></trkpt><trkpt lat="43.40574367591102" lon="11.464114153068852"><ele>468.0</ele><time>2026-05-02T08:17:17Z</time></trkpt><trkpt lat="43.40567824939073" lon="11.464061760738323"><ele>468.0</ele><time>2026-05-02T08:17:18Z</time></trkpt><trkpt lat="43.405620046636606" lon="11.464001344774957"><ele>468.0</ele><time>2026-05-02T08:17:19Z</time></trkpt><trkpt lat="43.405561320090925" lon="11.463943144729354"><ele>468.0</ele><time>2026-05-02T08:17:20Z</time></trkpt><trkpt lat="43.405500225513215" lon="11.463884820711474"><ele>468.0</ele><time>2026-05-02T08:17:21Z</time></trkpt><trkpt lat="43.40544366235729" lon="11.463825361508118"><ele>468.0</ele><time>2026-05-02T08:17:22Z</time></trkpt><trkpt lat="43.40538667032534" lon="11.463761381507558"><ele>468.0</ele><time>2026-05-02T08:17:23Z</time></trkpt><trkpt lat="43.40531434678423" lon="11.4636805438154"><ele>465.0</ele><time>2026-05-02T08:17:24Z</time></trkpt><trkpt lat="43.40523615947477" lon="11.463585826031002"><ele>461.99999999999994</ele><time>2026-05-02T08:17:25Z</time></trkpt><trkpt lat="43.40516360037781" lon="11.463498621705874"><ele>458.99999999999994</ele><time>2026-05-02T08:17:26Z</time></trkpt><trkpt lat="43.405086448408554" lon="11.463399352042497"><ele>456.0</ele><time>2026-05-02T08:17:27Z</time></trkpt><trkpt lat="43.40501620925779" lon="11.463295341750921"><ele>453.0</ele><time>2026-05-02T08:17:28Z</time></trkpt><trkpt lat="43.40494314467553" lon="11.46318535203338"><ele>453.0</ele><time>2026-05-02T08:17:29Z</time></trkpt><trkpt lat="43.40487201367725" lon="11.463065143012505"><ele>453.0</ele><time>2026-05-02T08:17:30Z</time></trkpt><trkpt lat="43.404813501032855" lon="11.462956374015185"><ele>453.0</ele><time>2026-05-02T08:17:31Z</time></trkpt><trkpt lat="43.40476582120486" lon="11.46285327483804"><ele>453.0</ele><time>2026-05-02T08:17:32Z</time></trkpt><trkpt lat="43.4047382725358" lon="11.462761853982048"><ele>453.0</ele><time>2026-05-02T08:17:33Z</time></trkpt><trkpt lat="43.404722587200084" lon="11.462664389865221"><ele>453.0</ele><time>2026-05-02T08:17:35Z</time></trkpt><trkpt lat="43.40472676386748" lon="11.462783663198069"><ele>453.0</ele><time>2026-05-02T08:17:51Z</time></trkpt><trkpt lat="43.40476282797997" lon="11.462887100336804"><ele>452.99999999999994</ele><time>2026-05-02T08:17:53Z</time></trkpt><trkpt lat="43.4048415031271" lon="11.463040433644792"><ele>452.99999999999994</ele><time>2026-05-02T08:17:55Z</time></trkpt><trkpt lat="43.40489072298704" lon="11.463130509486966"><ele>453.0</ele><time>2026-05-02T08:17:56Z</time></trkpt><trkpt lat="43.40494752768357" lon="11.463226630141063"><ele>453.0</ele><time>2026-05-02T08:17:57Z</time></trkpt><trkpt lat="43.40505365013563" lon="11.463392840425971"><ele>452.99999999999994</ele><time>2026-05-02T08:17:58Z</time></trkpt><trkpt lat="43.40511224028432" lon="11.463482958048878"><ele>453.0</ele><time>2026-05-02T08:17:59Z</time></trkpt><trkpt lat="43.40516747249067" lon="11.463557340434308"><ele>452.99999999999994</ele><time>2026-05-02T08:18:00Z</time></trkpt><trkpt lat="43.40522222052054" lon="11.463629203112507"><ele>452.99999999999994</ele><time>2026-05-02T08:18:01Z</time></trkpt><trkpt lat="43.40527452703167" lon="11.463698511646715"><ele>453.0</ele><time>2026-05-02T08:18:02Z</time></trkpt><trkpt lat="43.40532568496722" lon="11.463756769390418"><ele>452.99999999999994</ele><time>2026-05-02T08:18:03Z</time></trkpt><trkpt lat="43.40537654799972" lon="11.46381037554821"><ele>452.99999999999994</ele><time>2026-05-02T08:18:04Z</time></trkpt><trkpt lat="43.40542907264151" lon="11.463861203136313"><ele>452.6666666666667</ele><time>2026-05-02T08:18:05Z</time></trkpt><trkpt lat="43.40548891767759" lon="11.46391787167508"><ele>452.33333333333337</ele><time>2026-05-02T08:18:06Z</time></trkpt><trkpt lat="43.405590223902436" lon="11.464011685209107"><ele>452.0</ele><time>2026-05-02T08:18:08Z</time></trkpt><trkpt lat="43.40564676187631" lon="11.464052672283687"><ele>451.6666666666667</ele><time>2026-05-02T08:18:09Z</time></trkpt><trkpt lat="43.405751522679886" lon="11.464150039795108"><ele>451.33333333333337</ele><time>2026-05-02T08:18:11Z</time></trkpt><trkpt lat="43.405802921901106" lon="11.464201903366439"><ele>451.0</ele><time>2026-05-02T08:18:12Z</time></trkpt><trkpt lat="43.40590566803762" lon="11.464273722653392"><ele>454.4</ele><time>2026-05-02T08:18:14Z</time></trkpt><trkpt lat="43.40601177914193" lon="11.464352738383294"><ele>457.8</ele><time>2026-05-02T08:18:16Z</time></trkpt><trkpt lat="43.406068695968195" lon="11.464391311644471"><ele>461.19999999999993</ele><time>2026-05-02T08:18:17Z</time></trkpt><trkpt lat="43.40613117101643" lon="11.464418948884536"><ele>464.59999999999997</ele><time>2026-05-02T08:18:18Z</time></trkpt><trkpt lat="43.406248966605034" lon="11.464470962455488"><ele>468.0</ele><time>2026-05-02T08:18:20Z</time></trkpt><trkpt lat="43.40635417173511" lon="11.464508728873746"><ele>469.2</ele><time>2026-05-02T08:18:22Z</time></trkpt><trkpt lat="43.40646280206343" lon="11.4645381960288"><ele>470.4</ele><time>2026-05-02T08:18:24Z</time></trkpt><trkpt lat="43.40656969053101" lon="11.464567055213404"><ele>471.59999999999997</ele><time>2026-05-02T08:18:26Z</time></trkpt><trkpt lat="43.406676357734355" lon="11.464606441601024"><ele>472.79999999999995</ele><time>2026-05-02T08:18:28Z</time></trkpt><trkpt lat="43.40674018337497" lon="11.46462639781929"><ele>474.0</ele><time>2026-05-02T08:18:29Z</time></trkpt><trkpt lat="43.406838748460615" lon="11.46466549497646"><ele>474.6666666666667</ele><time>2026-05-02T08:18:31Z</time></trkpt><trkpt lat="43.40691926794025" lon="11.464703576128382"><ele>475.33333333333337</ele><time>2026-05-02T08:18:33Z</time></trkpt><trkpt lat="43.40701036215247" lon="11.464714375588844"><ele>476.0</ele><time>2026-05-02T08:18:35Z</time></trkpt><trkpt lat="43.40707373329927" lon="11.464711721935503"><ele>476.6666666666667</ele><time>2026-05-02T08:18:36Z</time></trkpt><trkpt lat="43.40713916222069" lon="11.464708858211257"><ele>477.33333333333337</ele><time>2026-05-02T08:18:37Z</time></trkpt><trkpt lat="43.40721176239401" lon="11.464700698039609"><ele>478.0</ele><time>2026-05-02T08:18:38Z</time></trkpt><trkpt lat="43.40729121704033" lon="11.464687386984572"><ele>478.4285714285715</ele><time>2026-05-02T08:18:39Z</time></trkpt><trkpt lat="43.40736426290935" lon="11.464680105129675"><ele>478.8571428571429</ele><time>2026-05-02T08:18:40Z</time></trkpt><trkpt lat="43.40743826669624" lon="11.46466650316739"><ele>479.2857142857143</ele><time>2026-05-02T08:18:41Z</time></trkpt><trkpt lat="43.40750679157987" lon="11.464657265510468"><ele>479.7142857142857</ele><time>2026-05-02T08:18:42Z</time></trkpt><trkpt lat="43.407573953106684" lon="11.464645110246543"><ele>480.1428571428571</ele><time>2026-05-02T08:18:43Z</time></trkpt><trkpt lat="43.40764786177681" lon="11.464639964463274"><ele>480.5714285714285</ele><time>2026-05-02T08:18:44Z</time></trkpt><trkpt lat="43.407717272718735" lon="11.464630648485532"><ele>480.99999999999994</ele><time>2026-05-02T08:18:45Z</time></trkpt><trkpt lat="43.407785458736704" lon="11.464621647248157"><ele>481.00000000000006</ele><time>2026-05-02T08:18:45.999Z</time></trkpt><trkpt lat="43.40785524838571" lon="11.464615738821855"><ele>481.0</ele><time>2026-05-02T08:18:46.999Z</time></trkpt><trkpt lat="43.40793790990542" lon="11.46461327382326"><ele>481.0</ele><time>2026-05-02T08:18:47.999Z</time></trkpt><trkpt lat="43.40801729027491" lon="11.464605320807847"><ele>481.0</ele><time>2026-05-02T08:18:48.999Z</time></trkpt><trkpt lat="43.40810088854557" lon="11.464601883074367"><ele>481.00000000000006</ele><time>2026-05-02T08:18:49.999Z</time></trkpt><trkpt lat="43.40817313987649" lon="11.464598283967126"><ele>481.0</ele><time>2026-05-02T08:18:50.999Z</time></trkpt><trkpt lat="43.40824323490687" lon="11.464596516921226"><ele>481.50000000000006</ele><time>2026-05-02T08:18:51.999Z</time></trkpt><trkpt lat="43.40831078919493" lon="11.464599553511622"><ele>482.0</ele><time>2026-05-02T08:18:52.999Z</time></trkpt><trkpt lat="43.40842394304065" lon="11.464614295375037"><ele>482.5</ele><time>2026-05-02T08:18:54.999Z</time></trkpt><trkpt lat="43.40850946795236" lon="11.464627004891023"><ele>483.0</ele><time>2026-05-02T08:18:56.999Z</time></trkpt><trkpt lat="43.40861457044524" lon="11.464634087342146"><ele>483.50000000000006</ele><time>2026-05-02T08:18:58.999Z</time></trkpt><trkpt lat="43.40868102941996" lon="11.464640463547115"><ele>484.0</ele><time>2026-05-02T08:19:00.999Z</time></trkpt><trkpt lat="43.408754942083924" lon="11.46460358371307"><ele>486.25</ele><time>2026-05-02T08:20:27Z</time></trkpt><trkpt lat="43.40885572314503" lon="11.464585951489193"><ele>488.5</ele><time>2026-05-02T08:20:29Z</time></trkpt><trkpt lat="43.40896788856623" lon="11.46457871851926"><ele>490.75</ele><time>2026-05-02T08:20:31Z</time></trkpt><trkpt lat="43.40908971145698" lon="11.464578373025091"><ele>493.0</ele><time>2026-05-02T08:20:33Z</time></trkpt><trkpt lat="43.40920814871516" lon="11.46456589423879"><ele>493.00000000000006</ele><time>2026-05-02T08:20:35Z</time></trkpt><trkpt lat="43.40930825203126" lon="11.464551798440828"><ele>493.0</ele><time>2026-05-02T08:20:37.001Z</time></trkpt><trkpt lat="43.409377191336155" lon="11.464550122626438"><ele>493.0</ele><time>2026-05-02T08:20:39.001Z</time></trkpt><trkpt lat="43.40948896740381" lon="11.464548053384622"><ele>493.0</ele><time>2026-05-02T08:21:06Z</time></trkpt><trkpt lat="43.40956071633884" lon="11.464538681172453"><ele>493.00000000000006</ele><time>2026-05-02T08:21:07Z</time></trkpt><trkpt lat="43.40964127627465" lon="11.464536723985008"><ele>493.0</ele><time>2026-05-02T08:21:08Z</time></trkpt><trkpt lat="43.40972994604424" lon="11.464537694090257"><ele>492.83333333333337</ele><time>2026-05-02T08:21:09Z</time></trkpt><trkpt lat="43.40981679970135" lon="11.464536431237754"><ele>492.6666666666667</ele><time>2026-05-02T08:21:10Z</time></trkpt><trkpt lat="43.40989634025165" lon="11.464533881253965"><ele>492.5</ele><time>2026-05-02T08:21:11Z</time></trkpt><trkpt lat="43.409975781417174" lon="11.464533214378841"><ele>492.33333333333337</ele><time>2026-05-02T08:21:12Z</time></trkpt><trkpt lat="43.410047617538794" lon="11.464530868016977"><ele>492.1666666666667</ele><time>2026-05-02T08:21:13Z</time></trkpt><trkpt lat="43.41011569951495" lon="11.464532004769744"><ele>492.0</ele><time>2026-05-02T08:21:14Z</time></trkpt><trkpt lat="43.41018121629198" lon="11.464531960505884"><ele>492.0</ele><time>2026-05-02T08:21:15Z</time></trkpt><trkpt lat="43.41028822320083" lon="11.464530784031107"><ele>492.00000000000006</ele><time>2026-05-02T08:21:17Z</time></trkpt><trkpt lat="43.410398640685386" lon="11.464531124995043"><ele>492.00000000000006</ele><time>2026-05-02T08:21:19Z</time></trkpt><trkpt lat="43.410501597391814" lon="11.464528668401147"><ele>492.0</ele><time>2026-05-02T08:21:21Z</time></trkpt><trkpt lat="43.41060499518553" lon="11.464523584702166"><ele>492.0</ele><time>2026-05-02T08:21:23Z</time></trkpt><trkpt lat="43.410719757645815" lon="11.464513810991692"><ele>492.40000000000003</ele><time>2026-05-02T08:21:25Z</time></trkpt><trkpt lat="43.41082328418087" lon="11.464499824394757"><ele>492.80000000000007</ele><time>2026-05-02T08:21:27Z</time></trkpt><trkpt lat="43.41091904036916" lon="11.464480208119921"><ele>493.2</ele><time>2026-05-02T08:21:29Z</time></trkpt><trkpt lat="43.41101623829633" lon="11.464492191812395"><ele>493.6</ele><time>2026-05-02T08:21:31Z</time></trkpt><trkpt lat="43.41110856074648" lon="11.464541412444145"><ele>494.0</ele><time>2026-05-02T08:21:33Z</time></trkpt><trkpt lat="43.41121705711412" lon="11.464632840893044"><ele>494.3333333333333</ele><time>2026-05-02T08:21:35Z</time></trkpt><trkpt lat="43.411286021320194" lon="11.464687820456296"><ele>494.66666666666663</ele><time>2026-05-02T08:21:36Z</time></trkpt><trkpt lat="43.41135657781534" lon="11.464731430765168"><ele>495.0</ele><time>2026-05-02T08:21:37Z</time></trkpt><trkpt lat="43.411431355089306" lon="11.464780042609176"><ele>495.33333333333337</ele><time>2026-05-02T08:21:38Z</time></trkpt><trkpt lat="43.411493026548364" lon="11.464816177735093"><ele>495.6666666666667</ele><time>2026-05-02T08:21:39Z</time></trkpt><trkpt lat="43.4116000003401" lon="11.464858367636511"><ele>496.0</ele><time>2026-05-02T08:21:41Z</time></trkpt><trkpt lat="43.41169699029377" lon="11.464858391572566"><ele>496.50000000000006</ele><time>2026-05-02T08:21:43Z</time></trkpt><trkpt lat="43.411816391052305" lon="11.464808100077796"><ele>497.0</ele><time>2026-05-02T08:21:45Z</time></trkpt><trkpt lat="43.411875399695845" lon="11.464774870165876"><ele>497.5</ele><time>2026-05-02T08:21:46Z</time></trkpt><trkpt lat="43.41193980512781" lon="11.464735908877415"><ele>498.0</ele><time>2026-05-02T08:21:47Z</time></trkpt><trkpt lat="43.41200426290195" lon="11.464687676850842"><ele>498.50000000000006</ele><time>2026-05-02T08:21:48Z</time></trkpt><trkpt lat="43.41207164398951" lon="11.464645999744082"><ele>499.0</ele><time>2026-05-02T08:21:49Z</time></trkpt><trkpt lat="43.412136564024586" lon="11.464608952589057"><ele>501.50000000000006</ele><time>2026-05-02T08:21:50Z</time></trkpt><trkpt lat="43.412192473680236" lon="11.464567070432567"><ele>504.0</ele><time>2026-05-02T08:21:51Z</time></trkpt><trkpt lat="43.41229426946204" lon="11.464486735904401"><ele>506.5</ele><time>2026-05-02T08:21:53Z</time></trkpt><trkpt lat="43.41237029539528" lon="11.464440782903702"><ele>509.0</ele><time>2026-05-02T08:21:54Z</time></trkpt><trkpt lat="43.41243077139889" lon="11.46440760009731"><ele>511.50000000000006</ele><time>2026-05-02T08:21:55Z</time></trkpt><trkpt lat="43.4124945089075" lon="11.464386482526463"><ele>514.0</ele><time>2026-05-02T08:21:56Z</time></trkpt><trkpt lat="43.4126021816631" lon="11.464387917503425"><ele>514.0</ele><time>2026-05-02T08:21:58.001Z</time></trkpt><trkpt lat="43.41270198844328" lon="11.464403915609465"><ele>514.0</ele><time>2026-05-02T08:22:00.001Z</time></trkpt><trkpt lat="43.41280311264135" lon="11.464403489077903"><ele>514.0</ele><time>2026-05-02T08:22:02.001Z</time></trkpt><trkpt lat="43.412885273697" lon="11.464412808972215"><ele>514.0</ele><time>2026-05-02T08:22:04.001Z</time></trkpt><trkpt lat="43.41296109783227" lon="11.464412460625399"><ele>514.0</ele><time>2026-05-02T08:22:06.001Z</time></trkpt><trkpt lat="43.41307382148984" lon="11.464423612536184"><ele>514.0</ele><time>2026-05-02T08:22:09.001Z</time></trkpt><trkpt lat="43.41318385918541" lon="11.464393181990646"><ele>514.0</ele><time>2026-05-02T08:22:11.001Z</time></trkpt><trkpt lat="43.41324824021357" lon="11.464370442244375"><ele>514.0</ele><time>2026-05-02T08:22:13.001Z</time></trkpt><trkpt lat="43.41322792173848" lon="11.46428493563817"><ele>514.0</ele><time>2026-05-02T08:22:52.001Z</time></trkpt><trkpt lat="43.413154470749795" lon="11.464397569483658"><ele>514.0</ele><time>2026-05-02T08:25:55.001Z</time></trkpt><trkpt lat="43.41306662612929" lon="11.464405222229555"><ele>514.0</ele><time>2026-05-02T08:26:08.001Z</time></trkpt><trkpt lat="43.4129758766375" lon="11.464415221407146"><ele>514.0</ele><time>2026-05-02T08:26:10.001Z</time></trkpt><trkpt lat="43.41286546515617" lon="11.464405948346986"><ele>514.0</ele><time>2026-05-02T08:26:12.001Z</time></trkpt><trkpt lat="43.41271774599194" lon="11.464387143674317"><ele>514.0</ele><time>2026-05-02T08:26:15.001Z</time></trkpt><trkpt lat="43.41260246604553" lon="11.464394083450586"><ele>514.0</ele><time>2026-05-02T08:26:17.001Z</time></trkpt><trkpt lat="43.4124773400398" lon="11.464398483220398"><ele>514.0</ele><time>2026-05-02T08:26:19.001Z</time></trkpt><trkpt lat="43.412414782269686" lon="11.464429253323415"><ele>514.0</ele><time>2026-05-02T08:26:20.001Z</time></trkpt><trkpt lat="43.41235424625061" lon="11.464467237074505"><ele>514.0</ele><time>2026-05-02T08:26:21.001Z</time></trkpt><trkpt lat="43.41223167757157" lon="11.46453336979474"><ele>514.0</ele><time>2026-05-02T08:26:23.001Z</time></trkpt><trkpt lat="43.41216361443212" lon="11.464578148861461"><ele>514.0</ele><time>2026-05-02T08:26:24.001Z</time></trkpt><trkpt lat="43.41207499015791" lon="11.464627891900568"><ele>514.0</ele><time>2026-05-02T08:26:25.001Z</time></trkpt><trkpt lat="43.41198901934203" lon="11.464682846804818"><ele>512.1666666666667</ele><time>2026-05-02T08:26:26.001Z</time></trkpt><trkpt lat="43.41191329848326" lon="11.46472827423582"><ele>510.33333333333337</ele><time>2026-05-02T08:26:27.001Z</time></trkpt><trkpt lat="43.41184446582923" lon="11.46476893661599"><ele>508.5</ele><time>2026-05-02T08:26:28.001Z</time></trkpt><trkpt lat="43.41178058825829" lon="11.464806811497228"><ele>506.66666666666663</ele><time>2026-05-02T08:26:29.001Z</time></trkpt><trkpt lat="43.41172124261134" lon="11.464836720941932"><ele>504.8333333333333</ele><time>2026-05-02T08:26:30.001Z</time></trkpt><trkpt lat="43.41159168135819" lon="11.464837716673749"><ele>503.0</ele><time>2026-05-02T08:26:32.001Z</time></trkpt><trkpt lat="43.41151510906953" lon="11.464805231863348"><ele>503.0</ele><time>2026-05-02T08:26:33.001Z</time></trkpt><trkpt lat="43.41143929344126" lon="11.464760595709574"><ele>503.00000000000006</ele><time>2026-05-02T08:26:34.001Z</time></trkpt><trkpt lat="43.41136541711121" lon="11.46471954659652"><ele>503.0</ele><time>2026-05-02T08:26:35.001Z</time></trkpt><trkpt lat="43.411299986429285" lon="11.464666864113456"><ele>503.0</ele><time>2026-05-02T08:26:36.001Z</time></trkpt><trkpt lat="43.41124217457312" lon="11.464624355537604"><ele>503.00000000000006</ele><time>2026-05-02T08:26:37.001Z</time></trkpt><trkpt lat="43.411183786486326" lon="11.464571194389181"><ele>503.0</ele><time>2026-05-02T08:26:38.001Z</time></trkpt><trkpt lat="43.41112873841862" lon="11.464522062991199"><ele>503.0</ele><time>2026-05-02T08:26:39.001Z</time></trkpt><trkpt lat="43.41106442213133" lon="11.464473254681467"><ele>501.2</ele><time>2026-05-02T08:26:40.001Z</time></trkpt><trkpt lat="43.41094357754068" lon="11.464434057008244"><ele>499.4</ele><time>2026-05-02T08:26:42.001Z</time></trkpt><trkpt lat="43.41087608947769" lon="11.464439237101193"><ele>497.59999999999997</ele><time>2026-05-02T08:26:43.001Z</time></trkpt><trkpt lat="43.41077370339961" lon="11.464473165989236"><ele>495.79999999999995</ele><time>2026-05-02T08:26:45.001Z</time></trkpt><trkpt lat="43.41069506653115" lon="11.464491493854378"><ele>494.0</ele><time>2026-05-02T08:26:47.001Z</time></trkpt><trkpt lat="43.41061376108029" lon="11.464517525365316"><ele>494.0</ele><time>2026-05-02T08:26:50.001Z</time></trkpt><trkpt lat="43.410545113495346" lon="11.464517090636944"><ele>494.0</ele><time>2026-05-02T08:26:52.001Z</time></trkpt><trkpt lat="43.41041917533271" lon="11.464492238942816"><ele>494.0</ele><time>2026-05-02T08:26:54.001Z</time></trkpt><trkpt lat="43.410321518374886" lon="11.464488715209649"><ele>494.0</ele><time>2026-05-02T08:26:55.001Z</time></trkpt><trkpt lat="43.41020466040031" lon="11.464480991884713"><ele>494.0</ele><time>2026-05-02T08:26:56.001Z</time></trkpt><trkpt lat="43.41005973712048" lon="11.464489017024457"><ele>493.66666666666663</ele><time>2026-05-02T08:26:57.001Z</time></trkpt><trkpt lat="43.40988148483428" lon="11.464491386849406"><ele>493.33333333333337</ele><time>2026-05-02T08:26:58.001Z</time></trkpt><trkpt lat="43.40973391982652" lon="11.464494308869227"><ele>493.0</ele><time>2026-05-02T08:26:59.001Z</time></trkpt><trkpt lat="43.40959885716185" lon="11.46449709553314"><ele>493.0</ele><time>2026-05-02T08:27:00.001Z</time></trkpt><trkpt lat="43.409440882898664" lon="11.46450947428663"><ele>493.0</ele><time>2026-05-02T08:27:01.001Z</time></trkpt><trkpt lat="43.409285813596995" lon="11.46452287897624"><ele>493.0</ele><time>2026-05-02T08:27:02.001Z</time></trkpt><trkpt lat="43.409164846046366" lon="11.464536733821054"><ele>493.0</ele><time>2026-05-02T08:27:03.001Z</time></trkpt><trkpt lat="43.40906548151528" lon="11.464550763493964"><ele>493.0</ele><time>2026-05-02T08:27:04.001Z</time></trkpt><trkpt lat="43.40897596709465" lon="11.46456154568984"><ele>492.99999999999994</ele><time>2026-05-02T08:27:05.001Z</time></trkpt><trkpt lat="43.408871590349435" lon="11.464571843179518"><ele>492.99999999999994</ele><time>2026-05-02T08:27:06.001Z</time></trkpt><trkpt lat="43.408771322244775" lon="11.464576717109205"><ele>493.0</ele><time>2026-05-02T08:27:07.001Z</time></trkpt><trkpt lat="43.40869362701035" lon="11.464581082790867"><ele>493.0</ele><time>2026-05-02T08:27:08.001Z</time></trkpt><trkpt lat="43.408599543531714" lon="11.464576336667204"><ele>492.0</ele><time>2026-05-02T08:27:09.001Z</time></trkpt><trkpt lat="43.40848256258494" lon="11.464568177317286"><ele>491.0</ele><time>2026-05-02T08:27:10Z</time></trkpt><trkpt lat="43.40837469147386" lon="11.46456012633639"><ele>490.0</ele><time>2026-05-02T08:27:11Z</time></trkpt><trkpt lat="43.40825542388491" lon="11.464554104068814"><ele>489.0</ele><time>2026-05-02T08:27:12Z</time></trkpt><trkpt lat="43.40812256158344" lon="11.464549893030856"><ele>489.0</ele><time>2026-05-02T08:27:13Z</time></trkpt><trkpt lat="43.40799539585102" lon="11.464550512120603"><ele>489.0</ele><time>2026-05-02T08:27:14Z</time></trkpt><trkpt lat="43.40786685868395" lon="11.464562610395527"><ele>489.0</ele><time>2026-05-02T08:27:15Z</time></trkpt><trkpt lat="43.40771808820733" lon="11.464578456910365"><ele>489.0</ele><time>2026-05-02T08:27:16Z</time></trkpt><trkpt lat="43.4075673314331" lon="11.464593287336378"><ele>487.4</ele><time>2026-05-02T08:27:17Z</time></trkpt><trkpt lat="43.40743925030473" lon="11.46461645920276"><ele>485.79999999999995</ele><time>2026-05-02T08:27:18Z</time></trkpt><trkpt lat="43.40732744885543" lon="11.464635937149332"><ele>484.20000000000005</ele><time>2026-05-02T08:27:19Z</time></trkpt><trkpt lat="43.407229614604724" lon="11.464653649588962"><ele>482.6</ele><time>2026-05-02T08:27:20Z</time></trkpt><trkpt lat="43.40712245796716" lon="11.46466884007401"><ele>481.0</ele><time>2026-05-02T08:27:21Z</time></trkpt><trkpt lat="43.40701708980899" lon="11.46467423835282"><ele>480.4</ele><time>2026-05-02T08:27:22Z</time></trkpt><trkpt lat="43.40691820280983" lon="11.464659353703707"><ele>479.8</ele><time>2026-05-02T08:27:23Z</time></trkpt><trkpt lat="43.40680662359553" lon="11.464629236281857"><ele>479.19999999999993</ele><time>2026-05-02T08:27:24Z</time></trkpt><trkpt lat="43.4067015260331" lon="11.464591369429588"><ele>478.59999999999997</ele><time>2026-05-02T08:27:25Z</time></trkpt><trkpt lat="43.40661931138785" lon="11.464557413403844"><ele>478.0</ele><time>2026-05-02T08:27:26Z</time></trkpt><trkpt lat="43.40654441055375" lon="11.464528616058082"><ele>477.33333333333337</ele><time>2026-05-02T08:27:27Z</time></trkpt><trkpt lat="43.40646082218246" lon="11.464502664494633"><ele>476.6666666666667</ele><time>2026-05-02T08:27:28Z</time></trkpt><trkpt lat="43.40638241377399" lon="11.464475770569537"><ele>476.0</ele><time>2026-05-02T08:27:29Z</time></trkpt><trkpt lat="43.40630523117558" lon="11.46444607272706"><ele>475.33333333333337</ele><time>2026-05-02T08:27:30Z</time></trkpt><trkpt lat="43.406217999001356" lon="11.464410843563973"><ele>474.6666666666667</ele><time>2026-05-02T08:27:31Z</time></trkpt><trkpt lat="43.40613321648369" lon="11.464378786484712"><ele>474.0</ele><time>2026-05-02T08:27:32Z</time></trkpt><trkpt lat="43.40604648310996" lon="11.46433455569141"><ele>472.79999999999995</ele><time>2026-05-02T08:27:33Z</time></trkpt><trkpt lat="43.40596008549698" lon="11.46427532518123"><ele>471.59999999999997</ele><time>2026-05-02T08:27:34Z</time></trkpt><trkpt lat="43.4058846483108" lon="11.464221676726915"><ele>470.4</ele><time>2026-05-02T08:27:35Z</time></trkpt><trkpt lat="43.405804980056274" lon="11.464159998640076"><ele>469.2</ele><time>2026-05-02T08:27:36Z</time></trkpt><trkpt lat="43.40572677829011" lon="11.464090930499058"><ele>468.0</ele><time>2026-05-02T08:27:37Z</time></trkpt><trkpt lat="43.405649210648576" lon="11.464019146314664"><ele>468.0</ele><time>2026-05-02T08:27:38Z</time></trkpt><trkpt lat="43.40557671211172" lon="11.46395488985611"><ele>468.0</ele><time>2026-05-02T08:27:39Z</time></trkpt><trkpt lat="43.405508972263036" lon="11.463895785249699"><ele>468.0</ele><time>2026-05-02T08:27:40Z</time></trkpt><trkpt lat="43.40543957601195" lon="11.463820894766798"><ele>468.0</ele><time>2026-05-02T08:27:41Z</time></trkpt><trkpt lat="43.40536833469753" lon="11.463755742260277"><ele>468.0</ele><time>2026-05-02T08:27:42Z</time></trkpt><trkpt lat="43.40530483097481" lon="11.463679522307283"><ele>468.0</ele><time>2026-05-02T08:27:43Z</time></trkpt><trkpt lat="43.405239107772985" lon="11.46359974187202"><ele>465.0</ele><time>2026-05-02T08:27:44Z</time></trkpt><trkpt lat="43.40518492906459" lon="11.46352448732764"><ele>461.99999999999994</ele><time>2026-05-02T08:27:45Z</time></trkpt><trkpt lat="43.40511979558478" lon="11.463438688481778"><ele>458.99999999999994</ele><time>2026-05-02T08:27:46Z</time></trkpt><trkpt lat="43.40503806329822" lon="11.463329930204614"><ele>456.0</ele><time>2026-05-02T08:27:47Z</time></trkpt><trkpt lat="43.4049683344056" lon="11.463225399251998"><ele>453.0</ele><time>2026-05-02T08:27:48Z</time></trkpt><trkpt lat="43.404899216886804" lon="11.463112737665773"><ele>453.0</ele><time>2026-05-02T08:27:49Z</time></trkpt><trkpt lat="43.4048315724931" lon="11.462992657943174"><ele>452.99999999999994</ele><time>2026-05-02T08:27:50Z</time></trkpt><trkpt lat="43.40477573296301" lon="11.462880202248597"><ele>452.99999999999994</ele><time>2026-05-02T08:27:51Z</time></trkpt><trkpt lat="43.404730533417236" lon="11.462751961241583"><ele>453.0</ele><time>2026-05-02T08:27:52Z</time></trkpt><trkpt lat="43.40469221196983" lon="11.462588149741226"><ele>453.0</ele><time>2026-05-02T08:27:53Z</time></trkpt><trkpt lat="43.40467038794602" lon="11.462414320162887"><ele>452.59999999999997</ele><time>2026-05-02T08:27:54Z</time></trkpt><trkpt lat="43.404652261268204" lon="11.4622640214482"><ele>452.19999999999993</ele><time>2026-05-02T08:27:55Z</time></trkpt><trkpt lat="43.40462793524631" lon="11.462125186525835"><ele>451.8</ele><time>2026-05-02T08:27:56Z</time></trkpt><trkpt lat="43.40460411654567" lon="11.461990562783313"><ele>451.4</ele><time>2026-05-02T08:27:57Z</time></trkpt><trkpt lat="43.40458475424144" lon="11.461854616597934"><ele>451.0</ele><time>2026-05-02T08:27:58Z</time></trkpt><trkpt lat="43.40456501018964" lon="11.461726908582731"><ele>452.25</ele><time>2026-05-02T08:27:59Z</time></trkpt><trkpt lat="43.404530347387116" lon="11.461602555402152"><ele>453.5</ele><time>2026-05-02T08:28:00Z</time></trkpt><trkpt lat="43.404465928353325" lon="11.461458815705155"><ele>454.75</ele><time>2026-05-02T08:28:01Z</time></trkpt><trkpt lat="43.404393437617905" lon="11.46131331635363"><ele>456.0</ele><time>2026-05-02T08:28:02Z</time></trkpt><trkpt lat="43.40432428132945" lon="11.461169136742301"><ele>456.4</ele><time>2026-05-02T08:28:03Z</time></trkpt><trkpt lat="43.40425902224894" lon="11.461026740530151"><ele>456.8</ele><time>2026-05-02T08:28:04Z</time></trkpt><trkpt lat="43.404195944457456" lon="11.4608829288075"><ele>457.19999999999993</ele><time>2026-05-02T08:28:05Z</time></trkpt><trkpt lat="43.404141072836296" lon="11.460754482198917"><ele>457.59999999999997</ele><time>2026-05-02T08:28:06Z</time></trkpt><trkpt lat="43.40410148477565" lon="11.460636883931446"><ele>458.0</ele><time>2026-05-02T08:28:07Z</time></trkpt><trkpt lat="43.40407443641312" lon="11.460521693073657"><ele>457.5</ele><time>2026-05-02T08:28:08Z</time></trkpt><trkpt lat="43.404067185188026" lon="11.46038880213384"><ele>457.0</ele><time>2026-05-02T08:28:09Z</time></trkpt><trkpt lat="43.40408187007071" lon="11.4602216607648"><ele>456.5</ele><time>2026-05-02T08:28:10Z</time></trkpt><trkpt lat="43.40410617390619" lon="11.460047916235181"><ele>456.0</ele><time>2026-05-02T08:28:11Z</time></trkpt><trkpt lat="43.40413124590076" lon="11.459905197057026"><ele>456.0</ele><time>2026-05-02T08:28:12Z</time></trkpt><trkpt lat="43.404151565597616" lon="11.459789199878012"><ele>456.0</ele><time>2026-05-02T08:28:13Z</time></trkpt><trkpt lat="43.40417680231864" lon="11.459672419361425"><ele>456.0</ele><time>2026-05-02T08:28:14Z</time></trkpt><trkpt lat="43.40421516251921" lon="11.459543158119136"><ele>456.0</ele><time>2026-05-02T08:28:15Z</time></trkpt><trkpt lat="43.404272654941906" lon="11.459403799720217"><ele>456.0</ele><time>2026-05-02T08:28:16Z</time></trkpt><trkpt lat="43.4043347874796" lon="11.459295769507603"><ele>455.8333333333333</ele><time>2026-05-02T08:28:17Z</time></trkpt><trkpt lat="43.40439120786089" lon="11.459211320020378"><ele>455.66666666666663</ele><time>2026-05-02T08:28:18Z</time></trkpt><trkpt lat="43.40444512837744" lon="11.459132313275816"><ele>455.5</ele><time>2026-05-02T08:28:19Z</time></trkpt><trkpt lat="43.4044963722127" lon="11.45905685707356"><ele>455.3333333333333</ele><time>2026-05-02T08:28:20Z</time></trkpt><trkpt lat="43.404545797107254" lon="11.45898967234304"><ele>455.16666666666663</ele><time>2026-05-02T08:28:21Z</time></trkpt><trkpt lat="43.40459255092328" lon="11.458928903998196"><ele>455.0</ele><time>2026-05-02T08:28:22Z</time></trkpt><trkpt lat="43.40468229734529" lon="11.458811999927118"><ele>454.42857142857144</ele><time>2026-05-02T08:28:24Z</time></trkpt><trkpt lat="43.40472021307152" lon="11.458740510784398"><ele>453.8571428571429</ele><time>2026-05-02T08:28:25Z</time></trkpt><trkpt lat="43.40475672229582" lon="11.458652503720534"><ele>453.2857142857143</ele><time>2026-05-02T08:28:26Z</time></trkpt><trkpt lat="43.4047820139426" lon="11.45855858601874"><ele>452.7142857142857</ele><time>2026-05-02T08:28:27Z</time></trkpt><trkpt lat="43.40480103210974" lon="11.458463661725506"><ele>452.14285714285717</ele><time>2026-05-02T08:28:28Z</time></trkpt><trkpt lat="43.404822914759016" lon="11.458372928672494"><ele>451.57142857142856</ele><time>2026-05-02T08:28:29Z</time></trkpt><trkpt lat="43.40484619013338" lon="11.458287638806283"><ele>451.0</ele><time>2026-05-02T08:28:30Z</time></trkpt><trkpt lat="43.4048739592545" lon="11.458207337416766"><ele>451.0</ele><time>2026-05-02T08:28:31Z</time></trkpt><trkpt lat="43.40494714276634" lon="11.45809660007496"><ele>451.0</ele><time>2026-05-02T08:28:33Z</time></trkpt><trkpt lat="43.40500551620529" lon="11.457996851565234"><ele>451.0</ele><time>2026-05-02T08:28:35.001Z</time></trkpt><trkpt lat="43.4050226037332" lon="11.45782289501375"><ele>451.0</ele><time>2026-05-02T08:28:37.001Z</time></trkpt><trkpt lat="43.40502063758834" lon="11.457720900402204"><ele>451.0</ele><time>2026-05-02T08:28:38.001Z</time></trkpt><trkpt lat="43.40501001391643" lon="11.457614488180255"><ele>449.6666666666667</ele><time>2026-05-02T08:28:39.001Z</time></trkpt><trkpt lat="43.4049980315157" lon="11.457507763229906"><ele>448.33333333333337</ele><time>2026-05-02T08:28:40.001Z</time></trkpt><trkpt lat="43.40498769949685" lon="11.457398927138065"><ele>447.0</ele><time>2026-05-02T08:28:41.001Z</time></trkpt><trkpt lat="43.404977791367294" lon="11.45728570543403"><ele>445.66666666666663</ele><time>2026-05-02T08:28:42.001Z</time></trkpt><trkpt lat="43.40496175328443" lon="11.45717095105304"><ele>444.3333333333333</ele><time>2026-05-02T08:28:43.001Z</time></trkpt><trkpt lat="43.40494573445701" lon="11.457064886026913"><ele>443.0</ele><time>2026-05-02T08:28:44.001Z</time></trkpt><trkpt lat="43.40492761193648" lon="11.456965387451922"><ele>441.8333333333333</ele><time>2026-05-02T08:28:45.001Z</time></trkpt><trkpt lat="43.40490213506284" lon="11.456872366127492"><ele>440.66666666666663</ele><time>2026-05-02T08:28:46.001Z</time></trkpt><trkpt lat="43.404873203276715" lon="11.456787878026756"><ele>439.5</ele><time>2026-05-02T08:28:47.001Z</time></trkpt><trkpt lat="43.40484307402579" lon="11.456709457477482"><ele>438.33333333333337</ele><time>2026-05-02T08:28:48.001Z</time></trkpt><trkpt lat="43.40479647420268" lon="11.456589006055953"><ele>437.1666666666667</ele><time>2026-05-02T08:28:50.001Z</time></trkpt><trkpt lat="43.40479212233766" lon="11.456459215352663"><ele>436.0</ele><time>2026-05-02T08:28:52.001Z</time></trkpt><trkpt lat="43.40489083301907" lon="11.456341836822633"><ele>436.0</ele><time>2026-05-02T08:28:54.001Z</time></trkpt><trkpt lat="43.40497445879785" lon="11.456328080894707"><ele>436.0</ele><time>2026-05-02T08:28:55.001Z</time></trkpt><trkpt lat="43.40507161424247" lon="11.456342699247038"><ele>436.0</ele><time>2026-05-02T08:28:56.001Z</time></trkpt><trkpt lat="43.40517742098124" lon="11.45636809893022"><ele>436.0</ele><time>2026-05-02T08:28:57.001Z</time></trkpt><trkpt lat="43.405276216452464" lon="11.456384482687158"><ele>436.0</ele><time>2026-05-02T08:28:58.001Z</time></trkpt><trkpt lat="43.40536019728033" lon="11.456399865641002"><ele>436.00000000000006</ele><time>2026-05-02T08:28:59.001Z</time></trkpt><trkpt lat="43.405443289850446" lon="11.456408719547698"><ele>436.0</ele><time>2026-05-02T08:29:00.001Z</time></trkpt><trkpt lat="43.405520436657255" lon="11.456405307634734"><ele>436.0</ele><time>2026-05-02T08:29:01.001Z</time></trkpt><trkpt lat="43.40558779585937" lon="11.456398888786126"><ele>436.0</ele><time>2026-05-02T08:29:02.001Z</time></trkpt><trkpt lat="43.40565640869755" lon="11.456374410828598"><ele>436.00000000000006</ele><time>2026-05-02T08:29:03.001Z</time></trkpt><trkpt lat="43.40573012604734" lon="11.456312494002766"><ele>436.0</ele><time>2026-05-02T08:29:04.001Z</time></trkpt><trkpt lat="43.40580681648537" lon="11.456222413786175"><ele>434.33333333333337</ele><time>2026-05-02T08:29:05.001Z</time></trkpt><trkpt lat="43.405868838874866" lon="11.456127416301404"><ele>432.6666666666667</ele><time>2026-05-02T08:29:06.001Z</time></trkpt><trkpt lat="43.40592044960273" lon="11.456045299249697"><ele>431.0</ele><time>2026-05-02T08:29:07.001Z</time></trkpt><trkpt lat="43.405962544819396" lon="11.45595054181853"><ele>429.33333333333337</ele><time>2026-05-02T08:29:08.001Z</time></trkpt><trkpt lat="43.40600026047048" lon="11.45583735601887"><ele>427.6666666666667</ele><time>2026-05-02T08:29:09.001Z</time></trkpt><trkpt lat="43.406029777925674" lon="11.45570094006005"><ele>426.0</ele><time>2026-05-02T08:29:10.001Z</time></trkpt><trkpt lat="43.40605412401821" lon="11.455541467401607"><ele>425.3333333333333</ele><time>2026-05-02T08:29:11.001Z</time></trkpt><trkpt lat="43.40606593597171" lon="11.45541140492131"><ele>424.66666666666663</ele><time>2026-05-02T08:29:12.001Z</time></trkpt><trkpt lat="43.406086294901925" lon="11.455298945241081"><ele>424.0</ele><time>2026-05-02T08:29:13.001Z</time></trkpt><trkpt lat="43.406112765552024" lon="11.455187908653421"><ele>423.3333333333333</ele><time>2026-05-02T08:29:14.001Z</time></trkpt><trkpt lat="43.40614141157024" lon="11.45508007297287"><ele>422.66666666666663</ele><time>2026-05-02T08:29:15.001Z</time></trkpt><trkpt lat="43.40616889920812" lon="11.45497665354549"><ele>422.0</ele><time>2026-05-02T08:29:15.999Z</time></trkpt><trkpt lat="43.40619541607433" lon="11.454866291041718"><ele>422.0</ele><time>2026-05-02T08:29:16.999Z</time></trkpt><trkpt lat="43.4062258648888" lon="11.454768244307456"><ele>422.0</ele><time>2026-05-02T08:29:17.999Z</time></trkpt><trkpt lat="43.406273377036484" lon="11.454656210246233"><ele>422.0</ele><time>2026-05-02T08:29:18.999Z</time></trkpt><trkpt lat="43.406332583022824" lon="11.454554733349953"><ele>422.0</ele><time>2026-05-02T08:29:19.999Z</time></trkpt><trkpt lat="43.40640599794745" lon="11.454447543158247"><ele>422.0</ele><time>2026-05-02T08:29:20.999Z</time></trkpt><trkpt lat="43.40646671831015" lon="11.454322387459328"><ele>420.0</ele><time>2026-05-02T08:29:21.999Z</time></trkpt><trkpt lat="43.40650991461437" lon="11.45418552401269"><ele>418.0</ele><time>2026-05-02T08:29:22.999Z</time></trkpt><trkpt lat="43.40653776293013" lon="11.45405545197202"><ele>416.0</ele><time>2026-05-02T08:29:23.999Z</time></trkpt><trkpt lat="43.40655946234519" lon="11.453932489429155"><ele>414.0</ele><time>2026-05-02T08:29:24.999Z</time></trkpt><trkpt lat="43.40656961534411" lon="11.453823977328996"><ele>412.0</ele><time>2026-05-02T08:29:25.999Z</time></trkpt><trkpt lat="43.406563290233656" lon="11.453718487667459"><ele>412.0</ele><time>2026-05-02T08:29:26.999Z</time></trkpt><trkpt lat="43.40654171135113" lon="11.453605046820803"><ele>412.0</ele><time>2026-05-02T08:29:27.999Z</time></trkpt><trkpt lat="43.40650174115245" lon="11.4534697514323"><ele>412.0</ele><time>2026-05-02T08:29:28.999Z</time></trkpt><trkpt lat="43.406464956968556" lon="11.453358566777245"><ele>412.0</ele><time>2026-05-02T08:29:29.999Z</time></trkpt><trkpt lat="43.40644064718767" lon="11.453236394016008"><ele>412.0</ele><time>2026-05-02T08:29:30.999Z</time></trkpt><trkpt lat="43.40643325992737" lon="11.453106406017334"><ele>412.0</ele><time>2026-05-02T08:29:31.999Z</time></trkpt><trkpt lat="43.406442529000024" lon="11.452972320682317"><ele>412.0</ele><time>2026-05-02T08:29:32.999Z</time></trkpt><trkpt lat="43.40646443034715" lon="11.452844810052907"><ele>412.0</ele><time>2026-05-02T08:29:33.999Z</time></trkpt><trkpt lat="43.40649722412475" lon="11.452724531747347"><ele>412.0</ele><time>2026-05-02T08:29:34.999Z</time></trkpt><trkpt lat="43.40651085996767" lon="11.452586349767817"><ele>412.0</ele><time>2026-05-02T08:29:35.999Z</time></trkpt><trkpt lat="43.406519796337996" lon="11.452450267222494"><ele>411.40000000000003</ele><time>2026-05-02T08:29:37Z</time></trkpt><trkpt lat="43.40652715533158" lon="11.452306948688204"><ele>410.8</ele><time>2026-05-02T08:29:38Z</time></trkpt><trkpt lat="43.40652214199398" lon="11.452163796667048"><ele>410.2</ele><time>2026-05-02T08:29:39Z</time></trkpt><trkpt lat="43.4065003923978" lon="11.452023487984787"><ele>409.6</ele><time>2026-05-02T08:29:40Z</time></trkpt><trkpt lat="43.40646288560555" lon="11.451883965933874"><ele>409.0</ele><time>2026-05-02T08:29:41Z</time></trkpt><trkpt lat="43.40640933369019" lon="11.451741320517499"><ele>409.4</ele><time>2026-05-02T08:29:42Z</time></trkpt><trkpt lat="43.40633568966542" lon="11.451598564268487"><ele>409.79999999999995</ele><time>2026-05-02T08:29:43Z</time></trkpt><trkpt lat="43.40627123916252" lon="11.451475429235893"><ele>410.20000000000005</ele><time>2026-05-02T08:29:44Z</time></trkpt><trkpt lat="43.406211748208015" lon="11.451369255297774"><ele>410.6</ele><time>2026-05-02T08:29:45Z</time></trkpt><trkpt lat="43.40615438002782" lon="11.451264365861721"><ele>411.0</ele><time>2026-05-02T08:29:46Z</time></trkpt><trkpt lat="43.406093810420344" lon="11.45115554089089"><ele>411.0</ele><time>2026-05-02T08:29:47Z</time></trkpt><trkpt lat="43.40603763136249" lon="11.451048371434617"><ele>411.0</ele><time>2026-05-02T08:29:48Z</time></trkpt><trkpt lat="43.40598692601467" lon="11.450919769249664"><ele>411.0</ele><time>2026-05-02T08:29:49Z</time></trkpt><trkpt lat="43.405939573844826" lon="11.450777561980786"><ele>411.0</ele><time>2026-05-02T08:29:50Z</time></trkpt><trkpt lat="43.40589727415324" lon="11.45060837324331"><ele>411.0</ele><time>2026-05-02T08:29:51Z</time></trkpt><trkpt lat="43.405862819909885" lon="11.45044368005304"><ele>410.4</ele><time>2026-05-02T08:29:52Z</time></trkpt><trkpt lat="43.405819699459116" lon="11.450290562468219"><ele>409.8</ele><time>2026-05-02T08:29:53Z</time></trkpt><trkpt lat="43.40576625917375" lon="11.45014487202511"><ele>409.2</ele><time>2026-05-02T08:29:54Z</time></trkpt><trkpt lat="43.405719778881405" lon="11.450030866080212"><ele>408.59999999999997</ele><time>2026-05-02T08:29:55Z</time></trkpt><trkpt lat="43.4056692766114" lon="11.4499256766533"><ele>408.0</ele><time>2026-05-02T08:29:56Z</time></trkpt><trkpt lat="43.40561697031545" lon="11.449833304087015"><ele>408.0</ele><time>2026-05-02T08:29:57Z</time></trkpt><trkpt lat="43.40556315831928" lon="11.449723206177561"><ele>408.0</ele><time>2026-05-02T08:29:58Z</time></trkpt><trkpt lat="43.405502740401495" lon="11.449611666551535"><ele>408.0</ele><time>2026-05-02T08:29:59Z</time></trkpt><trkpt lat="43.40543110269517" lon="11.449499744323534"><ele>408.0</ele><time>2026-05-02T08:30:00Z</time></trkpt><trkpt lat="43.40535306371583" lon="11.44937300430682"><ele>408.0</ele><time>2026-05-02T08:30:01Z</time></trkpt><trkpt lat="43.40527614405258" lon="11.449256010048789"><ele>406.59999999999997</ele><time>2026-05-02T08:30:02Z</time></trkpt><trkpt lat="43.405212035497954" lon="11.449159686215783"><ele>405.2</ele><time>2026-05-02T08:30:03Z</time></trkpt><trkpt lat="43.40516217305095" lon="11.449076810518767"><ele>403.8</ele><time>2026-05-02T08:30:04Z</time></trkpt><trkpt lat="43.4050953081337" lon="11.44895079816068"><ele>402.4</ele><time>2026-05-02T08:30:06Z</time></trkpt><trkpt lat="43.40503426158708" lon="11.448838539394687"><ele>401.0</ele><time>2026-05-02T08:30:08Z</time></trkpt><trkpt lat="43.40498549249758" lon="11.448735937426935"><ele>400.5</ele><time>2026-05-02T08:30:10Z</time></trkpt><trkpt lat="43.40490032348076" lon="11.448608329390897"><ele>400.0</ele><time>2026-05-02T08:30:12Z</time></trkpt><trkpt lat="43.404805464309106" lon="11.448506707833454"><ele>399.5</ele><time>2026-05-02T08:30:13Z</time></trkpt><trkpt lat="43.40467745046798" lon="11.44839578441948"><ele>399.0</ele><time>2026-05-02T08:30:14Z</time></trkpt><trkpt lat="43.40452769040371" lon="11.448285028344026"><ele>398.66666666666663</ele><time>2026-05-02T08:30:15Z</time></trkpt><trkpt lat="43.40436606302141" lon="11.448167482924953"><ele>398.3333333333333</ele><time>2026-05-02T08:30:16Z</time></trkpt><trkpt lat="43.4042036931188" lon="11.448048599777554"><ele>398.0</ele><time>2026-05-02T08:30:17Z</time></trkpt><trkpt lat="43.404043333223704" lon="11.447937083629226"><ele>398.3333333333333</ele><time>2026-05-02T08:30:18Z</time></trkpt><trkpt lat="43.40388380916864" lon="11.447851455358835"><ele>398.66666666666663</ele><time>2026-05-02T08:30:19Z</time></trkpt><trkpt lat="43.40373541909333" lon="11.447783525420968"><ele>399.0</ele><time>2026-05-02T08:30:20Z</time></trkpt><trkpt lat="43.40359521066839" lon="11.447724753681133"><ele>399.0</ele><time>2026-05-02T08:30:21Z</time></trkpt><trkpt lat="43.40347466991359" lon="11.447672468548431"><ele>399.0</ele><time>2026-05-02T08:30:22Z</time></trkpt><trkpt lat="43.4033770318446" lon="11.447625499513842"><ele>399.0</ele><time>2026-05-02T08:30:23Z</time></trkpt><trkpt lat="43.40328586197141" lon="11.447577304515907"><ele>399.0</ele><time>2026-05-02T08:30:24Z</time></trkpt><trkpt lat="43.40318957974814" lon="11.447524275276782"><ele>399.0</ele><time>2026-05-02T08:30:25Z</time></trkpt><trkpt lat="43.40308975979638" lon="11.44746623470645"><ele>397.0</ele><time>2026-05-02T08:30:26Z</time></trkpt><trkpt lat="43.40299231233096" lon="11.447411841791006"><ele>395.0</ele><time>2026-05-02T08:30:27Z</time></trkpt><trkpt lat="43.40288670529015" lon="11.447350504822086"><ele>393.0</ele><time>2026-05-02T08:30:28Z</time></trkpt><trkpt lat="43.402778873383376" lon="11.44729254325236"><ele>391.0</ele><time>2026-05-02T08:30:29Z</time></trkpt><trkpt lat="43.402665126753874" lon="11.447224805178163"><ele>391.0</ele><time>2026-05-02T08:30:30Z</time></trkpt><trkpt lat="43.40255016424225" lon="11.447157991942758"><ele>391.0</ele><time>2026-05-02T08:30:31Z</time></trkpt><trkpt lat="43.40243881634835" lon="11.447085569997705"><ele>391.0</ele><time>2026-05-02T08:30:32Z</time></trkpt><trkpt lat="43.40232501456127" lon="11.447012163524144"><ele>391.0</ele><time>2026-05-02T08:30:33Z</time></trkpt><trkpt lat="43.402216199693285" lon="11.446937978157925"><ele>390.25</ele><time>2026-05-02T08:30:34Z</time></trkpt><trkpt lat="43.40211393543351" lon="11.446862123224474"><ele>389.5</ele><time>2026-05-02T08:30:35Z</time></trkpt><trkpt lat="43.40201317179207" lon="11.446784143941926"><ele>388.75</ele><time>2026-05-02T08:30:36Z</time></trkpt><trkpt lat="43.40191892253573" lon="11.446702532913777"><ele>388.0</ele><time>2026-05-02T08:30:37Z</time></trkpt><trkpt lat="43.40182862263961" lon="11.446611213111638"><ele>388.0</ele><time>2026-05-02T08:30:38Z</time></trkpt><trkpt lat="43.40173991693449" lon="11.446507616149278"><ele>388.0</ele><time>2026-05-02T08:30:39Z</time></trkpt><trkpt lat="43.40164988799568" lon="11.446392525597822"><ele>388.0</ele><time>2026-05-02T08:30:40Z</time></trkpt><trkpt lat="43.40156039326006" lon="11.44627249552407"><ele>388.0</ele><time>2026-05-02T08:30:41Z</time></trkpt><trkpt lat="43.4014730006069" lon="11.446160328380962"><ele>388.5</ele><time>2026-05-02T08:30:42Z</time></trkpt><trkpt lat="43.40138587336466" lon="11.446050568680183"><ele>389.0</ele><time>2026-05-02T08:30:43Z</time></trkpt><trkpt lat="43.401295563668036" lon="11.445928802539544"><ele>389.5</ele><time>2026-05-02T08:30:44Z</time></trkpt><trkpt lat="43.4012118292444" lon="11.445790742460133"><ele>390.0</ele><time>2026-05-02T08:30:45Z</time></trkpt><trkpt lat="43.40113505133986" lon="11.44565408792544"><ele>388.25</ele><time>2026-05-02T08:30:46Z</time></trkpt><trkpt lat="43.40105711104989" lon="11.4455177355105"><ele>386.5</ele><time>2026-05-02T08:30:47Z</time></trkpt><trkpt lat="43.400980268768" lon="11.44538580164043"><ele>384.75</ele><time>2026-05-02T08:30:48Z</time></trkpt><trkpt lat="43.400893815484686" lon="11.445249949087197"><ele>383.0</ele><time>2026-05-02T08:30:49Z</time></trkpt><trkpt lat="43.40079381438512" lon="11.445119953160745"><ele>382.6666666666667</ele><time>2026-05-02T08:30:50Z</time></trkpt><trkpt lat="43.40067012676343" lon="11.4449607938618"><ele>382.3333333333333</ele><time>2026-05-02T08:30:51Z</time></trkpt><trkpt lat="43.400524302787" lon="11.444777682296053"><ele>382.0</ele><time>2026-05-02T08:30:52Z</time></trkpt><trkpt lat="43.40037206351687" lon="11.444572795709968"><ele>380.3333333333333</ele><time>2026-05-02T08:30:53Z</time></trkpt><trkpt lat="43.40022646068439" lon="11.44437188497519"><ele>378.6666666666667</ele><time>2026-05-02T08:30:54Z</time></trkpt><trkpt lat="43.40008903282681" lon="11.444187918452704"><ele>377.0</ele><time>2026-05-02T08:30:55Z</time></trkpt><trkpt lat="43.399966843812656" lon="11.444027371152705"><ele>377.0</ele><time>2026-05-02T08:30:56Z</time></trkpt><trkpt lat="43.39986610947933" lon="11.443897328808381"><ele>377.0</ele><time>2026-05-02T08:30:57Z</time></trkpt><trkpt lat="43.399775164518296" lon="11.44379092110595"><ele>377.0</ele><time>2026-05-02T08:30:58Z</time></trkpt><trkpt lat="43.39967847820505" lon="11.443713593861188"><ele>377.0</ele><time>2026-05-02T08:30:59Z</time></trkpt><trkpt lat="43.39957668723549" lon="11.443660400788415"><ele>376.83333333333337</ele><time>2026-05-02T08:31:00Z</time></trkpt><trkpt lat="43.39948630277709" lon="11.443631508769661"><ele>376.6666666666667</ele><time>2026-05-02T08:31:01Z</time></trkpt><trkpt lat="43.399413647508254" lon="11.443600304748585"><ele>376.5</ele><time>2026-05-02T08:31:02Z</time></trkpt><trkpt lat="43.39934380420581" lon="11.443562003563507"><ele>376.3333333333333</ele><time>2026-05-02T08:31:03Z</time></trkpt><trkpt lat="43.39926195512009" lon="11.443530235781305"><ele>376.16666666666663</ele><time>2026-05-02T08:31:04Z</time></trkpt><trkpt lat="43.3991837217092" lon="11.443502332955434"><ele>376.0</ele><time>2026-05-02T08:31:05Z</time></trkpt><trkpt lat="43.399096985277396" lon="11.443475152701554"><ele>376.0</ele><time>2026-05-02T08:31:06.001Z</time></trkpt><trkpt lat="43.399006598902055" lon="11.443461431957171"><ele>376.0</ele><time>2026-05-02T08:31:07.001Z</time></trkpt><trkpt lat="43.39889426969556" lon="11.443462946508273"><ele>376.0</ele><time>2026-05-02T08:31:08.001Z</time></trkpt><trkpt lat="43.398767585632854" lon="11.44348220742158"><ele>376.0</ele><time>2026-05-02T08:31:09.001Z</time></trkpt><trkpt lat="43.39863483922369" lon="11.443512588426843"><ele>376.0</ele><time>2026-05-02T08:31:10.001Z</time></trkpt><trkpt lat="43.398508510621326" lon="11.443536656461303"><ele>376.0</ele><time>2026-05-02T08:31:11.001Z</time></trkpt><trkpt lat="43.39838575583965" lon="11.443558204568653"><ele>376.0</ele><time>2026-05-02T08:31:12.001Z</time></trkpt><trkpt lat="43.39827237039629" lon="11.443581539174275"><ele>376.0</ele><time>2026-05-02T08:31:13.001Z</time></trkpt><trkpt lat="43.3981621837597" lon="11.443603775469736"><ele>376.0</ele><time>2026-05-02T08:31:14.001Z</time></trkpt><trkpt lat="43.39805002399795" lon="11.443629305843308"><ele>376.0</ele><time>2026-05-02T08:31:15.001Z</time></trkpt><trkpt lat="43.39793452488228" lon="11.44364785836758"><ele>376.0</ele><time>2026-05-02T08:31:16.001Z</time></trkpt><trkpt lat="43.39780674468476" lon="11.443641744119569"><ele>376.0</ele><time>2026-05-02T08:31:17.001Z</time></trkpt><trkpt lat="43.39766724742398" lon="11.443593010521266"><ele>375.25</ele><time>2026-05-02T08:31:18.001Z</time></trkpt><trkpt lat="43.39751497592186" lon="11.443519758670302"><ele>374.5</ele><time>2026-05-02T08:31:19.001Z</time></trkpt><trkpt lat="43.397374732584" lon="11.443462229318706"><ele>373.75</ele><time>2026-05-02T08:31:20.001Z</time></trkpt><trkpt lat="43.39724493708885" lon="11.443417135038244"><ele>373.0</ele><time>2026-05-02T08:31:21.001Z</time></trkpt><trkpt lat="43.39712042885445" lon="11.443374556943812"><ele>372.59999999999997</ele><time>2026-05-02T08:31:21.998Z</time></trkpt><trkpt lat="43.397004482037474" lon="11.443332270329117"><ele>372.2</ele><time>2026-05-02T08:31:22.998Z</time></trkpt><trkpt lat="43.39689498913765" lon="11.443288005414297"><ele>371.8</ele><time>2026-05-02T08:31:23.999Z</time></trkpt><trkpt lat="43.39679324279678" lon="11.443249010273252"><ele>371.4</ele><time>2026-05-02T08:31:24.999Z</time></trkpt><trkpt lat="43.39668923180859" lon="11.443206833668036"><ele>371.0</ele><time>2026-05-02T08:31:25.999Z</time></trkpt><trkpt lat="43.3965811682138" lon="11.443161678208815"><ele>371.0</ele><time>2026-05-02T08:31:26.999Z</time></trkpt><trkpt lat="43.39646995491277" lon="11.443108737323282"><ele>371.0</ele><time>2026-05-02T08:31:27.999Z</time></trkpt><trkpt lat="43.39634808601799" lon="11.44305598607957"><ele>371.0</ele><time>2026-05-02T08:31:28.999Z</time></trkpt><trkpt lat="43.39621787725877" lon="11.443001301480416"><ele>371.0</ele><time>2026-05-02T08:31:29.999Z</time></trkpt><trkpt lat="43.39609186542604" lon="11.442955862842899"><ele>370.0</ele><time>2026-05-02T08:31:30.999Z</time></trkpt><trkpt lat="43.395977198655416" lon="11.442910543923398"><ele>369.0</ele><time>2026-05-02T08:31:31.999Z</time></trkpt><trkpt lat="43.39586401047025" lon="11.442865655999855"><ele>368.0</ele><time>2026-05-02T08:31:32.999Z</time></trkpt><trkpt lat="43.395740705433255" lon="11.442816953027656"><ele>367.0</ele><time>2026-05-02T08:31:33.999Z</time></trkpt><trkpt lat="43.39561544983411" lon="11.442766346273777"><ele>367.25</ele><time>2026-05-02T08:31:34.999Z</time></trkpt><trkpt lat="43.3954839385738" lon="11.442720363698035"><ele>367.5</ele><time>2026-05-02T08:31:35.999Z</time></trkpt><trkpt lat="43.39533954272966" lon="11.442680913940647"><ele>367.75</ele><time>2026-05-02T08:31:36.999Z</time></trkpt><trkpt lat="43.395187332021756" lon="11.442665891599015"><ele>368.0</ele><time>2026-05-02T08:31:37.999Z</time></trkpt><trkpt lat="43.3950322101462" lon="11.442675746433917"><ele>368.0</ele><time>2026-05-02T08:31:38.999Z</time></trkpt><trkpt lat="43.39488048804683" lon="11.442693221592066"><ele>368.0</ele><time>2026-05-02T08:31:39.999Z</time></trkpt><trkpt lat="43.39472724870731" lon="11.44271126953562"><ele>368.0</ele><time>2026-05-02T08:31:40.999Z</time></trkpt><trkpt lat="43.39457934719869" lon="11.44271555835406"><ele>368.0</ele><time>2026-05-02T08:31:41.999Z</time></trkpt><trkpt lat="43.394444536622245" lon="11.442701990138534"><ele>368.0</ele><time>2026-05-02T08:31:42.999Z</time></trkpt><trkpt lat="43.39431874194613" lon="11.442684697215089"><ele>368.0</ele><time>2026-05-02T08:31:43.999Z</time></trkpt><trkpt lat="43.394197805238726" lon="11.442667895662703"><ele>368.0</ele><time>2026-05-02T08:31:44.999Z</time></trkpt><trkpt lat="43.394075268453285" lon="11.442651459577183"><ele>368.0</ele><time>2026-05-02T08:31:45.999Z</time></trkpt><trkpt lat="43.393949870062755" lon="11.442633756534777"><ele>368.0</ele><time>2026-05-02T08:31:46.999Z</time></trkpt><trkpt lat="43.39382014603949" lon="11.442614775733569"><ele>368.0</ele><time>2026-05-02T08:31:47.999Z</time></trkpt><trkpt lat="43.393682479412945" lon="11.442590139131418"><ele>368.0</ele><time>2026-05-02T08:31:48.999Z</time></trkpt><trkpt lat="43.393528780500795" lon="11.442542661328408"><ele>368.0</ele><time>2026-05-02T08:31:49.999Z</time></trkpt><trkpt lat="43.393382362805546" lon="11.442477640252804"><ele>368.0</ele><time>2026-05-02T08:31:50.999Z</time></trkpt><trkpt lat="43.393256635589246" lon="11.442411295523211"><ele>368.0</ele><time>2026-05-02T08:31:51.999Z</time></trkpt><trkpt lat="43.39313502221154" lon="11.442350205248013"><ele>368.0</ele><time>2026-05-02T08:31:52.999Z</time></trkpt><trkpt lat="43.3930123101903" lon="11.44230415416989"><ele>368.25</ele><time>2026-05-02T08:31:53.999Z</time></trkpt><trkpt lat="43.392881470571055" lon="11.442286668088414"><ele>368.5</ele><time>2026-05-02T08:31:54.999Z</time></trkpt><trkpt lat="43.392753776909956" lon="11.442299262866648"><ele>368.75</ele><time>2026-05-02T08:31:56Z</time></trkpt><trkpt lat="43.39263198248751" lon="11.44232570175161"><ele>369.0</ele><time>2026-05-02T08:31:57Z</time></trkpt><trkpt lat="43.39250870860142" lon="11.442362907003423"><ele>369.0</ele><time>2026-05-02T08:31:58Z</time></trkpt><trkpt lat="43.39238087691064" lon="11.442417576202558"><ele>369.0</ele><time>2026-05-02T08:31:59Z</time></trkpt><trkpt lat="43.39224691927958" lon="11.442489845849517"><ele>369.0</ele><time>2026-05-02T08:32:00Z</time></trkpt><trkpt lat="43.392116757433065" lon="11.442578264823213"><ele>369.0</ele><time>2026-05-02T08:32:01Z</time></trkpt><trkpt lat="43.39198509799247" lon="11.442669251581625"><ele>368.25</ele><time>2026-05-02T08:32:02Z</time></trkpt><trkpt lat="43.39185355836753" lon="11.442758667534248"><ele>367.5</ele><time>2026-05-02T08:32:03Z</time></trkpt><trkpt lat="43.391723143320846" lon="11.44283612770699"><ele>366.75</ele><time>2026-05-02T08:32:04Z</time></trkpt><trkpt lat="43.39158454876016" lon="11.442872957554771"><ele>366.0</ele><time>2026-05-02T08:32:05Z</time></trkpt><trkpt lat="43.39144504601681" lon="11.44287470521093"><ele>366.5</ele><time>2026-05-02T08:32:06Z</time></trkpt><trkpt lat="43.39132234370633" lon="11.442863693086666"><ele>367.0</ele><time>2026-05-02T08:32:07Z</time></trkpt><trkpt lat="43.391205913046356" lon="11.442862516557048"><ele>367.5</ele><time>2026-05-02T08:32:08Z</time></trkpt><trkpt lat="43.391088728683016" lon="11.4428815909937"><ele>368.0</ele><time>2026-05-02T08:32:09Z</time></trkpt><trkpt lat="43.390966415242964" lon="11.4429055874516"><ele>368.0</ele><time>2026-05-02T08:32:10Z</time></trkpt><trkpt lat="43.39084431547495" lon="11.442928917309857"><ele>368.0</ele><time>2026-05-02T08:32:11Z</time></trkpt><trkpt lat="43.39072947925307" lon="11.44294920207241"><ele>368.0</ele><time>2026-05-02T08:32:12Z</time></trkpt><trkpt lat="43.390618776635975" lon="11.442964393299976"><ele>368.0</ele><time>2026-05-02T08:32:13Z</time></trkpt><trkpt lat="43.3905103395352" lon="11.442968844884398"><ele>367.25</ele><time>2026-05-02T08:32:14Z</time></trkpt><trkpt lat="43.390393235904725" lon="11.442959427741666"><ele>366.5</ele><time>2026-05-02T08:32:15Z</time></trkpt><trkpt lat="43.390272242919735" lon="11.442941123355878"><ele>365.75</ele><time>2026-05-02T08:32:16Z</time></trkpt><trkpt lat="43.39014401217218" lon="11.442921553812607"><ele>365.0</ele><time>2026-05-02T08:32:17Z</time></trkpt><trkpt lat="43.39002267306583" lon="11.442897056402886"><ele>365.0</ele><time>2026-05-02T08:32:18Z</time></trkpt><trkpt lat="43.389907450426506" lon="11.442855619507645"><ele>365.0</ele><time>2026-05-02T08:32:19Z</time></trkpt><trkpt lat="43.389804035499814" lon="11.442772073566276"><ele>365.0</ele><time>2026-05-02T08:32:20Z</time></trkpt><trkpt lat="43.38972705341917" lon="11.442649847980555"><ele>365.0</ele><time>2026-05-02T08:32:21Z</time></trkpt><trkpt lat="43.38966772069167" lon="11.442494899226487"><ele>363.0</ele><time>2026-05-02T08:32:22Z</time></trkpt><trkpt lat="43.38960866637944" lon="11.442324861274182"><ele>361.0</ele><time>2026-05-02T08:32:23Z</time></trkpt><trkpt lat="43.389538413307584" lon="11.442162088656984"><ele>359.0</ele><time>2026-05-02T08:32:24Z</time></trkpt><trkpt lat="43.38944884806228" lon="11.442017027928195"><ele>357.0</ele><time>2026-05-02T08:32:25Z</time></trkpt><trkpt lat="43.38936220072106" lon="11.441893888685792"><ele>357.0</ele><time>2026-05-02T08:32:26Z</time></trkpt><trkpt lat="43.389286798151254" lon="11.441775624046517"><ele>357.0</ele><time>2026-05-02T08:32:27Z</time></trkpt><trkpt lat="43.38921536823099" lon="11.44166059550626"><ele>357.0</ele><time>2026-05-02T08:32:28Z</time></trkpt><trkpt lat="43.3891465576577" lon="11.441546268148592"><ele>357.0</ele><time>2026-05-02T08:32:29Z</time></trkpt><trkpt lat="43.38907584489778" lon="11.441439191429975"><ele>357.0</ele><time>2026-05-02T08:32:30Z</time></trkpt><trkpt lat="43.389006188609585" lon="11.441339793615326"><ele>356.40000000000003</ele><time>2026-05-02T08:32:31Z</time></trkpt><trkpt lat="43.38893457271109" lon="11.441237892608179"><ele>355.8</ele><time>2026-05-02T08:32:32Z</time></trkpt><trkpt lat="43.38886611288735" lon="11.441137810823445"><ele>355.2</ele><time>2026-05-02T08:32:33Z</time></trkpt><trkpt lat="43.388796510377446" lon="11.441040815394505"><ele>354.6</ele><time>2026-05-02T08:32:34Z</time></trkpt><trkpt lat="43.388726491329976" lon="11.44095071939429"><ele>354.0</ele><time>2026-05-02T08:32:35Z</time></trkpt><trkpt lat="43.3886552292292" lon="11.440869486124148"><ele>354.0</ele><time>2026-05-02T08:32:36Z</time></trkpt><trkpt lat="43.388582491901865" lon="11.440791945082468"><ele>354.0</ele><time>2026-05-02T08:32:37Z</time></trkpt><trkpt lat="43.388512959102734" lon="11.44072283040452"><ele>354.0</ele><time>2026-05-02T08:32:38Z</time></trkpt><trkpt lat="43.388443813650355" lon="11.440653280992343"><ele>354.0</ele><time>2026-05-02T08:32:39Z</time></trkpt><trkpt lat="43.38838112493491" lon="11.440578621508429"><ele>354.0</ele><time>2026-05-02T08:32:40Z</time></trkpt><trkpt lat="43.3883226758191" lon="11.44049461988165"><ele>354.0</ele><time>2026-05-02T08:32:41Z</time></trkpt><trkpt lat="43.38826487626041" lon="11.440411698790093"><ele>352.4</ele><time>2026-05-02T08:32:42Z</time></trkpt><trkpt lat="43.388204397576" lon="11.44032817"><ele>350.79999999999995</ele><time>2026-05-02T08:32:43Z</time></trkpt><trkpt lat="43.38813753197941" lon="11.44024106374184"><ele>349.20000000000005</ele><time>2026-05-02T08:32:44Z</time></trkpt><trkpt lat="43.3880682377226" lon="11.440149647723187"><ele>347.6</ele><time>2026-05-02T08:32:45Z</time></trkpt><trkpt lat="43.38800349215272" lon="11.440047970349452"><ele>346.0</ele><time>2026-05-02T08:32:46Z</time></trkpt><trkpt lat="43.38794011547629" lon="11.439939351614282"><ele>346.0</ele><time>2026-05-02T08:32:47Z</time></trkpt><trkpt lat="43.38787655465199" lon="11.439823853051529"><ele>346.0</ele><time>2026-05-02T08:32:48Z</time></trkpt><trkpt lat="43.38782050087211" lon="11.439704479354909"><ele>346.0</ele><time>2026-05-02T08:32:49Z</time></trkpt><trkpt lat="43.38776089243738" lon="11.439580918877423"><ele>346.0</ele><time>2026-05-02T08:32:50Z</time></trkpt><trkpt lat="43.38770115940526" lon="11.439464890402258"><ele>346.0</ele><time>2026-05-02T08:32:51Z</time></trkpt><trkpt lat="43.38763497380696" lon="11.439352574053055"><ele>345.20000000000005</ele><time>2026-05-02T08:32:52Z</time></trkpt><trkpt lat="43.3875647247577" lon="11.43924561444744"><ele>344.40000000000003</ele><time>2026-05-02T08:32:53Z</time></trkpt><trkpt lat="43.387496608176136" lon="11.439139414734427"><ele>343.6</ele><time>2026-05-02T08:32:54Z</time></trkpt><trkpt lat="43.387431982178605" lon="11.439035994700463"><ele>342.8</ele><time>2026-05-02T08:32:55Z</time></trkpt><trkpt lat="43.38736675749831" lon="11.438933899348633"><ele>342.0</ele><time>2026-05-02T08:32:56Z</time></trkpt><trkpt lat="43.38730478230765" lon="11.438834573653429"><ele>342.20000000000005</ele><time>2026-05-02T08:32:57Z</time></trkpt><trkpt lat="43.387250798685" lon="11.43873961587557"><ele>342.4</ele><time>2026-05-02T08:32:58Z</time></trkpt><trkpt lat="43.387196667947336" lon="11.438638696742196"><ele>342.6</ele><time>2026-05-02T08:32:59Z</time></trkpt><trkpt lat="43.387145508148016" lon="11.43852844070985"><ele>342.79999999999995</ele><time>2026-05-02T08:33:00Z</time></trkpt><trkpt lat="43.387089541115856" lon="11.438380347542694"><ele>343.0</ele><time>2026-05-02T08:33:01.001Z</time></trkpt><trkpt lat="43.38703385825909" lon="11.43818860759046"><ele>343.0</ele><time>2026-05-02T08:33:02.001Z</time></trkpt><trkpt lat="43.38698488781134" lon="11.43797206637637"><ele>343.0</ele><time>2026-05-02T08:33:03.001Z</time></trkpt><trkpt lat="43.38693214183677" lon="11.437755487374584"><ele>343.0</ele><time>2026-05-02T08:33:04.001Z</time></trkpt><trkpt lat="43.38687479469409" lon="11.437533159012318"><ele>343.3333333333333</ele><time>2026-05-02T08:33:05.001Z</time></trkpt><trkpt lat="43.38681581274504" lon="11.43731464182901"><ele>343.6666666666667</ele><time>2026-05-02T08:33:06.001Z</time></trkpt><trkpt lat="43.38675961692884" lon="11.437123713049802"><ele>344.0</ele><time>2026-05-02T08:33:07.001Z</time></trkpt><trkpt lat="43.386686489264065" lon="11.436963360370854"><ele>342.33333333333337</ele><time>2026-05-02T08:33:08.001Z</time></trkpt><trkpt lat="43.38657400500484" lon="11.436825128077995"><ele>340.6666666666667</ele><time>2026-05-02T08:33:09.001Z</time></trkpt><trkpt lat="43.38643127388387" lon="11.436685463087581"><ele>339.0</ele><time>2026-05-02T08:33:10.001Z</time></trkpt><trkpt lat="43.386284520790234" lon="11.436545346843987"><ele>339.0</ele><time>2026-05-02T08:33:11.001Z</time></trkpt><trkpt lat="43.38616365728129" lon="11.43641345239316"><ele>339.0</ele><time>2026-05-02T08:33:12.001Z</time></trkpt><trkpt lat="43.38606187674145" lon="11.436277334559142"><ele>339.0</ele><time>2026-05-02T08:33:13.001Z</time></trkpt><trkpt lat="43.385964821788264" lon="11.436148721941715"><ele>339.0</ele><time>2026-05-02T08:33:14.001Z</time></trkpt><trkpt lat="43.38587678795911" lon="11.436017587831202"><ele>338.25</ele><time>2026-05-02T08:33:15.001Z</time></trkpt><trkpt lat="43.385782690914176" lon="11.435892833056286"><ele>337.5</ele><time>2026-05-02T08:33:16.001Z</time></trkpt><trkpt lat="43.38567061511957" lon="11.43579498448431"><ele>336.75</ele><time>2026-05-02T08:33:17.001Z</time></trkpt><trkpt lat="43.38555123137304" lon="11.435703973229298"><ele>336.0</ele><time>2026-05-02T08:33:18.001Z</time></trkpt><trkpt lat="43.385426520874276" lon="11.435614567180371"><ele>334.75</ele><time>2026-05-02T08:33:19.001Z</time></trkpt><trkpt lat="43.38530063074315" lon="11.43551508873929"><ele>333.5</ele><time>2026-05-02T08:33:20.001Z</time></trkpt><trkpt lat="43.38517396989136" lon="11.435413102169125"><ele>332.25</ele><time>2026-05-02T08:33:21.001Z</time></trkpt><trkpt lat="43.38504329123306" lon="11.435320951078973"><ele>331.0</ele><time>2026-05-02T08:33:22.001Z</time></trkpt><trkpt lat="43.38491825983354" lon="11.435246668046062"><ele>330.5</ele><time>2026-05-02T08:33:23.001Z</time></trkpt><trkpt lat="43.38479529667112" lon="11.435195441933496"><ele>330.0</ele><time>2026-05-02T08:33:24.001Z</time></trkpt><trkpt lat="43.384675921847546" lon="11.435160943723545"><ele>329.5</ele><time>2026-05-02T08:33:25.001Z</time></trkpt><trkpt lat="43.384558911597274" lon="11.435135126048761"><ele>329.0</ele><time>2026-05-02T08:33:26.001Z</time></trkpt><trkpt lat="43.384442642280725" lon="11.43510851796075"><ele>328.0</ele><time>2026-05-02T08:33:27.001Z</time></trkpt><trkpt lat="43.384319932151" lon="11.435077094977387"><ele>327.0</ele><time>2026-05-02T08:33:27.999Z</time></trkpt><trkpt lat="43.384193782752114" lon="11.435044661188636"><ele>326.0</ele><time>2026-05-02T08:33:28.999Z</time></trkpt><trkpt lat="43.38406903644105" lon="11.435013991427029"><ele>325.0</ele><time>2026-05-02T08:33:29.999Z</time></trkpt><trkpt lat="43.38393656659373" lon="11.434981850812763"><ele>324.75</ele><time>2026-05-02T08:33:30.999Z</time></trkpt><trkpt lat="43.38380001454119" lon="11.43494541839451"><ele>324.5</ele><time>2026-05-02T08:33:31.999Z</time></trkpt><trkpt lat="43.383657778677104" lon="11.434900272116147"><ele>324.25</ele><time>2026-05-02T08:33:32.999Z</time></trkpt><trkpt lat="43.38351797171146" lon="11.434832623926544"><ele>324.0</ele><time>2026-05-02T08:33:33.999Z</time></trkpt><trkpt lat="43.383388424257184" lon="11.434751342548196"><ele>324.0</ele><time>2026-05-02T08:33:34.999Z</time></trkpt><trkpt lat="43.38327368317535" lon="11.434658033165775"><ele>324.0</ele><time>2026-05-02T08:33:35.999Z</time></trkpt><trkpt lat="43.38316226438846" lon="11.434557592978765"><ele>324.0</ele><time>2026-05-02T08:33:36.999Z</time></trkpt><trkpt lat="43.38305355927455" lon="11.434451616706086"><ele>324.0</ele><time>2026-05-02T08:33:37.999Z</time></trkpt><trkpt lat="43.38294798781484" lon="11.434341985476722"><ele>324.75</ele><time>2026-05-02T08:33:38.999Z</time></trkpt><trkpt lat="43.38284695894241" lon="11.434254516954578"><ele>325.5</ele><time>2026-05-02T08:33:39.999Z</time></trkpt><trkpt lat="43.382741226762725" lon="11.434186145120798"><ele>326.25</ele><time>2026-05-02T08:33:40.999Z</time></trkpt><trkpt lat="43.38262664492474" lon="11.434128454708995"><ele>327.0</ele><time>2026-05-02T08:33:41.999Z</time></trkpt><trkpt lat="43.38249911226025" lon="11.43408168037978"><ele>327.0</ele><time>2026-05-02T08:33:42.999Z</time></trkpt><trkpt lat="43.38236755198192" lon="11.43404797761416"><ele>327.0</ele><time>2026-05-02T08:33:43.999Z</time></trkpt><trkpt lat="43.38224158407946" lon="11.43402965005378"><ele>327.0</ele><time>2026-05-02T08:33:44.999Z</time></trkpt><trkpt lat="43.38212343524177" lon="11.43401234502968"><ele>327.0</ele><time>2026-05-02T08:33:45.999Z</time></trkpt><trkpt lat="43.3820181708865" lon="11.434000493254217"><ele>326.6</ele><time>2026-05-02T08:33:46.999Z</time></trkpt><trkpt lat="43.381921218160436" lon="11.433991472158887"><ele>326.20000000000005</ele><time>2026-05-02T08:33:47.999Z</time></trkpt><trkpt lat="43.38182730097355" lon="11.433980373062347"><ele>325.8</ele><time>2026-05-02T08:33:48.999Z</time></trkpt><trkpt lat="43.3817348764021" lon="11.433959240060394"><ele>325.4</ele><time>2026-05-02T08:33:49.999Z</time></trkpt><trkpt lat="43.381635273181836" lon="11.433923250402165"><ele>325.0</ele><time>2026-05-02T08:33:50.999Z</time></trkpt><trkpt lat="43.381533207745385" lon="11.433866002346033"><ele>323.75</ele><time>2026-05-02T08:33:51.999Z</time></trkpt><trkpt lat="43.38142910384106" lon="11.433787704139723"><ele>322.5</ele><time>2026-05-02T08:33:52.999Z</time></trkpt><trkpt lat="43.3813223007702" lon="11.433708435578014"><ele>321.25</ele><time>2026-05-02T08:33:53.999Z</time></trkpt><trkpt lat="43.38120466383676" lon="11.433626143857312"><ele>320.0</ele><time>2026-05-02T08:33:54.999Z</time></trkpt><trkpt lat="43.38108729923829" lon="11.43354499966153"><ele>319.25</ele><time>2026-05-02T08:33:56Z</time></trkpt><trkpt lat="43.380976165098794" lon="11.433446298763974"><ele>318.5</ele><time>2026-05-02T08:33:57Z</time></trkpt><trkpt lat="43.38087405076923" lon="11.433321240223954"><ele>317.75</ele><time>2026-05-02T08:33:58Z</time></trkpt><trkpt lat="43.380784719966705" lon="11.433170882911252"><ele>317.0</ele><time>2026-05-02T08:33:59Z</time></trkpt><trkpt lat="43.380713641974545" lon="11.433017485962333"><ele>317.2</ele><time>2026-05-02T08:34:00Z</time></trkpt><trkpt lat="43.3806614630944" lon="11.432880667873114"><ele>317.4</ele><time>2026-05-02T08:34:01Z</time></trkpt><trkpt lat="43.38059439478155" lon="11.432777629065681"><ele>317.6</ele><time>2026-05-02T08:34:02Z</time></trkpt><trkpt lat="43.38049549245597" lon="11.432713458696954"><ele>317.8</ele><time>2026-05-02T08:34:03Z</time></trkpt><trkpt lat="43.380380543352295" lon="11.432675833114095"><ele>318.0</ele><time>2026-05-02T08:34:04Z</time></trkpt><trkpt lat="43.38027508675574" lon="11.432656926562464"><ele>318.6</ele><time>2026-05-02T08:34:05Z</time></trkpt><trkpt lat="43.3801739627049" lon="11.432643274088429"><ele>319.20000000000005</ele><time>2026-05-02T08:34:06Z</time></trkpt><trkpt lat="43.38006587296472" lon="11.432628944108535"><ele>319.8</ele><time>2026-05-02T08:34:07Z</time></trkpt><trkpt lat="43.37994905214696" lon="11.432617302484589"><ele>320.40000000000003</ele><time>2026-05-02T08:34:08Z</time></trkpt><trkpt lat="43.37983015448377" lon="11.432595807667605"><ele>321.0</ele><time>2026-05-02T08:34:09Z</time></trkpt><trkpt lat="43.37970976418972" lon="11.432570175465644"><ele>320.25</ele><time>2026-05-02T08:34:10Z</time></trkpt><trkpt lat="43.379589933973534" lon="11.4325249714611"><ele>319.5</ele><time>2026-05-02T08:34:11Z</time></trkpt><trkpt lat="43.379473244661256" lon="11.43246833627307"><ele>318.75</ele><time>2026-05-02T08:34:12Z</time></trkpt><trkpt lat="43.3793527956692" lon="11.432408162334319"><ele>318.0</ele><time>2026-05-02T08:34:13Z</time></trkpt><trkpt lat="43.37922925278744" lon="11.432354645831774"><ele>318.0</ele><time>2026-05-02T08:34:14Z</time></trkpt><trkpt lat="43.37910466459819" lon="11.432293046481895"><ele>318.0</ele><time>2026-05-02T08:34:15Z</time></trkpt><trkpt lat="43.37897741910604" lon="11.432233876986203"><ele>318.0</ele><time>2026-05-02T08:34:16Z</time></trkpt><trkpt lat="43.3788459921633" lon="11.432176324804214"><ele>318.0</ele><time>2026-05-02T08:34:17Z</time></trkpt><trkpt lat="43.37871689439894" lon="11.432114551897765"><ele>317.75</ele><time>2026-05-02T08:34:18Z</time></trkpt><trkpt lat="43.37858452089042" lon="11.432049520428158"><ele>317.5</ele><time>2026-05-02T08:34:19Z</time></trkpt><trkpt lat="43.37845292944749" lon="11.431977695723582"><ele>317.25</ele><time>2026-05-02T08:34:20Z</time></trkpt><trkpt lat="43.378321907875694" lon="11.431910051541998"><ele>317.0</ele><time>2026-05-02T08:34:21Z</time></trkpt><trkpt lat="43.37819215851269" lon="11.43184144936358"><ele>317.0</ele><time>2026-05-02T08:34:22Z</time></trkpt><trkpt lat="43.37806119126218" lon="11.431771748572405"><ele>317.0</ele><time>2026-05-02T08:34:23Z</time></trkpt><trkpt lat="43.3779235745709" lon="11.431704827303188"><ele>317.0</ele><time>2026-05-02T08:34:24Z</time></trkpt><trkpt lat="43.37778897816504" lon="11.431631579183259"><ele>317.0</ele><time>2026-05-02T08:34:25Z</time></trkpt><trkpt lat="43.377655695107414" lon="11.43156204170335"><ele>316.75</ele><time>2026-05-02T08:34:26Z</time></trkpt><trkpt lat="43.377521676972144" lon="11.431501807052246"><ele>316.5</ele><time>2026-05-02T08:34:27Z</time></trkpt><trkpt lat="43.37738520683509" lon="11.431443990333738"><ele>316.25</ele><time>2026-05-02T08:34:28Z</time></trkpt><trkpt lat="43.377241228748495" lon="11.431405529545398"><ele>316.0</ele><time>2026-05-02T08:34:29Z</time></trkpt><trkpt lat="43.377097084828115" lon="11.431375571129731"><ele>316.0</ele><time>2026-05-02T08:34:30Z</time></trkpt><trkpt lat="43.37695372988966" lon="11.431356054866768"><ele>316.0</ele><time>2026-05-02T08:34:31Z</time></trkpt><trkpt lat="43.37681170716457" lon="11.431335504612802"><ele>316.0</ele><time>2026-05-02T08:34:32Z</time></trkpt><trkpt lat="43.37667526555135" lon="11.43131660727079"><ele>316.0</ele><time>2026-05-02T08:34:33Z</time></trkpt><trkpt lat="43.37653774923386" lon="11.431306697023366"><ele>315.25</ele><time>2026-05-02T08:34:34Z</time></trkpt><trkpt lat="43.37640426669127" lon="11.431296066517733"><ele>314.5</ele><time>2026-05-02T08:34:35Z</time></trkpt><trkpt lat="43.376269821766854" lon="11.43127970890244"><ele>313.75</ele><time>2026-05-02T08:34:36Z</time></trkpt><trkpt lat="43.37614031170731" lon="11.431262516074872"><ele>313.0</ele><time>2026-05-02T08:34:37Z</time></trkpt><trkpt lat="43.37601368465273" lon="11.43123353557723"><ele>313.0</ele><time>2026-05-02T08:34:38Z</time></trkpt><trkpt lat="43.3758937434402" lon="11.431200775257263"><ele>313.0</ele><time>2026-05-02T08:34:39Z</time></trkpt><trkpt lat="43.37577420515736" lon="11.431152990126352"><ele>313.0</ele><time>2026-05-02T08:34:40Z</time></trkpt><trkpt lat="43.37565279788839" lon="11.431076350782751"><ele>313.0</ele><time>2026-05-02T08:34:41Z</time></trkpt><trkpt lat="43.37552252589845" lon="11.430990055796519"><ele>310.75</ele><time>2026-05-02T08:34:42Z</time></trkpt><trkpt lat="43.375398025692085" lon="11.43088764102783"><ele>308.5</ele><time>2026-05-02T08:34:43Z</time></trkpt><trkpt lat="43.375270328022545" lon="11.430789523242908"><ele>306.25</ele><time>2026-05-02T08:34:44Z</time></trkpt><trkpt lat="43.375142805175685" lon="11.430694294283438"><ele>304.0</ele><time>2026-05-02T08:34:45Z</time></trkpt><trkpt lat="43.37502374389124" lon="11.430614707698044"><ele>304.0</ele><time>2026-05-02T08:34:46.001Z</time></trkpt><trkpt lat="43.37490562683897" lon="11.430549104200326"><ele>304.0</ele><time>2026-05-02T08:34:47.001Z</time></trkpt><trkpt lat="43.37477907904699" lon="11.430492029296525"><ele>304.0</ele><time>2026-05-02T08:34:48.001Z</time></trkpt><trkpt lat="43.374645807291174" lon="11.430453909991556"><ele>304.0</ele><time>2026-05-02T08:34:49.001Z</time></trkpt><trkpt lat="43.374519451569206" lon="11.430408736512259"><ele>304.25</ele><time>2026-05-02T08:34:50.001Z</time></trkpt><trkpt lat="43.374399652165955" lon="11.43037112891599"><ele>304.5</ele><time>2026-05-02T08:34:51.001Z</time></trkpt><trkpt lat="43.37427779917498" lon="11.430334413547182"><ele>304.75</ele><time>2026-05-02T08:34:52.001Z</time></trkpt><trkpt lat="43.374155153429214" lon="11.430295614667708"><ele>305.0</ele><time>2026-05-02T08:34:53.001Z</time></trkpt><trkpt lat="43.3740308836947" lon="11.430252565250315"><ele>305.0</ele><time>2026-05-02T08:34:54.001Z</time></trkpt><trkpt lat="43.37390074209496" lon="11.430202404941065"><ele>305.0</ele><time>2026-05-02T08:34:55.001Z</time></trkpt><trkpt lat="43.37376549666456" lon="11.430146067650423"><ele>305.0</ele><time>2026-05-02T08:34:56.001Z</time></trkpt><trkpt lat="43.37362387900494" lon="11.43007631081127"><ele>305.0</ele><time>2026-05-02T08:34:57.001Z</time></trkpt><trkpt lat="43.37347700005283" lon="11.429999818375139"><ele>304.6666666666667</ele><time>2026-05-02T08:34:58.001Z</time></trkpt><trkpt lat="43.37332633575451" lon="11.429917384362573"><ele>304.3333333333333</ele><time>2026-05-02T08:34:59.001Z</time></trkpt><trkpt lat="43.37317236637798" lon="11.429833079652521"><ele>304.0</ele><time>2026-05-02T08:35:00.001Z</time></trkpt><trkpt lat="43.37302807543853" lon="11.429753393731955"><ele>302.25</ele><time>2026-05-02T08:35:01.001Z</time></trkpt><trkpt lat="43.37289349510142" lon="11.429672005230788"><ele>300.5</ele><time>2026-05-02T08:35:02.001Z</time></trkpt><trkpt lat="43.372769877353264" lon="11.429593262561756"><ele>298.75</ele><time>2026-05-02T08:35:03.001Z</time></trkpt><trkpt lat="43.372649630801675" lon="11.429522307026527"><ele>297.0</ele><time>2026-05-02T08:35:04.001Z</time></trkpt><trkpt lat="43.37252450545218" lon="11.429446030658301"><ele>297.0</ele><time>2026-05-02T08:35:05.001Z</time></trkpt><trkpt lat="43.37239042497944" lon="11.429367322506362"><ele>297.0</ele><time>2026-05-02T08:35:06.001Z</time></trkpt><trkpt lat="43.37224796822159" lon="11.429281789027614"><ele>297.0</ele><time>2026-05-02T08:35:07.001Z</time></trkpt><trkpt lat="43.37210161462304" lon="11.429192934832379"><ele>295.6666666666667</ele><time>2026-05-02T08:35:08.001Z</time></trkpt><trkpt lat="43.371953646493836" lon="11.429105376159642"><ele>294.33333333333337</ele><time>2026-05-02T08:35:09.001Z</time></trkpt><trkpt lat="43.37181300231407" lon="11.429028998333084"><ele>293.0</ele><time>2026-05-02T08:35:10.001Z</time></trkpt><trkpt lat="43.37167532921882" lon="11.428959480240252"><ele>293.0</ele><time>2026-05-02T08:35:11.001Z</time></trkpt><trkpt lat="43.371534297236586" lon="11.428880835526476"><ele>293.0</ele><time>2026-05-02T08:35:12.001Z</time></trkpt><trkpt lat="43.37138693919076" lon="11.428812594735728"><ele>293.0</ele><time>2026-05-02T08:35:13.001Z</time></trkpt><trkpt lat="43.3712420773088" lon="11.428764998468635"><ele>293.25</ele><time>2026-05-02T08:35:14.001Z</time></trkpt><trkpt lat="43.37109877962336" lon="11.42872806764067"><ele>293.5</ele><time>2026-05-02T08:35:15.001Z</time></trkpt><trkpt lat="43.370953647999045" lon="11.428697583676808"><ele>293.75</ele><time>2026-05-02T08:35:16.001Z</time></trkpt><trkpt lat="43.37080807835057" lon="11.428673132949962"><ele>294.0</ele><time>2026-05-02T08:35:17.001Z</time></trkpt><trkpt lat="43.37066449155383" lon="11.42864939035354"><ele>292.25</ele><time>2026-05-02T08:35:18.001Z</time></trkpt><trkpt lat="43.37052038614827" lon="11.428626064186785"><ele>290.5</ele><time>2026-05-02T08:35:19.001Z</time></trkpt><trkpt lat="43.37037631786508" lon="11.428604831162602"><ele>288.75</ele><time>2026-05-02T08:35:20.001Z</time></trkpt><trkpt lat="43.370232457125525" lon="11.428583769675365"><ele>287.0</ele><time>2026-05-02T08:35:21.001Z</time></trkpt><trkpt lat="43.37008896792839" lon="11.4285646085563"><ele>287.0</ele><time>2026-05-02T08:35:22.001Z</time></trkpt><trkpt lat="43.36994158031623" lon="11.428546740205409"><ele>287.0</ele><time>2026-05-02T08:35:23.001Z</time></trkpt><trkpt lat="43.36979436147915" lon="11.428529004056397"><ele>287.0</ele><time>2026-05-02T08:35:24.001Z</time></trkpt><trkpt lat="43.36964756196142" lon="11.428515147544855"><ele>287.0</ele><time>2026-05-02T08:35:25.001Z</time></trkpt><trkpt lat="43.369508755962514" lon="11.428506181958518"><ele>285.75</ele><time>2026-05-02T08:35:26.001Z</time></trkpt><trkpt lat="43.36937660711299" lon="11.428496053937604"><ele>284.5</ele><time>2026-05-02T08:35:27.001Z</time></trkpt><trkpt lat="43.36925080041847" lon="11.428484141170268"><ele>283.25</ele><time>2026-05-02T08:35:28.001Z</time></trkpt><trkpt lat="43.36912027313221" lon="11.428475345021402"><ele>282.0</ele><time>2026-05-02T08:35:29.001Z</time></trkpt><trkpt lat="43.368984188300665" lon="11.428467211132217"><ele>282.5</ele><time>2026-05-02T08:35:30.001Z</time></trkpt><trkpt lat="43.36884422728404" lon="11.428454352948917"><ele>283.0</ele><time>2026-05-02T08:35:31.001Z</time></trkpt><trkpt lat="43.36871410344596" lon="11.42841785397271"><ele>283.5</ele><time>2026-05-02T08:35:32.001Z</time></trkpt><trkpt lat="43.36859020649343" lon="11.428359528724126"><ele>284.0</ele><time>2026-05-02T08:35:33.001Z</time></trkpt><trkpt lat="43.36847297636569" lon="11.428273830103251"><ele>284.0</ele><time>2026-05-02T08:35:33.999Z</time></trkpt><trkpt lat="43.3683637372615" lon="11.428172497992367"><ele>284.0</ele><time>2026-05-02T08:35:34.999Z</time></trkpt><trkpt lat="43.368269449665235" lon="11.42805571410892"><ele>284.0</ele><time>2026-05-02T08:35:35.999Z</time></trkpt><trkpt lat="43.36818233187555" lon="11.427919133989475"><ele>284.0</ele><time>2026-05-02T08:35:36.999Z</time></trkpt><trkpt lat="43.36811160442199" lon="11.427764206093824"><ele>284.0</ele><time>2026-05-02T08:35:37.999Z</time></trkpt><trkpt lat="43.36805805202715" lon="11.427597326521285"><ele>284.0</ele><time>2026-05-02T08:35:38.999Z</time></trkpt><trkpt lat="43.3680091879869" lon="11.427423234338256"><ele>284.0</ele><time>2026-05-02T08:35:39.999Z</time></trkpt><trkpt lat="43.367964165926615" lon="11.427256315365485"><ele>284.0</ele><time>2026-05-02T08:35:40.999Z</time></trkpt><trkpt lat="43.36791014156784" lon="11.427092489721417"><ele>284.0</ele><time>2026-05-02T08:35:41.999Z</time></trkpt><trkpt lat="43.367842828751776" lon="11.42695422967777"><ele>284.0</ele><time>2026-05-02T08:35:42.999Z</time></trkpt><trkpt lat="43.36775482132891" lon="11.426843645567544"><ele>284.0</ele><time>2026-05-02T08:35:43.999Z</time></trkpt><trkpt lat="43.36764731379841" lon="11.426757056768256"><ele>284.0</ele><time>2026-05-02T08:35:44.999Z</time></trkpt><trkpt lat="43.36752150279561" lon="11.42670040910263"><ele>284.0</ele><time>2026-05-02T08:35:45.999Z</time></trkpt><trkpt lat="43.367387858486886" lon="11.426658348003057"><ele>284.0</ele><time>2026-05-02T08:35:46.999Z</time></trkpt><trkpt lat="43.36723808135257" lon="11.426609713049896"><ele>284.0</ele><time>2026-05-02T08:35:47.999Z</time></trkpt><trkpt lat="43.36706869736599" lon="11.426541766742956"><ele>285.6666666666667</ele><time>2026-05-02T08:35:48.999Z</time></trkpt><trkpt lat="43.36689709615305" lon="11.42646431906157"><ele>287.3333333333333</ele><time>2026-05-02T08:35:49.999Z</time></trkpt><trkpt lat="43.36672530037675" lon="11.426388089364263"><ele>289.0</ele><time>2026-05-02T08:35:50.999Z</time></trkpt><trkpt lat="43.366561728480306" lon="11.426335469210311"><ele>289.0</ele><time>2026-05-02T08:35:51.999Z</time></trkpt><trkpt lat="43.36639352286095" lon="11.426321272196464"><ele>289.0</ele><time>2026-05-02T08:35:52.999Z</time></trkpt><trkpt lat="43.36623417259189" lon="11.426357892472796"><ele>289.0</ele><time>2026-05-02T08:35:53.999Z</time></trkpt><trkpt lat="43.36608779333447" lon="11.426397453085656"><ele>289.25</ele><time>2026-05-02T08:35:54.999Z</time></trkpt><trkpt lat="43.365953674014754" lon="11.426401142905165"><ele>289.5</ele><time>2026-05-02T08:35:55.999Z</time></trkpt><trkpt lat="43.365835147385276" lon="11.426351582559464"><ele>289.75</ele><time>2026-05-02T08:35:57Z</time></trkpt><trkpt lat="43.36573290648258" lon="11.426240587732822"><ele>290.0</ele><time>2026-05-02T08:35:58Z</time></trkpt><trkpt lat="43.365634544911345" lon="11.426075923530835"><ele>290.0</ele><time>2026-05-02T08:35:59Z</time></trkpt><trkpt lat="43.365531877199764" lon="11.425882772972372"><ele>290.0</ele><time>2026-05-02T08:36:00Z</time></trkpt><trkpt lat="43.36542204555611" lon="11.425702309167809"><ele>290.0</ele><time>2026-05-02T08:36:01Z</time></trkpt><trkpt lat="43.36531866299696" lon="11.425535019210576"><ele>287.75</ele><time>2026-05-02T08:36:02Z</time></trkpt><trkpt lat="43.36522266791851" lon="11.425382453289702"><ele>285.5</ele><time>2026-05-02T08:36:03Z</time></trkpt><trkpt lat="43.36512820246886" lon="11.425231951018853"><ele>283.25</ele><time>2026-05-02T08:36:04Z</time></trkpt><trkpt lat="43.365035568347146" lon="11.425085654471058"><ele>281.0</ele><time>2026-05-02T08:36:05Z</time></trkpt><trkpt lat="43.36494983882866" lon="11.424939679162625"><ele>281.0</ele><time>2026-05-02T08:36:06Z</time></trkpt><trkpt lat="43.36486733584266" lon="11.424793355275511"><ele>281.0</ele><time>2026-05-02T08:36:07Z</time></trkpt><trkpt lat="43.364786477650185" lon="11.424633827170757"><ele>281.0</ele><time>2026-05-02T08:36:08Z</time></trkpt><trkpt lat="43.36471242293483" lon="11.424470983193896"><ele>281.0</ele><time>2026-05-02T08:36:09Z</time></trkpt><trkpt lat="43.36464873818747" lon="11.424295030786686"><ele>280.25</ele><time>2026-05-02T08:36:10Z</time></trkpt><trkpt lat="43.36459891782282" lon="11.424107516313274"><ele>279.5</ele><time>2026-05-02T08:36:11Z</time></trkpt><trkpt lat="43.36456143706979" lon="11.42391182537552"><ele>278.75</ele><time>2026-05-02T08:36:12Z</time></trkpt><trkpt lat="43.3645327526851" lon="11.423706556272993"><ele>278.0</ele><time>2026-05-02T08:36:13Z</time></trkpt><trkpt lat="43.36451814573776" lon="11.42350836317421"><ele>275.6666666666667</ele><time>2026-05-02T08:36:14Z</time></trkpt><trkpt lat="43.364512629122494" lon="11.423305742917941"><ele>273.3333333333333</ele><time>2026-05-02T08:36:15Z</time></trkpt><trkpt lat="43.36450867867158" lon="11.423090581127772"><ele>271.0</ele><time>2026-05-02T08:36:16Z</time></trkpt><trkpt lat="43.36450172577618" lon="11.422875920224914"><ele>269.25</ele><time>2026-05-02T08:36:17Z</time></trkpt><trkpt lat="43.36449141149153" lon="11.422676121089705"><ele>267.5</ele><time>2026-05-02T08:36:18Z</time></trkpt><trkpt lat="43.36448089277649" lon="11.422486837577626"><ele>265.75</ele><time>2026-05-02T08:36:19Z</time></trkpt><trkpt lat="43.364470224001174" lon="11.422296174955193"><ele>264.0</ele><time>2026-05-02T08:36:20Z</time></trkpt><trkpt lat="43.364460643767984" lon="11.422103381461904"><ele>262.25</ele><time>2026-05-02T08:36:21Z</time></trkpt><trkpt lat="43.36444935315017" lon="11.42190938755449"><ele>260.5</ele><time>2026-05-02T08:36:22Z</time></trkpt><trkpt lat="43.36444038117806" lon="11.421720792738768"><ele>258.75</ele><time>2026-05-02T08:36:23Z</time></trkpt><trkpt lat="43.3644233713657" lon="11.42154153784156"><ele>257.0</ele><time>2026-05-02T08:36:24Z</time></trkpt><trkpt lat="43.36439298631503" lon="11.421364299029987"><ele>256.75</ele><time>2026-05-02T08:36:25Z</time></trkpt><trkpt lat="43.36434967505221" lon="11.42119339646004"><ele>256.5</ele><time>2026-05-02T08:36:26Z</time></trkpt><trkpt lat="43.3642925098785" lon="11.421017858372892"><ele>256.25</ele><time>2026-05-02T08:36:27Z</time></trkpt><trkpt lat="43.36423688887554" lon="11.42083972153771"><ele>256.0</ele><time>2026-05-02T08:36:28Z</time></trkpt><trkpt lat="43.36418622607614" lon="11.42066648298446"><ele>256.0</ele><time>2026-05-02T08:36:29Z</time></trkpt><trkpt lat="43.36414217535093" lon="11.42049366679547"><ele>256.0</ele><time>2026-05-02T08:36:30Z</time></trkpt><trkpt lat="43.36411097771768" lon="11.420332196467688"><ele>256.0</ele><time>2026-05-02T08:36:31Z</time></trkpt><trkpt lat="43.36409017247509" lon="11.42016141989285"><ele>256.0</ele><time>2026-05-02T08:36:32Z</time></trkpt><trkpt lat="43.364073888222" lon="11.419981241757796"><ele>255.5</ele><time>2026-05-02T08:36:33Z</time></trkpt><trkpt lat="43.36405713636748" lon="11.419809120755998"><ele>255.0</ele><time>2026-05-02T08:36:34Z</time></trkpt><trkpt lat="43.36404188020524" lon="11.419644007517217"><ele>254.5</ele><time>2026-05-02T08:36:35Z</time></trkpt><trkpt lat="43.364031572326745" lon="11.419494004007285"><ele>254.0</ele><time>2026-05-02T08:36:36.001Z</time></trkpt><trkpt lat="43.36402596002835" lon="11.419356622397249"><ele>253.33333333333334</ele><time>2026-05-02T08:36:37.001Z</time></trkpt><trkpt lat="43.36402502754139" lon="11.419229189355391"><ele>252.66666666666669</ele><time>2026-05-02T08:36:38.001Z</time></trkpt><trkpt lat="43.364021295907186" lon="11.419113378533767"><ele>252.0</ele><time>2026-05-02T08:36:39.001Z</time></trkpt><trkpt lat="43.36401900650434" lon="11.419018075610975"><ele>251.33333333333331</ele><time>2026-05-02T08:36:40.001Z</time></trkpt><trkpt lat="43.364018286357634" lon="11.418875460711739"><ele>250.66666666666666</ele><time>2026-05-02T08:36:42.001Z</time></trkpt><trkpt lat="43.36400464565293" lon="11.418785845310186"><ele>250.0</ele><time>2026-05-02T08:36:44.001Z</time></trkpt><trkpt lat="43.36397201801755" lon="11.418692045245963"><ele>248.8</ele><time>2026-05-02T08:36:47.001Z</time></trkpt><trkpt lat="43.36390032478346" lon="11.418621754330294"><ele>247.6</ele><time>2026-05-02T08:36:51.001Z</time></trkpt><trkpt lat="43.36382933514702" lon="11.41858973064597"><ele>246.39999999999998</ele><time>2026-05-02T08:36:54.001Z</time></trkpt><trkpt lat="43.36376811258272" lon="11.418550958264365"><ele>245.2</ele><time>2026-05-02T08:36:56.001Z</time></trkpt><trkpt lat="43.363654398372354" lon="11.418501498414678"><ele>244.0</ele><time>2026-05-02T08:36:58.001Z</time></trkpt><trkpt lat="43.363549191593876" lon="11.418479623983018"><ele>243.0</ele><time>2026-05-02T08:36:59.001Z</time></trkpt><trkpt lat="43.36341054051789" lon="11.41846978288789"><ele>242.0</ele><time>2026-05-02T08:37:00.001Z</time></trkpt><trkpt lat="43.363270244376295" lon="11.41846387698595"><ele>241.0</ele><time>2026-05-02T08:37:01.001Z</time></trkpt><trkpt lat="43.36313071684713" lon="11.41845452461014"><ele>240.0</ele><time>2026-05-02T08:37:02.001Z</time></trkpt><trkpt lat="43.36299223545961" lon="11.418437083922111"><ele>239.4</ele><time>2026-05-02T08:37:03.001Z</time></trkpt><trkpt lat="43.36286380444498" lon="11.41840108505924"><ele>238.8</ele><time>2026-05-02T08:37:04.001Z</time></trkpt><trkpt lat="43.36274374226791" lon="11.418362226095718"><ele>238.2</ele><time>2026-05-02T08:37:05.001Z</time></trkpt><trkpt lat="43.36264318386816" lon="11.418324549026654"><ele>237.6</ele><time>2026-05-02T08:37:06.001Z</time></trkpt><trkpt lat="43.36256114085695" lon="11.418297602151624"><ele>237.0</ele><time>2026-05-02T08:37:07.001Z</time></trkpt><trkpt lat="43.362483009135744" lon="11.418267043234215"><ele>237.0</ele><time>2026-05-02T08:37:08.001Z</time></trkpt><trkpt lat="43.36240727358914" lon="11.418242007138238"><ele>237.0</ele><time>2026-05-02T08:37:09.001Z</time></trkpt><trkpt lat="43.36233019996565" lon="11.418236376874619"><ele>237.0</ele><time>2026-05-02T08:37:10.001Z</time></trkpt><trkpt lat="43.36224551817655" lon="11.418257478959514"><ele>237.0</ele><time>2026-05-02T08:37:11.001Z</time></trkpt><trkpt lat="43.36215801244038" lon="11.418305364274627"><ele>237.0</ele><time>2026-05-02T08:37:12.001Z</time></trkpt><trkpt lat="43.362071693856244" lon="11.418382883106874"><ele>237.0</ele><time>2026-05-02T08:37:13.001Z</time></trkpt><trkpt lat="43.361988225507936" lon="11.418481208836642"><ele>237.2</ele><time>2026-05-02T08:37:14.001Z</time></trkpt><trkpt lat="43.36192327588824" lon="11.4185891665774"><ele>237.39999999999998</ele><time>2026-05-02T08:37:15.001Z</time></trkpt><trkpt lat="43.36186233506563" lon="11.418693833095636"><ele>237.60000000000002</ele><time>2026-05-02T08:37:16.001Z</time></trkpt><trkpt lat="43.361804089161325" lon="11.418795280842513"><ele>237.8</ele><time>2026-05-02T08:37:17.001Z</time></trkpt><trkpt lat="43.361743079940574" lon="11.418899231748183"><ele>238.0</ele><time>2026-05-02T08:37:18.001Z</time></trkpt><trkpt lat="43.361679514686074" lon="11.418988122107368"><ele>238.0</ele><time>2026-05-02T08:37:19.001Z</time></trkpt><trkpt lat="43.3616047153026" lon="11.419060156585424"><ele>238.0</ele><time>2026-05-02T08:37:20.001Z</time></trkpt><trkpt lat="43.3615143546641" lon="11.419119542538832"><ele>238.0</ele><time>2026-05-02T08:37:21.001Z</time></trkpt><trkpt lat="43.361412777137524" lon="11.41916802786248"><ele>238.0</ele><time>2026-05-02T08:37:22.001Z</time></trkpt><trkpt lat="43.36130069360466" lon="11.419215493134729"><ele>238.0</ele><time>2026-05-02T08:37:23.001Z</time></trkpt><trkpt lat="43.36117131059078" lon="11.419264225227023"><ele>236.5</ele><time>2026-05-02T08:37:24.001Z</time></trkpt><trkpt lat="43.3610355909273" lon="11.419311186049171"><ele>235.0</ele><time>2026-05-02T08:37:25.001Z</time></trkpt><trkpt lat="43.360895944117196" lon="11.419356714141529"><ele>233.5</ele><time>2026-05-02T08:37:26.001Z</time></trkpt><trkpt lat="43.360735689233906" lon="11.419409099368835"><ele>232.0</ele><time>2026-05-02T08:37:27.001Z</time></trkpt><trkpt lat="43.36056082002215" lon="11.41947221625069"><ele>232.0</ele><time>2026-05-02T08:37:28.002Z</time></trkpt><trkpt lat="43.36037435681569" lon="11.419541639830724"><ele>232.0</ele><time>2026-05-02T08:37:29.002Z</time></trkpt><trkpt lat="43.36018113169515" lon="11.419618156158437"><ele>232.0</ele><time>2026-05-02T08:37:30.002Z</time></trkpt><trkpt lat="43.35998397672813" lon="11.419693210274758"><ele>232.0</ele><time>2026-05-02T08:37:31.002Z</time></trkpt><trkpt lat="43.3597844643606" lon="11.419760015420376"><ele>232.0</ele><time>2026-05-02T08:37:32.002Z</time></trkpt><trkpt lat="43.35960177726148" lon="11.419827593338388"><ele>232.0</ele><time>2026-05-02T08:37:33.002Z</time></trkpt><trkpt lat="43.359441476932396" lon="11.419889327736824"><ele>231.0</ele><time>2026-05-02T08:37:34.002Z</time></trkpt><trkpt lat="43.35929955905838" lon="11.419940481451688"><ele>230.0</ele><time>2026-05-02T08:37:35.002Z</time></trkpt><trkpt lat="43.35917914178172" lon="11.41996629731327"><ele>229.0</ele><time>2026-05-02T08:37:36.002Z</time></trkpt><trkpt lat="43.359068423762416" lon="11.419952233303546"><ele>228.0</ele><time>2026-05-02T08:37:37.002Z</time></trkpt><trkpt lat="43.35895670983365" lon="11.419883867869355"><ele>227.25</ele><time>2026-05-02T08:37:38.002Z</time></trkpt><trkpt lat="43.35885891318861" lon="11.419764009056673"><ele>226.5</ele><time>2026-05-02T08:37:39.002Z</time></trkpt><trkpt lat="43.358765267387035" lon="11.419598006399376"><ele>225.75</ele><time>2026-05-02T08:37:39.999Z</time></trkpt><trkpt lat="43.35867047845835" lon="11.419439010208201"><ele>225.0</ele><time>2026-05-02T08:37:40.999Z</time></trkpt><trkpt lat="43.358578561909866" lon="11.419287140657199"><ele>224.25</ele><time>2026-05-02T08:37:41.999Z</time></trkpt><trkpt lat="43.35848403719285" lon="11.419141672939777"><ele>223.5</ele><time>2026-05-02T08:37:42.999Z</time></trkpt><trkpt lat="43.358391933426994" lon="11.41899101722926"><ele>222.75</ele><time>2026-05-02T08:37:43.999Z</time></trkpt><trkpt lat="43.35829865329152" lon="11.418849070048063"><ele>222.0</ele><time>2026-05-02T08:37:44.999Z</time></trkpt><trkpt lat="43.358217253861774" lon="11.4187179768651"><ele>221.75</ele><time>2026-05-02T08:37:45.999Z</time></trkpt><trkpt lat="43.35813079400058" lon="11.418583599313823"><ele>221.5</ele><time>2026-05-02T08:37:46.999Z</time></trkpt><trkpt lat="43.35803647762836" lon="11.418446153411315"><ele>221.25</ele><time>2026-05-02T08:37:47.999Z</time></trkpt><trkpt lat="43.35793060498058" lon="11.41829780022792"><ele>221.0</ele><time>2026-05-02T08:37:48.999Z</time></trkpt><trkpt lat="43.35781075012045" lon="11.41813119602425"><ele>220.75</ele><time>2026-05-02T08:37:49.999Z</time></trkpt><trkpt lat="43.35770913248481" lon="11.417980134675505"><ele>220.5</ele><time>2026-05-02T08:37:50.999Z</time></trkpt><trkpt lat="43.35761530911836" lon="11.417835749906065"><ele>220.25</ele><time>2026-05-02T08:37:51.999Z</time></trkpt><trkpt lat="43.357527702607555" lon="11.417697283241347"><ele>220.0</ele><time>2026-05-02T08:37:52.999Z</time></trkpt><trkpt lat="43.357435369284204" lon="11.417556422005333"><ele>220.0</ele><time>2026-05-02T08:37:53.999Z</time></trkpt><trkpt lat="43.35735947601947" lon="11.417427421703401"><ele>220.0</ele><time>2026-05-02T08:37:54.999Z</time></trkpt><trkpt lat="43.35729234102543" lon="11.417310656780991"><ele>220.0</ele><time>2026-05-02T08:37:55.999Z</time></trkpt><trkpt lat="43.357225671031685" lon="11.417202993232028"><ele>220.0</ele><time>2026-05-02T08:37:56.999Z</time></trkpt><trkpt lat="43.35716433649363" lon="11.417109369598945"><ele>220.0</ele><time>2026-05-02T08:37:57.999Z</time></trkpt><trkpt lat="43.357107941012444" lon="11.417027833742416"><ele>219.83333333333331</ele><time>2026-05-02T08:37:59Z</time></trkpt><trkpt lat="43.35705061808314" lon="11.416941072348948"><ele>219.66666666666666</ele><time>2026-05-02T08:38:00Z</time></trkpt><trkpt lat="43.356996031217236" lon="11.416857428703393"><ele>219.5</ele><time>2026-05-02T08:38:01Z</time></trkpt><trkpt lat="43.35693819702206" lon="11.416776093608865"><ele>219.33333333333331</ele><time>2026-05-02T08:38:02Z</time></trkpt><trkpt lat="43.35687659231016" lon="11.416684186514075"><ele>219.16666666666666</ele><time>2026-05-02T08:38:03Z</time></trkpt><trkpt lat="43.35681426246345" lon="11.416584521933533"><ele>219.0</ele><time>2026-05-02T08:38:04Z</time></trkpt><trkpt lat="43.35674830001971" lon="11.416469899490293"><ele>219.0</ele><time>2026-05-02T08:38:05Z</time></trkpt><trkpt lat="43.35667970785284" lon="11.416349686244393"><ele>218.99999999999997</ele><time>2026-05-02T08:38:06Z</time></trkpt><trkpt lat="43.35661153687466" lon="11.416229669190422"><ele>218.99999999999997</ele><time>2026-05-02T08:38:07Z</time></trkpt><trkpt lat="43.35654435381406" lon="11.416114570482872"><ele>219.0</ele><time>2026-05-02T08:38:08Z</time></trkpt><trkpt lat="43.3564801499851" lon="11.416006772382278"><ele>219.0</ele><time>2026-05-02T08:38:09Z</time></trkpt><trkpt lat="43.35641192335757" lon="11.415910113266813"><ele>219.6</ele><time>2026-05-02T08:38:10Z</time></trkpt><trkpt lat="43.35633188501623" lon="11.415848599319679"><ele>220.2</ele><time>2026-05-02T08:38:11Z</time></trkpt><trkpt lat="43.35623651612349" lon="11.415823340478687"><ele>220.79999999999998</ele><time>2026-05-02T08:38:12Z</time></trkpt><trkpt lat="43.356122338206276" lon="11.415836030028201"><ele>221.39999999999998</ele><time>2026-05-02T08:38:13Z</time></trkpt><trkpt lat="43.35599760190644" lon="11.415873638370284"><ele>222.0</ele><time>2026-05-02T08:38:14Z</time></trkpt><trkpt lat="43.35586856454594" lon="11.415941145429324"><ele>222.0</ele><time>2026-05-02T08:38:15Z</time></trkpt><trkpt lat="43.35574921287798" lon="11.416024281355313"><ele>222.0</ele><time>2026-05-02T08:38:16Z</time></trkpt><trkpt lat="43.355649611529394" lon="11.416116803844297"><ele>222.0</ele><time>2026-05-02T08:38:17Z</time></trkpt><trkpt lat="43.35555256837447" lon="11.416195844614977"><ele>222.0</ele><time>2026-05-02T08:38:18Z</time></trkpt><trkpt lat="43.35544770824727" lon="11.416246432308464"><ele>223.25</ele><time>2026-05-02T08:38:19Z</time></trkpt><trkpt lat="43.355336749237836" lon="11.416272284341122"><ele>224.5</ele><time>2026-05-02T08:38:20Z</time></trkpt><trkpt lat="43.3552167478769" lon="11.416266342770335"><ele>225.75</ele><time>2026-05-02T08:38:21Z</time></trkpt><trkpt lat="43.35508260455374" lon="11.416224784176395"><ele>227.0</ele><time>2026-05-02T08:38:22Z</time></trkpt><trkpt lat="43.354933758008315" lon="11.416206042401885"><ele>227.0</ele><time>2026-05-02T08:38:23Z</time></trkpt><trkpt lat="43.35478962349132" lon="11.41618745242049"><ele>227.0</ele><time>2026-05-02T08:38:24Z</time></trkpt><trkpt lat="43.354639798006" lon="11.416162872691256"><ele>227.0</ele><time>2026-05-02T08:38:25Z</time></trkpt><trkpt lat="43.3544917897321" lon="11.416141160244312"><ele>227.0</ele><time>2026-05-02T08:38:26Z</time></trkpt><trkpt lat="43.3543491693615" lon="11.41612290895582"><ele>226.5</ele><time>2026-05-02T08:38:27Z</time></trkpt><trkpt lat="43.35420590941416" lon="11.416105988356174"><ele>226.0</ele><time>2026-05-02T08:38:28Z</time></trkpt><trkpt lat="43.35406580073011" lon="11.416090153804138"><ele>225.5</ele><time>2026-05-02T08:38:29Z</time></trkpt><trkpt lat="43.353923166613484" lon="11.416077566133591"><ele>225.0</ele><time>2026-05-02T08:38:30Z</time></trkpt><trkpt lat="43.353778090056686" lon="11.416062570710684"><ele>224.5</ele><time>2026-05-02T08:38:31Z</time></trkpt><trkpt lat="43.353637251239746" lon="11.416037599549389"><ele>224.0</ele><time>2026-05-02T08:38:32Z</time></trkpt><trkpt lat="43.35349620415863" lon="11.416002803263519"><ele>223.5</ele><time>2026-05-02T08:38:33Z</time></trkpt><trkpt lat="43.35335718754167" lon="11.415963696934144"><ele>223.0</ele><time>2026-05-02T08:38:34Z</time></trkpt><trkpt lat="43.35322284903132" lon="11.415921021387513"><ele>223.0</ele><time>2026-05-02T08:38:35.001Z</time></trkpt><trkpt lat="43.353091833343704" lon="11.415876704287234"><ele>223.0</ele><time>2026-05-02T08:38:36.001Z</time></trkpt><trkpt lat="43.352968135921245" lon="11.4158355424625"><ele>223.0</ele><time>2026-05-02T08:38:37.001Z</time></trkpt><trkpt lat="43.35285354263042" lon="11.415797559911969"><ele>223.0</ele><time>2026-05-02T08:38:38.001Z</time></trkpt><trkpt lat="43.35274306114188" lon="11.415764012465903"><ele>223.0</ele><time>2026-05-02T08:38:39.001Z</time></trkpt><trkpt lat="43.35263919119245" lon="11.415737079015786"><ele>223.0</ele><time>2026-05-02T08:38:40.001Z</time></trkpt><trkpt lat="43.35253797395394" lon="11.41570973127557"><ele>223.0</ele><time>2026-05-02T08:38:41.001Z</time></trkpt><trkpt lat="43.35244658574405" lon="11.415685291797214"><ele>223.0</ele><time>2026-05-02T08:38:42.001Z</time></trkpt><trkpt lat="43.35236656191112" lon="11.415662961006689"><ele>223.0</ele><time>2026-05-02T08:38:43.001Z</time></trkpt><trkpt lat="43.35229842947688" lon="11.41564158930464"><ele>222.99999999999997</ele><time>2026-05-02T08:38:44.001Z</time></trkpt><trkpt lat="43.35223336980754" lon="11.415623288962106"><ele>223.0</ele><time>2026-05-02T08:38:45.001Z</time></trkpt><trkpt lat="43.35211688834887" lon="11.415594355762334"><ele>223.0</ele><time>2026-05-02T08:38:47.001Z</time></trkpt><trkpt lat="43.35201629485389" lon="11.415575933952072"><ele>223.0</ele><time>2026-05-02T08:38:49.001Z</time></trkpt><trkpt lat="43.35194931439587" lon="11.415557057308906"><ele>222.99999999999997</ele><time>2026-05-02T08:38:50.001Z</time></trkpt><trkpt lat="43.35187820467749" lon="11.415534363841704"><ele>223.0</ele><time>2026-05-02T08:38:51.001Z</time></trkpt><trkpt lat="43.3517989071128" lon="11.415506122715014"><ele>222.60000000000002</ele><time>2026-05-02T08:38:52.001Z</time></trkpt><trkpt lat="43.35171028535454" lon="11.415479322176518"><ele>222.20000000000002</ele><time>2026-05-02T08:38:53.001Z</time></trkpt><trkpt lat="43.35161767302314" lon="11.415452312157612"><ele>221.8</ele><time>2026-05-02T08:38:54.001Z</time></trkpt><trkpt lat="43.351517693865766" lon="11.415423178563687"><ele>221.4</ele><time>2026-05-02T08:38:55.001Z</time></trkpt><trkpt lat="43.35141966416968" lon="11.4153936606917"><ele>221.0</ele><time>2026-05-02T08:38:56.001Z</time></trkpt><trkpt lat="43.35131761010536" lon="11.41536102487709"><ele>220.8</ele><time>2026-05-02T08:38:57.001Z</time></trkpt><trkpt lat="43.35121660019273" lon="11.415329963678717"><ele>220.60000000000002</ele><time>2026-05-02T08:38:58.001Z</time></trkpt><trkpt lat="43.351120354574185" lon="11.415304546732866"><ele>220.4</ele><time>2026-05-02T08:38:59.001Z</time></trkpt><trkpt lat="43.351024788028326" lon="11.415281850595301"><ele>220.2</ele><time>2026-05-02T08:39:00.001Z</time></trkpt><trkpt lat="43.350921627843405" lon="11.415254789736194"><ele>220.0</ele><time>2026-05-02T08:39:01.001Z</time></trkpt><trkpt lat="43.35081774390025" lon="11.415226447904656"><ele>220.0</ele><time>2026-05-02T08:39:02.001Z</time></trkpt><trkpt lat="43.35071286153356" lon="11.415200167231296"><ele>220.0</ele><time>2026-05-02T08:39:03.001Z</time></trkpt><trkpt lat="43.35060233386785" lon="11.41517502398529"><ele>220.0</ele><time>2026-05-02T08:39:04.001Z</time></trkpt><trkpt lat="43.35049315987443" lon="11.415141679106481"><ele>220.0</ele><time>2026-05-02T08:39:05.001Z</time></trkpt><trkpt lat="43.35037838414823" lon="11.415104754615314"><ele>220.0</ele><time>2026-05-02T08:39:06.001Z</time></trkpt><trkpt lat="43.350265866654965" lon="11.415059344079475"><ele>220.5</ele><time>2026-05-02T08:39:07.001Z</time></trkpt><trkpt lat="43.3501497025814" lon="11.414978009432453"><ele>221.0</ele><time>2026-05-02T08:39:08.001Z</time></trkpt><trkpt lat="43.350036257548936" lon="11.414855038218084"><ele>221.5</ele><time>2026-05-02T08:39:09.001Z</time></trkpt><trkpt lat="43.3499278583189" lon="11.414709548855269"><ele>222.0</ele><time>2026-05-02T08:39:10.001Z</time></trkpt><trkpt lat="43.349824206435564" lon="11.414523877391527"><ele>222.0</ele><time>2026-05-02T08:39:11.001Z</time></trkpt><trkpt lat="43.349730540386574" lon="11.414351515014634"><ele>222.0</ele><time>2026-05-02T08:39:12.001Z</time></trkpt><trkpt lat="43.34965083288755" lon="11.414202129284712"><ele>222.0</ele><time>2026-05-02T08:39:13.001Z</time></trkpt><trkpt lat="43.3495700913131" lon="11.414051911032235"><ele>222.0</ele><time>2026-05-02T08:39:14.001Z</time></trkpt><trkpt lat="43.34950020237667" lon="11.413855670037824"><ele>223.66666666666669</ele><time>2026-05-02T08:39:15.001Z</time></trkpt><trkpt lat="43.34943834163403" lon="11.4136516063052"><ele>225.33333333333334</ele><time>2026-05-02T08:39:16.001Z</time></trkpt><trkpt lat="43.34937727208046" lon="11.413469597369701"><ele>227.0</ele><time>2026-05-02T08:39:17.001Z</time></trkpt><trkpt lat="43.34929320768559" lon="11.413281011907586"><ele>227.0</ele><time>2026-05-02T08:39:18.001Z</time></trkpt><trkpt lat="43.34918723671173" lon="11.413098701125865"><ele>227.0</ele><time>2026-05-02T08:39:19.001Z</time></trkpt><trkpt lat="43.349074747174015" lon="11.412936146372163"><ele>227.0</ele><time>2026-05-02T08:39:20.001Z</time></trkpt><trkpt lat="43.34896620276182" lon="11.412789177087436"><ele>228.25</ele><time>2026-05-02T08:39:21.002Z</time></trkpt><trkpt lat="43.34886649376825" lon="11.412642189090144"><ele>229.5</ele><time>2026-05-02T08:39:22.002Z</time></trkpt><trkpt lat="43.34878199289258" lon="11.412482101933833"><ele>230.75</ele><time>2026-05-02T08:39:23.002Z</time></trkpt><trkpt lat="43.34871063258783" lon="11.4123162608469"><ele>232.0</ele><time>2026-05-02T08:39:24.002Z</time></trkpt><trkpt lat="43.348643229336105" lon="11.412140867656115"><ele>232.0</ele><time>2026-05-02T08:39:25.002Z</time></trkpt><trkpt lat="43.34859060309741" lon="11.41195982832815"><ele>232.0</ele><time>2026-05-02T08:39:26.002Z</time></trkpt><trkpt lat="43.348555218081955" lon="11.41177678228593"><ele>232.0</ele><time>2026-05-02T08:39:27.002Z</time></trkpt><trkpt lat="43.3485352838205" lon="11.411588038663085"><ele>232.0</ele><time>2026-05-02T08:39:28.002Z</time></trkpt><trkpt lat="43.348519576831976" lon="11.411409480937774"><ele>233.5</ele><time>2026-05-02T08:39:29.002Z</time></trkpt><trkpt lat="43.34851394289355" lon="11.411226110299213"><ele>235.0</ele><time>2026-05-02T08:39:30.002Z</time></trkpt><trkpt lat="43.348501159460945" lon="11.411044779948318"><ele>236.5</ele><time>2026-05-02T08:39:31.002Z</time></trkpt><trkpt lat="43.34848046615769" lon="11.410877014044686"><ele>238.0</ele><time>2026-05-02T08:39:32.002Z</time></trkpt><trkpt lat="43.348456285083465" lon="11.410705967735177"><ele>238.0</ele><time>2026-05-02T08:39:33.002Z</time></trkpt><trkpt lat="43.348422948719254" lon="11.410518135477856"><ele>238.0</ele><time>2026-05-02T08:39:34.002Z</time></trkpt><trkpt lat="43.34837908323873" lon="11.410320442678755"><ele>238.0</ele><time>2026-05-02T08:39:35.002Z</time></trkpt><trkpt lat="43.34832913481593" lon="11.410125421976145"><ele>238.0</ele><time>2026-05-02T08:39:36.002Z</time></trkpt><trkpt lat="43.3482778797467" lon="11.409943586565422"><ele>238.5</ele><time>2026-05-02T08:39:37.002Z</time></trkpt><trkpt lat="43.34823050033117" lon="11.409764880835915"><ele>239.0</ele><time>2026-05-02T08:39:38.002Z</time></trkpt><trkpt lat="43.348184306892776" lon="11.409578140601248"><ele>239.5</ele><time>2026-05-02T08:39:39.002Z</time></trkpt><trkpt lat="43.348137228614114" lon="11.409391541769045"><ele>240.0</ele><time>2026-05-02T08:39:40.002Z</time></trkpt><trkpt lat="43.34809187885615" lon="11.40921014759412"><ele>240.0</ele><time>2026-05-02T08:39:41.002Z</time></trkpt><trkpt lat="43.34805329008513" lon="11.409008836829761"><ele>240.0</ele><time>2026-05-02T08:39:42.002Z</time></trkpt><trkpt lat="43.34802945478648" lon="11.408790698161303"><ele>240.0</ele><time>2026-05-02T08:39:43.002Z</time></trkpt><trkpt lat="43.34801593990587" lon="11.408566047054956"><ele>248.0</ele><time>2026-05-02T08:39:44.002Z</time></trkpt><trkpt lat="43.3480095292784" lon="11.408333273273106"><ele>256.0</ele><time>2026-05-02T08:39:45.002Z</time></trkpt><trkpt lat="43.3480071257311" lon="11.408098496757516"><ele>264.0</ele><time>2026-05-02T08:39:45.999Z</time></trkpt><trkpt lat="43.34801232823586" lon="11.407876492331516"><ele>265.5</ele><time>2026-05-02T08:39:46.999Z</time></trkpt><trkpt lat="43.34801723665907" lon="11.407663966061465"><ele>267.0</ele><time>2026-05-02T08:39:47.999Z</time></trkpt><trkpt lat="43.34802151404522" lon="11.40746186280465"><ele>268.5</ele><time>2026-05-02T08:39:48.999Z</time></trkpt><trkpt lat="43.34803241431128" lon="11.407262953392499"><ele>270.0</ele><time>2026-05-02T08:39:49.999Z</time></trkpt><trkpt lat="43.34804455921844" lon="11.407067397704783"><ele>264.75</ele><time>2026-05-02T08:39:50.999Z</time></trkpt><trkpt lat="43.34806060760999" lon="11.406877137625887"><ele>259.5</ele><time>2026-05-02T08:39:51.999Z</time></trkpt><trkpt lat="43.3480834637391" lon="11.406694096301106"><ele>254.25</ele><time>2026-05-02T08:39:52.999Z</time></trkpt><trkpt lat="43.348111813608774" lon="11.406516243963294"><ele>249.0</ele><time>2026-05-02T08:39:53.999Z</time></trkpt><trkpt lat="43.348148884886434" lon="11.4063340420057"><ele>250.75</ele><time>2026-05-02T08:39:54.999Z</time></trkpt><trkpt lat="43.34819243906011" lon="11.406147400490637"><ele>252.5</ele><time>2026-05-02T08:39:55.999Z</time></trkpt><trkpt lat="43.34824300183049" lon="11.405965859480483"><ele>254.25</ele><time>2026-05-02T08:39:56.999Z</time></trkpt><trkpt lat="43.348296372035136" lon="11.405790690240805"><ele>256.0</ele><time>2026-05-02T08:39:57.999Z</time></trkpt><trkpt lat="43.348346693813724" lon="11.405610167290547"><ele>258.75</ele><time>2026-05-02T08:39:58.999Z</time></trkpt><trkpt lat="43.348393691208614" lon="11.405420461028028"><ele>261.5</ele><time>2026-05-02T08:40:00Z</time></trkpt><trkpt lat="43.34842621237132" lon="11.405227218201567"><ele>264.25</ele><time>2026-05-02T08:40:01Z</time></trkpt><trkpt lat="43.348443459574455" lon="11.405033540036058"><ele>267.0</ele><time>2026-05-02T08:40:02Z</time></trkpt><trkpt lat="43.34845486136652" lon="11.404846765248857"><ele>267.0</ele><time>2026-05-02T08:40:03Z</time></trkpt><trkpt lat="43.348477239746366" lon="11.404669821189893"><ele>267.0</ele><time>2026-05-02T08:40:04Z</time></trkpt><trkpt lat="43.3485234308616" lon="11.404523882399188"><ele>267.0</ele><time>2026-05-02T08:40:05Z</time></trkpt><trkpt lat="43.348570572172285" lon="11.404383175615317"><ele>267.0</ele><time>2026-05-02T08:40:06Z</time></trkpt><trkpt lat="43.34862645072391" lon="11.404265316277867"><ele>267.4</ele><time>2026-05-02T08:40:07Z</time></trkpt><trkpt lat="43.34868673505046" lon="11.40416447938875"><ele>267.79999999999995</ele><time>2026-05-02T08:40:08Z</time></trkpt><trkpt lat="43.34874892375487" lon="11.404078034709316"><ele>268.2</ele><time>2026-05-02T08:40:09Z</time></trkpt><trkpt lat="43.34881458930718" lon="11.403987994726345"><ele>268.59999999999997</ele><time>2026-05-02T08:40:10Z</time></trkpt><trkpt lat="43.34888733065054" lon="11.40387536357648"><ele>269.0</ele><time>2026-05-02T08:40:11Z</time></trkpt><trkpt lat="43.34897336643466" lon="11.403740230216627"><ele>270.0</ele><time>2026-05-02T08:40:12Z</time></trkpt><trkpt lat="43.34904687790024" lon="11.403563287073066"><ele>271.0</ele><time>2026-05-02T08:40:13Z</time></trkpt><trkpt lat="43.349110764497475" lon="11.403367176428214"><ele>272.0</ele><time>2026-05-02T08:40:14Z</time></trkpt><trkpt lat="43.34914758873937" lon="11.403140953097235"><ele>274.33333333333337</ele><time>2026-05-02T08:40:15Z</time></trkpt><trkpt lat="43.349159120218076" lon="11.402889141702575"><ele>276.6666666666667</ele><time>2026-05-02T08:40:16Z</time></trkpt><trkpt lat="43.349159594428315" lon="11.402649743721211"><ele>279.0</ele><time>2026-05-02T08:40:17Z</time></trkpt><trkpt lat="43.34917213650811" lon="11.402444392518186"><ele>279.0</ele><time>2026-05-02T08:40:18Z</time></trkpt><trkpt lat="43.34918441054181" lon="11.402255823445893"><ele>279.0</ele><time>2026-05-02T08:40:19Z</time></trkpt><trkpt lat="43.34920412757795" lon="11.402084697616397"><ele>279.0</ele><time>2026-05-02T08:40:20Z</time></trkpt><trkpt lat="43.34923124241389" lon="11.401934093469432"><ele>279.0</ele><time>2026-05-02T08:40:21Z</time></trkpt><trkpt lat="43.34927738360707" lon="11.40178995196082"><ele>281.0</ele><time>2026-05-02T08:40:22Z</time></trkpt><trkpt lat="43.349354707059945" lon="11.401662012857052"><ele>283.0</ele><time>2026-05-02T08:40:23Z</time></trkpt><trkpt lat="43.34944825969318" lon="11.401565946994547"><ele>285.0</ele><time>2026-05-02T08:40:24Z</time></trkpt><trkpt lat="43.34955335146606" lon="11.401511353066544"><ele>287.0</ele><time>2026-05-02T08:40:25Z</time></trkpt><trkpt lat="43.349679843919006" lon="11.401522560954648"><ele>286.0</ele><time>2026-05-02T08:40:26Z</time></trkpt><trkpt lat="43.349804162161234" lon="11.401571860190364"><ele>285.0</ele><time>2026-05-02T08:40:27Z</time></trkpt><trkpt lat="43.349904444324814" lon="11.401617402382534"><ele>284.0</ele><time>2026-05-02T08:40:28Z</time></trkpt><trkpt lat="43.349985508262996" lon="11.401650700968261"><ele>283.0</ele><time>2026-05-02T08:40:29Z</time></trkpt><trkpt lat="43.350069826747976" lon="11.401667706651399"><ele>282.0</ele><time>2026-05-02T08:40:30Z</time></trkpt><trkpt lat="43.35015144100614" lon="11.401624484539452"><ele>282.0</ele><time>2026-05-02T08:40:31Z</time></trkpt><trkpt lat="43.35021966597402" lon="11.401524242358297"><ele>282.0</ele><time>2026-05-02T08:40:32Z</time></trkpt><trkpt lat="43.350255935276245" lon="11.401395737222684"><ele>282.0</ele><time>2026-05-02T08:40:33Z</time></trkpt><trkpt lat="43.35024899983456" lon="11.401263499992652"><ele>282.0</ele><time>2026-05-02T08:40:34.001Z</time></trkpt><trkpt lat="43.35019600325322" lon="11.40113420990325"><ele>282.0</ele><time>2026-05-02T08:40:35.001Z</time></trkpt><trkpt lat="43.35009430146059" lon="11.4009921513942"><ele>284.5</ele><time>2026-05-02T08:40:36.001Z</time></trkpt><trkpt lat="43.34999010412406" lon="11.400870652882672"><ele>287.0</ele><time>2026-05-02T08:40:37.001Z</time></trkpt><trkpt lat="43.349895049125266" lon="11.40076019270417"><ele>289.5</ele><time>2026-05-02T08:40:38.001Z</time></trkpt><trkpt lat="43.349797230655376" lon="11.40066871846474"><ele>292.0</ele><time>2026-05-02T08:40:39.001Z</time></trkpt><trkpt lat="43.349681315046595" lon="11.400617248866759"><ele>292.5</ele><time>2026-05-02T08:40:40.001Z</time></trkpt><trkpt lat="43.34954373287524" lon="11.4006135242325"><ele>293.0</ele><time>2026-05-02T08:40:41.001Z</time></trkpt><trkpt lat="43.34940322886945" lon="11.400657060703473"><ele>293.5</ele><time>2026-05-02T08:40:42.001Z</time></trkpt><trkpt lat="43.34929401697536" lon="11.400735559609494"><ele>294.0</ele><time>2026-05-02T08:40:43.001Z</time></trkpt><trkpt lat="43.34919383674517" lon="11.400796731559998"><ele>294.0</ele><time>2026-05-02T08:40:44.001Z</time></trkpt><trkpt lat="43.349105407888736" lon="11.400845659130074"><ele>294.0</ele><time>2026-05-02T08:40:45.001Z</time></trkpt><trkpt lat="43.34902618897678" lon="11.400888172107512"><ele>294.0</ele><time>2026-05-02T08:40:46.001Z</time></trkpt><trkpt lat="43.34894799979487" lon="11.400935253445438"><ele>294.0</ele><time>2026-05-02T08:40:47.001Z</time></trkpt><trkpt lat="43.34887307659026" lon="11.400989599991883"><ele>294.0</ele><time>2026-05-02T08:40:48.001Z</time></trkpt><trkpt lat="43.34880511817995" lon="11.401038579261355"><ele>294.0</ele><time>2026-05-02T08:40:49.001Z</time></trkpt><trkpt lat="43.34873892667152" lon="11.40107207139738"><ele>295.0</ele><time>2026-05-02T08:40:50.001Z</time></trkpt><trkpt lat="43.34866507797937" lon="11.401068772460459"><ele>296.0</ele><time>2026-05-02T08:40:51.001Z</time></trkpt><trkpt lat="43.34857755196206" lon="11.401024251718763"><ele>297.0</ele><time>2026-05-02T08:40:52.001Z</time></trkpt><trkpt lat="43.34849848506972" lon="11.400956299173698"><ele>298.0</ele><time>2026-05-02T08:40:53.001Z</time></trkpt><trkpt lat="43.34842727292647" lon="11.4008715710428"><ele>299.0</ele><time>2026-05-02T08:40:54.001Z</time></trkpt><trkpt lat="43.34835729937072" lon="11.400783782457284"><ele>300.0</ele><time>2026-05-02T08:40:55.001Z</time></trkpt><trkpt lat="43.348282521615815" lon="11.400699771568352"><ele>300.0</ele><time>2026-05-02T08:40:56.001Z</time></trkpt><trkpt lat="43.3482057336667" lon="11.400616656468756"><ele>300.0</ele><time>2026-05-02T08:40:57.001Z</time></trkpt><trkpt lat="43.34812636431729" lon="11.400535909786335"><ele>300.0</ele><time>2026-05-02T08:40:58.001Z</time></trkpt><trkpt lat="43.34804514776784" lon="11.400458220798138"><ele>300.0</ele><time>2026-05-02T08:40:59.001Z</time></trkpt><trkpt lat="43.34795893730044" lon="11.40038752055299"><ele>300.0</ele><time>2026-05-02T08:41:00.001Z</time></trkpt><trkpt lat="43.3478706954947" lon="11.400335334667002"><ele>301.1666666666667</ele><time>2026-05-02T08:41:01.001Z</time></trkpt><trkpt lat="43.34779207282701" lon="11.400287009534365"><ele>302.3333333333333</ele><time>2026-05-02T08:41:02.001Z</time></trkpt><trkpt lat="43.34772351479008" lon="11.400245582712925"><ele>303.5</ele><time>2026-05-02T08:41:03.001Z</time></trkpt><trkpt lat="43.34766410064063" lon="11.400209340264341"><ele>304.66666666666663</ele><time>2026-05-02T08:41:04.001Z</time></trkpt><trkpt lat="43.34756039606072" lon="11.400131800722017"><ele>305.8333333333333</ele><time>2026-05-02T08:41:06.001Z</time></trkpt><trkpt lat="43.3475050999979" lon="11.400071145974877"><ele>307.0</ele><time>2026-05-02T08:41:07.001Z</time></trkpt><trkpt lat="43.34745482333222" lon="11.39997898423821"><ele>307.0</ele><time>2026-05-02T08:41:08.001Z</time></trkpt><trkpt lat="43.34741777042149" lon="11.399873269946069"><ele>307.0</ele><time>2026-05-02T08:41:09.001Z</time></trkpt><trkpt lat="43.3474120871273" lon="11.399769223650003"><ele>307.0</ele><time>2026-05-02T08:41:10.001Z</time></trkpt><trkpt lat="43.34741801514606" lon="11.399661647214433"><ele>307.0</ele><time>2026-05-02T08:41:11.001Z</time></trkpt><trkpt lat="43.34744658138399" lon="11.39957920322949"><ele>307.0</ele><time>2026-05-02T08:41:12.001Z</time></trkpt><trkpt lat="43.34752811097105" lon="11.399456419628857"><ele>307.0</ele><time>2026-05-02T08:41:14.001Z</time></trkpt><trkpt lat="43.34762155322755" lon="11.399326841709891"><ele>307.16666666666663</ele><time>2026-05-02T08:41:16.002Z</time></trkpt><trkpt lat="43.34769490247813" lon="11.399279249885728"><ele>307.3333333333333</ele><time>2026-05-02T08:41:17.002Z</time></trkpt><trkpt lat="43.34777375380758" lon="11.399232239448049"><ele>307.5</ele><time>2026-05-02T08:41:18.002Z</time></trkpt><trkpt lat="43.34784413972193" lon="11.399180317483081"><ele>307.6666666666667</ele><time>2026-05-02T08:41:19.002Z</time></trkpt><trkpt lat="43.34790440970451" lon="11.399141962568208"><ele>307.83333333333337</ele><time>2026-05-02T08:41:20.002Z</time></trkpt><trkpt lat="43.34800346422914" lon="11.399092546358638"><ele>308.0</ele><time>2026-05-02T08:41:22.002Z</time></trkpt><trkpt lat="43.348073452269084" lon="11.399062064986703"><ele>308.4</ele><time>2026-05-02T08:41:24.002Z</time></trkpt><trkpt lat="43.348165692161274" lon="11.399028742802546"><ele>308.8</ele><time>2026-05-02T08:41:26.002Z</time></trkpt><trkpt lat="43.34824932422042" lon="11.399011864354604"><ele>309.2</ele><time>2026-05-02T08:41:28.002Z</time></trkpt><trkpt lat="43.348350862617075" lon="11.39899749440208"><ele>309.6</ele><time>2026-05-02T08:41:30.002Z</time></trkpt><trkpt lat="43.348421714072614" lon="11.398979677975328"><ele>310.0</ele><time>2026-05-02T08:41:32.002Z</time></trkpt><trkpt lat="43.348413208290694" lon="11.398839657332633"><ele>309.0</ele><time>2026-05-02T08:41:35.002Z</time></trkpt><trkpt lat="43.348332165010916" lon="11.398703762785805"><ele>308.0</ele><time>2026-05-02T08:41:37.002Z</time></trkpt><trkpt lat="43.348285172344426" lon="11.398615663661332"><ele>307.0</ele><time>2026-05-02T08:41:38.002Z</time></trkpt><trkpt lat="43.34824022440246" lon="11.398544877087838"><ele>306.0</ele><time>2026-05-02T08:41:39.002Z</time></trkpt><trkpt lat="43.348136405316374" lon="11.398481768991516"><ele>305.0</ele><time>2026-05-02T08:41:41.002Z</time></trkpt><trkpt lat="43.34807077668957" lon="11.398487710110878"><ele>303.8</ele><time>2026-05-02T08:41:42.002Z</time></trkpt><trkpt lat="43.347994984972345" lon="11.39852262214636"><ele>302.6</ele><time>2026-05-02T08:41:43.002Z</time></trkpt><trkpt lat="43.34791623400515" lon="11.398569135854856"><ele>301.4</ele><time>2026-05-02T08:41:44.002Z</time></trkpt><trkpt lat="43.34783289305667" lon="11.398608226566171"><ele>300.2</ele><time>2026-05-02T08:41:45.002Z</time></trkpt><trkpt lat="43.34773875644081" lon="11.398629724311995"><ele>299.0</ele><time>2026-05-02T08:41:46.002Z</time></trkpt><trkpt lat="43.34763847684231" lon="11.398654645793279"><ele>299.0</ele><time>2026-05-02T08:41:47.002Z</time></trkpt><trkpt lat="43.347537629735946" lon="11.398677226939691"><ele>299.0</ele><time>2026-05-02T08:41:48.002Z</time></trkpt><trkpt lat="43.347435694777474" lon="11.398699077482824"><ele>299.0</ele><time>2026-05-02T08:41:49.002Z</time></trkpt><trkpt lat="43.347334715709415" lon="11.39871791006341"><ele>299.0</ele><time>2026-05-02T08:41:50.002Z</time></trkpt><trkpt lat="43.34724080073518" lon="11.398735030032197"><ele>299.0</ele><time>2026-05-02T08:41:51.002Z</time></trkpt><trkpt lat="43.3471555116178" lon="11.398749945364589"><ele>299.59999999999997</ele><time>2026-05-02T08:41:51.999Z</time></trkpt><trkpt lat="43.34707154891513" lon="11.39876584391076"><ele>300.2</ele><time>2026-05-02T08:41:52.999Z</time></trkpt><trkpt lat="43.346985661306306" lon="11.398793362969533"><ele>300.79999999999995</ele><time>2026-05-02T08:41:53.999Z</time></trkpt><trkpt lat="43.3468958866841" lon="11.398839976440502"><ele>301.4</ele><time>2026-05-02T08:41:54.999Z</time></trkpt><trkpt lat="43.34680671316515" lon="11.398908452335464"><ele>302.0</ele><time>2026-05-02T08:41:55.999Z</time></trkpt><trkpt lat="43.34673017584101" lon="11.398999535176483"><ele>302.0</ele><time>2026-05-02T08:41:56.999Z</time></trkpt><trkpt lat="43.346659090258626" lon="11.399107094255307"><ele>302.0</ele><time>2026-05-02T08:41:57.999Z</time></trkpt><trkpt lat="43.34658258301585" lon="11.399219007550714"><ele>302.0</ele><time>2026-05-02T08:41:58.999Z</time></trkpt><trkpt lat="43.346504180989065" lon="11.399337213507899"><ele>302.0</ele><time>2026-05-02T08:41:59.999Z</time></trkpt><trkpt lat="43.34642371011039" lon="11.399463422824429"><ele>301.25</ele><time>2026-05-02T08:42:00.999Z</time></trkpt><trkpt lat="43.346347877811205" lon="11.399591744086353"><ele>300.5</ele><time>2026-05-02T08:42:01.999Z</time></trkpt><trkpt lat="43.346273941271626" lon="11.399708459372437"><ele>299.75</ele><time>2026-05-02T08:42:02.999Z</time></trkpt><trkpt lat="43.34620048925227" lon="11.399817679709727"><ele>299.0</ele><time>2026-05-02T08:42:03.999Z</time></trkpt><trkpt lat="43.346128189519284" lon="11.399931429095508"><ele>299.0</ele><time>2026-05-02T08:42:04.999Z</time></trkpt><trkpt lat="43.34605740790401" lon="11.4000464234106"><ele>299.0</ele><time>2026-05-02T08:42:05.999Z</time></trkpt><trkpt lat="43.34599571751299" lon="11.400148492160755"><ele>299.0</ele><time>2026-05-02T08:42:06.999Z</time></trkpt><trkpt lat="43.34594122903076" lon="11.40022988077662"><ele>299.0</ele><time>2026-05-02T08:42:07.999Z</time></trkpt><trkpt lat="43.34588891536519" lon="11.400302496940611"><ele>299.0</ele><time>2026-05-02T08:42:08.999Z</time></trkpt><trkpt lat="43.34583850775896" lon="11.400371808424518"><ele>299.0</ele><time>2026-05-02T08:42:09.999Z</time></trkpt><trkpt lat="43.34578980565521" lon="11.400444687772634"><ele>299.0</ele><time>2026-05-02T08:42:10.999Z</time></trkpt><trkpt lat="43.34574442188275" lon="11.400515203826473"><ele>299.0</ele><time>2026-05-02T08:42:11.999Z</time></trkpt><trkpt lat="43.345697430280076" lon="11.400589081693145"><ele>299.0</ele><time>2026-05-02T08:42:12.999Z</time></trkpt><trkpt lat="43.34564659946681" lon="11.400664786207525"><ele>299.0</ele><time>2026-05-02T08:42:13.999Z</time></trkpt><trkpt lat="43.34559988202715" lon="11.40073645208291"><ele>299.0</ele><time>2026-05-02T08:42:14.999Z</time></trkpt><trkpt lat="43.345551022408955" lon="11.400803704267645"><ele>299.0</ele><time>2026-05-02T08:42:15.999Z</time></trkpt><trkpt lat="43.34550641468198" lon="11.400871678040312"><ele>299.0</ele><time>2026-05-02T08:42:16.999Z</time></trkpt><trkpt lat="43.34542149482579" lon="11.400981016134656"><ele>299.0</ele><time>2026-05-02T08:42:19Z</time></trkpt><trkpt lat="43.345327309382895" lon="11.401086952785194"><ele>299.0</ele><time>2026-05-02T08:42:21Z</time></trkpt><trkpt lat="43.3452566813687" lon="11.401137345644658"><ele>299.0</ele><time>2026-05-02T08:42:22Z</time></trkpt><trkpt lat="43.34517937635087" lon="11.401177777710672"><ele>299.0</ele><time>2026-05-02T08:42:23Z</time></trkpt><trkpt lat="43.3450926941041" lon="11.401213448300554"><ele>299.0</ele><time>2026-05-02T08:42:24Z</time></trkpt><trkpt lat="43.34499875637522" lon="11.401246694200399"><ele>299.0</ele><time>2026-05-02T08:42:25Z</time></trkpt><trkpt lat="43.34490300007835" lon="11.401283737867125"><ele>299.0</ele><time>2026-05-02T08:42:26Z</time></trkpt><trkpt lat="43.34480745795831" lon="11.401315801773178"><ele>299.0</ele><time>2026-05-02T08:42:27Z</time></trkpt><trkpt lat="43.3447130280797" lon="11.401330672725207"><ele>299.0</ele><time>2026-05-02T08:42:28Z</time></trkpt><trkpt lat="43.344627340177674" lon="11.401338845195925"><ele>299.0</ele><time>2026-05-02T08:42:29Z</time></trkpt><trkpt lat="43.34453738037954" lon="11.40133834525553"><ele>297.8</ele><time>2026-05-02T08:42:30Z</time></trkpt><trkpt lat="43.3444444898444" lon="11.40133933656655"><ele>296.59999999999997</ele><time>2026-05-02T08:42:31Z</time></trkpt><trkpt lat="43.34435580838492" lon="11.401348206629544"><ele>295.4</ele><time>2026-05-02T08:42:32Z</time></trkpt><trkpt lat="43.34426327490055" lon="11.401349681046458"><ele>294.2</ele><time>2026-05-02T08:42:33Z</time></trkpt><trkpt lat="43.34417288298999" lon="11.401360437666675"><ele>293.0</ele><time>2026-05-02T08:42:34Z</time></trkpt><trkpt lat="43.344088298067774" lon="11.401382064723549"><ele>293.0</ele><time>2026-05-02T08:42:35Z</time></trkpt><trkpt lat="43.34400634104908" lon="11.40140626837564"><ele>293.0</ele><time>2026-05-02T08:42:36Z</time></trkpt><trkpt lat="43.34392123079012" lon="11.401445005491471"><ele>293.0</ele><time>2026-05-02T08:42:37Z</time></trkpt><trkpt lat="43.34384299927244" lon="11.401485285286476"><ele>293.0</ele><time>2026-05-02T08:42:38Z</time></trkpt><trkpt lat="43.34376784936892" lon="11.401528532753272"><ele>293.0</ele><time>2026-05-02T08:42:39Z</time></trkpt><trkpt lat="43.343693146831626" lon="11.401572687911168"><ele>293.0</ele><time>2026-05-02T08:42:40Z</time></trkpt><trkpt lat="43.3436134852451" lon="11.401618868412701"><ele>292.83333333333337</ele><time>2026-05-02T08:42:41Z</time></trkpt><trkpt lat="43.34353641588498" lon="11.401661017622214"><ele>292.6666666666667</ele><time>2026-05-02T08:42:42Z</time></trkpt><trkpt lat="43.34346394811029" lon="11.401707535170232"><ele>292.5</ele><time>2026-05-02T08:42:43Z</time></trkpt><trkpt lat="43.34339148747918" lon="11.401764336399504"><ele>292.3333333333333</ele><time>2026-05-02T08:42:44Z</time></trkpt><trkpt lat="43.343323516142945" lon="11.401840530564833"><ele>292.16666666666663</ele><time>2026-05-02T08:42:45Z</time></trkpt><trkpt lat="43.34326077135992" lon="11.401920398883277"><ele>292.0</ele><time>2026-05-02T08:42:46Z</time></trkpt><trkpt lat="43.34320823330141" lon="11.402018346377186"><ele>292.0</ele><time>2026-05-02T08:42:47Z</time></trkpt><trkpt lat="43.34316416226242" lon="11.402126824194994"><ele>292.0</ele><time>2026-05-02T08:42:48Z</time></trkpt><trkpt lat="43.343124711536646" lon="11.40223845208024"><ele>292.0</ele><time>2026-05-02T08:42:49.001Z</time></trkpt><trkpt lat="43.343091703712375" lon="11.402366689966714"><ele>292.0</ele><time>2026-05-02T08:42:50.001Z</time></trkpt><trkpt lat="43.34307217634634" lon="11.402497208609272"><ele>292.0</ele><time>2026-05-02T08:42:51.001Z</time></trkpt><trkpt lat="43.34306209140316" lon="11.402608172616628"><ele>291.5</ele><time>2026-05-02T08:42:52.001Z</time></trkpt><trkpt lat="43.34305743661291" lon="11.402717038097194"><ele>291.0</ele><time>2026-05-02T08:42:53.001Z</time></trkpt><trkpt lat="43.34305040334513" lon="11.402831506993635"><ele>290.5</ele><time>2026-05-02T08:42:54.001Z</time></trkpt><trkpt lat="43.34303904094694" lon="11.402954762166377"><ele>290.0</ele><time>2026-05-02T08:42:55.001Z</time></trkpt><trkpt lat="43.343011883743806" lon="11.403067846576208"><ele>289.5</ele><time>2026-05-02T08:42:56.001Z</time></trkpt><trkpt lat="43.342961038484894" lon="11.403165026697968"><ele>289.0</ele><time>2026-05-02T08:42:57.001Z</time></trkpt><trkpt lat="43.34289502319311" lon="11.403247089552023"><ele>289.0</ele><time>2026-05-02T08:42:58.001Z</time></trkpt><trkpt lat="43.34281241891726" lon="11.403299436197846"><ele>289.0</ele><time>2026-05-02T08:42:59.001Z</time></trkpt><trkpt lat="43.34271244313374" lon="11.40332287166909"><ele>289.0</ele><time>2026-05-02T08:43:00.001Z</time></trkpt><trkpt lat="43.34260181191578" lon="11.403326689311847"><ele>289.0</ele><time>2026-05-02T08:43:01.001Z</time></trkpt><trkpt lat="43.34249544485618" lon="11.403341589630239"><ele>289.0</ele><time>2026-05-02T08:43:02.001Z</time></trkpt><trkpt lat="43.34239440749748" lon="11.403383318966513"><ele>289.0</ele><time>2026-05-02T08:43:03.001Z</time></trkpt><trkpt lat="43.34229324612745" lon="11.403459730334815"><ele>289.0</ele><time>2026-05-02T08:43:04.001Z</time></trkpt><trkpt lat="43.342194691315974" lon="11.403570027324765"><ele>289.0</ele><time>2026-05-02T08:43:05.001Z</time></trkpt><trkpt lat="43.342102228409004" lon="11.403687300733342"><ele>289.0</ele><time>2026-05-02T08:43:06.001Z</time></trkpt><trkpt lat="43.34202738675675" lon="11.403776331270075"><ele>288.16666666666663</ele><time>2026-05-02T08:43:07.001Z</time></trkpt><trkpt lat="43.34196344402811" lon="11.40384732889177"><ele>287.3333333333333</ele><time>2026-05-02T08:43:08.001Z</time></trkpt><trkpt lat="43.34190138937663" lon="11.40391534613784"><ele>286.5</ele><time>2026-05-02T08:43:09.001Z</time></trkpt><trkpt lat="43.34185085581235" lon="11.403982684186872"><ele>285.6666666666667</ele><time>2026-05-02T08:43:10.001Z</time></trkpt><trkpt lat="43.3417987346643" lon="11.404055272086604"><ele>284.83333333333337</ele><time>2026-05-02T08:43:11.001Z</time></trkpt><trkpt lat="43.34174546986736" lon="11.404122067687151"><ele>284.0</ele><time>2026-05-02T08:43:12.001Z</time></trkpt><trkpt lat="43.34168942791565" lon="11.404183544749698"><ele>284.0</ele><time>2026-05-02T08:43:13.001Z</time></trkpt><trkpt lat="43.34163237288576" lon="11.404234911013988"><ele>284.0</ele><time>2026-05-02T08:43:14.001Z</time></trkpt><trkpt lat="43.341532989297356" lon="11.40432426039133"><ele>284.0</ele><time>2026-05-02T08:43:16.001Z</time></trkpt><trkpt lat="43.34148334005189" lon="11.404383601749805"><ele>284.0</ele><time>2026-05-02T08:43:17.001Z</time></trkpt><trkpt lat="43.34142898512145" lon="11.404459051585539"><ele>284.0</ele><time>2026-05-02T08:43:18.001Z</time></trkpt><trkpt lat="43.34137312478055" lon="11.404544835483044"><ele>284.0</ele><time>2026-05-02T08:43:19.001Z</time></trkpt><trkpt lat="43.34131499754573" lon="11.404641008465763"><ele>285.2</ele><time>2026-05-02T08:43:20.001Z</time></trkpt><trkpt lat="43.341250627098944" lon="11.40475034373945"><ele>286.4</ele><time>2026-05-02T08:43:21.001Z</time></trkpt><trkpt lat="43.341179123632436" lon="11.404877738580105"><ele>287.6</ele><time>2026-05-02T08:43:22.001Z</time></trkpt><trkpt lat="43.34110487112991" lon="11.405002056445236"><ele>288.8</ele><time>2026-05-02T08:43:23.001Z</time></trkpt><trkpt lat="43.34102852870639" lon="11.405113693983383"><ele>290.0</ele><time>2026-05-02T08:43:24.001Z</time></trkpt><trkpt lat="43.34094736285975" lon="11.405213656515796"><ele>290.0</ele><time>2026-05-02T08:43:25.002Z</time></trkpt><trkpt lat="43.3408673941442" lon="11.405296568883408"><ele>290.0</ele><time>2026-05-02T08:43:26.002Z</time></trkpt><trkpt lat="43.34077817156402" lon="11.405364954314246"><ele>290.0</ele><time>2026-05-02T08:43:27.002Z</time></trkpt><trkpt lat="43.340690740258694" lon="11.405418246699158"><ele>290.0</ele><time>2026-05-02T08:43:28.002Z</time></trkpt><trkpt lat="43.340605756262036" lon="11.405472781248838"><ele>290.0</ele><time>2026-05-02T08:43:29.002Z</time></trkpt><trkpt lat="43.340514200133676" lon="11.405530739024169"><ele>290.0</ele><time>2026-05-02T08:43:30.002Z</time></trkpt><trkpt lat="43.34041994618909" lon="11.405582646330027"><ele>290.0</ele><time>2026-05-02T08:43:31.002Z</time></trkpt><trkpt lat="43.34032755998998" lon="11.40563205730618"><ele>290.0</ele><time>2026-05-02T08:43:32.002Z</time></trkpt><trkpt lat="43.34024195315553" lon="11.40568423679889"><ele>290.0</ele><time>2026-05-02T08:43:33.002Z</time></trkpt><trkpt lat="43.34015576407092" lon="11.405734831253138"><ele>290.0</ele><time>2026-05-02T08:43:34.002Z</time></trkpt><trkpt lat="43.34007726821645" lon="11.405784436533585"><ele>290.0</ele><time>2026-05-02T08:43:35.002Z</time></trkpt><trkpt lat="43.34000141070484" lon="11.405832464875946"><ele>290.0</ele><time>2026-05-02T08:43:36.002Z</time></trkpt><trkpt lat="43.33992585756405" lon="11.405881258373855"><ele>290.0</ele><time>2026-05-02T08:43:37.002Z</time></trkpt><trkpt lat="43.3398567761953" lon="11.405926379425235"><ele>290.0</ele><time>2026-05-02T08:43:38.002Z</time></trkpt><trkpt lat="43.339791300589816" lon="11.405970067673081"><ele>290.0</ele><time>2026-05-02T08:43:39.002Z</time></trkpt><trkpt lat="43.339730390151956" lon="11.406013806554126"><ele>290.0</ele><time>2026-05-02T08:43:40.002Z</time></trkpt><trkpt lat="43.33967274380921" lon="11.406064345887504"><ele>289.4</ele><time>2026-05-02T08:43:41.002Z</time></trkpt><trkpt lat="43.33958426464527" lon="11.406197104247346"><ele>288.8</ele><time>2026-05-02T08:43:43.002Z</time></trkpt><trkpt lat="43.33953282876299" lon="11.4062994569365"><ele>288.2</ele><time>2026-05-02T08:43:44.002Z</time></trkpt><trkpt lat="43.33949133844873" lon="11.406410722255092"><ele>287.6</ele><time>2026-05-02T08:43:45.002Z</time></trkpt><trkpt lat="43.33944556116787" lon="11.406521343400822"><ele>287.0</ele><time>2026-05-02T08:43:46.002Z</time></trkpt><trkpt lat="43.33938127249272" lon="11.40664335769084"><ele>287.0</ele><time>2026-05-02T08:43:47.002Z</time></trkpt><trkpt lat="43.33928914603637" lon="11.406769296672673"><ele>287.0</ele><time>2026-05-02T08:43:48.002Z</time></trkpt><trkpt lat="43.33919166162758" lon="11.406886821968781"><ele>287.0</ele><time>2026-05-02T08:43:49.002Z</time></trkpt><trkpt lat="43.33909491128735" lon="11.407000478827594"><ele>287.0</ele><time>2026-05-02T08:43:50.002Z</time></trkpt><trkpt lat="43.33900012040525" lon="11.407120142219902"><ele>287.0</ele><time>2026-05-02T08:43:51.002Z</time></trkpt><trkpt lat="43.33890677296224" lon="11.40723527057043"><ele>287.0</ele><time>2026-05-02T08:43:52.002Z</time></trkpt><trkpt lat="43.33881844195831" lon="11.407342099639623"><ele>287.0</ele><time>2026-05-02T08:43:53.002Z</time></trkpt><trkpt lat="43.33873234387746" lon="11.407444283026486"><ele>287.0</ele><time>2026-05-02T08:43:54.002Z</time></trkpt><trkpt lat="43.33864411630225" lon="11.407535013582757"><ele>287.4</ele><time>2026-05-02T08:43:55.002Z</time></trkpt><trkpt lat="43.33855864830423" lon="11.407607096126771"><ele>287.79999999999995</ele><time>2026-05-02T08:43:56.002Z</time></trkpt><trkpt lat="43.33847391243169" lon="11.407673727415816"><ele>288.2</ele><time>2026-05-02T08:43:57.002Z</time></trkpt><trkpt lat="43.33838922803322" lon="11.407727905884641"><ele>288.59999999999997</ele><time>2026-05-02T08:43:57.998Z</time></trkpt><trkpt lat="43.33830462114263" lon="11.407772790719275"><ele>289.0</ele><time>2026-05-02T08:43:58.998Z</time></trkpt><trkpt lat="43.338228000864966" lon="11.407811113719672"><ele>289.0</ele><time>2026-05-02T08:43:59.998Z</time></trkpt><trkpt lat="43.33816318660692" lon="11.407835043675515"><ele>289.0</ele><time>2026-05-02T08:44:00.998Z</time></trkpt><trkpt lat="43.338038681886744" lon="11.407811579004083"><ele>289.0</ele><time>2026-05-02T08:44:02.998Z</time></trkpt><trkpt lat="43.33796567662965" lon="11.407760711578733"><ele>289.0</ele><time>2026-05-02T08:44:03.998Z</time></trkpt><trkpt lat="43.337888268654126" lon="11.407693161103984"><ele>289.0</ele><time>2026-05-02T08:44:04.998Z</time></trkpt><trkpt lat="43.33780769041051" lon="11.407608100521683"><ele>289.5</ele><time>2026-05-02T08:44:05.998Z</time></trkpt><trkpt lat="43.33771538936955" lon="11.407515089185562"><ele>290.0</ele><time>2026-05-02T08:44:06.998Z</time></trkpt><trkpt lat="43.33760231376947" lon="11.407406489964217"><ele>290.5</ele><time>2026-05-02T08:44:07.998Z</time></trkpt><trkpt lat="43.33748191756441" lon="11.407294652839052"><ele>291.0</ele><time>2026-05-02T08:44:08.998Z</time></trkpt><trkpt lat="43.33737043083834" lon="11.407188047866818"><ele>290.8</ele><time>2026-05-02T08:44:09.998Z</time></trkpt><trkpt lat="43.337275865638944" lon="11.407095521108012"><ele>290.6</ele><time>2026-05-02T08:44:10.998Z</time></trkpt><trkpt lat="43.33718946359808" lon="11.407026586618112"><ele>290.4</ele><time>2026-05-02T08:44:11.999Z</time></trkpt><trkpt lat="43.33710157884358" lon="11.406983417737676"><ele>290.2</ele><time>2026-05-02T08:44:12.999Z</time></trkpt><trkpt lat="43.337009987608546" lon="11.406945064990474"><ele>290.0</ele><time>2026-05-02T08:44:13.999Z</time></trkpt><trkpt lat="43.336912197342414" lon="11.406900075895958"><ele>290.4</ele><time>2026-05-02T08:44:14.999Z</time></trkpt><trkpt lat="43.33681631194879" lon="11.40686399154537"><ele>290.8</ele><time>2026-05-02T08:44:15.999Z</time></trkpt><trkpt lat="43.33673078666271" lon="11.406824827863922"><ele>291.2</ele><time>2026-05-02T08:44:16.999Z</time></trkpt><trkpt lat="43.336649149741646" lon="11.406785696477108"><ele>291.6</ele><time>2026-05-02T08:44:17.999Z</time></trkpt><trkpt lat="43.336548818799216" lon="11.406750997022474"><ele>292.0</ele><time>2026-05-02T08:44:18.999Z</time></trkpt><trkpt lat="43.336457367633976" lon="11.406711888152259"><ele>293.4</ele><time>2026-05-02T08:44:19.999Z</time></trkpt><trkpt lat="43.33637351922446" lon="11.406680458853684"><ele>294.79999999999995</ele><time>2026-05-02T08:44:20.999Z</time></trkpt><trkpt lat="43.336304736121576" lon="11.406663756083523"><ele>296.2</ele><time>2026-05-02T08:44:21.999Z</time></trkpt><trkpt lat="43.33619574177279" lon="11.406668619928388"><ele>297.59999999999997</ele><time>2026-05-02T08:44:23.999Z</time></trkpt><trkpt lat="43.3361046580072" lon="11.406705933425558"><ele>299.0</ele><time>2026-05-02T08:44:25.999Z</time></trkpt><trkpt lat="43.33596588604512" lon="11.406803247960736"><ele>299.0</ele><time>2026-05-02T08:44:28Z</time></trkpt><trkpt lat="43.33585274132897" lon="11.406924861018583"><ele>299.0</ele><time>2026-05-02T08:44:29Z</time></trkpt><trkpt lat="43.335744519139986" lon="11.407057771864501"><ele>299.0</ele><time>2026-05-02T08:44:30Z</time></trkpt><trkpt lat="43.335650460826955" lon="11.407182331920204"><ele>299.0</ele><time>2026-05-02T08:44:31Z</time></trkpt><trkpt lat="43.33555712392805" lon="11.407281252994565"><ele>298.6666666666667</ele><time>2026-05-02T08:44:32Z</time></trkpt><trkpt lat="43.33547222875025" lon="11.407352878611606"><ele>298.33333333333337</ele><time>2026-05-02T08:44:33Z</time></trkpt><trkpt lat="43.33538685813889" lon="11.407395405582495"><ele>298.0</ele><time>2026-05-02T08:44:34Z</time></trkpt><trkpt lat="43.33530179681749" lon="11.407413401233343"><ele>297.6666666666667</ele><time>2026-05-02T08:44:35Z</time></trkpt><trkpt lat="43.33522226680387" lon="11.40740989587844"><ele>297.3333333333333</ele><time>2026-05-02T08:44:36Z</time></trkpt><trkpt lat="43.33513156948143" lon="11.407415349814336"><ele>297.0</ele><time>2026-05-02T08:44:37Z</time></trkpt><trkpt lat="43.33502975567227" lon="11.40743362714084"><ele>297.0</ele><time>2026-05-02T08:44:38Z</time></trkpt><trkpt lat="43.33492852081279" lon="11.407464138717444"><ele>297.0</ele><time>2026-05-02T08:44:39Z</time></trkpt><trkpt lat="43.33481126931235" lon="11.407490222065762"><ele>297.0</ele><time>2026-05-02T08:44:40Z</time></trkpt><trkpt lat="43.33470318086643" lon="11.407495067615262"><ele>297.0</ele><time>2026-05-02T08:44:41Z</time></trkpt><trkpt lat="43.33460805377255" lon="11.40749301820862"><ele>297.0</ele><time>2026-05-02T08:44:42Z</time></trkpt><trkpt lat="43.334526027977894" lon="11.407493463596714"><ele>295.6</ele><time>2026-05-02T08:44:43Z</time></trkpt><trkpt lat="43.33441209411395" lon="11.407489654923"><ele>294.2</ele><time>2026-05-02T08:44:45Z</time></trkpt><trkpt lat="43.33432678455519" lon="11.407467588414312"><ele>292.8</ele><time>2026-05-02T08:44:47Z</time></trkpt><trkpt lat="43.334256380048075" lon="11.407345417171724"><ele>291.4</ele><time>2026-05-02T08:44:49Z</time></trkpt><trkpt lat="43.3342306849311" lon="11.40723863191723"><ele>290.0</ele><time>2026-05-02T08:44:50Z</time></trkpt><trkpt lat="43.3342051651854" lon="11.407095129578183"><ele>289.75</ele><time>2026-05-02T08:44:51Z</time></trkpt><trkpt lat="43.3341833026363" lon="11.406932265091648"><ele>289.5</ele><time>2026-05-02T08:44:52Z</time></trkpt><trkpt lat="43.334163974034894" lon="11.406740887214248"><ele>289.25</ele><time>2026-05-02T08:44:53.001Z</time></trkpt><trkpt lat="43.33414010284623" lon="11.40653174050403"><ele>289.0</ele><time>2026-05-02T08:44:54.001Z</time></trkpt><trkpt lat="43.33411790271519" lon="11.406342904693368"><ele>288.4</ele><time>2026-05-02T08:44:55.001Z</time></trkpt><trkpt lat="43.334096624798995" lon="11.406187053705887"><ele>287.79999999999995</ele><time>2026-05-02T08:44:56.001Z</time></trkpt><trkpt lat="43.334078963454" lon="11.406054963744468"><ele>287.20000000000005</ele><time>2026-05-02T08:44:57.001Z</time></trkpt><trkpt lat="43.33406907209119" lon="11.405924665852478"><ele>286.6</ele><time>2026-05-02T08:44:58.001Z</time></trkpt><trkpt lat="43.33407065795804" lon="11.405781266086217"><ele>286.0</ele><time>2026-05-02T08:44:59.001Z</time></trkpt><trkpt lat="43.33408273959985" lon="11.405605157662984"><ele>284.66666666666663</ele><time>2026-05-02T08:45:00.001Z</time></trkpt><trkpt lat="43.3340959867927" lon="11.405407310219008"><ele>283.3333333333333</ele><time>2026-05-02T08:45:01.001Z</time></trkpt><trkpt lat="43.334116009918034" lon="11.405194887658155"><ele>282.0</ele><time>2026-05-02T08:45:02.001Z</time></trkpt><trkpt lat="43.334134899612096" lon="11.404981661694181"><ele>282.0</ele><time>2026-05-02T08:45:03.001Z</time></trkpt><trkpt lat="43.334152239538156" lon="11.404797390480077"><ele>282.0</ele><time>2026-05-02T08:45:04.001Z</time></trkpt><trkpt lat="43.33416756318668" lon="11.404652425059597"><ele>282.0</ele><time>2026-05-02T08:45:05.001Z</time></trkpt><trkpt lat="43.33417665115837" lon="11.404540215177184"><ele>282.0</ele><time>2026-05-02T08:45:06.001Z</time></trkpt><trkpt lat="43.33419276741284" lon="11.404395835324525"><ele>282.0</ele><time>2026-05-02T08:45:08.001Z</time></trkpt><trkpt lat="43.33420421059506" lon="11.404261796769111"><ele>282.0</ele><time>2026-05-02T08:45:10.001Z</time></trkpt><trkpt lat="43.33419165896557" lon="11.40411728740096"><ele>282.0</ele><time>2026-05-02T08:45:12.001Z</time></trkpt><trkpt lat="43.33412075008888" lon="11.404027126314048"><ele>282.0</ele><time>2026-05-02T08:45:14.001Z</time></trkpt><trkpt lat="43.33401101713368" lon="11.4040446136112"><ele>282.0</ele><time>2026-05-02T08:45:16.001Z</time></trkpt><trkpt lat="43.33393017662958" lon="11.40409039807945"><ele>282.0</ele><time>2026-05-02T08:45:17.001Z</time></trkpt><trkpt lat="43.33384153711865" lon="11.404146947169323"><ele>281.6</ele><time>2026-05-02T08:45:18.001Z</time></trkpt><trkpt lat="43.33375043316629" lon="11.404194874632504"><ele>281.2</ele><time>2026-05-02T08:45:19.001Z</time></trkpt><trkpt lat="43.333663682005664" lon="11.404238094082055"><ele>280.8</ele><time>2026-05-02T08:45:20.001Z</time></trkpt><trkpt lat="43.3335763893796" lon="11.404279986523097"><ele>280.4</ele><time>2026-05-02T08:45:21.001Z</time></trkpt><trkpt lat="43.33348624848105" lon="11.404324398241581"><ele>280.0</ele><time>2026-05-02T08:45:22.001Z</time></trkpt><trkpt lat="43.33336022236146" lon="11.40439116454384"><ele>280.0</ele><time>2026-05-02T08:45:23.001Z</time></trkpt><trkpt lat="43.33321850089473" lon="11.404462636543624"><ele>280.0</ele><time>2026-05-02T08:45:24.001Z</time></trkpt><trkpt lat="43.333042776580356" lon="11.40455282247637"><ele>280.0</ele><time>2026-05-02T08:45:25.002Z</time></trkpt><trkpt lat="43.332845068408595" lon="11.404652431009472"><ele>279.0</ele><time>2026-05-02T08:45:26.002Z</time></trkpt><trkpt lat="43.33265459123142" lon="11.404756574120203"><ele>278.0</ele><time>2026-05-02T08:45:27.002Z</time></trkpt><trkpt lat="43.332485197334655" lon="11.404855953247806"><ele>277.0</ele><time>2026-05-02T08:45:28.002Z</time></trkpt><trkpt lat="43.33232882344543" lon="11.40494191929457"><ele>277.25</ele><time>2026-05-02T08:45:29.002Z</time></trkpt><trkpt lat="43.33218100796174" lon="11.405013904260201"><ele>277.5</ele><time>2026-05-02T08:45:30.002Z</time></trkpt><trkpt lat="43.33204395220133" lon="11.405083992616863"><ele>277.75</ele><time>2026-05-02T08:45:31.002Z</time></trkpt><trkpt lat="43.33191896681606" lon="11.405154639630362"><ele>278.0</ele><time>2026-05-02T08:45:32.002Z</time></trkpt><trkpt lat="43.3318023278904" lon="11.405206373870113"><ele>278.0</ele><time>2026-05-02T08:45:33.002Z</time></trkpt><trkpt lat="43.3316866721937" lon="11.405241901592406"><ele>278.0</ele><time>2026-05-02T08:45:34.002Z</time></trkpt><trkpt lat="43.33157076436368" lon="11.4052664256659"><ele>278.0</ele><time>2026-05-02T08:45:35.002Z</time></trkpt><trkpt lat="43.33144393912154" lon="11.405292884996982"><ele>278.0</ele><time>2026-05-02T08:45:36.002Z</time></trkpt><trkpt lat="43.33131265140723" lon="11.405297661065466"><ele>276.0</ele><time>2026-05-02T08:45:37.002Z</time></trkpt><trkpt lat="43.33114983703057" lon="11.405361893795321"><ele>274.0</ele><time>2026-05-02T08:45:38.002Z</time></trkpt><trkpt lat="43.33098993319085" lon="11.405406214382305"><ele>272.0</ele><time>2026-05-02T08:45:39.002Z</time></trkpt><trkpt lat="43.33083671832684" lon="11.405444137597378"><ele>272.0</ele><time>2026-05-02T08:45:40.002Z</time></trkpt><trkpt lat="43.33070029756442" lon="11.40548254802651"><ele>272.0</ele><time>2026-05-02T08:45:41.002Z</time></trkpt><trkpt lat="43.330573092876236" lon="11.405527320452133"><ele>272.0</ele><time>2026-05-02T08:45:42.002Z</time></trkpt><trkpt lat="43.330459054913355" lon="11.405564800840022"><ele>272.0</ele><time>2026-05-02T08:45:43.002Z</time></trkpt><trkpt lat="43.330348845569404" lon="11.40561072484788"><ele>270.4</ele><time>2026-05-02T08:45:44.002Z</time></trkpt><trkpt lat="43.33024510548849" lon="11.405659293277132"><ele>268.79999999999995</ele><time>2026-05-02T08:45:45.002Z</time></trkpt><trkpt lat="43.330142798840676" lon="11.4057084509002"><ele>267.2</ele><time>2026-05-02T08:45:46.002Z</time></trkpt><trkpt lat="43.33004291929355" lon="11.405762691822876"><ele>265.59999999999997</ele><time>2026-05-02T08:45:47.002Z</time></trkpt><trkpt lat="43.32994901665484" lon="11.405815683841768"><ele>264.0</ele><time>2026-05-02T08:45:48.002Z</time></trkpt><trkpt lat="43.32985305045307" lon="11.4058819590703"><ele>264.0</ele><time>2026-05-02T08:45:49.002Z</time></trkpt><trkpt lat="43.329756826960306" lon="11.405958104757445"><ele>264.0</ele><time>2026-05-02T08:45:50.002Z</time></trkpt><trkpt lat="43.32965890291397" lon="11.406037017930636"><ele>264.0</ele><time>2026-05-02T08:45:51.002Z</time></trkpt><trkpt lat="43.329566975457986" lon="11.406122497530983"><ele>264.0</ele><time>2026-05-02T08:45:52.002Z</time></trkpt><trkpt lat="43.32948488785133" lon="11.40620791173834"><ele>264.0</ele><time>2026-05-02T08:45:53.002Z</time></trkpt><trkpt lat="43.32940387883071" lon="11.40630337683451"><ele>262.5</ele><time>2026-05-02T08:45:54.002Z</time></trkpt><trkpt lat="43.3293163744847" lon="11.406409694876418"><ele>261.0</ele><time>2026-05-02T08:45:55.002Z</time></trkpt><trkpt lat="43.32922092976995" lon="11.406527977049802"><ele>259.5</ele><time>2026-05-02T08:45:56.002Z</time></trkpt><trkpt lat="43.32912312563321" lon="11.4066559752033"><ele>258.0</ele><time>2026-05-02T08:45:57.002Z</time></trkpt><trkpt lat="43.32901691857732" lon="11.406798739571567"><ele>258.0</ele><time>2026-05-02T08:45:58.003Z</time></trkpt><trkpt lat="43.32889506556299" lon="11.406937346674296"><ele>258.0</ele><time>2026-05-02T08:45:59.003Z</time></trkpt><trkpt lat="43.32877923524474" lon="11.407070202391205"><ele>258.0</ele><time>2026-05-02T08:46:00.003Z</time></trkpt><trkpt lat="43.32868549633435" lon="11.407182855542333"><ele>258.0</ele><time>2026-05-02T08:46:01.003Z</time></trkpt><trkpt lat="43.328596040222465" lon="11.40728733038668"><ele>256.75</ele><time>2026-05-02T08:46:02.003Z</time></trkpt><trkpt lat="43.32849803096549" lon="11.40740183854218"><ele>255.5</ele><time>2026-05-02T08:46:03.003Z</time></trkpt><trkpt lat="43.328394796811736" lon="11.407531944331927"><ele>254.25</ele><time>2026-05-02T08:46:03.998Z</time></trkpt><trkpt lat="43.328288648788146" lon="11.407659027359546"><ele>253.0</ele><time>2026-05-02T08:46:04.998Z</time></trkpt><trkpt lat="43.3281820876742" lon="11.407784244147178"><ele>253.0</ele><time>2026-05-02T08:46:05.999Z</time></trkpt><trkpt lat="43.328075723811885" lon="11.407907692798881"><ele>253.0</ele><time>2026-05-02T08:46:06.999Z</time></trkpt><trkpt lat="43.327972684946715" lon="11.408036027260739"><ele>253.0</ele><time>2026-05-02T08:46:07.999Z</time></trkpt><trkpt lat="43.32787159266036" lon="11.40815983378259"><ele>253.0</ele><time>2026-05-02T08:46:08.999Z</time></trkpt><trkpt lat="43.32777571344064" lon="11.408271904187608"><ele>253.0</ele><time>2026-05-02T08:46:09.999Z</time></trkpt><trkpt lat="43.32768953297157" lon="11.408375341361685"><ele>253.0</ele><time>2026-05-02T08:46:10.999Z</time></trkpt><trkpt lat="43.327602548175896" lon="11.408468606681458"><ele>253.0</ele><time>2026-05-02T08:46:11.999Z</time></trkpt><trkpt lat="43.32751231429664" lon="11.40856556882422"><ele>253.0</ele><time>2026-05-02T08:46:12.999Z</time></trkpt><trkpt lat="43.32742147105471" lon="11.408671526584994"><ele>253.0</ele><time>2026-05-02T08:46:13.999Z</time></trkpt><trkpt lat="43.32732469637987" lon="11.408784210711293"><ele>253.0</ele><time>2026-05-02T08:46:14.999Z</time></trkpt><trkpt lat="43.32724288923991" lon="11.408875305717613"><ele>253.0</ele><time>2026-05-02T08:46:15.999Z</time></trkpt><trkpt lat="43.32717175048936" lon="11.408958241144786"><ele>253.0</ele><time>2026-05-02T08:46:16.999Z</time></trkpt><trkpt lat="43.327110030544915" lon="11.409041439513423"><ele>253.0</ele><time>2026-05-02T08:46:17.999Z</time></trkpt><trkpt lat="43.32705310118226" lon="11.409119256803717"><ele>251.60000000000002</ele><time>2026-05-02T08:46:18.999Z</time></trkpt><trkpt lat="43.32699290535967" lon="11.409202011693141"><ele>250.20000000000002</ele><time>2026-05-02T08:46:19.999Z</time></trkpt><trkpt lat="43.32693387712332" lon="11.409304184673088"><ele>248.8</ele><time>2026-05-02T08:46:21Z</time></trkpt><trkpt lat="43.32687158079714" lon="11.409416011296068"><ele>247.4</ele><time>2026-05-02T08:46:22Z</time></trkpt><trkpt lat="43.326805533440016" lon="11.409529311432264"><ele>246.0</ele><time>2026-05-02T08:46:23Z</time></trkpt><trkpt lat="43.32673278556922" lon="11.409633453057134"><ele>245.25</ele><time>2026-05-02T08:46:24Z</time></trkpt><trkpt lat="43.326647200329475" lon="11.409738482990443"><ele>244.5</ele><time>2026-05-02T08:46:25Z</time></trkpt><trkpt lat="43.326548767104974" lon="11.40984529637806"><ele>243.75</ele><time>2026-05-02T08:46:26Z</time></trkpt><trkpt lat="43.32644338908584" lon="11.409942745143619"><ele>243.0</ele><time>2026-05-02T08:46:27Z</time></trkpt><trkpt lat="43.326351699219344" lon="11.410031215392804"><ele>243.0</ele><time>2026-05-02T08:46:28Z</time></trkpt><trkpt lat="43.32629066293811" lon="11.410114976549062"><ele>243.0</ele><time>2026-05-02T08:46:29Z</time></trkpt><trkpt lat="43.326238005030234" lon="11.410180453031842"><ele>243.0</ele><time>2026-05-02T08:46:30Z</time></trkpt><trkpt lat="43.32618763117948" lon="11.410237967006394"><ele>243.0</ele><time>2026-05-02T08:46:31Z</time></trkpt><trkpt lat="43.32608568943962" lon="11.41032708121264"><ele>243.0</ele><time>2026-05-02T08:46:33Z</time></trkpt><trkpt lat="43.32596799849239" lon="11.410316724543584"><ele>243.0</ele><time>2026-05-02T08:46:35Z</time></trkpt><trkpt lat="43.32590120967708" lon="11.410229479113275"><ele>243.0</ele><time>2026-05-02T08:46:36Z</time></trkpt><trkpt lat="43.32583985785643" lon="11.410080736412628"><ele>243.0</ele><time>2026-05-02T08:46:37Z</time></trkpt><trkpt lat="43.32580020873068" lon="11.409908658657924"><ele>243.0</ele><time>2026-05-02T08:46:38Z</time></trkpt><trkpt lat="43.32578860352021" lon="11.40966107354953"><ele>240.33333333333331</ele><time>2026-05-02T08:46:39Z</time></trkpt><trkpt lat="43.32580314473828" lon="11.409380761096145"><ele>237.66666666666666</ele><time>2026-05-02T08:46:40.001Z</time></trkpt><trkpt lat="43.32582324794942" lon="11.4090978069583"><ele>235.0</ele><time>2026-05-02T08:46:41.001Z</time></trkpt><trkpt lat="43.325815246717646" lon="11.408797643781522"><ele>233.0</ele><time>2026-05-02T08:46:42.001Z</time></trkpt><trkpt lat="43.32577925277012" lon="11.408476539664669"><ele>231.0</ele><time>2026-05-02T08:46:43.001Z</time></trkpt><trkpt lat="43.32573707344136" lon="11.408127188882215"><ele>229.0</ele><time>2026-05-02T08:46:44.001Z</time></trkpt><trkpt lat="43.32569043637975" lon="11.407737880061443"><ele>227.0</ele><time>2026-05-02T08:46:45.001Z</time></trkpt><trkpt lat="43.32564905763764" lon="11.407378909948342"><ele>225.66666666666669</ele><time>2026-05-02T08:46:46.001Z</time></trkpt><trkpt lat="43.32561441793756" lon="11.407074896640902"><ele>224.33333333333331</ele><time>2026-05-02T08:46:47.001Z</time></trkpt><trkpt lat="43.32556342398101" lon="11.406780649837078"><ele>223.0</ele><time>2026-05-02T08:46:48.001Z</time></trkpt><trkpt lat="43.32546173166004" lon="11.406507117462471"><ele>220.0</ele><time>2026-05-02T08:46:49.001Z</time></trkpt><trkpt lat="43.32532958927523" lon="11.406237686687586"><ele>217.0</ele><time>2026-05-02T08:46:50.001Z</time></trkpt><trkpt lat="43.32519642432389" lon="11.405985619804909"><ele>217.0</ele><time>2026-05-02T08:46:51.001Z</time></trkpt><trkpt lat="43.325101144143325" lon="11.405732363378238"><ele>217.0</ele><time>2026-05-02T08:46:52.001Z</time></trkpt><trkpt lat="43.32503833841103" lon="11.405473598085596"><ele>217.0</ele><time>2026-05-02T08:46:53.001Z</time></trkpt><trkpt lat="43.32498093387238" lon="11.405187455743354"><ele>216.33333333333331</ele><time>2026-05-02T08:46:54.001Z</time></trkpt><trkpt lat="43.32493904006197" lon="11.404885385952662"><ele>215.66666666666669</ele><time>2026-05-02T08:46:55.001Z</time></trkpt><trkpt lat="43.3249212729832" lon="11.404590540262102"><ele>215.0</ele><time>2026-05-02T08:46:56.001Z</time></trkpt><trkpt lat="43.32492124784944" lon="11.404325613504831"><ele>214.66666666666669</ele><time>2026-05-02T08:46:57.001Z</time></trkpt><trkpt lat="43.32492553323837" lon="11.404099082987063"><ele>214.33333333333331</ele><time>2026-05-02T08:46:58.001Z</time></trkpt><trkpt lat="43.32493043923696" lon="11.403887714074624"><ele>214.0</ele><time>2026-05-02T08:46:59.001Z</time></trkpt><trkpt lat="43.32493969485321" lon="11.403660848933471"><ele>213.33333333333331</ele><time>2026-05-02T08:47:00.001Z</time></trkpt><trkpt lat="43.3249558596438" lon="11.403396811723713"><ele>212.66666666666669</ele><time>2026-05-02T08:47:01.001Z</time></trkpt><trkpt lat="43.324980239476254" lon="11.403101741676519"><ele>212.0</ele><time>2026-05-02T08:47:02.001Z</time></trkpt><trkpt lat="43.32500853811219" lon="11.40279117280095"><ele>214.0</ele><time>2026-05-02T08:47:03.001Z</time></trkpt><trkpt lat="43.325032103167516" lon="11.402465733841378"><ele>216.0</ele><time>2026-05-02T08:47:04.001Z</time></trkpt><trkpt lat="43.325060768361034" lon="11.402142731859033"><ele>219.33333333333331</ele><time>2026-05-02T08:47:05.001Z</time></trkpt><trkpt lat="43.32508429588811" lon="11.401877504873639"><ele>222.66666666666666</ele><time>2026-05-02T08:47:06.001Z</time></trkpt><trkpt lat="43.325091128628934" lon="11.401635533678437"><ele>226.0</ele><time>2026-05-02T08:47:07.001Z</time></trkpt><trkpt lat="43.32509159411592" lon="11.401419986873343"><ele>227.0</ele><time>2026-05-02T08:47:08.001Z</time></trkpt><trkpt lat="43.32508454151606" lon="11.40124390580165"><ele>228.00000000000003</ele><time>2026-05-02T08:47:09.002Z</time></trkpt><trkpt lat="43.325076877943566" lon="11.401084586323975"><ele>229.00000000000003</ele><time>2026-05-02T08:47:10.002Z</time></trkpt><trkpt lat="43.32507300695407" lon="11.400941746599809"><ele>230.0</ele><time>2026-05-02T08:47:11.002Z</time></trkpt><trkpt lat="43.32507506076922" lon="11.400816573379542"><ele>231.0</ele><time>2026-05-02T08:47:12.002Z</time></trkpt><trkpt lat="43.32508408912491" lon="11.400690677911749"><ele>231.0</ele><time>2026-05-02T08:47:13.002Z</time></trkpt><trkpt lat="43.32509986538402" lon="11.400552097392826"><ele>231.0</ele><time>2026-05-02T08:47:14.002Z</time></trkpt><trkpt lat="43.32511740788941" lon="11.400395486593673"><ele>231.0</ele><time>2026-05-02T08:47:15.002Z</time></trkpt><trkpt lat="43.325152154118435" lon="11.400207323630651"><ele>231.0</ele><time>2026-05-02T08:47:16.002Z</time></trkpt><trkpt lat="43.325178812599304" lon="11.399994117981676"><ele>232.66666666666669</ele><time>2026-05-02T08:47:17.002Z</time></trkpt><trkpt lat="43.325170815522945" lon="11.399749977411691"><ele>234.33333333333334</ele><time>2026-05-02T08:47:18.002Z</time></trkpt><trkpt lat="43.325147557270746" lon="11.399486509388796"><ele>236.0</ele><time>2026-05-02T08:47:19.002Z</time></trkpt><trkpt lat="43.3251282935964" lon="11.399231075391597"><ele>237.66666666666669</ele><time>2026-05-02T08:47:20.002Z</time></trkpt><trkpt lat="43.32511052667325" lon="11.398968644727203"><ele>239.33333333333331</ele><time>2026-05-02T08:47:21.002Z</time></trkpt><trkpt lat="43.32509389283904" lon="11.398699936694994"><ele>241.0</ele><time>2026-05-02T08:47:22.002Z</time></trkpt><trkpt lat="43.3250802178623" lon="11.398458639729707"><ele>242.5</ele><time>2026-05-02T08:47:23.002Z</time></trkpt><trkpt lat="43.3250703869914" lon="11.39825014258325"><ele>244.0</ele><time>2026-05-02T08:47:24.002Z</time></trkpt><trkpt lat="43.32507454200101" lon="11.398057663406975"><ele>245.5</ele><time>2026-05-02T08:47:25.002Z</time></trkpt><trkpt lat="43.32508848348744" lon="11.39786786918311"><ele>247.0</ele><time>2026-05-02T08:47:26.002Z</time></trkpt><trkpt lat="43.325119652688485" lon="11.397683423071916"><ele>247.0</ele><time>2026-05-02T08:47:27.002Z</time></trkpt><trkpt lat="43.3251828159656" lon="11.397491720186276"><ele>247.0</ele><time>2026-05-02T08:47:28.002Z</time></trkpt><trkpt lat="43.325268719751136" lon="11.397287356793907"><ele>247.0</ele><time>2026-05-02T08:47:29.002Z</time></trkpt><trkpt lat="43.32534186032906" lon="11.397091773611143"><ele>247.0</ele><time>2026-05-02T08:47:30.002Z</time></trkpt><trkpt lat="43.325396505937725" lon="11.39691130258327"><ele>247.0</ele><time>2026-05-02T08:47:31.002Z</time></trkpt><trkpt lat="43.325450661306796" lon="11.396719090997196"><ele>247.0</ele><time>2026-05-02T08:47:32.002Z</time></trkpt><trkpt lat="43.32551083194602" lon="11.396513881349478"><ele>248.0</ele><time>2026-05-02T08:47:33.002Z</time></trkpt><trkpt lat="43.325575596719275" lon="11.396298513633571"><ele>249.0</ele><time>2026-05-02T08:47:34.002Z</time></trkpt><trkpt lat="43.32563829737235" lon="11.396090369468556"><ele>250.0</ele><time>2026-05-02T08:47:35.002Z</time></trkpt><trkpt lat="43.325693161531134" lon="11.3958885593985"><ele>250.0</ele><time>2026-05-02T08:47:36.002Z</time></trkpt><trkpt lat="43.32570388650974" lon="11.395659463213136"><ele>250.0</ele><time>2026-05-02T08:47:37.002Z</time></trkpt><trkpt lat="43.32570141895752" lon="11.395393904722813"><ele>250.0</ele><time>2026-05-02T08:47:38.002Z</time></trkpt><trkpt lat="43.32570397045623" lon="11.395148488027894"><ele>250.66666666666666</ele><time>2026-05-02T08:47:39.002Z</time></trkpt><trkpt lat="43.32570061192228" lon="11.394927788892794"><ele>251.33333333333331</ele><time>2026-05-02T08:47:40.002Z</time></trkpt><trkpt lat="43.32569140786074" lon="11.394697569544993"><ele>252.0</ele><time>2026-05-02T08:47:41.003Z</time></trkpt><trkpt lat="43.32565993011889" lon="11.394450580507268"><ele>253.0</ele><time>2026-05-02T08:47:42.003Z</time></trkpt><trkpt lat="43.325590564665305" lon="11.394178520100525"><ele>254.0</ele><time>2026-05-02T08:47:43.003Z</time></trkpt><trkpt lat="43.325506645631094" lon="11.393887746704047"><ele>255.0</ele><time>2026-05-02T08:47:44.003Z</time></trkpt><trkpt lat="43.32541786182653" lon="11.393588277898246"><ele>256.6666666666667</ele><time>2026-05-02T08:47:45.003Z</time></trkpt><trkpt lat="43.32533226614228" lon="11.39330730927356"><ele>258.33333333333337</ele><time>2026-05-02T08:47:46.003Z</time></trkpt><trkpt lat="43.325253247190425" lon="11.393063036880784"><ele>260.0</ele><time>2026-05-02T08:47:47.003Z</time></trkpt><trkpt lat="43.3251864350509" lon="11.3928699588455"><ele>260.8</ele><time>2026-05-02T08:47:48.003Z</time></trkpt><trkpt lat="43.32512687492072" lon="11.392718055065778"><ele>261.6</ele><time>2026-05-02T08:47:49.003Z</time></trkpt><trkpt lat="43.325072107247124" lon="11.39259421645758"><ele>262.4</ele><time>2026-05-02T08:47:50.003Z</time></trkpt><trkpt lat="43.32500160656976" lon="11.392521399491036"><ele>263.2</ele><time>2026-05-02T08:47:51.003Z</time></trkpt><trkpt lat="43.324910598281974" lon="11.392493207196578"><ele>264.0</ele><time>2026-05-02T08:47:52.003Z</time></trkpt><trkpt lat="43.324805267638716" lon="11.392510139241548"><ele>264.25</ele><time>2026-05-02T08:47:53.003Z</time></trkpt><trkpt lat="43.32468809327995" lon="11.392541382537384"><ele>264.5</ele><time>2026-05-02T08:47:54.003Z</time></trkpt><trkpt lat="43.324566832794034" lon="11.392563325196676"><ele>264.75</ele><time>2026-05-02T08:47:55.003Z</time></trkpt><trkpt lat="43.32445243039831" lon="11.392546975971788"><ele>265.0</ele><time>2026-05-02T08:47:56.003Z</time></trkpt><trkpt lat="43.32435279111043" lon="11.39251472515921"><ele>265.0</ele><time>2026-05-02T08:47:57.003Z</time></trkpt><trkpt lat="43.3242763288506" lon="11.39248074377932"><ele>265.0</ele><time>2026-05-02T08:47:58.003Z</time></trkpt><trkpt lat="43.3242116258739" lon="11.392448802713002"><ele>265.0</ele><time>2026-05-02T08:47:59.003Z</time></trkpt><trkpt lat="43.32414517438546" lon="11.392422268862225"><ele>265.0</ele><time>2026-05-02T08:48:00.003Z</time></trkpt><trkpt lat="43.32407850325992" lon="11.392395849417978"><ele>265.0</ele><time>2026-05-02T08:48:01.003Z</time></trkpt><trkpt lat="43.32400116823058" lon="11.392381825221715"><ele>265.0</ele><time>2026-05-02T08:48:02.003Z</time></trkpt><trkpt lat="43.32391712726439" lon="11.392360408662615"><ele>264.8333333333333</ele><time>2026-05-02T08:48:03.003Z</time></trkpt><trkpt lat="43.323838053829526" lon="11.392334148867203"><ele>264.66666666666663</ele><time>2026-05-02T08:48:04.003Z</time></trkpt><trkpt lat="43.323749173661085" lon="11.392309581224303"><ele>264.5</ele><time>2026-05-02T08:48:05.003Z</time></trkpt><trkpt lat="43.32365748842256" lon="11.392284491536486"><ele>264.3333333333333</ele><time>2026-05-02T08:48:06.003Z</time></trkpt><trkpt lat="43.32356822426158" lon="11.392267375242957"><ele>264.1666666666667</ele><time>2026-05-02T08:48:07.003Z</time></trkpt><trkpt lat="43.32348888343887" lon="11.392252282211654"><ele>264.0</ele><time>2026-05-02T08:48:08.003Z</time></trkpt><trkpt lat="43.32341217460308" lon="11.392234231767253"><ele>264.0</ele><time>2026-05-02T08:48:08.999Z</time></trkpt><trkpt lat="43.3233289527961" lon="11.392217917733616"><ele>264.0</ele><time>2026-05-02T08:48:09.999Z</time></trkpt><trkpt lat="43.32324403565225" lon="11.392204039461499"><ele>264.0</ele><time>2026-05-02T08:48:10.999Z</time></trkpt><trkpt lat="43.32316086319084" lon="11.392185185819852"><ele>264.0</ele><time>2026-05-02T08:48:11.999Z</time></trkpt><trkpt lat="43.32307697273816" lon="11.392159452656582"><ele>264.0</ele><time>2026-05-02T08:48:12.999Z</time></trkpt><trkpt lat="43.322990983474384" lon="11.392133292021022"><ele>264.0</ele><time>2026-05-02T08:48:13.999Z</time></trkpt><trkpt lat="43.322904754130825" lon="11.392105531612204"><ele>262.8333333333333</ele><time>2026-05-02T08:48:14.999Z</time></trkpt><trkpt lat="43.32283118042801" lon="11.392080237294635"><ele>261.6666666666667</ele><time>2026-05-02T08:48:15.999Z</time></trkpt><trkpt lat="43.32276055103874" lon="11.39205951068943"><ele>260.5</ele><time>2026-05-02T08:48:17Z</time></trkpt><trkpt lat="43.32268203888873" lon="11.392036901056962"><ele>259.33333333333337</ele><time>2026-05-02T08:48:18Z</time></trkpt><trkpt lat="43.32259244002288" lon="11.392010718343103"><ele>258.1666666666667</ele><time>2026-05-02T08:48:19Z</time></trkpt><trkpt lat="43.322483861655286" lon="11.391977111704994"><ele>257.0</ele><time>2026-05-02T08:48:20Z</time></trkpt><trkpt lat="43.32236200190513" lon="11.39193259653023"><ele>255.66666666666669</ele><time>2026-05-02T08:48:21Z</time></trkpt><trkpt lat="43.322218460300704" lon="11.391889538018436"><ele>254.33333333333331</ele><time>2026-05-02T08:48:22Z</time></trkpt><trkpt lat="43.322057502951765" lon="11.391840266337471"><ele>253.0</ele><time>2026-05-02T08:48:23Z</time></trkpt><trkpt lat="43.321886414119355" lon="11.391789302718502"><ele>253.0</ele><time>2026-05-02T08:48:24Z</time></trkpt><trkpt lat="43.32169958991278" lon="11.391724837117295"><ele>253.0</ele><time>2026-05-02T08:48:25Z</time></trkpt><trkpt lat="43.32149011450034" lon="11.391632263808038"><ele>253.0</ele><time>2026-05-02T08:48:26Z</time></trkpt><trkpt lat="43.32128937808248" lon="11.391510003817933"><ele>251.66666666666666</ele><time>2026-05-02T08:48:27Z</time></trkpt><trkpt lat="43.32111089230613" lon="11.391388113065053"><ele>250.33333333333331</ele><time>2026-05-02T08:48:28Z</time></trkpt><trkpt lat="43.32094741728869" lon="11.391269970411036"><ele>249.0</ele><time>2026-05-02T08:48:29Z</time></trkpt><trkpt lat="43.32078605727881" lon="11.39115761858364"><ele>249.0</ele><time>2026-05-02T08:48:30Z</time></trkpt><trkpt lat="43.320633905826014" lon="11.391063295387475"><ele>249.0</ele><time>2026-05-02T08:48:31Z</time></trkpt><trkpt lat="43.32049138037229" lon="11.390992397616019"><ele>249.0</ele><time>2026-05-02T08:48:32Z</time></trkpt><trkpt lat="43.32035991176133" lon="11.390962048061159"><ele>249.0</ele><time>2026-05-02T08:48:33Z</time></trkpt><trkpt lat="43.32025437359253" lon="11.390937861215559"><ele>248.99999999999997</ele><time>2026-05-02T08:48:34Z</time></trkpt><trkpt lat="43.320172276565884" lon="11.390894059741758"><ele>248.99999999999997</ele><time>2026-05-02T08:48:35Z</time></trkpt><trkpt lat="43.32010669884973" lon="11.390806980109696"><ele>249.0</ele><time>2026-05-02T08:48:36Z</time></trkpt><trkpt lat="43.32006405971603" lon="11.39067171788577"><ele>249.0</ele><time>2026-05-02T08:48:37Z</time></trkpt><trkpt lat="43.320031593008245" lon="11.390465356146828"><ele>248.33333333333331</ele><time>2026-05-02T08:48:38Z</time></trkpt><trkpt lat="43.320009414715734" lon="11.390218916615474"><ele>247.66666666666666</ele><time>2026-05-02T08:48:39Z</time></trkpt><trkpt lat="43.31996457061936" lon="11.389948391880043"><ele>247.0</ele><time>2026-05-02T08:48:40Z</time></trkpt><trkpt lat="43.319899320485064" lon="11.389680597811925"><ele>245.66666666666666</ele><time>2026-05-02T08:48:41Z</time></trkpt><trkpt lat="43.31981902938121" lon="11.389396692494653"><ele>244.33333333333331</ele><time>2026-05-02T08:48:42Z</time></trkpt><trkpt lat="43.3197562894851" lon="11.389116360723415"><ele>243.0</ele><time>2026-05-02T08:48:43.001Z</time></trkpt><trkpt lat="43.319706061722634" lon="11.388844571377822"><ele>238.33333333333331</ele><time>2026-05-02T08:48:44.001Z</time></trkpt><trkpt lat="43.319662153155726" lon="11.388595578495092"><ele>233.66666666666666</ele><time>2026-05-02T08:48:45.001Z</time></trkpt><trkpt lat="43.31962092866463" lon="11.388371681706154"><ele>229.0</ele><time>2026-05-02T08:48:46.001Z</time></trkpt><trkpt lat="43.31957977510532" lon="11.388158993261955"><ele>229.0</ele><time>2026-05-02T08:48:47.001Z</time></trkpt><trkpt lat="43.319526666603046" lon="11.38796979527928"><ele>229.0</ele><time>2026-05-02T08:48:48.001Z</time></trkpt><trkpt lat="43.319483568560265" lon="11.387793167427992"><ele>229.0</ele><time>2026-05-02T08:48:49.001Z</time></trkpt><trkpt lat="43.31944869302081" lon="11.387646279711845"><ele>229.0</ele><time>2026-05-02T08:48:50.001Z</time></trkpt><trkpt lat="43.31938877884776" lon="11.38752434603197"><ele>229.0</ele><time>2026-05-02T08:48:51.001Z</time></trkpt><trkpt lat="43.31930392014075" lon="11.387438204488257"><ele>228.99999999999997</ele><time>2026-05-02T08:48:52.001Z</time></trkpt><trkpt lat="43.31920015301536" lon="11.38737757993156"><ele>228.99999999999997</ele><time>2026-05-02T08:48:53.001Z</time></trkpt><trkpt lat="43.31910030448312" lon="11.38731997522924"><ele>229.0</ele><time>2026-05-02T08:48:54.001Z</time></trkpt><trkpt lat="43.31903945704245" lon="11.387221917139986"><ele>229.0</ele><time>2026-05-02T08:48:55.001Z</time></trkpt><trkpt lat="43.319020851928265" lon="11.38709134384032"><ele>228.5</ele><time>2026-05-02T08:48:56.001Z</time></trkpt><trkpt lat="43.31904277199823" lon="11.386922469157161"><ele>228.0</ele><time>2026-05-02T08:48:57.001Z</time></trkpt><trkpt lat="43.31908997431709" lon="11.386745874745053"><ele>227.5</ele><time>2026-05-02T08:48:58.001Z</time></trkpt><trkpt lat="43.31915597857782" lon="11.386619585812486"><ele>227.0</ele><time>2026-05-02T08:48:59.001Z</time></trkpt><trkpt lat="43.31924887254775" lon="11.386508950031299"><ele>227.0</ele><time>2026-05-02T08:49:00.001Z</time></trkpt><trkpt lat="43.31938590237067" lon="11.386414835294808"><ele>227.0</ele><time>2026-05-02T08:49:01.001Z</time></trkpt><trkpt lat="43.31954494220134" lon="11.386315898296877"><ele>227.0</ele><time>2026-05-02T08:49:02.001Z</time></trkpt><trkpt lat="43.319685717104875" lon="11.386232899262772"><ele>225.75</ele><time>2026-05-02T08:49:03.001Z</time></trkpt><trkpt lat="43.31981905369502" lon="11.386157841795354"><ele>224.5</ele><time>2026-05-02T08:49:04.001Z</time></trkpt><trkpt lat="43.31993427021956" lon="11.386091460863126"><ele>223.25</ele><time>2026-05-02T08:49:05.001Z</time></trkpt><trkpt lat="43.320018051342956" lon="11.38600571040134"><ele>222.0</ele><time>2026-05-02T08:49:06.001Z</time></trkpt><trkpt lat="43.32007780233781" lon="11.385887840316556"><ele>222.0</ele><time>2026-05-02T08:49:07.001Z</time></trkpt><trkpt lat="43.32011759725156" lon="11.385746773189554"><ele>222.0</ele><time>2026-05-02T08:49:08.001Z</time></trkpt><trkpt lat="43.32013074145917" lon="11.385574907842269"><ele>222.0</ele><time>2026-05-02T08:49:09.001Z</time></trkpt><trkpt lat="43.32012096143982" lon="11.38538934990892"><ele>222.0</ele><time>2026-05-02T08:49:10.001Z</time></trkpt><trkpt lat="43.32011108443923" lon="11.385217754135716"><ele>220.75</ele><time>2026-05-02T08:49:11.001Z</time></trkpt><trkpt lat="43.32012159823763" lon="11.385063721643133"><ele>219.5</ele><time>2026-05-02T08:49:12.001Z</time></trkpt><trkpt lat="43.32017493290364" lon="11.38490803971838"><ele>218.25</ele><time>2026-05-02T08:49:13.002Z</time></trkpt><trkpt lat="43.3202618486159" lon="11.384746371437924"><ele>217.0</ele><time>2026-05-02T08:49:14.002Z</time></trkpt><trkpt lat="43.32038002064119" lon="11.384581287293397"><ele>216.0</ele><time>2026-05-02T08:49:15.002Z</time></trkpt><trkpt lat="43.32050212340437" lon="11.384452499730696"><ele>215.0</ele><time>2026-05-02T08:49:16.002Z</time></trkpt><trkpt lat="43.32060758834924" lon="11.384339983141256"><ele>214.0</ele><time>2026-05-02T08:49:17.002Z</time></trkpt><trkpt lat="43.32069808173736" lon="11.384227728822877"><ele>213.0</ele><time>2026-05-02T08:49:18.002Z</time></trkpt><trkpt lat="43.320768098199885" lon="11.384089019230936"><ele>212.25</ele><time>2026-05-02T08:49:19.002Z</time></trkpt><trkpt lat="43.32079709150068" lon="11.383938928232212"><ele>211.5</ele><time>2026-05-02T08:49:20.002Z</time></trkpt><trkpt lat="43.32077955837803" lon="11.383791739209803"><ele>210.75</ele><time>2026-05-02T08:49:21.002Z</time></trkpt><trkpt lat="43.320727699385955" lon="11.383616827581351"><ele>210.0</ele><time>2026-05-02T08:49:22.002Z</time></trkpt><trkpt lat="43.32065181675291" lon="11.383365212270322"><ele>207.33333333333331</ele><time>2026-05-02T08:49:23.002Z</time></trkpt><trkpt lat="43.32060044121516" lon="11.383091224137424"><ele>204.66666666666666</ele><time>2026-05-02T08:49:24.002Z</time></trkpt><trkpt lat="43.32056886469363" lon="11.382780175820365"><ele>202.0</ele><time>2026-05-02T08:49:25.002Z</time></trkpt><trkpt lat="43.3205268936131" lon="11.382433957971633"><ele>200.0</ele><time>2026-05-02T08:49:26.002Z</time></trkpt><trkpt lat="43.32046855127032" lon="11.382080479944477"><ele>198.0</ele><time>2026-05-02T08:49:27.002Z</time></trkpt><trkpt lat="43.32041810304293" lon="11.381770405447968"><ele>198.0</ele><time>2026-05-02T08:49:28.002Z</time></trkpt><trkpt lat="43.320372918687184" lon="11.381477925439338"><ele>198.0</ele><time>2026-05-02T08:49:29.002Z</time></trkpt><trkpt lat="43.32033565895963" lon="11.381218393538537"><ele>198.0</ele><time>2026-05-02T08:49:30.002Z</time></trkpt><trkpt lat="43.320314149959884" lon="11.380966040789284"><ele>197.66666666666669</ele><time>2026-05-02T08:49:31.002Z</time></trkpt><trkpt lat="43.3203203658252" lon="11.380699950682333"><ele>197.33333333333334</ele><time>2026-05-02T08:49:32.002Z</time></trkpt><trkpt lat="43.32035687015701" lon="11.380427636650925"><ele>197.0</ele><time>2026-05-02T08:49:33.002Z</time></trkpt><trkpt lat="43.320396195305236" lon="11.380190464628237"><ele>197.0</ele><time>2026-05-02T08:49:34.002Z</time></trkpt><trkpt lat="43.32042531123494" lon="11.379973726270036"><ele>197.0</ele><time>2026-05-02T08:49:35.002Z</time></trkpt><trkpt lat="43.320448591078794" lon="11.379770964432428"><ele>197.0</ele><time>2026-05-02T08:49:36.002Z</time></trkpt><trkpt lat="43.32046985464369" lon="11.379585837026564"><ele>197.0</ele><time>2026-05-02T08:49:37.002Z</time></trkpt><trkpt lat="43.32049499467954" lon="11.379406784418958"><ele>197.75</ele><time>2026-05-02T08:49:38.002Z</time></trkpt><trkpt lat="43.32051954716169" lon="11.379238408906534"><ele>198.5</ele><time>2026-05-02T08:49:39.002Z</time></trkpt><trkpt lat="43.3205423877337" lon="11.379079487254078"><ele>199.25</ele><time>2026-05-02T08:49:40.002Z</time></trkpt><trkpt lat="43.32056127377314" lon="11.378929427306025"><ele>200.0</ele><time>2026-05-02T08:49:41.002Z</time></trkpt><trkpt lat="43.32057496900958" lon="11.378778487661195"><ele>200.25</ele><time>2026-05-02T08:49:42.002Z</time></trkpt><trkpt lat="43.32058336507797" lon="11.378627198300011"><ele>200.5</ele><time>2026-05-02T08:49:43.002Z</time></trkpt><trkpt lat="43.3205889547298" lon="11.37846096554446"><ele>200.75</ele><time>2026-05-02T08:49:44.002Z</time></trkpt><trkpt lat="43.320581031673214" lon="11.378274371672235"><ele>201.0</ele><time>2026-05-02T08:49:45.002Z</time></trkpt><trkpt lat="43.32056180920173" lon="11.378110736936167"><ele>203.60000000000002</ele><time>2026-05-02T08:49:46.003Z</time></trkpt><trkpt lat="43.32054183185767" lon="11.377961613085246"><ele>206.2</ele><time>2026-05-02T08:49:47.003Z</time></trkpt><trkpt lat="43.320525168906954" lon="11.377821520627359"><ele>208.79999999999998</ele><time>2026-05-02T08:49:48.003Z</time></trkpt><trkpt lat="43.320511142758384" lon="11.37768762193204"><ele>211.39999999999998</ele><time>2026-05-02T08:49:49.003Z</time></trkpt><trkpt lat="43.32049479186854" lon="11.377559389501569"><ele>214.0</ele><time>2026-05-02T08:49:50.003Z</time></trkpt><trkpt lat="43.32047975791392" lon="11.377440085467512"><ele>214.0</ele><time>2026-05-02T08:49:51.003Z</time></trkpt><trkpt lat="43.32046167504108" lon="11.37730634287853"><ele>214.0</ele><time>2026-05-02T08:49:52.003Z</time></trkpt><trkpt lat="43.32044439278965" lon="11.377157347320361"><ele>214.0</ele><time>2026-05-02T08:49:53.003Z</time></trkpt><trkpt lat="43.32043192755558" lon="11.376990561365464"><ele>214.0</ele><time>2026-05-02T08:49:54.003Z</time></trkpt><trkpt lat="43.320427949695755" lon="11.376812183123436"><ele>215.39999999999998</ele><time>2026-05-02T08:49:55.003Z</time></trkpt><trkpt lat="43.320431075039956" lon="11.376633680139784"><ele>216.79999999999998</ele><time>2026-05-02T08:49:56.003Z</time></trkpt><trkpt lat="43.32044299291812" lon="11.37648169303542"><ele>218.20000000000002</ele><time>2026-05-02T08:49:57.003Z</time></trkpt><trkpt lat="43.32045602197033" lon="11.376347651190493"><ele>219.60000000000002</ele><time>2026-05-02T08:49:58.003Z</time></trkpt><trkpt lat="43.32047007052786" lon="11.376208250294773"><ele>221.0</ele><time>2026-05-02T08:49:59.003Z</time></trkpt><trkpt lat="43.320484905636974" lon="11.376061383715482"><ele>221.0</ele><time>2026-05-02T08:50:00.003Z</time></trkpt><trkpt lat="43.32049736522266" lon="11.375899020302189"><ele>221.0</ele><time>2026-05-02T08:50:01.003Z</time></trkpt><trkpt lat="43.320501858342936" lon="11.375730177366103"><ele>221.0</ele><time>2026-05-02T08:50:02.003Z</time></trkpt><trkpt lat="43.32049267525977" lon="11.375584717579784"><ele>221.0</ele><time>2026-05-02T08:50:03.003Z</time></trkpt><trkpt lat="43.320441035083626" lon="11.375458459742386"><ele>220.60000000000002</ele><time>2026-05-02T08:50:04.003Z</time></trkpt><trkpt lat="43.320363968078524" lon="11.375319040653071"><ele>220.20000000000002</ele><time>2026-05-02T08:50:05.003Z</time></trkpt><trkpt lat="43.3202724644658" lon="11.37519306936212"><ele>219.79999999999998</ele><time>2026-05-02T08:50:06.003Z</time></trkpt><trkpt lat="43.320223414077404" lon="11.37509435228024"><ele>219.39999999999998</ele><time>2026-05-02T08:50:07.003Z</time></trkpt><trkpt lat="43.32020167747386" lon="11.374980466242608"><ele>219.0</ele><time>2026-05-02T08:50:08.003Z</time></trkpt><trkpt lat="43.32020908304882" lon="11.37484567546857"><ele>219.5</ele><time>2026-05-02T08:50:09.003Z</time></trkpt><trkpt lat="43.32025558038732" lon="11.374684222845456"><ele>220.0</ele><time>2026-05-02T08:50:10.003Z</time></trkpt><trkpt lat="43.32029743829241" lon="11.374545637436292"><ele>220.5</ele><time>2026-05-02T08:50:11.003Z</time></trkpt><trkpt lat="43.320341420214724" lon="11.374383154140368"><ele>221.0</ele><time>2026-05-02T08:50:12.003Z</time></trkpt><trkpt lat="43.3203915945242" lon="11.374201331769575"><ele>221.0</ele><time>2026-05-02T08:50:13.003Z</time></trkpt><trkpt lat="43.320448425530856" lon="11.374006564991163"><ele>221.0</ele><time>2026-05-02T08:50:14.003Z</time></trkpt><trkpt lat="43.320517092712" lon="11.37378407634012"><ele>221.0</ele><time>2026-05-02T08:50:14.999Z</time></trkpt><trkpt lat="43.32060204949051" lon="11.373550005189099"><ele>223.0</ele><time>2026-05-02T08:50:15.999Z</time></trkpt><trkpt lat="43.32070801949432" lon="11.373340199489784"><ele>225.0</ele><time>2026-05-02T08:50:16.999Z</time></trkpt><trkpt lat="43.32079917097714" lon="11.37317876479316"><ele>227.0</ele><time>2026-05-02T08:50:17.999Z</time></trkpt><trkpt lat="43.32086387526191" lon="11.3730619841788"><ele>229.0</ele><time>2026-05-02T08:50:18.999Z</time></trkpt><trkpt lat="43.32092771937573" lon="11.372935443291412"><ele>231.25</ele><time>2026-05-02T08:50:19.999Z</time></trkpt><trkpt lat="43.32098587888712" lon="11.372790842324202"><ele>233.5</ele><time>2026-05-02T08:50:20.999Z</time></trkpt><trkpt lat="43.32102631003046" lon="11.37261592367755"><ele>235.75</ele><time>2026-05-02T08:50:21.999Z</time></trkpt><trkpt lat="43.321059786944154" lon="11.37242271987533"><ele>238.0</ele><time>2026-05-02T08:50:23Z</time></trkpt><trkpt lat="43.32108882807434" lon="11.37224427696912"><ele>240.25</ele><time>2026-05-02T08:50:24Z</time></trkpt><trkpt lat="43.32111530125573" lon="11.37206501680381"><ele>242.5</ele><time>2026-05-02T08:50:25Z</time></trkpt><trkpt lat="43.321135877252125" lon="11.371869213420347"><ele>244.75</ele><time>2026-05-02T08:50:26Z</time></trkpt><trkpt lat="43.321160372953564" lon="11.371661123967085"><ele>247.0</ele><time>2026-05-02T08:50:27Z</time></trkpt><trkpt lat="43.32118416475937" lon="11.371447812028965"><ele>248.66666666666666</ele><time>2026-05-02T08:50:28Z</time></trkpt><trkpt lat="43.321214584804736" lon="11.371228302307813"><ele>250.33333333333331</ele><time>2026-05-02T08:50:29Z</time></trkpt><trkpt lat="43.321258169526956" lon="11.371014200331368"><ele>252.0</ele><time>2026-05-02T08:50:30Z</time></trkpt><trkpt lat="43.32133094129034" lon="11.370785991442412"><ele>252.0</ele><time>2026-05-02T08:50:31Z</time></trkpt><trkpt lat="43.32142767589585" lon="11.37055096337884"><ele>252.0</ele><time>2026-05-02T08:50:32Z</time></trkpt><trkpt lat="43.32154289316772" lon="11.370319089513053"><ele>252.0</ele><time>2026-05-02T08:50:33Z</time></trkpt><trkpt lat="43.32164768669374" lon="11.370104890278624"><ele>252.0</ele><time>2026-05-02T08:50:34Z</time></trkpt><trkpt lat="43.32174501529966" lon="11.369909654400626"><ele>252.0</ele><time>2026-05-02T08:50:35Z</time></trkpt><trkpt lat="43.3218297266354" lon="11.369732501995601"><ele>252.0</ele><time>2026-05-02T08:50:36Z</time></trkpt><trkpt lat="43.321909774151045" lon="11.369581018035898"><ele>253.5</ele><time>2026-05-02T08:50:37Z</time></trkpt><trkpt lat="43.321974700892575" lon="11.369459468501388"><ele>255.0</ele><time>2026-05-02T08:50:38Z</time></trkpt><trkpt lat="43.32202052938771" lon="11.369364380890218"><ele>256.5</ele><time>2026-05-02T08:50:39Z</time></trkpt><trkpt lat="43.32204388633249" lon="11.369272281732098"><ele>258.0</ele><time>2026-05-02T08:50:40Z</time></trkpt><trkpt lat="43.322022256977654" lon="11.369188924575544"><ele>259.5</ele><time>2026-05-02T08:50:41Z</time></trkpt><trkpt lat="43.321962160618966" lon="11.369143838866579"><ele>261.0</ele><time>2026-05-02T08:50:42Z</time></trkpt><trkpt lat="43.32187732899083" lon="11.369160749886722"><ele>261.0</ele><time>2026-05-02T08:50:43Z</time></trkpt><trkpt lat="43.321785281396245" lon="11.369249208497608"><ele>261.0</ele><time>2026-05-02T08:50:44Z</time></trkpt><trkpt lat="43.3216970419963" lon="11.369342575539408"><ele>261.0</ele><time>2026-05-02T08:50:45Z</time></trkpt><trkpt lat="43.32161095052888" lon="11.36942302006935"><ele>261.0</ele><time>2026-05-02T08:50:46Z</time></trkpt><trkpt lat="43.32151762513004" lon="11.36944018536919"><ele>261.0</ele><time>2026-05-02T08:50:47Z</time></trkpt><trkpt lat="43.3214112251258" lon="11.369402472190988"><ele>261.5</ele><time>2026-05-02T08:50:48Z</time></trkpt><trkpt lat="43.32130989526742" lon="11.369305769204082"><ele>262.0</ele><time>2026-05-02T08:50:49Z</time></trkpt><trkpt lat="43.3212078784159" lon="11.369187945998178"><ele>262.5</ele><time>2026-05-02T08:50:50Z</time></trkpt><trkpt lat="43.32110617338859" lon="11.369074113732115"><ele>263.0</ele><time>2026-05-02T08:50:51.001Z</time></trkpt><trkpt lat="43.32102341438445" lon="11.368983140117411"><ele>263.0</ele><time>2026-05-02T08:50:52.001Z</time></trkpt><trkpt lat="43.32096518363581" lon="11.368913392643178"><ele>263.0</ele><time>2026-05-02T08:50:53.001Z</time></trkpt><trkpt lat="43.32093344847581" lon="11.368836248514476"><ele>263.0</ele><time>2026-05-02T08:50:54.001Z</time></trkpt><trkpt lat="43.32094615623567" lon="11.368642976980391"><ele>263.0</ele><time>2026-05-02T08:50:56.001Z</time></trkpt><trkpt lat="43.32099025351536" lon="11.368505065669709"><ele>263.0</ele><time>2026-05-02T08:50:57.001Z</time></trkpt><trkpt lat="43.32103836033318" lon="11.368348375269566"><ele>263.0</ele><time>2026-05-02T08:50:58.001Z</time></trkpt><trkpt lat="43.32107534535839" lon="11.368168328237585"><ele>263.0</ele><time>2026-05-02T08:50:59.001Z</time></trkpt><trkpt lat="43.32109153442862" lon="11.367960716157915"><ele>263.0</ele><time>2026-05-02T08:51:00.001Z</time></trkpt><trkpt lat="43.321094205258014" lon="11.367719173575177"><ele>264.33333333333337</ele><time>2026-05-02T08:51:01.001Z</time></trkpt><trkpt lat="43.321097546818" lon="11.367467851727532"><ele>265.6666666666667</ele><time>2026-05-02T08:51:02.001Z</time></trkpt><trkpt lat="43.32110096119892" lon="11.367204913766768"><ele>267.0</ele><time>2026-05-02T08:51:03.001Z</time></trkpt><trkpt lat="43.321103591640956" lon="11.36694948570083"><ele>268.0</ele><time>2026-05-02T08:51:04.001Z</time></trkpt><trkpt lat="43.32109693652324" lon="11.366729250475037"><ele>269.0</ele><time>2026-05-02T08:51:05.001Z</time></trkpt><trkpt lat="43.32107534237082" lon="11.366528948330512"><ele>270.0</ele><time>2026-05-02T08:51:06.001Z</time></trkpt><trkpt lat="43.32104694088934" lon="11.366358443426966"><ele>271.0</ele><time>2026-05-02T08:51:07.001Z</time></trkpt><trkpt lat="43.321018574165976" lon="11.366208817596034"><ele>271.0</ele><time>2026-05-02T08:51:08.001Z</time></trkpt><trkpt lat="43.32099597031814" lon="11.366059767461158"><ele>271.0</ele><time>2026-05-02T08:51:09.001Z</time></trkpt><trkpt lat="43.32097373261722" lon="11.365897566082921"><ele>271.0</ele><time>2026-05-02T08:51:10.001Z</time></trkpt><trkpt lat="43.32093721804919" lon="11.365722006527873"><ele>271.0</ele><time>2026-05-02T08:51:11.001Z</time></trkpt><trkpt lat="43.32088389977948" lon="11.365530749501495"><ele>271.25</ele><time>2026-05-02T08:51:12.001Z</time></trkpt><trkpt lat="43.32081363292566" lon="11.365337542386706"><ele>271.5</ele><time>2026-05-02T08:51:13.001Z</time></trkpt><trkpt lat="43.3207444327171" lon="11.365161707296336"><ele>271.75</ele><time>2026-05-02T08:51:14.001Z</time></trkpt><trkpt lat="43.320673554397274" lon="11.365002259139619"><ele>272.0</ele><time>2026-05-02T08:51:15.001Z</time></trkpt><trkpt lat="43.32060820020989" lon="11.364857609479255"><ele>272.4</ele><time>2026-05-02T08:51:16.001Z</time></trkpt><trkpt lat="43.320542963944185" lon="11.364729068155906"><ele>272.79999999999995</ele><time>2026-05-02T08:51:17.001Z</time></trkpt><trkpt lat="43.3204846782292" lon="11.36461703641355"><ele>273.2</ele><time>2026-05-02T08:51:18.001Z</time></trkpt><trkpt lat="43.3204388554218" lon="11.364511702396081"><ele>273.59999999999997</ele><time>2026-05-02T08:51:19.001Z</time></trkpt><trkpt lat="43.320386886260344" lon="11.364420864511827"><ele>274.0</ele><time>2026-05-02T08:51:20.001Z</time></trkpt><trkpt lat="43.320330265702566" lon="11.364342101443341"><ele>274.0</ele><time>2026-05-02T08:51:21.001Z</time></trkpt><trkpt lat="43.32027342853468" lon="11.36426057894645"><ele>274.0</ele><time>2026-05-02T08:51:22.002Z</time></trkpt><trkpt lat="43.32021267155165" lon="11.364169951298967"><ele>274.0</ele><time>2026-05-02T08:51:23.002Z</time></trkpt><trkpt lat="43.32015052906576" lon="11.364064854608129"><ele>274.0</ele><time>2026-05-02T08:51:24.002Z</time></trkpt><trkpt lat="43.3200761031995" lon="11.363950105728692"><ele>274.0</ele><time>2026-05-02T08:51:25.002Z</time></trkpt><trkpt lat="43.320000237962866" lon="11.363832844280285"><ele>274.59999999999997</ele><time>2026-05-02T08:51:26.002Z</time></trkpt><trkpt lat="43.319921364207275" lon="11.363704579377158"><ele>275.2</ele><time>2026-05-02T08:51:27.002Z</time></trkpt><trkpt lat="43.319840306501035" lon="11.36359288923617"><ele>275.79999999999995</ele><time>2026-05-02T08:51:28.002Z</time></trkpt><trkpt lat="43.31976226363516" lon="11.363489293599088"><ele>276.4</ele><time>2026-05-02T08:51:29.002Z</time></trkpt><trkpt lat="43.31969069062106" lon="11.36339457023694"><ele>277.0</ele><time>2026-05-02T08:51:30.002Z</time></trkpt><trkpt lat="43.31962421508579" lon="11.363307097707347"><ele>277.0</ele><time>2026-05-02T08:51:31.002Z</time></trkpt><trkpt lat="43.31956230760162" lon="11.363209035084452"><ele>277.0</ele><time>2026-05-02T08:51:32.002Z</time></trkpt><trkpt lat="43.319515235162854" lon="11.363119824968233"><ele>277.0</ele><time>2026-05-02T08:51:33.002Z</time></trkpt><trkpt lat="43.31947527470925" lon="11.363028686104126"><ele>277.0</ele><time>2026-05-02T08:51:34.002Z</time></trkpt><trkpt lat="43.31944275650773" lon="11.362940889849046"><ele>277.0</ele><time>2026-05-02T08:51:35.002Z</time></trkpt><trkpt lat="43.31941929341443" lon="11.362844763435474"><ele>277.0</ele><time>2026-05-02T08:51:36.002Z</time></trkpt><trkpt lat="43.319394157970535" lon="11.362751535757859"><ele>275.6</ele><time>2026-05-02T08:51:37.002Z</time></trkpt><trkpt lat="43.31935461435646" lon="11.362654227325642"><ele>274.2</ele><time>2026-05-02T08:51:38.002Z</time></trkpt><trkpt lat="43.31929012707045" lon="11.362552574103452"><ele>272.8</ele><time>2026-05-02T08:51:39.002Z</time></trkpt><trkpt lat="43.319213792342076" lon="11.3624342732704"><ele>271.4</ele><time>2026-05-02T08:51:40.002Z</time></trkpt><trkpt lat="43.31912397036319" lon="11.362275119420186"><ele>270.0</ele><time>2026-05-02T08:51:41.002Z</time></trkpt><trkpt lat="43.31904056051176" lon="11.362137857658784"><ele>269.0</ele><time>2026-05-02T08:51:42.002Z</time></trkpt><trkpt lat="43.31895786148789" lon="11.361999738512273"><ele>268.0</ele><time>2026-05-02T08:51:43.002Z</time></trkpt><trkpt lat="43.318872791118" lon="11.361860133564464"><ele>267.0</ele><time>2026-05-02T08:51:44.002Z</time></trkpt><trkpt lat="43.318782193502706" lon="11.361723046711283"><ele>266.0</ele><time>2026-05-02T08:51:45.002Z</time></trkpt><trkpt lat="43.318697586319594" lon="11.361553401692504"><ele>263.33333333333337</ele><time>2026-05-02T08:51:46.002Z</time></trkpt><trkpt lat="43.31862609149847" lon="11.361353792267392"><ele>260.6666666666667</ele><time>2026-05-02T08:51:47.002Z</time></trkpt><trkpt lat="43.31856481642929" lon="11.36114497501029"><ele>258.0</ele><time>2026-05-02T08:51:48.002Z</time></trkpt><trkpt lat="43.3184994253387" lon="11.360960021531165"><ele>258.0</ele><time>2026-05-02T08:51:49.002Z</time></trkpt><trkpt lat="43.318417618925125" lon="11.360781742919498"><ele>258.0</ele><time>2026-05-02T08:51:50.002Z</time></trkpt><trkpt lat="43.3183212403958" lon="11.360586165944094"><ele>258.0</ele><time>2026-05-02T08:51:51.002Z</time></trkpt><trkpt lat="43.318232080946515" lon="11.360384685227917"><ele>255.66666666666669</ele><time>2026-05-02T08:51:52.002Z</time></trkpt><trkpt lat="43.31814282818872" lon="11.360192274303088"><ele>253.33333333333334</ele><time>2026-05-02T08:51:53.002Z</time></trkpt><trkpt lat="43.31804428645248" lon="11.360020460894162"><ele>251.0</ele><time>2026-05-02T08:51:54.002Z</time></trkpt><trkpt lat="43.31794634435361" lon="11.35985040438737"><ele>247.66666666666669</ele><time>2026-05-02T08:51:55.003Z</time></trkpt><trkpt lat="43.3178502912377" lon="11.359662810202796"><ele>244.33333333333331</ele><time>2026-05-02T08:51:56.003Z</time></trkpt><trkpt lat="43.31777964624869" lon="11.359441046620343"><ele>241.0</ele><time>2026-05-02T08:51:57.003Z</time></trkpt><trkpt lat="43.31772995324597" lon="11.359208703835085"><ele>241.0</ele><time>2026-05-02T08:51:58.003Z</time></trkpt><trkpt lat="43.317699449616676" lon="11.35900169758986"><ele>241.0</ele><time>2026-05-02T08:51:59.003Z</time></trkpt><trkpt lat="43.317664999036836" lon="11.358804406586268"><ele>241.0</ele><time>2026-05-02T08:52:00.003Z</time></trkpt><trkpt lat="43.31761025410017" lon="11.358648412316565"><ele>241.0</ele><time>2026-05-02T08:52:01.003Z</time></trkpt><trkpt lat="43.317529695642776" lon="11.358515855564978"><ele>240.0</ele><time>2026-05-02T08:52:02.003Z</time></trkpt><trkpt lat="43.31742419819701" lon="11.358415174811789"><ele>239.0</ele><time>2026-05-02T08:52:03.003Z</time></trkpt><trkpt lat="43.31730693473613" lon="11.358350111418773"><ele>238.0</ele><time>2026-05-02T08:52:04.003Z</time></trkpt><trkpt lat="43.31717415423689" lon="11.358309162384538"><ele>237.0</ele><time>2026-05-02T08:52:05.003Z</time></trkpt><trkpt lat="43.317033472472275" lon="11.358300491366165"><ele>235.25</ele><time>2026-05-02T08:52:06.003Z</time></trkpt><trkpt lat="43.31690808233708" lon="11.358311220552144"><ele>233.5</ele><time>2026-05-02T08:52:07.003Z</time></trkpt><trkpt lat="43.31679479145774" lon="11.358294040165617"><ele>231.75</ele><time>2026-05-02T08:52:08.003Z</time></trkpt><trkpt lat="43.31669256470667" lon="11.358234793654088"><ele>230.0</ele><time>2026-05-02T08:52:09.003Z</time></trkpt><trkpt lat="43.316607281547725" lon="11.358151527623965"><ele>230.0</ele><time>2026-05-02T08:52:10.003Z</time></trkpt><trkpt lat="43.31654499220055" lon="11.358035130083948"><ele>230.0</ele><time>2026-05-02T08:52:11.003Z</time></trkpt><trkpt lat="43.3164825445836" lon="11.357917850316738"><ele>230.0</ele><time>2026-05-02T08:52:12.003Z</time></trkpt><trkpt lat="43.31642715211155" lon="11.357814778850347"><ele>230.0</ele><time>2026-05-02T08:52:13.003Z</time></trkpt><trkpt lat="43.31637860427534" lon="11.357730662143094"><ele>230.0</ele><time>2026-05-02T08:52:14.003Z</time></trkpt><trkpt lat="43.316329374989614" lon="11.35765095912621"><ele>229.50000000000003</ele><time>2026-05-02T08:52:15.003Z</time></trkpt><trkpt lat="43.31627439452184" lon="11.357563897683487"><ele>229.0</ele><time>2026-05-02T08:52:16.003Z</time></trkpt><trkpt lat="43.3162176641574" lon="11.357479150514811"><ele>228.5</ele><time>2026-05-02T08:52:17.003Z</time></trkpt><trkpt lat="43.31616531795683" lon="11.357386819075671"><ele>228.0</ele><time>2026-05-02T08:52:18.003Z</time></trkpt><trkpt lat="43.31612451662396" lon="11.35728429691575"><ele>227.50000000000003</ele><time>2026-05-02T08:52:19.003Z</time></trkpt><trkpt lat="43.31609130676416" lon="11.357181472335492"><ele>227.0</ele><time>2026-05-02T08:52:20.003Z</time></trkpt><trkpt lat="43.31606888115503" lon="11.357077000920409"><ele>226.83333333333334</ele><time>2026-05-02T08:52:20.999Z</time></trkpt><trkpt lat="43.316057413180324" lon="11.356971617536622"><ele>226.66666666666669</ele><time>2026-05-02T08:52:21.999Z</time></trkpt><trkpt lat="43.316045593588946" lon="11.356866938242943"><ele>226.5</ele><time>2026-05-02T08:52:22.999Z</time></trkpt><trkpt lat="43.31604140529425" lon="11.356760976826424"><ele>226.33333333333331</ele><time>2026-05-02T08:52:23.999Z</time></trkpt><trkpt lat="43.31603845614727" lon="11.356671730864164"><ele>226.16666666666666</ele><time>2026-05-02T08:52:24.999Z</time></trkpt><trkpt lat="43.31603782095833" lon="11.356538960094925"><ele>226.0</ele><time>2026-05-02T08:52:26.999Z</time></trkpt><trkpt lat="43.31603527919431" lon="11.356442419223194"><ele>225.83333333333331</ele><time>2026-05-02T08:52:29.999Z</time></trkpt><trkpt lat="43.31602506777683" lon="11.356322809939359"><ele>225.66666666666666</ele><time>2026-05-02T08:52:43Z</time></trkpt><trkpt lat="43.31602952275745" lon="11.356223267500155"><ele>225.5</ele><time>2026-05-02T08:52:49Z</time></trkpt><trkpt lat="43.31604512414828" lon="11.356125426824853"><ele>225.33333333333331</ele><time>2026-05-02T08:52:50Z</time></trkpt><trkpt lat="43.316073887502476" lon="11.356034100466076"><ele>225.16666666666666</ele><time>2026-05-02T08:52:51Z</time></trkpt><trkpt lat="43.31611612961927" lon="11.3559500502343"><ele>225.0</ele><time>2026-05-02T08:52:52Z</time></trkpt><trkpt lat="43.31616480105589" lon="11.355876975859845"><ele>225.0</ele><time>2026-05-02T08:52:53Z</time></trkpt><trkpt lat="43.31625186024138" lon="11.355753987038057"><ele>225.0</ele><time>2026-05-02T08:52:55Z</time></trkpt><trkpt lat="43.31629870446976" lon="11.355692645406371"><ele>225.0</ele><time>2026-05-02T08:52:56Z</time></trkpt><trkpt lat="43.31634494628629" lon="11.355621712987599"><ele>225.0</ele><time>2026-05-02T08:52:57Z</time></trkpt><trkpt lat="43.316382893176765" lon="11.355537705628452"><ele>225.0</ele><time>2026-05-02T08:52:58.001Z</time></trkpt><trkpt lat="43.31640242282125" lon="11.355411128520844"><ele>225.0</ele><time>2026-05-02T08:53:00.001Z</time></trkpt><trkpt lat="43.31638158509027" lon="11.355320301498736"><ele>225.33333333333334</ele><time>2026-05-02T08:53:02.001Z</time></trkpt><trkpt lat="43.31634296092741" lon="11.355230816810703"><ele>225.66666666666669</ele><time>2026-05-02T08:53:04.001Z</time></trkpt><trkpt lat="43.31624720755222" lon="11.35519482196742"><ele>226.0</ele><time>2026-05-02T08:53:06.001Z</time></trkpt><trkpt lat="43.31616970859102" lon="11.35519889783321"><ele>226.33333333333334</ele><time>2026-05-02T08:53:07.001Z</time></trkpt><trkpt lat="43.316092868688294" lon="11.355173558656459"><ele>226.66666666666669</ele><time>2026-05-02T08:53:08.001Z</time></trkpt><trkpt lat="43.31602190064943" lon="11.355099591870063"><ele>227.0</ele><time>2026-05-02T08:53:09.001Z</time></trkpt><trkpt lat="43.31597059475327" lon="11.354989980024325"><ele>227.0</ele><time>2026-05-02T08:53:10.001Z</time></trkpt><trkpt lat="43.315919307697435" lon="11.354843254415991"><ele>227.0</ele><time>2026-05-02T08:53:11.001Z</time></trkpt><trkpt lat="43.315865838169465" lon="11.354657168221323"><ele>227.0</ele><time>2026-05-02T08:53:12.001Z</time></trkpt><trkpt lat="43.31581079197397" lon="11.354454946834851"><ele>227.0</ele><time>2026-05-02T08:53:13.001Z</time></trkpt><trkpt lat="43.31574818790805" lon="11.354221685555252"><ele>228.33333333333334</ele><time>2026-05-02T08:53:14.001Z</time></trkpt><trkpt lat="43.31568345091407" lon="11.353987517796995"><ele>229.66666666666669</ele><time>2026-05-02T08:53:15.001Z</time></trkpt><trkpt lat="43.3156182382148" lon="11.353738710146503"><ele>231.0</ele><time>2026-05-02T08:53:16.001Z</time></trkpt><trkpt lat="43.31555423756916" lon="11.35348496105377"><ele>232.0</ele><time>2026-05-02T08:53:17.001Z</time></trkpt><trkpt lat="43.31549074858022" lon="11.353225637587926"><ele>233.0</ele><time>2026-05-02T08:53:18.001Z</time></trkpt><trkpt lat="43.31542219061729" lon="11.35296230529684"><ele>234.0</ele><time>2026-05-02T08:53:19.001Z</time></trkpt><trkpt lat="43.315345013684805" lon="11.352680217252912"><ele>235.0</ele><time>2026-05-02T08:53:20.001Z</time></trkpt><trkpt lat="43.31527272761148" lon="11.352393885301378"><ele>236.0</ele><time>2026-05-02T08:53:21.001Z</time></trkpt><trkpt lat="43.3152129737891" lon="11.352126012946593"><ele>237.0</ele><time>2026-05-02T08:53:22.001Z</time></trkpt><trkpt lat="43.31515133312859" lon="11.351891314059339"><ele>239.33333333333331</ele><time>2026-05-02T08:53:23.001Z</time></trkpt><trkpt lat="43.31507128679159" lon="11.351660999734438"><ele>241.66666666666666</ele><time>2026-05-02T08:53:24.001Z</time></trkpt><trkpt lat="43.314966453851454" lon="11.351448499558389"><ele>244.0</ele><time>2026-05-02T08:53:25.001Z</time></trkpt><trkpt lat="43.31484811417199" lon="11.351236419459342"><ele>243.66666666666666</ele><time>2026-05-02T08:53:26.001Z</time></trkpt><trkpt lat="43.314732861142005" lon="11.351040210852815"><ele>243.33333333333331</ele><time>2026-05-02T08:53:27.002Z</time></trkpt><trkpt lat="43.3146142100892" lon="11.350855338430694"><ele>243.0</ele><time>2026-05-02T08:53:28.002Z</time></trkpt><trkpt lat="43.314502159951196" lon="11.350707744099488"><ele>243.0</ele><time>2026-05-02T08:53:29.002Z</time></trkpt><trkpt lat="43.3144174288175" lon="11.350563837274947"><ele>243.0</ele><time>2026-05-02T08:53:30.002Z</time></trkpt><trkpt lat="43.31437300970633" lon="11.350423880472562"><ele>243.0</ele><time>2026-05-02T08:53:31.002Z</time></trkpt><trkpt lat="43.314371695853254" lon="11.35027267143481"><ele>243.0</ele><time>2026-05-02T08:53:32.002Z</time></trkpt><trkpt lat="43.31439115743149" lon="11.350115712868725"><ele>243.60000000000002</ele><time>2026-05-02T08:53:33.002Z</time></trkpt><trkpt lat="43.31444156235378" lon="11.349994076503432"><ele>244.20000000000002</ele><time>2026-05-02T08:53:34.002Z</time></trkpt><trkpt lat="43.31451395688966" lon="11.349910369065093"><ele>244.8</ele><time>2026-05-02T08:53:35.002Z</time></trkpt><trkpt lat="43.31459901489905" lon="11.34987701089487"><ele>245.4</ele><time>2026-05-02T08:53:36.002Z</time></trkpt><trkpt lat="43.31470058113562" lon="11.349861450758324"><ele>246.0</ele><time>2026-05-02T08:53:37.002Z</time></trkpt><trkpt lat="43.31481006871461" lon="11.349852957830224"><ele>249.0</ele><time>2026-05-02T08:53:38.002Z</time></trkpt><trkpt lat="43.31491468704691" lon="11.349830308378836"><ele>252.00000000000003</ele><time>2026-05-02T08:53:39.002Z</time></trkpt><trkpt lat="43.31499951937644" lon="11.349771513970177"><ele>255.00000000000003</ele><time>2026-05-02T08:53:40.002Z</time></trkpt><trkpt lat="43.31507402563146" lon="11.349688108000315"><ele>258.0</ele><time>2026-05-02T08:53:41.002Z</time></trkpt><trkpt lat="43.315120882721004" lon="11.349557593731836"><ele>261.0</ele><time>2026-05-02T08:53:42.002Z</time></trkpt><trkpt lat="43.31513763875146" lon="11.34941372280983"><ele>261.6</ele><time>2026-05-02T08:53:43.002Z</time></trkpt><trkpt lat="43.31512134389761" lon="11.34927361179861"><ele>262.20000000000005</ele><time>2026-05-02T08:53:44.002Z</time></trkpt><trkpt lat="43.315074295078645" lon="11.349146978053213"><ele>262.79999999999995</ele><time>2026-05-02T08:53:45.002Z</time></trkpt><trkpt lat="43.31500554379624" lon="11.349047618231076"><ele>263.4</ele><time>2026-05-02T08:53:46.002Z</time></trkpt><trkpt lat="43.314908313661036" lon="11.348972687096468"><ele>264.0</ele><time>2026-05-02T08:53:47.002Z</time></trkpt><trkpt lat="43.314799188127964" lon="11.348906751641964"><ele>262.2</ele><time>2026-05-02T08:53:48.002Z</time></trkpt><trkpt lat="43.31468937126698" lon="11.348853625444915"><ele>260.4</ele><time>2026-05-02T08:53:49.002Z</time></trkpt><trkpt lat="43.31460249210703" lon="11.34876630963868"><ele>258.6</ele><time>2026-05-02T08:53:50.002Z</time></trkpt><trkpt lat="43.314554444323946" lon="11.348645598770824"><ele>256.8</ele><time>2026-05-02T08:53:51.002Z</time></trkpt><trkpt lat="43.314535125079715" lon="11.348513042516592"><ele>255.0</ele><time>2026-05-02T08:53:52.002Z</time></trkpt><trkpt lat="43.31454259618293" lon="11.348370577219976"><ele>255.0</ele><time>2026-05-02T08:53:53.002Z</time></trkpt><trkpt lat="43.31457627464944" lon="11.348213877460228"><ele>255.0</ele><time>2026-05-02T08:53:54.002Z</time></trkpt><trkpt lat="43.314613631470664" lon="11.348073450568421"><ele>255.0</ele><time>2026-05-02T08:53:55.002Z</time></trkpt><trkpt lat="43.314667231565394" lon="11.347944893933695"><ele>255.0</ele><time>2026-05-02T08:53:56.002Z</time></trkpt><trkpt lat="43.31474494115538" lon="11.347791083356656"><ele>260.3333333333333</ele><time>2026-05-02T08:53:57.002Z</time></trkpt><trkpt lat="43.31484717270695" lon="11.347610496601133"><ele>265.66666666666663</ele><time>2026-05-02T08:53:58.002Z</time></trkpt><trkpt lat="43.31497438758485" lon="11.347415625561668"><ele>271.0</ele><time>2026-05-02T08:53:59.003Z</time></trkpt><trkpt lat="43.31509790947295" lon="11.347234087856041"><ele>270.0</ele><time>2026-05-02T08:54:00.003Z</time></trkpt><trkpt lat="43.3152088001551" lon="11.3470581241855"><ele>269.0</ele><time>2026-05-02T08:54:01.003Z</time></trkpt><trkpt lat="43.315301305577655" lon="11.34689914710041"><ele>268.0</ele><time>2026-05-02T08:54:02.003Z</time></trkpt><trkpt lat="43.31538352268794" lon="11.346756297907733"><ele>268.0</ele><time>2026-05-02T08:54:03.003Z</time></trkpt><trkpt lat="43.31545617046937" lon="11.346627169421645"><ele>268.0</ele><time>2026-05-02T08:54:04.003Z</time></trkpt><trkpt lat="43.315528529524585" lon="11.346508254473711"><ele>268.0</ele><time>2026-05-02T08:54:05.003Z</time></trkpt><trkpt lat="43.31558721962807" lon="11.346399187799538"><ele>268.0</ele><time>2026-05-02T08:54:06.003Z</time></trkpt><trkpt lat="43.31562913264198" lon="11.346320292789938"><ele>268.0</ele><time>2026-05-02T08:54:07.003Z</time></trkpt><trkpt lat="43.315675377167224" lon="11.346237498109746"><ele>270.4</ele><time>2026-05-02T08:54:08.003Z</time></trkpt><trkpt lat="43.31573183045115" lon="11.346151047935296"><ele>272.8</ele><time>2026-05-02T08:54:09.003Z</time></trkpt><trkpt lat="43.31579168139157" lon="11.346067335958052"><ele>275.2</ele><time>2026-05-02T08:54:10.003Z</time></trkpt><trkpt lat="43.31585426193059" lon="11.345973766573673"><ele>277.6</ele><time>2026-05-02T08:54:11.003Z</time></trkpt><trkpt lat="43.31591657576133" lon="11.345871717891306"><ele>280.0</ele><time>2026-05-02T08:54:12.003Z</time></trkpt><trkpt lat="43.31598081562154" lon="11.345768563777"><ele>280.0</ele><time>2026-05-02T08:54:13.003Z</time></trkpt><trkpt lat="43.31604583448023" lon="11.34566143544784"><ele>280.0</ele><time>2026-05-02T08:54:14.003Z</time></trkpt><trkpt lat="43.31611097721922" lon="11.345549834964078"><ele>280.0</ele><time>2026-05-02T08:54:15.003Z</time></trkpt><trkpt lat="43.31617651429458" lon="11.345431977980816"><ele>280.0</ele><time>2026-05-02T08:54:16.003Z</time></trkpt><trkpt lat="43.31624254339135" lon="11.345315910098396"><ele>280.0</ele><time>2026-05-02T08:54:17.003Z</time></trkpt><trkpt lat="43.316310331136144" lon="11.345199200449986"><ele>280.8</ele><time>2026-05-02T08:54:18.003Z</time></trkpt><trkpt lat="43.31638428817686" lon="11.345087459709289"><ele>281.6</ele><time>2026-05-02T08:54:19.003Z</time></trkpt><trkpt lat="43.31645529906812" lon="11.34497300547321"><ele>282.4</ele><time>2026-05-02T08:54:20.003Z</time></trkpt><trkpt lat="43.3165267158899" lon="11.344860864398523"><ele>283.2</ele><time>2026-05-02T08:54:21.003Z</time></trkpt><trkpt lat="43.31659138680041" lon="11.344754429981018"><ele>284.0</ele><time>2026-05-02T08:54:22.003Z</time></trkpt><trkpt lat="43.31665080842484" lon="11.344657191796207"><ele>284.0</ele><time>2026-05-02T08:54:23.003Z</time></trkpt><trkpt lat="43.31669688852283" lon="11.344569463765605"><ele>284.0</ele><time>2026-05-02T08:54:24.003Z</time></trkpt><trkpt lat="43.316740561223675" lon="11.344494700108166"><ele>284.0</ele><time>2026-05-02T08:54:25.003Z</time></trkpt><trkpt lat="43.316783317093886" lon="11.344421750330604"><ele>284.0</ele><time>2026-05-02T08:54:26.003Z</time></trkpt><trkpt lat="43.31682053461816" lon="11.344350524375988"><ele>284.0</ele><time>2026-05-02T08:54:26.998Z</time></trkpt><trkpt lat="43.31685706926176" lon="11.344276950421067"><ele>284.0</ele><time>2026-05-02T08:54:27.998Z</time></trkpt><trkpt lat="43.31689871521014" lon="11.344176958359304"><ele>284.0</ele><time>2026-05-02T08:54:28.998Z</time></trkpt><trkpt lat="43.31694717314587" lon="11.344056256579881"><ele>284.0</ele><time>2026-05-02T08:54:29.998Z</time></trkpt><trkpt lat="43.31698727371789" lon="11.34393101038934"><ele>284.0</ele><time>2026-05-02T08:54:30.998Z</time></trkpt><trkpt lat="43.31702557532569" lon="11.343806646656109"><ele>284.0</ele><time>2026-05-02T08:54:31.998Z</time></trkpt><trkpt lat="43.31705836167896" lon="11.343687221093722"><ele>284.0</ele><time>2026-05-02T08:54:32.998Z</time></trkpt><trkpt lat="43.31708666220465" lon="11.3435664396579"><ele>284.0</ele><time>2026-05-02T08:54:33.999Z</time></trkpt><trkpt lat="43.317112818321974" lon="11.34344845641954"><ele>283.6666666666667</ele><time>2026-05-02T08:54:34.999Z</time></trkpt><trkpt lat="43.31713617416005" lon="11.34333822600618"><ele>283.33333333333337</ele><time>2026-05-02T08:54:35.999Z</time></trkpt><trkpt lat="43.317159116116855" lon="11.343236450122426"><ele>283.0</ele><time>2026-05-02T08:54:36.999Z</time></trkpt><trkpt lat="43.31719601009443" lon="11.343098146944754"><ele>282.6666666666667</ele><time>2026-05-02T08:54:38.999Z</time></trkpt><trkpt lat="43.31723538109597" lon="11.342986012919107"><ele>282.3333333333333</ele><time>2026-05-02T08:54:40.999Z</time></trkpt><trkpt lat="43.31727311388959" lon="11.342912977273512"><ele>282.0</ele><time>2026-05-02T08:54:42.999Z</time></trkpt><trkpt lat="43.31722517409325" lon="11.342987199564085"><ele>282.0</ele><time>2026-05-02T08:55:22.001Z</time></trkpt><trkpt lat="43.317160837664076" lon="11.343247151459721"><ele>282.0</ele><time>2026-05-02T08:55:24.001Z</time></trkpt><trkpt lat="43.317113861846956" lon="11.343417718338133"><ele>282.0</ele><time>2026-05-02T08:55:25.001Z</time></trkpt><trkpt lat="43.31708019429857" lon="11.343569940182412"><ele>282.0</ele><time>2026-05-02T08:55:26.001Z</time></trkpt><trkpt lat="43.31704893671709" lon="11.34369629045372"><ele>282.0</ele><time>2026-05-02T08:55:27.001Z</time></trkpt><trkpt lat="43.31701819385899" lon="11.34381236333811"><ele>282.0</ele><time>2026-05-02T08:55:28.001Z</time></trkpt><trkpt lat="43.3169908329508" lon="11.34391613525083"><ele>282.0</ele><time>2026-05-02T08:55:29.001Z</time></trkpt><trkpt lat="43.31696518451638" lon="11.344019466079391"><ele>282.0</ele><time>2026-05-02T08:55:30.001Z</time></trkpt><trkpt lat="43.31692752551625" lon="11.344109717941587"><ele>282.0</ele><time>2026-05-02T08:55:31.001Z</time></trkpt><trkpt lat="43.316823137488576" lon="11.344173166219901"><ele>282.0</ele><time>2026-05-02T08:55:33.001Z</time></trkpt><trkpt lat="43.31675481174278" lon="11.344152362640095"><ele>282.0</ele><time>2026-05-02T08:55:34.001Z</time></trkpt><trkpt lat="43.316690435305766" lon="11.344094502615834"><ele>282.0</ele><time>2026-05-02T08:55:35.001Z</time></trkpt><trkpt lat="43.31664021234782" lon="11.344014818212083"><ele>282.0</ele><time>2026-05-02T08:55:36.002Z</time></trkpt><trkpt lat="43.316614589927674" lon="11.343909758677723"><ele>282.0</ele><time>2026-05-02T08:55:37.002Z</time></trkpt><trkpt lat="43.31661431314492" lon="11.34381332887132"><ele>282.0</ele><time>2026-05-02T08:55:38.002Z</time></trkpt><trkpt lat="43.316663771535" lon="11.343728309319578"><ele>282.0</ele><time>2026-05-02T08:55:39.002Z</time></trkpt><trkpt lat="43.31672747021427" lon="11.343622007776966"><ele>282.0</ele><time>2026-05-02T08:55:40.002Z</time></trkpt><trkpt lat="43.31676650480811" lon="11.343485731225222"><ele>282.0</ele><time>2026-05-02T08:55:41.002Z</time></trkpt><trkpt lat="43.31678749211458" lon="11.343334257284793"><ele>282.0</ele><time>2026-05-02T08:55:42.002Z</time></trkpt><trkpt lat="43.31680426255103" lon="11.343202788282344"><ele>282.0</ele><time>2026-05-02T08:55:43.002Z</time></trkpt><trkpt lat="43.31681962790035" lon="11.343084055863585"><ele>282.0</ele><time>2026-05-02T08:55:44.002Z</time></trkpt><trkpt lat="43.31683988445485" lon="11.342966181585455"><ele>281.3333333333333</ele><time>2026-05-02T08:55:45.002Z</time></trkpt><trkpt lat="43.31685927222146" lon="11.342850178664612"><ele>280.6666666666667</ele><time>2026-05-02T08:55:46.002Z</time></trkpt><trkpt lat="43.31687578288884" lon="11.342736311331715"><ele>280.0</ele><time>2026-05-02T08:55:47.002Z</time></trkpt><trkpt lat="43.31688690536556" lon="11.342626668981186"><ele>279.33333333333337</ele><time>2026-05-02T08:55:48.002Z</time></trkpt><trkpt lat="43.316884695707905" lon="11.34252984609275"><ele>278.6666666666667</ele><time>2026-05-02T08:55:49.002Z</time></trkpt><trkpt lat="43.31685345138347" lon="11.342446220244963"><ele>278.0</ele><time>2026-05-02T08:55:50.002Z</time></trkpt><trkpt lat="43.316796120032045" lon="11.342383229252519"><ele>278.0</ele><time>2026-05-02T08:55:51.002Z</time></trkpt><trkpt lat="43.31671491486898" lon="11.342338516868272"><ele>278.0</ele><time>2026-05-02T08:55:52.002Z</time></trkpt><trkpt lat="43.31661930433407" lon="11.34230592556145"><ele>278.0</ele><time>2026-05-02T08:55:53.002Z</time></trkpt><trkpt lat="43.316505872570005" lon="11.342266282614505"><ele>278.0</ele><time>2026-05-02T08:55:54.002Z</time></trkpt><trkpt lat="43.316382511113204" lon="11.34222600923363"><ele>278.0</ele><time>2026-05-02T08:55:55.002Z</time></trkpt><trkpt lat="43.316255459207184" lon="11.342182466229458"><ele>278.6</ele><time>2026-05-02T08:55:56.002Z</time></trkpt><trkpt lat="43.316132343007084" lon="11.342145697226666"><ele>279.20000000000005</ele><time>2026-05-02T08:55:57.002Z</time></trkpt><trkpt lat="43.31601822357047" lon="11.342108606689258"><ele>279.8</ele><time>2026-05-02T08:55:58.002Z</time></trkpt><trkpt lat="43.31591656127032" lon="11.34207353314307"><ele>280.40000000000003</ele><time>2026-05-02T08:55:59.002Z</time></trkpt><trkpt lat="43.31581799051093" lon="11.342049622172697"><ele>281.0</ele><time>2026-05-02T08:56:00.002Z</time></trkpt><trkpt lat="43.31572119606513" lon="11.342055171741714"><ele>281.0</ele><time>2026-05-02T08:56:01.002Z</time></trkpt><trkpt lat="43.31561784834707" lon="11.342094716383261"><ele>281.0</ele><time>2026-05-02T08:56:02.002Z</time></trkpt><trkpt lat="43.31550261710427" lon="11.34216455529312"><ele>281.0</ele><time>2026-05-02T08:56:03.002Z</time></trkpt><trkpt lat="43.315384049134586" lon="11.342263209003958"><ele>281.0</ele><time>2026-05-02T08:56:04.002Z</time></trkpt><trkpt lat="43.31526494464176" lon="11.34236696392744"><ele>280.5</ele><time>2026-05-02T08:56:05.002Z</time></trkpt><trkpt lat="43.31514769643038" lon="11.342470849621918"><ele>280.0</ele><time>2026-05-02T08:56:06.002Z</time></trkpt><trkpt lat="43.31503371771391" lon="11.34256601986955"><ele>279.5</ele><time>2026-05-02T08:56:07.002Z</time></trkpt><trkpt lat="43.31492303128427" lon="11.342655359124832"><ele>279.0</ele><time>2026-05-02T08:56:08.002Z</time></trkpt><trkpt lat="43.31481909458129" lon="11.342733159041046"><ele>278.2</ele><time>2026-05-02T08:56:09.003Z</time></trkpt><trkpt lat="43.314721287638676" lon="11.342797988955985"><ele>277.4</ele><time>2026-05-02T08:56:10.003Z</time></trkpt><trkpt lat="43.31462827890677" lon="11.342842343982513"><ele>276.6</ele><time>2026-05-02T08:56:11.003Z</time></trkpt><trkpt lat="43.314542430342314" lon="11.342838995287696"><ele>275.8</ele><time>2026-05-02T08:56:12.003Z</time></trkpt><trkpt lat="43.31446460453896" lon="11.342779683776392"><ele>275.0</ele><time>2026-05-02T08:56:13.003Z</time></trkpt><trkpt lat="43.31440537557922" lon="11.34267613413932"><ele>275.0</ele><time>2026-05-02T08:56:14.003Z</time></trkpt><trkpt lat="43.3143680155263" lon="11.342536017143594"><ele>275.0</ele><time>2026-05-02T08:56:15.003Z</time></trkpt><trkpt lat="43.3143469721409" lon="11.342386813334656"><ele>275.0</ele><time>2026-05-02T08:56:16.003Z</time></trkpt><trkpt lat="43.314334928610364" lon="11.34225707053822"><ele>275.0</ele><time>2026-05-02T08:56:17.003Z</time></trkpt><trkpt lat="43.314315381550756" lon="11.342136554909287"><ele>275.0</ele><time>2026-05-02T08:56:18.003Z</time></trkpt><trkpt lat="43.3142756009926" lon="11.342017214634332"><ele>275.4</ele><time>2026-05-02T08:56:19.003Z</time></trkpt><trkpt lat="43.31422353149487" lon="11.34191390672105"><ele>275.8</ele><time>2026-05-02T08:56:20.003Z</time></trkpt><trkpt lat="43.314152342246054" lon="11.341837254230661"><ele>276.2</ele><time>2026-05-02T08:56:21.003Z</time></trkpt><trkpt lat="43.314066320505674" lon="11.341782174687163"><ele>276.6</ele><time>2026-05-02T08:56:22.003Z</time></trkpt><trkpt lat="43.313966403868605" lon="11.341762795793962"><ele>277.0</ele><time>2026-05-02T08:56:23.003Z</time></trkpt><trkpt lat="43.313870507454695" lon="11.341728375355954"><ele>277.0</ele><time>2026-05-02T08:56:24.003Z</time></trkpt><trkpt lat="43.313763585682835" lon="11.341707523636055"><ele>277.0</ele><time>2026-05-02T08:56:25.003Z</time></trkpt><trkpt lat="43.31363746159123" lon="11.341680166538971"><ele>277.0</ele><time>2026-05-02T08:56:26.003Z</time></trkpt><trkpt lat="43.31348365463536" lon="11.34163191956758"><ele>277.0</ele><time>2026-05-02T08:56:27.003Z</time></trkpt><trkpt lat="43.31330452633765" lon="11.34152634516683"><ele>277.0</ele><time>2026-05-02T08:56:28.003Z</time></trkpt><trkpt lat="43.3130978465091" lon="11.341455983090459"><ele>277.0</ele><time>2026-05-02T08:56:29.003Z</time></trkpt><trkpt lat="43.312913942336024" lon="11.341393168843663"><ele>277.0</ele><time>2026-05-02T08:56:30.003Z</time></trkpt><trkpt lat="43.31275912752086" lon="11.341340290314086"><ele>278.4</ele><time>2026-05-02T08:56:31.003Z</time></trkpt><trkpt lat="43.31265314603229" lon="11.341306592337459"><ele>279.79999999999995</ele><time>2026-05-02T08:56:32.003Z</time></trkpt><trkpt lat="43.31258218837327" lon="11.34124673318779"><ele>281.2</ele><time>2026-05-02T08:56:32.996Z</time></trkpt><trkpt lat="43.31253905823016" lon="11.341152168059642"><ele>282.59999999999997</ele><time>2026-05-02T08:56:33.996Z</time></trkpt><trkpt lat="43.312517784426255" lon="11.341002607844057"><ele>284.0</ele><time>2026-05-02T08:56:34.997Z</time></trkpt><trkpt lat="43.312483840111035" lon="11.340820773544568"><ele>284.0</ele><time>2026-05-02T08:56:35.997Z</time></trkpt><trkpt lat="43.31239425040892" lon="11.34065589494741"><ele>284.0</ele><time>2026-05-02T08:56:36.997Z</time></trkpt><trkpt lat="43.31226017314019" lon="11.340517123134273"><ele>284.0</ele><time>2026-05-02T08:56:37.997Z</time></trkpt><trkpt lat="43.31210710392719" lon="11.34042736323575"><ele>284.75</ele><time>2026-05-02T08:56:38.997Z</time></trkpt><trkpt lat="43.31198807403122" lon="11.340350446753968"><ele>285.5</ele><time>2026-05-02T08:56:39.997Z</time></trkpt><trkpt lat="43.311900843789445" lon="11.340251847469435"><ele>286.25</ele><time>2026-05-02T08:56:40.998Z</time></trkpt><trkpt lat="43.311825765179755" lon="11.340107029817565"><ele>287.0</ele><time>2026-05-02T08:56:41.998Z</time></trkpt><trkpt lat="43.31177464075104" lon="11.339957073357857"><ele>287.0</ele><time>2026-05-02T08:56:42.998Z</time></trkpt><trkpt lat="43.31177336139631" lon="11.339854237637137"><ele>287.0</ele><time>2026-05-02T08:56:43.998Z</time></trkpt><trkpt lat="43.31174843895444" lon="11.339753483137983"><ele>287.0</ele><time>2026-05-02T08:56:45.998Z</time></trkpt><trkpt lat="43.311741970731944" lon="11.339651699338972"><ele>287.0</ele><time>2026-05-02T08:57:03Z</time></trkpt><trkpt lat="43.31173850987618" lon="11.339536286668293"><ele>287.0</ele><time>2026-05-02T08:57:05Z</time></trkpt><trkpt lat="43.311740102817055" lon="11.339417012885221"><ele>287.0</ele><time>2026-05-02T08:57:09Z</time></trkpt><trkpt lat="43.311605570858895" lon="11.33933185249527"><ele>287.0</ele><time>2026-05-02T08:57:12Z</time></trkpt><trkpt lat="43.311523050935314" lon="11.339333275059417"><ele>287.0</ele><time>2026-05-02T08:57:13Z</time></trkpt><trkpt lat="43.31143161965434" lon="11.339332841367291"><ele>287.0</ele><time>2026-05-02T08:57:14Z</time></trkpt><trkpt lat="43.31134723469954" lon="11.339335669320851"><ele>287.0</ele><time>2026-05-02T08:57:15Z</time></trkpt><trkpt lat="43.31126936150501" lon="11.339339226602508"><ele>287.0</ele><time>2026-05-02T08:57:16.001Z</time></trkpt><trkpt lat="43.31119690003975" lon="11.33933299868334"><ele>287.0</ele><time>2026-05-02T08:57:17.001Z</time></trkpt><trkpt lat="43.311121664359334" lon="11.339328180709765"><ele>287.0</ele><time>2026-05-02T08:57:18.001Z</time></trkpt><trkpt lat="43.31104045052688" lon="11.339329514853873"><ele>287.0</ele><time>2026-05-02T08:57:19.001Z</time></trkpt><trkpt lat="43.31095195197136" lon="11.339329693131825"><ele>287.0</ele><time>2026-05-02T08:57:20.001Z</time></trkpt><trkpt lat="43.3108642974366" lon="11.339326871983362"><ele>287.0</ele><time>2026-05-02T08:57:21.001Z</time></trkpt><trkpt lat="43.31077746625072" lon="11.339320301663745"><ele>287.0</ele><time>2026-05-02T08:57:22.001Z</time></trkpt><trkpt lat="43.31069209757592" lon="11.339308551092339"><ele>287.0</ele><time>2026-05-02T08:57:23.001Z</time></trkpt><trkpt lat="43.310617755740196" lon="11.339289135678923"><ele>286.5</ele><time>2026-05-02T08:57:24.001Z</time></trkpt><trkpt lat="43.31054876888488" lon="11.339272462621622"><ele>286.0</ele><time>2026-05-02T08:57:25.001Z</time></trkpt><trkpt lat="43.31046780900876" lon="11.339266390984015"><ele>285.5</ele><time>2026-05-02T08:57:26.001Z</time></trkpt><trkpt lat="43.31038770369726" lon="11.339256123057382"><ele>285.0</ele><time>2026-05-02T08:57:27.001Z</time></trkpt><trkpt lat="43.310306473046026" lon="11.339237672250121"><ele>284.5</ele><time>2026-05-02T08:57:28.001Z</time></trkpt><trkpt lat="43.31022008334895" lon="11.339222556288059"><ele>284.0</ele><time>2026-05-02T08:57:29.001Z</time></trkpt><trkpt lat="43.31013326593829" lon="11.339203820640243"><ele>284.0</ele><time>2026-05-02T08:57:30.001Z</time></trkpt><trkpt lat="43.31004886220187" lon="11.339188990475806"><ele>284.0</ele><time>2026-05-02T08:57:31.001Z</time></trkpt><trkpt lat="43.30996862910729" lon="11.33917785911809"><ele>284.0</ele><time>2026-05-02T08:57:32.001Z</time></trkpt><trkpt lat="43.30986819967136" lon="11.339140973801857"><ele>284.0</ele><time>2026-05-02T08:57:33.001Z</time></trkpt><trkpt lat="43.30972600718579" lon="11.339115962230773"><ele>284.0</ele><time>2026-05-02T08:57:34.001Z</time></trkpt><trkpt lat="43.30956701518913" lon="11.33909183260637"><ele>283.0</ele><time>2026-05-02T08:57:35.001Z</time></trkpt><trkpt lat="43.30940150523365" lon="11.339080469846278"><ele>282.0</ele><time>2026-05-02T08:57:36.001Z</time></trkpt><trkpt lat="43.30922885694245" lon="11.339059971181014"><ele>281.0</ele><time>2026-05-02T08:57:37.001Z</time></trkpt><trkpt lat="43.30907123205891" lon="11.339040389531341"><ele>281.0</ele><time>2026-05-02T08:57:38.001Z</time></trkpt><trkpt lat="43.30892963803389" lon="11.339020818335529"><ele>281.0</ele><time>2026-05-02T08:57:39.001Z</time></trkpt><trkpt lat="43.30880029442742" lon="11.339002496300688"><ele>281.0</ele><time>2026-05-02T08:57:40.001Z</time></trkpt><trkpt lat="43.308676144198905" lon="11.338978039589216"><ele>281.0</ele><time>2026-05-02T08:57:41.001Z</time></trkpt><trkpt lat="43.30856309092215" lon="11.33897141843899"><ele>281.25</ele><time>2026-05-02T08:57:42.002Z</time></trkpt><trkpt lat="43.308449976335" lon="11.338965446640662"><ele>281.5</ele><time>2026-05-02T08:57:43.002Z</time></trkpt><trkpt lat="43.308323566503184" lon="11.338959942598008"><ele>281.75</ele><time>2026-05-02T08:57:44.002Z</time></trkpt><trkpt lat="43.30817496022701" lon="11.338958668548168"><ele>282.0</ele><time>2026-05-02T08:57:45.002Z</time></trkpt><trkpt lat="43.308015431082374" lon="11.338970355759956"><ele>282.0</ele><time>2026-05-02T08:57:46.002Z</time></trkpt><trkpt lat="43.30784825351604" lon="11.338989195490823"><ele>282.0</ele><time>2026-05-02T08:57:47.002Z</time></trkpt><trkpt lat="43.30769066129995" lon="11.339011581152107"><ele>282.0</ele><time>2026-05-02T08:57:48.002Z</time></trkpt><trkpt lat="43.30753404311878" lon="11.339043609079313"><ele>282.0</ele><time>2026-05-02T08:57:49.002Z</time></trkpt><trkpt lat="43.307408548597486" lon="11.339082850644983"><ele>282.0</ele><time>2026-05-02T08:57:50.002Z</time></trkpt><trkpt lat="43.307295367781485" lon="11.339117600500751"><ele>282.0</ele><time>2026-05-02T08:57:51.002Z</time></trkpt><trkpt lat="43.30718753889743" lon="11.3391546497445"><ele>282.0</ele><time>2026-05-02T08:57:52.002Z</time></trkpt><trkpt lat="43.307074960703304" lon="11.339192573711358"><ele>281.75</ele><time>2026-05-02T08:57:53.002Z</time></trkpt><trkpt lat="43.3069607941118" lon="11.33918255493455"><ele>281.5</ele><time>2026-05-02T08:57:54.002Z</time></trkpt><trkpt lat="43.306848432114585" lon="11.339171539898967"><ele>281.25</ele><time>2026-05-02T08:57:55.002Z</time></trkpt><trkpt lat="43.30673329403341" lon="11.339148636854548"><ele>281.0</ele><time>2026-05-02T08:57:56.002Z</time></trkpt><trkpt lat="43.306613281168765" lon="11.339137136873443"><ele>281.0</ele><time>2026-05-02T08:57:57.002Z</time></trkpt><trkpt lat="43.3064888580072" lon="11.33909795030504"><ele>281.0</ele><time>2026-05-02T08:57:58.002Z</time></trkpt><trkpt lat="43.30637400561067" lon="11.339040506633895"><ele>281.0</ele><time>2026-05-02T08:57:59.002Z</time></trkpt><trkpt lat="43.30626541623165" lon="11.33896293279399"><ele>281.0</ele><time>2026-05-02T08:58:00.002Z</time></trkpt><trkpt lat="43.3061696388121" lon="11.33885836809533"><ele>280.75</ele><time>2026-05-02T08:58:01.002Z</time></trkpt><trkpt lat="43.30607955827384" lon="11.33875528151247"><ele>280.5</ele><time>2026-05-02T08:58:02.002Z</time></trkpt><trkpt lat="43.30598411683297" lon="11.33865938922252"><ele>280.25</ele><time>2026-05-02T08:58:03.002Z</time></trkpt><trkpt lat="43.30590250258456" lon="11.338548350074191"><ele>280.0</ele><time>2026-05-02T08:58:04.002Z</time></trkpt><trkpt lat="43.30582539294616" lon="11.338441573005335"><ele>280.0</ele><time>2026-05-02T08:58:05.002Z</time></trkpt><trkpt lat="43.305756744959425" lon="11.338338726313557"><ele>280.0</ele><time>2026-05-02T08:58:06.002Z</time></trkpt><trkpt lat="43.3056899734424" lon="11.338259954391633"><ele>280.0</ele><time>2026-05-02T08:58:07.002Z</time></trkpt><trkpt lat="43.3056344071955" lon="11.338179635256393"><ele>280.0</ele><time>2026-05-02T08:58:08.002Z</time></trkpt><trkpt lat="43.30557645469195" lon="11.338106243870753"><ele>280.0</ele><time>2026-05-02T08:58:09.002Z</time></trkpt><trkpt lat="43.30552573662795" lon="11.338035440402672"><ele>280.0</ele><time>2026-05-02T08:58:10.002Z</time></trkpt><trkpt lat="43.30546894263457" lon="11.337960809484748"><ele>279.8</ele><time>2026-05-02T08:58:11.002Z</time></trkpt><trkpt lat="43.305404122132124" lon="11.337874847646656"><ele>279.6</ele><time>2026-05-02T08:58:12.002Z</time></trkpt><trkpt lat="43.305341678780145" lon="11.337790661284398"><ele>279.4</ele><time>2026-05-02T08:58:13.002Z</time></trkpt><trkpt lat="43.30528029358177" lon="11.337711284637187"><ele>279.2</ele><time>2026-05-02T08:58:14.002Z</time></trkpt><trkpt lat="43.30520482716101" lon="11.337628450105498"><ele>279.0</ele><time>2026-05-02T08:58:15.002Z</time></trkpt><trkpt lat="43.305098491004976" lon="11.337519637577104"><ele>279.0</ele><time>2026-05-02T08:58:16.002Z</time></trkpt><trkpt lat="43.304942847736726" lon="11.337428086968472"><ele>279.0</ele><time>2026-05-02T08:58:17.002Z</time></trkpt><trkpt lat="43.30478066390184" lon="11.337329983402093"><ele>279.0</ele><time>2026-05-02T08:58:18.002Z</time></trkpt><trkpt lat="43.30464361347177" lon="11.33725759999291"><ele>277.0</ele><time>2026-05-02T08:58:19.003Z</time></trkpt><trkpt lat="43.30452494700046" lon="11.337156734173174"><ele>275.0</ele><time>2026-05-02T08:58:20.003Z</time></trkpt><trkpt lat="43.30441957331947" lon="11.337071583116497"><ele>273.0</ele><time>2026-05-02T08:58:21.003Z</time></trkpt><trkpt lat="43.30431405317659" lon="11.337009772926013"><ele>271.0</ele><time>2026-05-02T08:58:22.003Z</time></trkpt><trkpt lat="43.30420073431119" lon="11.336982829116424"><ele>271.0</ele><time>2026-05-02T08:58:23.003Z</time></trkpt><trkpt lat="43.30406800965391" lon="11.336992062815526"><ele>271.0</ele><time>2026-05-02T08:58:24.003Z</time></trkpt><trkpt lat="43.30391558970618" lon="11.337025507022178"><ele>271.0</ele><time>2026-05-02T08:58:25.003Z</time></trkpt><trkpt lat="43.30373041677001" lon="11.337102463319901"><ele>270.66666666666663</ele><time>2026-05-02T08:58:26.003Z</time></trkpt><trkpt lat="43.30351796505946" lon="11.337191008425117"><ele>270.3333333333333</ele><time>2026-05-02T08:58:27.003Z</time></trkpt><trkpt lat="43.30334031929707" lon="11.337265581402995"><ele>270.0</ele><time>2026-05-02T08:58:28.003Z</time></trkpt><trkpt lat="43.30318023667907" lon="11.337343795144312"><ele>269.5</ele><time>2026-05-02T08:58:29.003Z</time></trkpt><trkpt lat="43.30303714918989" lon="11.337425368111921"><ele>269.0</ele><time>2026-05-02T08:58:30.003Z</time></trkpt><trkpt lat="43.30290766014299" lon="11.337504852191174"><ele>268.5</ele><time>2026-05-02T08:58:31.003Z</time></trkpt><trkpt lat="43.30279684559377" lon="11.33760075527162"><ele>268.0</ele><time>2026-05-02T08:58:32.003Z</time></trkpt><trkpt lat="43.30269900814294" lon="11.337671378160273"><ele>268.0</ele><time>2026-05-02T08:58:33.003Z</time></trkpt><trkpt lat="43.302618403521926" lon="11.337735892506084"><ele>268.0</ele><time>2026-05-02T08:58:34.003Z</time></trkpt><trkpt lat="43.3025389315215" lon="11.33779813577184"><ele>268.0</ele><time>2026-05-02T08:58:35.003Z</time></trkpt><trkpt lat="43.30244790593663" lon="11.337833115577904"><ele>268.0</ele><time>2026-05-02T08:58:36.003Z</time></trkpt><trkpt lat="43.30232555739842" lon="11.337877219823364"><ele>268.0</ele><time>2026-05-02T08:58:37.003Z</time></trkpt><trkpt lat="43.30215323417716" lon="11.337927258261198"><ele>264.0</ele><time>2026-05-02T08:58:38.003Z</time></trkpt><trkpt lat="43.301966848522916" lon="11.337978173369658"><ele>260.0</ele><time>2026-05-02T08:58:38.996Z</time></trkpt><trkpt lat="43.30180377615283" lon="11.33802828529103"><ele>256.0</ele><time>2026-05-02T08:58:39.996Z</time></trkpt><trkpt lat="43.301649483852124" lon="11.338010122770976"><ele>256.0</ele><time>2026-05-02T08:58:40.996Z</time></trkpt><trkpt lat="43.30149852571779" lon="11.337984242435033"><ele>256.0</ele><time>2026-05-02T08:58:41.996Z</time></trkpt><trkpt lat="43.30135312702438" lon="11.337933621544494"><ele>256.0</ele><time>2026-05-02T08:58:42.996Z</time></trkpt><trkpt lat="43.30121064709188" lon="11.337864981038857"><ele>255.25</ele><time>2026-05-02T08:58:43.997Z</time></trkpt><trkpt lat="43.30108312723368" lon="11.337777098366987"><ele>254.5</ele><time>2026-05-02T08:58:44.997Z</time></trkpt><trkpt lat="43.3009569282761" lon="11.337694980718634"><ele>253.75</ele><time>2026-05-02T08:58:45.997Z</time></trkpt><trkpt lat="43.30083398892964" lon="11.33759087805507"><ele>253.0</ele><time>2026-05-02T08:58:46.997Z</time></trkpt><trkpt lat="43.300707645245346" lon="11.337490873773548"><ele>253.25</ele><time>2026-05-02T08:58:47.997Z</time></trkpt><trkpt lat="43.300579376204155" lon="11.337390240299127"><ele>253.5</ele><time>2026-05-02T08:58:48.997Z</time></trkpt><trkpt lat="43.30044436578234" lon="11.337313391599924"><ele>253.75</ele><time>2026-05-02T08:58:49.998Z</time></trkpt><trkpt lat="43.300300897166835" lon="11.337253515485557"><ele>254.0</ele><time>2026-05-02T08:58:50.998Z</time></trkpt><trkpt lat="43.30016230941448" lon="11.33722513467917"><ele>252.5</ele><time>2026-05-02T08:58:51.998Z</time></trkpt><trkpt lat="43.300027794153976" lon="11.337202151589207"><ele>251.0</ele><time>2026-05-02T08:58:52.998Z</time></trkpt><trkpt lat="43.299894567062864" lon="11.33718197073948"><ele>249.5</ele><time>2026-05-02T08:58:53.998Z</time></trkpt><trkpt lat="43.299770402720505" lon="11.337162945956104"><ele>248.0</ele><time>2026-05-02T08:58:54.998Z</time></trkpt><trkpt lat="43.29965110803621" lon="11.337148329955609"><ele>248.0</ele><time>2026-05-02T08:58:55.998Z</time></trkpt><trkpt lat="43.299523999984956" lon="11.33714597419188"><ele>248.0</ele><time>2026-05-02T08:58:56.998Z</time></trkpt><trkpt lat="43.29939939218249" lon="11.337167080676625"><ele>248.0</ele><time>2026-05-02T08:58:57.999Z</time></trkpt><trkpt lat="43.29927404172484" lon="11.33719651084446"><ele>248.0</ele><time>2026-05-02T08:58:58.999Z</time></trkpt><trkpt lat="43.29915636486699" lon="11.337224932974156"><ele>248.0</ele><time>2026-05-02T08:58:59.999Z</time></trkpt><trkpt lat="43.29904217155863" lon="11.337254790087147"><ele>248.0</ele><time>2026-05-02T08:59:00.999Z</time></trkpt><trkpt lat="43.298933335975185" lon="11.337295202619627"><ele>248.0</ele><time>2026-05-02T08:59:01.999Z</time></trkpt><trkpt lat="43.298827574379786" lon="11.337338694422792"><ele>248.0</ele><time>2026-05-02T08:59:02.999Z</time></trkpt><trkpt lat="43.29872767768053" lon="11.337392848823997"><ele>248.0</ele><time>2026-05-02T08:59:03.999Z</time></trkpt><trkpt lat="43.29863096372136" lon="11.33745332895954"><ele>247.0</ele><time>2026-05-02T08:59:04.999Z</time></trkpt><trkpt lat="43.29853540409654" lon="11.337519872460922"><ele>246.0</ele><time>2026-05-02T08:59:05.999Z</time></trkpt><trkpt lat="43.298436119132845" lon="11.33760081887102"><ele>245.0</ele><time>2026-05-02T08:59:07Z</time></trkpt><trkpt lat="43.298302575525454" lon="11.3376945145259"><ele>244.0</ele><time>2026-05-02T08:59:08Z</time></trkpt><trkpt lat="43.29818274239133" lon="11.337857460528936"><ele>243.0</ele><time>2026-05-02T08:59:09Z</time></trkpt><trkpt lat="43.29803610705273" lon="11.338026821951562"><ele>242.0</ele><time>2026-05-02T08:59:10Z</time></trkpt><trkpt lat="43.29789992437548" lon="11.338221993042005"><ele>241.0</ele><time>2026-05-02T08:59:11Z</time></trkpt><trkpt lat="43.297760000387456" lon="11.338420452565428"><ele>241.0</ele><time>2026-05-02T08:59:12Z</time></trkpt><trkpt lat="43.2976217354391" lon="11.338637620832358"><ele>241.0</ele><time>2026-05-02T08:59:13Z</time></trkpt><trkpt lat="43.29747213542386" lon="11.338838546175513"><ele>241.0</ele><time>2026-05-02T08:59:14Z</time></trkpt><trkpt lat="43.29731954177945" lon="11.339042043424016"><ele>240.66666666666666</ele><time>2026-05-02T08:59:15Z</time></trkpt><trkpt lat="43.29716931264869" lon="11.33923647241906"><ele>240.33333333333331</ele><time>2026-05-02T08:59:16Z</time></trkpt><trkpt lat="43.297016252351376" lon="11.339437838031678"><ele>240.0</ele><time>2026-05-02T08:59:17Z</time></trkpt><trkpt lat="43.29687093920862" lon="11.339643293506036"><ele>240.66666666666669</ele><time>2026-05-02T08:59:18Z</time></trkpt><trkpt lat="43.29673824142685" lon="11.339854759097333"><ele>241.33333333333334</ele><time>2026-05-02T08:59:19Z</time></trkpt><trkpt lat="43.29659435056864" lon="11.340046007409414"><ele>242.0</ele><time>2026-05-02T08:59:20Z</time></trkpt><trkpt lat="43.296473038872286" lon="11.340258469696344"><ele>242.66666666666669</ele><time>2026-05-02T08:59:21Z</time></trkpt><trkpt lat="43.29637467645315" lon="11.34049639159026"><ele>243.33333333333331</ele><time>2026-05-02T08:59:22Z</time></trkpt><trkpt lat="43.296273807883175" lon="11.340723548119605"><ele>244.0</ele><time>2026-05-02T08:59:23.001Z</time></trkpt><trkpt lat="43.29618629474615" lon="11.340929350077559"><ele>244.25</ele><time>2026-05-02T08:59:24.001Z</time></trkpt><trkpt lat="43.29610544149797" lon="11.341113874935553"><ele>244.5</ele><time>2026-05-02T08:59:25.001Z</time></trkpt><trkpt lat="43.29602942908556" lon="11.34128366413027"><ele>244.75</ele><time>2026-05-02T08:59:26.001Z</time></trkpt><trkpt lat="43.29596002442569" lon="11.341443080209247"><ele>245.0</ele><time>2026-05-02T08:59:27.001Z</time></trkpt><trkpt lat="43.2958924106307" lon="11.341599824463147"><ele>245.0</ele><time>2026-05-02T08:59:28.001Z</time></trkpt><trkpt lat="43.295823943179734" lon="11.34176154710037"><ele>245.0</ele><time>2026-05-02T08:59:29.001Z</time></trkpt><trkpt lat="43.295751559252366" lon="11.341921198225439"><ele>245.0</ele><time>2026-05-02T08:59:30.001Z</time></trkpt><trkpt lat="43.29566051135094" lon="11.342063528509414"><ele>245.0</ele><time>2026-05-02T08:59:31.001Z</time></trkpt><trkpt lat="43.29555275979874" lon="11.342186268208595"><ele>245.0</ele><time>2026-05-02T08:59:32.001Z</time></trkpt><trkpt lat="43.29543489887796" lon="11.342311139838282"><ele>245.0</ele><time>2026-05-02T08:59:33.001Z</time></trkpt><trkpt lat="43.29531439068124" lon="11.342424294462315"><ele>245.0</ele><time>2026-05-02T08:59:34.001Z</time></trkpt><trkpt lat="43.295186031563624" lon="11.342499092465633"><ele>245.0</ele><time>2026-05-02T08:59:35.001Z</time></trkpt><trkpt lat="43.29506967836976" lon="11.342577017403114"><ele>245.0</ele><time>2026-05-02T08:59:36.001Z</time></trkpt><trkpt lat="43.29494794245323" lon="11.342653651554341"><ele>245.0</ele><time>2026-05-02T08:59:37.001Z</time></trkpt><trkpt lat="43.29481317081437" lon="11.342733657575899"><ele>245.0</ele><time>2026-05-02T08:59:38.001Z</time></trkpt><trkpt lat="43.29465323091315" lon="11.342821488084029"><ele>244.66666666666669</ele><time>2026-05-02T08:59:39.001Z</time></trkpt><trkpt lat="43.29448158966639" lon="11.342910902526727"><ele>244.33333333333331</ele><time>2026-05-02T08:59:40.001Z</time></trkpt><trkpt lat="43.294301018962244" lon="11.342998239700435"><ele>244.0</ele><time>2026-05-02T08:59:41.001Z</time></trkpt><trkpt lat="43.29411237211891" lon="11.343066845080877"><ele>243.66666666666666</ele><time>2026-05-02T08:59:42.001Z</time></trkpt><trkpt lat="43.29392029480927" lon="11.343120020961383"><ele>243.33333333333331</ele><time>2026-05-02T08:59:43.001Z</time></trkpt><trkpt lat="43.293726253954034" lon="11.343169663115543"><ele>243.0</ele><time>2026-05-02T08:59:44.001Z</time></trkpt><trkpt lat="43.29353342625274" lon="11.343219352285075"><ele>243.0</ele><time>2026-05-02T08:59:45.001Z</time></trkpt><trkpt lat="43.293352418838914" lon="11.343266415219285"><ele>243.0</ele><time>2026-05-02T08:59:46.001Z</time></trkpt><trkpt lat="43.2931741944258" lon="11.343337815540057"><ele>243.0</ele><time>2026-05-02T08:59:47.002Z</time></trkpt><trkpt lat="43.29299391566661" lon="11.343388936079783"><ele>244.33333333333331</ele><time>2026-05-02T08:59:48.002Z</time></trkpt><trkpt lat="43.29281550239221" lon="11.343451421370734"><ele>245.66666666666666</ele><time>2026-05-02T08:59:49.002Z</time></trkpt><trkpt lat="43.29263851718827" lon="11.3435258990467"><ele>247.0</ele><time>2026-05-02T08:59:50.002Z</time></trkpt><trkpt lat="43.29246688342685" lon="11.3435953343885"><ele>247.0</ele><time>2026-05-02T08:59:51.002Z</time></trkpt><trkpt lat="43.29230005275215" lon="11.343659775918843"><ele>247.0</ele><time>2026-05-02T08:59:52.002Z</time></trkpt><trkpt lat="43.29213047756595" lon="11.34372465564914"><ele>247.0</ele><time>2026-05-02T08:59:53.002Z</time></trkpt><trkpt lat="43.2919587824038" lon="11.343784083430727"><ele>246.0</ele><time>2026-05-02T08:59:54.002Z</time></trkpt><trkpt lat="43.29178739097805" lon="11.343797892346943"><ele>245.0</ele><time>2026-05-02T08:59:55.002Z</time></trkpt><trkpt lat="43.29162203044068" lon="11.343828993214348"><ele>244.0</ele><time>2026-05-02T08:59:56.002Z</time></trkpt><trkpt lat="43.29147265365024" lon="11.343878484931537"><ele>244.0</ele><time>2026-05-02T08:59:57.002Z</time></trkpt><trkpt lat="43.29132094812386" lon="11.343902031789412"><ele>244.0</ele><time>2026-05-02T08:59:58.002Z</time></trkpt><trkpt lat="43.291173447684756" lon="11.34391945509651"><ele>244.0</ele><time>2026-05-02T08:59:59.002Z</time></trkpt><trkpt lat="43.29102855339165" lon="11.343928787269657"><ele>244.0</ele><time>2026-05-02T09:00:00.002Z</time></trkpt><trkpt lat="43.2908946749816" lon="11.343935051974869"><ele>244.0</ele><time>2026-05-02T09:00:01.002Z</time></trkpt><trkpt lat="43.29076411750606" lon="11.34394218864143"><ele>244.0</ele><time>2026-05-02T09:00:02.002Z</time></trkpt><trkpt lat="43.290629296008774" lon="11.343922167921335"><ele>244.0</ele><time>2026-05-02T09:00:03.002Z</time></trkpt><trkpt lat="43.29049209804028" lon="11.343932244490812"><ele>244.0</ele><time>2026-05-02T09:00:04.002Z</time></trkpt><trkpt lat="43.290359165612486" lon="11.343910762573719"><ele>244.75</ele><time>2026-05-02T09:00:05.002Z</time></trkpt><trkpt lat="43.29023047992363" lon="11.343878274508745"><ele>245.5</ele><time>2026-05-02T09:00:06.002Z</time></trkpt><trkpt lat="43.29010487879919" lon="11.343844056708276"><ele>246.25</ele><time>2026-05-02T09:00:07.002Z</time></trkpt><trkpt lat="43.289979023545314" lon="11.343805284746482"><ele>247.0</ele><time>2026-05-02T09:00:08.002Z</time></trkpt><trkpt lat="43.28985559455124" lon="11.34377231190447"><ele>247.25</ele><time>2026-05-02T09:00:09.002Z</time></trkpt><trkpt lat="43.289742351643795" lon="11.34372281334216"><ele>247.5</ele><time>2026-05-02T09:00:10.002Z</time></trkpt><trkpt lat="43.28962929225111" lon="11.343711655068406"><ele>247.75</ele><time>2026-05-02T09:00:11.002Z</time></trkpt><trkpt lat="43.28951336598837" lon="11.343717010691263"><ele>248.0</ele><time>2026-05-02T09:00:12.002Z</time></trkpt><trkpt lat="43.28937582782867" lon="11.343741686400366"><ele>248.0</ele><time>2026-05-02T09:00:13.002Z</time></trkpt><trkpt lat="43.28921603450747" lon="11.34377395030286"><ele>248.0</ele><time>2026-05-02T09:00:14.002Z</time></trkpt><trkpt lat="43.28906912054005" lon="11.34380522085663"><ele>248.0</ele><time>2026-05-02T09:00:15.002Z</time></trkpt><trkpt lat="43.288934841468496" lon="11.34383402776786"><ele>248.0</ele><time>2026-05-02T09:00:16.002Z</time></trkpt><trkpt lat="43.288803310519796" lon="11.34386291786959"><ele>247.25</ele><time>2026-05-02T09:00:17.002Z</time></trkpt><trkpt lat="43.288661250843305" lon="11.343894087594478"><ele>246.5</ele><time>2026-05-02T09:00:18.002Z</time></trkpt><trkpt lat="43.288521154674775" lon="11.343946394997968"><ele>245.75</ele><time>2026-05-02T09:00:19.002Z</time></trkpt><trkpt lat="43.28838025464998" lon="11.343978658219994"><ele>245.0</ele><time>2026-05-02T09:00:20.002Z</time></trkpt><trkpt lat="43.2882401272096" lon="11.344018116016205"><ele>245.0</ele><time>2026-05-02T09:00:21.002Z</time></trkpt><trkpt lat="43.2881057789355" lon="11.344063377787602"><ele>245.0</ele><time>2026-05-02T09:00:22.003Z</time></trkpt><trkpt lat="43.28797765149186" lon="11.344118710263427"><ele>245.0</ele><time>2026-05-02T09:00:23.003Z</time></trkpt><trkpt lat="43.28786167094521" lon="11.344187067313273"><ele>245.0</ele><time>2026-05-02T09:00:24.003Z</time></trkpt><trkpt lat="43.287756569165644" lon="11.344275087224446"><ele>245.75</ele><time>2026-05-02T09:00:25.003Z</time></trkpt><trkpt lat="43.287656495505026" lon="11.34437955609343"><ele>246.5</ele><time>2026-05-02T09:00:26.003Z</time></trkpt><trkpt lat="43.28756610351099" lon="11.34449081953001"><ele>247.25</ele><time>2026-05-02T09:00:27.003Z</time></trkpt><trkpt lat="43.28748202504899" lon="11.34460019009888"><ele>248.0</ele><time>2026-05-02T09:00:28.003Z</time></trkpt><trkpt lat="43.287397602981365" lon="11.3447107065363"><ele>247.0</ele><time>2026-05-02T09:00:29.003Z</time></trkpt><trkpt lat="43.28731796325808" lon="11.344818330542186"><ele>246.0</ele><time>2026-05-02T09:00:30.003Z</time></trkpt><trkpt lat="43.287237473949624" lon="11.344931581086136"><ele>245.0</ele><time>2026-05-02T09:00:31.003Z</time></trkpt><trkpt lat="43.287159394659035" lon="11.345056133564873"><ele>244.0</ele><time>2026-05-02T09:00:32.003Z</time></trkpt><trkpt lat="43.287082122317315" lon="11.345196052515108"><ele>244.0</ele><time>2026-05-02T09:00:33.003Z</time></trkpt><trkpt lat="43.28700912395812" lon="11.345348905844428"><ele>244.0</ele><time>2026-05-02T09:00:34.003Z</time></trkpt><trkpt lat="43.28693833665102" lon="11.345503307756836"><ele>244.0</ele><time>2026-05-02T09:00:35.003Z</time></trkpt><trkpt lat="43.28687835723" lon="11.345654535695168"><ele>244.0</ele><time>2026-05-02T09:00:36.003Z</time></trkpt><trkpt lat="43.286832375705245" lon="11.345805168656835"><ele>244.25</ele><time>2026-05-02T09:00:37.003Z</time></trkpt><trkpt lat="43.286794867031944" lon="11.345952442901954"><ele>244.5</ele><time>2026-05-02T09:00:38.003Z</time></trkpt><trkpt lat="43.28676678217696" lon="11.34612688401599"><ele>244.75</ele><time>2026-05-02T09:00:39.003Z</time></trkpt><trkpt lat="43.28672155424863" lon="11.346339867279967"><ele>245.0</ele><time>2026-05-02T09:00:40.003Z</time></trkpt><trkpt lat="43.286700855194404" lon="11.34656981865508"><ele>244.0</ele><time>2026-05-02T09:00:41.003Z</time></trkpt><trkpt lat="43.286702834846864" lon="11.346777237540334"><ele>243.0</ele><time>2026-05-02T09:00:42.003Z</time></trkpt><trkpt lat="43.28668504217666" lon="11.346967097495982"><ele>242.0</ele><time>2026-05-02T09:00:43.003Z</time></trkpt><trkpt lat="43.286666343232994" lon="11.3471651805645"><ele>241.0</ele><time>2026-05-02T09:00:44.003Z</time></trkpt><trkpt lat="43.28664163359501" lon="11.347358834654845"><ele>241.0</ele><time>2026-05-02T09:00:44.998Z</time></trkpt><trkpt lat="43.28659822475372" lon="11.347576385017916"><ele>241.0</ele><time>2026-05-02T09:00:45.998Z</time></trkpt><trkpt lat="43.286519050154624" lon="11.347809160403257"><ele>241.0</ele><time>2026-05-02T09:00:46.998Z</time></trkpt><trkpt lat="43.28643753882779" lon="11.348076432556347"><ele>237.66666666666666</ele><time>2026-05-02T09:00:47.998Z</time></trkpt><trkpt lat="43.28634965995911" lon="11.348364808180945"><ele>234.33333333333331</ele><time>2026-05-02T09:00:48.998Z</time></trkpt><trkpt lat="43.286247064101595" lon="11.348620532937021"><ele>231.0</ele><time>2026-05-02T09:00:49.998Z</time></trkpt><trkpt lat="43.28614904249779" lon="11.348860880574588"><ele>232.0</ele><time>2026-05-02T09:00:50.998Z</time></trkpt><trkpt lat="43.286053510054934" lon="11.349094884034342"><ele>233.0</ele><time>2026-05-02T09:00:51.998Z</time></trkpt><trkpt lat="43.28595811978177" lon="11.349331702428605"><ele>234.0</ele><time>2026-05-02T09:00:52.999Z</time></trkpt><trkpt lat="43.28586369438972" lon="11.349575233798815"><ele>234.33333333333331</ele><time>2026-05-02T09:00:53.999Z</time></trkpt><trkpt lat="43.28576919274123" lon="11.34982044965201"><ele>234.66666666666666</ele><time>2026-05-02T09:00:54.999Z</time></trkpt><trkpt lat="43.28567818287877" lon="11.350067511868215"><ele>235.0</ele><time>2026-05-02T09:00:55.999Z</time></trkpt><trkpt lat="43.28559401177599" lon="11.350315848876704"><ele>236.0</ele><time>2026-05-02T09:00:56.999Z</time></trkpt><trkpt lat="43.28551709075731" lon="11.350561362607152"><ele>237.0</ele><time>2026-05-02T09:00:57.999Z</time></trkpt><trkpt lat="43.28544119394779" lon="11.350799589058989"><ele>238.0</ele><time>2026-05-02T09:00:58.999Z</time></trkpt><trkpt lat="43.285368277541416" lon="11.351030816492802"><ele>238.0</ele><time>2026-05-02T09:00:59.999Z</time></trkpt><trkpt lat="43.28529387345268" lon="11.35125991242053"><ele>238.0</ele><time>2026-05-02T09:01:00.999Z</time></trkpt><trkpt lat="43.285225013421865" lon="11.351474696112792"><ele>238.0</ele><time>2026-05-02T09:01:01.999Z</time></trkpt><trkpt lat="43.285155704915766" lon="11.351698748953272"><ele>238.0</ele><time>2026-05-02T09:01:02.999Z</time></trkpt><trkpt lat="43.285084960101806" lon="11.35192366246988"><ele>238.0</ele><time>2026-05-02T09:01:03.999Z</time></trkpt><trkpt lat="43.28501567829533" lon="11.352142993854569"><ele>238.0</ele><time>2026-05-02T09:01:05Z</time></trkpt><trkpt lat="43.28494419683101" lon="11.352350583041991"><ele>238.0</ele><time>2026-05-02T09:01:06Z</time></trkpt><trkpt lat="43.284870142601086" lon="11.352542006650104"><ele>238.0</ele><time>2026-05-02T09:01:07Z</time></trkpt><trkpt lat="43.28478913684418" lon="11.352721111306913"><ele>238.0</ele><time>2026-05-02T09:01:08Z</time></trkpt><trkpt lat="43.284702683882195" lon="11.352882921774729"><ele>237.5</ele><time>2026-05-02T09:01:09Z</time></trkpt><trkpt lat="43.28460804761872" lon="11.353017900625158"><ele>237.0</ele><time>2026-05-02T09:01:10Z</time></trkpt><trkpt lat="43.28449833420521" lon="11.353144592644618"><ele>236.5</ele><time>2026-05-02T09:01:11Z</time></trkpt><trkpt lat="43.28437558734094" lon="11.3532692121918"><ele>236.0</ele><time>2026-05-02T09:01:12Z</time></trkpt><trkpt lat="43.284252547779225" lon="11.35338022181103"><ele>236.0</ele><time>2026-05-02T09:01:13Z</time></trkpt><trkpt lat="43.28412680771087" lon="11.353474341748683"><ele>236.0</ele><time>2026-05-02T09:01:14Z</time></trkpt><trkpt lat="43.28399604664215" lon="11.353550429698663"><ele>236.0</ele><time>2026-05-02T09:01:15Z</time></trkpt><trkpt lat="43.28385892047839" lon="11.353613542609377"><ele>236.0</ele><time>2026-05-02T09:01:16Z</time></trkpt><trkpt lat="43.28372115015839" lon="11.353661010239069"><ele>236.5</ele><time>2026-05-02T09:01:17Z</time></trkpt><trkpt lat="43.28358790786595" lon="11.353688415835817"><ele>237.0</ele><time>2026-05-02T09:01:18Z</time></trkpt><trkpt lat="43.28345437892046" lon="11.353703568915568"><ele>237.5</ele><time>2026-05-02T09:01:19Z</time></trkpt><trkpt lat="43.28331980157165" lon="11.353700505581283"><ele>238.0</ele><time>2026-05-02T09:01:20Z</time></trkpt><trkpt lat="43.2831855628138" lon="11.35368589378553"><ele>238.0</ele><time>2026-05-02T09:01:21Z</time></trkpt><trkpt lat="43.283053080598805" lon="11.353662361119964"><ele>238.0</ele><time>2026-05-02T09:01:22Z</time></trkpt><trkpt lat="43.28292487362388" lon="11.353632767519663"><ele>238.0</ele><time>2026-05-02T09:01:23.001Z</time></trkpt><trkpt lat="43.28280051888065" lon="11.353602434103731"><ele>238.0</ele><time>2026-05-02T09:01:24.001Z</time></trkpt><trkpt lat="43.28268035687498" lon="11.353575926194697"><ele>238.0</ele><time>2026-05-02T09:01:25.001Z</time></trkpt><trkpt lat="43.282559904598344" lon="11.353552084712996"><ele>238.0</ele><time>2026-05-02T09:01:26.001Z</time></trkpt><trkpt lat="43.282438986923616" lon="11.353524915848332"><ele>238.0</ele><time>2026-05-02T09:01:27.001Z</time></trkpt><trkpt lat="43.28231969212862" lon="11.3534934045527"><ele>238.0</ele><time>2026-05-02T09:01:28.001Z</time></trkpt><trkpt lat="43.28220007783426" lon="11.353463056776555"><ele>238.0</ele><time>2026-05-02T09:01:29.001Z</time></trkpt><trkpt lat="43.28207929621133" lon="11.3534357271424"><ele>238.0</ele><time>2026-05-02T09:01:30.001Z</time></trkpt><trkpt lat="43.281956904952" lon="11.353406389855602"><ele>238.0</ele><time>2026-05-02T09:01:31.001Z</time></trkpt><trkpt lat="43.281831836694835" lon="11.353381461932743"><ele>238.0</ele><time>2026-05-02T09:01:32.001Z</time></trkpt><trkpt lat="43.281697405034855" lon="11.353352703717238"><ele>238.0</ele><time>2026-05-02T09:01:33.001Z</time></trkpt><trkpt lat="43.28155267940868" lon="11.353317107794643"><ele>238.0</ele><time>2026-05-02T09:01:34.001Z</time></trkpt><trkpt lat="43.28140016297851" lon="11.353276605815966"><ele>238.0</ele><time>2026-05-02T09:01:35.001Z</time></trkpt><trkpt lat="43.28124321350395" lon="11.353235088634394"><ele>238.0</ele><time>2026-05-02T09:01:36.001Z</time></trkpt><trkpt lat="43.28107906489658" lon="11.353190188817784"><ele>238.0</ele><time>2026-05-02T09:01:37.001Z</time></trkpt><trkpt lat="43.28091607145863" lon="11.353134663094627"><ele>238.0</ele><time>2026-05-02T09:01:38.001Z</time></trkpt><trkpt lat="43.28077019604174" lon="11.353080383127052"><ele>237.25</ele><time>2026-05-02T09:01:39.001Z</time></trkpt><trkpt lat="43.28063223894004" lon="11.353027939279594"><ele>236.5</ele><time>2026-05-02T09:01:40.001Z</time></trkpt><trkpt lat="43.280498570067074" lon="11.352978704422053"><ele>235.75</ele><time>2026-05-02T09:01:41.001Z</time></trkpt><trkpt lat="43.280369342238224" lon="11.352931177826436"><ele>235.0</ele><time>2026-05-02T09:01:42.001Z</time></trkpt><trkpt lat="43.28023996715057" lon="11.352885734568344"><ele>233.75</ele><time>2026-05-02T09:01:43.001Z</time></trkpt><trkpt lat="43.2801033863692" lon="11.352838212200833"><ele>232.5</ele><time>2026-05-02T09:01:44.001Z</time></trkpt><trkpt lat="43.279966799874934" lon="11.352805277717295"><ele>231.25</ele><time>2026-05-02T09:01:45.001Z</time></trkpt><trkpt lat="43.27982767290176" lon="11.352744888233172"><ele>230.0</ele><time>2026-05-02T09:01:46.001Z</time></trkpt><trkpt lat="43.279675913490905" lon="11.352706427428624"><ele>229.0</ele><time>2026-05-02T09:01:47.001Z</time></trkpt><trkpt lat="43.279511552182505" lon="11.35267469069493"><ele>228.0</ele><time>2026-05-02T09:01:48.001Z</time></trkpt><trkpt lat="43.279340188020896" lon="11.352645903714333"><ele>227.0</ele><time>2026-05-02T09:01:49.001Z</time></trkpt><trkpt lat="43.27916512561159" lon="11.352623987772157"><ele>227.0</ele><time>2026-05-02T09:01:50.001Z</time></trkpt><trkpt lat="43.278992304185344" lon="11.352618833394208"><ele>227.0</ele><time>2026-05-02T09:01:51.002Z</time></trkpt><trkpt lat="43.2788139907701" lon="11.352640895555483"><ele>227.0</ele><time>2026-05-02T09:01:52.002Z</time></trkpt><trkpt lat="43.27864224439611" lon="11.35272525497972"><ele>227.0</ele><time>2026-05-02T09:01:53.002Z</time></trkpt><trkpt lat="43.27847143104953" lon="11.352823731723811"><ele>227.0</ele><time>2026-05-02T09:01:54.002Z</time></trkpt><trkpt lat="43.278302004906855" lon="11.352927766420079"><ele>227.0</ele><time>2026-05-02T09:01:55.002Z</time></trkpt><trkpt lat="43.278137814733086" lon="11.353031699916748"><ele>228.33333333333334</ele><time>2026-05-02T09:01:56.002Z</time></trkpt><trkpt lat="43.27797792469841" lon="11.353128879536158"><ele>229.66666666666669</ele><time>2026-05-02T09:01:57.002Z</time></trkpt><trkpt lat="43.27781946329381" lon="11.353222279735876"><ele>231.0</ele><time>2026-05-02T09:01:58.002Z</time></trkpt><trkpt lat="43.27766882055272" lon="11.353313281032825"><ele>231.0</ele><time>2026-05-02T09:01:59.002Z</time></trkpt><trkpt lat="43.277518010801074" lon="11.353409971923396"><ele>231.0</ele><time>2026-05-02T09:02:00.002Z</time></trkpt><trkpt lat="43.27736477648197" lon="11.35349977898933"><ele>231.0</ele><time>2026-05-02T09:02:01.002Z</time></trkpt><trkpt lat="43.27720754415007" lon="11.353579860141602"><ele>231.33333333333331</ele><time>2026-05-02T09:02:02.002Z</time></trkpt><trkpt lat="43.2770477414446" lon="11.3536476337849"><ele>231.66666666666666</ele><time>2026-05-02T09:02:03.002Z</time></trkpt><trkpt lat="43.2768840009668" lon="11.35370270276356"><ele>232.0</ele><time>2026-05-02T09:02:04.002Z</time></trkpt><trkpt lat="43.27671563660531" lon="11.35373915522564"><ele>232.0</ele><time>2026-05-02T09:02:05.002Z</time></trkpt><trkpt lat="43.27654788598298" lon="11.35376550898001"><ele>232.0</ele><time>2026-05-02T09:02:06.002Z</time></trkpt><trkpt lat="43.27637787492091" lon="11.353795819171495"><ele>232.0</ele><time>2026-05-02T09:02:07.002Z</time></trkpt><trkpt lat="43.27620872176423" lon="11.35382606839008"><ele>230.33333333333331</ele><time>2026-05-02T09:02:08.002Z</time></trkpt><trkpt lat="43.2760393941203" lon="11.353860065987956"><ele>228.66666666666669</ele><time>2026-05-02T09:02:09.002Z</time></trkpt><trkpt lat="43.27587279598176" lon="11.353893075158714"><ele>227.0</ele><time>2026-05-02T09:02:10.002Z</time></trkpt><trkpt lat="43.27570842191866" lon="11.353925416905208"><ele>225.33333333333334</ele><time>2026-05-02T09:02:11.002Z</time></trkpt><trkpt lat="43.2755472994763" lon="11.353957080011387"><ele>223.66666666666669</ele><time>2026-05-02T09:02:12.002Z</time></trkpt><trkpt lat="43.27538597696916" lon="11.353988699503004"><ele>222.0</ele><time>2026-05-02T09:02:13.002Z</time></trkpt><trkpt lat="43.27522563123975" lon="11.354021979618775"><ele>222.0</ele><time>2026-05-02T09:02:14.002Z</time></trkpt><trkpt lat="43.275065818774" lon="11.354052646767263"><ele>222.0</ele><time>2026-05-02T09:02:15.002Z</time></trkpt><trkpt lat="43.27491157466542" lon="11.354086302625435"><ele>222.0</ele><time>2026-05-02T09:02:16.002Z</time></trkpt><trkpt lat="43.274762741301515" lon="11.354146517476876"><ele>223.0</ele><time>2026-05-02T09:02:17.002Z</time></trkpt><trkpt lat="43.27461855110277" lon="11.354232154466501"><ele>224.0</ele><time>2026-05-02T09:02:18.002Z</time></trkpt><trkpt lat="43.27448796477266" lon="11.354343050843505"><ele>225.0</ele><time>2026-05-02T09:02:19.002Z</time></trkpt><trkpt lat="43.274374889274" lon="11.354489854936183"><ele>225.0</ele><time>2026-05-02T09:02:20.002Z</time></trkpt><trkpt lat="43.274260051389184" lon="11.354648746475492"><ele>225.0</ele><time>2026-05-02T09:02:21.002Z</time></trkpt><trkpt lat="43.27414805776675" lon="11.354815316692932"><ele>225.0</ele><time>2026-05-02T09:02:22.002Z</time></trkpt><trkpt lat="43.2740488848709" lon="11.35497414174034"><ele>224.0</ele><time>2026-05-02T09:02:23.003Z</time></trkpt><trkpt lat="43.27393848842149" lon="11.355119752061475"><ele>223.0</ele><time>2026-05-02T09:02:24.003Z</time></trkpt><trkpt lat="43.273817880947256" lon="11.355255639245229"><ele>222.0</ele><time>2026-05-02T09:02:25.003Z</time></trkpt><trkpt lat="43.27369596704058" lon="11.355390753946038"><ele>222.25</ele><time>2026-05-02T09:02:26.003Z</time></trkpt><trkpt lat="43.27357627911511" lon="11.355522089680276"><ele>222.5</ele><time>2026-05-02T09:02:27.003Z</time></trkpt><trkpt lat="43.273464400903514" lon="11.35564784079191"><ele>222.75</ele><time>2026-05-02T09:02:28.003Z</time></trkpt><trkpt lat="43.27336192692044" lon="11.355766321427355"><ele>223.0</ele><time>2026-05-02T09:02:29.003Z</time></trkpt><trkpt lat="43.27325310621421" lon="11.35586638005883"><ele>223.0</ele><time>2026-05-02T09:02:30.003Z</time></trkpt><trkpt lat="43.27314860654744" lon="11.355983725899112"><ele>223.0</ele><time>2026-05-02T09:02:31.003Z</time></trkpt><trkpt lat="43.2730513486243" lon="11.356118948859322"><ele>223.0</ele><time>2026-05-02T09:02:32.003Z</time></trkpt><trkpt lat="43.27293918690832" lon="11.3562340502005"><ele>223.0</ele><time>2026-05-02T09:02:33.003Z</time></trkpt><trkpt lat="43.27282212641154" lon="11.3563485848173"><ele>224.33333333333331</ele><time>2026-05-02T09:02:34.003Z</time></trkpt><trkpt lat="43.272706140249745" lon="11.356475757147376"><ele>225.66666666666669</ele><time>2026-05-02T09:02:35.003Z</time></trkpt><trkpt lat="43.27258992090952" lon="11.356611278559566"><ele>227.0</ele><time>2026-05-02T09:02:36.003Z</time></trkpt><trkpt lat="43.272475080165925" lon="11.356743114940084"><ele>227.0</ele><time>2026-05-02T09:02:37.003Z</time></trkpt><trkpt lat="43.272353426747166" lon="11.35688155789021"><ele>227.0</ele><time>2026-05-02T09:02:38.003Z</time></trkpt><trkpt lat="43.272230256058705" lon="11.357023459486266"><ele>227.0</ele><time>2026-05-02T09:02:39.003Z</time></trkpt><trkpt lat="43.27211146518161" lon="11.357151528742614"><ele>226.33333333333334</ele><time>2026-05-02T09:02:40.003Z</time></trkpt><trkpt lat="43.27201386225626" lon="11.357260561126962"><ele>225.66666666666669</ele><time>2026-05-02T09:02:41.003Z</time></trkpt><trkpt lat="43.271938315720405" lon="11.357341228107362"><ele>225.0</ele><time>2026-05-02T09:02:42.003Z</time></trkpt><trkpt lat="43.27187884338985" lon="11.35738626411349"><ele>224.33333333333331</ele><time>2026-05-02T09:02:43.003Z</time></trkpt><trkpt lat="43.27180657591693" lon="11.357395843276088"><ele>223.66666666666666</ele><time>2026-05-02T09:02:44.003Z</time></trkpt><trkpt lat="43.271737156854165" lon="11.357336260275924"><ele>223.0</ele><time>2026-05-02T09:02:45.003Z</time></trkpt><trkpt lat="43.2716514653452" lon="11.357244066626478"><ele>223.0</ele><time>2026-05-02T09:02:46.003Z</time></trkpt><trkpt lat="43.27154384685593" lon="11.357154202078432"><ele>223.0</ele><time>2026-05-02T09:02:47.003Z</time></trkpt><trkpt lat="43.27145496360657" lon="11.357050143137831"><ele>223.0</ele><time>2026-05-02T09:02:48.003Z</time></trkpt><trkpt lat="43.27135614659859" lon="11.356935882022212"><ele>223.0</ele><time>2026-05-02T09:02:49.003Z</time></trkpt><trkpt lat="43.271251628427734" lon="11.35682844767963"><ele>222.75</ele><time>2026-05-02T09:02:50.003Z</time></trkpt><trkpt lat="43.27115146611499" lon="11.356709238173254"><ele>222.5</ele><time>2026-05-02T09:02:51Z</time></trkpt><trkpt lat="43.27104252436262" lon="11.356598389445775"><ele>222.25</ele><time>2026-05-02T09:02:52Z</time></trkpt><trkpt lat="43.27093529217028" lon="11.356489630464226"><ele>222.0</ele><time>2026-05-02T09:02:53Z</time></trkpt><trkpt lat="43.27082889508287" lon="11.356374321540548"><ele>220.0</ele><time>2026-05-02T09:02:54Z</time></trkpt><trkpt lat="43.27072704665952" lon="11.356273898865483"><ele>218.0</ele><time>2026-05-02T09:02:55Z</time></trkpt><trkpt lat="43.27063356987237" lon="11.35617590628402"><ele>216.0</ele><time>2026-05-02T09:02:56Z</time></trkpt><trkpt lat="43.27055062909837" lon="11.35608842933358"><ele>214.0</ele><time>2026-05-02T09:02:57Z</time></trkpt><trkpt lat="43.27047686431471" lon="11.35601381096095"><ele>212.0</ele><time>2026-05-02T09:02:58Z</time></trkpt><trkpt lat="43.27040537034834" lon="11.35595421729542"><ele>211.6</ele><time>2026-05-02T09:02:59Z</time></trkpt><trkpt lat="43.2703380470619" lon="11.355918739261664"><ele>211.2</ele><time>2026-05-02T09:03:00Z</time></trkpt><trkpt lat="43.27024974530453" lon="11.355895475216906"><ele>210.8</ele><time>2026-05-02T09:03:01Z</time></trkpt><trkpt lat="43.270141005444906" lon="11.355892342062415"><ele>210.4</ele><time>2026-05-02T09:03:02Z</time></trkpt><trkpt lat="43.270013116067275" lon="11.355900785185733"><ele>210.0</ele><time>2026-05-02T09:03:03Z</time></trkpt><trkpt lat="43.26989590271223" lon="11.355917989643189"><ele>210.0</ele><time>2026-05-02T09:03:04Z</time></trkpt><trkpt lat="43.26980463893604" lon="11.355941415909852"><ele>210.0</ele><time>2026-05-02T09:03:05Z</time></trkpt><trkpt lat="43.269717422588634" lon="11.355950431267743"><ele>210.0</ele><time>2026-05-02T09:03:06Z</time></trkpt><trkpt lat="43.269633713073766" lon="11.355990036053718"><ele>210.0</ele><time>2026-05-02T09:03:07Z</time></trkpt><trkpt lat="43.26953561748447" lon="11.356058087541577"><ele>210.0</ele><time>2026-05-02T09:03:08Z</time></trkpt><trkpt lat="43.269432001342935" lon="11.356147343845244"><ele>208.0</ele><time>2026-05-02T09:03:09Z</time></trkpt><trkpt lat="43.269332273731585" lon="11.356249916761467"><ele>206.0</ele><time>2026-05-02T09:03:10Z</time></trkpt><trkpt lat="43.26925106709982" lon="11.356358547222449"><ele>204.0</ele><time>2026-05-02T09:03:11Z</time></trkpt><trkpt lat="43.269177430385604" lon="11.356457920795826"><ele>202.0</ele><time>2026-05-02T09:03:12Z</time></trkpt><trkpt lat="43.26911326065797" lon="11.356581178797956"><ele>202.0</ele><time>2026-05-02T09:03:13Z</time></trkpt><trkpt lat="43.26905300057453" lon="11.356722606561835"><ele>202.0</ele><time>2026-05-02T09:03:14Z</time></trkpt><trkpt lat="43.26900496746033" lon="11.3568513297312"><ele>202.0</ele><time>2026-05-02T09:03:15Z</time></trkpt><trkpt lat="43.268968061455986" lon="11.356980648987722"><ele>202.0</ele><time>2026-05-02T09:03:16Z</time></trkpt><trkpt lat="43.2689481420428" lon="11.357102267676526"><ele>202.0</ele><time>2026-05-02T09:03:17Z</time></trkpt><trkpt lat="43.26893400306012" lon="11.35725049044054"><ele>198.75</ele><time>2026-05-02T09:03:18Z</time></trkpt><trkpt lat="43.268925336802965" lon="11.357430919973345"><ele>195.5</ele><time>2026-05-02T09:03:19Z</time></trkpt><trkpt lat="43.26893701164303" lon="11.357637767693472"><ele>192.25</ele><time>2026-05-02T09:03:20Z</time></trkpt><trkpt lat="43.26893427582892" lon="11.357837772938252"><ele>189.0</ele><time>2026-05-02T09:03:21Z</time></trkpt><trkpt lat="43.26892377227012" lon="11.358029648855396"><ele>189.0</ele><time>2026-05-02T09:03:22.001Z</time></trkpt><trkpt lat="43.26891363240984" lon="11.358216555991584"><ele>189.0</ele><time>2026-05-02T09:03:23.001Z</time></trkpt><trkpt lat="43.26889322850954" lon="11.358400846003454"><ele>189.0</ele><time>2026-05-02T09:03:24.001Z</time></trkpt><trkpt lat="43.26885412338324" lon="11.358589622512994"><ele>189.0</ele><time>2026-05-02T09:03:25.001Z</time></trkpt><trkpt lat="43.268799415895" lon="11.35876878903764"><ele>189.25</ele><time>2026-05-02T09:03:26.001Z</time></trkpt><trkpt lat="43.26872927776428" lon="11.358925391142728"><ele>189.5</ele><time>2026-05-02T09:03:27.001Z</time></trkpt><trkpt lat="43.26864217939867" lon="11.359061102341647"><ele>189.75</ele><time>2026-05-02T09:03:28.001Z</time></trkpt><trkpt lat="43.26852104116663" lon="11.359157602154058"><ele>190.0</ele><time>2026-05-02T09:03:29.001Z</time></trkpt><trkpt lat="43.26840124518928" lon="11.359257212532661"><ele>190.0</ele><time>2026-05-02T09:03:30.001Z</time></trkpt><trkpt lat="43.26825097869735" lon="11.359331631763647"><ele>190.0</ele><time>2026-05-02T09:03:31.001Z</time></trkpt><trkpt lat="43.268083578674755" lon="11.359389131319466"><ele>190.0</ele><time>2026-05-02T09:03:32.001Z</time></trkpt><trkpt lat="43.26793550968667" lon="11.35938430760102"><ele>188.66666666666669</ele><time>2026-05-02T09:03:33.001Z</time></trkpt><trkpt lat="43.267789434888186" lon="11.3593502377611"><ele>187.33333333333334</ele><time>2026-05-02T09:03:34.001Z</time></trkpt><trkpt lat="43.26762091425641" lon="11.35929443003683"><ele>186.0</ele><time>2026-05-02T09:03:35.001Z</time></trkpt><trkpt lat="43.26742152537872" lon="11.359216644896273"><ele>185.66666666666666</ele><time>2026-05-02T09:03:36.001Z</time></trkpt><trkpt lat="43.26724301096367" lon="11.359137024375963"><ele>185.33333333333331</ele><time>2026-05-02T09:03:37.001Z</time></trkpt><trkpt lat="43.26708729656419" lon="11.359070048273203"><ele>185.0</ele><time>2026-05-02T09:03:38.001Z</time></trkpt><trkpt lat="43.26694702489246" lon="11.359012981974452"><ele>185.0</ele><time>2026-05-02T09:03:39.001Z</time></trkpt><trkpt lat="43.26682018980854" lon="11.358961381972799"><ele>185.0</ele><time>2026-05-02T09:03:40.001Z</time></trkpt><trkpt lat="43.266702621322445" lon="11.358913621136784"><ele>185.0</ele><time>2026-05-02T09:03:41.001Z</time></trkpt><trkpt lat="43.266591755129554" lon="11.358868664540715"><ele>185.0</ele><time>2026-05-02T09:03:42.001Z</time></trkpt><trkpt lat="43.26648366598322" lon="11.358835259085618"><ele>185.0</ele><time>2026-05-02T09:03:43.001Z</time></trkpt><trkpt lat="43.26637320100381" lon="11.358792923443719"><ele>185.0</ele><time>2026-05-02T09:03:44.001Z</time></trkpt><trkpt lat="43.26626069455077" lon="11.358744404519713"><ele>185.0</ele><time>2026-05-02T09:03:45.001Z</time></trkpt><trkpt lat="43.2661358533083" lon="11.358678882799548"><ele>185.0</ele><time>2026-05-02T09:03:46.001Z</time></trkpt><trkpt lat="43.266004994456004" lon="11.358634299230097"><ele>185.0</ele><time>2026-05-02T09:03:47.001Z</time></trkpt><trkpt lat="43.26587607742438" lon="11.358577495093348"><ele>185.0</ele><time>2026-05-02T09:03:48.001Z</time></trkpt><trkpt lat="43.265752588326386" lon="11.358514007873625"><ele>185.0</ele><time>2026-05-02T09:03:49.001Z</time></trkpt><trkpt lat="43.26561566171985" lon="11.358460502000367"><ele>185.0</ele><time>2026-05-02T09:03:50.001Z</time></trkpt><trkpt lat="43.2654809717791" lon="11.358395691795616"><ele>184.75</ele><time>2026-05-02T09:03:51.001Z</time></trkpt><trkpt lat="43.265338197565264" lon="11.35833400502014"><ele>184.5</ele><time>2026-05-02T09:03:52.001Z</time></trkpt><trkpt lat="43.26520735795211" lon="11.358277860248897"><ele>184.25</ele><time>2026-05-02T09:03:53.001Z</time></trkpt><trkpt lat="43.2650871310204" lon="11.358228094031439"><ele>184.0</ele><time>2026-05-02T09:03:54.002Z</time></trkpt><trkpt lat="43.26498825332853" lon="11.358192213946666"><ele>184.0</ele><time>2026-05-02T09:03:55.002Z</time></trkpt><trkpt lat="43.26489622385156" lon="11.358182894498505"><ele>184.0</ele><time>2026-05-02T09:03:56.002Z</time></trkpt><trkpt lat="43.264791494695224" lon="11.358205843692234"><ele>184.0</ele><time>2026-05-02T09:03:57.002Z</time></trkpt><trkpt lat="43.264687093203335" lon="11.358265565561842"><ele>184.0</ele><time>2026-05-02T09:03:58.002Z</time></trkpt><trkpt lat="43.2645827126927" lon="11.358339562041776"><ele>184.0</ele><time>2026-05-02T09:03:59.002Z</time></trkpt><trkpt lat="43.26451861152883" lon="11.35849456006064"><ele>184.0</ele><time>2026-05-02T09:04:00.002Z</time></trkpt><trkpt lat="43.26443649400401" lon="11.358656968676769"><ele>184.0</ele><time>2026-05-02T09:04:01.002Z</time></trkpt><trkpt lat="43.264333314906814" lon="11.358816308189436"><ele>184.0</ele><time>2026-05-02T09:04:02.002Z</time></trkpt><trkpt lat="43.26424226042401" lon="11.35896607619202"><ele>184.0</ele><time>2026-05-02T09:04:03.002Z</time></trkpt><trkpt lat="43.2641539706167" lon="11.359091312956993"><ele>184.0</ele><time>2026-05-02T09:04:04.002Z</time></trkpt><trkpt lat="43.26405820448687" lon="11.359190196431586"><ele>184.0</ele><time>2026-05-02T09:04:05.002Z</time></trkpt><trkpt lat="43.26394551484749" lon="11.359288218330157"><ele>184.0</ele><time>2026-05-02T09:04:06.002Z</time></trkpt><trkpt lat="43.263804912017484" lon="11.359388612538659"><ele>184.0</ele><time>2026-05-02T09:04:07.002Z</time></trkpt><trkpt lat="43.26366646556571" lon="11.359479190200936"><ele>183.66666666666669</ele><time>2026-05-02T09:04:08.002Z</time></trkpt><trkpt lat="43.26353019445542" lon="11.359572747447858"><ele>183.33333333333334</ele><time>2026-05-02T09:04:09.002Z</time></trkpt><trkpt lat="43.26339733149376" lon="11.35971567321705"><ele>183.0</ele><time>2026-05-02T09:04:10.002Z</time></trkpt><trkpt lat="43.26323633775082" lon="11.359846231484433"><ele>184.5</ele><time>2026-05-02T09:04:11.002Z</time></trkpt><trkpt lat="43.26305869538396" lon="11.360041815007193"><ele>186.0</ele><time>2026-05-02T09:04:12.002Z</time></trkpt><trkpt lat="43.2628943976521" lon="11.360250119870626"><ele>186.0</ele><time>2026-05-02T09:04:13.002Z</time></trkpt><trkpt lat="43.262712092442506" lon="11.360452087020747"><ele>186.0</ele><time>2026-05-02T09:04:14.002Z</time></trkpt><trkpt lat="43.26255076215737" lon="11.360643723541822"><ele>186.0</ele><time>2026-05-02T09:04:15.002Z</time></trkpt><trkpt lat="43.26240063265834" lon="11.360840617734699"><ele>187.0</ele><time>2026-05-02T09:04:16.002Z</time></trkpt><trkpt lat="43.26225870518171" lon="11.360993657763899"><ele>188.0</ele><time>2026-05-02T09:04:17.002Z</time></trkpt><trkpt lat="43.26212907500611" lon="11.36115230897757"><ele>189.0</ele><time>2026-05-02T09:04:18.002Z</time></trkpt><trkpt lat="43.26200413138864" lon="11.361290669615386"><ele>186.66666666666666</ele><time>2026-05-02T09:04:19.002Z</time></trkpt><trkpt lat="43.26185214496444" lon="11.361430017970099"><ele>184.33333333333331</ele><time>2026-05-02T09:04:20.002Z</time></trkpt><trkpt lat="43.26167716520146" lon="11.361570913044314"><ele>182.0</ele><time>2026-05-02T09:04:21.002Z</time></trkpt><trkpt lat="43.261507543166594" lon="11.361682523130492"><ele>182.0</ele><time>2026-05-02T09:04:22.002Z</time></trkpt><trkpt lat="43.26134345662116" lon="11.36176865011872"><ele>182.0</ele><time>2026-05-02T09:04:23.002Z</time></trkpt><trkpt lat="43.2611894620145" lon="11.361842860746206"><ele>182.0</ele><time>2026-05-02T09:04:24.002Z</time></trkpt><trkpt lat="43.26103721626413" lon="11.361900584991696"><ele>182.0</ele><time>2026-05-02T09:04:25.002Z</time></trkpt><trkpt lat="43.26087782138801" lon="11.361935620012186"><ele>182.0</ele><time>2026-05-02T09:04:26.002Z</time></trkpt><trkpt lat="43.260713562415184" lon="11.36194407162434"><ele>182.0</ele><time>2026-05-02T09:04:27.002Z</time></trkpt><trkpt lat="43.26055766540734" lon="11.3619332111822"><ele>183.0</ele><time>2026-05-02T09:04:28.003Z</time></trkpt><trkpt lat="43.26038417180027" lon="11.36190169704786"><ele>184.0</ele><time>2026-05-02T09:04:29.003Z</time></trkpt><trkpt lat="43.260192335653734" lon="11.361874117257164"><ele>185.0</ele><time>2026-05-02T09:04:30.003Z</time></trkpt><trkpt lat="43.259982163982116" lon="11.361809645744096"><ele>187.66666666666666</ele><time>2026-05-02T09:04:31.003Z</time></trkpt><trkpt lat="43.25978110479739" lon="11.361743703180473"><ele>190.33333333333331</ele><time>2026-05-02T09:04:32.003Z</time></trkpt><trkpt lat="43.25961232309691" lon="11.361674645585401"><ele>193.0</ele><time>2026-05-02T09:04:33.003Z</time></trkpt><trkpt lat="43.25946981065449" lon="11.361608495313407"><ele>193.0</ele><time>2026-05-02T09:04:34.003Z</time></trkpt><trkpt lat="43.25933858183537" lon="11.361537223870432"><ele>193.0</ele><time>2026-05-02T09:04:35.003Z</time></trkpt><trkpt lat="43.259226772647054" lon="11.361479734199474"><ele>193.0</ele><time>2026-05-02T09:04:36.003Z</time></trkpt><trkpt lat="43.25912494037178" lon="11.361403935778416"><ele>193.0</ele><time>2026-05-02T09:04:37.003Z</time></trkpt><trkpt lat="43.25901049497664" lon="11.36136262130104"><ele>193.5</ele><time>2026-05-02T09:04:38.003Z</time></trkpt><trkpt lat="43.25890088131442" lon="11.361268497352919"><ele>194.0</ele><time>2026-05-02T09:04:39.003Z</time></trkpt><trkpt lat="43.25877754519494" lon="11.36119750170481"><ele>194.5</ele><time>2026-05-02T09:04:40.003Z</time></trkpt><trkpt lat="43.25866240609618" lon="11.36109415105333"><ele>195.0</ele><time>2026-05-02T09:04:41.003Z</time></trkpt><trkpt lat="43.25854023811747" lon="11.360982228948048"><ele>195.0</ele><time>2026-05-02T09:04:42.003Z</time></trkpt><trkpt lat="43.25842647700183" lon="11.360863783937539"><ele>195.0</ele><time>2026-05-02T09:04:43.003Z</time></trkpt><trkpt lat="43.258322717247296" lon="11.360757199776284"><ele>195.0</ele><time>2026-05-02T09:04:44.003Z</time></trkpt><trkpt lat="43.25821310150594" lon="11.36064969484424"><ele>195.0</ele><time>2026-05-02T09:04:45.003Z</time></trkpt><trkpt lat="43.25810204031442" lon="11.360543813132209"><ele>195.0</ele><time>2026-05-02T09:04:46.003Z</time></trkpt><trkpt lat="43.25799321922721" lon="11.360452025686659"><ele>195.0</ele><time>2026-05-02T09:04:47.003Z</time></trkpt><trkpt lat="43.25786374322823" lon="11.360370498036703"><ele>195.0</ele><time>2026-05-02T09:04:48.003Z</time></trkpt><trkpt lat="43.25771227069537" lon="11.360300660981931"><ele>195.0</ele><time>2026-05-02T09:04:49.003Z</time></trkpt><trkpt lat="43.25755320466768" lon="11.360237491296873"><ele>195.0</ele><time>2026-05-02T09:04:50.003Z</time></trkpt><trkpt lat="43.25739422833314" lon="11.360172811026343"><ele>195.0</ele><time>2026-05-02T09:04:51.003Z</time></trkpt><trkpt lat="43.25725942485729" lon="11.360122411088028"><ele>195.0</ele><time>2026-05-02T09:04:52.003Z</time></trkpt><trkpt lat="43.257129560640514" lon="11.3600902920584"><ele>195.0</ele><time>2026-05-02T09:04:53.003Z</time></trkpt><trkpt lat="43.25699032358238" lon="11.360076119239414"><ele>196.0</ele><time>2026-05-02T09:04:54.003Z</time></trkpt><trkpt lat="43.25684643236876" lon="11.360075894747979"><ele>197.0</ele><time>2026-05-02T09:04:55.003Z</time></trkpt><trkpt lat="43.256705482247945" lon="11.360088381858546"><ele>198.0</ele><time>2026-05-02T09:04:56.003Z</time></trkpt><trkpt lat="43.25656651234764" lon="11.360091776537173"><ele>199.0</ele><time>2026-05-02T09:04:57Z</time></trkpt><trkpt lat="43.25643511700909" lon="11.360119545728269"><ele>200.0</ele><time>2026-05-02T09:04:58Z</time></trkpt><trkpt lat="43.25631361882726" lon="11.360150722285994"><ele>201.0</ele><time>2026-05-02T09:04:59Z</time></trkpt><trkpt lat="43.256200970118115" lon="11.360183779006368"><ele>202.0</ele><time>2026-05-02T09:05:00Z</time></trkpt><trkpt lat="43.256093075163" lon="11.360250803084966"><ele>203.0</ele><time>2026-05-02T09:05:01Z</time></trkpt><trkpt lat="43.25598246636846" lon="11.360316729701202"><ele>203.0</ele><time>2026-05-02T09:05:02Z</time></trkpt><trkpt lat="43.255859057118876" lon="11.360416501292324"><ele>203.0</ele><time>2026-05-02T09:05:03Z</time></trkpt><trkpt lat="43.25571631941937" lon="11.360488219240038"><ele>203.0</ele><time>2026-05-02T09:05:04Z</time></trkpt><trkpt lat="43.25558229881265" lon="11.360581670616671"><ele>203.0</ele><time>2026-05-02T09:05:05Z</time></trkpt><trkpt lat="43.25545202235358" lon="11.360702396436656"><ele>206.66666666666669</ele><time>2026-05-02T09:05:06Z</time></trkpt><trkpt lat="43.25531057808539" lon="11.360804663459609"><ele>210.33333333333331</ele><time>2026-05-02T09:05:07Z</time></trkpt><trkpt lat="43.255184622843636" lon="11.360945657014641"><ele>214.0</ele><time>2026-05-02T09:05:08Z</time></trkpt><trkpt lat="43.25506837123589" lon="11.361121321235219"><ele>214.0</ele><time>2026-05-02T09:05:09Z</time></trkpt><trkpt lat="43.25495372502599" lon="11.361328983498067"><ele>214.0</ele><time>2026-05-02T09:05:10Z</time></trkpt><trkpt lat="43.25485784552568" lon="11.361523981554763"><ele>214.0</ele><time>2026-05-02T09:05:11Z</time></trkpt><trkpt lat="43.25477809021202" lon="11.361694634797093"><ele>216.75</ele><time>2026-05-02T09:05:12Z</time></trkpt><trkpt lat="43.25469301243329" lon="11.36183367543428"><ele>219.5</ele><time>2026-05-02T09:05:13Z</time></trkpt><trkpt lat="43.25460376887057" lon="11.36196898271707"><ele>222.25</ele><time>2026-05-02T09:05:14Z</time></trkpt><trkpt lat="43.25448875733496" lon="11.362085130568797"><ele>225.0</ele><time>2026-05-02T09:05:15Z</time></trkpt><trkpt lat="43.25437572539479" lon="11.362175573984054"><ele>225.0</ele><time>2026-05-02T09:05:16Z</time></trkpt><trkpt lat="43.25426360828489" lon="11.362242754161885"><ele>225.0</ele><time>2026-05-02T09:05:17Z</time></trkpt><trkpt lat="43.25414068257378" lon="11.362305198549514"><ele>225.0</ele><time>2026-05-02T09:05:18Z</time></trkpt><trkpt lat="43.253985099376706" lon="11.362346188100076"><ele>225.0</ele><time>2026-05-02T09:05:19Z</time></trkpt><trkpt lat="43.253801159949305" lon="11.36236958574008"><ele>225.0</ele><time>2026-05-02T09:05:20Z</time></trkpt><trkpt lat="43.25362599745426" lon="11.362416553312288"><ele>225.0</ele><time>2026-05-02T09:05:21Z</time></trkpt><trkpt lat="43.25345268335894" lon="11.362454720881649"><ele>225.0</ele><time>2026-05-02T09:05:22Z</time></trkpt><trkpt lat="43.253266959717" lon="11.362515805600479"><ele>226.0</ele><time>2026-05-02T09:05:23Z</time></trkpt><trkpt lat="43.25306713470058" lon="11.362596980845488"><ele>227.0</ele><time>2026-05-02T09:05:24Z</time></trkpt><trkpt lat="43.25287361353771" lon="11.362695287086673"><ele>228.0</ele><time>2026-05-02T09:05:25Z</time></trkpt><trkpt lat="43.25271310720978" lon="11.36279617486246"><ele>228.0</ele><time>2026-05-02T09:05:26Z</time></trkpt><trkpt lat="43.25258098093878" lon="11.362879862310601"><ele>228.0</ele><time>2026-05-02T09:05:27Z</time></trkpt><trkpt lat="43.25248074010092" lon="11.362945316991452"><ele>228.0</ele><time>2026-05-02T09:05:28.001Z</time></trkpt><trkpt lat="43.25240139169554" lon="11.363012498964169"><ele>228.0</ele><time>2026-05-02T09:05:29.001Z</time></trkpt><trkpt lat="43.25232045951779" lon="11.363115375271748"><ele>229.25</ele><time>2026-05-02T09:05:30.001Z</time></trkpt><trkpt lat="43.25220350722094" lon="11.363232423070132"><ele>230.5</ele><time>2026-05-02T09:05:31.001Z</time></trkpt><trkpt lat="43.252092090941105" lon="11.363351024755888"><ele>231.75</ele><time>2026-05-02T09:05:32.001Z</time></trkpt><trkpt lat="43.25199559850439" lon="11.363429374888435"><ele>233.0</ele><time>2026-05-02T09:05:33.001Z</time></trkpt><trkpt lat="43.25190975697367" lon="11.36349367807579"><ele>233.0</ele><time>2026-05-02T09:05:34.001Z</time></trkpt><trkpt lat="43.25181075351054" lon="11.363549931633345"><ele>233.0</ele><time>2026-05-02T09:05:35.001Z</time></trkpt><trkpt lat="43.25169407190482" lon="11.363588865816117"><ele>233.0</ele><time>2026-05-02T09:05:36.001Z</time></trkpt><trkpt lat="43.25157524257932" lon="11.36360047462958"><ele>233.0</ele><time>2026-05-02T09:05:37.001Z</time></trkpt><trkpt lat="43.251463726531966" lon="11.363593490444185"><ele>231.0</ele><time>2026-05-02T09:05:38.001Z</time></trkpt><trkpt lat="43.25134777464255" lon="11.36357153103994"><ele>229.0</ele><time>2026-05-02T09:05:39.001Z</time></trkpt><trkpt lat="43.25121067478246" lon="11.363525373646617"><ele>227.0</ele><time>2026-05-02T09:05:40.001Z</time></trkpt><trkpt lat="43.25108726641083" lon="11.363467468893578"><ele>225.0</ele><time>2026-05-02T09:05:41.001Z</time></trkpt><trkpt lat="43.2509644750333" lon="11.363412580652666"><ele>225.0</ele><time>2026-05-02T09:05:42.001Z</time></trkpt><trkpt lat="43.250831590756256" lon="11.363360094840385"><ele>225.0</ele><time>2026-05-02T09:05:43.001Z</time></trkpt><trkpt lat="43.25069117256867" lon="11.3633325978377"><ele>225.0</ele><time>2026-05-02T09:05:44.001Z</time></trkpt><trkpt lat="43.25054626279139" lon="11.363290147386932"><ele>225.0</ele><time>2026-05-02T09:05:45.001Z</time></trkpt><trkpt lat="43.25039883638391" lon="11.363250668065717"><ele>224.33333333333331</ele><time>2026-05-02T09:05:46.001Z</time></trkpt><trkpt lat="43.25025092363352" lon="11.363216455841593"><ele>223.66666666666666</ele><time>2026-05-02T09:05:47.001Z</time></trkpt><trkpt lat="43.25010243453608" lon="11.363177275688548"><ele>223.0</ele><time>2026-05-02T09:05:48.001Z</time></trkpt><trkpt lat="43.24995284128548" lon="11.363132590848714"><ele>223.0</ele><time>2026-05-02T09:05:49.001Z</time></trkpt><trkpt lat="43.24981148342312" lon="11.363089403414241"><ele>223.0</ele><time>2026-05-02T09:05:50.001Z</time></trkpt><trkpt lat="43.2496718460091" lon="11.363059560002378"><ele>223.0</ele><time>2026-05-02T09:05:51.001Z</time></trkpt><trkpt lat="43.24953365306777" lon="11.363058223035583"><ele>223.0</ele><time>2026-05-02T09:05:52.001Z</time></trkpt><trkpt lat="43.24939390986277" lon="11.36309723719284"><ele>224.66666666666666</ele><time>2026-05-02T09:05:53.001Z</time></trkpt><trkpt lat="43.2492584713787" lon="11.363172147088077"><ele>226.33333333333331</ele><time>2026-05-02T09:05:54.001Z</time></trkpt><trkpt lat="43.2491205032039" lon="11.363281925596503"><ele>228.0</ele><time>2026-05-02T09:05:55.001Z</time></trkpt><trkpt lat="43.24900470005597" lon="11.363408767856505"><ele>228.0</ele><time>2026-05-02T09:05:56.001Z</time></trkpt><trkpt lat="43.248894825162196" lon="11.36355689216562"><ele>228.0</ele><time>2026-05-02T09:05:57.001Z</time></trkpt><trkpt lat="43.248770843413695" lon="11.36374195088825"><ele>228.0</ele><time>2026-05-02T09:05:58.001Z</time></trkpt><trkpt lat="43.24863992635585" lon="11.363943980502473"><ele>227.75</ele><time>2026-05-02T09:05:59.001Z</time></trkpt><trkpt lat="43.24851272912212" lon="11.364089829708806"><ele>227.5</ele><time>2026-05-02T09:06:00.002Z</time></trkpt><trkpt lat="43.24842307560852" lon="11.36424319238645"><ele>227.25</ele><time>2026-05-02T09:06:01.002Z</time></trkpt><trkpt lat="43.24834070524864" lon="11.364361925014988"><ele>227.0</ele><time>2026-05-02T09:06:02.002Z</time></trkpt><trkpt lat="43.24828783942581" lon="11.364476061780074"><ele>227.0</ele><time>2026-05-02T09:06:03.002Z</time></trkpt><trkpt lat="43.24825005393696" lon="11.364628071439622"><ele>227.0</ele><time>2026-05-02T09:06:04.002Z</time></trkpt><trkpt lat="43.248237619437546" lon="11.364818071908545"><ele>227.0</ele><time>2026-05-02T09:06:05.002Z</time></trkpt><trkpt lat="43.24824777025315" lon="11.365031688816284"><ele>227.0</ele><time>2026-05-02T09:06:06.002Z</time></trkpt><trkpt lat="43.24823493072087" lon="11.365213404967818"><ele>226.5</ele><time>2026-05-02T09:06:07.002Z</time></trkpt><trkpt lat="43.24821008578099" lon="11.365364170510663"><ele>226.0</ele><time>2026-05-02T09:06:08.002Z</time></trkpt><trkpt lat="43.24814388108015" lon="11.365500008843275"><ele>225.5</ele><time>2026-05-02T09:06:09.002Z</time></trkpt><trkpt lat="43.248054014087124" lon="11.365647087140358"><ele>225.0</ele><time>2026-05-02T09:06:10.002Z</time></trkpt><trkpt lat="43.24795973242048" lon="11.36578009361138"><ele>224.5</ele><time>2026-05-02T09:06:11.002Z</time></trkpt><trkpt lat="43.24786133875624" lon="11.365901690928906"><ele>224.0</ele><time>2026-05-02T09:06:12.002Z</time></trkpt><trkpt lat="43.24774110233585" lon="11.365986789534931"><ele>223.5</ele><time>2026-05-02T09:06:13.002Z</time></trkpt><trkpt lat="43.247592119448505" lon="11.366029565884956"><ele>223.0</ele><time>2026-05-02T09:06:14.002Z</time></trkpt><trkpt lat="43.24740735829105" lon="11.366066878965684"><ele>222.0</ele><time>2026-05-02T09:06:15.002Z</time></trkpt><trkpt lat="43.24717755096477" lon="11.366116758842793"><ele>221.0</ele><time>2026-05-02T09:06:16.002Z</time></trkpt><trkpt lat="43.24694675895703" lon="11.366196405708218"><ele>221.0</ele><time>2026-05-02T09:06:17.002Z</time></trkpt><trkpt lat="43.24675154117406" lon="11.366269885015583"><ele>221.0</ele><time>2026-05-02T09:06:18.002Z</time></trkpt><trkpt lat="43.24658503163805" lon="11.366346210992372"><ele>221.0</ele><time>2026-05-02T09:06:19.002Z</time></trkpt><trkpt lat="43.246437593194266" lon="11.366426739219909"><ele>221.75</ele><time>2026-05-02T09:06:20.002Z</time></trkpt><trkpt lat="43.24630816589573" lon="11.3665085818073"><ele>222.5</ele><time>2026-05-02T09:06:21.002Z</time></trkpt><trkpt lat="43.24619258102921" lon="11.366600110608049"><ele>223.25</ele><time>2026-05-02T09:06:22.002Z</time></trkpt><trkpt lat="43.24608574435709" lon="11.366715777268904"><ele>224.0</ele><time>2026-05-02T09:06:23.002Z</time></trkpt><trkpt lat="43.24598514838056" lon="11.366826103798397"><ele>224.0</ele><time>2026-05-02T09:06:24.002Z</time></trkpt><trkpt lat="43.24588898166685" lon="11.366931105480457"><ele>224.0</ele><time>2026-05-02T09:06:25.002Z</time></trkpt><trkpt lat="43.24579481785273" lon="11.367029411868668"><ele>224.0</ele><time>2026-05-02T09:06:26.002Z</time></trkpt><trkpt lat="43.245698889150646" lon="11.367126656574383"><ele>224.0</ele><time>2026-05-02T09:06:27.002Z</time></trkpt><trkpt lat="43.245600649080195" lon="11.367216023329076"><ele>223.0</ele><time>2026-05-02T09:06:28.002Z</time></trkpt><trkpt lat="43.2454949106139" lon="11.36728610907995"><ele>222.0</ele><time>2026-05-02T09:06:29.002Z</time></trkpt><trkpt lat="43.245378794719656" lon="11.367346940875262"><ele>221.0</ele><time>2026-05-02T09:06:30.002Z</time></trkpt><trkpt lat="43.24525904726212" lon="11.36740184897316"><ele>220.0</ele><time>2026-05-02T09:06:31.002Z</time></trkpt><trkpt lat="43.24513320521025" lon="11.367450422742984"><ele>220.0</ele><time>2026-05-02T09:06:32.002Z</time></trkpt><trkpt lat="43.245005368878445" lon="11.367491065465206"><ele>220.0</ele><time>2026-05-02T09:06:33.002Z</time></trkpt><trkpt lat="43.2448760636407" lon="11.36752941669016"><ele>220.0</ele><time>2026-05-02T09:06:34.003Z</time></trkpt><trkpt lat="43.24475136746385" lon="11.367566139113183"><ele>220.0</ele><time>2026-05-02T09:06:35.003Z</time></trkpt><trkpt lat="43.244632539472825" lon="11.367601133374642"><ele>220.75</ele><time>2026-05-02T09:06:36.003Z</time></trkpt><trkpt lat="43.24451019063396" lon="11.367639190898467"><ele>221.5</ele><time>2026-05-02T09:06:37.003Z</time></trkpt><trkpt lat="43.24438574206275" lon="11.36770331272469"><ele>222.25</ele><time>2026-05-02T09:06:38.003Z</time></trkpt><trkpt lat="43.24424963253884" lon="11.367727221659266"><ele>223.0</ele><time>2026-05-02T09:06:39.003Z</time></trkpt><trkpt lat="43.244110586419914" lon="11.367774362514679"><ele>223.0</ele><time>2026-05-02T09:06:40.003Z</time></trkpt><trkpt lat="43.24396684863185" lon="11.367834345052108"><ele>223.0</ele><time>2026-05-02T09:06:41.003Z</time></trkpt><trkpt lat="43.24383462617692" lon="11.367887141120761"><ele>223.0</ele><time>2026-05-02T09:06:42.003Z</time></trkpt><trkpt lat="43.24371351867071" lon="11.367924835937496"><ele>223.0</ele><time>2026-05-02T09:06:43.003Z</time></trkpt><trkpt lat="43.2435858804239" lon="11.367956158346963"><ele>222.66666666666666</ele><time>2026-05-02T09:06:44.003Z</time></trkpt><trkpt lat="43.2434427494924" lon="11.367959981425253"><ele>222.33333333333331</ele><time>2026-05-02T09:06:45.003Z</time></trkpt><trkpt lat="43.24329628917435" lon="11.368007112382115"><ele>222.0</ele><time>2026-05-02T09:06:46.003Z</time></trkpt><trkpt lat="43.24314041237245" lon="11.368034488885698"><ele>222.0</ele><time>2026-05-02T09:06:47.003Z</time></trkpt><trkpt lat="43.242998302442125" lon="11.368089114207823"><ele>222.0</ele><time>2026-05-02T09:06:48.003Z</time></trkpt><trkpt lat="43.2428716436207" lon="11.368149219151148"><ele>222.0</ele><time>2026-05-02T09:06:49.003Z</time></trkpt><trkpt lat="43.24274893303988" lon="11.368197060292143"><ele>222.0</ele><time>2026-05-02T09:06:50.003Z</time></trkpt><trkpt lat="43.2426510601352" lon="11.36829971563836"><ele>222.0</ele><time>2026-05-02T09:06:51.003Z</time></trkpt><trkpt lat="43.242543361523914" lon="11.36840755418027"><ele>222.0</ele><time>2026-05-02T09:06:52.003Z</time></trkpt><trkpt lat="43.242433788017856" lon="11.3685441256121"><ele>222.0</ele><time>2026-05-02T09:06:53.003Z</time></trkpt><trkpt lat="43.2423204785199" lon="11.368686513045121"><ele>222.0</ele><time>2026-05-02T09:06:54.003Z</time></trkpt><trkpt lat="43.24221051878751" lon="11.368822995239645"><ele>221.5</ele><time>2026-05-02T09:06:55.003Z</time></trkpt><trkpt lat="43.24210660742631" lon="11.368958339707552"><ele>221.0</ele><time>2026-05-02T09:06:56.003Z</time></trkpt><trkpt lat="43.24201075021988" lon="11.36908820345222"><ele>220.5</ele><time>2026-05-02T09:06:57.003Z</time></trkpt><trkpt lat="43.24192268156126" lon="11.36920859844828"><ele>220.0</ele><time>2026-05-02T09:06:58.003Z</time></trkpt><trkpt lat="43.241828638216475" lon="11.36932299745871"><ele>220.0</ele><time>2026-05-02T09:06:59.003Z</time></trkpt><trkpt lat="43.241728662300936" lon="11.369429222963284"><ele>220.0</ele><time>2026-05-02T09:07:00.003Z</time></trkpt><trkpt lat="43.24163026617396" lon="11.369549242516772"><ele>220.0</ele><time>2026-05-02T09:07:01.003Z</time></trkpt><trkpt lat="43.24152356960062" lon="11.369673639620133"><ele>220.0</ele><time>2026-05-02T09:07:02.003Z</time></trkpt><trkpt lat="43.24141372241482" lon="11.369797577876058"><ele>218.33333333333331</ele><time>2026-05-02T09:07:03Z</time></trkpt><trkpt lat="43.241293780802685" lon="11.369921840230882"><ele>216.66666666666669</ele><time>2026-05-02T09:07:04Z</time></trkpt><trkpt lat="43.241163121070436" lon="11.370048980172786"><ele>215.0</ele><time>2026-05-02T09:07:05Z</time></trkpt><trkpt lat="43.24103663034479" lon="11.370164946386392"><ele>215.0</ele><time>2026-05-02T09:07:06Z</time></trkpt><trkpt lat="43.24091222503923" lon="11.37027411412765"><ele>215.0</ele><time>2026-05-02T09:07:07Z</time></trkpt><trkpt lat="43.240796806368685" lon="11.370378325894766"><ele>215.0</ele><time>2026-05-02T09:07:08Z</time></trkpt><trkpt lat="43.24070157550368" lon="11.370487961169921"><ele>215.0</ele><time>2026-05-02T09:07:09Z</time></trkpt><trkpt lat="43.24060226223939" lon="11.37057436846972"><ele>215.5</ele><time>2026-05-02T09:07:10Z</time></trkpt><trkpt lat="43.240512002798866" lon="11.370693691870734"><ele>216.0</ele><time>2026-05-02T09:07:11Z</time></trkpt><trkpt lat="43.240426533175494" lon="11.370831374816628"><ele>216.5</ele><time>2026-05-02T09:07:12Z</time></trkpt><trkpt lat="43.24033906040595" lon="11.370979609989966"><ele>217.0</ele><time>2026-05-02T09:07:13Z</time></trkpt><trkpt lat="43.24024697793561" lon="11.37113248507371"><ele>217.0</ele><time>2026-05-02T09:07:14Z</time></trkpt><trkpt lat="43.24015855052107" lon="11.371297665457547"><ele>217.0</ele><time>2026-05-02T09:07:15Z</time></trkpt><trkpt lat="43.24004663422672" lon="11.371461319962627"><ele>217.0</ele><time>2026-05-02T09:07:16Z</time></trkpt><trkpt lat="43.239954910215275" lon="11.371646725700515"><ele>216.0</ele><time>2026-05-02T09:07:17Z</time></trkpt><trkpt lat="43.23986153632612" lon="11.37183748902548"><ele>215.0</ele><time>2026-05-02T09:07:18Z</time></trkpt><trkpt lat="43.239776160871486" lon="11.372014231277147"><ele>214.0</ele><time>2026-05-02T09:07:19Z</time></trkpt><trkpt lat="43.23971178329961" lon="11.372185413010419"><ele>213.75</ele><time>2026-05-02T09:07:20Z</time></trkpt><trkpt lat="43.23962939099343" lon="11.372333514183095"><ele>213.5</ele><time>2026-05-02T09:07:21Z</time></trkpt><trkpt lat="43.23956344312013" lon="11.372476268569262"><ele>213.25</ele><time>2026-05-02T09:07:22Z</time></trkpt><trkpt lat="43.2394934810437" lon="11.372583765391798"><ele>213.0</ele><time>2026-05-02T09:07:23Z</time></trkpt><trkpt lat="43.23941798219053" lon="11.372665498944807"><ele>213.0</ele><time>2026-05-02T09:07:24Z</time></trkpt><trkpt lat="43.23931370134462" lon="11.372698040685691"><ele>213.0</ele><time>2026-05-02T09:07:25Z</time></trkpt><trkpt lat="43.23917642838762" lon="11.372679891405099"><ele>213.0</ele><time>2026-05-02T09:07:26Z</time></trkpt><trkpt lat="43.239036439850516" lon="11.372669249669455"><ele>213.0</ele><time>2026-05-02T09:07:27Z</time></trkpt><trkpt lat="43.23890964793851" lon="11.372694702308124"><ele>213.0</ele><time>2026-05-02T09:07:28Z</time></trkpt><trkpt lat="43.23878261092206" lon="11.372711787808191"><ele>213.0</ele><time>2026-05-02T09:07:29Z</time></trkpt><trkpt lat="43.238665287405645" lon="11.372751391291219"><ele>213.0</ele><time>2026-05-02T09:07:30Z</time></trkpt><trkpt lat="43.23855437256115" lon="11.372809970388557"><ele>213.0</ele><time>2026-05-02T09:07:31.001Z</time></trkpt><trkpt lat="43.23845079760474" lon="11.372874906501583"><ele>213.0</ele><time>2026-05-02T09:07:32.001Z</time></trkpt><trkpt lat="43.23835955249393" lon="11.372939629987739"><ele>213.0</ele><time>2026-05-02T09:07:33.001Z</time></trkpt><trkpt lat="43.23828458395754" lon="11.373018181690814"><ele>213.0</ele><time>2026-05-02T09:07:34.001Z</time></trkpt><trkpt lat="43.23822709357435" lon="11.3731286938569"><ele>213.0</ele><time>2026-05-02T09:07:35.001Z</time></trkpt><trkpt lat="43.23819549475628" lon="11.373272318374463"><ele>213.0</ele><time>2026-05-02T09:07:36.001Z</time></trkpt><trkpt lat="43.238190900078315" lon="11.373443236662954"><ele>211.0</ele><time>2026-05-02T09:07:37.001Z</time></trkpt><trkpt lat="43.23821027895154" lon="11.37363763903007"><ele>209.0</ele><time>2026-05-02T09:07:38.001Z</time></trkpt><trkpt lat="43.23823662386339" lon="11.373846841426856"><ele>207.0</ele><time>2026-05-02T09:07:39.001Z</time></trkpt><trkpt lat="43.238253804844" lon="11.374024766985082"><ele>205.0</ele><time>2026-05-02T09:07:40.001Z</time></trkpt><trkpt lat="43.23826557196531" lon="11.374188273023238"><ele>204.75</ele><time>2026-05-02T09:07:41.001Z</time></trkpt><trkpt lat="43.238277066386" lon="11.374356476715159"><ele>204.5</ele><time>2026-05-02T09:07:42.001Z</time></trkpt><trkpt lat="43.23828600795762" lon="11.374531846667017"><ele>204.25</ele><time>2026-05-02T09:07:43.001Z</time></trkpt><trkpt lat="43.238287987111505" lon="11.37470482908249"><ele>204.0</ele><time>2026-05-02T09:07:44.001Z</time></trkpt><trkpt lat="43.23827438057316" lon="11.37486655188024"><ele>204.0</ele><time>2026-05-02T09:07:45.001Z</time></trkpt><trkpt lat="43.23824361866735" lon="11.374999246711461"><ele>204.0</ele><time>2026-05-02T09:07:46.001Z</time></trkpt><trkpt lat="43.2381777347332" lon="11.375090795574877"><ele>204.0</ele><time>2026-05-02T09:07:47.001Z</time></trkpt><trkpt lat="43.2380870708856" lon="11.375164344420286"><ele>204.0</ele><time>2026-05-02T09:07:48.001Z</time></trkpt><trkpt lat="43.23797063758611" lon="11.375266182277642"><ele>204.0</ele><time>2026-05-02T09:07:49.001Z</time></trkpt><trkpt lat="43.23783329899635" lon="11.375387844303543"><ele>202.33333333333331</ele><time>2026-05-02T09:07:50.001Z</time></trkpt><trkpt lat="43.2377017757636" lon="11.37553739287264"><ele>200.66666666666666</ele><time>2026-05-02T09:07:51.001Z</time></trkpt><trkpt lat="43.23757618967814" lon="11.375656865594522"><ele>199.0</ele><time>2026-05-02T09:07:52.001Z</time></trkpt><trkpt lat="43.23745715257263" lon="11.375776664321144"><ele>199.0</ele><time>2026-05-02T09:07:53.001Z</time></trkpt><trkpt lat="43.2373522855359" lon="11.375899733675919"><ele>199.0</ele><time>2026-05-02T09:07:54.001Z</time></trkpt><trkpt lat="43.237257755296035" lon="11.376017987471199"><ele>199.0</ele><time>2026-05-02T09:07:55.001Z</time></trkpt><trkpt lat="43.23716627394731" lon="11.376119978707653"><ele>199.0</ele><time>2026-05-02T09:07:56.001Z</time></trkpt><trkpt lat="43.237077489069385" lon="11.376214200308342"><ele>198.25</ele><time>2026-05-02T09:07:57.001Z</time></trkpt><trkpt lat="43.23699500702103" lon="11.376294562860977"><ele>197.5</ele><time>2026-05-02T09:07:58.001Z</time></trkpt><trkpt lat="43.23690038064643" lon="11.376352499942936"><ele>196.75</ele><time>2026-05-02T09:07:59.001Z</time></trkpt><trkpt lat="43.23678292343092" lon="11.37638170319812"><ele>196.0</ele><time>2026-05-02T09:08:00.001Z</time></trkpt><trkpt lat="43.23665821372823" lon="11.37636157565299"><ele>196.0</ele><time>2026-05-02T09:08:01.001Z</time></trkpt><trkpt lat="43.236538796480076" lon="11.376335357049872"><ele>196.0</ele><time>2026-05-02T09:08:02.001Z</time></trkpt><trkpt lat="43.23643192382266" lon="11.37629805533471"><ele>196.0</ele><time>2026-05-02T09:08:03.001Z</time></trkpt><trkpt lat="43.236338746877344" lon="11.376214267964805"><ele>196.0</ele><time>2026-05-02T09:08:04.001Z</time></trkpt><trkpt lat="43.236290365543226" lon="11.376079063006218"><ele>193.5</ele><time>2026-05-02T09:08:05.001Z</time></trkpt><trkpt lat="43.23624358829049" lon="11.37594395780508"><ele>191.0</ele><time>2026-05-02T09:08:06.001Z</time></trkpt><trkpt lat="43.236214083082935" lon="11.37579228853161"><ele>188.5</ele><time>2026-05-02T09:08:07.001Z</time></trkpt><trkpt lat="43.23619591851638" lon="11.375635843477633"><ele>186.0</ele><time>2026-05-02T09:08:08.002Z</time></trkpt><trkpt lat="43.236188262219706" lon="11.375481557456487"><ele>185.20000000000002</ele><time>2026-05-02T09:08:09.002Z</time></trkpt><trkpt lat="43.23619455760171" lon="11.375339812474655"><ele>184.4</ele><time>2026-05-02T09:08:10.002Z</time></trkpt><trkpt lat="43.2362513126116" lon="11.375223194235991"><ele>183.6</ele><time>2026-05-02T09:08:11.002Z</time></trkpt><trkpt lat="43.23629908831167" lon="11.375105221906571"><ele>182.8</ele><time>2026-05-02T09:08:12.002Z</time></trkpt><trkpt lat="43.236347108330314" lon="11.37499196311113"><ele>182.0</ele><time>2026-05-02T09:08:13.002Z</time></trkpt><trkpt lat="43.23638317363251" lon="11.37487166906415"><ele>182.0</ele><time>2026-05-02T09:08:14.002Z</time></trkpt><trkpt lat="43.23643974485276" lon="11.37476040495514"><ele>182.0</ele><time>2026-05-02T09:08:15.002Z</time></trkpt><trkpt lat="43.23647989172743" lon="11.374627044970726"><ele>182.0</ele><time>2026-05-02T09:08:16.002Z</time></trkpt><trkpt lat="43.23652505198201" lon="11.374491539864923"><ele>182.0</ele><time>2026-05-02T09:08:17.002Z</time></trkpt><trkpt lat="43.23655058167633" lon="11.37436294575315"><ele>182.0</ele><time>2026-05-02T09:08:18.002Z</time></trkpt><trkpt lat="43.236568076562904" lon="11.374238267298594"><ele>183.0</ele><time>2026-05-02T09:08:19.002Z</time></trkpt><trkpt lat="43.236582062947605" lon="11.374112702775099"><ele>184.0</ele><time>2026-05-02T09:08:20.002Z</time></trkpt><trkpt lat="43.23658991574345" lon="11.373988606094429"><ele>185.0</ele><time>2026-05-02T09:08:21.002Z</time></trkpt><trkpt lat="43.236584417770345" lon="11.373856487512425"><ele>186.0</ele><time>2026-05-02T09:08:22.002Z</time></trkpt><trkpt lat="43.23655625242204" lon="11.373725714808396"><ele>187.0</ele><time>2026-05-02T09:08:23.002Z</time></trkpt><trkpt lat="43.23651121054416" lon="11.373602624426644"><ele>186.0</ele><time>2026-05-02T09:08:24.002Z</time></trkpt><trkpt lat="43.23644037120252" lon="11.373497989863917"><ele>185.0</ele><time>2026-05-02T09:08:25.002Z</time></trkpt><trkpt lat="43.23634648076213" lon="11.37341898943281"><ele>184.0</ele><time>2026-05-02T09:08:26.002Z</time></trkpt><trkpt lat="43.236234575581044" lon="11.373383057455406"><ele>183.0</ele><time>2026-05-02T09:08:27.002Z</time></trkpt><trkpt lat="43.236121855825665" lon="11.37337176689067"><ele>182.0</ele><time>2026-05-02T09:08:28.002Z</time></trkpt><trkpt lat="43.23599160635372" lon="11.373379808828552"><ele>182.0</ele><time>2026-05-02T09:08:29.002Z</time></trkpt><trkpt lat="43.23585063681237" lon="11.37339436228354"><ele>182.0</ele><time>2026-05-02T09:08:30.002Z</time></trkpt><trkpt lat="43.235707619772136" lon="11.373410913313625"><ele>182.0</ele><time>2026-05-02T09:08:31.002Z</time></trkpt><trkpt lat="43.23556678656596" lon="11.373429491367498"><ele>182.0</ele><time>2026-05-02T09:08:32.002Z</time></trkpt><trkpt lat="43.2354296545512" lon="11.37344496879879"><ele>180.33333333333331</ele><time>2026-05-02T09:08:33.002Z</time></trkpt><trkpt lat="43.235287263200505" lon="11.373480291678877"><ele>178.66666666666666</ele><time>2026-05-02T09:08:34.002Z</time></trkpt><trkpt lat="43.23513184874086" lon="11.373482266691846"><ele>177.0</ele><time>2026-05-02T09:08:35.002Z</time></trkpt><trkpt lat="43.234970480640214" lon="11.373506271474342"><ele>177.0</ele><time>2026-05-02T09:08:36.002Z</time></trkpt><trkpt lat="43.23480592744167" lon="11.37352300980433"><ele>177.0</ele><time>2026-05-02T09:08:37.002Z</time></trkpt><trkpt lat="43.23464631546398" lon="11.373533699829176"><ele>177.0</ele><time>2026-05-02T09:08:38.002Z</time></trkpt><trkpt lat="43.234490631089216" lon="11.373545869476914"><ele>177.33333333333334</ele><time>2026-05-02T09:08:39.002Z</time></trkpt><trkpt lat="43.234326980231174" lon="11.373563003086376"><ele>177.66666666666669</ele><time>2026-05-02T09:08:40.002Z</time></trkpt><trkpt lat="43.234163641836275" lon="11.373576295881163"><ele>178.0</ele><time>2026-05-02T09:08:41.002Z</time></trkpt><trkpt lat="43.23400711801968" lon="11.373587648801605"><ele>178.25</ele><time>2026-05-02T09:08:42.002Z</time></trkpt><trkpt lat="43.233865059537116" lon="11.373604079767835"><ele>178.5</ele><time>2026-05-02T09:08:43.002Z</time></trkpt><trkpt lat="43.2337297717472" lon="11.373639289618058"><ele>178.75</ele><time>2026-05-02T09:08:44.003Z</time></trkpt><trkpt lat="43.233575818326294" lon="11.373720408635936"><ele>179.0</ele><time>2026-05-02T09:08:45.003Z</time></trkpt><trkpt lat="43.233410650720764" lon="11.37383883842594"><ele>179.0</ele><time>2026-05-02T09:08:46.003Z</time></trkpt><trkpt lat="43.23321755255217" lon="11.373953715481708"><ele>179.0</ele><time>2026-05-02T09:08:47.003Z</time></trkpt><trkpt lat="43.233007199872404" lon="11.37409661229415"><ele>179.0</ele><time>2026-05-02T09:08:48.003Z</time></trkpt><trkpt lat="43.232782137876306" lon="11.374249501419778"><ele>179.0</ele><time>2026-05-02T09:08:49.003Z</time></trkpt><trkpt lat="43.23253319802727" lon="11.374418611265133"><ele>179.0</ele><time>2026-05-02T09:08:50.003Z</time></trkpt><trkpt lat="43.232271883628165" lon="11.374604386338573"><ele>179.0</ele><time>2026-05-02T09:08:51.003Z</time></trkpt><trkpt lat="43.2319996389871" lon="11.374800785963654"><ele>179.0</ele><time>2026-05-02T09:08:52.003Z</time></trkpt><trkpt lat="43.23174631802304" lon="11.374983533906397"><ele>179.0</ele><time>2026-05-02T09:08:53.003Z</time></trkpt><trkpt lat="43.23152851056094" lon="11.375164983439445"><ele>179.0</ele><time>2026-05-02T09:08:54.003Z</time></trkpt><trkpt lat="43.231311594344476" lon="11.3753146981646"><ele>179.0</ele><time>2026-05-02T09:08:55.003Z</time></trkpt><trkpt lat="43.23110485299107" lon="11.375464924320335"><ele>179.0</ele><time>2026-05-02T09:08:56.003Z</time></trkpt><trkpt lat="43.230897351182165" lon="11.375610823842681"><ele>179.0</ele><time>2026-05-02T09:08:57.003Z</time></trkpt><trkpt lat="43.23068444093662" lon="11.37573613023392"><ele>179.0</ele><time>2026-05-02T09:08:58.003Z</time></trkpt><trkpt lat="43.23048752609296" lon="11.375878584227342"><ele>181.5</ele><time>2026-05-02T09:08:59.003Z</time></trkpt><trkpt lat="43.23028350936479" lon="11.376026175936621"><ele>184.0</ele><time>2026-05-02T09:09:00.003Z</time></trkpt><trkpt lat="43.23007308957563" lon="11.376180831190187"><ele>184.0</ele><time>2026-05-02T09:09:01.003Z</time></trkpt><trkpt lat="43.22984674574046" lon="11.37634977983588"><ele>184.0</ele><time>2026-05-02T09:09:02.003Z</time></trkpt><trkpt lat="43.2296534838618" lon="11.376508781494039"><ele>184.66666666666669</ele><time>2026-05-02T09:09:03.003Z</time></trkpt><trkpt lat="43.229490195561425" lon="11.376648028304093"><ele>185.33333333333334</ele><time>2026-05-02T09:09:04.003Z</time></trkpt><trkpt lat="43.229344545501455" lon="11.376774542641146"><ele>186.0</ele><time>2026-05-02T09:09:05.003Z</time></trkpt><trkpt lat="43.22922089065445" lon="11.376902679176512"><ele>186.0</ele><time>2026-05-02T09:09:06.003Z</time></trkpt><trkpt lat="43.22909743059327" lon="11.37700021837421"><ele>186.0</ele><time>2026-05-02T09:09:07.003Z</time></trkpt><trkpt lat="43.228964051001135" lon="11.377068098250843"><ele>186.0</ele><time>2026-05-02T09:09:08.003Z</time></trkpt><trkpt lat="43.22882382809628" lon="11.377137424644083"><ele>186.0</ele><time>2026-05-02T09:09:09.001Z</time></trkpt><trkpt lat="43.228677214519664" lon="11.377188845990679"><ele>183.33333333333334</ele><time>2026-05-02T09:09:10.001Z</time></trkpt><trkpt lat="43.228529421901605" lon="11.377222412602247"><ele>180.66666666666669</ele><time>2026-05-02T09:09:11.001Z</time></trkpt><trkpt lat="43.22836528252007" lon="11.377244860442916"><ele>178.0</ele><time>2026-05-02T09:09:12.001Z</time></trkpt><trkpt lat="43.22820695583735" lon="11.37726040541274"><ele>178.0</ele><time>2026-05-02T09:09:13Z</time></trkpt><trkpt lat="43.228050699217086" lon="11.377272676193048"><ele>178.0</ele><time>2026-05-02T09:09:14Z</time></trkpt><trkpt lat="43.22788833163769" lon="11.377283720161818"><ele>178.0</ele><time>2026-05-02T09:09:15Z</time></trkpt><trkpt lat="43.227728460814966" lon="11.377291386841692"><ele>178.0</ele><time>2026-05-02T09:09:16Z</time></trkpt><trkpt lat="43.22757516705576" lon="11.37729516802141"><ele>178.0</ele><time>2026-05-02T09:09:17Z</time></trkpt><trkpt lat="43.22741845897654" lon="11.377311495522921"><ele>178.0</ele><time>2026-05-02T09:09:18Z</time></trkpt><trkpt lat="43.227269952334254" lon="11.377281705146817"><ele>177.75</ele><time>2026-05-02T09:09:19Z</time></trkpt><trkpt lat="43.22713075158996" lon="11.377232421170765"><ele>177.5</ele><time>2026-05-02T09:09:20Z</time></trkpt><trkpt lat="43.22699764303339" lon="11.377164640854158"><ele>177.25</ele><time>2026-05-02T09:09:21Z</time></trkpt><trkpt lat="43.226880877806536" lon="11.37706373996835"><ele>177.0</ele><time>2026-05-02T09:09:22Z</time></trkpt><trkpt lat="43.226771198246794" lon="11.376979593157454"><ele>177.0</ele><time>2026-05-02T09:09:23Z</time></trkpt><trkpt lat="43.22667086056975" lon="11.376894785149338"><ele>177.0</ele><time>2026-05-02T09:09:24Z</time></trkpt><trkpt lat="43.22657899187955" lon="11.376806646409696"><ele>177.0</ele><time>2026-05-02T09:09:25Z</time></trkpt><trkpt lat="43.22649332629796" lon="11.376714629698707"><ele>177.0</ele><time>2026-05-02T09:09:26Z</time></trkpt><trkpt lat="43.226412519049376" lon="11.376615329103513"><ele>177.0</ele><time>2026-05-02T09:09:27Z</time></trkpt><trkpt lat="43.22634170680467" lon="11.376508340693178"><ele>177.0</ele><time>2026-05-02T09:09:28Z</time></trkpt><trkpt lat="43.22627834797926" lon="11.376396245353213"><ele>177.0</ele><time>2026-05-02T09:09:29Z</time></trkpt><trkpt lat="43.22621978188804" lon="11.376274974804183"><ele>177.0</ele><time>2026-05-02T09:09:30Z</time></trkpt><trkpt lat="43.22616116815885" lon="11.376140299274738"><ele>177.0</ele><time>2026-05-02T09:09:31Z</time></trkpt><trkpt lat="43.226106104824225" lon="11.375989795080473"><ele>177.0</ele><time>2026-05-02T09:09:32.001Z</time></trkpt><trkpt lat="43.22606387910974" lon="11.37583553501462"><ele>177.25</ele><time>2026-05-02T09:09:33.001Z</time></trkpt><trkpt lat="43.226038908065256" lon="11.37568120483149"><ele>177.5</ele><time>2026-05-02T09:09:34.001Z</time></trkpt><trkpt lat="43.2260285013631" lon="11.375521939170516"><ele>177.75</ele><time>2026-05-02T09:09:35.001Z</time></trkpt><trkpt lat="43.22602703870169" lon="11.375364033586548"><ele>178.0</ele><time>2026-05-02T09:09:36.001Z</time></trkpt><trkpt lat="43.22603701842977" lon="11.375191561677566"><ele>178.0</ele><time>2026-05-02T09:09:37.001Z</time></trkpt><trkpt lat="43.2260550162383" lon="11.374983522237338"><ele>178.0</ele><time>2026-05-02T09:09:38.001Z</time></trkpt><trkpt lat="43.22608033084252" lon="11.374743886618127"><ele>178.0</ele><time>2026-05-02T09:09:39.001Z</time></trkpt><trkpt lat="43.22610760286172" lon="11.37450779775327"><ele>178.0</ele><time>2026-05-02T09:09:40.001Z</time></trkpt><trkpt lat="43.22611227685935" lon="11.374304159017159"><ele>178.0</ele><time>2026-05-02T09:09:41.001Z</time></trkpt><trkpt lat="43.2261294128623" lon="11.37410960249479"><ele>178.0</ele><time>2026-05-02T09:09:42.001Z</time></trkpt><trkpt lat="43.226150436510146" lon="11.3739163462054"><ele>178.0</ele><time>2026-05-02T09:09:43.001Z</time></trkpt><trkpt lat="43.22613812047836" lon="11.37372891281192"><ele>178.0</ele><time>2026-05-02T09:09:44.001Z</time></trkpt><trkpt lat="43.226090964031194" lon="11.373550441868485"><ele>178.0</ele><time>2026-05-02T09:09:45.001Z</time></trkpt><trkpt lat="43.22605372709861" lon="11.373337350260329"><ele>178.0</ele><time>2026-05-02T09:09:46.001Z</time></trkpt><trkpt lat="43.225985166517496" lon="11.373101309467867"><ele>179.33333333333334</ele><time>2026-05-02T09:09:47.001Z</time></trkpt><trkpt lat="43.22591296598969" lon="11.37287346820083"><ele>180.66666666666666</ele><time>2026-05-02T09:09:48.001Z</time></trkpt><trkpt lat="43.22585135499682" lon="11.372677795719463"><ele>182.0</ele><time>2026-05-02T09:09:49.001Z</time></trkpt><trkpt lat="43.225802628224194" lon="11.37251699138451"><ele>182.0</ele><time>2026-05-02T09:09:50.001Z</time></trkpt><trkpt lat="43.225759802241626" lon="11.372385323214482"><ele>182.0</ele><time>2026-05-02T09:09:51.001Z</time></trkpt><trkpt lat="43.22571181684643" lon="11.372282395717551"><ele>182.0</ele><time>2026-05-02T09:09:52.001Z</time></trkpt><trkpt lat="43.22564146574305" lon="11.372214532942458"><ele>182.0</ele><time>2026-05-02T09:09:53.001Z</time></trkpt><trkpt lat="43.22557832155898" lon="11.372156542344284"><ele>182.0</ele><time>2026-05-02T09:09:54.001Z</time></trkpt><trkpt lat="43.22550865078101" lon="11.372108793039937"><ele>182.0</ele><time>2026-05-02T09:09:55.001Z</time></trkpt><trkpt lat="43.22541614196428" lon="11.372154739665945"><ele>181.6</ele><time>2026-05-02T09:09:56.001Z</time></trkpt><trkpt lat="43.22534804449436" lon="11.372215073742868"><ele>181.2</ele><time>2026-05-02T09:09:57.001Z</time></trkpt><trkpt lat="43.225292325069084" lon="11.372303212689616"><ele>180.8</ele><time>2026-05-02T09:09:58.001Z</time></trkpt><trkpt lat="43.22524895923443" lon="11.372413354903667"><ele>180.4</ele><time>2026-05-02T09:09:59.001Z</time></trkpt><trkpt lat="43.22520213731284" lon="11.372529057878255"><ele>180.0</ele><time>2026-05-02T09:10:00.001Z</time></trkpt><trkpt lat="43.22516128234002" lon="11.372650764793923"><ele>180.0</ele><time>2026-05-02T09:10:01.001Z</time></trkpt><trkpt lat="43.22511188704561" lon="11.372795340782409"><ele>180.0</ele><time>2026-05-02T09:10:02.001Z</time></trkpt><trkpt lat="43.22505348856812" lon="11.372938263593943"><ele>180.0</ele><time>2026-05-02T09:10:03.001Z</time></trkpt><trkpt lat="43.224989220024085" lon="11.373076241510555"><ele>180.0</ele><time>2026-05-02T09:10:04.001Z</time></trkpt><trkpt lat="43.22492107403077" lon="11.373206283101792"><ele>180.0</ele><time>2026-05-02T09:10:05.001Z</time></trkpt><trkpt lat="43.22484593538172" lon="11.373311163085104"><ele>180.0</ele><time>2026-05-02T09:10:06.001Z</time></trkpt><trkpt lat="43.2247563708821" lon="11.373392146962049"><ele>180.0</ele><time>2026-05-02T09:10:07.001Z</time></trkpt><trkpt lat="43.22464400766043" lon="11.373455273119848"><ele>180.0</ele><time>2026-05-02T09:10:08.001Z</time></trkpt><trkpt lat="43.22452517515486" lon="11.373506003104186"><ele>182.0</ele><time>2026-05-02T09:10:09.001Z</time></trkpt><trkpt lat="43.22440629263487" lon="11.37352829010961"><ele>184.0</ele><time>2026-05-02T09:10:10.001Z</time></trkpt><trkpt lat="43.22428919965566" lon="11.373517328631966"><ele>186.0</ele><time>2026-05-02T09:10:11.001Z</time></trkpt><trkpt lat="43.22417949222337" lon="11.373481073568607"><ele>188.0</ele><time>2026-05-02T09:10:12.001Z</time></trkpt><trkpt lat="43.22406994094354" lon="11.373434495015069"><ele>192.5</ele><time>2026-05-02T09:10:13.001Z</time></trkpt><trkpt lat="43.22395972241091" lon="11.373359518224218"><ele>197.0</ele><time>2026-05-02T09:10:14.002Z</time></trkpt><trkpt lat="43.22385554253271" lon="11.37326542777653"><ele>201.5</ele><time>2026-05-02T09:10:15.002Z</time></trkpt><trkpt lat="43.223770426214216" lon="11.373166370793461"><ele>206.0</ele><time>2026-05-02T09:10:16.002Z</time></trkpt><trkpt lat="43.22369526365233" lon="11.37304368531421"><ele>206.0</ele><time>2026-05-02T09:10:17.002Z</time></trkpt><trkpt lat="43.223644206812814" lon="11.3729120097302"><ele>206.0</ele><time>2026-05-02T09:10:18.002Z</time></trkpt><trkpt lat="43.223605351823394" lon="11.372765718749356"><ele>206.0</ele><time>2026-05-02T09:10:19.002Z</time></trkpt><trkpt lat="43.223597320935674" lon="11.372637298160793"><ele>206.0</ele><time>2026-05-02T09:10:20.002Z</time></trkpt><trkpt lat="43.22359942136734" lon="11.372504548039702"><ele>206.0</ele><time>2026-05-02T09:10:21.002Z</time></trkpt><trkpt lat="43.223618853253996" lon="11.372350783939332"><ele>206.0</ele><time>2026-05-02T09:10:22.002Z</time></trkpt><trkpt lat="43.22363382039805" lon="11.3721543612871"><ele>206.0</ele><time>2026-05-02T09:10:23.002Z</time></trkpt><trkpt lat="43.22365365208622" lon="11.371981260079819"><ele>206.0</ele><time>2026-05-02T09:10:24.002Z</time></trkpt><trkpt lat="43.22364671105127" lon="11.371842746691236"><ele>206.0</ele><time>2026-05-02T09:10:25.002Z</time></trkpt><trkpt lat="43.22362030533477" lon="11.371709593852625"><ele>206.0</ele><time>2026-05-02T09:10:26.002Z</time></trkpt><trkpt lat="43.223592618030025" lon="11.371572147932142"><ele>206.0</ele><time>2026-05-02T09:10:27.002Z</time></trkpt><trkpt lat="43.223521473889164" lon="11.371439235948088"><ele>206.0</ele><time>2026-05-02T09:10:28.002Z</time></trkpt><trkpt lat="43.22343420796448" lon="11.371341474987114"><ele>206.0</ele><time>2026-05-02T09:10:29.002Z</time></trkpt><trkpt lat="43.22336884660009" lon="11.37123407173027"><ele>206.0</ele><time>2026-05-02T09:10:30.002Z</time></trkpt><trkpt lat="43.22329659274276" lon="11.371177162865761"><ele>206.33333333333334</ele><time>2026-05-02T09:10:31.002Z</time></trkpt><trkpt lat="43.22321363248931" lon="11.371143531548057"><ele>206.66666666666669</ele><time>2026-05-02T09:10:32.002Z</time></trkpt><trkpt lat="43.22313177884726" lon="11.371132494124456"><ele>207.0</ele><time>2026-05-02T09:10:33.002Z</time></trkpt><trkpt lat="43.22305157170484" lon="11.371193658490341"><ele>207.33333333333331</ele><time>2026-05-02T09:10:34.002Z</time></trkpt><trkpt lat="43.22297465158364" lon="11.371250303208331"><ele>207.66666666666666</ele><time>2026-05-02T09:10:35.002Z</time></trkpt><trkpt lat="43.222895206884" lon="11.37132525897691"><ele>208.0</ele><time>2026-05-02T09:10:36.002Z</time></trkpt><trkpt lat="43.22282979275302" lon="11.37142123155286"><ele>208.0</ele><time>2026-05-02T09:10:37.002Z</time></trkpt><trkpt lat="43.22276828155444" lon="11.371534590175681"><ele>208.0</ele><time>2026-05-02T09:10:38.002Z</time></trkpt><trkpt lat="43.22269813345476" lon="11.371667533352344"><ele>208.0</ele><time>2026-05-02T09:10:39.002Z</time></trkpt><trkpt lat="43.22262520556146" lon="11.371805447153656"><ele>208.0</ele><time>2026-05-02T09:10:40.002Z</time></trkpt><trkpt lat="43.222548047766836" lon="11.371947039221158"><ele>208.0</ele><time>2026-05-02T09:10:41.002Z</time></trkpt><trkpt lat="43.22245628326703" lon="11.372090264985943"><ele>208.0</ele><time>2026-05-02T09:10:42.002Z</time></trkpt><trkpt lat="43.222353821425465" lon="11.372229329800623"><ele>208.0</ele><time>2026-05-02T09:10:43.002Z</time></trkpt><trkpt lat="43.222236563217436" lon="11.372330368007137"><ele>208.0</ele><time>2026-05-02T09:10:44.002Z</time></trkpt><trkpt lat="43.222125120025375" lon="11.372441802332123"><ele>211.25</ele><time>2026-05-02T09:10:45.002Z</time></trkpt><trkpt lat="43.22201141281416" lon="11.37253174135709"><ele>214.5</ele><time>2026-05-02T09:10:46.002Z</time></trkpt><trkpt lat="43.221890551504046" lon="11.372597254113808"><ele>217.75</ele><time>2026-05-02T09:10:47.002Z</time></trkpt><trkpt lat="43.22175610193875" lon="11.372638282188097"><ele>221.0</ele><time>2026-05-02T09:10:48.002Z</time></trkpt><trkpt lat="43.2216094158796" lon="11.372674945520581"><ele>222.5</ele><time>2026-05-02T09:10:49.002Z</time></trkpt><trkpt lat="43.22147232903382" lon="11.372707164643316"><ele>224.0</ele><time>2026-05-02T09:10:50.002Z</time></trkpt><trkpt lat="43.22133976540195" lon="11.372735350521083"><ele>225.5</ele><time>2026-05-02T09:10:51.002Z</time></trkpt><trkpt lat="43.221208010245995" lon="11.37276345040906"><ele>227.0</ele><time>2026-05-02T09:10:52.003Z</time></trkpt><trkpt lat="43.221071302736455" lon="11.372791511364806"><ele>227.0</ele><time>2026-05-02T09:10:53.003Z</time></trkpt><trkpt lat="43.220932087472455" lon="11.372840087718478"><ele>227.0</ele><time>2026-05-02T09:10:54.003Z</time></trkpt><trkpt lat="43.22078806114151" lon="11.372866002566042"><ele>227.0</ele><time>2026-05-02T09:10:55.003Z</time></trkpt><trkpt lat="43.22063430614434" lon="11.372902569671623"><ele>227.0</ele><time>2026-05-02T09:10:56.003Z</time></trkpt><trkpt lat="43.2204734082968" lon="11.372917137376223"><ele>229.66666666666669</ele><time>2026-05-02T09:10:57.003Z</time></trkpt><trkpt lat="43.22031918555907" lon="11.372950302170382"><ele>232.33333333333331</ele><time>2026-05-02T09:10:58.003Z</time></trkpt><trkpt lat="43.22016993907438" lon="11.372982396853928"><ele>235.0</ele><time>2026-05-02T09:10:59.003Z</time></trkpt><trkpt lat="43.220026296119585" lon="11.373011567261234"><ele>234.0</ele><time>2026-05-02T09:11:00.003Z</time></trkpt><trkpt lat="43.21988805755549" lon="11.37303547431691"><ele>233.0</ele><time>2026-05-02T09:11:01.003Z</time></trkpt><trkpt lat="43.219760286027" lon="11.373053371619697"><ele>232.0</ele><time>2026-05-02T09:11:02.003Z</time></trkpt><trkpt lat="43.21964329165372" lon="11.373064787281875"><ele>231.0</ele><time>2026-05-02T09:11:03.003Z</time></trkpt><trkpt lat="43.21952910002233" lon="11.373069357700965"><ele>233.60000000000002</ele><time>2026-05-02T09:11:04.003Z</time></trkpt><trkpt lat="43.21941870355885" lon="11.37306816563885"><ele>236.20000000000002</ele><time>2026-05-02T09:11:05.003Z</time></trkpt><trkpt lat="43.21930740542201" lon="11.373069854394783"><ele>238.79999999999998</ele><time>2026-05-02T09:11:06.003Z</time></trkpt><trkpt lat="43.219201089529584" lon="11.373057261159788"><ele>241.39999999999998</ele><time>2026-05-02T09:11:07.003Z</time></trkpt><trkpt lat="43.21909974642427" lon="11.373036159285043"><ele>244.0</ele><time>2026-05-02T09:11:08.003Z</time></trkpt><trkpt lat="43.21901237983248" lon="11.372996397456529"><ele>245.33333333333331</ele><time>2026-05-02T09:11:09.003Z</time></trkpt><trkpt lat="43.21893854730312" lon="11.372967080463537"><ele>246.66666666666666</ele><time>2026-05-02T09:11:10.003Z</time></trkpt><trkpt lat="43.218857130890605" lon="11.372932984152174"><ele>248.0</ele><time>2026-05-02T09:11:11.003Z</time></trkpt><trkpt lat="43.218767646535454" lon="11.372892057205256"><ele>249.33333333333331</ele><time>2026-05-02T09:11:12.003Z</time></trkpt><trkpt lat="43.21867450406278" lon="11.372849192859645"><ele>250.66666666666666</ele><time>2026-05-02T09:11:13.003Z</time></trkpt><trkpt lat="43.218598495321544" lon="11.372812696773957"><ele>252.0</ele><time>2026-05-02T09:11:14.003Z</time></trkpt><trkpt lat="43.21849843626705" lon="11.372764652702395"><ele>252.0</ele><time>2026-05-02T09:11:16Z</time></trkpt><trkpt lat="43.21843053535971" lon="11.372729955946852"><ele>252.0</ele><time>2026-05-02T09:11:19Z</time></trkpt></trkseg><trkseg><trkpt lat="43.21833818961311" lon="11.372839569546047"><ele>252.0</ele><time>2026-05-02T09:31:22Z</time></trkpt><trkpt lat="43.2182736791779" lon="11.372816871581364"><ele>252.0</ele><time>2026-05-02T09:31:28Z</time></trkpt><trkpt lat="43.218195180561736" lon="11.37274334789955"><ele>252.0</ele><time>2026-05-02T09:31:30Z</time></trkpt><trkpt lat="43.218168439854274" lon="11.37266381211221"><ele>252.0</ele><time>2026-05-02T09:31:32Z</time></trkpt><trkpt lat="43.21810339391083" lon="11.372569999462604"><ele>252.0</ele><time>2026-05-02T09:31:34Z</time></trkpt><trkpt lat="43.21803282170588" lon="11.372556754320257"><ele>252.0</ele><time>2026-05-02T09:31:35Z</time></trkpt><trkpt lat="43.21797977277881" lon="11.372500537828822"><ele>250.57142857142856</ele><time>2026-05-02T09:31:36Z</time></trkpt><trkpt lat="43.217920456501304" lon="11.372470246741475"><ele>249.14285714285714</ele><time>2026-05-02T09:31:37Z</time></trkpt><trkpt lat="43.21785892196477" lon="11.372438822838744"><ele>247.71428571428572</ele><time>2026-05-02T09:31:38Z</time></trkpt><trkpt lat="43.217793513140045" lon="11.372405420447524"><ele>246.28571428571428</ele><time>2026-05-02T09:31:39Z</time></trkpt><trkpt lat="43.21772815469449" lon="11.372372246890125"><ele>244.85714285714283</ele><time>2026-05-02T09:31:40Z</time></trkpt><trkpt lat="43.2176641601865" lon="11.37234055953112"><ele>243.42857142857142</ele><time>2026-05-02T09:31:41Z</time></trkpt><trkpt lat="43.21759458618428" lon="11.372329271819648"><ele>242.0</ele><time>2026-05-02T09:31:42Z</time></trkpt><trkpt lat="43.217532946249506" lon="11.372292474029223"><ele>242.0</ele><time>2026-05-02T09:31:43Z</time></trkpt><trkpt lat="43.217463206532386" lon="11.372259448291903"><ele>242.0</ele><time>2026-05-02T09:31:44Z</time></trkpt><trkpt lat="43.21738145238397" lon="11.372227698057257"><ele>242.0</ele><time>2026-05-02T09:31:45Z</time></trkpt><trkpt lat="43.2172927811433" lon="11.372182493092687"><ele>242.0</ele><time>2026-05-02T09:31:46Z</time></trkpt><trkpt lat="43.217203373404" lon="11.37210587619448"><ele>242.0</ele><time>2026-05-02T09:31:47Z</time></trkpt><trkpt lat="43.21708689582739" lon="11.372060911176078"><ele>241.0</ele><time>2026-05-02T09:31:48Z</time></trkpt><trkpt lat="43.21696953203049" lon="11.37199583230143"><ele>240.0</ele><time>2026-05-02T09:31:49Z</time></trkpt><trkpt lat="43.21684225387643" lon="11.37193463675264"><ele>239.0</ele><time>2026-05-02T09:31:50Z</time></trkpt><trkpt lat="43.21671031752938" lon="11.371873982196387"><ele>238.0</ele><time>2026-05-02T09:31:51Z</time></trkpt><trkpt lat="43.21657720051769" lon="11.37180229828239"><ele>240.0</ele><time>2026-05-02T09:31:52Z</time></trkpt><trkpt lat="43.21644369082225" lon="11.371731847074166"><ele>242.0</ele><time>2026-05-02T09:31:53Z</time></trkpt><trkpt lat="43.21629905554215" lon="11.371654379730447"><ele>244.0</ele><time>2026-05-02T09:31:54Z</time></trkpt><trkpt lat="43.21611914610027" lon="11.371569975629432"><ele>244.0</ele><time>2026-05-02T09:31:55Z</time></trkpt><trkpt lat="43.21597603431" lon="11.371498749702356"><ele>244.0</ele><time>2026-05-02T09:31:56Z</time></trkpt><trkpt lat="43.215863537415544" lon="11.371406252797026"><ele>244.0</ele><time>2026-05-02T09:31:57Z</time></trkpt><trkpt lat="43.21577555292255" lon="11.3713319727717"><ele>244.0</ele><time>2026-05-02T09:31:58Z</time></trkpt><trkpt lat="43.21570824213409" lon="11.371251231390037"><ele>243.0</ele><time>2026-05-02T09:31:59Z</time></trkpt><trkpt lat="43.21562924733003" lon="11.371155313105797"><ele>242.0</ele><time>2026-05-02T09:32:00Z</time></trkpt><trkpt lat="43.215538077864" lon="11.371051765300795"><ele>241.0</ele><time>2026-05-02T09:32:01Z</time></trkpt><trkpt lat="43.21544084315463" lon="11.370963092738755"><ele>240.0</ele><time>2026-05-02T09:32:02Z</time></trkpt><trkpt lat="43.215333547823235" lon="11.370900422372593"><ele>240.0</ele><time>2026-05-02T09:32:03Z</time></trkpt><trkpt lat="43.21523276454063" lon="11.370826598731266"><ele>240.0</ele><time>2026-05-02T09:32:04Z</time></trkpt><trkpt lat="43.21513529324261" lon="11.370763589524968"><ele>240.0</ele><time>2026-05-02T09:32:05Z</time></trkpt><trkpt lat="43.21504081261323" lon="11.370715056268796"><ele>240.0</ele><time>2026-05-02T09:32:06Z</time></trkpt><trkpt lat="43.21494108395798" lon="11.370678510190757"><ele>240.0</ele><time>2026-05-02T09:32:07Z</time></trkpt><trkpt lat="43.2148383293085" lon="11.370662305438069"><ele>237.0</ele><time>2026-05-02T09:32:08Z</time></trkpt><trkpt lat="43.214728733648215" lon="11.370677719550967"><ele>234.0</ele><time>2026-05-02T09:32:09Z</time></trkpt><trkpt lat="43.214611576553025" lon="11.370730783758905"><ele>231.0</ele><time>2026-05-02T09:32:10Z</time></trkpt><trkpt lat="43.21448525358504" lon="11.370810992361344"><ele>228.0</ele><time>2026-05-02T09:32:11Z</time></trkpt><trkpt lat="43.21435347079249" lon="11.370894688327828"><ele>228.0</ele><time>2026-05-02T09:32:12Z</time></trkpt><trkpt lat="43.21421794256367" lon="11.370979726917872"><ele>228.0</ele><time>2026-05-02T09:32:13Z</time></trkpt><trkpt lat="43.21407493454259" lon="11.371067932139049"><ele>228.0</ele><time>2026-05-02T09:32:14Z</time></trkpt><trkpt lat="43.21393619878103" lon="11.371163075676545"><ele>226.5</ele><time>2026-05-02T09:32:14.999Z</time></trkpt><trkpt lat="43.21380132195825" lon="11.37124620360188"><ele>225.0</ele><time>2026-05-02T09:32:15.999Z</time></trkpt><trkpt lat="43.2136731508183" lon="11.371314581525384"><ele>223.5</ele><time>2026-05-02T09:32:16.999Z</time></trkpt><trkpt lat="43.213553395387216" lon="11.371361722355491"><ele>222.0</ele><time>2026-05-02T09:32:17.999Z</time></trkpt><trkpt lat="43.21344647832881" lon="11.371379027503862"><ele>222.0</ele><time>2026-05-02T09:32:18.999Z</time></trkpt><trkpt lat="43.213345561464735" lon="11.371350366114099"><ele>222.0</ele><time>2026-05-02T09:32:19.999Z</time></trkpt><trkpt lat="43.213253662132026" lon="11.371262302180417"><ele>222.0</ele><time>2026-05-02T09:32:20.999Z</time></trkpt><trkpt lat="43.21319258944952" lon="11.371118707692156"><ele>222.0</ele><time>2026-05-02T09:32:21.999Z</time></trkpt><trkpt lat="43.21310991288242" lon="11.37096386838145"><ele>222.0</ele><time>2026-05-02T09:32:22.999Z</time></trkpt><trkpt lat="43.21301617714622" lon="11.37081763403117"><ele>222.0</ele><time>2026-05-02T09:32:23.999Z</time></trkpt><trkpt lat="43.212942793659714" lon="11.370650261026842"><ele>222.0</ele><time>2026-05-02T09:32:24.999Z</time></trkpt><trkpt lat="43.212853474876084" lon="11.370482369675491"><ele>222.0</ele><time>2026-05-02T09:32:25.999Z</time></trkpt><trkpt lat="43.212762730567704" lon="11.370298193512882"><ele>222.75</ele><time>2026-05-02T09:32:26.999Z</time></trkpt><trkpt lat="43.21267742395178" lon="11.370124470640622"><ele>223.5</ele><time>2026-05-02T09:32:27.999Z</time></trkpt><trkpt lat="43.21259416068938" lon="11.36996473824418"><ele>224.25</ele><time>2026-05-02T09:32:28.999Z</time></trkpt><trkpt lat="43.21250731636114" lon="11.369815357102766"><ele>225.0</ele><time>2026-05-02T09:32:29.999Z</time></trkpt><trkpt lat="43.21240645610037" lon="11.369662566030039"><ele>227.25</ele><time>2026-05-02T09:32:30.999Z</time></trkpt><trkpt lat="43.2123149172379" lon="11.369518280053192"><ele>229.5</ele><time>2026-05-02T09:32:31.999Z</time></trkpt><trkpt lat="43.212238342502395" lon="11.369396100752635"><ele>231.75</ele><time>2026-05-02T09:32:32.999Z</time></trkpt><trkpt lat="43.21217138540976" lon="11.369291518204852"><ele>234.0</ele><time>2026-05-02T09:32:33.999Z</time></trkpt><trkpt lat="43.212097490577484" lon="11.36919797416526"><ele>234.0</ele><time>2026-05-02T09:32:34.999Z</time></trkpt><trkpt lat="43.212016241632725" lon="11.369116470877534"><ele>233.99999999999997</ele><time>2026-05-02T09:32:35.999Z</time></trkpt><trkpt lat="43.211931546416096" lon="11.369047758749973"><ele>233.99999999999997</ele><time>2026-05-02T09:32:36.999Z</time></trkpt><trkpt lat="43.21184224850463" lon="11.368979162270781"><ele>234.0</ele><time>2026-05-02T09:32:37.999Z</time></trkpt><trkpt lat="43.211744499853296" lon="11.36891697377348"><ele>234.0</ele><time>2026-05-02T09:32:39Z</time></trkpt><trkpt lat="43.21163003652952" lon="11.368839163786689"><ele>233.75</ele><time>2026-05-02T09:32:40Z</time></trkpt><trkpt lat="43.21149982050681" lon="11.36878203543427"><ele>233.5</ele><time>2026-05-02T09:32:41Z</time></trkpt><trkpt lat="43.21136439135169" lon="11.36871890499857"><ele>233.25</ele><time>2026-05-02T09:32:42Z</time></trkpt><trkpt lat="43.21121329981068" lon="11.368664861466788"><ele>233.0</ele><time>2026-05-02T09:32:43Z</time></trkpt><trkpt lat="43.211051695592495" lon="11.368614561779738"><ele>233.0</ele><time>2026-05-02T09:32:44Z</time></trkpt><trkpt lat="43.210887363674786" lon="11.368561257382712"><ele>233.0</ele><time>2026-05-02T09:32:45Z</time></trkpt><trkpt lat="43.210732346335654" lon="11.368508660305446"><ele>233.0</ele><time>2026-05-02T09:32:46Z</time></trkpt><trkpt lat="43.21057734983375" lon="11.368436368862422"><ele>232.33333333333334</ele><time>2026-05-02T09:32:47Z</time></trkpt><trkpt lat="43.21042626829989" lon="11.36838608108322"><ele>231.66666666666669</ele><time>2026-05-02T09:32:48Z</time></trkpt><trkpt lat="43.21027653582055" lon="11.368333850855226"><ele>231.0</ele><time>2026-05-02T09:32:49Z</time></trkpt><trkpt lat="43.21012734364471" lon="11.368282120226702"><ele>231.0</ele><time>2026-05-02T09:32:50Z</time></trkpt><trkpt lat="43.210001040954296" lon="11.368263469343022"><ele>231.00000000000003</ele><time>2026-05-02T09:32:51Z</time></trkpt><trkpt lat="43.20990706936946" lon="11.368222916992679"><ele>231.00000000000003</ele><time>2026-05-02T09:32:52Z</time></trkpt><trkpt lat="43.209834770399176" lon="11.368206031560632"><ele>231.0</ele><time>2026-05-02T09:32:53Z</time></trkpt><trkpt lat="43.209745833301206" lon="11.368185262590297"><ele>231.0</ele><time>2026-05-02T09:32:54Z</time></trkpt><trkpt lat="43.20964406522925" lon="11.368216897720181"><ele>234.5</ele><time>2026-05-02T09:32:55Z</time></trkpt><trkpt lat="43.209550913361255" lon="11.368309450756945"><ele>238.0</ele><time>2026-05-02T09:32:56Z</time></trkpt><trkpt lat="43.209457628569275" lon="11.368434130132517"><ele>241.5</ele><time>2026-05-02T09:32:57Z</time></trkpt><trkpt lat="43.20935345575377" lon="11.36860157276744"><ele>245.0</ele><time>2026-05-02T09:32:58Z</time></trkpt><trkpt lat="43.209224538104685" lon="11.368809451528874"><ele>242.0</ele><time>2026-05-02T09:32:59Z</time></trkpt><trkpt lat="43.2090704252738" lon="11.369037796286321"><ele>239.0</ele><time>2026-05-02T09:33:00Z</time></trkpt><trkpt lat="43.2089041929201" lon="11.369274567638636"><ele>243.66666666666669</ele><time>2026-05-02T09:33:01Z</time></trkpt><trkpt lat="43.20875748402271" lon="11.36947758253063"><ele>248.33333333333331</ele><time>2026-05-02T09:33:02Z</time></trkpt><trkpt lat="43.20862536350028" lon="11.369655241099776"><ele>253.0</ele><time>2026-05-02T09:33:03Z</time></trkpt><trkpt lat="43.20849944602764" lon="11.369824558477882"><ele>253.0</ele><time>2026-05-02T09:33:04Z</time></trkpt><trkpt lat="43.20837389402148" lon="11.369993509420999"><ele>253.0</ele><time>2026-05-02T09:33:05Z</time></trkpt><trkpt lat="43.208257596061614" lon="11.37015386671639"><ele>253.0</ele><time>2026-05-02T09:33:06Z</time></trkpt><trkpt lat="43.20814345046308" lon="11.370312003419228"><ele>257.25</ele><time>2026-05-02T09:33:07Z</time></trkpt><trkpt lat="43.208034524026814" lon="11.370464694933375"><ele>261.5</ele><time>2026-05-02T09:33:08Z</time></trkpt><trkpt lat="43.207928988740385" lon="11.370612632777929"><ele>265.75</ele><time>2026-05-02T09:33:09Z</time></trkpt><trkpt lat="43.20783655749555" lon="11.37074147685687"><ele>270.0</ele><time>2026-05-02T09:33:10Z</time></trkpt><trkpt lat="43.20774778867623" lon="11.37086504187641"><ele>270.0</ele><time>2026-05-02T09:33:11Z</time></trkpt><trkpt lat="43.207654925543096" lon="11.370994431649297"><ele>270.0</ele><time>2026-05-02T09:33:12Z</time></trkpt><trkpt lat="43.207559162705486" lon="11.371124756746301"><ele>270.0</ele><time>2026-05-02T09:33:13Z</time></trkpt><trkpt lat="43.20747309291384" lon="11.371241541780247"><ele>270.0</ele><time>2026-05-02T09:33:14Z</time></trkpt><trkpt lat="43.20740989754603" lon="11.37133120238479"><ele>267.8</ele><time>2026-05-02T09:33:15Z</time></trkpt><trkpt lat="43.20735956494293" lon="11.371406318183693"><ele>265.6</ele><time>2026-05-02T09:33:16Z</time></trkpt><trkpt lat="43.20731438045251" lon="11.371510226826567"><ele>263.4</ele><time>2026-05-02T09:33:17Z</time></trkpt><trkpt lat="43.20724205062282" lon="11.371616930700222"><ele>261.2</ele><time>2026-05-02T09:33:18Z</time></trkpt><trkpt lat="43.20714714849068" lon="11.371741230632807"><ele>259.0</ele><time>2026-05-02T09:33:19Z</time></trkpt><trkpt lat="43.20706271418683" lon="11.371896714651973"><ele>262.0</ele><time>2026-05-02T09:33:20Z</time></trkpt><trkpt lat="43.206981633713" lon="11.372060139386376"><ele>265.0</ele><time>2026-05-02T09:33:21Z</time></trkpt><trkpt lat="43.20690468626113" lon="11.372220078309747"><ele>268.0</ele><time>2026-05-02T09:33:22Z</time></trkpt><trkpt lat="43.206824719288015" lon="11.372361650417279"><ele>271.0</ele><time>2026-05-02T09:33:23Z</time></trkpt><trkpt lat="43.20673809717789" lon="11.372495036878037"><ele>271.0</ele><time>2026-05-02T09:33:24Z</time></trkpt><trkpt lat="43.20665221194684" lon="11.372624056375626"><ele>271.0</ele><time>2026-05-02T09:33:25Z</time></trkpt><trkpt lat="43.20655230525991" lon="11.372744235815002"><ele>271.0</ele><time>2026-05-02T09:33:26Z</time></trkpt><trkpt lat="43.206444143932195" lon="11.372853205152659"><ele>271.0</ele><time>2026-05-02T09:33:27Z</time></trkpt><trkpt lat="43.206298445525746" lon="11.372963153944163"><ele>269.66666666666663</ele><time>2026-05-02T09:33:28Z</time></trkpt><trkpt lat="43.20613751613263" lon="11.373080718009339"><ele>268.3333333333333</ele><time>2026-05-02T09:33:29Z</time></trkpt><trkpt lat="43.20597550060872" lon="11.373185867953392"><ele>267.0</ele><time>2026-05-02T09:33:30Z</time></trkpt><trkpt lat="43.20583040424798" lon="11.373289079886272"><ele>267.0</ele><time>2026-05-02T09:33:31Z</time></trkpt><trkpt lat="43.20569958934004" lon="11.373401577135978"><ele>267.0</ele><time>2026-05-02T09:33:32Z</time></trkpt><trkpt lat="43.20559097915364" lon="11.37350046483564"><ele>267.0</ele><time>2026-05-02T09:33:33Z</time></trkpt><trkpt lat="43.205498971649234" lon="11.373593218976147"><ele>267.0</ele><time>2026-05-02T09:33:34Z</time></trkpt><trkpt lat="43.20542519431973" lon="11.373667702642875"><ele>267.25</ele><time>2026-05-02T09:33:35Z</time></trkpt><trkpt lat="43.20534100236959" lon="11.37372681675876"><ele>267.5</ele><time>2026-05-02T09:33:36Z</time></trkpt><trkpt lat="43.20523652983409" lon="11.373734474939708"><ele>267.75</ele><time>2026-05-02T09:33:37Z</time></trkpt><trkpt lat="43.20511895751252" lon="11.373736896662363"><ele>268.0</ele><time>2026-05-02T09:33:38Z</time></trkpt><trkpt lat="43.2049791550839" lon="11.37373781984367"><ele>268.0</ele><time>2026-05-02T09:33:39Z</time></trkpt><trkpt lat="43.204845000551096" lon="11.373747451931399"><ele>268.0</ele><time>2026-05-02T09:33:40Z</time></trkpt><trkpt lat="43.20470965231969" lon="11.37375420814301"><ele>268.0</ele><time>2026-05-02T09:33:41Z</time></trkpt><trkpt lat="43.20456888524002" lon="11.37378887280086"><ele>268.0</ele><time>2026-05-02T09:33:42Z</time></trkpt><trkpt lat="43.20441854353939" lon="11.373840244058094"><ele>265.5</ele><time>2026-05-02T09:33:43Z</time></trkpt><trkpt lat="43.20426139359603" lon="11.373897051513525"><ele>263.0</ele><time>2026-05-02T09:33:44Z</time></trkpt><trkpt lat="43.20411542466052" lon="11.373946988613818"><ele>260.5</ele><time>2026-05-02T09:33:45Z</time></trkpt><trkpt lat="43.20398549168917" lon="11.373997419270243"><ele>258.0</ele><time>2026-05-02T09:33:46Z</time></trkpt><trkpt lat="43.20386304956686" lon="11.374040534416958"><ele>258.0</ele><time>2026-05-02T09:33:47Z</time></trkpt><trkpt lat="43.20373736619666" lon="11.374098540521974"><ele>258.0</ele><time>2026-05-02T09:33:48Z</time></trkpt><trkpt lat="43.20361191921586" lon="11.374181487821337"><ele>258.0</ele><time>2026-05-02T09:33:49Z</time></trkpt><trkpt lat="43.20349010194129" lon="11.374296973618288"><ele>258.0</ele><time>2026-05-02T09:33:50Z</time></trkpt><trkpt lat="43.2033596743756" lon="11.374390680028226"><ele>258.0</ele><time>2026-05-02T09:33:51Z</time></trkpt><trkpt lat="43.20324734679691" lon="11.374463894440082"><ele>258.0</ele><time>2026-05-02T09:33:52Z</time></trkpt><trkpt lat="43.203126937110056" lon="11.374514572476288"><ele>258.0</ele><time>2026-05-02T09:33:53Z</time></trkpt><trkpt lat="43.20299462039568" lon="11.374548001621267"><ele>258.0</ele><time>2026-05-02T09:33:54Z</time></trkpt><trkpt lat="43.20285763633414" lon="11.374580550140795"><ele>256.0</ele><time>2026-05-02T09:33:55Z</time></trkpt><trkpt lat="43.2027108509856" lon="11.374622864307614"><ele>254.0</ele><time>2026-05-02T09:33:56Z</time></trkpt><trkpt lat="43.20255401756922" lon="11.374671217522186"><ele>252.0</ele><time>2026-05-02T09:33:57Z</time></trkpt><trkpt lat="43.20238154059908" lon="11.37472089855324"><ele>256.6666666666667</ele><time>2026-05-02T09:33:58Z</time></trkpt><trkpt lat="43.2022019604887" lon="11.374745540215025"><ele>261.33333333333337</ele><time>2026-05-02T09:33:59Z</time></trkpt><trkpt lat="43.20205807911027" lon="11.374807873868106"><ele>266.0</ele><time>2026-05-02T09:34:00Z</time></trkpt><trkpt lat="43.20193045873606" lon="11.374849720026523"><ele>266.0</ele><time>2026-05-02T09:34:01Z</time></trkpt><trkpt lat="43.20180564573666" lon="11.374895503576871"><ele>266.0</ele><time>2026-05-02T09:34:02Z</time></trkpt><trkpt lat="43.201685366180705" lon="11.374963260218957"><ele>266.0</ele><time>2026-05-02T09:34:03Z</time></trkpt><trkpt lat="43.2015730995674" lon="11.3750378419811"><ele>266.0</ele><time>2026-05-02T09:34:04Z</time></trkpt><trkpt lat="43.20147335098972" lon="11.375129484552057"><ele>266.83333333333337</ele><time>2026-05-02T09:34:05Z</time></trkpt><trkpt lat="43.2013721273982" lon="11.375177791830103"><ele>267.6666666666667</ele><time>2026-05-02T09:34:06Z</time></trkpt><trkpt lat="43.201286067567814" lon="11.37523897177273"><ele>268.5</ele><time>2026-05-02T09:34:07Z</time></trkpt><trkpt lat="43.20121821463616" lon="11.375301097608327"><ele>269.3333333333333</ele><time>2026-05-02T09:34:08Z</time></trkpt><trkpt lat="43.201146830117644" lon="11.375345627113251"><ele>270.16666666666663</ele><time>2026-05-02T09:34:09Z</time></trkpt><trkpt lat="43.20108318938067" lon="11.375385188528542"><ele>271.0</ele><time>2026-05-02T09:34:10Z</time></trkpt><trkpt lat="43.201015799894705" lon="11.375403623981892"><ele>271.0</ele><time>2026-05-02T09:34:11Z</time></trkpt><trkpt lat="43.20095210354101" lon="11.375392667751859"><ele>271.0</ele><time>2026-05-02T09:34:12Z</time></trkpt><trkpt lat="43.20088333861475" lon="11.37537325057017"><ele>271.0</ele><time>2026-05-02T09:34:13Z</time></trkpt><trkpt lat="43.200800520908864" lon="11.375332482191002"><ele>271.0</ele><time>2026-05-02T09:34:14Z</time></trkpt><trkpt lat="43.20071238802654" lon="11.375257641236738"><ele>271.0</ele><time>2026-05-02T09:34:15Z</time></trkpt><trkpt lat="43.20061452319163" lon="11.375199424017978"><ele>271.0</ele><time>2026-05-02T09:34:16Z</time></trkpt><trkpt lat="43.20052731339827" lon="11.375147545128979"><ele>268.5</ele><time>2026-05-02T09:34:17Z</time></trkpt><trkpt lat="43.20044485419631" lon="11.375120718737335"><ele>266.0</ele><time>2026-05-02T09:34:18Z</time></trkpt><trkpt lat="43.20037347159921" lon="11.375067425097544"><ele>263.5</ele><time>2026-05-02T09:34:19Z</time></trkpt><trkpt lat="43.20030844155668" lon="11.375030598695416"><ele>261.0</ele><time>2026-05-02T09:34:20Z</time></trkpt><trkpt lat="43.200244257312804" lon="11.374996587760647"><ele>258.5</ele><time>2026-05-02T09:34:20.998Z</time></trkpt><trkpt lat="43.20016442544622" lon="11.374979929127983"><ele>256.0</ele><time>2026-05-02T09:34:22.998Z</time></trkpt><trkpt lat="43.20006558162331" lon="11.374978477222212"><ele>256.0</ele><time>2026-05-02T09:34:24.998Z</time></trkpt><trkpt lat="43.20000700432885" lon="11.375027921123314"><ele>256.0</ele><time>2026-05-02T09:34:25.998Z</time></trkpt><trkpt lat="43.19996500768494" lon="11.375137926299896"><ele>256.0</ele><time>2026-05-02T09:34:26.998Z</time></trkpt><trkpt lat="43.19991697296808" lon="11.375242976295311"><ele>256.0</ele><time>2026-05-02T09:34:27.998Z</time></trkpt><trkpt lat="43.19986152397716" lon="11.375366951006308"><ele>256.0</ele><time>2026-05-02T09:34:28.998Z</time></trkpt><trkpt lat="43.19979063599194" lon="11.375499901659978"><ele>253.60000000000002</ele><time>2026-05-02T09:34:29.998Z</time></trkpt><trkpt lat="43.19970680322062" lon="11.375625300150482"><ele>251.20000000000002</ele><time>2026-05-02T09:34:30.998Z</time></trkpt><trkpt lat="43.199615469806844" lon="11.375732320967167"><ele>248.79999999999998</ele><time>2026-05-02T09:34:31.998Z</time></trkpt><trkpt lat="43.19953817163601" lon="11.37582238102417"><ele>246.39999999999998</ele><time>2026-05-02T09:34:32.998Z</time></trkpt><trkpt lat="43.199470753343654" lon="11.375911389811765"><ele>244.0</ele><time>2026-05-02T09:34:33.998Z</time></trkpt><trkpt lat="43.19938066272415" lon="11.375984878888435"><ele>244.0</ele><time>2026-05-02T09:34:34.998Z</time></trkpt><trkpt lat="43.19929944504656" lon="11.376065623609387"><ele>244.0</ele><time>2026-05-02T09:34:35.998Z</time></trkpt><trkpt lat="43.199196437163" lon="11.376134772173828"><ele>244.0</ele><time>2026-05-02T09:34:36.998Z</time></trkpt><trkpt lat="43.19907696849097" lon="11.376182328076158"><ele>244.0</ele><time>2026-05-02T09:34:37.998Z</time></trkpt><trkpt lat="43.198947794363676" lon="11.376211677207598"><ele>243.0</ele><time>2026-05-02T09:34:38.998Z</time></trkpt><trkpt lat="43.19881196938283" lon="11.376237869112666"><ele>242.0</ele><time>2026-05-02T09:34:39.998Z</time></trkpt><trkpt lat="43.198691474188664" lon="11.376265244817333"><ele>241.0</ele><time>2026-05-02T09:34:40.999Z</time></trkpt><trkpt lat="43.19857125909288" lon="11.376316723699073"><ele>240.0</ele><time>2026-05-02T09:34:41.999Z</time></trkpt><trkpt lat="43.198455526161304" lon="11.376359708824458"><ele>240.0</ele><time>2026-05-02T09:34:42.999Z</time></trkpt><trkpt lat="43.19834667361249" lon="11.376424506997974"><ele>240.0</ele><time>2026-05-02T09:34:43.999Z</time></trkpt><trkpt lat="43.19825066200824" lon="11.376513986397546"><ele>240.0</ele><time>2026-05-02T09:34:44.999Z</time></trkpt><trkpt lat="43.19815546990939" lon="11.37663083334221"><ele>240.0</ele><time>2026-05-02T09:34:45.999Z</time></trkpt><trkpt lat="43.19804578195151" lon="11.376726607695296"><ele>239.0</ele><time>2026-05-02T09:34:46.999Z</time></trkpt><trkpt lat="43.19794116913367" lon="11.376840004199444"><ele>238.0</ele><time>2026-05-02T09:34:47.999Z</time></trkpt><trkpt lat="43.19783356302388" lon="11.376946961666096"><ele>237.0</ele><time>2026-05-02T09:34:48.999Z</time></trkpt><trkpt lat="43.19772935708" lon="11.37703058495565"><ele>236.0</ele><time>2026-05-02T09:34:49.999Z</time></trkpt><trkpt lat="43.19763300352849" lon="11.377102045840308"><ele>236.0</ele><time>2026-05-02T09:34:50.999Z</time></trkpt><trkpt lat="43.19754199902443" lon="11.37716486027301"><ele>236.0</ele><time>2026-05-02T09:34:51.999Z</time></trkpt><trkpt lat="43.19744423586626" lon="11.37723193198833"><ele>236.0</ele><time>2026-05-02T09:34:52.999Z</time></trkpt><trkpt lat="43.197332964710405" lon="11.377305726858408"><ele>236.0</ele><time>2026-05-02T09:34:53.999Z</time></trkpt><trkpt lat="43.19721068245845" lon="11.377385697504485"><ele>235.0</ele><time>2026-05-02T09:34:54.999Z</time></trkpt><trkpt lat="43.19708277589737" lon="11.377471793800463"><ele>234.0</ele><time>2026-05-02T09:34:55.999Z</time></trkpt><trkpt lat="43.19694907496759" lon="11.377563470740714"><ele>233.0</ele><time>2026-05-02T09:34:56.999Z</time></trkpt><trkpt lat="43.196816200699416" lon="11.377654581175417"><ele>232.0</ele><time>2026-05-02T09:34:57.999Z</time></trkpt><trkpt lat="43.19668085147319" lon="11.377747387105337"><ele>232.0</ele><time>2026-05-02T09:34:58.999Z</time></trkpt><trkpt lat="43.19654252250202" lon="11.377869082035854"><ele>232.0</ele><time>2026-05-02T09:34:59.999Z</time></trkpt><trkpt lat="43.19638847003676" lon="11.377975938238531"><ele>232.0</ele><time>2026-05-02T09:35:00.999Z</time></trkpt><trkpt lat="43.196225057954" lon="11.378085573170251"><ele>232.66666666666666</ele><time>2026-05-02T09:35:01.999Z</time></trkpt><trkpt lat="43.19604613427408" lon="11.378197986525024"><ele>233.33333333333331</ele><time>2026-05-02T09:35:02.999Z</time></trkpt><trkpt lat="43.1958550260824" lon="11.378301846402783"><ele>234.0</ele><time>2026-05-02T09:35:03.999Z</time></trkpt><trkpt lat="43.19567233406004" lon="11.37839009005979"><ele>233.0</ele><time>2026-05-02T09:35:04.999Z</time></trkpt><trkpt lat="43.195507702987825" lon="11.378462068975397"><ele>232.0</ele><time>2026-05-02T09:35:05.999Z</time></trkpt><trkpt lat="43.195374405107586" lon="11.378525624650743"><ele>231.0</ele><time>2026-05-02T09:35:06.999Z</time></trkpt><trkpt lat="43.19526518088031" lon="11.378595410057423"><ele>230.0</ele><time>2026-05-02T09:35:07.999Z</time></trkpt><trkpt lat="43.19516680423903" lon="11.378680506983088"><ele>230.0</ele><time>2026-05-02T09:35:08.999Z</time></trkpt><trkpt lat="43.195061580563284" lon="11.378812375495936"><ele>230.0</ele><time>2026-05-02T09:35:09.999Z</time></trkpt><trkpt lat="43.19495111220778" lon="11.378977710662477"><ele>230.0</ele><time>2026-05-02T09:35:10.999Z</time></trkpt><trkpt lat="43.19484772910833" lon="11.379140848654833"><ele>229.25</ele><time>2026-05-02T09:35:11.999Z</time></trkpt><trkpt lat="43.194762003021616" lon="11.379278282504078"><ele>228.5</ele><time>2026-05-02T09:35:12.999Z</time></trkpt><trkpt lat="43.194697555696216" lon="11.379412674324726"><ele>227.75</ele><time>2026-05-02T09:35:13.999Z</time></trkpt><trkpt lat="43.19464515688513" lon="11.379563037164115"><ele>227.0</ele><time>2026-05-02T09:35:14.999Z</time></trkpt><trkpt lat="43.19459525121875" lon="11.379757603917213"><ele>227.0</ele><time>2026-05-02T09:35:15.999Z</time></trkpt><trkpt lat="43.194552754824606" lon="11.379992552938852"><ele>227.0</ele><time>2026-05-02T09:35:16.999Z</time></trkpt><trkpt lat="43.19452936862431" lon="11.380228401595973"><ele>227.0</ele><time>2026-05-02T09:35:17.999Z</time></trkpt><trkpt lat="43.19451914299171" lon="11.380462196809225"><ele>227.25</ele><time>2026-05-02T09:35:18.999Z</time></trkpt><trkpt lat="43.194486617938324" lon="11.380660062584113"><ele>227.5</ele><time>2026-05-02T09:35:19.999Z</time></trkpt><trkpt lat="43.194469332505626" lon="11.380832499382711"><ele>227.75</ele><time>2026-05-02T09:35:20.999Z</time></trkpt><trkpt lat="43.19443068524912" lon="11.380993900032559"><ele>228.0</ele><time>2026-05-02T09:35:21.999Z</time></trkpt><trkpt lat="43.194368974324156" lon="11.381184275800118"><ele>228.0</ele><time>2026-05-02T09:35:22.999Z</time></trkpt><trkpt lat="43.194294983417635" lon="11.381400690729693"><ele>228.0</ele><time>2026-05-02T09:35:23.999Z</time></trkpt><trkpt lat="43.194215822499004" lon="11.381626317837945"><ele>228.0</ele><time>2026-05-02T09:35:24.999Z</time></trkpt><trkpt lat="43.19413463549407" lon="11.381857007359734"><ele>228.0</ele><time>2026-05-02T09:35:25.999Z</time></trkpt><trkpt lat="43.19404635222398" lon="11.382108826401533"><ele>228.0</ele><time>2026-05-02T09:35:26.999Z</time></trkpt><trkpt lat="43.19395531135867" lon="11.382368511428883"><ele>228.0</ele><time>2026-05-02T09:35:27.999Z</time></trkpt><trkpt lat="43.19387038949371" lon="11.3826098725078"><ele>227.33333333333331</ele><time>2026-05-02T09:35:28.999Z</time></trkpt><trkpt lat="43.193808997328304" lon="11.382832248922861"><ele>226.66666666666666</ele><time>2026-05-02T09:35:30Z</time></trkpt><trkpt lat="43.19373943010603" lon="11.383010221641138"><ele>226.0</ele><time>2026-05-02T09:35:31Z</time></trkpt><trkpt lat="43.193674303323135" lon="11.383172394132187"><ele>226.0</ele><time>2026-05-02T09:35:32Z</time></trkpt><trkpt lat="43.19360643165562" lon="11.38330003681461"><ele>226.0</ele><time>2026-05-02T09:35:33Z</time></trkpt><trkpt lat="43.193533736246835" lon="11.383396647934886"><ele>226.0</ele><time>2026-05-02T09:35:34Z</time></trkpt><trkpt lat="43.19342464121791" lon="11.38344948152496"><ele>226.0</ele><time>2026-05-02T09:35:35Z</time></trkpt><trkpt lat="43.193282653298766" lon="11.383531400453506"><ele>224.33333333333331</ele><time>2026-05-02T09:35:36Z</time></trkpt><trkpt lat="43.19312099201692" lon="11.383595852585412"><ele>222.66666666666669</ele><time>2026-05-02T09:35:37Z</time></trkpt><trkpt lat="43.192964942584666" lon="11.383669593063871"><ele>221.0</ele><time>2026-05-02T09:35:38Z</time></trkpt><trkpt lat="43.192830139670306" lon="11.383739382300682"><ele>221.0</ele><time>2026-05-02T09:35:39Z</time></trkpt><trkpt lat="43.192703699773816" lon="11.383801244682505"><ele>221.0</ele><time>2026-05-02T09:35:40Z</time></trkpt><trkpt lat="43.19258645953563" lon="11.383857810845296"><ele>221.0</ele><time>2026-05-02T09:35:41Z</time></trkpt><trkpt lat="43.19247613809128" lon="11.383904108149993"><ele>221.0</ele><time>2026-05-02T09:35:42Z</time></trkpt><trkpt lat="43.19236451625584" lon="11.38393278217191"><ele>222.0</ele><time>2026-05-02T09:35:43Z</time></trkpt><trkpt lat="43.192251610485364" lon="11.383939041679701"><ele>223.0</ele><time>2026-05-02T09:35:44Z</time></trkpt><trkpt lat="43.19212002158593" lon="11.383936040049035"><ele>224.0</ele><time>2026-05-02T09:35:45Z</time></trkpt><trkpt lat="43.19199115468668" lon="11.383922282759865"><ele>225.0</ele><time>2026-05-02T09:35:46Z</time></trkpt><trkpt lat="43.19188984664406" lon="11.383930776664391"><ele>225.0</ele><time>2026-05-02T09:35:47Z</time></trkpt><trkpt lat="43.19180539400702" lon="11.383974352927666"><ele>225.0</ele><time>2026-05-02T09:35:48Z</time></trkpt><trkpt lat="43.191706572503975" lon="11.384040750188095"><ele>225.0</ele><time>2026-05-02T09:35:49Z</time></trkpt><trkpt lat="43.19160079930504" lon="11.384129442238775"><ele>225.0</ele><time>2026-05-02T09:35:50Z</time></trkpt><trkpt lat="43.19150573450175" lon="11.384289843019834"><ele>226.0</ele><time>2026-05-02T09:35:51Z</time></trkpt><trkpt lat="43.191396379442196" lon="11.384462398409454"><ele>227.0</ele><time>2026-05-02T09:35:52Z</time></trkpt><trkpt lat="43.1912730026291" lon="11.384604026921178"><ele>228.0</ele><time>2026-05-02T09:35:53Z</time></trkpt><trkpt lat="43.19116075316332" lon="11.38475830666602"><ele>228.0</ele><time>2026-05-02T09:35:54Z</time></trkpt><trkpt lat="43.19103388293578" lon="11.384913722774844"><ele>228.0</ele><time>2026-05-02T09:35:55Z</time></trkpt><trkpt lat="43.19089670515322" lon="11.385055662056818"><ele>228.0</ele><time>2026-05-02T09:35:56Z</time></trkpt><trkpt lat="43.190769713642034" lon="11.385173721014604"><ele>229.0</ele><time>2026-05-02T09:35:57Z</time></trkpt><trkpt lat="43.190647203790675" lon="11.385275731303745"><ele>230.0</ele><time>2026-05-02T09:35:58Z</time></trkpt><trkpt lat="43.19052585772876" lon="11.385386172288735"><ele>231.0</ele><time>2026-05-02T09:35:59Z</time></trkpt><trkpt lat="43.190378490142166" lon="11.385443929117319"><ele>232.0</ele><time>2026-05-02T09:36:00Z</time></trkpt><trkpt lat="43.19022645923071" lon="11.385514045015016"><ele>228.66666666666666</ele><time>2026-05-02T09:36:01Z</time></trkpt><trkpt lat="43.1900503853094" lon="11.385578837914744"><ele>225.33333333333331</ele><time>2026-05-02T09:36:02Z</time></trkpt><trkpt lat="43.18983967048132" lon="11.385637347700404"><ele>222.0</ele><time>2026-05-02T09:36:03Z</time></trkpt><trkpt lat="43.189590536633105" lon="11.38569531998557"><ele>220.5</ele><time>2026-05-02T09:36:04Z</time></trkpt><trkpt lat="43.18934134472284" lon="11.385755669899819"><ele>219.0</ele><time>2026-05-02T09:36:05Z</time></trkpt><trkpt lat="43.18913239599401" lon="11.385810007055191"><ele>220.75</ele><time>2026-05-02T09:36:06Z</time></trkpt><trkpt lat="43.18896409524294" lon="11.385866878960611"><ele>222.5</ele><time>2026-05-02T09:36:07Z</time></trkpt><trkpt lat="43.188822687823986" lon="11.38590923222534"><ele>224.25</ele><time>2026-05-02T09:36:08Z</time></trkpt><trkpt lat="43.18869700446679" lon="11.38593604808326"><ele>226.0</ele><time>2026-05-02T09:36:09Z</time></trkpt><trkpt lat="43.18859081573803" lon="11.385936277200765"><ele>226.0</ele><time>2026-05-02T09:36:10Z</time></trkpt><trkpt lat="43.18848550359441" lon="11.385891159362545"><ele>226.0</ele><time>2026-05-02T09:36:11Z</time></trkpt><trkpt lat="43.18837007889778" lon="11.385809238191365"><ele>226.0</ele><time>2026-05-02T09:36:12Z</time></trkpt><trkpt lat="43.18824101424996" lon="11.385700654769492"><ele>226.0</ele><time>2026-05-02T09:36:13Z</time></trkpt><trkpt lat="43.188105109058625" lon="11.385563963182664"><ele>230.66666666666666</ele><time>2026-05-02T09:36:14Z</time></trkpt><trkpt lat="43.18795839359782" lon="11.385451178181906"><ele>235.33333333333331</ele><time>2026-05-02T09:36:15Z</time></trkpt><trkpt lat="43.1878056565307" lon="11.385370214209392"><ele>240.0</ele><time>2026-05-02T09:36:16Z</time></trkpt><trkpt lat="43.18768585612482" lon="11.385317916713497"><ele>240.0</ele><time>2026-05-02T09:36:17Z</time></trkpt><trkpt lat="43.18757012807346" lon="11.385275856587116"><ele>240.0</ele><time>2026-05-02T09:36:18Z</time></trkpt><trkpt lat="43.1874517919264" lon="11.385248209227433"><ele>240.0</ele><time>2026-05-02T09:36:19Z</time></trkpt><trkpt lat="43.18732587111686" lon="11.385254081876"><ele>240.0</ele><time>2026-05-02T09:36:20Z</time></trkpt><trkpt lat="43.187201345460224" lon="11.385229343590224"><ele>242.66666666666669</ele><time>2026-05-02T09:36:21Z</time></trkpt><trkpt lat="43.187066177924066" lon="11.385250135754827"><ele>245.33333333333334</ele><time>2026-05-02T09:36:22Z</time></trkpt><trkpt lat="43.18691551939068" lon="11.385278835943597"><ele>248.0</ele><time>2026-05-02T09:36:23Z</time></trkpt><trkpt lat="43.18673660740976" lon="11.385317468101492"><ele>248.0</ele><time>2026-05-02T09:36:24Z</time></trkpt><trkpt lat="43.18652036084987" lon="11.38535692969703"><ele>248.0</ele><time>2026-05-02T09:36:25Z</time></trkpt><trkpt lat="43.18628891751665" lon="11.385390544895856"><ele>250.66666666666669</ele><time>2026-05-02T09:36:26Z</time></trkpt><trkpt lat="43.18607353988701" lon="11.385403192001238"><ele>253.33333333333331</ele><time>2026-05-02T09:36:26.998Z</time></trkpt><trkpt lat="43.185876957814365" lon="11.385405143627066"><ele>256.0</ele><time>2026-05-02T09:36:27.998Z</time></trkpt><trkpt lat="43.185744318164176" lon="11.385404934902992"><ele>258.2</ele><time>2026-05-02T09:36:28.998Z</time></trkpt><trkpt lat="43.18564536505251" lon="11.385403723945748"><ele>260.40000000000003</ele><time>2026-05-02T09:36:29.998Z</time></trkpt><trkpt lat="43.18555764178213" lon="11.38539240203027"><ele>262.6</ele><time>2026-05-02T09:36:30.998Z</time></trkpt><trkpt lat="43.18546944683964" lon="11.385365309345259"><ele>264.8</ele><time>2026-05-02T09:36:31.998Z</time></trkpt><trkpt lat="43.185371852533585" lon="11.385306823852481"><ele>267.0</ele><time>2026-05-02T09:36:32.998Z</time></trkpt><trkpt lat="43.18528271847259" lon="11.385205848036483"><ele>267.0</ele><time>2026-05-02T09:36:33.998Z</time></trkpt><trkpt lat="43.185184255905426" lon="11.385081308673577"><ele>267.0</ele><time>2026-05-02T09:36:34.998Z</time></trkpt><trkpt lat="43.185089174851356" lon="11.384943272296475"><ele>267.0</ele><time>2026-05-02T09:36:35.998Z</time></trkpt><trkpt lat="43.1849846172177" lon="11.38478447540387"><ele>267.0</ele><time>2026-05-02T09:36:36.998Z</time></trkpt><trkpt lat="43.1848778150769" lon="11.384623168635546"><ele>269.6666666666667</ele><time>2026-05-02T09:36:37.998Z</time></trkpt><trkpt lat="43.18476038862504" lon="11.38449044768047"><ele>272.33333333333337</ele><time>2026-05-02T09:36:38.998Z</time></trkpt><trkpt lat="43.18465205237406" lon="11.384340886938311"><ele>275.0</ele><time>2026-05-02T09:36:39.998Z</time></trkpt><trkpt lat="43.18451606112842" lon="11.384203216937383"><ele>275.0</ele><time>2026-05-02T09:36:40.998Z</time></trkpt><trkpt lat="43.18438047165593" lon="11.384078914281615"><ele>275.0</ele><time>2026-05-02T09:36:41.998Z</time></trkpt><trkpt lat="43.18423807473956" lon="11.383964970647236"><ele>275.0</ele><time>2026-05-02T09:36:42.998Z</time></trkpt><trkpt lat="43.18410634665574" lon="11.383883043434837"><ele>274.6666666666667</ele><time>2026-05-02T09:36:43.998Z</time></trkpt><trkpt lat="43.18396370606278" lon="11.383822148677824"><ele>274.3333333333333</ele><time>2026-05-02T09:36:44.998Z</time></trkpt><trkpt lat="43.183795728995136" lon="11.38376737409772"><ele>274.0</ele><time>2026-05-02T09:36:45.999Z</time></trkpt><trkpt lat="43.183622931339976" lon="11.383728753980712"><ele>274.0</ele><time>2026-05-02T09:36:46.999Z</time></trkpt><trkpt lat="43.183480387034265" lon="11.383647318710254"><ele>274.0</ele><time>2026-05-02T09:36:47.999Z</time></trkpt><trkpt lat="43.18333984499333" lon="11.383586777006531"><ele>274.0</ele><time>2026-05-02T09:36:48.999Z</time></trkpt><trkpt lat="43.18318332046503" lon="11.383518019520634"><ele>273.0</ele><time>2026-05-02T09:36:49.999Z</time></trkpt><trkpt lat="43.182987527935246" lon="11.383426880949317"><ele>272.0</ele><time>2026-05-02T09:36:50.999Z</time></trkpt><trkpt lat="43.182798898855424" lon="11.383344689349402"><ele>271.0</ele><time>2026-05-02T09:36:51.999Z</time></trkpt><trkpt lat="43.182634198358514" lon="11.383277700390659"><ele>271.0</ele><time>2026-05-02T09:36:52.999Z</time></trkpt><trkpt lat="43.18247906330288" lon="11.383216428459509"><ele>271.0</ele><time>2026-05-02T09:36:53.999Z</time></trkpt><trkpt lat="43.18231783560082" lon="11.383155343438329"><ele>271.0</ele><time>2026-05-02T09:36:54.999Z</time></trkpt><trkpt lat="43.18216471707316" lon="11.383103878367518"><ele>270.3333333333333</ele><time>2026-05-02T09:36:55.999Z</time></trkpt><trkpt lat="43.182007693406696" lon="11.383060937245293"><ele>269.6666666666667</ele><time>2026-05-02T09:36:56.999Z</time></trkpt><trkpt lat="43.18185192444012" lon="11.383025199708381"><ele>269.0</ele><time>2026-05-02T09:36:57.999Z</time></trkpt><trkpt lat="43.18170163789949" lon="11.382991757625689"><ele>268.25</ele><time>2026-05-02T09:36:58.999Z</time></trkpt><trkpt lat="43.18156324833443" lon="11.38296465114482"><ele>267.5</ele><time>2026-05-02T09:36:59.999Z</time></trkpt><trkpt lat="43.18144403248155" lon="11.382934827951734"><ele>266.75</ele><time>2026-05-02T09:37:00.999Z</time></trkpt><trkpt lat="43.18134680740124" lon="11.382906724611777"><ele>266.0</ele><time>2026-05-02T09:37:01.999Z</time></trkpt><trkpt lat="43.18125184993031" lon="11.382875148691605"><ele>266.0</ele><time>2026-05-02T09:37:02.999Z</time></trkpt><trkpt lat="43.18116415203361" lon="11.382836625703927"><ele>266.0</ele><time>2026-05-02T09:37:03.999Z</time></trkpt><trkpt lat="43.18109897320329" lon="11.382803552415663"><ele>266.0</ele><time>2026-05-02T09:37:04.999Z</time></trkpt><trkpt lat="43.18101898029806" lon="11.382760250374105"><ele>266.0</ele><time>2026-05-02T09:37:06.999Z</time></trkpt><trkpt lat="43.18094703343509" lon="11.382717743703708"><ele>266.0</ele><time>2026-05-02T09:37:20Z</time></trkpt><trkpt lat="43.18089062736182" lon="11.38267740986486"><ele>266.0</ele><time>2026-05-02T09:37:22Z</time></trkpt><trkpt lat="43.180805272538166" lon="11.3826674053533"><ele>266.0</ele><time>2026-05-02T09:37:24Z</time></trkpt><trkpt lat="43.180743153585894" lon="11.382719891085948"><ele>266.0</ele><time>2026-05-02T09:37:25Z</time></trkpt><trkpt lat="43.180677210591185" lon="11.382791035097183"><ele>266.0</ele><time>2026-05-02T09:37:26Z</time></trkpt><trkpt lat="43.18060003313995" lon="11.382872714199674"><ele>266.0</ele><time>2026-05-02T09:37:27Z</time></trkpt><trkpt lat="43.1805046167406" lon="11.382966789448275"><ele>266.0</ele><time>2026-05-02T09:37:28Z</time></trkpt><trkpt lat="43.180410539494986" lon="11.383055678698208"><ele>266.0</ele><time>2026-05-02T09:37:29Z</time></trkpt><trkpt lat="43.180317965794934" lon="11.383143118227657"><ele>266.0</ele><time>2026-05-02T09:37:30Z</time></trkpt><trkpt lat="43.18022416439074" lon="11.38323151627278"><ele>266.0</ele><time>2026-05-02T09:37:31Z</time></trkpt><trkpt lat="43.18011415537373" lon="11.383328989594444"><ele>266.0</ele><time>2026-05-02T09:37:32Z</time></trkpt><trkpt lat="43.17999793328617" lon="11.383411505815257"><ele>266.0</ele><time>2026-05-02T09:37:33Z</time></trkpt><trkpt lat="43.179872530451846" lon="11.38348252509683"><ele>266.0</ele><time>2026-05-02T09:37:34Z</time></trkpt><trkpt lat="43.179742628355484" lon="11.383551585161694"><ele>266.0</ele><time>2026-05-02T09:37:35Z</time></trkpt><trkpt lat="43.17961344954314" lon="11.383615980163526"><ele>266.0</ele><time>2026-05-02T09:37:36Z</time></trkpt><trkpt lat="43.179483558875106" lon="11.383679425391302"><ele>265.25</ele><time>2026-05-02T09:37:37Z</time></trkpt><trkpt lat="43.17936593627374" lon="11.383741567299852"><ele>264.5</ele><time>2026-05-02T09:37:38Z</time></trkpt><trkpt lat="43.179260304445286" lon="11.383799994978167"><ele>263.75</ele><time>2026-05-02T09:37:39Z</time></trkpt><trkpt lat="43.17915323996808" lon="11.38386315739887"><ele>263.0</ele><time>2026-05-02T09:37:40Z</time></trkpt><trkpt lat="43.17904293872843" lon="11.38392624729273"><ele>264.5</ele><time>2026-05-02T09:37:41Z</time></trkpt><trkpt lat="43.17893124578704" lon="11.383990759498658"><ele>266.0</ele><time>2026-05-02T09:37:42Z</time></trkpt><trkpt lat="43.17882400648722" lon="11.384067596639946"><ele>267.5</ele><time>2026-05-02T09:37:43Z</time></trkpt><trkpt lat="43.17871614344929" lon="11.38417420592447"><ele>269.0</ele><time>2026-05-02T09:37:44Z</time></trkpt><trkpt lat="43.17860564418911" lon="11.384311773110706"><ele>269.0</ele><time>2026-05-02T09:37:45Z</time></trkpt><trkpt lat="43.178471514832424" lon="11.384459593604898"><ele>269.0</ele><time>2026-05-02T09:37:46Z</time></trkpt><trkpt lat="43.178343707123936" lon="11.384655376168913"><ele>269.0</ele><time>2026-05-02T09:37:47Z</time></trkpt><trkpt lat="43.17818902360475" lon="11.384823119020618"><ele>269.0</ele><time>2026-05-02T09:37:48Z</time></trkpt><trkpt lat="43.17801079120507" lon="11.384978269809427"><ele>269.0</ele><time>2026-05-02T09:37:49Z</time></trkpt><trkpt lat="43.17783795798443" lon="11.385110898815862"><ele>269.0</ele><time>2026-05-02T09:37:50Z</time></trkpt><trkpt lat="43.17768070803874" lon="11.385240778445676"><ele>269.0</ele><time>2026-05-02T09:37:51Z</time></trkpt><trkpt lat="43.17753937671039" lon="11.385368489857795"><ele>269.0</ele><time>2026-05-02T09:37:52Z</time></trkpt><trkpt lat="43.17741121825676" lon="11.385493440381335"><ele>269.0</ele><time>2026-05-02T09:37:53Z</time></trkpt><trkpt lat="43.177301350574744" lon="11.385653983537829"><ele>270.6666666666667</ele><time>2026-05-02T09:37:54Z</time></trkpt><trkpt lat="43.17721495906224" lon="11.385833002873454"><ele>272.3333333333333</ele><time>2026-05-02T09:37:55Z</time></trkpt><trkpt lat="43.17712942327352" lon="11.386029222110112"><ele>274.0</ele><time>2026-05-02T09:37:56Z</time></trkpt><trkpt lat="43.177044613909075" lon="11.38624191870392"><ele>273.3333333333333</ele><time>2026-05-02T09:37:57Z</time></trkpt><trkpt lat="43.17695633000301" lon="11.386457470898216"><ele>272.6666666666667</ele><time>2026-05-02T09:37:58Z</time></trkpt><trkpt lat="43.17685733826558" lon="11.386682568345194"><ele>272.0</ele><time>2026-05-02T09:37:59Z</time></trkpt><trkpt lat="43.17675882590384" lon="11.386914374879954"><ele>272.0</ele><time>2026-05-02T09:38:00Z</time></trkpt><trkpt lat="43.17666725277428" lon="11.387146094068866"><ele>272.0</ele><time>2026-05-02T09:38:01Z</time></trkpt><trkpt lat="43.17658455689563" lon="11.38736507907646"><ele>272.0</ele><time>2026-05-02T09:38:02Z</time></trkpt><trkpt lat="43.17650046934837" lon="11.387569270903576"><ele>272.6666666666667</ele><time>2026-05-02T09:38:03Z</time></trkpt><trkpt lat="43.17640469109599" lon="11.387767612301733"><ele>273.3333333333333</ele><time>2026-05-02T09:38:04Z</time></trkpt><trkpt lat="43.176284438694076" lon="11.387948255234152"><ele>274.0</ele><time>2026-05-02T09:38:05Z</time></trkpt><trkpt lat="43.17614953631551" lon="11.388109422801271"><ele>274.0</ele><time>2026-05-02T09:38:06Z</time></trkpt><trkpt lat="43.17600207402997" lon="11.388238551538016"><ele>274.0</ele><time>2026-05-02T09:38:07Z</time></trkpt><trkpt lat="43.17584346841441" lon="11.388345968478355"><ele>274.0</ele><time>2026-05-02T09:38:08Z</time></trkpt><trkpt lat="43.175680695662045" lon="11.388429761909588"><ele>273.66666666666663</ele><time>2026-05-02T09:38:09Z</time></trkpt><trkpt lat="43.175513311188524" lon="11.388504188460304"><ele>273.3333333333333</ele><time>2026-05-02T09:38:10Z</time></trkpt><trkpt lat="43.17535322430195" lon="11.388571280087747"><ele>273.0</ele><time>2026-05-02T09:38:11Z</time></trkpt><trkpt lat="43.17519843801302" lon="11.388632768187055"><ele>273.0</ele><time>2026-05-02T09:38:12Z</time></trkpt><trkpt lat="43.17505658743295" lon="11.388692558510876"><ele>273.0</ele><time>2026-05-02T09:38:13Z</time></trkpt><trkpt lat="43.17491748364639" lon="11.388754292986995"><ele>273.0</ele><time>2026-05-02T09:38:14Z</time></trkpt><trkpt lat="43.174773879922284" lon="11.38881921122064"><ele>273.0</ele><time>2026-05-02T09:38:15Z</time></trkpt><trkpt lat="43.17463419634759" lon="11.388881120666623"><ele>274.5</ele><time>2026-05-02T09:38:16Z</time></trkpt><trkpt lat="43.17449665405589" lon="11.388939892286363"><ele>276.0</ele><time>2026-05-02T09:38:17Z</time></trkpt><trkpt lat="43.17436047656584" lon="11.38899902740527"><ele>277.5</ele><time>2026-05-02T09:38:18Z</time></trkpt><trkpt lat="43.174229051768215" lon="11.389060277951703"><ele>279.0</ele><time>2026-05-02T09:38:19Z</time></trkpt><trkpt lat="43.17410160006898" lon="11.389121694148242"><ele>282.0</ele><time>2026-05-02T09:38:20Z</time></trkpt><trkpt lat="43.17397735927199" lon="11.38920599136066"><ele>285.0</ele><time>2026-05-02T09:38:21Z</time></trkpt><trkpt lat="43.173872749873055" lon="11.389306492931595"><ele>288.0</ele><time>2026-05-02T09:38:22Z</time></trkpt><trkpt lat="43.17377895167776" lon="11.389417998835738"><ele>291.0</ele><time>2026-05-02T09:38:23Z</time></trkpt><trkpt lat="43.173692413098806" lon="11.389543049765008"><ele>289.75</ele><time>2026-05-02T09:38:24Z</time></trkpt><trkpt lat="43.17361133738699" lon="11.389678367661428"><ele>288.5</ele><time>2026-05-02T09:38:25Z</time></trkpt><trkpt lat="43.17353394875645" lon="11.38981436932218"><ele>287.25</ele><time>2026-05-02T09:38:26Z</time></trkpt><trkpt lat="43.17347615405596" lon="11.389957082591915"><ele>286.0</ele><time>2026-05-02T09:38:27.001Z</time></trkpt><trkpt lat="43.17337920585487" lon="11.390085039255"><ele>286.0</ele><time>2026-05-02T09:38:28.001Z</time></trkpt><trkpt lat="43.17330774716712" lon="11.390204981187434"><ele>286.0</ele><time>2026-05-02T09:38:29.001Z</time></trkpt><trkpt lat="43.173239373702046" lon="11.390311719593946"><ele>286.0</ele><time>2026-05-02T09:38:30.001Z</time></trkpt><trkpt lat="43.17317384402099" lon="11.39040918771938"><ele>286.0</ele><time>2026-05-02T09:38:31.001Z</time></trkpt><trkpt lat="43.17309724518112" lon="11.390516221142114"><ele>286.0</ele><time>2026-05-02T09:38:32.001Z</time></trkpt><trkpt lat="43.17300273702784" lon="11.390634247446302"><ele>289.0</ele><time>2026-05-02T09:38:32.998Z</time></trkpt><trkpt lat="43.17288291472356" lon="11.390704389120994"><ele>292.0</ele><time>2026-05-02T09:38:33.998Z</time></trkpt><trkpt lat="43.1727640362947" lon="11.390766392620094"><ele>295.0</ele><time>2026-05-02T09:38:34.998Z</time></trkpt><trkpt lat="43.17264660052112" lon="11.390840557875604"><ele>298.0</ele><time>2026-05-02T09:38:35.998Z</time></trkpt><trkpt lat="43.172527673616564" lon="11.39089285685304"><ele>298.0</ele><time>2026-05-02T09:38:36.998Z</time></trkpt><trkpt lat="43.17242769585883" lon="11.39094294010104"><ele>298.0</ele><time>2026-05-02T09:38:37.998Z</time></trkpt><trkpt lat="43.172333615175106" lon="11.390994225390699"><ele>298.0</ele><time>2026-05-02T09:38:38.998Z</time></trkpt><trkpt lat="43.1722365868651" lon="11.39103980596921"><ele>298.0</ele><time>2026-05-02T09:38:39.998Z</time></trkpt><trkpt lat="43.172142634918195" lon="11.391086427810073"><ele>298.0</ele><time>2026-05-02T09:38:40.998Z</time></trkpt><trkpt lat="43.17204925928663" lon="11.391135925880599"><ele>299.4</ele><time>2026-05-02T09:38:41.998Z</time></trkpt><trkpt lat="43.17195884904933" lon="11.391180696410206"><ele>300.8</ele><time>2026-05-02T09:38:42.998Z</time></trkpt><trkpt lat="43.17186281859258" lon="11.391222983900754"><ele>302.2</ele><time>2026-05-02T09:38:43.998Z</time></trkpt><trkpt lat="43.17176146406701" lon="11.391259328666893"><ele>303.6</ele><time>2026-05-02T09:38:44.998Z</time></trkpt><trkpt lat="43.171667356530975" lon="11.391288349479902"><ele>305.0</ele><time>2026-05-02T09:38:45.998Z</time></trkpt><trkpt lat="43.17157621349844" lon="11.391310969868911"><ele>304.4</ele><time>2026-05-02T09:38:46.998Z</time></trkpt><trkpt lat="43.17148502158497" lon="11.391320539634272"><ele>303.8</ele><time>2026-05-02T09:38:47.998Z</time></trkpt><trkpt lat="43.17138733526725" lon="11.391322202927874"><ele>303.2</ele><time>2026-05-02T09:38:48.999Z</time></trkpt><trkpt lat="43.17128261153591" lon="11.391320726517359"><ele>302.6</ele><time>2026-05-02T09:38:49.999Z</time></trkpt><trkpt lat="43.17117497902815" lon="11.391299500815748"><ele>302.0</ele><time>2026-05-02T09:38:50.999Z</time></trkpt><trkpt lat="43.17107542079692" lon="11.391232110762155"><ele>302.0</ele><time>2026-05-02T09:38:51.999Z</time></trkpt><trkpt lat="43.170969937085985" lon="11.391171955148577"><ele>302.0</ele><time>2026-05-02T09:38:52.999Z</time></trkpt><trkpt lat="43.170874833751085" lon="11.39112919986655"><ele>302.0</ele><time>2026-05-02T09:38:53.999Z</time></trkpt><trkpt lat="43.17079673299212" lon="11.391077583920012"><ele>302.0</ele><time>2026-05-02T09:38:54.999Z</time></trkpt><trkpt lat="43.170718080093096" lon="11.391032635097716"><ele>302.0</ele><time>2026-05-02T09:38:55.999Z</time></trkpt><trkpt lat="43.17064113790416" lon="11.390990442045569"><ele>302.0</ele><time>2026-05-02T09:38:56.999Z</time></trkpt><trkpt lat="43.17057756000808" lon="11.390955218489477"><ele>302.0</ele><time>2026-05-02T09:38:57.999Z</time></trkpt><trkpt lat="43.17051530439897" lon="11.390920330457407"><ele>302.0</ele><time>2026-05-02T09:38:58.999Z</time></trkpt><trkpt lat="43.17045235601133" lon="11.390882842769647"><ele>302.0</ele><time>2026-05-02T09:38:59.999Z</time></trkpt><trkpt lat="43.17037299733409" lon="11.390828505038732"><ele>302.0</ele><time>2026-05-02T09:39:00.999Z</time></trkpt><trkpt lat="43.17028562256373" lon="11.39076151036519"><ele>302.0</ele><time>2026-05-02T09:39:01.999Z</time></trkpt><trkpt lat="43.170201175739415" lon="11.39069204743902"><ele>302.0</ele><time>2026-05-02T09:39:02.999Z</time></trkpt><trkpt lat="43.170115648122376" lon="11.39062182585291"><ele>302.0</ele><time>2026-05-02T09:39:03.999Z</time></trkpt><trkpt lat="43.17001775698935" lon="11.390545624625357"><ele>302.0</ele><time>2026-05-02T09:39:04.999Z</time></trkpt><trkpt lat="43.16990784810949" lon="11.390461645441773"><ele>302.0</ele><time>2026-05-02T09:39:05.999Z</time></trkpt><trkpt lat="43.169801651549186" lon="11.390350856539998"><ele>299.0</ele><time>2026-05-02T09:39:06.999Z</time></trkpt><trkpt lat="43.16967975944435" lon="11.390260032703324"><ele>296.0</ele><time>2026-05-02T09:39:07.999Z</time></trkpt><trkpt lat="43.169545564024375" lon="11.390172783259839"><ele>293.0</ele><time>2026-05-02T09:39:08.999Z</time></trkpt><trkpt lat="43.169408337724605" lon="11.390101737731445"><ele>290.0</ele><time>2026-05-02T09:39:09.999Z</time></trkpt><trkpt lat="43.16927781610795" lon="11.390050421154866"><ele>290.0</ele><time>2026-05-02T09:39:10.999Z</time></trkpt><trkpt lat="43.169144195042605" lon="11.390034094931998"><ele>290.0</ele><time>2026-05-02T09:39:12Z</time></trkpt><trkpt lat="43.16902773785718" lon="11.390013256133027"><ele>290.0</ele><time>2026-05-02T09:39:13Z</time></trkpt><trkpt lat="43.16892254595183" lon="11.389980870434401"><ele>290.0</ele><time>2026-05-02T09:39:14Z</time></trkpt><trkpt lat="43.168813126014726" lon="11.389971592733362"><ele>287.25</ele><time>2026-05-02T09:39:15Z</time></trkpt><trkpt lat="43.16871340342241" lon="11.389961853997827"><ele>284.5</ele><time>2026-05-02T09:39:16Z</time></trkpt><trkpt lat="43.16860727648096" lon="11.389951516244107"><ele>281.75</ele><time>2026-05-02T09:39:17Z</time></trkpt><trkpt lat="43.168479551938" lon="11.38993993854249"><ele>279.0</ele><time>2026-05-02T09:39:18Z</time></trkpt><trkpt lat="43.16832138683174" lon="11.38994961590242"><ele>277.0</ele><time>2026-05-02T09:39:19Z</time></trkpt><trkpt lat="43.16814122311877" lon="11.38991736609888"><ele>275.0</ele><time>2026-05-02T09:39:20Z</time></trkpt><trkpt lat="43.16794916058573" lon="11.389899052344136"><ele>273.0</ele><time>2026-05-02T09:39:21Z</time></trkpt><trkpt lat="43.1677388779917" lon="11.389884734022884"><ele>273.0</ele><time>2026-05-02T09:39:22Z</time></trkpt><trkpt lat="43.16753346220036" lon="11.389874965313012"><ele>273.0</ele><time>2026-05-02T09:39:23Z</time></trkpt><trkpt lat="43.16734801195402" lon="11.389865908965321"><ele>273.0</ele><time>2026-05-02T09:39:24Z</time></trkpt><trkpt lat="43.16717604891882" lon="11.389854987318731"><ele>273.3333333333333</ele><time>2026-05-02T09:39:25Z</time></trkpt><trkpt lat="43.167015286675266" lon="11.389855723843064"><ele>273.66666666666663</ele><time>2026-05-02T09:39:26Z</time></trkpt><trkpt lat="43.16686803704998" lon="11.38988814621497"><ele>274.0</ele><time>2026-05-02T09:39:27Z</time></trkpt><trkpt lat="43.166734634554295" lon="11.389953177158727"><ele>274.0</ele><time>2026-05-02T09:39:28Z</time></trkpt><trkpt lat="43.16661443403289" lon="11.39004005545319"><ele>274.0</ele><time>2026-05-02T09:39:29Z</time></trkpt><trkpt lat="43.16651131945171" lon="11.390143624345052"><ele>274.0</ele><time>2026-05-02T09:39:30Z</time></trkpt><trkpt lat="43.16641931460973" lon="11.390257840198442"><ele>274.0</ele><time>2026-05-02T09:39:31Z</time></trkpt><trkpt lat="43.166349137338074" lon="11.390369096884625"><ele>274.59999999999997</ele><time>2026-05-02T09:39:32Z</time></trkpt><trkpt lat="43.1662966936807" lon="11.390465052783929"><ele>275.2</ele><time>2026-05-02T09:39:33Z</time></trkpt><trkpt lat="43.16624304519669" lon="11.39053817956888"><ele>275.79999999999995</ele><time>2026-05-02T09:39:34Z</time></trkpt><trkpt lat="43.166161074970056" lon="11.390607244144991"><ele>276.4</ele><time>2026-05-02T09:39:35Z</time></trkpt><trkpt lat="43.16606586326596" lon="11.390671955370852"><ele>277.0</ele><time>2026-05-02T09:39:36Z</time></trkpt><trkpt lat="43.16594226144461" lon="11.390752184395843"><ele>276.0</ele><time>2026-05-02T09:39:37Z</time></trkpt><trkpt lat="43.16578667167692" lon="11.39082926017831"><ele>275.0</ele><time>2026-05-02T09:39:38Z</time></trkpt><trkpt lat="43.165610388085895" lon="11.390863691905816"><ele>274.0</ele><time>2026-05-02T09:39:39Z</time></trkpt><trkpt lat="43.165402320868594" lon="11.390920927059703"><ele>274.0</ele><time>2026-05-02T09:39:40Z</time></trkpt><trkpt lat="43.16518140392938" lon="11.390980420610745"><ele>274.0</ele><time>2026-05-02T09:39:41Z</time></trkpt><trkpt lat="43.16499912904413" lon="11.39105129218487"><ele>274.0</ele><time>2026-05-02T09:39:42Z</time></trkpt><trkpt lat="43.16484975364553" lon="11.391066635215584"><ele>274.25</ele><time>2026-05-02T09:39:43Z</time></trkpt><trkpt lat="43.16471210378909" lon="11.391102474405386"><ele>274.5</ele><time>2026-05-02T09:39:44Z</time></trkpt><trkpt lat="43.164571513097194" lon="11.391160706099269"><ele>274.75</ele><time>2026-05-02T09:39:45Z</time></trkpt><trkpt lat="43.16441297555533" lon="11.391196979696709"><ele>275.0</ele><time>2026-05-02T09:39:46Z</time></trkpt><trkpt lat="43.16424243693603" lon="11.391241212752437"><ele>275.0</ele><time>2026-05-02T09:39:47Z</time></trkpt><trkpt lat="43.164055594509804" lon="11.391287598082224"><ele>275.0</ele><time>2026-05-02T09:39:48Z</time></trkpt><trkpt lat="43.163872299609444" lon="11.39133473957573"><ele>275.0</ele><time>2026-05-02T09:39:49Z</time></trkpt><trkpt lat="43.163696486014956" lon="11.391378153564563"><ele>275.6666666666667</ele><time>2026-05-02T09:39:50Z</time></trkpt><trkpt lat="43.16353524826994" lon="11.3914173646157"><ele>276.3333333333333</ele><time>2026-05-02T09:39:51Z</time></trkpt><trkpt lat="43.16336537800961" lon="11.391456908383997"><ele>277.0</ele><time>2026-05-02T09:39:52Z</time></trkpt><trkpt lat="43.163208037871975" lon="11.391493993978951"><ele>278.25</ele><time>2026-05-02T09:39:53Z</time></trkpt><trkpt lat="43.163076140605604" lon="11.391521719147681"><ele>279.5</ele><time>2026-05-02T09:39:54Z</time></trkpt><trkpt lat="43.1629743684925" lon="11.391539723924762"><ele>280.75</ele><time>2026-05-02T09:39:55Z</time></trkpt><trkpt lat="43.16286925517175" lon="11.391558524885195"><ele>282.0</ele><time>2026-05-02T09:39:56Z</time></trkpt><trkpt lat="43.16275394604426" lon="11.391585517354363"><ele>282.0</ele><time>2026-05-02T09:39:57.001Z</time></trkpt><trkpt lat="43.16263924909114" lon="11.391610356465426"><ele>282.0</ele><time>2026-05-02T09:39:58.001Z</time></trkpt><trkpt lat="43.16252806111667" lon="11.391629653802635"><ele>282.0</ele><time>2026-05-02T09:39:59.001Z</time></trkpt><trkpt lat="43.16242103756425" lon="11.391642997271624"><ele>282.0</ele><time>2026-05-02T09:40:00.001Z</time></trkpt><trkpt lat="43.162327058539" lon="11.391650869003291"><ele>282.0</ele><time>2026-05-02T09:40:01.001Z</time></trkpt><trkpt lat="43.16225103264738" lon="11.391653020529747"><ele>282.6666666666667</ele><time>2026-05-02T09:40:02.001Z</time></trkpt><trkpt lat="43.162178496805026" lon="11.391660222148245"><ele>283.3333333333333</ele><time>2026-05-02T09:40:03.001Z</time></trkpt><trkpt lat="43.16210047214943" lon="11.391675957949177"><ele>284.0</ele><time>2026-05-02T09:40:04.001Z</time></trkpt><trkpt lat="43.162022622220235" lon="11.391697967783909"><ele>284.66666666666663</ele><time>2026-05-02T09:40:05.001Z</time></trkpt><trkpt lat="43.16193779062665" lon="11.391702677617092"><ele>285.3333333333333</ele><time>2026-05-02T09:40:07.001Z</time></trkpt><trkpt lat="43.161872316698485" lon="11.391698833662943"><ele>286.0</ele><time>2026-05-02T09:40:25.001Z</time></trkpt><trkpt lat="43.161819559459715" lon="11.391793202295572"><ele>286.0</ele><time>2026-05-02T09:40:27.001Z</time></trkpt><trkpt lat="43.16177807245457" lon="11.39188530860461"><ele>286.0</ele><time>2026-05-02T09:40:28.001Z</time></trkpt><trkpt lat="43.16172756155824" lon="11.392009205794057"><ele>286.0</ele><time>2026-05-02T09:40:29.001Z</time></trkpt><trkpt lat="43.161674193019714" lon="11.392175281992058"><ele>286.0</ele><time>2026-05-02T09:40:30.001Z</time></trkpt><trkpt lat="43.16160581600944" lon="11.392354163168644"><ele>285.0</ele><time>2026-05-02T09:40:31.001Z</time></trkpt><trkpt lat="43.161564227693404" lon="11.392544090960085"><ele>284.0</ele><time>2026-05-02T09:40:32.001Z</time></trkpt><trkpt lat="43.161501205642445" lon="11.392706414840351"><ele>283.0</ele><time>2026-05-02T09:40:33.001Z</time></trkpt><trkpt lat="43.16141909096763" lon="11.392869614301778"><ele>282.0</ele><time>2026-05-02T09:40:34.001Z</time></trkpt><trkpt lat="43.16129718382227" lon="11.392996859891822"><ele>281.0</ele><time>2026-05-02T09:40:35.001Z</time></trkpt><trkpt lat="43.161143215296015" lon="11.393104627823751"><ele>280.0</ele><time>2026-05-02T09:40:36.001Z</time></trkpt><trkpt lat="43.16096471571553" lon="11.39319075988401"><ele>279.0</ele><time>2026-05-02T09:40:37.001Z</time></trkpt><trkpt lat="43.16077660699632" lon="11.393268304556232"><ele>278.3333333333333</ele><time>2026-05-02T09:40:38.001Z</time></trkpt><trkpt lat="43.160574905092545" lon="11.39334587841481"><ele>277.66666666666663</ele><time>2026-05-02T09:40:38.998Z</time></trkpt><trkpt lat="43.160364440605115" lon="11.393434483383144"><ele>277.0</ele><time>2026-05-02T09:40:39.998Z</time></trkpt><trkpt lat="43.160149988358334" lon="11.39352976949544"><ele>277.0</ele><time>2026-05-02T09:40:40.998Z</time></trkpt><trkpt lat="43.159943605432844" lon="11.393629777628066"><ele>277.0</ele><time>2026-05-02T09:40:41.998Z</time></trkpt><trkpt lat="43.15974257267771" lon="11.393743852289676"><ele>277.0</ele><time>2026-05-02T09:40:42.998Z</time></trkpt><trkpt lat="43.159558472848396" lon="11.393872037062915"><ele>276.66666666666663</ele><time>2026-05-02T09:40:43.998Z</time></trkpt><trkpt lat="43.15938825792328" lon="11.394025245055621"><ele>276.3333333333333</ele><time>2026-05-02T09:40:44.998Z</time></trkpt><trkpt lat="43.1592294577257" lon="11.394207118064436"><ele>276.0</ele><time>2026-05-02T09:40:45.998Z</time></trkpt><trkpt lat="43.15908383514346" lon="11.39440742551149"><ele>277.0</ele><time>2026-05-02T09:40:46.998Z</time></trkpt><trkpt lat="43.158954941431965" lon="11.394615641364107"><ele>278.0</ele><time>2026-05-02T09:40:47.998Z</time></trkpt><trkpt lat="43.158844969771295" lon="11.394833308474954"><ele>279.0</ele><time>2026-05-02T09:40:48.999Z</time></trkpt><trkpt lat="43.158760292183125" lon="11.395078173624153"><ele>279.0</ele><time>2026-05-02T09:40:49.999Z</time></trkpt><trkpt lat="43.15870757405033" lon="11.395349589899297"><ele>279.0</ele><time>2026-05-02T09:40:50.999Z</time></trkpt><trkpt lat="43.15867888382711" lon="11.395650446876509"><ele>279.0</ele><time>2026-05-02T09:40:51.999Z</time></trkpt><trkpt lat="43.15866990472692" lon="11.395982229545135"><ele>279.0</ele><time>2026-05-02T09:40:52.999Z</time></trkpt><trkpt lat="43.15867488688683" lon="11.396326667272763"><ele>279.0</ele><time>2026-05-02T09:40:53.999Z</time></trkpt><trkpt lat="43.15867363292776" lon="11.396669399508573"><ele>279.5</ele><time>2026-05-02T09:40:54.999Z</time></trkpt><trkpt lat="43.15866821721162" lon="11.39701264030095"><ele>280.0</ele><time>2026-05-02T09:40:55.999Z</time></trkpt><trkpt lat="43.158668889094706" lon="11.397331340309572"><ele>280.0</ele><time>2026-05-02T09:40:56.999Z</time></trkpt><trkpt lat="43.158658652209695" lon="11.397632933872037"><ele>280.0</ele><time>2026-05-02T09:40:57.999Z</time></trkpt><trkpt lat="43.158705081278185" lon="11.397932792361726"><ele>280.0</ele><time>2026-05-02T09:40:58.999Z</time></trkpt><trkpt lat="43.15876311238199" lon="11.398257372047496"><ele>280.66666666666663</ele><time>2026-05-02T09:40:59.999Z</time></trkpt><trkpt lat="43.15882747392279" lon="11.39855124528757"><ele>281.3333333333333</ele><time>2026-05-02T09:41:00.999Z</time></trkpt><trkpt lat="43.158893287494465" lon="11.39881281529455"><ele>282.0</ele><time>2026-05-02T09:41:01.999Z</time></trkpt><trkpt lat="43.158911218995804" lon="11.399043684908609"><ele>282.5</ele><time>2026-05-02T09:41:02.999Z</time></trkpt><trkpt lat="43.15891304843997" lon="11.399242025769649"><ele>283.0</ele><time>2026-05-02T09:41:03.999Z</time></trkpt><trkpt lat="43.1588826686321" lon="11.399403676059531"><ele>283.5</ele><time>2026-05-02T09:41:04.999Z</time></trkpt><trkpt lat="43.15883115595372" lon="11.399515820202614"><ele>284.0</ele><time>2026-05-02T09:41:05.999Z</time></trkpt><trkpt lat="43.15874953784488" lon="11.399602632338398"><ele>284.0</ele><time>2026-05-02T09:41:06.999Z</time></trkpt><trkpt lat="43.15864701943238" lon="11.399685003525182"><ele>284.0</ele><time>2026-05-02T09:41:07.999Z</time></trkpt><trkpt lat="43.15851291397878" lon="11.3996264264582"><ele>284.0</ele><time>2026-05-02T09:41:08.999Z</time></trkpt><trkpt lat="43.15836923920462" lon="11.399610239201614"><ele>284.0</ele><time>2026-05-02T09:41:10Z</time></trkpt><trkpt lat="43.158207859997084" lon="11.399614619352034"><ele>286.0</ele><time>2026-05-02T09:41:11Z</time></trkpt><trkpt lat="43.15803904442756" lon="11.399640742059074"><ele>288.0</ele><time>2026-05-02T09:41:12Z</time></trkpt><trkpt lat="43.157881760940924" lon="11.399724985866873"><ele>290.0</ele><time>2026-05-02T09:41:13Z</time></trkpt><trkpt lat="43.15773780344537" lon="11.39985616871653"><ele>290.0</ele><time>2026-05-02T09:41:14Z</time></trkpt><trkpt lat="43.15760286148706" lon="11.400005968213838"><ele>290.0</ele><time>2026-05-02T09:41:15Z</time></trkpt><trkpt lat="43.157472462176926" lon="11.40009629386202"><ele>290.0</ele><time>2026-05-02T09:41:16Z</time></trkpt><trkpt lat="43.15735584427766" lon="11.400147983171498"><ele>290.0</ele><time>2026-05-02T09:41:17Z</time></trkpt><trkpt lat="43.157238938572505" lon="11.400178467102364"><ele>291.33333333333337</ele><time>2026-05-02T09:41:18Z</time></trkpt><trkpt lat="43.15710734156124" lon="11.400168935686478"><ele>292.6666666666667</ele><time>2026-05-02T09:41:19Z</time></trkpt><trkpt lat="43.15692274210459" lon="11.400120210460834"><ele>294.0</ele><time>2026-05-02T09:41:20Z</time></trkpt><trkpt lat="43.156763373969724" lon="11.400051745476691"><ele>294.0</ele><time>2026-05-02T09:41:21Z</time></trkpt><trkpt lat="43.15662970580359" lon="11.400004188239235"><ele>294.0</ele><time>2026-05-02T09:41:22Z</time></trkpt><trkpt lat="43.1565125407003" lon="11.399982755644263"><ele>294.0</ele><time>2026-05-02T09:41:23Z</time></trkpt><trkpt lat="43.15640979711548" lon="11.400019353204435"><ele>294.0</ele><time>2026-05-02T09:41:24Z</time></trkpt><trkpt lat="43.156329231342966" lon="11.400102327392473"><ele>297.25</ele><time>2026-05-02T09:41:25Z</time></trkpt><trkpt lat="43.15627760183573" lon="11.400232785670102"><ele>300.5</ele><time>2026-05-02T09:41:26Z</time></trkpt><trkpt lat="43.156272754835996" lon="11.400382440979971"><ele>303.75</ele><time>2026-05-02T09:41:27Z</time></trkpt><trkpt lat="43.156313033915474" lon="11.40054866563131"><ele>307.0</ele><time>2026-05-02T09:41:28Z</time></trkpt><trkpt lat="43.156391412683085" lon="11.400736217356748"><ele>307.3333333333333</ele><time>2026-05-02T09:41:29Z</time></trkpt><trkpt lat="43.15648780606114" lon="11.400931761790767"><ele>307.6666666666667</ele><time>2026-05-02T09:41:30Z</time></trkpt><trkpt lat="43.156582233968614" lon="11.401129032733216"><ele>308.0</ele><time>2026-05-02T09:41:31Z</time></trkpt><trkpt lat="43.156643867337735" lon="11.401333209135785"><ele>300.33333333333337</ele><time>2026-05-02T09:41:32Z</time></trkpt><trkpt lat="43.15669583518022" lon="11.401525918322267"><ele>292.6666666666667</ele><time>2026-05-02T09:41:33Z</time></trkpt><trkpt lat="43.156696948452705" lon="11.401727383169085"><ele>285.0</ele><time>2026-05-02T09:41:34Z</time></trkpt><trkpt lat="43.1566655178004" lon="11.401944932063756"><ele>284.3333333333333</ele><time>2026-05-02T09:41:35Z</time></trkpt><trkpt lat="43.15662144496101" lon="11.402198085456552"><ele>283.66666666666663</ele><time>2026-05-02T09:41:36Z</time></trkpt><trkpt lat="43.15658173782076" lon="11.402481191493377"><ele>283.0</ele><time>2026-05-02T09:41:37Z</time></trkpt><trkpt lat="43.15652707207461" lon="11.40277053900722"><ele>288.0</ele><time>2026-05-02T09:41:38Z</time></trkpt><trkpt lat="43.156485622036996" lon="11.40305679219817"><ele>293.0</ele><time>2026-05-02T09:41:39Z</time></trkpt><trkpt lat="43.15643395789482" lon="11.403357296261051"><ele>298.0</ele><time>2026-05-02T09:41:40Z</time></trkpt><trkpt lat="43.15639514555721" lon="11.403622959820792"><ele>296.0</ele><time>2026-05-02T09:41:41Z</time></trkpt><trkpt lat="43.15635983875205" lon="11.403864628640326"><ele>294.0</ele><time>2026-05-02T09:41:42Z</time></trkpt><trkpt lat="43.156394056175415" lon="11.404101286796111"><ele>292.0</ele><time>2026-05-02T09:41:43Z</time></trkpt><trkpt lat="43.15633598859307" lon="11.404284261116372"><ele>292.0</ele><time>2026-05-02T09:41:44Z</time></trkpt><trkpt lat="43.156246151696394" lon="11.404454740410706"><ele>292.0</ele><time>2026-05-02T09:41:45.001Z</time></trkpt><trkpt lat="43.15611959460237" lon="11.404615054360839"><ele>292.0</ele><time>2026-05-02T09:41:46.001Z</time></trkpt><trkpt lat="43.15596886398349" lon="11.404741033998086"><ele>289.66666666666663</ele><time>2026-05-02T09:41:47.001Z</time></trkpt><trkpt lat="43.15580482732539" lon="11.40483061369574"><ele>287.3333333333333</ele><time>2026-05-02T09:41:48.001Z</time></trkpt><trkpt lat="43.15561984713469" lon="11.404886118986658"><ele>285.0</ele><time>2026-05-02T09:41:49.001Z</time></trkpt><trkpt lat="43.155407152719434" lon="11.404910709390844"><ele>285.0</ele><time>2026-05-02T09:41:50.001Z</time></trkpt><trkpt lat="43.15519397452896" lon="11.404959718979637"><ele>285.0</ele><time>2026-05-02T09:41:51.001Z</time></trkpt><trkpt lat="43.15498297759942" lon="11.405047042902996"><ele>285.0</ele><time>2026-05-02T09:41:52.001Z</time></trkpt><trkpt lat="43.15476983324954" lon="11.405148439418872"><ele>283.0</ele><time>2026-05-02T09:41:53.001Z</time></trkpt><trkpt lat="43.15455984052453" lon="11.405249662068524"><ele>281.0</ele><time>2026-05-02T09:41:54.001Z</time></trkpt><trkpt lat="43.15436295647768" lon="11.405372097142758"><ele>279.0</ele><time>2026-05-02T09:41:55.001Z</time></trkpt><trkpt lat="43.15419415603164" lon="11.405499407359102"><ele>281.3333333333333</ele><time>2026-05-02T09:41:56.001Z</time></trkpt><trkpt lat="43.15403667394655" lon="11.405604738900179"><ele>283.66666666666663</ele><time>2026-05-02T09:41:57.001Z</time></trkpt><trkpt lat="43.153859841925325" lon="11.405664699557844"><ele>286.0</ele><time>2026-05-02T09:41:58.001Z</time></trkpt><trkpt lat="43.153655823047" lon="11.405681575832329"><ele>286.0</ele><time>2026-05-02T09:41:59.001Z</time></trkpt><trkpt lat="43.15346491580833" lon="11.405697271603207"><ele>286.0</ele><time>2026-05-02T09:42:00.001Z</time></trkpt><trkpt lat="43.15329348945056" lon="11.405747411720583"><ele>286.0</ele><time>2026-05-02T09:42:01.001Z</time></trkpt><trkpt lat="43.153131424303645" lon="11.405863774154255"><ele>285.0</ele><time>2026-05-02T09:42:02.001Z</time></trkpt><trkpt lat="43.152968687899616" lon="11.406036222522866"><ele>284.0</ele><time>2026-05-02T09:42:03.001Z</time></trkpt><trkpt lat="43.152806656919616" lon="11.406225725132456"><ele>283.0</ele><time>2026-05-02T09:42:04.001Z</time></trkpt><trkpt lat="43.15264546309728" lon="11.406381366446839"><ele>283.0</ele><time>2026-05-02T09:42:05.001Z</time></trkpt><trkpt lat="43.15246874742175" lon="11.406494621107983"><ele>283.0</ele><time>2026-05-02T09:42:06.001Z</time></trkpt><trkpt lat="43.15227883149451" lon="11.406573779698356"><ele>283.0</ele><time>2026-05-02T09:42:07.001Z</time></trkpt><trkpt lat="43.152084404276955" lon="11.406619418931914"><ele>283.0</ele><time>2026-05-02T09:42:08.001Z</time></trkpt><trkpt lat="43.15188478159892" lon="11.406633068206766"><ele>283.0</ele><time>2026-05-02T09:42:09.001Z</time></trkpt><trkpt lat="43.15168748463676" lon="11.406631610284933"><ele>283.0</ele><time>2026-05-02T09:42:10.001Z</time></trkpt><trkpt lat="43.15148827065363" lon="11.406644036643735"><ele>284.0</ele><time>2026-05-02T09:42:11.001Z</time></trkpt><trkpt lat="43.15129367186694" lon="11.406684663098334"><ele>285.0</ele><time>2026-05-02T09:42:12.001Z</time></trkpt><trkpt lat="43.15111986934089" lon="11.406756913407841"><ele>286.0</ele><time>2026-05-02T09:42:13.001Z</time></trkpt><trkpt lat="43.15094543866477" lon="11.406799649932413"><ele>286.0</ele><time>2026-05-02T09:42:14.001Z</time></trkpt><trkpt lat="43.150768407778294" lon="11.40681280552384"><ele>286.0</ele><time>2026-05-02T09:42:15.001Z</time></trkpt><trkpt lat="43.15059195410766" lon="11.406800097221343"><ele>286.0</ele><time>2026-05-02T09:42:16.001Z</time></trkpt><trkpt lat="43.15042464685644" lon="11.406759797656013"><ele>284.75</ele><time>2026-05-02T09:42:17.001Z</time></trkpt><trkpt lat="43.15027894510383" lon="11.40669619494789"><ele>283.5</ele><time>2026-05-02T09:42:18.001Z</time></trkpt><trkpt lat="43.15014807497085" lon="11.406604608922008"><ele>282.25</ele><time>2026-05-02T09:42:19.001Z</time></trkpt><trkpt lat="43.15004261694266" lon="11.406494191352895"><ele>281.0</ele><time>2026-05-02T09:42:20.001Z</time></trkpt><trkpt lat="43.14995867363826" lon="11.406368874995024"><ele>284.25</ele><time>2026-05-02T09:42:21.001Z</time></trkpt><trkpt lat="43.149879046814874" lon="11.40625854399892"><ele>287.5</ele><time>2026-05-02T09:42:22.001Z</time></trkpt><trkpt lat="43.1497817766173" lon="11.406198339827432"><ele>290.75</ele><time>2026-05-02T09:42:23.001Z</time></trkpt><trkpt lat="43.14966789340893" lon="11.406187812967767"><ele>294.0</ele><time>2026-05-02T09:42:24.001Z</time></trkpt><trkpt lat="43.149551960225686" lon="11.406217744070618"><ele>294.25</ele><time>2026-05-02T09:42:25.001Z</time></trkpt><trkpt lat="43.149444731603715" lon="11.406293936912133"><ele>294.5</ele><time>2026-05-02T09:42:26.001Z</time></trkpt><trkpt lat="43.14936152465421" lon="11.40639617530414"><ele>294.75</ele><time>2026-05-02T09:42:27.002Z</time></trkpt><trkpt lat="43.1492875624021" lon="11.406514510372158"><ele>295.0</ele><time>2026-05-02T09:42:28.002Z</time></trkpt><trkpt lat="43.149199529439144" lon="11.406631470618084"><ele>293.5</ele><time>2026-05-02T09:42:29.002Z</time></trkpt><trkpt lat="43.14909080113767" lon="11.406708743042348"><ele>292.0</ele><time>2026-05-02T09:42:30.002Z</time></trkpt><trkpt lat="43.14896489644337" lon="11.406749561511898"><ele>290.5</ele><time>2026-05-02T09:42:31.002Z</time></trkpt><trkpt lat="43.148819187540504" lon="11.406757578179183"><ele>289.0</ele><time>2026-05-02T09:42:32.002Z</time></trkpt><trkpt lat="43.14868284654477" lon="11.406770493702734"><ele>289.0</ele><time>2026-05-02T09:42:33.002Z</time></trkpt><trkpt lat="43.14856478832951" lon="11.406816609595415"><ele>289.0</ele><time>2026-05-02T09:42:34.002Z</time></trkpt><trkpt lat="43.14845596889595" lon="11.40690142041174"><ele>289.0</ele><time>2026-05-02T09:42:35.002Z</time></trkpt><trkpt lat="43.14836386493937" lon="11.407031843198325"><ele>289.0</ele><time>2026-05-02T09:42:36.002Z</time></trkpt><trkpt lat="43.14827432416077" lon="11.407220692252594"><ele>290.0</ele><time>2026-05-02T09:42:37.002Z</time></trkpt><trkpt lat="43.14818443660822" lon="11.407459500372752"><ele>291.0</ele><time>2026-05-02T09:42:38.002Z</time></trkpt><trkpt lat="43.14806874633859" lon="11.407681026049964"><ele>292.0</ele><time>2026-05-02T09:42:39.002Z</time></trkpt><trkpt lat="43.1479917438763" lon="11.407888892086813"><ele>290.0</ele><time>2026-05-02T09:42:40.002Z</time></trkpt><trkpt lat="43.147913750392846" lon="11.408098028240552"><ele>288.0</ele><time>2026-05-02T09:42:41.002Z</time></trkpt><trkpt lat="43.14786843038264" lon="11.408347275964768"><ele>286.0</ele><time>2026-05-02T09:42:42.002Z</time></trkpt><trkpt lat="43.147852136353" lon="11.40860886155337"><ele>284.0</ele><time>2026-05-02T09:42:43.002Z</time></trkpt><trkpt lat="43.14783878990846" lon="11.408889416507385"><ele>282.0</ele><time>2026-05-02T09:42:44.002Z</time></trkpt><trkpt lat="43.147811300011" lon="11.409176719788361"><ele>280.0</ele><time>2026-05-02T09:42:44.999Z</time></trkpt><trkpt lat="43.14775162580329" lon="11.409452134041834"><ele>277.66666666666663</ele><time>2026-05-02T09:42:45.999Z</time></trkpt><trkpt lat="43.14770738361078" lon="11.40971259504365"><ele>275.3333333333333</ele><time>2026-05-02T09:42:46.999Z</time></trkpt><trkpt lat="43.147678626505986" lon="11.409944427201339"><ele>273.0</ele><time>2026-05-02T09:42:47.999Z</time></trkpt><trkpt lat="43.147625829802145" lon="11.410141209266493"><ele>273.0</ele><time>2026-05-02T09:42:48.999Z</time></trkpt><trkpt lat="43.14755313749768" lon="11.410308481065407"><ele>273.0</ele><time>2026-05-02T09:42:49.999Z</time></trkpt><trkpt lat="43.1474503498119" lon="11.41045021964265"><ele>273.0</ele><time>2026-05-02T09:42:50.999Z</time></trkpt><trkpt lat="43.14731540186681" lon="11.410569981261206"><ele>273.0</ele><time>2026-05-02T09:42:51.999Z</time></trkpt><trkpt lat="43.147143538069706" lon="11.410683579537924"><ele>270.6666666666667</ele><time>2026-05-02T09:42:52.999Z</time></trkpt><trkpt lat="43.1469706208283" lon="11.410789071660655"><ele>268.33333333333337</ele><time>2026-05-02T09:42:53.999Z</time></trkpt><trkpt lat="43.14679876378726" lon="11.410923501111693"><ele>266.0</ele><time>2026-05-02T09:42:54.999Z</time></trkpt><trkpt lat="43.146639237219155" lon="11.411119786497036"><ele>263.5</ele><time>2026-05-02T09:42:55.999Z</time></trkpt><trkpt lat="43.14648279502364" lon="11.411364225717564"><ele>261.0</ele><time>2026-05-02T09:42:56.999Z</time></trkpt><trkpt lat="43.14634412658979" lon="11.411607473656192"><ele>261.0</ele><time>2026-05-02T09:42:57.999Z</time></trkpt><trkpt lat="43.14620494646165" lon="11.411847815425935"><ele>261.0</ele><time>2026-05-02T09:42:58.999Z</time></trkpt><trkpt lat="43.1460805491343" lon="11.412082216095603"><ele>261.0</ele><time>2026-05-02T09:42:59.999Z</time></trkpt><trkpt lat="43.1459830015417" lon="11.412322740624763"><ele>258.3333333333333</ele><time>2026-05-02T09:43:00.999Z</time></trkpt><trkpt lat="43.14591233021269" lon="11.412572404478428"><ele>255.66666666666666</ele><time>2026-05-02T09:43:02Z</time></trkpt><trkpt lat="43.145866950543784" lon="11.41280613048185"><ele>253.0</ele><time>2026-05-02T09:43:03Z</time></trkpt><trkpt lat="43.14582107277367" lon="11.413028359560016"><ele>252.66666666666666</ele><time>2026-05-02T09:43:04Z</time></trkpt><trkpt lat="43.145754507342645" lon="11.413250333640828"><ele>252.33333333333331</ele><time>2026-05-02T09:43:05Z</time></trkpt><trkpt lat="43.145642486475445" lon="11.41347328386639"><ele>252.0</ele><time>2026-05-02T09:43:06Z</time></trkpt><trkpt lat="43.14550832311125" lon="11.413676396503638"><ele>249.5</ele><time>2026-05-02T09:43:07Z</time></trkpt><trkpt lat="43.14538399702809" lon="11.413839494921985"><ele>247.0</ele><time>2026-05-02T09:43:08Z</time></trkpt><trkpt lat="43.14529439769473" lon="11.413994985514465"><ele>244.5</ele><time>2026-05-02T09:43:09Z</time></trkpt><trkpt lat="43.145233170593606" lon="11.414149382638886"><ele>242.0</ele><time>2026-05-02T09:43:10Z</time></trkpt><trkpt lat="43.14520161508961" lon="11.41433160840191"><ele>242.0</ele><time>2026-05-02T09:43:11Z</time></trkpt><trkpt lat="43.145205665712176" lon="11.414539594801989"><ele>242.0</ele><time>2026-05-02T09:43:12Z</time></trkpt><trkpt lat="43.145254987764936" lon="11.4147435254605"><ele>242.0</ele><time>2026-05-02T09:43:13Z</time></trkpt><trkpt lat="43.145349934312" lon="11.414921111635511"><ele>240.0</ele><time>2026-05-02T09:43:14Z</time></trkpt><trkpt lat="43.14547371752058" lon="11.415093792230545"><ele>238.0</ele><time>2026-05-02T09:43:15Z</time></trkpt><trkpt lat="43.14558916935936" lon="11.415257460019616"><ele>236.0</ele><time>2026-05-02T09:43:16Z</time></trkpt><trkpt lat="43.145681417580164" lon="11.415436773457877"><ele>237.0</ele><time>2026-05-02T09:43:17Z</time></trkpt><trkpt lat="43.14574487851881" lon="11.41563895573771"><ele>238.0</ele><time>2026-05-02T09:43:18Z</time></trkpt><trkpt lat="43.145785767975134" lon="11.415874542755034"><ele>239.0</ele><time>2026-05-02T09:43:19Z</time></trkpt><trkpt lat="43.14576531052681" lon="11.41613354206758"><ele>238.0</ele><time>2026-05-02T09:43:20Z</time></trkpt><trkpt lat="43.145739045222356" lon="11.416432671605856"><ele>237.0</ele><time>2026-05-02T09:43:21Z</time></trkpt><trkpt lat="43.145705601629956" lon="11.416735068404043"><ele>236.0</ele><time>2026-05-02T09:43:22Z</time></trkpt><trkpt lat="43.145680998628215" lon="11.417013045845714"><ele>229.66666666666669</ele><time>2026-05-02T09:43:23Z</time></trkpt><trkpt lat="43.1456275011989" lon="11.417279857975194"><ele>223.33333333333331</ele><time>2026-05-02T09:43:24Z</time></trkpt><trkpt lat="43.145555079160886" lon="11.417534188151215"><ele>217.0</ele><time>2026-05-02T09:43:25Z</time></trkpt><trkpt lat="43.145477218572914" lon="11.417772605312969"><ele>216.0</ele><time>2026-05-02T09:43:26Z</time></trkpt><trkpt lat="43.14540441593451" lon="11.418006991910923"><ele>215.0</ele><time>2026-05-02T09:43:27Z</time></trkpt><trkpt lat="43.14534606597028" lon="11.418258073793936"><ele>214.0</ele><time>2026-05-02T09:43:28Z</time></trkpt><trkpt lat="43.14532454496482" lon="11.418516379400721"><ele>214.0</ele><time>2026-05-02T09:43:29Z</time></trkpt><trkpt lat="43.145327003767356" lon="11.418759703360504"><ele>214.0</ele><time>2026-05-02T09:43:30Z</time></trkpt><trkpt lat="43.14532617383522" lon="11.418989515002544"><ele>214.0</ele><time>2026-05-02T09:43:31Z</time></trkpt><trkpt lat="43.145315911048385" lon="11.419204898985711"><ele>213.75</ele><time>2026-05-02T09:43:32.001Z</time></trkpt><trkpt lat="43.14529711430549" lon="11.419409414394918"><ele>213.5</ele><time>2026-05-02T09:43:33.001Z</time></trkpt><trkpt lat="43.14524159042785" lon="11.41958984772382"><ele>213.25</ele><time>2026-05-02T09:43:34.001Z</time></trkpt><trkpt lat="43.145206136806586" lon="11.419780018109755"><ele>213.0</ele><time>2026-05-02T09:43:35.001Z</time></trkpt><trkpt lat="43.14515930607417" lon="11.419950125200815"><ele>212.25</ele><time>2026-05-02T09:43:36.001Z</time></trkpt><trkpt lat="43.1451327383798" lon="11.420141290851072"><ele>211.5</ele><time>2026-05-02T09:43:37.001Z</time></trkpt><trkpt lat="43.14513097329455" lon="11.420322614606631"><ele>210.75</ele><time>2026-05-02T09:43:38.001Z</time></trkpt><trkpt lat="43.14513923653943" lon="11.420496746938719"><ele>210.0</ele><time>2026-05-02T09:43:39.001Z</time></trkpt><trkpt lat="43.14514602002701" lon="11.420663719394312"><ele>209.4</ele><time>2026-05-02T09:43:40.001Z</time></trkpt><trkpt lat="43.14514869905217" lon="11.420819137759867"><ele>208.8</ele><time>2026-05-02T09:43:41.001Z</time></trkpt><trkpt lat="43.14515207701197" lon="11.42096094410845"><ele>208.2</ele><time>2026-05-02T09:43:42.001Z</time></trkpt><trkpt lat="43.14512519387481" lon="11.421088364285001"><ele>207.6</ele><time>2026-05-02T09:43:43.001Z</time></trkpt><trkpt lat="43.14509938736155" lon="11.421194735423787"><ele>207.0</ele><time>2026-05-02T09:43:44.001Z</time></trkpt><trkpt lat="43.14520929149855" lon="11.421361844981542"><ele>206.75</ele><time>2026-05-02T09:43:45.001Z</time></trkpt><trkpt lat="43.14524490820812" lon="11.421503572454137"><ele>206.5</ele><time>2026-05-02T09:43:46.001Z</time></trkpt><trkpt lat="43.14529418554874" lon="11.421663054356982"><ele>206.25</ele><time>2026-05-02T09:43:47.001Z</time></trkpt><trkpt lat="43.145353314619435" lon="11.421834174447481"><ele>206.0</ele><time>2026-05-02T09:43:48.001Z</time></trkpt><trkpt lat="43.14541499192529" lon="11.422015766400268"><ele>206.75</ele><time>2026-05-02T09:43:49.001Z</time></trkpt><trkpt lat="43.145483365906976" lon="11.422198489978074"><ele>207.5</ele><time>2026-05-02T09:43:50.001Z</time></trkpt><trkpt lat="43.14554641064727" lon="11.422368031630011"><ele>208.25</ele><time>2026-05-02T09:43:51.001Z</time></trkpt><trkpt lat="43.14560022051382" lon="11.422519513799985"><ele>209.0</ele><time>2026-05-02T09:43:52.001Z</time></trkpt><trkpt lat="43.14565051800227" lon="11.42265408976062"><ele>209.0</ele><time>2026-05-02T09:43:53.001Z</time></trkpt><trkpt lat="43.14569477814082" lon="11.422787130549604"><ele>209.0</ele><time>2026-05-02T09:43:54.001Z</time></trkpt><trkpt lat="43.1457475395194" lon="11.422924942304526"><ele>209.0</ele><time>2026-05-02T09:43:55.001Z</time></trkpt><trkpt lat="43.14579946852948" lon="11.423073101470234"><ele>209.0</ele><time>2026-05-02T09:43:56.001Z</time></trkpt><trkpt lat="43.14585064574163" lon="11.423221455088068"><ele>208.6</ele><time>2026-05-02T09:43:57.001Z</time></trkpt><trkpt lat="43.14588642790103" lon="11.423352295636773"><ele>208.2</ele><time>2026-05-02T09:43:58.001Z</time></trkpt><trkpt lat="43.1459239401548" lon="11.423465489831194"><ele>207.79999999999998</ele><time>2026-05-02T09:43:59.001Z</time></trkpt><trkpt lat="43.145950434069114" lon="11.4235897630469"><ele>207.39999999999998</ele><time>2026-05-02T09:44:00.001Z</time></trkpt><trkpt lat="43.14596521244234" lon="11.423724790184385"><ele>207.0</ele><time>2026-05-02T09:44:01.001Z</time></trkpt><trkpt lat="43.145952748218036" lon="11.423857013334704"><ele>206.8</ele><time>2026-05-02T09:44:02.001Z</time></trkpt><trkpt lat="43.145943374359874" lon="11.423986056956046"><ele>206.6</ele><time>2026-05-02T09:44:03.001Z</time></trkpt><trkpt lat="43.14591586886751" lon="11.424108894907464"><ele>206.4</ele><time>2026-05-02T09:44:04.001Z</time></trkpt><trkpt lat="43.145871906927226" lon="11.424232921330388"><ele>206.20000000000002</ele><time>2026-05-02T09:44:05.001Z</time></trkpt><trkpt lat="43.14582009177209" lon="11.4243632709064"><ele>206.0</ele><time>2026-05-02T09:44:06.001Z</time></trkpt><trkpt lat="43.14576423940102" lon="11.42447846323897"><ele>208.33333333333334</ele><time>2026-05-02T09:44:07.001Z</time></trkpt><trkpt lat="43.1457063109384" lon="11.424586879166565"><ele>210.66666666666669</ele><time>2026-05-02T09:44:08.001Z</time></trkpt><trkpt lat="43.14565248307368" lon="11.424682652048187"><ele>213.0</ele><time>2026-05-02T09:44:09.001Z</time></trkpt><trkpt lat="43.14560222421452" lon="11.424774039600702"><ele>215.33333333333331</ele><time>2026-05-02T09:44:10.001Z</time></trkpt><trkpt lat="43.14555629267706" lon="11.42486103712855"><ele>217.66666666666666</ele><time>2026-05-02T09:44:11.002Z</time></trkpt><trkpt lat="43.145527248742134" lon="11.424961642126812"><ele>220.0</ele><time>2026-05-02T09:44:12.002Z</time></trkpt><trkpt lat="43.145543398293626" lon="11.4250679617524"><ele>220.0</ele><time>2026-05-02T09:44:13.002Z</time></trkpt><trkpt lat="43.14556332644684" lon="11.425161458081746"><ele>220.0</ele><time>2026-05-02T09:44:14.002Z</time></trkpt><trkpt lat="43.14561711782316" lon="11.425238266272043"><ele>220.0</ele><time>2026-05-02T09:44:15.002Z</time></trkpt><trkpt lat="43.145695480043784" lon="11.425300981277664"><ele>220.0</ele><time>2026-05-02T09:44:16.002Z</time></trkpt><trkpt lat="43.14579549521325" lon="11.425358257903536"><ele>220.0</ele><time>2026-05-02T09:44:17.002Z</time></trkpt><trkpt lat="43.145904673307534" lon="11.425420895358876"><ele>218.25</ele><time>2026-05-02T09:44:18.002Z</time></trkpt><trkpt lat="43.14601377540393" lon="11.425500542577648"><ele>216.5</ele><time>2026-05-02T09:44:19.002Z</time></trkpt><trkpt lat="43.146125315926525" lon="11.425602153799417"><ele>214.75</ele><time>2026-05-02T09:44:20.002Z</time></trkpt><trkpt lat="43.146217852317164" lon="11.425751694037062"><ele>213.0</ele><time>2026-05-02T09:44:21.002Z</time></trkpt><trkpt lat="43.14633250490275" lon="11.425885384347346"><ele>213.0</ele><time>2026-05-02T09:44:22.002Z</time></trkpt><trkpt lat="43.14647732110462" lon="11.426020640871801"><ele>213.0</ele><time>2026-05-02T09:44:23.002Z</time></trkpt><trkpt lat="43.14662978012849" lon="11.4261672709528"><ele>213.0</ele><time>2026-05-02T09:44:24.002Z</time></trkpt><trkpt lat="43.14677716829782" lon="11.426290861392957"><ele>212.66666666666669</ele><time>2026-05-02T09:44:25.002Z</time></trkpt><trkpt lat="43.14691482893124" lon="11.42638994307678"><ele>212.33333333333334</ele><time>2026-05-02T09:44:26.002Z</time></trkpt><trkpt lat="43.14705618928568" lon="11.42649521566394"><ele>212.0</ele><time>2026-05-02T09:44:27.002Z</time></trkpt><trkpt lat="43.147182446129406" lon="11.426646899415667"><ele>212.0</ele><time>2026-05-02T09:44:28.002Z</time></trkpt><trkpt lat="43.147295234856415" lon="11.426794768043543"><ele>212.0</ele><time>2026-05-02T09:44:29.002Z</time></trkpt><trkpt lat="43.14741719139416" lon="11.426911196245031"><ele>212.0</ele><time>2026-05-02T09:44:30.002Z</time></trkpt><trkpt lat="43.1475125482572" lon="11.427036617854423"><ele>212.0</ele><time>2026-05-02T09:44:31.002Z</time></trkpt><trkpt lat="43.14762478705886" lon="11.427140038314052"><ele>211.0</ele><time>2026-05-02T09:44:32.002Z</time></trkpt><trkpt lat="43.14775642328319" lon="11.42721083472526"><ele>210.0</ele><time>2026-05-02T09:44:33.002Z</time></trkpt><trkpt lat="43.14790675748938" lon="11.427249927779178"><ele>209.0</ele><time>2026-05-02T09:44:34.002Z</time></trkpt><trkpt lat="43.148056854251124" lon="11.427274808956108"><ele>208.0</ele><time>2026-05-02T09:44:35.002Z</time></trkpt><trkpt lat="43.14820098149421" lon="11.427316546725434"><ele>207.0</ele><time>2026-05-02T09:44:36.002Z</time></trkpt><trkpt lat="43.148369436318426" lon="11.427395346189263"><ele>206.0</ele><time>2026-05-02T09:44:37.002Z</time></trkpt><trkpt lat="43.14855096640207" lon="11.427499269128523"><ele>205.0</ele><time>2026-05-02T09:44:38.002Z</time></trkpt><trkpt lat="43.14872069202108" lon="11.427596680928453"><ele>205.0</ele><time>2026-05-02T09:44:39.002Z</time></trkpt><trkpt lat="43.1488770344152" lon="11.427681371624873"><ele>205.0</ele><time>2026-05-02T09:44:40.002Z</time></trkpt><trkpt lat="43.149022972258365" lon="11.427762998836702"><ele>205.0</ele><time>2026-05-02T09:44:41.002Z</time></trkpt><trkpt lat="43.14915463275823" lon="11.427843761031925"><ele>204.66666666666666</ele><time>2026-05-02T09:44:42.002Z</time></trkpt><trkpt lat="43.14927417341924" lon="11.427929465545223"><ele>204.33333333333331</ele><time>2026-05-02T09:44:43.002Z</time></trkpt><trkpt lat="43.14939158354881" lon="11.428044860036009"><ele>204.0</ele><time>2026-05-02T09:44:44.002Z</time></trkpt><trkpt lat="43.1495257780451" lon="11.428198552047315"><ele>202.0</ele><time>2026-05-02T09:44:45.002Z</time></trkpt><trkpt lat="43.14966849095235" lon="11.428355609598428"><ele>200.0</ele><time>2026-05-02T09:44:46.002Z</time></trkpt><trkpt lat="43.14979600912235" lon="11.428486614782962"><ele>198.0</ele><time>2026-05-02T09:44:47.002Z</time></trkpt><trkpt lat="43.14990284777584" lon="11.428598049085023"><ele>198.0</ele><time>2026-05-02T09:44:48.002Z</time></trkpt><trkpt lat="43.15000020357463" lon="11.428708362549507"><ele>198.0</ele><time>2026-05-02T09:44:49.002Z</time></trkpt><trkpt lat="43.15009687674261" lon="11.428848517163681"><ele>198.0</ele><time>2026-05-02T09:44:50.003Z</time></trkpt><trkpt lat="43.15019215045101" lon="11.429025007972113"><ele>198.0</ele><time>2026-05-02T09:44:51Z</time></trkpt><trkpt lat="43.15029315114535" lon="11.429221485717733"><ele>195.0</ele><time>2026-05-02T09:44:52Z</time></trkpt><trkpt lat="43.150403284119385" lon="11.429401054777935"><ele>192.0</ele><time>2026-05-02T09:44:53Z</time></trkpt><trkpt lat="43.15051736306171" lon="11.429556992219892"><ele>189.0</ele><time>2026-05-02T09:44:54Z</time></trkpt><trkpt lat="43.15062364107464" lon="11.42969018644736"><ele>189.25</ele><time>2026-05-02T09:44:55Z</time></trkpt><trkpt lat="43.150727053483195" lon="11.42979754345781"><ele>189.5</ele><time>2026-05-02T09:44:56Z</time></trkpt><trkpt lat="43.15083798976113" lon="11.429894239188927"><ele>189.75</ele><time>2026-05-02T09:44:57Z</time></trkpt><trkpt lat="43.15094394746025" lon="11.429982237433505"><ele>190.0</ele><time>2026-05-02T09:44:58Z</time></trkpt><trkpt lat="43.151026727203465" lon="11.430073798656466"><ele>190.0</ele><time>2026-05-02T09:44:59Z</time></trkpt><trkpt lat="43.15109018277746" lon="11.430190980046083"><ele>190.0</ele><time>2026-05-02T09:45:00Z</time></trkpt><trkpt lat="43.15113406449146" lon="11.43033463051153"><ele>190.0</ele><time>2026-05-02T09:45:01Z</time></trkpt><trkpt lat="43.151152757347184" lon="11.430492741023913"><ele>190.0</ele><time>2026-05-02T09:45:02Z</time></trkpt><trkpt lat="43.15113965614764" lon="11.430670269485999"><ele>187.66666666666669</ele><time>2026-05-02T09:45:03Z</time></trkpt><trkpt lat="43.15111669895763" lon="11.430891354490983"><ele>185.33333333333334</ele><time>2026-05-02T09:45:04Z</time></trkpt><trkpt lat="43.15109139690174" lon="11.431131981447312"><ele>183.0</ele><time>2026-05-02T09:45:05Z</time></trkpt><trkpt lat="43.151071780476734" lon="11.431338338499355"><ele>181.5</ele><time>2026-05-02T09:45:06Z</time></trkpt><trkpt lat="43.151068736788936" lon="11.43153427487109"><ele>180.0</ele><time>2026-05-02T09:45:07Z</time></trkpt><trkpt lat="43.151084915854774" lon="11.431726788511504"><ele>178.5</ele><time>2026-05-02T09:45:08Z</time></trkpt><trkpt lat="43.151108665990535" lon="11.431906878822389"><ele>177.0</ele><time>2026-05-02T09:45:09Z</time></trkpt><trkpt lat="43.15112568918312" lon="11.432090298483596"><ele>176.25</ele><time>2026-05-02T09:45:10Z</time></trkpt><trkpt lat="43.15112336468504" lon="11.432276431064851"><ele>175.5</ele><time>2026-05-02T09:45:11Z</time></trkpt><trkpt lat="43.15110030883503" lon="11.432447746214525"><ele>174.75</ele><time>2026-05-02T09:45:12Z</time></trkpt><trkpt lat="43.15108659489495" lon="11.43258955988682"><ele>174.0</ele><time>2026-05-02T09:45:13Z</time></trkpt><trkpt lat="43.15110802790984" lon="11.432734977456395"><ele>174.0</ele><time>2026-05-02T09:45:14Z</time></trkpt><trkpt lat="43.15115674836865" lon="11.432873923923738"><ele>174.0</ele><time>2026-05-02T09:45:15Z</time></trkpt><trkpt lat="43.15123372327797" lon="11.43299941164954"><ele>174.0</ele><time>2026-05-02T09:45:16Z</time></trkpt><trkpt lat="43.151334048488835" lon="11.433130738055294"><ele>174.0</ele><time>2026-05-02T09:45:17Z</time></trkpt><trkpt lat="43.15144482452053" lon="11.433257203039329"><ele>174.79999999999998</ele><time>2026-05-02T09:45:18Z</time></trkpt><trkpt lat="43.15154256822349" lon="11.4333581866687"><ele>175.6</ele><time>2026-05-02T09:45:19Z</time></trkpt><trkpt lat="43.151644379828554" lon="11.433441646172724"><ele>176.4</ele><time>2026-05-02T09:45:20Z</time></trkpt><trkpt lat="43.15173524662522" lon="11.43350242722444"><ele>177.2</ele><time>2026-05-02T09:45:21Z</time></trkpt><trkpt lat="43.15182039390995" lon="11.433545566747272"><ele>178.0</ele><time>2026-05-02T09:45:22Z</time></trkpt><trkpt lat="43.151907259540764" lon="11.433560874862005"><ele>178.0</ele><time>2026-05-02T09:45:23.001Z</time></trkpt><trkpt lat="43.1519961651943" lon="11.43354381894656"><ele>178.0</ele><time>2026-05-02T09:45:24.001Z</time></trkpt><trkpt lat="43.152081077720055" lon="11.433496432275858"><ele>178.0</ele><time>2026-05-02T09:45:25.001Z</time></trkpt><trkpt lat="43.1521719590146" lon="11.433417958033086"><ele>178.0</ele><time>2026-05-02T09:45:26.001Z</time></trkpt><trkpt lat="43.152263183341496" lon="11.43330927163315"><ele>178.0</ele><time>2026-05-02T09:45:27.001Z</time></trkpt><trkpt lat="43.15236101366422" lon="11.433180840432108"><ele>178.33333333333334</ele><time>2026-05-02T09:45:28.001Z</time></trkpt><trkpt lat="43.152445265935555" lon="11.433079442172502"><ele>178.66666666666669</ele><time>2026-05-02T09:45:29.001Z</time></trkpt><trkpt lat="43.152504128338855" lon="11.433010319121577"><ele>179.0</ele><time>2026-05-02T09:45:30.001Z</time></trkpt><trkpt lat="43.15255967566938" lon="11.432964058597191"><ele>179.33333333333334</ele><time>2026-05-02T09:45:31.001Z</time></trkpt><trkpt lat="43.152627215496324" lon="11.432952887065932"><ele>179.66666666666666</ele><time>2026-05-02T09:45:32.001Z</time></trkpt><trkpt lat="43.15270201835894" lon="11.432984207169612"><ele>180.0</ele><time>2026-05-02T09:45:33.001Z</time></trkpt><trkpt lat="43.15276188020431" lon="11.43305684100614"><ele>178.2</ele><time>2026-05-02T09:45:34.001Z</time></trkpt><trkpt lat="43.15278765094192" lon="11.433162834284362"><ele>176.4</ele><time>2026-05-02T09:45:35.001Z</time></trkpt><trkpt lat="43.15277770118574" lon="11.433275109429687"><ele>174.60000000000002</ele><time>2026-05-02T09:45:36.001Z</time></trkpt><trkpt lat="43.15271561330873" lon="11.433366020208513"><ele>172.8</ele><time>2026-05-02T09:45:37.001Z</time></trkpt><trkpt lat="43.15264541595406" lon="11.433460877739188"><ele>171.0</ele><time>2026-05-02T09:45:38.001Z</time></trkpt><trkpt lat="43.15254603370082" lon="11.433583098991623"><ele>171.0</ele><time>2026-05-02T09:45:39.001Z</time></trkpt><trkpt lat="43.15243167610027" lon="11.43373769163177"><ele>171.0</ele><time>2026-05-02T09:45:40.001Z</time></trkpt><trkpt lat="43.15229260795973" lon="11.43389864665655"><ele>171.0</ele><time>2026-05-02T09:45:41.001Z</time></trkpt><trkpt lat="43.152148414684945" lon="11.434070026759569"><ele>170.0</ele><time>2026-05-02T09:45:42.001Z</time></trkpt><trkpt lat="43.15201142559309" lon="11.434233836326008"><ele>169.0</ele><time>2026-05-02T09:45:43.001Z</time></trkpt><trkpt lat="43.15188635407172" lon="11.43438356072966"><ele>168.0</ele><time>2026-05-02T09:45:44.001Z</time></trkpt><trkpt lat="43.15178041228294" lon="11.434507434221794"><ele>168.0</ele><time>2026-05-02T09:45:45.001Z</time></trkpt><trkpt lat="43.15169322885097" lon="11.434615237594148"><ele>168.0</ele><time>2026-05-02T09:45:46.001Z</time></trkpt><trkpt lat="43.15162201289112" lon="11.434720944382645"><ele>168.0</ele><time>2026-05-02T09:45:47.001Z</time></trkpt><trkpt lat="43.151569702561936" lon="11.434855760403574"><ele>168.0</ele><time>2026-05-02T09:45:48.001Z</time></trkpt><trkpt lat="43.15154177748811" lon="11.435018516145867"><ele>165.0</ele><time>2026-05-02T09:45:49.001Z</time></trkpt><trkpt lat="43.151541700930544" lon="11.435206318016371"><ele>162.0</ele><time>2026-05-02T09:45:50.001Z</time></trkpt><trkpt lat="43.15156596064686" lon="11.435433900056324"><ele>159.0</ele><time>2026-05-02T09:45:51.001Z</time></trkpt><trkpt lat="43.15159979671515" lon="11.4356544941459"><ele>158.33333333333334</ele><time>2026-05-02T09:45:52.001Z</time></trkpt><trkpt lat="43.15164266020708" lon="11.435885897221368"><ele>157.66666666666669</ele><time>2026-05-02T09:45:53.001Z</time></trkpt><trkpt lat="43.15169033002999" lon="11.436146341601015"><ele>157.0</ele><time>2026-05-02T09:45:54.001Z</time></trkpt><trkpt lat="43.151733136252226" lon="11.436420737883077"><ele>156.0</ele><time>2026-05-02T09:45:55.001Z</time></trkpt><trkpt lat="43.15177638492581" lon="11.436720438280059"><ele>155.0</ele><time>2026-05-02T09:45:56.001Z</time></trkpt><trkpt lat="43.151821653479075" lon="11.43702743598589"><ele>155.33333333333331</ele><time>2026-05-02T09:45:57.001Z</time></trkpt><trkpt lat="43.15186327048362" lon="11.437324236946418"><ele>155.66666666666666</ele><time>2026-05-02T09:45:58.001Z</time></trkpt><trkpt lat="43.15190786339909" lon="11.437586691997648"><ele>156.0</ele><time>2026-05-02T09:45:59.001Z</time></trkpt><trkpt lat="43.15194194348897" lon="11.437824294924528"><ele>157.25</ele><time>2026-05-02T09:46:00.001Z</time></trkpt><trkpt lat="43.15197209588717" lon="11.438023215691748"><ele>158.5</ele><time>2026-05-02T09:46:01.002Z</time></trkpt><trkpt lat="43.15199473431342" lon="11.438190326618393"><ele>159.75</ele><time>2026-05-02T09:46:02.002Z</time></trkpt><trkpt lat="43.152001871830564" lon="11.43834601092859"><ele>161.0</ele><time>2026-05-02T09:46:03.002Z</time></trkpt><trkpt lat="43.15199609792597" lon="11.438491686661925"><ele>161.0</ele><time>2026-05-02T09:46:04.002Z</time></trkpt><trkpt lat="43.151961399828096" lon="11.438630402579244"><ele>161.0</ele><time>2026-05-02T09:46:05.002Z</time></trkpt><trkpt lat="43.15188790021973" lon="11.438772256691989"><ele>161.0</ele><time>2026-05-02T09:46:06.002Z</time></trkpt><trkpt lat="43.151795285254195" lon="11.438914654390267"><ele>161.0</ele><time>2026-05-02T09:46:07.002Z</time></trkpt><trkpt lat="43.15171004074773" lon="11.43907162879072"><ele>162.0</ele><time>2026-05-02T09:46:08.002Z</time></trkpt><trkpt lat="43.15161013567357" lon="11.439228161052613"><ele>163.0</ele><time>2026-05-02T09:46:09.002Z</time></trkpt><trkpt lat="43.151504732518006" lon="11.43939488173171"><ele>164.0</ele><time>2026-05-02T09:46:10.002Z</time></trkpt><trkpt lat="43.15140617683822" lon="11.439572238117062"><ele>163.33333333333331</ele><time>2026-05-02T09:46:11.002Z</time></trkpt><trkpt lat="43.151309315151934" lon="11.439757299054776"><ele>162.66666666666666</ele><time>2026-05-02T09:46:12.002Z</time></trkpt><trkpt lat="43.15121726630546" lon="11.43993739617292"><ele>162.0</ele><time>2026-05-02T09:46:13.002Z</time></trkpt><trkpt lat="43.151136273254586" lon="11.440129843599731"><ele>162.0</ele><time>2026-05-02T09:46:14.002Z</time></trkpt><trkpt lat="43.15106625369807" lon="11.440322351638885"><ele>162.0</ele><time>2026-05-02T09:46:15.002Z</time></trkpt><trkpt lat="43.15099957832139" lon="11.44049123271296"><ele>162.0</ele><time>2026-05-02T09:46:16.002Z</time></trkpt><trkpt lat="43.15092836975007" lon="11.440641135738225"><ele>162.0</ele><time>2026-05-02T09:46:17.002Z</time></trkpt><trkpt lat="43.15083720397748" lon="11.44077161741725"><ele>162.33333333333334</ele><time>2026-05-02T09:46:18.002Z</time></trkpt><trkpt lat="43.15070960733477" lon="11.44085857712067"><ele>162.66666666666669</ele><time>2026-05-02T09:46:19.002Z</time></trkpt><trkpt lat="43.150563615501795" lon="11.440965942038961"><ele>163.0</ele><time>2026-05-02T09:46:20.002Z</time></trkpt><trkpt lat="43.1504186261809" lon="11.441105479372986"><ele>163.0</ele><time>2026-05-02T09:46:21.002Z</time></trkpt><trkpt lat="43.15026876429762" lon="11.441229364296863"><ele>163.0</ele><time>2026-05-02T09:46:22.002Z</time></trkpt><trkpt lat="43.15011867600289" lon="11.441354460579532"><ele>163.0</ele><time>2026-05-02T09:46:23.002Z</time></trkpt><trkpt lat="43.149962258165445" lon="11.441478554521252"><ele>163.0</ele><time>2026-05-02T09:46:24.002Z</time></trkpt><trkpt lat="43.14979249807081" lon="11.441588821935138"><ele>163.0</ele><time>2026-05-02T09:46:25.002Z</time></trkpt><trkpt lat="43.14963848687433" lon="11.441734655154908"><ele>163.0</ele><time>2026-05-02T09:46:26.002Z</time></trkpt><trkpt lat="43.1494756856679" lon="11.441862647022859"><ele>163.0</ele><time>2026-05-02T09:46:27.002Z</time></trkpt><trkpt lat="43.14931715084184" lon="11.441991999864692"><ele>163.0</ele><time>2026-05-02T09:46:28.002Z</time></trkpt><trkpt lat="43.149163285522675" lon="11.442114059429285"><ele>163.0</ele><time>2026-05-02T09:46:29.002Z</time></trkpt><trkpt lat="43.14901719171485" lon="11.442233233286265"><ele>163.33333333333334</ele><time>2026-05-02T09:46:30.002Z</time></trkpt><trkpt lat="43.14888187974888" lon="11.442348461684825"><ele>163.66666666666666</ele><time>2026-05-02T09:46:31.002Z</time></trkpt><trkpt lat="43.148755308299414" lon="11.442462586043755"><ele>164.0</ele><time>2026-05-02T09:46:32.002Z</time></trkpt><trkpt lat="43.14863799220191" lon="11.442610909435786"><ele>164.0</ele><time>2026-05-02T09:46:33.002Z</time></trkpt><trkpt lat="43.148519545071395" lon="11.442794905046167"><ele>164.0</ele><time>2026-05-02T09:46:34.002Z</time></trkpt><trkpt lat="43.14840174292743" lon="11.442992111201123"><ele>164.0</ele><time>2026-05-02T09:46:35.002Z</time></trkpt><trkpt lat="43.14829020404472" lon="11.443160271311458"><ele>163.79999999999998</ele><time>2026-05-02T09:46:36.002Z</time></trkpt><trkpt lat="43.14819636024722" lon="11.44329793254836"><ele>163.6</ele><time>2026-05-02T09:46:37.002Z</time></trkpt><trkpt lat="43.14812436991568" lon="11.443411677456975"><ele>163.4</ele><time>2026-05-02T09:46:38.002Z</time></trkpt><trkpt lat="43.14806984743109" lon="11.443520129883936"><ele>163.2</ele><time>2026-05-02T09:46:39.002Z</time></trkpt><trkpt lat="43.148032061050955" lon="11.443629126686027"><ele>163.0</ele><time>2026-05-02T09:46:40.002Z</time></trkpt><trkpt lat="43.14802008951396" lon="11.443745010441472"><ele>163.25</ele><time>2026-05-02T09:46:41.003Z</time></trkpt><trkpt lat="43.14803056259113" lon="11.443877429652703"><ele>163.5</ele><time>2026-05-02T09:46:42.003Z</time></trkpt><trkpt lat="43.1480708211515" lon="11.444019814214329"><ele>163.75</ele><time>2026-05-02T09:46:43.003Z</time></trkpt><trkpt lat="43.148134504814465" lon="11.444169254247948"><ele>164.0</ele><time>2026-05-02T09:46:44.003Z</time></trkpt><trkpt lat="43.14819583831419" lon="11.444309547374624"><ele>164.0</ele><time>2026-05-02T09:46:45.003Z</time></trkpt><trkpt lat="43.14820716640146" lon="11.444442039374534"><ele>164.0</ele><time>2026-05-02T09:46:46.003Z</time></trkpt><trkpt lat="43.148191720473775" lon="11.4445891516384"><ele>164.0</ele><time>2026-05-02T09:46:47.003Z</time></trkpt><trkpt lat="43.148143725467506" lon="11.444698526789173"><ele>164.0</ele><time>2026-05-02T09:46:48.003Z</time></trkpt><trkpt lat="43.148069611145196" lon="11.444784887683698"><ele>164.0</ele><time>2026-05-02T09:46:49.003Z</time></trkpt><trkpt lat="43.14797537230261" lon="11.44480000319845"><ele>165.75</ele><time>2026-05-02T09:46:50.003Z</time></trkpt><trkpt lat="43.14787966533882" lon="11.444787630487575"><ele>167.5</ele><time>2026-05-02T09:46:51.003Z</time></trkpt><trkpt lat="43.147759770315766" lon="11.44473602938714"><ele>169.25</ele><time>2026-05-02T09:46:52.003Z</time></trkpt><trkpt lat="43.14762807689392" lon="11.444668053399432"><ele>171.0</ele><time>2026-05-02T09:46:53.003Z</time></trkpt><trkpt lat="43.14748449782382" lon="11.44462966154829"><ele>168.0</ele><time>2026-05-02T09:46:54.003Z</time></trkpt><trkpt lat="43.14733927555996" lon="11.444574460304935"><ele>165.0</ele><time>2026-05-02T09:46:55.003Z</time></trkpt><trkpt lat="43.147173564121104" lon="11.444541243760094"><ele>162.0</ele><time>2026-05-02T09:46:56.003Z</time></trkpt><trkpt lat="43.14700497198407" lon="11.444520158481808"><ele>162.0</ele><time>2026-05-02T09:46:57Z</time></trkpt><trkpt lat="43.146844976185285" lon="11.44451453812563"><ele>162.0</ele><time>2026-05-02T09:46:58Z</time></trkpt><trkpt lat="43.14670156115854" lon="11.444525418407244"><ele>162.0</ele><time>2026-05-02T09:46:59Z</time></trkpt><trkpt lat="43.146573334134914" lon="11.444545859070304"><ele>162.0</ele><time>2026-05-02T09:47:00Z</time></trkpt><trkpt lat="43.14646649610316" lon="11.444579518042593"><ele>162.0</ele><time>2026-05-02T09:47:01Z</time></trkpt><trkpt lat="43.14636938901504" lon="11.444627494245296"><ele>162.0</ele><time>2026-05-02T09:47:02Z</time></trkpt><trkpt lat="43.14627627993849" lon="11.444696858840604"><ele>162.0</ele><time>2026-05-02T09:47:03Z</time></trkpt><trkpt lat="43.14620662391121" lon="11.444796384343233"><ele>162.0</ele><time>2026-05-02T09:47:04Z</time></trkpt><trkpt lat="43.14615741664063" lon="11.444924144858946"><ele>162.0</ele><time>2026-05-02T09:47:05Z</time></trkpt><trkpt lat="43.14612115457484" lon="11.445076756021221"><ele>162.0</ele><time>2026-05-02T09:47:06Z</time></trkpt><trkpt lat="43.14609760381325" lon="11.44522929683589"><ele>162.0</ele><time>2026-05-02T09:47:07Z</time></trkpt><trkpt lat="43.14611084112152" lon="11.44536596131172"><ele>162.0</ele><time>2026-05-02T09:47:08Z</time></trkpt><trkpt lat="43.14613593340972" lon="11.445513862143287"><ele>162.0</ele><time>2026-05-02T09:47:09Z</time></trkpt><trkpt lat="43.14617642210031" lon="11.445666807793685"><ele>162.0</ele><time>2026-05-02T09:47:10Z</time></trkpt><trkpt lat="43.14620034177521" lon="11.44582341987759"><ele>161.75</ele><time>2026-05-02T09:47:11Z</time></trkpt><trkpt lat="43.14623416451068" lon="11.44596097699391"><ele>161.5</ele><time>2026-05-02T09:47:12Z</time></trkpt><trkpt lat="43.14627253685788" lon="11.446107921036765"><ele>161.25</ele><time>2026-05-02T09:47:13Z</time></trkpt><trkpt lat="43.14632708419382" lon="11.446249775243768"><ele>161.0</ele><time>2026-05-02T09:47:14Z</time></trkpt><trkpt lat="43.14636104126204" lon="11.44640528629771"><ele>161.83333333333331</ele><time>2026-05-02T09:47:15Z</time></trkpt><trkpt lat="43.14639684713423" lon="11.44654762500911"><ele>162.66666666666666</ele><time>2026-05-02T09:47:16Z</time></trkpt><trkpt lat="43.14641827592874" lon="11.44667379778823"><ele>163.5</ele><time>2026-05-02T09:47:17Z</time></trkpt><trkpt lat="43.146417882813275" lon="11.446790385362354"><ele>164.33333333333334</ele><time>2026-05-02T09:47:18Z</time></trkpt><trkpt lat="43.14638274402221" lon="11.446886724278496"><ele>165.16666666666669</ele><time>2026-05-02T09:47:19Z</time></trkpt><trkpt lat="43.14631337625561" lon="11.44694474443191"><ele>166.0</ele><time>2026-05-02T09:47:20Z</time></trkpt><trkpt lat="43.14621517606662" lon="11.446920155081312"><ele>166.0</ele><time>2026-05-02T09:47:21Z</time></trkpt><trkpt lat="43.14613285386827" lon="11.446875939821137"><ele>166.0</ele><time>2026-05-02T09:47:22Z</time></trkpt><trkpt lat="43.146004058896594" lon="11.446856430583713"><ele>166.0</ele><time>2026-05-02T09:47:23Z</time></trkpt><trkpt lat="43.1458578180667" lon="11.44685513345083"><ele>166.0</ele><time>2026-05-02T09:47:24Z</time></trkpt><trkpt lat="43.14572106488758" lon="11.446847180253682"><ele>165.0</ele><time>2026-05-02T09:47:25Z</time></trkpt><trkpt lat="43.145592612106185" lon="11.446871893399548"><ele>164.0</ele><time>2026-05-02T09:47:26Z</time></trkpt><trkpt lat="43.145475021024076" lon="11.446921631145146"><ele>163.0</ele><time>2026-05-02T09:47:27Z</time></trkpt><trkpt lat="43.1453584238079" lon="11.446998105979286"><ele>162.0</ele><time>2026-05-02T09:47:28Z</time></trkpt><trkpt lat="43.145233523850415" lon="11.447120693424726"><ele>163.5</ele><time>2026-05-02T09:47:29Z</time></trkpt><trkpt lat="43.14511878181552" lon="11.447257888484591"><ele>165.0</ele><time>2026-05-02T09:47:30Z</time></trkpt><trkpt lat="43.14502425442144" lon="11.447376409643201"><ele>166.5</ele><time>2026-05-02T09:47:31.001Z</time></trkpt><trkpt lat="43.144946856657825" lon="11.447478293123627"><ele>168.0</ele><time>2026-05-02T09:47:32.001Z</time></trkpt><trkpt lat="43.144897887598255" lon="11.447578854852978"><ele>167.8</ele><time>2026-05-02T09:47:33.001Z</time></trkpt><trkpt lat="43.14487658127257" lon="11.447697036833535"><ele>167.60000000000002</ele><time>2026-05-02T09:47:34.001Z</time></trkpt><trkpt lat="43.1448699782373" lon="11.44784435124127"><ele>167.39999999999998</ele><time>2026-05-02T09:47:35.001Z</time></trkpt><trkpt lat="43.14487342994135" lon="11.448012598291717"><ele>167.2</ele><time>2026-05-02T09:47:36.001Z</time></trkpt><trkpt lat="43.144878041905535" lon="11.448186213216406"><ele>167.0</ele><time>2026-05-02T09:47:37.001Z</time></trkpt><trkpt lat="43.14486661834543" lon="11.448330175425562"><ele>167.0</ele><time>2026-05-02T09:47:38.001Z</time></trkpt><trkpt lat="43.14482659526624" lon="11.448444324063482"><ele>167.0</ele><time>2026-05-02T09:47:39.001Z</time></trkpt><trkpt lat="43.14474511436837" lon="11.44851438198066"><ele>167.0</ele><time>2026-05-02T09:47:40.001Z</time></trkpt><trkpt lat="43.1446519906272" lon="11.448551303761251"><ele>167.0</ele><time>2026-05-02T09:47:41.001Z</time></trkpt><trkpt lat="43.144550532389395" lon="11.4485627035842"><ele>167.0</ele><time>2026-05-02T09:47:42.001Z</time></trkpt><trkpt lat="43.144428178947926" lon="11.448552192151238"><ele>167.0</ele><time>2026-05-02T09:47:43.001Z</time></trkpt><trkpt lat="43.14430267431871" lon="11.44853226860101"><ele>167.0</ele><time>2026-05-02T09:47:44.001Z</time></trkpt><trkpt lat="43.14415992323374" lon="11.448487862413572"><ele>167.0</ele><time>2026-05-02T09:47:45.001Z</time></trkpt><trkpt lat="43.14400423328966" lon="11.448414570295794"><ele>167.0</ele><time>2026-05-02T09:47:46.001Z</time></trkpt><trkpt lat="43.143857510895614" lon="11.448331861149093"><ele>168.25</ele><time>2026-05-02T09:47:47.001Z</time></trkpt><trkpt lat="43.14371921535015" lon="11.448248052953813"><ele>169.5</ele><time>2026-05-02T09:47:48.001Z</time></trkpt><trkpt lat="43.14359552555497" lon="11.448184299742323"><ele>170.75</ele><time>2026-05-02T09:47:49.001Z</time></trkpt><trkpt lat="43.143480237592115" lon="11.44809904135946"><ele>172.0</ele><time>2026-05-02T09:47:50.001Z</time></trkpt><trkpt lat="43.1433600757943" lon="11.448009039818395"><ele>169.75</ele><time>2026-05-02T09:47:51.001Z</time></trkpt><trkpt lat="43.14324119241134" lon="11.447920473585716"><ele>167.5</ele><time>2026-05-02T09:47:52.001Z</time></trkpt><trkpt lat="43.14312632802673" lon="11.447835035680054"><ele>165.25</ele><time>2026-05-02T09:47:53.001Z</time></trkpt><trkpt lat="43.14301833671236" lon="11.447765823777864"><ele>163.0</ele><time>2026-05-02T09:47:54.001Z</time></trkpt><trkpt lat="43.142906565553275" lon="11.447711465627426"><ele>163.0</ele><time>2026-05-02T09:47:55.001Z</time></trkpt><trkpt lat="43.14278197863215" lon="11.447683745722271"><ele>163.0</ele><time>2026-05-02T09:47:56.001Z</time></trkpt><trkpt lat="43.14264166280796" lon="11.447671048259103"><ele>163.0</ele><time>2026-05-02T09:47:57.001Z</time></trkpt><trkpt lat="43.14250833341091" lon="11.447685053458473"><ele>163.0</ele><time>2026-05-02T09:47:58.001Z</time></trkpt><trkpt lat="43.1423574604532" lon="11.447729013010576"><ele>162.66666666666669</ele><time>2026-05-02T09:47:59.001Z</time></trkpt><trkpt lat="43.14218519059065" lon="11.447785340081298"><ele>162.33333333333334</ele><time>2026-05-02T09:48:00.001Z</time></trkpt><trkpt lat="43.14200263973146" lon="11.447850026141028"><ele>162.0</ele><time>2026-05-02T09:48:01.001Z</time></trkpt><trkpt lat="43.14182237516952" lon="11.447917778869904"><ele>165.0</ele><time>2026-05-02T09:48:02.001Z</time></trkpt><trkpt lat="43.14164232665394" lon="11.447981357499044"><ele>168.0</ele><time>2026-05-02T09:48:03.001Z</time></trkpt><trkpt lat="43.14145891345883" lon="11.44803865304194"><ele>171.0</ele><time>2026-05-02T09:48:04.001Z</time></trkpt><trkpt lat="43.141262022699784" lon="11.448061001621687"><ele>171.0</ele><time>2026-05-02T09:48:05.001Z</time></trkpt><trkpt lat="43.14106158218347" lon="11.448098765905316"><ele>171.0</ele><time>2026-05-02T09:48:06.001Z</time></trkpt><trkpt lat="43.1408840709435" lon="11.448131079333322"><ele>171.0</ele><time>2026-05-02T09:48:07.001Z</time></trkpt><trkpt lat="43.140738159515635" lon="11.44815342562268"><ele>170.25</ele><time>2026-05-02T09:48:08.001Z</time></trkpt><trkpt lat="43.14061884806563" lon="11.448166174273403"><ele>169.5</ele><time>2026-05-02T09:48:09.002Z</time></trkpt><trkpt lat="43.14051115124326" lon="11.448158522210813"><ele>168.75</ele><time>2026-05-02T09:48:10.002Z</time></trkpt><trkpt lat="43.14039562381097" lon="11.448132846534529"><ele>168.0</ele><time>2026-05-02T09:48:11.002Z</time></trkpt><trkpt lat="43.14028781806339" lon="11.448090196167888"><ele>168.0</ele><time>2026-05-02T09:48:12.002Z</time></trkpt><trkpt lat="43.14018465919075" lon="11.448044253037702"><ele>168.0</ele><time>2026-05-02T09:48:13.002Z</time></trkpt><trkpt lat="43.140088500157006" lon="11.447995009618554"><ele>168.0</ele><time>2026-05-02T09:48:14.002Z</time></trkpt><trkpt lat="43.13999471481077" lon="11.447964160561177"><ele>168.0</ele><time>2026-05-02T09:48:15.002Z</time></trkpt><trkpt lat="43.1399140708368" lon="11.447912820960068"><ele>168.0</ele><time>2026-05-02T09:48:16.002Z</time></trkpt><trkpt lat="43.13983910912346" lon="11.447855444402755"><ele>166.66666666666666</ele><time>2026-05-02T09:48:17.002Z</time></trkpt><trkpt lat="43.1397667197258" lon="11.447801594311343"><ele>165.33333333333334</ele><time>2026-05-02T09:48:18.002Z</time></trkpt><trkpt lat="43.13969258239548" lon="11.447781883005137"><ele>164.0</ele><time>2026-05-02T09:48:19.002Z</time></trkpt><trkpt lat="43.13960256794517" lon="11.447791411836679"><ele>162.66666666666669</ele><time>2026-05-02T09:48:20.002Z</time></trkpt><trkpt lat="43.13950937570111" lon="11.447829958430107"><ele>161.33333333333334</ele><time>2026-05-02T09:48:21.002Z</time></trkpt><trkpt lat="43.13943121001863" lon="11.447900967194798"><ele>160.0</ele><time>2026-05-02T09:48:22.002Z</time></trkpt><trkpt lat="43.13937457592776" lon="11.447997667661143"><ele>160.0</ele><time>2026-05-02T09:48:23.002Z</time></trkpt><trkpt lat="43.13934026386759" lon="11.448113766634783"><ele>160.0</ele><time>2026-05-02T09:48:24.002Z</time></trkpt><trkpt lat="43.139322257529805" lon="11.44824681605043"><ele>160.0</ele><time>2026-05-02T09:48:25.002Z</time></trkpt><trkpt lat="43.13929148022105" lon="11.448380974125731"><ele>160.0</ele><time>2026-05-02T09:48:26.002Z</time></trkpt><trkpt lat="43.13927606174182" lon="11.448525278923771"><ele>160.0</ele><time>2026-05-02T09:48:27.002Z</time></trkpt><trkpt lat="43.139265784770885" lon="11.448675600391978"><ele>160.0</ele><time>2026-05-02T09:48:28.002Z</time></trkpt><trkpt lat="43.13927773002015" lon="11.448830291100355"><ele>160.0</ele><time>2026-05-02T09:48:29.002Z</time></trkpt><trkpt lat="43.13927296335054" lon="11.448982188481637"><ele>160.0</ele><time>2026-05-02T09:48:30.002Z</time></trkpt><trkpt lat="43.13925398324771" lon="11.449146427989836"><ele>160.0</ele><time>2026-05-02T09:48:31.002Z</time></trkpt><trkpt lat="43.139250203657255" lon="11.449322371859466"><ele>160.0</ele><time>2026-05-02T09:48:32.002Z</time></trkpt><trkpt lat="43.139247579051684" lon="11.449505623364335"><ele>160.0</ele><time>2026-05-02T09:48:33.002Z</time></trkpt><trkpt lat="43.139262465464114" lon="11.449698194579216"><ele>160.0</ele><time>2026-05-02T09:48:34.002Z</time></trkpt><trkpt lat="43.13925156956334" lon="11.44989912776847"><ele>160.0</ele><time>2026-05-02T09:48:35.002Z</time></trkpt><trkpt lat="43.13926171177542" lon="11.450105950361227"><ele>160.0</ele><time>2026-05-02T09:48:36.002Z</time></trkpt><trkpt lat="43.13926822638674" lon="11.450320205596991"><ele>160.0</ele><time>2026-05-02T09:48:37.002Z</time></trkpt><trkpt lat="43.13927508513953" lon="11.45052892802279"><ele>160.0</ele><time>2026-05-02T09:48:38.002Z</time></trkpt><trkpt lat="43.13926521984696" lon="11.450717448682665"><ele>160.0</ele><time>2026-05-02T09:48:39.002Z</time></trkpt><trkpt lat="43.13923422036721" lon="11.450880914381353"><ele>160.5</ele><time>2026-05-02T09:48:40.002Z</time></trkpt><trkpt lat="43.13918002497182" lon="11.451021520814132"><ele>161.0</ele><time>2026-05-02T09:48:41.002Z</time></trkpt><trkpt lat="43.13907939441496" lon="11.451175120769802"><ele>161.5</ele><time>2026-05-02T09:48:42.002Z</time></trkpt><trkpt lat="43.138991899481816" lon="11.451384003315193"><ele>162.0</ele><time>2026-05-02T09:48:43.002Z</time></trkpt><trkpt lat="43.13889070645426" lon="11.451583795924074"><ele>161.0</ele><time>2026-05-02T09:48:44.002Z</time></trkpt><trkpt lat="43.13878453531631" lon="11.451781070396017"><ele>160.0</ele><time>2026-05-02T09:48:45.002Z</time></trkpt><trkpt lat="43.13867718073634" lon="11.451968902383213"><ele>159.0</ele><time>2026-05-02T09:48:46.003Z</time></trkpt><trkpt lat="43.138573945249334" lon="11.452133475431998"><ele>159.0</ele><time>2026-05-02T09:48:47.003Z</time></trkpt><trkpt lat="43.13846800506462" lon="11.452280510550331"><ele>159.0</ele><time>2026-05-02T09:48:48.003Z</time></trkpt><trkpt lat="43.13835367320806" lon="11.452419703792895"><ele>159.0</ele><time>2026-05-02T09:48:49.003Z</time></trkpt><trkpt lat="43.13822908305035" lon="11.452549678782656"><ele>157.0</ele><time>2026-05-02T09:48:50.003Z</time></trkpt><trkpt lat="43.138089435462895" lon="11.452668463988784"><ele>155.0</ele><time>2026-05-02T09:48:51.003Z</time></trkpt><trkpt lat="43.137928759621296" lon="11.452755257997934"><ele>153.0</ele><time>2026-05-02T09:48:52.003Z</time></trkpt><trkpt lat="43.13776810184699" lon="11.45285822526734"><ele>153.0</ele><time>2026-05-02T09:48:53.003Z</time></trkpt><trkpt lat="43.13761114023174" lon="11.4529571178627"><ele>153.0</ele><time>2026-05-02T09:48:54.003Z</time></trkpt><trkpt lat="43.13746723377994" lon="11.453073002234762"><ele>153.0</ele><time>2026-05-02T09:48:55.003Z</time></trkpt><trkpt lat="43.13731755518802" lon="11.453178510897812"><ele>153.0</ele><time>2026-05-02T09:48:56.003Z</time></trkpt><trkpt lat="43.13715499181333" lon="11.453324472485138"><ele>153.0</ele><time>2026-05-02T09:48:57.003Z</time></trkpt><trkpt lat="43.13699744121067" lon="11.453487011344384"><ele>153.0</ele><time>2026-05-02T09:48:58.003Z</time></trkpt><trkpt lat="43.13685503828836" lon="11.45364112054664"><ele>153.0</ele><time>2026-05-02T09:48:59.003Z</time></trkpt><trkpt lat="43.13672195062213" lon="11.453784518593428"><ele>153.0</ele><time>2026-05-02T09:49:00.003Z</time></trkpt><trkpt lat="43.13658225116959" lon="11.453954543536677"><ele>153.0</ele><time>2026-05-02T09:49:01.003Z</time></trkpt><trkpt lat="43.13643988770292" lon="11.45415519785415"><ele>152.33333333333334</ele><time>2026-05-02T09:49:02.003Z</time></trkpt><trkpt lat="43.13631459031271" lon="11.454363190635817"><ele>151.66666666666669</ele><time>2026-05-02T09:49:03Z</time></trkpt><trkpt lat="43.13621300749499" lon="11.454562661733194"><ele>151.0</ele><time>2026-05-02T09:49:04Z</time></trkpt><trkpt lat="43.13611735629582" lon="11.45476333025977"><ele>152.66666666666669</ele><time>2026-05-02T09:49:05Z</time></trkpt><trkpt lat="43.13602492241659" lon="11.454966156611045"><ele>154.33333333333334</ele><time>2026-05-02T09:49:06Z</time></trkpt><trkpt lat="43.135934076167224" lon="11.45516948439867"><ele>156.0</ele><time>2026-05-02T09:49:07Z</time></trkpt><trkpt lat="43.135849259061" lon="11.455355734653995"><ele>154.66666666666666</ele><time>2026-05-02T09:49:08Z</time></trkpt><trkpt lat="43.1357357547095" lon="11.455513054466996"><ele>153.33333333333331</ele><time>2026-05-02T09:49:09Z</time></trkpt><trkpt lat="43.13562322455418" lon="11.455647985873652"><ele>152.0</ele><time>2026-05-02T09:49:10Z</time></trkpt><trkpt lat="43.135498012617035" lon="11.45577666194909"><ele>152.0</ele><time>2026-05-02T09:49:11Z</time></trkpt><trkpt lat="43.135364775799786" lon="11.45593908699779"><ele>152.0</ele><time>2026-05-02T09:49:12Z</time></trkpt><trkpt lat="43.13520292778309" lon="11.4560738513659"><ele>152.0</ele><time>2026-05-02T09:49:13Z</time></trkpt><trkpt lat="43.13504335383809" lon="11.456234563530698"><ele>152.0</ele><time>2026-05-02T09:49:14Z</time></trkpt><trkpt lat="43.134883695162394" lon="11.45640240258258"><ele>152.0</ele><time>2026-05-02T09:49:15Z</time></trkpt><trkpt lat="43.13474783989463" lon="11.456571915642446"><ele>152.0</ele><time>2026-05-02T09:49:16Z</time></trkpt><trkpt lat="43.13460561106142" lon="11.45671771815624"><ele>152.0</ele><time>2026-05-02T09:49:17Z</time></trkpt><trkpt lat="43.13446088069886" lon="11.456858568048375"><ele>152.0</ele><time>2026-05-02T09:49:18Z</time></trkpt><trkpt lat="43.1343181357736" lon="11.456995369954257"><ele>152.0</ele><time>2026-05-02T09:49:19Z</time></trkpt><trkpt lat="43.134180697205345" lon="11.457138775292329"><ele>151.33333333333331</ele><time>2026-05-02T09:49:20Z</time></trkpt><trkpt lat="43.13403490080272" lon="11.457261750652808"><ele>150.66666666666666</ele><time>2026-05-02T09:49:21Z</time></trkpt><trkpt lat="43.13390147907739" lon="11.457418721485713"><ele>150.0</ele><time>2026-05-02T09:49:22Z</time></trkpt><trkpt lat="43.13375467435718" lon="11.457558376571505"><ele>150.0</ele><time>2026-05-02T09:49:23Z</time></trkpt><trkpt lat="43.13361339678694" lon="11.45769411954946"><ele>150.0</ele><time>2026-05-02T09:49:24Z</time></trkpt><trkpt lat="43.13346368809685" lon="11.457804941649998"><ele>150.0</ele><time>2026-05-02T09:49:25Z</time></trkpt><trkpt lat="43.133335190827715" lon="11.457940873967752"><ele>149.0</ele><time>2026-05-02T09:49:26Z</time></trkpt><trkpt lat="43.13320136987031" lon="11.45806378274675"><ele>148.0</ele><time>2026-05-02T09:49:27Z</time></trkpt><trkpt lat="43.13307668589795" lon="11.458198748971185"><ele>147.0</ele><time>2026-05-02T09:49:28Z</time></trkpt><trkpt lat="43.13295282768093" lon="11.458328330155304"><ele>147.0</ele><time>2026-05-02T09:49:29Z</time></trkpt><trkpt lat="43.132837306802195" lon="11.458467785627688"><ele>147.0</ele><time>2026-05-02T09:49:30Z</time></trkpt><trkpt lat="43.132745133390294" lon="11.458616900877361"><ele>147.0</ele><time>2026-05-02T09:49:31Z</time></trkpt><trkpt lat="43.13265799097127" lon="11.458744297397907"><ele>147.0</ele><time>2026-05-02T09:49:32Z</time></trkpt><trkpt lat="43.132583537881814" lon="11.458898097998489"><ele>148.66666666666666</ele><time>2026-05-02T09:49:33Z</time></trkpt><trkpt lat="43.13252395322655" lon="11.459080048166085"><ele>150.33333333333331</ele><time>2026-05-02T09:49:34Z</time></trkpt><trkpt lat="43.13246337521857" lon="11.459284739067897"><ele>152.0</ele><time>2026-05-02T09:49:35Z</time></trkpt><trkpt lat="43.132407546508006" lon="11.459498592413052"><ele>149.66666666666666</ele><time>2026-05-02T09:49:36Z</time></trkpt><trkpt lat="43.132355072615645" lon="11.459718452736993"><ele>147.33333333333334</ele><time>2026-05-02T09:49:37Z</time></trkpt><trkpt lat="43.13230018734872" lon="11.459956841889639"><ele>145.0</ele><time>2026-05-02T09:49:38Z</time></trkpt><trkpt lat="43.13224295489263" lon="11.460198860944708"><ele>145.0</ele><time>2026-05-02T09:49:39.001Z</time></trkpt><trkpt lat="43.13218968313702" lon="11.460411245193159"><ele>145.0</ele><time>2026-05-02T09:49:40.001Z</time></trkpt><trkpt lat="43.13214557223413" lon="11.460587719445199"><ele>145.0</ele><time>2026-05-02T09:49:41.001Z</time></trkpt><trkpt lat="43.1321114468068" lon="11.460735237336614"><ele>145.0</ele><time>2026-05-02T09:49:42.001Z</time></trkpt><trkpt lat="43.132074748543154" lon="11.460870062750068"><ele>145.25</ele><time>2026-05-02T09:49:43.001Z</time></trkpt><trkpt lat="43.132078688933674" lon="11.461009926243568"><ele>145.5</ele><time>2026-05-02T09:49:44.001Z</time></trkpt><trkpt lat="43.13209572312962" lon="11.46117796180247"><ele>145.75</ele><time>2026-05-02T09:49:45.001Z</time></trkpt><trkpt lat="43.13211912524155" lon="11.461352043908427"><ele>146.0</ele><time>2026-05-02T09:49:46.001Z</time></trkpt><trkpt lat="43.13214013057341" lon="11.461502242755959"><ele>146.0</ele><time>2026-05-02T09:49:47.001Z</time></trkpt><trkpt lat="43.13215475626204" lon="11.461626293558249"><ele>146.0</ele><time>2026-05-02T09:49:48.001Z</time></trkpt><trkpt lat="43.132154904448306" lon="11.46171392946223"><ele>146.0</ele><time>2026-05-02T09:49:49.001Z</time></trkpt><trkpt lat="43.13214967333295" lon="11.46180044565004"><ele>146.0</ele><time>2026-05-02T09:49:50.001Z</time></trkpt><trkpt lat="43.132135947209164" lon="11.461901721903171"><ele>146.0</ele><time>2026-05-02T09:49:52.001Z</time></trkpt><trkpt lat="43.13204657101578" lon="11.461839441839327"><ele>146.0</ele><time>2026-05-02T09:50:04.001Z</time></trkpt><trkpt lat="43.13199508856714" lon="11.461784462902084"><ele>146.0</ele><time>2026-05-02T09:50:05.001Z</time></trkpt><trkpt lat="43.131926457718215" lon="11.461655430550648"><ele>146.0</ele><time>2026-05-02T09:50:07.001Z</time></trkpt><trkpt lat="43.13188349275581" lon="11.461549637282644"><ele>146.0</ele><time>2026-05-02T09:50:09.001Z</time></trkpt><trkpt lat="43.131828367004466" lon="11.461451673867764"><ele>146.0</ele><time>2026-05-02T09:50:11.001Z</time></trkpt><trkpt lat="43.13177543144158" lon="11.461402997345749"><ele>146.0</ele><time>2026-05-02T09:50:12.001Z</time></trkpt><trkpt lat="43.131730208781676" lon="11.461337494482668"><ele>146.0</ele><time>2026-05-02T09:50:13.001Z</time></trkpt><trkpt lat="43.13170912846573" lon="11.461239723352982"><ele>146.0</ele><time>2026-05-02T09:50:14.001Z</time></trkpt><trkpt lat="43.13166435790452" lon="11.461160122847936"><ele>146.0</ele><time>2026-05-02T09:50:15.001Z</time></trkpt><trkpt lat="43.13161499528557" lon="11.461072357827003"><ele>146.0</ele><time>2026-05-02T09:50:16.001Z</time></trkpt><trkpt lat="43.1315581524239" lon="11.46097129319118"><ele>146.0</ele><time>2026-05-02T09:50:17.002Z</time></trkpt><trkpt lat="43.13149213894435" lon="11.460854295448684"><ele>146.0</ele><time>2026-05-02T09:50:18.002Z</time></trkpt><trkpt lat="43.13142649293227" lon="11.460737928990026"><ele>145.5</ele><time>2026-05-02T09:50:19.002Z</time></trkpt><trkpt lat="43.131369359636814" lon="11.460636468375167"><ele>145.0</ele><time>2026-05-02T09:50:20.002Z</time></trkpt><trkpt lat="43.131323870567705" lon="11.460555686312501"><ele>144.5</ele><time>2026-05-02T09:50:21.002Z</time></trkpt><trkpt lat="43.13127276650825" lon="11.460464932702974"><ele>144.0</ele><time>2026-05-02T09:50:22.002Z</time></trkpt><trkpt lat="43.131223763252294" lon="11.460405838808342"><ele>143.5</ele><time>2026-05-02T09:50:23.002Z</time></trkpt><trkpt lat="43.13113095465357" lon="11.460315492701758"><ele>143.0</ele><time>2026-05-02T09:50:25.002Z</time></trkpt><trkpt lat="43.13105135852712" lon="11.460258765942726"><ele>143.0</ele><time>2026-05-02T09:50:27.002Z</time></trkpt><trkpt lat="43.131009475372615" lon="11.460113297821902"><ele>143.0</ele><time>2026-05-02T09:50:29.002Z</time></trkpt><trkpt lat="43.1309841571593" lon="11.460028963436589"><ele>143.0</ele><time>2026-05-02T09:50:30.002Z</time></trkpt><trkpt lat="43.13094928241056" lon="11.459928505898294"><ele>143.0</ele><time>2026-05-02T09:50:31.002Z</time></trkpt><trkpt lat="43.130907866657665" lon="11.459817738824096"><ele>143.0</ele><time>2026-05-02T09:50:32.002Z</time></trkpt><trkpt lat="43.13084635285143" lon="11.459707013970391"><ele>143.0</ele><time>2026-05-02T09:50:33.002Z</time></trkpt><trkpt lat="43.130760146308745" lon="11.459552078714085"><ele>143.0</ele><time>2026-05-02T09:50:34.002Z</time></trkpt><trkpt lat="43.13066173403872" lon="11.459375366713424"><ele>143.0</ele><time>2026-05-02T09:50:35.002Z</time></trkpt><trkpt lat="43.13023524552026" lon="11.459536616834379"><ele>143.5</ele><time>2026-05-02T09:50:36.002Z</time></trkpt><trkpt lat="43.13019393398123" lon="11.459325268912657"><ele>144.0</ele><time>2026-05-02T09:50:37.002Z</time></trkpt><trkpt lat="43.13015201153438" lon="11.459142283456133"><ele>144.5</ele><time>2026-05-02T09:50:38.002Z</time></trkpt><trkpt lat="43.1301151660002" lon="11.458984701259258"><ele>145.0</ele><time>2026-05-02T09:50:39.002Z</time></trkpt><trkpt lat="43.13008442114" lon="11.458832214922532"><ele>146.0</ele><time>2026-05-02T09:50:40.002Z</time></trkpt><trkpt lat="43.130053218223786" lon="11.45869565687625"><ele>147.0</ele><time>2026-05-02T09:50:41.002Z</time></trkpt><trkpt lat="43.13002577958261" lon="11.458579397644492"><ele>148.0</ele><time>2026-05-02T09:50:42.002Z</time></trkpt><trkpt lat="43.13000473057732" lon="11.458493467112529"><ele>149.0</ele><time>2026-05-02T09:50:43.002Z</time></trkpt><trkpt lat="43.12999770212499" lon="11.458406624502398"><ele>150.0</ele><time>2026-05-02T09:50:45.002Z</time></trkpt><trkpt lat="43.13003128102906" lon="11.458292170966478"><ele>151.0</ele><time>2026-05-02T09:50:48.002Z</time></trkpt><trkpt lat="43.12996700417905" lon="11.458142709613265"><ele>151.0</ele><time>2026-05-02T09:50:50.002Z</time></trkpt><trkpt lat="43.129912474305044" lon="11.458055398747874"><ele>151.0</ele><time>2026-05-02T09:50:51.002Z</time></trkpt><trkpt lat="43.12985492479441" lon="11.457963162567877"><ele>151.0</ele><time>2026-05-02T09:50:52.003Z</time></trkpt><trkpt lat="43.129795922184506" lon="11.45786143938593"><ele>151.0</ele><time>2026-05-02T09:50:53.003Z</time></trkpt><trkpt lat="43.12974395506867" lon="11.457766710509587"><ele>151.0</ele><time>2026-05-02T09:50:54.003Z</time></trkpt><trkpt lat="43.129699577092744" lon="11.457677470643974"><ele>151.0</ele><time>2026-05-02T09:50:55.003Z</time></trkpt><trkpt lat="43.12965376680709" lon="11.457595218670741"><ele>153.0</ele><time>2026-05-02T09:50:56.003Z</time></trkpt><trkpt lat="43.129600793459616" lon="11.45750770077665"><ele>155.0</ele><time>2026-05-02T09:50:57.003Z</time></trkpt><trkpt lat="43.129536034329576" lon="11.457408738054099"><ele>157.0</ele><time>2026-05-02T09:50:58.003Z</time></trkpt><trkpt lat="43.12947075440291" lon="11.457300218538457"><ele>159.0</ele><time>2026-05-02T09:50:59.003Z</time></trkpt><trkpt lat="43.129395816238656" lon="11.457171465208999"><ele>161.0</ele><time>2026-05-02T09:51:00.003Z</time></trkpt><trkpt lat="43.12930291917266" lon="11.457003883745115"><ele>161.5</ele><time>2026-05-02T09:51:01.003Z</time></trkpt><trkpt lat="43.129215646677636" lon="11.45685229172901"><ele>162.0</ele><time>2026-05-02T09:51:02.003Z</time></trkpt><trkpt lat="43.129139133357526" lon="11.456714979908744"><ele>162.5</ele><time>2026-05-02T09:51:03.003Z</time></trkpt><trkpt lat="43.129074904977365" lon="11.456588145252983"><ele>163.0</ele><time>2026-05-02T09:51:04.003Z</time></trkpt><trkpt lat="43.12901401976982" lon="11.456470892498393"><ele>165.0</ele><time>2026-05-02T09:51:05.003Z</time></trkpt><trkpt lat="43.128948690000065" lon="11.45635602623876"><ele>167.0</ele><time>2026-05-02T09:51:06.003Z</time></trkpt><trkpt lat="43.12888388733097" lon="11.456241884915281"><ele>169.0</ele><time>2026-05-02T09:51:07.003Z</time></trkpt><trkpt lat="43.12882025066561" lon="11.456130283146146"><ele>171.0</ele><time>2026-05-02T09:51:08.003Z</time></trkpt><trkpt lat="43.12875480678878" lon="11.456015099850127"><ele>173.0</ele><time>2026-05-02T09:51:09Z</time></trkpt><trkpt lat="43.128684136564026" lon="11.4558903744242"><ele>173.5</ele><time>2026-05-02T09:51:10Z</time></trkpt><trkpt lat="43.12860911846297" lon="11.455762391480741"><ele>174.0</ele><time>2026-05-02T09:51:11Z</time></trkpt><trkpt lat="43.12853195131109" lon="11.455651609524843"><ele>174.5</ele><time>2026-05-02T09:51:12Z</time></trkpt><trkpt lat="43.128447453353594" lon="11.45555566834741"><ele>175.0</ele><time>2026-05-02T09:51:13Z</time></trkpt><trkpt lat="43.128341889001724" lon="11.455445699587113"><ele>179.5</ele><time>2026-05-02T09:51:14Z</time></trkpt><trkpt lat="43.12818914835809" lon="11.455389764749876"><ele>184.0</ele><time>2026-05-02T09:51:15Z</time></trkpt><trkpt lat="43.12806721046469" lon="11.455311753448228"><ele>188.5</ele><time>2026-05-02T09:51:16Z</time></trkpt><trkpt lat="43.12794784433631" lon="11.455257633514472"><ele>193.0</ele><time>2026-05-02T09:51:17Z</time></trkpt><trkpt lat="43.12782992951886" lon="11.455219885905894"><ele>193.0</ele><time>2026-05-02T09:51:18Z</time></trkpt><trkpt lat="43.1277227035505" lon="11.455171306936197"><ele>193.0</ele><time>2026-05-02T09:51:19Z</time></trkpt><trkpt lat="43.12761917466691" lon="11.455118037449243"><ele>193.0</ele><time>2026-05-02T09:51:20Z</time></trkpt><trkpt lat="43.12750968011679" lon="11.45507142982224"><ele>193.0</ele><time>2026-05-02T09:51:21Z</time></trkpt><trkpt lat="43.12740234162187" lon="11.455023929734647"><ele>195.2</ele><time>2026-05-02T09:51:22Z</time></trkpt><trkpt lat="43.127301672213925" lon="11.454978892516456"><ele>197.4</ele><time>2026-05-02T09:51:23Z</time></trkpt><trkpt lat="43.12722178602968" lon="11.454891589103307"><ele>199.6</ele><time>2026-05-02T09:51:24Z</time></trkpt><trkpt lat="43.12713451746112" lon="11.454804094285919"><ele>201.79999999999998</ele><time>2026-05-02T09:51:25Z</time></trkpt><trkpt lat="43.12705527963202" lon="11.454695482798106"><ele>204.0</ele><time>2026-05-02T09:51:26Z</time></trkpt><trkpt lat="43.12698830958726" lon="11.454567297531723"><ele>206.25</ele><time>2026-05-02T09:51:27Z</time></trkpt><trkpt lat="43.12692534438907" lon="11.454433880320213"><ele>208.5</ele><time>2026-05-02T09:51:28Z</time></trkpt><trkpt lat="43.12686475489744" lon="11.454299038622587"><ele>210.75</ele><time>2026-05-02T09:51:29Z</time></trkpt><trkpt lat="43.126827042618864" lon="11.45415392793691"><ele>213.0</ele><time>2026-05-02T09:51:30Z</time></trkpt><trkpt lat="43.12680349982938" lon="11.453988258994173"><ele>213.0</ele><time>2026-05-02T09:51:31Z</time></trkpt><trkpt lat="43.126793987924245" lon="11.453810067614624"><ele>213.0</ele><time>2026-05-02T09:51:32Z</time></trkpt><trkpt lat="43.1267853937696" lon="11.453626953762113"><ele>213.0</ele><time>2026-05-02T09:51:33Z</time></trkpt><trkpt lat="43.126776297143074" lon="11.453429212045275"><ele>213.0</ele><time>2026-05-02T09:51:34Z</time></trkpt><trkpt lat="43.12677120133275" lon="11.453239228698328"><ele>214.5</ele><time>2026-05-02T09:51:35Z</time></trkpt><trkpt lat="43.126768559055634" lon="11.45306038322572"><ele>216.0</ele><time>2026-05-02T09:51:36Z</time></trkpt><trkpt lat="43.12676758780098" lon="11.452884540300929"><ele>217.5</ele><time>2026-05-02T09:51:37Z</time></trkpt><trkpt lat="43.12676140195795" lon="11.452709916387198"><ele>219.0</ele><time>2026-05-02T09:51:38Z</time></trkpt><trkpt lat="43.12676813876674" lon="11.452542870695485"><ele>220.0</ele><time>2026-05-02T09:51:39Z</time></trkpt><trkpt lat="43.126766939455436" lon="11.452352747022973"><ele>221.0</ele><time>2026-05-02T09:51:40.001Z</time></trkpt><trkpt lat="43.12676163057757" lon="11.452103368555862"><ele>222.0</ele><time>2026-05-02T09:51:41.001Z</time></trkpt><trkpt lat="43.126733376268696" lon="11.451806192847364"><ele>223.5</ele><time>2026-05-02T09:51:42.001Z</time></trkpt><trkpt lat="43.12669858607334" lon="11.451504814244492"><ele>225.0</ele><time>2026-05-02T09:51:43.001Z</time></trkpt><trkpt lat="43.126651595598624" lon="11.451196082451242"><ele>225.0</ele><time>2026-05-02T09:51:44.001Z</time></trkpt><trkpt lat="43.12655640418608" lon="11.450871329374062"><ele>225.0</ele><time>2026-05-02T09:51:45.001Z</time></trkpt><trkpt lat="43.12644497235698" lon="11.450560200097216"><ele>227.0</ele><time>2026-05-02T09:51:46.001Z</time></trkpt><trkpt lat="43.126351782696915" lon="11.450278661412561"><ele>229.0</ele><time>2026-05-02T09:51:47.001Z</time></trkpt><trkpt lat="43.126267912710205" lon="11.450006674549307"><ele>231.0</ele><time>2026-05-02T09:51:48.001Z</time></trkpt><trkpt lat="43.12620298739424" lon="11.449785065019592"><ele>233.25</ele><time>2026-05-02T09:51:49.001Z</time></trkpt><trkpt lat="43.126147759436684" lon="11.449600243352318"><ele>235.5</ele><time>2026-05-02T09:51:50.001Z</time></trkpt><trkpt lat="43.12607662247685" lon="11.449438370559315"><ele>237.75</ele><time>2026-05-02T09:51:51.001Z</time></trkpt><trkpt lat="43.12598700015562" lon="11.44931961282349"><ele>240.0</ele><time>2026-05-02T09:51:52.001Z</time></trkpt><trkpt lat="43.12586643194442" lon="11.449217602932382"><ele>239.66666666666669</ele><time>2026-05-02T09:51:53.001Z</time></trkpt><trkpt lat="43.12572362984602" lon="11.449145341377685"><ele>239.33333333333334</ele><time>2026-05-02T09:51:54.001Z</time></trkpt><trkpt lat="43.12555988475652" lon="11.44908933040819"><ele>239.0</ele><time>2026-05-02T09:51:55.001Z</time></trkpt><trkpt lat="43.12540072983146" lon="11.449035341826967"><ele>239.0</ele><time>2026-05-02T09:51:56.001Z</time></trkpt><trkpt lat="43.125261610961076" lon="11.448992676538444"><ele>239.0</ele><time>2026-05-02T09:51:57.001Z</time></trkpt><trkpt lat="43.125132954345624" lon="11.44895061678353"><ele>239.0</ele><time>2026-05-02T09:51:58.001Z</time></trkpt><trkpt lat="43.125016270571535" lon="11.448900749527425"><ele>239.0</ele><time>2026-05-02T09:51:59.001Z</time></trkpt><trkpt lat="43.12491298321994" lon="11.448847524110429"><ele>239.16666666666669</ele><time>2026-05-02T09:52:00.001Z</time></trkpt><trkpt lat="43.12482028148636" lon="11.448798296399216"><ele>239.33333333333334</ele><time>2026-05-02T09:52:01.001Z</time></trkpt><trkpt lat="43.1247364875806" lon="11.448764986936226"><ele>239.5</ele><time>2026-05-02T09:52:02.001Z</time></trkpt><trkpt lat="43.124661674526074" lon="11.448765121709043"><ele>239.66666666666669</ele><time>2026-05-02T09:52:03.001Z</time></trkpt><trkpt lat="43.12458982594415" lon="11.448806602059204"><ele>239.83333333333334</ele><time>2026-05-02T09:52:04.001Z</time></trkpt><trkpt lat="43.124515558928756" lon="11.448887985696238"><ele>240.0</ele><time>2026-05-02T09:52:05.001Z</time></trkpt><trkpt lat="43.124436067621765" lon="11.449007943055317"><ele>239.25</ele><time>2026-05-02T09:52:06.001Z</time></trkpt><trkpt lat="43.12435034735978" lon="11.449138949355431"><ele>238.5</ele><time>2026-05-02T09:52:07.001Z</time></trkpt><trkpt lat="43.12425248763364" lon="11.449226616522385"><ele>237.75</ele><time>2026-05-02T09:52:08.001Z</time></trkpt><trkpt lat="43.12414827360782" lon="11.449265089558725"><ele>237.0</ele><time>2026-05-02T09:52:09.001Z</time></trkpt><trkpt lat="43.12403201160135" lon="11.449236073123513"><ele>236.0</ele><time>2026-05-02T09:52:10.001Z</time></trkpt><trkpt lat="43.12388861460606" lon="11.449196074643034"><ele>235.0</ele><time>2026-05-02T09:52:11.001Z</time></trkpt><trkpt lat="43.123707039707135" lon="11.44913548944951"><ele>234.0</ele><time>2026-05-02T09:52:12.001Z</time></trkpt><trkpt lat="43.12351065429193" lon="11.449086973991454"><ele>234.0</ele><time>2026-05-02T09:52:13.001Z</time></trkpt><trkpt lat="43.123309738287475" lon="11.449015935968525"><ele>234.0</ele><time>2026-05-02T09:52:14.001Z</time></trkpt><trkpt lat="43.12309765939507" lon="11.44894411150851"><ele>234.0</ele><time>2026-05-02T09:52:15.001Z</time></trkpt><trkpt lat="43.12288222645435" lon="11.44887228759958"><ele>233.0</ele><time>2026-05-02T09:52:16.001Z</time></trkpt><trkpt lat="43.122681379249244" lon="11.448805734253598"><ele>232.0</ele><time>2026-05-02T09:52:17.001Z</time></trkpt><trkpt lat="43.12247738773662" lon="11.44872766599303"><ele>231.0</ele><time>2026-05-02T09:52:18.002Z</time></trkpt><trkpt lat="43.122271321505075" lon="11.448653191126457"><ele>228.66666666666669</ele><time>2026-05-02T09:52:19.002Z</time></trkpt><trkpt lat="43.122061726139755" lon="11.448578537494598"><ele>226.33333333333334</ele><time>2026-05-02T09:52:20.002Z</time></trkpt><trkpt lat="43.12187146444166" lon="11.448508260905848"><ele>224.0</ele><time>2026-05-02T09:52:21.002Z</time></trkpt><trkpt lat="43.12171057394747" lon="11.448450480781345"><ele>224.0</ele><time>2026-05-02T09:52:22.002Z</time></trkpt><trkpt lat="43.121585420031074" lon="11.448394742606363"><ele>224.0</ele><time>2026-05-02T09:52:23.002Z</time></trkpt><trkpt lat="43.12147185068025" lon="11.448323257881285"><ele>224.0</ele><time>2026-05-02T09:52:24.002Z</time></trkpt><trkpt lat="43.12135957304996" lon="11.448303693133973"><ele>224.0</ele><time>2026-05-02T09:52:25.002Z</time></trkpt><trkpt lat="43.12131629140792" lon="11.448020134294486"><ele>221.66666666666669</ele><time>2026-05-02T09:52:26.002Z</time></trkpt><trkpt lat="43.12123381746511" lon="11.447797484681415"><ele>219.33333333333331</ele><time>2026-05-02T09:52:27.002Z</time></trkpt><trkpt lat="43.121151634601624" lon="11.447549282860974"><ele>217.0</ele><time>2026-05-02T09:52:28.002Z</time></trkpt><trkpt lat="43.1210530080744" lon="11.447291568523259"><ele>215.66666666666666</ele><time>2026-05-02T09:52:29.002Z</time></trkpt><trkpt lat="43.12097208917637" lon="11.447018104708278"><ele>214.33333333333331</ele><time>2026-05-02T09:52:30.002Z</time></trkpt><trkpt lat="43.1208973271336" lon="11.446772001125202"><ele>213.0</ele><time>2026-05-02T09:52:31.002Z</time></trkpt><trkpt lat="43.12082406208119" lon="11.446540199519767"><ele>213.0</ele><time>2026-05-02T09:52:32.002Z</time></trkpt><trkpt lat="43.12075643179332" lon="11.446335178642713"><ele>213.0</ele><time>2026-05-02T09:52:33.002Z</time></trkpt><trkpt lat="43.12070482230155" lon="11.446163093155095"><ele>213.0</ele><time>2026-05-02T09:52:34.002Z</time></trkpt><trkpt lat="43.120692432215186" lon="11.445994404837794"><ele>213.0</ele><time>2026-05-02T09:52:35.002Z</time></trkpt><trkpt lat="43.120685803347826" lon="11.445825571636622"><ele>212.33333333333331</ele><time>2026-05-02T09:52:36.002Z</time></trkpt><trkpt lat="43.12075068837926" lon="11.445650235149614"><ele>211.66666666666666</ele><time>2026-05-02T09:52:37.002Z</time></trkpt><trkpt lat="43.12080486818066" lon="11.445444859240308"><ele>211.0</ele><time>2026-05-02T09:52:38.002Z</time></trkpt><trkpt lat="43.1208673160515" lon="11.445258827923844"><ele>211.0</ele><time>2026-05-02T09:52:39.002Z</time></trkpt><trkpt lat="43.12090613817557" lon="11.445089417108854"><ele>211.0</ele><time>2026-05-02T09:52:40.002Z</time></trkpt><trkpt lat="43.12090443494374" lon="11.44491989310928"><ele>211.0</ele><time>2026-05-02T09:52:41.002Z</time></trkpt><trkpt lat="43.12086582144949" lon="11.444770379913688"><ele>211.0</ele><time>2026-05-02T09:52:42.002Z</time></trkpt><trkpt lat="43.12078792690321" lon="11.444637842066998"><ele>208.66666666666666</ele><time>2026-05-02T09:52:43.002Z</time></trkpt><trkpt lat="43.12067167459953" lon="11.444507364372692"><ele>206.33333333333331</ele><time>2026-05-02T09:52:44.002Z</time></trkpt><trkpt lat="43.12051369692987" lon="11.444393566739349"><ele>204.0</ele><time>2026-05-02T09:52:45.002Z</time></trkpt><trkpt lat="43.120323950703295" lon="11.44428277458603"><ele>204.0</ele><time>2026-05-02T09:52:46.002Z</time></trkpt><trkpt lat="43.12013714995481" lon="11.444165751258344"><ele>204.0</ele><time>2026-05-02T09:52:47.002Z</time></trkpt><trkpt lat="43.11993901405923" lon="11.44401284216979"><ele>204.0</ele><time>2026-05-02T09:52:48.002Z</time></trkpt><trkpt lat="43.119728003216906" lon="11.443872502976154"><ele>199.66666666666666</ele><time>2026-05-02T09:52:49.002Z</time></trkpt><trkpt lat="43.11951865597224" lon="11.443730550827857"><ele>195.33333333333331</ele><time>2026-05-02T09:52:50.002Z</time></trkpt><trkpt lat="43.11933204163651" lon="11.4435966763338"><ele>191.0</ele><time>2026-05-02T09:52:51.002Z</time></trkpt><trkpt lat="43.119153508454" lon="11.443455938195385"><ele>189.66666666666666</ele><time>2026-05-02T09:52:52.002Z</time></trkpt><trkpt lat="43.11899237421218" lon="11.44331453551706"><ele>188.33333333333334</ele><time>2026-05-02T09:52:53.002Z</time></trkpt><trkpt lat="43.1188635966928" lon="11.443163738268202"><ele>187.0</ele><time>2026-05-02T09:52:54.002Z</time></trkpt><trkpt lat="43.1187640505622" lon="11.443020362069806"><ele>184.25</ele><time>2026-05-02T09:52:55.002Z</time></trkpt><trkpt lat="43.118668275099125" lon="11.442916251730464"><ele>181.5</ele><time>2026-05-02T09:52:56.002Z</time></trkpt><trkpt lat="43.1185757210709" lon="11.442811684027324"><ele>178.75</ele><time>2026-05-02T09:52:57.003Z</time></trkpt><trkpt lat="43.118490399613144" lon="11.442702898974764"><ele>176.0</ele><time>2026-05-02T09:52:58.003Z</time></trkpt><trkpt lat="43.11839325692853" lon="11.442621045315539"><ele>176.0</ele><time>2026-05-02T09:52:59.003Z</time></trkpt><trkpt lat="43.11829850693085" lon="11.442543801293274"><ele>176.0</ele><time>2026-05-02T09:53:00.003Z</time></trkpt><trkpt lat="43.11819446825512" lon="11.442447944728372"><ele>176.0</ele><time>2026-05-02T09:53:01.003Z</time></trkpt><trkpt lat="43.11805978601119" lon="11.442348288606778"><ele>176.0</ele><time>2026-05-02T09:53:02.003Z</time></trkpt><trkpt lat="43.11794538215137" lon="11.442248212924019"><ele>176.0</ele><time>2026-05-02T09:53:03.003Z</time></trkpt><trkpt lat="43.11784405541764" lon="11.442157321171432"><ele>176.0</ele><time>2026-05-02T09:53:04.003Z</time></trkpt><trkpt lat="43.117755116996776" lon="11.442080228844302"><ele>176.0</ele><time>2026-05-02T09:53:05.003Z</time></trkpt><trkpt lat="43.11766202201514" lon="11.442023083338032"><ele>176.0</ele><time>2026-05-02T09:53:06.003Z</time></trkpt><trkpt lat="43.11757759574488" lon="11.441966938718002"><ele>176.0</ele><time>2026-05-02T09:53:07.003Z</time></trkpt><trkpt lat="43.11748846542211" lon="11.441944217779382"><ele>174.0</ele><time>2026-05-02T09:53:08.003Z</time></trkpt><trkpt lat="43.11738747700365" lon="11.441940384254226"><ele>172.0</ele><time>2026-05-02T09:53:09.003Z</time></trkpt><trkpt lat="43.11727621177523" lon="11.441980331366677"><ele>170.0</ele><time>2026-05-02T09:53:10.003Z</time></trkpt><trkpt lat="43.11714712273367" lon="11.442049845263488"><ele>168.0</ele><time>2026-05-02T09:53:11.003Z</time></trkpt><trkpt lat="43.11701853870033" lon="11.442132701490324"><ele>168.0</ele><time>2026-05-02T09:53:12.003Z</time></trkpt><trkpt lat="43.11690960264019" lon="11.442203356643105"><ele>168.0</ele><time>2026-05-02T09:53:13.003Z</time></trkpt><trkpt lat="43.116798438007464" lon="11.442252412078993"><ele>168.0</ele><time>2026-05-02T09:53:14.003Z</time></trkpt><trkpt lat="43.11669012231684" lon="11.442274189287236"><ele>168.0</ele><time>2026-05-02T09:53:15Z</time></trkpt><trkpt lat="43.116586505623246" lon="11.442259097950101"><ele>168.0</ele><time>2026-05-02T09:53:16Z</time></trkpt><trkpt lat="43.1164959441773" lon="11.442213256430188"><ele>168.0</ele><time>2026-05-02T09:53:17Z</time></trkpt><trkpt lat="43.11642626362582" lon="11.442091105919653"><ele>168.0</ele><time>2026-05-02T09:53:18Z</time></trkpt><trkpt lat="43.11633416470262" lon="11.441970738439103"><ele>168.0</ele><time>2026-05-02T09:53:19Z</time></trkpt><trkpt lat="43.116218634414295" lon="11.44183520363611"><ele>165.75</ele><time>2026-05-02T09:53:20Z</time></trkpt><trkpt lat="43.11610622524891" lon="11.441705643247014"><ele>163.5</ele><time>2026-05-02T09:53:21Z</time></trkpt><trkpt lat="43.11600922848683" lon="11.441578822158915"><ele>161.25</ele><time>2026-05-02T09:53:22Z</time></trkpt><trkpt lat="43.1159236281108" lon="11.44147406291113"><ele>159.0</ele><time>2026-05-02T09:53:23Z</time></trkpt><trkpt lat="43.115842697091075" lon="11.441384235045291"><ele>159.0</ele><time>2026-05-02T09:53:24Z</time></trkpt><trkpt lat="43.11575117631207" lon="11.441324526870586"><ele>159.0</ele><time>2026-05-02T09:53:25Z</time></trkpt><trkpt lat="43.11567182392111" lon="11.441245430104193"><ele>159.0</ele><time>2026-05-02T09:53:26Z</time></trkpt><trkpt lat="43.11559442245744" lon="11.441153100590126"><ele>159.0</ele><time>2026-05-02T09:53:27Z</time></trkpt><trkpt lat="43.11546027537322" lon="11.441186441052084"><ele>159.0</ele><time>2026-05-02T09:53:28Z</time></trkpt><trkpt lat="43.11532235136737" lon="11.441221083468104"><ele>156.0</ele><time>2026-05-02T09:53:29Z</time></trkpt><trkpt lat="43.11517196772213" lon="11.441257482905053"><ele>153.0</ele><time>2026-05-02T09:53:30Z</time></trkpt><trkpt lat="43.11503005091665" lon="11.44128721855481"><ele>150.0</ele><time>2026-05-02T09:53:31Z</time></trkpt><trkpt lat="43.114885515262756" lon="11.44130504561736"><ele>147.0</ele><time>2026-05-02T09:53:32Z</time></trkpt><trkpt lat="43.114730896870974" lon="11.441322363781417"><ele>145.0</ele><time>2026-05-02T09:53:33Z</time></trkpt><trkpt lat="43.11455159392737" lon="11.441338176242912"><ele>143.0</ele><time>2026-05-02T09:53:34Z</time></trkpt><trkpt lat="43.1143534356059" lon="11.441365553890876"><ele>141.0</ele><time>2026-05-02T09:53:35Z</time></trkpt><trkpt lat="43.11412112501561" lon="11.441362331275208"><ele>139.5</ele><time>2026-05-02T09:53:36Z</time></trkpt><trkpt lat="43.11388062324267" lon="11.441382734748494"><ele>138.0</ele><time>2026-05-02T09:53:37Z</time></trkpt><trkpt lat="43.113643301503195" lon="11.44140406006623"><ele>138.0</ele><time>2026-05-02T09:53:38Z</time></trkpt><trkpt lat="43.11337807076284" lon="11.441430342909094"><ele>138.0</ele><time>2026-05-02T09:53:39Z</time></trkpt><trkpt lat="43.11310119145163" lon="11.441457819725478"><ele>137.5</ele><time>2026-05-02T09:53:40Z</time></trkpt><trkpt lat="43.11282705594721" lon="11.441485024234385"><ele>137.0</ele><time>2026-05-02T09:53:41Z</time></trkpt><trkpt lat="43.11259206817453" lon="11.441525744728132"><ele>136.66666666666666</ele><time>2026-05-02T09:53:42Z</time></trkpt><trkpt lat="43.112375151649566" lon="11.44154534265985"><ele>136.33333333333334</ele><time>2026-05-02T09:53:43Z</time></trkpt><trkpt lat="43.1121671955767" lon="11.441564600971592"><ele>136.0</ele><time>2026-05-02T09:53:44Z</time></trkpt><trkpt lat="43.11197634870287" lon="11.441579300696626"><ele>136.0</ele><time>2026-05-02T09:53:45Z</time></trkpt><trkpt lat="43.111795349876914" lon="11.441596706569717"><ele>136.0</ele><time>2026-05-02T09:53:46Z</time></trkpt><trkpt lat="43.111624030772674" lon="11.441590993314625"><ele>136.0</ele><time>2026-05-02T09:53:47Z</time></trkpt><trkpt lat="43.11145102233781" lon="11.441612670475003"><ele>135.66666666666669</ele><time>2026-05-02T09:53:48Z</time></trkpt><trkpt lat="43.11127642072583" lon="11.441663763538559"><ele>135.33333333333334</ele><time>2026-05-02T09:53:49Z</time></trkpt><trkpt lat="43.111103354745396" lon="11.441694867659344"><ele>135.0</ele><time>2026-05-02T09:53:50Z</time></trkpt><trkpt lat="43.110929697747835" lon="11.441721280798996"><ele>135.0</ele><time>2026-05-02T09:53:51Z</time></trkpt><trkpt lat="43.11075445535353" lon="11.441730202946603"><ele>135.0</ele><time>2026-05-02T09:53:52Z</time></trkpt><trkpt lat="43.110582777515475" lon="11.441730170308833"><ele>135.0</ele><time>2026-05-02T09:53:53.001Z</time></trkpt><trkpt lat="43.11041231100907" lon="11.441718113845983"><ele>134.33333333333334</ele><time>2026-05-02T09:53:54.001Z</time></trkpt><trkpt lat="43.11022574302049" lon="11.441735268727106"><ele>133.66666666666669</ele><time>2026-05-02T09:53:55.001Z</time></trkpt><trkpt lat="43.11003852537728" lon="11.441780599218685"><ele>133.0</ele><time>2026-05-02T09:53:56.001Z</time></trkpt><trkpt lat="43.1098395316977" lon="11.441855821614123"><ele>133.0</ele><time>2026-05-02T09:53:57.001Z</time></trkpt><trkpt lat="43.10965445941101" lon="11.441959890137868"><ele>133.0</ele><time>2026-05-02T09:53:58.001Z</time></trkpt><trkpt lat="43.10945338059228" lon="11.442036154632458"><ele>133.0</ele><time>2026-05-02T09:53:59.001Z</time></trkpt><trkpt lat="43.10926631349429" lon="11.442105941158836"><ele>133.0</ele><time>2026-05-02T09:54:00.001Z</time></trkpt><trkpt lat="43.10907757609536" lon="11.442167930727024"><ele>133.0</ele><time>2026-05-02T09:54:01.001Z</time></trkpt><trkpt lat="43.108891634774956" lon="11.442218728370758"><ele>133.0</ele><time>2026-05-02T09:54:02.001Z</time></trkpt><trkpt lat="43.10870249544702" lon="11.442262103434091"><ele>133.0</ele><time>2026-05-02T09:54:03.001Z</time></trkpt><trkpt lat="43.108517312166946" lon="11.442299535306129"><ele>133.0</ele><time>2026-05-02T09:54:04.001Z</time></trkpt><trkpt lat="43.10833029347834" lon="11.442341589980249"><ele>133.0</ele><time>2026-05-02T09:54:05.001Z</time></trkpt><trkpt lat="43.10816303016325" lon="11.442376332172296"><ele>133.25</ele><time>2026-05-02T09:54:06.001Z</time></trkpt><trkpt lat="43.10801173206708" lon="11.4424065256772"><ele>133.5</ele><time>2026-05-02T09:54:07.001Z</time></trkpt><trkpt lat="43.107881580130304" lon="11.442431936780583"><ele>133.75</ele><time>2026-05-02T09:54:08.001Z</time></trkpt><trkpt lat="43.107769846074056" lon="11.442453039649674"><ele>134.0</ele><time>2026-05-02T09:54:09.001Z</time></trkpt><trkpt lat="43.10766901699565" lon="11.442468359803398"><ele>134.0</ele><time>2026-05-02T09:54:10.001Z</time></trkpt><trkpt lat="43.10755960699433" lon="11.442458140476429"><ele>134.0</ele><time>2026-05-02T09:54:11.001Z</time></trkpt><trkpt lat="43.107447399549045" lon="11.442390907990207"><ele>134.0</ele><time>2026-05-02T09:54:12.001Z</time></trkpt><trkpt lat="43.107345934150956" lon="11.442285067458636"><ele>134.0</ele><time>2026-05-02T09:54:13.001Z</time></trkpt><trkpt lat="43.107243022520855" lon="11.442129531821715"><ele>133.0</ele><time>2026-05-02T09:54:14.001Z</time></trkpt><trkpt lat="43.10711832730297" lon="11.441945145252955"><ele>132.0</ele><time>2026-05-02T09:54:15.001Z</time></trkpt><trkpt lat="43.1069860647371" lon="11.441755879237363"><ele>131.0</ele><time>2026-05-02T09:54:16.001Z</time></trkpt><trkpt lat="43.10685007625455" lon="11.441568901218146"><ele>131.0</ele><time>2026-05-02T09:54:17.001Z</time></trkpt><trkpt lat="43.10670205225006" lon="11.44136117181754"><ele>131.0</ele><time>2026-05-02T09:54:18.001Z</time></trkpt><trkpt lat="43.10655452873464" lon="11.441147421073492"><ele>131.0</ele><time>2026-05-02T09:54:19.001Z</time></trkpt><trkpt lat="43.106410152325275" lon="11.440942510358477"><ele>131.0</ele><time>2026-05-02T09:54:20.001Z</time></trkpt><trkpt lat="43.106269191330945" lon="11.440743708804632"><ele>131.0</ele><time>2026-05-02T09:54:21.001Z</time></trkpt><trkpt lat="43.106129726811346" lon="11.440547017627107"><ele>131.0</ele><time>2026-05-02T09:54:22.001Z</time></trkpt><trkpt lat="43.10599573377195" lon="11.440358043632239"><ele>131.0</ele><time>2026-05-02T09:54:23.001Z</time></trkpt><trkpt lat="43.105862560050106" lon="11.440173583036838"><ele>131.0</ele><time>2026-05-02T09:54:24.001Z</time></trkpt><trkpt lat="43.105723164528605" lon="11.439992539700192"><ele>131.0</ele><time>2026-05-02T09:54:25.001Z</time></trkpt><trkpt lat="43.105587021906715" lon="11.439826722221957"><ele>130.66666666666666</ele><time>2026-05-02T09:54:26.001Z</time></trkpt><trkpt lat="43.1054565759795" lon="11.439663235337678"><ele>130.33333333333334</ele><time>2026-05-02T09:54:27.001Z</time></trkpt><trkpt lat="43.105330813520226" lon="11.43948992533572"><ele>130.0</ele><time>2026-05-02T09:54:28.001Z</time></trkpt><trkpt lat="43.105211127425434" lon="11.439304531618468"><ele>129.66666666666669</ele><time>2026-05-02T09:54:29.002Z</time></trkpt><trkpt lat="43.10510221071446" lon="11.439099337719423"><ele>129.33333333333334</ele><time>2026-05-02T09:54:30.002Z</time></trkpt><trkpt lat="43.104980029025626" lon="11.438902866938683"><ele>129.0</ele><time>2026-05-02T09:54:31.002Z</time></trkpt><trkpt lat="43.104860574642956" lon="11.438718804419695"><ele>129.66666666666666</ele><time>2026-05-02T09:54:32.002Z</time></trkpt><trkpt lat="43.10474831353375" lon="11.438554865889413"><ele>130.33333333333331</ele><time>2026-05-02T09:54:33.002Z</time></trkpt><trkpt lat="43.10464307915387" lon="11.438408513354803"><ele>131.0</ele><time>2026-05-02T09:54:34.002Z</time></trkpt><trkpt lat="43.104536585523434" lon="11.438262348021162"><ele>131.0</ele><time>2026-05-02T09:54:35.002Z</time></trkpt><trkpt lat="43.104411068412425" lon="11.438090072402929"><ele>131.0</ele><time>2026-05-02T09:54:36.002Z</time></trkpt><trkpt lat="43.10426448351185" lon="11.437888880703126"><ele>131.0</ele><time>2026-05-02T09:54:37.002Z</time></trkpt><trkpt lat="43.10410859032758" lon="11.437673626385576"><ele>131.33333333333331</ele><time>2026-05-02T09:54:38.002Z</time></trkpt><trkpt lat="43.10396099735473" lon="11.4374658550924"><ele>131.66666666666666</ele><time>2026-05-02T09:54:39.002Z</time></trkpt><trkpt lat="43.10383660610813" lon="11.43728659459078"><ele>132.0</ele><time>2026-05-02T09:54:40.002Z</time></trkpt><trkpt lat="43.10372236270555" lon="11.43712195796746"><ele>132.66666666666666</ele><time>2026-05-02T09:54:41.002Z</time></trkpt><trkpt lat="43.10360814738407" lon="11.436960095804604"><ele>133.33333333333331</ele><time>2026-05-02T09:54:42.002Z</time></trkpt><trkpt lat="43.103494996572074" lon="11.436800174749655"><ele>134.0</ele><time>2026-05-02T09:54:43.002Z</time></trkpt><trkpt lat="43.10337368634584" lon="11.436628026446064"><ele>134.0</ele><time>2026-05-02T09:54:44.002Z</time></trkpt><trkpt lat="43.103252983376464" lon="11.43645647039741"><ele>134.0</ele><time>2026-05-02T09:54:45.002Z</time></trkpt><trkpt lat="43.10311675625849" lon="11.43626285293845"><ele>134.0</ele><time>2026-05-02T09:54:46.002Z</time></trkpt><trkpt lat="43.102986289418126" lon="11.436077422471085"><ele>134.66666666666666</ele><time>2026-05-02T09:54:47.002Z</time></trkpt><trkpt lat="43.102859805898596" lon="11.435900785180074"><ele>135.33333333333334</ele><time>2026-05-02T09:54:48.002Z</time></trkpt><trkpt lat="43.10271766871643" lon="11.43575997943818"><ele>136.0</ele><time>2026-05-02T09:54:49.002Z</time></trkpt><trkpt lat="43.10260770953213" lon="11.435608981681545"><ele>136.0</ele><time>2026-05-02T09:54:50.002Z</time></trkpt><trkpt lat="43.10250661207377" lon="11.435461235831047"><ele>136.0</ele><time>2026-05-02T09:54:51.002Z</time></trkpt><trkpt lat="43.102413554972365" lon="11.435319963394875"><ele>136.0</ele><time>2026-05-02T09:54:52.002Z</time></trkpt><trkpt lat="43.102332988005294" lon="11.435178659200917"><ele>136.0</ele><time>2026-05-02T09:54:53.002Z</time></trkpt><trkpt lat="43.102258199192484" lon="11.43503807406984"><ele>136.6</ele><time>2026-05-02T09:54:54.002Z</time></trkpt><trkpt lat="43.102202228822925" lon="11.434901911736672"><ele>137.2</ele><time>2026-05-02T09:54:55.002Z</time></trkpt><trkpt lat="43.10217533908136" lon="11.434766265393185"><ele>137.8</ele><time>2026-05-02T09:54:56.002Z</time></trkpt><trkpt lat="43.10217724082598" lon="11.434628033669053"><ele>138.4</ele><time>2026-05-02T09:54:57.002Z</time></trkpt><trkpt lat="43.10219405506002" lon="11.434469284120292"><ele>139.0</ele><time>2026-05-02T09:54:58.002Z</time></trkpt><trkpt lat="43.10222432395998" lon="11.434346183774926"><ele>140.5</ele><time>2026-05-02T09:54:59.002Z</time></trkpt><trkpt lat="43.10225356574456" lon="11.434202894982503"><ele>142.0</ele><time>2026-05-02T09:55:00.002Z</time></trkpt><trkpt lat="43.10227948486836" lon="11.434031935513548"><ele>143.5</ele><time>2026-05-02T09:55:01.002Z</time></trkpt><trkpt lat="43.102310970254166" lon="11.433834630342067"><ele>145.0</ele><time>2026-05-02T09:55:02.002Z</time></trkpt><trkpt lat="43.10232832536508" lon="11.433647284175244"><ele>146.25</ele><time>2026-05-02T09:55:03.002Z</time></trkpt><trkpt lat="43.10233368705208" lon="11.433488609178038"><ele>147.5</ele><time>2026-05-02T09:55:04.002Z</time></trkpt><trkpt lat="43.10232548266117" lon="11.43333806897611"><ele>148.75</ele><time>2026-05-02T09:55:05.002Z</time></trkpt><trkpt lat="43.10229669812571" lon="11.433166603082737"><ele>150.0</ele><time>2026-05-02T09:55:06.003Z</time></trkpt><trkpt lat="43.102260084465435" lon="11.432981864951017"><ele>149.0</ele><time>2026-05-02T09:55:07.003Z</time></trkpt><trkpt lat="43.10221463566852" lon="11.432835875208317"><ele>148.0</ele><time>2026-05-02T09:55:08.003Z</time></trkpt><trkpt lat="43.10217361764008" lon="11.432688612831692"><ele>147.0</ele><time>2026-05-02T09:55:09.003Z</time></trkpt><trkpt lat="43.10207649717616" lon="11.432578824503233"><ele>146.0</ele><time>2026-05-02T09:55:10.003Z</time></trkpt><trkpt lat="43.101964985219624" lon="11.432508310329844"><ele>146.0</ele><time>2026-05-02T09:55:11.003Z</time></trkpt><trkpt lat="43.10184603956091" lon="11.43245996157721"><ele>146.0</ele><time>2026-05-02T09:55:12.003Z</time></trkpt><trkpt lat="43.10170553788776" lon="11.4324338804005"><ele>146.0</ele><time>2026-05-02T09:55:13.003Z</time></trkpt><trkpt lat="43.101539840942685" lon="11.432436073273495"><ele>146.0</ele><time>2026-05-02T09:55:14.003Z</time></trkpt><trkpt lat="43.10137362084399" lon="11.432396738638388"><ele>148.0</ele><time>2026-05-02T09:55:15.003Z</time></trkpt><trkpt lat="43.1012081621028" lon="11.432382196243736"><ele>150.0</ele><time>2026-05-02T09:55:16.003Z</time></trkpt><trkpt lat="43.10104672055157" lon="11.432368389539603"><ele>152.0</ele><time>2026-05-02T09:55:17.003Z</time></trkpt><trkpt lat="43.1008805382011" lon="11.432356634417264"><ele>154.0</ele><time>2026-05-02T09:55:18.003Z</time></trkpt><trkpt lat="43.100705093470246" lon="11.432345805915686"><ele>156.0</ele><time>2026-05-02T09:55:19.003Z</time></trkpt><trkpt lat="43.10052444277508" lon="11.432331290555979"><ele>158.0</ele><time>2026-05-02T09:55:20.003Z</time></trkpt><trkpt lat="43.10034022083205" lon="11.432315187316336"><ele>158.0</ele><time>2026-05-02T09:55:21Z</time></trkpt><trkpt lat="43.100161727873534" lon="11.432295859581524"><ele>158.0</ele><time>2026-05-02T09:55:22Z</time></trkpt><trkpt lat="43.09997862492341" lon="11.43227566315716"><ele>158.0</ele><time>2026-05-02T09:55:23Z</time></trkpt><trkpt lat="43.09979941232665" lon="11.432258990866224"><ele>159.0</ele><time>2026-05-02T09:55:24Z</time></trkpt><trkpt lat="43.09960820827659" lon="11.432242021929833"><ele>160.0</ele><time>2026-05-02T09:55:25Z</time></trkpt><trkpt lat="43.0994230012668" lon="11.432225585227268"><ele>161.0</ele><time>2026-05-02T09:55:26Z</time></trkpt><trkpt lat="43.09923626292442" lon="11.432231442708444"><ele>159.66666666666666</ele><time>2026-05-02T09:55:27Z</time></trkpt><trkpt lat="43.09905229675658" lon="11.43218897358447"><ele>158.33333333333334</ele><time>2026-05-02T09:55:28Z</time></trkpt><trkpt lat="43.09887847504142" lon="11.432165278013464"><ele>157.0</ele><time>2026-05-02T09:55:29Z</time></trkpt><trkpt lat="43.09871477041984" lon="11.432134239687699"><ele>160.33333333333334</ele><time>2026-05-02T09:55:30Z</time></trkpt><trkpt lat="43.09855622762314" lon="11.432058959082575"><ele>163.66666666666666</ele><time>2026-05-02T09:55:31Z</time></trkpt><trkpt lat="43.098420679445915" lon="11.431955126262432"><ele>167.0</ele><time>2026-05-02T09:55:32Z</time></trkpt><trkpt lat="43.098286765406755" lon="11.43184205287854"><ele>165.66666666666666</ele><time>2026-05-02T09:55:33Z</time></trkpt><trkpt lat="43.098153974064786" lon="11.431726642579259"><ele>164.33333333333334</ele><time>2026-05-02T09:55:34Z</time></trkpt><trkpt lat="43.09801931315389" lon="11.431612284268258"><ele>163.0</ele><time>2026-05-02T09:55:35Z</time></trkpt><trkpt lat="43.09787980114991" lon="11.431501663489485"><ele>163.0</ele><time>2026-05-02T09:55:36Z</time></trkpt><trkpt lat="43.09773869039113" lon="11.431387763373365"><ele>163.0</ele><time>2026-05-02T09:55:37Z</time></trkpt><trkpt lat="43.097610206868474" lon="11.43127900298524"><ele>163.0</ele><time>2026-05-02T09:55:38Z</time></trkpt><trkpt lat="43.097500674138175" lon="11.431182584519632"><ele>163.0</ele><time>2026-05-02T09:55:39Z</time></trkpt><trkpt lat="43.09740020396364" lon="11.431093780367672"><ele>164.0</ele><time>2026-05-02T09:55:40Z</time></trkpt><trkpt lat="43.09730084942768" lon="11.43101215048882"><ele>165.0</ele><time>2026-05-02T09:55:41Z</time></trkpt><trkpt lat="43.097187796262524" lon="11.430923049888484"><ele>166.0</ele><time>2026-05-02T09:55:42Z</time></trkpt><trkpt lat="43.097070185148375" lon="11.430857483343457"><ele>167.0</ele><time>2026-05-02T09:55:43Z</time></trkpt><trkpt lat="43.09695527357387" lon="11.43075481819219"><ele>167.0</ele><time>2026-05-02T09:55:44Z</time></trkpt><trkpt lat="43.09683584238805" lon="11.430652481345941"><ele>167.0</ele><time>2026-05-02T09:55:45Z</time></trkpt><trkpt lat="43.09671922891459" lon="11.430537146020184"><ele>167.0</ele><time>2026-05-02T09:55:46Z</time></trkpt><trkpt lat="43.09660037915362" lon="11.430405470447468"><ele>167.0</ele><time>2026-05-02T09:55:47Z</time></trkpt><trkpt lat="43.0964950177227" lon="11.430242965817714"><ele>168.0</ele><time>2026-05-02T09:55:48Z</time></trkpt><trkpt lat="43.096375775351945" lon="11.430118238818135"><ele>169.0</ele><time>2026-05-02T09:55:49Z</time></trkpt><trkpt lat="43.09627189320333" lon="11.429982868446217"><ele>170.0</ele><time>2026-05-02T09:55:50Z</time></trkpt><trkpt lat="43.09617215574139" lon="11.429849039197135"><ele>171.0</ele><time>2026-05-02T09:55:51Z</time></trkpt><trkpt lat="43.096071736506495" lon="11.429728100987493"><ele>172.33333333333334</ele><time>2026-05-02T09:55:52Z</time></trkpt><trkpt lat="43.095952436416624" lon="11.429604876282212"><ele>173.66666666666669</ele><time>2026-05-02T09:55:53Z</time></trkpt><trkpt lat="43.09581150182415" lon="11.429499013002507"><ele>175.0</ele><time>2026-05-02T09:55:54Z</time></trkpt><trkpt lat="43.09567389812469" lon="11.42940650600008"><ele>176.0</ele><time>2026-05-02T09:55:55Z</time></trkpt><trkpt lat="43.095542599237575" lon="11.429294477964008"><ele>177.0</ele><time>2026-05-02T09:55:56.001Z</time></trkpt><trkpt lat="43.09541227583127" lon="11.429199922364273"><ele>178.0</ele><time>2026-05-02T09:55:57.001Z</time></trkpt><trkpt lat="43.09527770302975" lon="11.429123725808683"><ele>179.0</ele><time>2026-05-02T09:55:58.001Z</time></trkpt><trkpt lat="43.095147103223496" lon="11.429004930155575"><ele>179.0</ele><time>2026-05-02T09:55:59.001Z</time></trkpt><trkpt lat="43.09498563368133" lon="11.428911393727986"><ele>179.0</ele><time>2026-05-02T09:56:00.001Z</time></trkpt><trkpt lat="43.09481794771576" lon="11.428785786587001"><ele>179.0</ele><time>2026-05-02T09:56:01.001Z</time></trkpt><trkpt lat="43.09465685396249" lon="11.428654255294594"><ele>181.33333333333331</ele><time>2026-05-02T09:56:02.001Z</time></trkpt><trkpt lat="43.09446591572758" lon="11.428538799940315"><ele>183.66666666666666</ele><time>2026-05-02T09:56:03.001Z</time></trkpt><trkpt lat="43.0942759314918" lon="11.42839435362315"><ele>186.0</ele><time>2026-05-02T09:56:04.001Z</time></trkpt><trkpt lat="43.094107150552816" lon="11.428250068452828"><ele>186.66666666666666</ele><time>2026-05-02T09:56:05.001Z</time></trkpt><trkpt lat="43.09394700488167" lon="11.428134841280169"><ele>187.33333333333331</ele><time>2026-05-02T09:56:06.001Z</time></trkpt><trkpt lat="43.093787528991626" lon="11.428021463897798"><ele>188.0</ele><time>2026-05-02T09:56:07.001Z</time></trkpt><trkpt lat="43.093626049664145" lon="11.427928667354383"><ele>189.0</ele><time>2026-05-02T09:56:08.001Z</time></trkpt><trkpt lat="43.09348617759958" lon="11.427822717616573"><ele>190.0</ele><time>2026-05-02T09:56:09.001Z</time></trkpt><trkpt lat="43.09335198215003" lon="11.427725345045523"><ele>191.0</ele><time>2026-05-02T09:56:10.001Z</time></trkpt><trkpt lat="43.09323060450432" lon="11.427619228785284"><ele>191.75</ele><time>2026-05-02T09:56:11.001Z</time></trkpt><trkpt lat="43.09309802559124" lon="11.427549292836956"><ele>192.5</ele><time>2026-05-02T09:56:12.001Z</time></trkpt><trkpt lat="43.09297637890281" lon="11.427456528291208"><ele>193.25</ele><time>2026-05-02T09:56:13.001Z</time></trkpt><trkpt lat="43.092854201999224" lon="11.427362778084944"><ele>194.0</ele><time>2026-05-02T09:56:14.001Z</time></trkpt><trkpt lat="43.092730763259766" lon="11.42726876866077"><ele>194.0</ele><time>2026-05-02T09:56:15.001Z</time></trkpt><trkpt lat="43.09260906134973" lon="11.427179216411814"><ele>194.0</ele><time>2026-05-02T09:56:16.001Z</time></trkpt><trkpt lat="43.09249189897219" lon="11.427099825280344"><ele>194.0</ele><time>2026-05-02T09:56:17.001Z</time></trkpt><trkpt lat="43.09238381466156" lon="11.427024318511652"><ele>194.0</ele><time>2026-05-02T09:56:18.001Z</time></trkpt><trkpt lat="43.09228075367911" lon="11.426942616600513"><ele>195.5</ele><time>2026-05-02T09:56:19.001Z</time></trkpt><trkpt lat="43.092178842137116" lon="11.426867101101616"><ele>197.0</ele><time>2026-05-02T09:56:20.001Z</time></trkpt><trkpt lat="43.09207972602839" lon="11.426794436640652"><ele>198.5</ele><time>2026-05-02T09:56:21.001Z</time></trkpt><trkpt lat="43.09197681585868" lon="11.426722500676965"><ele>200.0</ele><time>2026-05-02T09:56:22.001Z</time></trkpt><trkpt lat="43.091870596243595" lon="11.42664326901242"><ele>200.0</ele><time>2026-05-02T09:56:23.001Z</time></trkpt><trkpt lat="43.09176219738168" lon="11.426561726539415"><ele>200.0</ele><time>2026-05-02T09:56:24.001Z</time></trkpt><trkpt lat="43.091640266099674" lon="11.426473650231918"><ele>200.0</ele><time>2026-05-02T09:56:25.001Z</time></trkpt><trkpt lat="43.091507758827966" lon="11.426370447614136"><ele>200.0</ele><time>2026-05-02T09:56:26.001Z</time></trkpt><trkpt lat="43.09137095909251" lon="11.426261448825233"><ele>201.0</ele><time>2026-05-02T09:56:27.001Z</time></trkpt><trkpt lat="43.091234795913905" lon="11.426149333590121"><ele>202.0</ele><time>2026-05-02T09:56:28.001Z</time></trkpt><trkpt lat="43.09109852743985" lon="11.426065996258634"><ele>203.0</ele><time>2026-05-02T09:56:29.001Z</time></trkpt><trkpt lat="43.09096112453461" lon="11.42597811863892"><ele>203.0</ele><time>2026-05-02T09:56:30.001Z</time></trkpt><trkpt lat="43.09081748274346" lon="11.425920673832673"><ele>203.0</ele><time>2026-05-02T09:56:31.002Z</time></trkpt><trkpt lat="43.0906649611451" lon="11.425890605235484"><ele>203.0</ele><time>2026-05-02T09:56:32.002Z</time></trkpt><trkpt lat="43.09050100602413" lon="11.425848166393378"><ele>205.0</ele><time>2026-05-02T09:56:33.002Z</time></trkpt><trkpt lat="43.09033785273033" lon="11.425809660458714"><ele>207.0</ele><time>2026-05-02T09:56:34.002Z</time></trkpt><trkpt lat="43.090172274510095" lon="11.42574606965967"><ele>209.0</ele><time>2026-05-02T09:56:35.002Z</time></trkpt><trkpt lat="43.09000538562851" lon="11.425700623445744"><ele>210.25</ele><time>2026-05-02T09:56:36.002Z</time></trkpt><trkpt lat="43.089857480853524" lon="11.425660346870835"><ele>211.5</ele><time>2026-05-02T09:56:37.002Z</time></trkpt><trkpt lat="43.08973094646269" lon="11.425625741740541"><ele>212.75</ele><time>2026-05-02T09:56:38.002Z</time></trkpt><trkpt lat="43.0896083463259" lon="11.4255932734542"><ele>214.0</ele><time>2026-05-02T09:56:39.002Z</time></trkpt><trkpt lat="43.089460092317665" lon="11.425556613152867"><ele>214.0</ele><time>2026-05-02T09:56:40.002Z</time></trkpt><trkpt lat="43.08930062872911" lon="11.425515137661929"><ele>214.0</ele><time>2026-05-02T09:56:41.002Z</time></trkpt><trkpt lat="43.089150329615165" lon="11.425475549179898"><ele>214.0</ele><time>2026-05-02T09:56:42.002Z</time></trkpt><trkpt lat="43.089051756425775" lon="11.425391217155031"><ele>214.0</ele><time>2026-05-02T09:56:43.002Z</time></trkpt><trkpt lat="43.08897822260075" lon="11.425323102826948"><ele>219.2</ele><time>2026-05-02T09:56:44.002Z</time></trkpt><trkpt lat="43.088949661300965" lon="11.425218767408277"><ele>224.39999999999998</ele><time>2026-05-02T09:56:45.002Z</time></trkpt><trkpt lat="43.08893932662258" lon="11.425102372526691"><ele>229.6</ele><time>2026-05-02T09:56:46.002Z</time></trkpt><trkpt lat="43.08894999132747" lon="11.424968509402078"><ele>234.8</ele><time>2026-05-02T09:56:47.002Z</time></trkpt><trkpt lat="43.088963689893184" lon="11.424839666614739"><ele>240.0</ele><time>2026-05-02T09:56:48.002Z</time></trkpt><trkpt lat="43.08898527361798" lon="11.424682851151328"><ele>237.0</ele><time>2026-05-02T09:56:49.002Z</time></trkpt><trkpt lat="43.089020890882715" lon="11.424490478345735"><ele>234.0</ele><time>2026-05-02T09:56:50.002Z</time></trkpt><trkpt lat="43.089049615992444" lon="11.424269914570388"><ele>231.0</ele><time>2026-05-02T09:56:51.002Z</time></trkpt><trkpt lat="43.08909540690268" lon="11.424042217534819"><ele>231.0</ele><time>2026-05-02T09:56:52.002Z</time></trkpt><trkpt lat="43.0891461123589" lon="11.423832134733223"><ele>231.0</ele><time>2026-05-02T09:56:53.002Z</time></trkpt><trkpt lat="43.089172232894256" lon="11.423663918650849"><ele>231.0</ele><time>2026-05-02T09:56:54.002Z</time></trkpt><trkpt lat="43.089171825075994" lon="11.423520377892643"><ele>231.0</ele><time>2026-05-02T09:56:55.002Z</time></trkpt><trkpt lat="43.08919006347759" lon="11.4233938355464"><ele>232.75</ele><time>2026-05-02T09:56:56.002Z</time></trkpt><trkpt lat="43.0891699011114" lon="11.423251588866155"><ele>234.5</ele><time>2026-05-02T09:56:57.002Z</time></trkpt><trkpt lat="43.089116497541475" lon="11.42311292551505"><ele>236.25</ele><time>2026-05-02T09:56:58.002Z</time></trkpt><trkpt lat="43.08906085530837" lon="11.422960388956305"><ele>238.0</ele><time>2026-05-02T09:56:59.002Z</time></trkpt><trkpt lat="43.089000314144336" lon="11.422802400290493"><ele>242.75</ele><time>2026-05-02T09:57:00.002Z</time></trkpt><trkpt lat="43.08894594069677" lon="11.422631010485503"><ele>247.5</ele><time>2026-05-02T09:57:01.002Z</time></trkpt><trkpt lat="43.088884617379506" lon="11.422467009368807"><ele>252.25</ele><time>2026-05-02T09:57:02.002Z</time></trkpt><trkpt lat="43.08881996646268" lon="11.422295987096428"><ele>257.0</ele><time>2026-05-02T09:57:03.002Z</time></trkpt><trkpt lat="43.08875539159935" lon="11.422137679766315"><ele>257.0</ele><time>2026-05-02T09:57:04.002Z</time></trkpt><trkpt lat="43.08868656963879" lon="11.422004556992357"><ele>257.0</ele><time>2026-05-02T09:57:05.002Z</time></trkpt><trkpt lat="43.08863943706829" lon="11.421890210869046"><ele>257.0</ele><time>2026-05-02T09:57:06.002Z</time></trkpt><trkpt lat="43.08858083637074" lon="11.421790062830693"><ele>257.0</ele><time>2026-05-02T09:57:07.002Z</time></trkpt><trkpt lat="43.088514263347534" lon="11.421733826690591"><ele>257.0</ele><time>2026-05-02T09:57:08.003Z</time></trkpt><trkpt lat="43.08843072670513" lon="11.421666729991502"><ele>257.0</ele><time>2026-05-02T09:57:09.003Z</time></trkpt><trkpt lat="43.08833654294463" lon="11.421647292943737"><ele>257.0</ele><time>2026-05-02T09:57:10.003Z</time></trkpt><trkpt lat="43.0882683294708" lon="11.421680390910208"><ele>257.0</ele><time>2026-05-02T09:57:11.003Z</time></trkpt><trkpt lat="43.08817151915722" lon="11.421838550364674"><ele>257.0</ele><time>2026-05-02T09:57:13.003Z</time></trkpt><trkpt lat="43.088133541050546" lon="11.421940646653697"><ele>257.0</ele><time>2026-05-02T09:57:14.003Z</time></trkpt><trkpt lat="43.08808279951432" lon="11.422080448987456"><ele>263.25</ele><time>2026-05-02T09:57:15.003Z</time></trkpt><trkpt lat="43.08805158879107" lon="11.422241989728894"><ele>269.5</ele><time>2026-05-02T09:57:16.003Z</time></trkpt><trkpt lat="43.088021849342745" lon="11.422413503660485"><ele>275.75</ele><time>2026-05-02T09:57:17.003Z</time></trkpt><trkpt lat="43.08800147833549" lon="11.42259624349006"><ele>282.0</ele><time>2026-05-02T09:57:18.003Z</time></trkpt><trkpt lat="43.08796115268809" lon="11.42276750024168"><ele>282.0</ele><time>2026-05-02T09:57:19.003Z</time></trkpt><trkpt lat="43.08791416703245" lon="11.422930772681568"><ele>282.0</ele><time>2026-05-02T09:57:20.003Z</time></trkpt><trkpt lat="43.087870719448766" lon="11.423065304663805"><ele>282.0</ele><time>2026-05-02T09:57:21.003Z</time></trkpt><trkpt lat="43.08781861781651" lon="11.423203056013431"><ele>282.0</ele><time>2026-05-02T09:57:22.003Z</time></trkpt><trkpt lat="43.08774551854355" lon="11.423331347274777"><ele>282.1666666666667</ele><time>2026-05-02T09:57:23.003Z</time></trkpt><trkpt lat="43.087706431943474" lon="11.423436593401798"><ele>282.3333333333333</ele><time>2026-05-02T09:57:24.003Z</time></trkpt><trkpt lat="43.087657098148945" lon="11.423501755184176"><ele>282.5</ele><time>2026-05-02T09:57:25.003Z</time></trkpt><trkpt lat="43.08756610853539" lon="11.423505052041785"><ele>282.66666666666663</ele><time>2026-05-02T09:57:27Z</time></trkpt><trkpt lat="43.087487470264996" lon="11.423390123240754"><ele>282.8333333333333</ele><time>2026-05-02T09:57:29Z</time></trkpt><trkpt lat="43.087479055440376" lon="11.423290990954554"><ele>283.0</ele><time>2026-05-02T09:57:30Z</time></trkpt><trkpt lat="43.087457212164736" lon="11.423163295552344"><ele>288.4</ele><time>2026-05-02T09:57:31Z</time></trkpt><trkpt lat="43.08742707692646" lon="11.422996230954674"><ele>293.8</ele><time>2026-05-02T09:57:32Z</time></trkpt><trkpt lat="43.08740105502719" lon="11.422849361062223"><ele>299.2</ele><time>2026-05-02T09:57:33Z</time></trkpt><trkpt lat="43.08737881026973" lon="11.422729336573703"><ele>304.6</ele><time>2026-05-02T09:57:34Z</time></trkpt><trkpt lat="43.08733036669865" lon="11.422600637674302"><ele>310.0</ele><time>2026-05-02T09:57:36Z</time></trkpt><trkpt lat="43.08720244468755" lon="11.422597185589414"><ele>310.0</ele><time>2026-05-02T09:57:38Z</time></trkpt><trkpt lat="43.0871567301571" lon="11.42268459451433"><ele>310.0</ele><time>2026-05-02T09:57:39Z</time></trkpt><trkpt lat="43.08710750856264" lon="11.422871828059257"><ele>310.0</ele><time>2026-05-02T09:57:41Z</time></trkpt><trkpt lat="43.087084269056255" lon="11.423034768703284"><ele>310.0</ele><time>2026-05-02T09:57:42Z</time></trkpt><trkpt lat="43.087055535671254" lon="11.423202695564584"><ele>310.0</ele><time>2026-05-02T09:57:43Z</time></trkpt><trkpt lat="43.087025435414226" lon="11.423364083713839"><ele>310.0</ele><time>2026-05-02T09:57:44Z</time></trkpt><trkpt lat="43.08699155023511" lon="11.423505976683284"><ele>310.0</ele><time>2026-05-02T09:57:45Z</time></trkpt><trkpt lat="43.08696198998681" lon="11.423616687783797"><ele>310.0</ele><time>2026-05-02T09:57:46Z</time></trkpt><trkpt lat="43.08692425833037" lon="11.42372085084427"><ele>310.0</ele><time>2026-05-02T09:57:47Z</time></trkpt><trkpt lat="43.08687964853232" lon="11.423821379041069"><ele>311.3333333333333</ele><time>2026-05-02T09:57:48Z</time></trkpt><trkpt lat="43.08681246905476" lon="11.42386856396115"><ele>312.66666666666663</ele><time>2026-05-02T09:57:49Z</time></trkpt><trkpt lat="43.086731485830526" lon="11.42386411002861"><ele>314.0</ele><time>2026-05-02T09:57:50Z</time></trkpt><trkpt lat="43.08665622552417" lon="11.423853879609787"><ele>315.3333333333333</ele><time>2026-05-02T09:57:51Z</time></trkpt><trkpt lat="43.086577501108174" lon="11.423817358331164"><ele>316.6666666666667</ele><time>2026-05-02T09:57:52Z</time></trkpt><trkpt lat="43.08650595704744" lon="11.423762794731381"><ele>318.0</ele><time>2026-05-02T09:57:53Z</time></trkpt><trkpt lat="43.08644521236759" lon="11.423695631095816"><ele>320.2</ele><time>2026-05-02T09:57:54Z</time></trkpt><trkpt lat="43.086405153631944" lon="11.423617488776644"><ele>322.4</ele><time>2026-05-02T09:57:55Z</time></trkpt><trkpt lat="43.086378995772904" lon="11.423463211583885"><ele>324.59999999999997</ele><time>2026-05-02T09:57:57.001Z</time></trkpt><trkpt lat="43.0864073562809" lon="11.423381164951696"><ele>326.8</ele><time>2026-05-02T09:57:58.001Z</time></trkpt><trkpt lat="43.08645781489072" lon="11.423269903125433"><ele>329.0</ele><time>2026-05-02T09:57:59.001Z</time></trkpt><trkpt lat="43.0865082323006" lon="11.423131836081437"><ele>329.0</ele><time>2026-05-02T09:58:00.001Z</time></trkpt><trkpt lat="43.08653593080782" lon="11.422986525335544"><ele>329.0</ele><time>2026-05-02T09:58:01.001Z</time></trkpt><trkpt lat="43.08653916160463" lon="11.42287173106082"><ele>329.0</ele><time>2026-05-02T09:58:02.001Z</time></trkpt><trkpt lat="43.0865152386641" lon="11.422764872171944"><ele>329.0</ele><time>2026-05-02T09:58:03.001Z</time></trkpt><trkpt lat="43.08647790012023" lon="11.422685696280901"><ele>329.0</ele><time>2026-05-02T09:58:04.001Z</time></trkpt><trkpt lat="43.086431128249366" lon="11.422604866408502"><ele>329.0</ele><time>2026-05-02T09:58:05.001Z</time></trkpt><trkpt lat="43.08634715232623" lon="11.422596229391077"><ele>329.0</ele><time>2026-05-02T09:58:06.001Z</time></trkpt><trkpt lat="43.086271676721005" lon="11.422583202433685"><ele>329.0</ele><time>2026-05-02T09:58:07.001Z</time></trkpt><trkpt lat="43.08620379507364" lon="11.422666077847317"><ele>329.0</ele><time>2026-05-02T09:58:08.001Z</time></trkpt><trkpt lat="43.08615125004111" lon="11.42276380787605"><ele>329.0</ele><time>2026-05-02T09:58:09.001Z</time></trkpt><trkpt lat="43.08610079764942" lon="11.422887020737615"><ele>329.0</ele><time>2026-05-02T09:58:10.001Z</time></trkpt><trkpt lat="43.086038740324234" lon="11.423028707375193"><ele>329.0</ele><time>2026-05-02T09:58:11.001Z</time></trkpt><trkpt lat="43.08596577833315" lon="11.423160209422411"><ele>329.0</ele><time>2026-05-02T09:58:12.001Z</time></trkpt><trkpt lat="43.08589313439201" lon="11.423254079309698"><ele>329.0</ele><time>2026-05-02T09:58:13.001Z</time></trkpt><trkpt lat="43.08581983427042" lon="11.423287754874668"><ele>329.0</ele><time>2026-05-02T09:58:14.001Z</time></trkpt><trkpt lat="43.0857460814053" lon="11.423306050155878"><ele>329.0</ele><time>2026-05-02T09:58:15.001Z</time></trkpt><trkpt lat="43.08566876659325" lon="11.423261485707199"><ele>333.0</ele><time>2026-05-02T09:58:16.001Z</time></trkpt><trkpt lat="43.08562397292129" lon="11.423151828344299"><ele>337.0</ele><time>2026-05-02T09:58:17.001Z</time></trkpt><trkpt lat="43.0855700672356" lon="11.423017968080808"><ele>341.0</ele><time>2026-05-02T09:58:18.001Z</time></trkpt><trkpt lat="43.08551808744521" lon="11.42283682959862"><ele>345.0</ele><time>2026-05-02T09:58:19.001Z</time></trkpt><trkpt lat="43.08547306723445" lon="11.422626008454339"><ele>346.3333333333333</ele><time>2026-05-02T09:58:20.001Z</time></trkpt><trkpt lat="43.085420129904186" lon="11.422395786444593"><ele>347.66666666666663</ele><time>2026-05-02T09:58:21.001Z</time></trkpt><trkpt lat="43.08536914783481" lon="11.42219873144153"><ele>349.0</ele><time>2026-05-02T09:58:22.001Z</time></trkpt><trkpt lat="43.08529191095362" lon="11.422060144174498"><ele>348.0</ele><time>2026-05-02T09:58:23.001Z</time></trkpt><trkpt lat="43.08522371546378" lon="11.421938520520621"><ele>347.0</ele><time>2026-05-02T09:58:24.001Z</time></trkpt><trkpt lat="43.08513619727823" lon="11.421840356974403"><ele>346.0</ele><time>2026-05-02T09:58:25.001Z</time></trkpt><trkpt lat="43.08502997563208" lon="11.421766780920322"><ele>345.0</ele><time>2026-05-02T09:58:26.001Z</time></trkpt><trkpt lat="43.08489676233179" lon="11.421705968123955"><ele>345.0</ele><time>2026-05-02T09:58:27.001Z</time></trkpt><trkpt lat="43.08475816886233" lon="11.421652046957536"><ele>345.0</ele><time>2026-05-02T09:58:28.001Z</time></trkpt><trkpt lat="43.08460893776554" lon="11.42156651913248"><ele>345.0</ele><time>2026-05-02T09:58:29.001Z</time></trkpt><trkpt lat="43.08445569346348" lon="11.421505661580166"><ele>345.0</ele><time>2026-05-02T09:58:30.001Z</time></trkpt><trkpt lat="43.08430480328849" lon="11.421443812423194"><ele>345.0</ele><time>2026-05-02T09:58:31.001Z</time></trkpt><trkpt lat="43.084180685447" lon="11.421321349020381"><ele>345.0</ele><time>2026-05-02T09:58:32.001Z</time></trkpt><trkpt lat="43.084045018640744" lon="11.421210106259755"><ele>345.6666666666667</ele><time>2026-05-02T09:58:33.002Z</time></trkpt><trkpt lat="43.08389877736755" lon="11.421122661350925"><ele>346.33333333333337</ele><time>2026-05-02T09:58:34.002Z</time></trkpt><trkpt lat="43.083740716309755" lon="11.421010459894303"><ele>347.0</ele><time>2026-05-02T09:58:35.002Z</time></trkpt><trkpt lat="43.08357250862516" lon="11.42093227688764"><ele>347.0</ele><time>2026-05-02T09:58:36.002Z</time></trkpt><trkpt lat="43.08339385484097" lon="11.420870928214056"><ele>347.0</ele><time>2026-05-02T09:58:37.002Z</time></trkpt><trkpt lat="43.08323366727295" lon="11.420797344568745"><ele>347.0</ele><time>2026-05-02T09:58:38.002Z</time></trkpt><trkpt lat="43.08307704820397" lon="11.420746077474613"><ele>349.6666666666667</ele><time>2026-05-02T09:58:39.002Z</time></trkpt><trkpt lat="43.08292033247684" lon="11.4206980197037"><ele>352.3333333333333</ele><time>2026-05-02T09:58:40.002Z</time></trkpt><trkpt lat="43.082760573490646" lon="11.420673442089942"><ele>355.0</ele><time>2026-05-02T09:58:41.002Z</time></trkpt><trkpt lat="43.082613778150474" lon="11.420624851519706"><ele>355.0</ele><time>2026-05-02T09:58:42.002Z</time></trkpt><trkpt lat="43.082474025706745" lon="11.420587919314551"><ele>355.0</ele><time>2026-05-02T09:58:43.002Z</time></trkpt><trkpt lat="43.08233768184285" lon="11.420568614646836"><ele>355.0</ele><time>2026-05-02T09:58:44.002Z</time></trkpt><trkpt lat="43.082197709719246" lon="11.420549501559595"><ele>355.0</ele><time>2026-05-02T09:58:45.002Z</time></trkpt><trkpt lat="43.08205038334963" lon="11.420546715653527"><ele>354.75</ele><time>2026-05-02T09:58:46.002Z</time></trkpt><trkpt lat="43.081904991076485" lon="11.420538539190897"><ele>354.5</ele><time>2026-05-02T09:58:47.002Z</time></trkpt><trkpt lat="43.081770522711025" lon="11.420488559122676"><ele>354.25</ele><time>2026-05-02T09:58:48.002Z</time></trkpt><trkpt lat="43.08164830559923" lon="11.420365897118765"><ele>354.0</ele><time>2026-05-02T09:58:49.002Z</time></trkpt><trkpt lat="43.08152515803428" lon="11.420236510277345"><ele>358.0</ele><time>2026-05-02T09:58:50.002Z</time></trkpt><trkpt lat="43.08140833121908" lon="11.420084458058561"><ele>362.0</ele><time>2026-05-02T09:58:51.002Z</time></trkpt><trkpt lat="43.08130897534945" lon="11.41992016024342"><ele>366.0</ele><time>2026-05-02T09:58:52.002Z</time></trkpt><trkpt lat="43.081244394672396" lon="11.419788323425394"><ele>370.0</ele><time>2026-05-02T09:58:53.002Z</time></trkpt><trkpt lat="43.08117814659346" lon="11.419681468704677"><ele>369.0</ele><time>2026-05-02T09:58:54.002Z</time></trkpt><trkpt lat="43.081081604139186" lon="11.419577081661886"><ele>368.0</ele><time>2026-05-02T09:58:55.002Z</time></trkpt><trkpt lat="43.08097292368705" lon="11.41949914745989"><ele>367.0</ele><time>2026-05-02T09:58:56.002Z</time></trkpt><trkpt lat="43.08086933495434" lon="11.419425104832621"><ele>366.0</ele><time>2026-05-02T09:58:57.002Z</time></trkpt><trkpt lat="43.08076419436707" lon="11.41939184901359"><ele>369.8</ele><time>2026-05-02T09:58:58.002Z</time></trkpt><trkpt lat="43.08065183870754" lon="11.419367745576158"><ele>373.6</ele><time>2026-05-02T09:58:59.002Z</time></trkpt><trkpt lat="43.08054807622336" lon="11.41934630133993"><ele>377.4</ele><time>2026-05-02T09:59:00.002Z</time></trkpt><trkpt lat="43.08044949925832" lon="11.41931829473383"><ele>381.2</ele><time>2026-05-02T09:59:01.002Z</time></trkpt><trkpt lat="43.0803562416374" lon="11.419282434220658"><ele>385.0</ele><time>2026-05-02T09:59:02.002Z</time></trkpt><trkpt lat="43.08028138436115" lon="11.419219669310921"><ele>385.0</ele><time>2026-05-02T09:59:03.002Z</time></trkpt><trkpt lat="43.08023806145623" lon="11.419123570824665"><ele>385.0</ele><time>2026-05-02T09:59:04.002Z</time></trkpt><trkpt lat="43.080178594639506" lon="11.419006401905063"><ele>385.0</ele><time>2026-05-02T09:59:05.002Z</time></trkpt><trkpt lat="43.08012049221062" lon="11.418892585072422"><ele>385.0</ele><time>2026-05-02T09:59:06.002Z</time></trkpt><trkpt lat="43.08004772686752" lon="11.418765388659727"><ele>385.0</ele><time>2026-05-02T09:59:07.002Z</time></trkpt><trkpt lat="43.07996134259605" lon="11.418679476676873"><ele>388.0</ele><time>2026-05-02T09:59:08.002Z</time></trkpt><trkpt lat="43.07984665069625" lon="11.418604835703487"><ele>391.0</ele><time>2026-05-02T09:59:09.002Z</time></trkpt><trkpt lat="43.07972383355478" lon="11.41853628230723"><ele>394.0</ele><time>2026-05-02T09:59:10.003Z</time></trkpt><trkpt lat="43.079604271616525" lon="11.41848019026159"><ele>397.0</ele><time>2026-05-02T09:59:11.003Z</time></trkpt><trkpt lat="43.07948203565664" lon="11.41843167236662"><ele>397.0</ele><time>2026-05-02T09:59:12.003Z</time></trkpt><trkpt lat="43.07936337654951" lon="11.418375012762318"><ele>397.0</ele><time>2026-05-02T09:59:13.003Z</time></trkpt><trkpt lat="43.079245502579695" lon="11.418304521255491"><ele>397.0</ele><time>2026-05-02T09:59:14.003Z</time></trkpt><trkpt lat="43.07914487722705" lon="11.418218458410552"><ele>397.0</ele><time>2026-05-02T09:59:15.003Z</time></trkpt><trkpt lat="43.07906337914196" lon="11.418130092503452"><ele>396.5</ele><time>2026-05-02T09:59:16.003Z</time></trkpt><trkpt lat="43.07897156788771" lon="11.418069065437876"><ele>396.0</ele><time>2026-05-02T09:59:17.003Z</time></trkpt><trkpt lat="43.07886213416599" lon="11.418002459517114"><ele>395.5</ele><time>2026-05-02T09:59:18.003Z</time></trkpt><trkpt lat="43.07873000859588" lon="11.417943108562406"><ele>395.0</ele><time>2026-05-02T09:59:19.003Z</time></trkpt><trkpt lat="43.0785806921313" lon="11.41792427723846"><ele>395.0</ele><time>2026-05-02T09:59:20.003Z</time></trkpt><trkpt lat="43.07842640560405" lon="11.417910700098867"><ele>395.0</ele><time>2026-05-02T09:59:21.003Z</time></trkpt><trkpt lat="43.078281787705635" lon="11.417899178421253"><ele>395.0</ele><time>2026-05-02T09:59:22.003Z</time></trkpt><trkpt lat="43.078159657325685" lon="11.41789076101644"><ele>395.0</ele><time>2026-05-02T09:59:23.003Z</time></trkpt><trkpt lat="43.0780514126938" lon="11.417885397413926"><ele>397.8</ele><time>2026-05-02T09:59:24.003Z</time></trkpt><trkpt lat="43.07794134786215" lon="11.417883199443441"><ele>400.6</ele><time>2026-05-02T09:59:25.003Z</time></trkpt><trkpt lat="43.07784490044431" lon="11.417902138088424"><ele>403.4</ele><time>2026-05-02T09:59:26.003Z</time></trkpt><trkpt lat="43.07774521906985" lon="11.417901087880324"><ele>406.2</ele><time>2026-05-02T09:59:27.003Z</time></trkpt><trkpt lat="43.077635250145256" lon="11.417912088046549"><ele>409.0</ele><time>2026-05-02T09:59:28.003Z</time></trkpt><trkpt lat="43.07752632893447" lon="11.41787721554687"><ele>413.5</ele><time>2026-05-02T09:59:29.003Z</time></trkpt><trkpt lat="43.077417609851054" lon="11.41786467016213"><ele>418.0</ele><time>2026-05-02T09:59:30.003Z</time></trkpt><trkpt lat="43.07732073828282" lon="11.417801281940712"><ele>422.5</ele><time>2026-05-02T09:59:31.003Z</time></trkpt><trkpt lat="43.07719980188164" lon="11.417714791276781"><ele>427.0</ele><time>2026-05-02T09:59:32.003Z</time></trkpt><trkpt lat="43.07708804839055" lon="11.417598577323746"><ele>427.0</ele><time>2026-05-02T09:59:33Z</time></trkpt><trkpt lat="43.07698429268368" lon="11.41753107373986"><ele>427.00000000000006</ele><time>2026-05-02T09:59:34Z</time></trkpt><trkpt lat="43.07692426953419" lon="11.417424002624738"><ele>427.00000000000006</ele><time>2026-05-02T09:59:35Z</time></trkpt><trkpt lat="43.07687473095387" lon="11.417296634341872"><ele>427.0</ele><time>2026-05-02T09:59:36Z</time></trkpt><trkpt lat="43.07683807731737" lon="11.417143342160962"><ele>427.0</ele><time>2026-05-02T09:59:37Z</time></trkpt><trkpt lat="43.0767838099327" lon="11.417022717164766"><ele>427.6</ele><time>2026-05-02T09:59:38Z</time></trkpt><trkpt lat="43.07672657979515" lon="11.416941845352307"><ele>428.20000000000005</ele><time>2026-05-02T09:59:39Z</time></trkpt><trkpt lat="43.07665177658101" lon="11.416891702257209"><ele>428.8</ele><time>2026-05-02T09:59:40Z</time></trkpt><trkpt lat="43.076557775328205" lon="11.416852457329826"><ele>429.4</ele><time>2026-05-02T09:59:41Z</time></trkpt><trkpt lat="43.076448020613405" lon="11.416817835816508"><ele>430.0</ele><time>2026-05-02T09:59:42Z</time></trkpt><trkpt lat="43.076318313013566" lon="11.416791837449185"><ele>430.0</ele><time>2026-05-02T09:59:43Z</time></trkpt><trkpt lat="43.07620163993413" lon="11.416737682890664"><ele>430.0</ele><time>2026-05-02T09:59:44Z</time></trkpt><trkpt lat="43.076095482087794" lon="11.416694335994286"><ele>430.0</ele><time>2026-05-02T09:59:45Z</time></trkpt><trkpt lat="43.075993116820705" lon="11.416630490925604"><ele>430.0</ele><time>2026-05-02T09:59:46Z</time></trkpt><trkpt lat="43.075871191374056" lon="11.416561297652533"><ele>431.0</ele><time>2026-05-02T09:59:47Z</time></trkpt><trkpt lat="43.0757507390233" lon="11.416464337169783"><ele>432.0</ele><time>2026-05-02T09:59:48Z</time></trkpt><trkpt lat="43.07562528861283" lon="11.416366875431287"><ele>433.0</ele><time>2026-05-02T09:59:49Z</time></trkpt><trkpt lat="43.07550037628665" lon="11.416268557319746"><ele>434.0</ele><time>2026-05-02T09:59:50Z</time></trkpt><trkpt lat="43.075371037916554" lon="11.416170142703356"><ele>434.25</ele><time>2026-05-02T09:59:51Z</time></trkpt><trkpt lat="43.07525185050291" lon="11.416069026644639"><ele>434.5</ele><time>2026-05-02T09:59:52Z</time></trkpt><trkpt lat="43.07513226487929" lon="11.415992218238843"><ele>434.75</ele><time>2026-05-02T09:59:53Z</time></trkpt><trkpt lat="43.075013824283566" lon="11.415911718917636"><ele>435.0</ele><time>2026-05-02T09:59:54Z</time></trkpt><trkpt lat="43.074886672164034" lon="11.41585064318037"><ele>436.25</ele><time>2026-05-02T09:59:55Z</time></trkpt><trkpt lat="43.07474346816133" lon="11.415800771816249"><ele>437.5</ele><time>2026-05-02T09:59:56Z</time></trkpt><trkpt lat="43.07461162151633" lon="11.415762480616586"><ele>438.75</ele><time>2026-05-02T09:59:57Z</time></trkpt><trkpt lat="43.07450523853865" lon="11.415740393012076"><ele>440.0</ele><time>2026-05-02T09:59:58Z</time></trkpt><trkpt lat="43.07443714731448" lon="11.415713245421754"><ele>439.99999999999994</ele><time>2026-05-02T09:59:59Z</time></trkpt><trkpt lat="43.07439615017835" lon="11.415633884470905"><ele>440.0</ele><time>2026-05-02T10:00:00Z</time></trkpt><trkpt lat="43.07435187802666" lon="11.415554809185288"><ele>440.0</ele><time>2026-05-02T10:00:01Z</time></trkpt><trkpt lat="43.0743311443588" lon="11.415432328082241"><ele>440.0</ele><time>2026-05-02T10:00:02Z</time></trkpt><trkpt lat="43.074337607486505" lon="11.415308465830504"><ele>439.99999999999994</ele><time>2026-05-02T10:00:03Z</time></trkpt><trkpt lat="43.07434705218563" lon="11.415155057979524"><ele>440.0</ele><time>2026-05-02T10:00:04Z</time></trkpt><trkpt lat="43.07432460126886" lon="11.414997255530094"><ele>442.0</ele><time>2026-05-02T10:00:05Z</time></trkpt><trkpt lat="43.07428295704309" lon="11.414817328525986"><ele>444.0</ele><time>2026-05-02T10:00:06Z</time></trkpt><trkpt lat="43.074241756413706" lon="11.41467253435115"><ele>446.0</ele><time>2026-05-02T10:00:07Z</time></trkpt><trkpt lat="43.07420300649008" lon="11.414575542136351"><ele>448.0</ele><time>2026-05-02T10:00:08Z</time></trkpt><trkpt lat="43.0741632310563" lon="11.414503948312667"><ele>450.0</ele><time>2026-05-02T10:00:09.001Z</time></trkpt><trkpt lat="43.0741262533481" lon="11.414428062694032"><ele>453.6</ele><time>2026-05-02T10:00:10.001Z</time></trkpt><trkpt lat="43.07404596909974" lon="11.414372763592436"><ele>457.2</ele><time>2026-05-02T10:00:11.001Z</time></trkpt><trkpt lat="43.07394388457995" lon="11.414376229142281"><ele>460.79999999999995</ele><time>2026-05-02T10:00:12.001Z</time></trkpt><trkpt lat="43.07384792803448" lon="11.414342792876862"><ele>464.4</ele><time>2026-05-02T10:00:13.001Z</time></trkpt><trkpt lat="43.073745338700114" lon="11.41434028180559"><ele>468.0</ele><time>2026-05-02T10:00:14.001Z</time></trkpt><trkpt lat="43.07364222880784" lon="11.414341344637338"><ele>468.0</ele><time>2026-05-02T10:00:15.001Z</time></trkpt><trkpt lat="43.073545265156426" lon="11.414336382442423"><ele>468.0</ele><time>2026-05-02T10:00:16.001Z</time></trkpt><trkpt lat="43.07344600953284" lon="11.414319694571333"><ele>468.0</ele><time>2026-05-02T10:00:17.001Z</time></trkpt><trkpt lat="43.07333451930939" lon="11.41428623075073"><ele>468.0</ele><time>2026-05-02T10:00:18.001Z</time></trkpt><trkpt lat="43.07319822455096" lon="11.414245474802549"><ele>470.25</ele><time>2026-05-02T10:00:19.001Z</time></trkpt><trkpt lat="43.07304580100866" lon="11.414232644790895"><ele>472.5</ele><time>2026-05-02T10:00:20.001Z</time></trkpt><trkpt lat="43.07289294412665" lon="11.414256472573216"><ele>474.75</ele><time>2026-05-02T10:00:21.001Z</time></trkpt><trkpt lat="43.072781906970285" lon="11.414275501621814"><ele>477.0</ele><time>2026-05-02T10:00:22.001Z</time></trkpt><trkpt lat="43.07266708152367" lon="11.41424325685762"><ele>477.0</ele><time>2026-05-02T10:00:23.001Z</time></trkpt><trkpt lat="43.07254816772148" lon="11.414207338502493"><ele>477.0</ele><time>2026-05-02T10:00:24.001Z</time></trkpt><trkpt lat="43.07243741962701" lon="11.41417411224927"><ele>477.0</ele><time>2026-05-02T10:00:25.001Z</time></trkpt><trkpt lat="43.07233966551347" lon="11.414105528983004"><ele>477.0</ele><time>2026-05-02T10:00:26.001Z</time></trkpt><trkpt lat="43.07224870810069" lon="11.41401539566061"><ele>476.5</ele><time>2026-05-02T10:00:27.001Z</time></trkpt><trkpt lat="43.07214482673916" lon="11.413959047147362"><ele>476.0</ele><time>2026-05-02T10:00:28.001Z</time></trkpt><trkpt lat="43.07201224482845" lon="11.41389014280183"><ele>475.5</ele><time>2026-05-02T10:00:29.001Z</time></trkpt><trkpt lat="43.071867220825766" lon="11.413812315886897"><ele>475.0</ele><time>2026-05-02T10:00:30.001Z</time></trkpt><trkpt lat="43.07173332474107" lon="11.413751253378631"><ele>477.75</ele><time>2026-05-02T10:00:31.001Z</time></trkpt><trkpt lat="43.07161292636526" lon="11.413664412497353"><ele>480.5</ele><time>2026-05-02T10:00:32.001Z</time></trkpt><trkpt lat="43.07151410511851" lon="11.41358375784005"><ele>483.25</ele><time>2026-05-02T10:00:33.001Z</time></trkpt><trkpt lat="43.071424455759725" lon="11.413533492760504"><ele>486.0</ele><time>2026-05-02T10:00:34.001Z</time></trkpt><trkpt lat="43.071318097664" lon="11.413503473003107"><ele>486.0</ele><time>2026-05-02T10:00:35.001Z</time></trkpt><trkpt lat="43.07118361764793" lon="11.413560891863002"><ele>486.0</ele><time>2026-05-02T10:00:36.001Z</time></trkpt><trkpt lat="43.071062220527814" lon="11.413594533966668"><ele>486.0</ele><time>2026-05-02T10:00:37.001Z</time></trkpt><trkpt lat="43.07095822528393" lon="11.413569981026818"><ele>486.0</ele><time>2026-05-02T10:00:38.001Z</time></trkpt><trkpt lat="43.07086609280098" lon="11.413499921884423"><ele>486.0</ele><time>2026-05-02T10:00:39.001Z</time></trkpt><trkpt lat="43.07078622337229" lon="11.413365132502978"><ele>486.0</ele><time>2026-05-02T10:00:40.001Z</time></trkpt><trkpt lat="43.0706915084906" lon="11.413243557866382"><ele>486.0</ele><time>2026-05-02T10:00:41.001Z</time></trkpt><trkpt lat="43.07060038724622" lon="11.413128792846754"><ele>486.0</ele><time>2026-05-02T10:00:42.001Z</time></trkpt><trkpt lat="43.07051650482788" lon="11.413052968523232"><ele>487.5</ele><time>2026-05-02T10:00:43.002Z</time></trkpt><trkpt lat="43.07044214494303" lon="11.412970177297492"><ele>489.0</ele><time>2026-05-02T10:00:44.002Z</time></trkpt><trkpt lat="43.070377795290916" lon="11.41288841392255"><ele>490.5</ele><time>2026-05-02T10:00:45.002Z</time></trkpt><trkpt lat="43.07030551823547" lon="11.412857715629805"><ele>492.0</ele><time>2026-05-02T10:00:46.002Z</time></trkpt><trkpt lat="43.070235881140334" lon="11.41285743107345"><ele>493.5</ele><time>2026-05-02T10:00:47.002Z</time></trkpt><trkpt lat="43.070156092021044" lon="11.412914200030738"><ele>495.0</ele><time>2026-05-02T10:00:48.002Z</time></trkpt><trkpt lat="43.07010204296541" lon="11.413027256846581"><ele>495.0</ele><time>2026-05-02T10:00:49.002Z</time></trkpt><trkpt lat="43.070079475981245" lon="11.41317745667046"><ele>495.0</ele><time>2026-05-02T10:00:50.002Z</time></trkpt><trkpt lat="43.07003330342998" lon="11.41331891853811"><ele>495.0</ele><time>2026-05-02T10:00:51.002Z</time></trkpt><trkpt lat="43.069975514109345" lon="11.413458711473778"><ele>495.0</ele><time>2026-05-02T10:00:52.002Z</time></trkpt><trkpt lat="43.069968484827854" lon="11.413608759892899"><ele>495.0</ele><time>2026-05-02T10:00:53.002Z</time></trkpt><trkpt lat="43.06997140302728" lon="11.413747365449725"><ele>495.0</ele><time>2026-05-02T10:00:54.002Z</time></trkpt><trkpt lat="43.069993117143056" lon="11.413915138625907"><ele>495.0</ele><time>2026-05-02T10:00:55.002Z</time></trkpt><trkpt lat="43.070017137917446" lon="11.414096956364368"><ele>495.0</ele><time>2026-05-02T10:00:56.002Z</time></trkpt><trkpt lat="43.0700056933059" lon="11.414268089700306"><ele>494.8</ele><time>2026-05-02T10:00:57.002Z</time></trkpt><trkpt lat="43.07000970533893" lon="11.414411285002318"><ele>494.6</ele><time>2026-05-02T10:00:58.002Z</time></trkpt><trkpt lat="43.0699784222077" lon="11.414566540046952"><ele>494.4</ele><time>2026-05-02T10:00:59.002Z</time></trkpt><trkpt lat="43.06990598776907" lon="11.414691066273967"><ele>494.2</ele><time>2026-05-02T10:01:00.002Z</time></trkpt><trkpt lat="43.06984503031006" lon="11.414816706151788"><ele>494.0</ele><time>2026-05-02T10:01:01.002Z</time></trkpt><trkpt lat="43.069784418873155" lon="11.414934998247373"><ele>495.25</ele><time>2026-05-02T10:01:02.002Z</time></trkpt><trkpt lat="43.06968283013323" lon="11.414995448730412"><ele>496.5</ele><time>2026-05-02T10:01:03.002Z</time></trkpt><trkpt lat="43.069572863303975" lon="11.415064768301013"><ele>497.75</ele><time>2026-05-02T10:01:04.002Z</time></trkpt><trkpt lat="43.069457086730004" lon="11.415148631617775"><ele>499.0</ele><time>2026-05-02T10:01:05.002Z</time></trkpt><trkpt lat="43.06935399805565" lon="11.415238827651402"><ele>499.0</ele><time>2026-05-02T10:01:06.002Z</time></trkpt><trkpt lat="43.06927107121101" lon="11.415354482908384"><ele>499.0</ele><time>2026-05-02T10:01:07.002Z</time></trkpt><trkpt lat="43.06917958535794" lon="11.41544097210026"><ele>499.0</ele><time>2026-05-02T10:01:08.002Z</time></trkpt><trkpt lat="43.069078356411595" lon="11.415505347121009"><ele>499.0</ele><time>2026-05-02T10:01:09.002Z</time></trkpt><trkpt lat="43.06895441661592" lon="11.41553259343523"><ele>496.25</ele><time>2026-05-02T10:01:10.002Z</time></trkpt><trkpt lat="43.06880328202474" lon="11.41554762930462"><ele>493.5</ele><time>2026-05-02T10:01:11.002Z</time></trkpt><trkpt lat="43.06866808155666" lon="11.415630191336353"><ele>490.75</ele><time>2026-05-02T10:01:12.002Z</time></trkpt><trkpt lat="43.06854107750623" lon="11.415712364291315"><ele>488.0</ele><time>2026-05-02T10:01:13.002Z</time></trkpt><trkpt lat="43.06841751472393" lon="11.415844827570263"><ele>488.0</ele><time>2026-05-02T10:01:14.002Z</time></trkpt><trkpt lat="43.06828503187822" lon="11.416016262300127"><ele>488.0</ele><time>2026-05-02T10:01:15.002Z</time></trkpt><trkpt lat="43.068153090655635" lon="11.41617075317519"><ele>488.0</ele><time>2026-05-02T10:01:16.002Z</time></trkpt><trkpt lat="43.068007061764206" lon="11.416264274995957"><ele>489.79999999999995</ele><time>2026-05-02T10:01:17.002Z</time></trkpt><trkpt lat="43.067881633935535" lon="11.416346286762492"><ele>491.59999999999997</ele><time>2026-05-02T10:01:18.002Z</time></trkpt><trkpt lat="43.06780800486171" lon="11.416444256745056"><ele>493.40000000000003</ele><time>2026-05-02T10:01:19.002Z</time></trkpt><trkpt lat="43.06774327988171" lon="11.416525717125953"><ele>495.20000000000005</ele><time>2026-05-02T10:01:20.003Z</time></trkpt><trkpt lat="43.067705161223074" lon="11.416651241936632"><ele>497.0</ele><time>2026-05-02T10:01:21.003Z</time></trkpt><trkpt lat="43.067665931838064" lon="11.416817314212702"><ele>497.0</ele><time>2026-05-02T10:01:22.003Z</time></trkpt><trkpt lat="43.06761978181079" lon="11.416977450190917"><ele>497.0</ele><time>2026-05-02T10:01:23.003Z</time></trkpt><trkpt lat="43.0675325080133" lon="11.417104674861152"><ele>497.0</ele><time>2026-05-02T10:01:24.003Z</time></trkpt><trkpt lat="43.067440875084976" lon="11.417261841078242"><ele>497.0</ele><time>2026-05-02T10:01:25.003Z</time></trkpt><trkpt lat="43.06736272055568" lon="11.417411660235356"><ele>498.75</ele><time>2026-05-02T10:01:26.003Z</time></trkpt><trkpt lat="43.06725641775972" lon="11.41748779990098"><ele>500.5</ele><time>2026-05-02T10:01:27.003Z</time></trkpt><trkpt lat="43.067151043834755" lon="11.417549106827842"><ele>502.25</ele><time>2026-05-02T10:01:28.003Z</time></trkpt><trkpt lat="43.067020811994425" lon="11.417585553163365"><ele>504.0</ele><time>2026-05-02T10:01:29.003Z</time></trkpt><trkpt lat="43.06689070815846" lon="11.417642963685491"><ele>504.0</ele><time>2026-05-02T10:01:30.003Z</time></trkpt><trkpt lat="43.06679291889975" lon="11.41771174570147"><ele>504.0</ele><time>2026-05-02T10:01:31.003Z</time></trkpt><trkpt lat="43.06672259070651" lon="11.417817779556549"><ele>504.0</ele><time>2026-05-02T10:01:32.003Z</time></trkpt><trkpt lat="43.06669330783094" lon="11.417985439942639"><ele>504.0</ele><time>2026-05-02T10:01:33.003Z</time></trkpt><trkpt lat="43.06664583337443" lon="11.418161327027262"><ele>498.66666666666663</ele><time>2026-05-02T10:01:34.003Z</time></trkpt><trkpt lat="43.06660086690293" lon="11.418353304224608"><ele>493.3333333333333</ele><time>2026-05-02T10:01:35.003Z</time></trkpt><trkpt lat="43.066559064391825" lon="11.418573624664855"><ele>488.0</ele><time>2026-05-02T10:01:36.003Z</time></trkpt><trkpt lat="43.06653940798173" lon="11.418808933663787"><ele>485.66666666666663</ele><time>2026-05-02T10:01:37.003Z</time></trkpt><trkpt lat="43.06654108873025" lon="11.419022358580369"><ele>483.33333333333337</ele><time>2026-05-02T10:01:38.003Z</time></trkpt><trkpt lat="43.06654897434487" lon="11.419256791266355"><ele>481.0</ele><time>2026-05-02T10:01:39Z</time></trkpt><trkpt lat="43.06655873277091" lon="11.419458289362126"><ele>481.0</ele><time>2026-05-02T10:01:40Z</time></trkpt><trkpt lat="43.066564405126584" lon="11.419635987966716"><ele>481.0</ele><time>2026-05-02T10:01:41Z</time></trkpt><trkpt lat="43.06656187852095" lon="11.4198082155094"><ele>481.0</ele><time>2026-05-02T10:01:42Z</time></trkpt><trkpt lat="43.06654264353458" lon="11.419954377942435"><ele>481.0</ele><time>2026-05-02T10:01:43Z</time></trkpt><trkpt lat="43.06648139984669" lon="11.42007107122169"><ele>482.33333333333337</ele><time>2026-05-02T10:01:44Z</time></trkpt><trkpt lat="43.06640566538036" lon="11.420194661435401"><ele>483.66666666666663</ele><time>2026-05-02T10:01:45Z</time></trkpt><trkpt lat="43.066317024807304" lon="11.420363388635426"><ele>485.0</ele><time>2026-05-02T10:01:46Z</time></trkpt><trkpt lat="43.066231625956426" lon="11.420589227483942"><ele>487.3333333333333</ele><time>2026-05-02T10:01:47Z</time></trkpt><trkpt lat="43.066132869929945" lon="11.420808431231759"><ele>489.66666666666663</ele><time>2026-05-02T10:01:48Z</time></trkpt><trkpt lat="43.066023919389046" lon="11.420967808654936"><ele>492.0</ele><time>2026-05-02T10:01:49Z</time></trkpt><trkpt lat="43.06593048426932" lon="11.421125959974379"><ele>492.0</ele><time>2026-05-02T10:01:50Z</time></trkpt><trkpt lat="43.06584088894377" lon="11.421289382723918"><ele>492.0</ele><time>2026-05-02T10:01:51Z</time></trkpt><trkpt lat="43.0657711624281" lon="11.421476927951593"><ele>492.0</ele><time>2026-05-02T10:01:52Z</time></trkpt><trkpt lat="43.06569485376155" lon="11.42163576590721"><ele>492.0</ele><time>2026-05-02T10:01:53Z</time></trkpt><trkpt lat="43.06561985290092" lon="11.421763896956877"><ele>490.5</ele><time>2026-05-02T10:01:54Z</time></trkpt><trkpt lat="43.065532465344226" lon="11.42183413109203"><ele>489.0</ele><time>2026-05-02T10:01:55Z</time></trkpt><trkpt lat="43.06544364453052" lon="11.421909348044547"><ele>487.5</ele><time>2026-05-02T10:01:56Z</time></trkpt><trkpt lat="43.06533060384881" lon="11.422017872088782"><ele>486.0</ele><time>2026-05-02T10:01:57Z</time></trkpt><trkpt lat="43.06522168094661" lon="11.422112015405185"><ele>486.0</ele><time>2026-05-02T10:01:58Z</time></trkpt><trkpt lat="43.06512363117605" lon="11.422173716813429"><ele>486.0</ele><time>2026-05-02T10:01:59Z</time></trkpt><trkpt lat="43.06502835018525" lon="11.42220025090404"><ele>486.0</ele><time>2026-05-02T10:02:00Z</time></trkpt><trkpt lat="43.06490854537177" lon="11.422203189617917"><ele>486.0</ele><time>2026-05-02T10:02:01Z</time></trkpt><trkpt lat="43.06477772197874" lon="11.42220409720925"><ele>486.0</ele><time>2026-05-02T10:02:02Z</time></trkpt><trkpt lat="43.064646203394965" lon="11.42219657149077"><ele>486.0</ele><time>2026-05-02T10:02:03Z</time></trkpt><trkpt lat="43.064509286490555" lon="11.422164867634214"><ele>486.0</ele><time>2026-05-02T10:02:04Z</time></trkpt><trkpt lat="43.06437811620258" lon="11.422114469477599"><ele>486.0</ele><time>2026-05-02T10:02:05Z</time></trkpt><trkpt lat="43.06424788565885" lon="11.422054820393397"><ele>484.25</ele><time>2026-05-02T10:02:06Z</time></trkpt><trkpt lat="43.064117975730696" lon="11.421990904872198"><ele>482.5</ele><time>2026-05-02T10:02:07Z</time></trkpt><trkpt lat="43.06401234036458" lon="11.421936573471196"><ele>480.75</ele><time>2026-05-02T10:02:08Z</time></trkpt><trkpt lat="43.0639152151733" lon="11.421914924327629"><ele>479.0</ele><time>2026-05-02T10:02:09Z</time></trkpt><trkpt lat="43.06379478364763" lon="11.421965265824564"><ele>477.6</ele><time>2026-05-02T10:02:10.001Z</time></trkpt><trkpt lat="43.06367867068309" lon="11.421969908204126"><ele>476.2</ele><time>2026-05-02T10:02:11.001Z</time></trkpt><trkpt lat="43.063577259586715" lon="11.422000230094257"><ele>474.80000000000007</ele><time>2026-05-02T10:02:12.001Z</time></trkpt><trkpt lat="43.063510803140325" lon="11.422054627796825"><ele>473.40000000000003</ele><time>2026-05-02T10:02:13.001Z</time></trkpt><trkpt lat="43.06346398492475" lon="11.42214241562213"><ele>472.0</ele><time>2026-05-02T10:02:14.001Z</time></trkpt><trkpt lat="43.063455066991864" lon="11.422324391391161"><ele>472.0</ele><time>2026-05-02T10:02:16.001Z</time></trkpt><trkpt lat="43.06347779922872" lon="11.422421872710283"><ele>472.00000000000006</ele><time>2026-05-02T10:02:17.001Z</time></trkpt><trkpt lat="43.063515631934685" lon="11.422536878952947"><ele>472.00000000000006</ele><time>2026-05-02T10:02:18.001Z</time></trkpt><trkpt lat="43.0635518474508" lon="11.422664332449004"><ele>472.0</ele><time>2026-05-02T10:02:19.001Z</time></trkpt><trkpt lat="43.06355589453514" lon="11.42278768672779"><ele>472.0</ele><time>2026-05-02T10:02:20.001Z</time></trkpt><trkpt lat="43.063506848436525" lon="11.422923872978494"><ele>471.40000000000003</ele><time>2026-05-02T10:02:21.001Z</time></trkpt><trkpt lat="43.06343737305252" lon="11.423074003989838"><ele>470.80000000000007</ele><time>2026-05-02T10:02:22.001Z</time></trkpt><trkpt lat="43.063380261563054" lon="11.423213577105276"><ele>470.2</ele><time>2026-05-02T10:02:23.001Z</time></trkpt><trkpt lat="43.063342536071595" lon="11.423347439076434"><ele>469.6</ele><time>2026-05-02T10:02:24.001Z</time></trkpt><trkpt lat="43.06331508878898" lon="11.423473666180147"><ele>469.0</ele><time>2026-05-02T10:02:25.001Z</time></trkpt><trkpt lat="43.06331772482751" lon="11.42360060922651"><ele>469.0</ele><time>2026-05-02T10:02:26.001Z</time></trkpt><trkpt lat="43.0633411953808" lon="11.423738906000464"><ele>469.0</ele><time>2026-05-02T10:02:27.001Z</time></trkpt><trkpt lat="43.06337416412177" lon="11.423877389741785"><ele>469.0</ele><time>2026-05-02T10:02:28.001Z</time></trkpt><trkpt lat="43.0633994099076" lon="11.424010873964892"><ele>469.0</ele><time>2026-05-02T10:02:29.001Z</time></trkpt><trkpt lat="43.063400319264844" lon="11.424123966564625"><ele>469.0</ele><time>2026-05-02T10:02:30.001Z</time></trkpt><trkpt lat="43.06334478230508" lon="11.424230163852918"><ele>468.0</ele><time>2026-05-02T10:02:31.001Z</time></trkpt><trkpt lat="43.063281647765365" lon="11.424404171577871"><ele>467.0</ele><time>2026-05-02T10:02:32.001Z</time></trkpt><trkpt lat="43.06325170317858" lon="11.424589899165397"><ele>466.0</ele><time>2026-05-02T10:02:33.001Z</time></trkpt><trkpt lat="43.06324064273544" lon="11.424768222716361"><ele>465.0</ele><time>2026-05-02T10:02:34.001Z</time></trkpt><trkpt lat="43.06321901048791" lon="11.424927570072615"><ele>465.25</ele><time>2026-05-02T10:02:35.001Z</time></trkpt><trkpt lat="43.063181417467064" lon="11.425074661431088"><ele>465.5</ele><time>2026-05-02T10:02:36.001Z</time></trkpt><trkpt lat="43.06310216050555" lon="11.42520305043501"><ele>465.75</ele><time>2026-05-02T10:02:37.001Z</time></trkpt><trkpt lat="43.06300793729864" lon="11.425352179564047"><ele>466.0</ele><time>2026-05-02T10:02:38.001Z</time></trkpt><trkpt lat="43.06291397147288" lon="11.425503906946659"><ele>466.0</ele><time>2026-05-02T10:02:39.001Z</time></trkpt><trkpt lat="43.062867767834874" lon="11.425666224123935"><ele>466.0</ele><time>2026-05-02T10:02:40.001Z</time></trkpt><trkpt lat="43.06283157368281" lon="11.4258220879162"><ele>466.0</ele><time>2026-05-02T10:02:41.001Z</time></trkpt><trkpt lat="43.06280386028762" lon="11.425979036431523"><ele>466.0</ele><time>2026-05-02T10:02:42.001Z</time></trkpt><trkpt lat="43.0627792980525" lon="11.426140446961615"><ele>467.33333333333337</ele><time>2026-05-02T10:02:43.001Z</time></trkpt><trkpt lat="43.062838401338446" lon="11.426345063923675"><ele>468.66666666666663</ele><time>2026-05-02T10:02:44.001Z</time></trkpt><trkpt lat="43.06285618510766" lon="11.426563826446161"><ele>470.0</ele><time>2026-05-02T10:02:45.001Z</time></trkpt><trkpt lat="43.06288296244346" lon="11.426751532946131"><ele>470.0</ele><time>2026-05-02T10:02:46.002Z</time></trkpt><trkpt lat="43.06290536032857" lon="11.42689344960766"><ele>470.0</ele><time>2026-05-02T10:02:47.002Z</time></trkpt><trkpt lat="43.062912208379544" lon="11.427000976334133"><ele>470.0</ele><time>2026-05-02T10:02:48.002Z</time></trkpt><trkpt lat="43.06289157609903" lon="11.427107196276754"><ele>470.0</ele><time>2026-05-02T10:02:49.002Z</time></trkpt><trkpt lat="43.06284095838649" lon="11.427221397472112"><ele>470.0</ele><time>2026-05-02T10:02:50.002Z</time></trkpt><trkpt lat="43.06276466563083" lon="11.427320039620902"><ele>470.0</ele><time>2026-05-02T10:02:51.002Z</time></trkpt><trkpt lat="43.06266348128588" lon="11.427400353374042"><ele>470.0</ele><time>2026-05-02T10:02:52.002Z</time></trkpt><trkpt lat="43.06255853008543" lon="11.427459442715884"><ele>470.0</ele><time>2026-05-02T10:02:53.002Z</time></trkpt><trkpt lat="43.062453955240485" lon="11.427500688289184"><ele>470.0</ele><time>2026-05-02T10:02:54.002Z</time></trkpt><trkpt lat="43.06232739710447" lon="11.427547118016127"><ele>470.0</ele><time>2026-05-02T10:02:55.002Z</time></trkpt><trkpt lat="43.06220000854029" lon="11.427594973383837"><ele>470.0</ele><time>2026-05-02T10:02:56.002Z</time></trkpt><trkpt lat="43.0620879402748" lon="11.427625748831987"><ele>470.0</ele><time>2026-05-02T10:02:57.002Z</time></trkpt><trkpt lat="43.06198698096824" lon="11.427637213243734"><ele>470.0</ele><time>2026-05-02T10:02:58.002Z</time></trkpt><trkpt lat="43.061885665013236" lon="11.427619514311393"><ele>470.0</ele><time>2026-05-02T10:02:59.002Z</time></trkpt><trkpt lat="43.06177987231974" lon="11.427566260517343"><ele>470.0</ele><time>2026-05-02T10:03:00.002Z</time></trkpt><trkpt lat="43.06165404836731" lon="11.427487409242902"><ele>470.0</ele><time>2026-05-02T10:03:01.002Z</time></trkpt><trkpt lat="43.061533976648576" lon="11.427405940603252"><ele>470.0</ele><time>2026-05-02T10:03:02.002Z</time></trkpt><trkpt lat="43.06143385950886" lon="11.42736454648196"><ele>470.25</ele><time>2026-05-02T10:03:03.002Z</time></trkpt><trkpt lat="43.0613365171766" lon="11.4273681538611"><ele>470.5</ele><time>2026-05-02T10:03:04.002Z</time></trkpt><trkpt lat="43.06121120793602" lon="11.427402131710172"><ele>470.75</ele><time>2026-05-02T10:03:05.002Z</time></trkpt><trkpt lat="43.06107131292188" lon="11.427459479074166"><ele>471.0</ele><time>2026-05-02T10:03:06.002Z</time></trkpt><trkpt lat="43.0609563862397" lon="11.427502965238572"><ele>471.0</ele><time>2026-05-02T10:03:07.002Z</time></trkpt><trkpt lat="43.060870552674" lon="11.427513981179146"><ele>471.0</ele><time>2026-05-02T10:03:08.002Z</time></trkpt><trkpt lat="43.06077598287531" lon="11.427485644965339"><ele>471.0</ele><time>2026-05-02T10:03:09.002Z</time></trkpt><trkpt lat="43.06068880351444" lon="11.427417861487676"><ele>471.0</ele><time>2026-05-02T10:03:10.002Z</time></trkpt><trkpt lat="43.060578767315825" lon="11.427320535657309"><ele>471.0</ele><time>2026-05-02T10:03:11.002Z</time></trkpt><trkpt lat="43.0604956936949" lon="11.427252658520585"><ele>472.3333333333333</ele><time>2026-05-02T10:03:12.002Z</time></trkpt><trkpt lat="43.06042622853553" lon="11.42723000542685"><ele>473.66666666666663</ele><time>2026-05-02T10:03:13.002Z</time></trkpt><trkpt lat="43.06033057762863" lon="11.427278019233796"><ele>475.0</ele><time>2026-05-02T10:03:15.002Z</time></trkpt><trkpt lat="43.0602951494098" lon="11.427356893463916"><ele>476.3333333333333</ele><time>2026-05-02T10:03:16.002Z</time></trkpt><trkpt lat="43.06027435525369" lon="11.427461757447853"><ele>477.66666666666663</ele><time>2026-05-02T10:03:17.002Z</time></trkpt><trkpt lat="43.060282222243906" lon="11.42758632613767"><ele>479.0</ele><time>2026-05-02T10:03:18.002Z</time></trkpt><trkpt lat="43.06026970635593" lon="11.42769354894789"><ele>479.0</ele><time>2026-05-02T10:03:19.002Z</time></trkpt><trkpt lat="43.06021879987002" lon="11.427759617224888"><ele>479.0</ele><time>2026-05-02T10:03:20.002Z</time></trkpt><trkpt lat="43.060139449693104" lon="11.427821474427335"><ele>479.0</ele><time>2026-05-02T10:03:21.002Z</time></trkpt><trkpt lat="43.06003310872827" lon="11.427871179105312"><ele>479.0</ele><time>2026-05-02T10:03:22.003Z</time></trkpt><trkpt lat="43.05993158665018" lon="11.427922294772916"><ele>479.0</ele><time>2026-05-02T10:03:23.003Z</time></trkpt><trkpt lat="43.059857089801035" lon="11.427935574918715"><ele>480.25</ele><time>2026-05-02T10:03:24.003Z</time></trkpt><trkpt lat="43.05972143371428" lon="11.427860677856886"><ele>481.5</ele><time>2026-05-02T10:03:26.003Z</time></trkpt><trkpt lat="43.05965676802864" lon="11.427784157829644"><ele>482.75</ele><time>2026-05-02T10:03:27.003Z</time></trkpt><trkpt lat="43.05958740088334" lon="11.42767836196918"><ele>484.0</ele><time>2026-05-02T10:03:28.003Z</time></trkpt><trkpt lat="43.059513028827" lon="11.42755354571434"><ele>484.0</ele><time>2026-05-02T10:03:29.003Z</time></trkpt><trkpt lat="43.05944506901263" lon="11.427421080576982"><ele>484.0</ele><time>2026-05-02T10:03:30.003Z</time></trkpt><trkpt lat="43.059381163732134" lon="11.427338627919152"><ele>484.0</ele><time>2026-05-02T10:03:31.003Z</time></trkpt><trkpt lat="43.059307446143286" lon="11.42728659768128"><ele>484.0</ele><time>2026-05-02T10:03:32.003Z</time></trkpt><trkpt lat="43.059225802575405" lon="11.4272616861339"><ele>484.0</ele><time>2026-05-02T10:03:33.003Z</time></trkpt><trkpt lat="43.05913904378323" lon="11.427276034413543"><ele>486.50000000000006</ele><time>2026-05-02T10:03:34.003Z</time></trkpt><trkpt lat="43.05906606960742" lon="11.427329158788748"><ele>489.0</ele><time>2026-05-02T10:03:35.003Z</time></trkpt><trkpt lat="43.05901241861071" lon="11.427405285426156"><ele>491.5</ele><time>2026-05-02T10:03:36.003Z</time></trkpt><trkpt lat="43.058997313046554" lon="11.427501274724534"><ele>494.0</ele><time>2026-05-02T10:03:37.003Z</time></trkpt><trkpt lat="43.05900950808905" lon="11.427602504708025"><ele>496.50000000000006</ele><time>2026-05-02T10:03:38.003Z</time></trkpt><trkpt lat="43.05903810898958" lon="11.427707014090075"><ele>499.0</ele><time>2026-05-02T10:03:39.003Z</time></trkpt><trkpt lat="43.059095196404776" lon="11.42785156626128"><ele>497.6666666666667</ele><time>2026-05-02T10:03:40.003Z</time></trkpt><trkpt lat="43.05915039933998" lon="11.427996657571347"><ele>496.33333333333337</ele><time>2026-05-02T10:03:41.003Z</time></trkpt><trkpt lat="43.05919145720063" lon="11.428119881514112"><ele>495.0</ele><time>2026-05-02T10:03:42.003Z</time></trkpt><trkpt lat="43.0592007597704" lon="11.42822846997446"><ele>493.66666666666663</ele><time>2026-05-02T10:03:43.003Z</time></trkpt><trkpt lat="43.059173668309434" lon="11.428319117924843"><ele>492.3333333333333</ele><time>2026-05-02T10:03:44.003Z</time></trkpt><trkpt lat="43.05911825826446" lon="11.428391917222829"><ele>491.0</ele><time>2026-05-02T10:03:45.001Z</time></trkpt><trkpt lat="43.05902412162206" lon="11.428435528625949"><ele>491.0</ele><time>2026-05-02T10:03:46Z</time></trkpt><trkpt lat="43.05892906412049" lon="11.42845576414058"><ele>491.0</ele><time>2026-05-02T10:03:47.001Z</time></trkpt><trkpt lat="43.05883077568806" lon="11.42849345549741"><ele>491.0</ele><time>2026-05-02T10:03:48Z</time></trkpt><trkpt lat="43.05874694092331" lon="11.428579640275403"><ele>491.0</ele><time>2026-05-02T10:03:49Z</time></trkpt><trkpt lat="43.058667055974084" lon="11.428708965089221"><ele>491.0</ele><time>2026-05-02T10:03:50Z</time></trkpt><trkpt lat="43.05859766161924" lon="11.428845792943893"><ele>489.3333333333333</ele><time>2026-05-02T10:03:51Z</time></trkpt><trkpt lat="43.05853397926221" lon="11.429025051341508"><ele>487.66666666666663</ele><time>2026-05-02T10:03:52Z</time></trkpt><trkpt lat="43.05847027583194" lon="11.429222749591027"><ele>486.0</ele><time>2026-05-02T10:03:53Z</time></trkpt><trkpt lat="43.05841350036234" lon="11.429416075381681"><ele>486.0</ele><time>2026-05-02T10:03:54Z</time></trkpt><trkpt lat="43.058362016346706" lon="11.429649115845685"><ele>486.0</ele><time>2026-05-02T10:03:55Z</time></trkpt><trkpt lat="43.0583164470062" lon="11.429873216965694"><ele>486.0</ele><time>2026-05-02T10:03:56Z</time></trkpt><trkpt lat="43.05828206993048" lon="11.43005288031077"><ele>485.8</ele><time>2026-05-02T10:03:57Z</time></trkpt><trkpt lat="43.05826710491962" lon="11.430187070248346"><ele>485.6</ele><time>2026-05-02T10:03:58Z</time></trkpt><trkpt lat="43.05826899117754" lon="11.430327082640435"><ele>485.4</ele><time>2026-05-02T10:03:59Z</time></trkpt><trkpt lat="43.05828295061479" lon="11.430495631830206"><ele>485.2</ele><time>2026-05-02T10:04:00Z</time></trkpt><trkpt lat="43.05829124333197" lon="11.430645483338193"><ele>485.0</ele><time>2026-05-02T10:04:01Z</time></trkpt><trkpt lat="43.05828132471883" lon="11.430776730068548"><ele>484.0</ele><time>2026-05-02T10:04:02Z</time></trkpt><trkpt lat="43.05824640434109" lon="11.43088552803913"><ele>483.0</ele><time>2026-05-02T10:04:03Z</time></trkpt><trkpt lat="43.0581800868782" lon="11.430980438040201"><ele>482.0</ele><time>2026-05-02T10:04:04Z</time></trkpt><trkpt lat="43.05807895654912" lon="11.431057449919452"><ele>481.0</ele><time>2026-05-02T10:04:05.001Z</time></trkpt><trkpt lat="43.05795693925296" lon="11.431131832264384"><ele>480.0</ele><time>2026-05-02T10:04:06.001Z</time></trkpt><trkpt lat="43.05780845349982" lon="11.431214431995596"><ele>482.66666666666663</ele><time>2026-05-02T10:04:07.001Z</time></trkpt><trkpt lat="43.05765526138129" lon="11.43131212829807"><ele>485.3333333333333</ele><time>2026-05-02T10:04:08.001Z</time></trkpt><trkpt lat="43.0575297001387" lon="11.431413386810107"><ele>488.0</ele><time>2026-05-02T10:04:09.001Z</time></trkpt><trkpt lat="43.05742272226536" lon="11.431536306547049"><ele>488.25</ele><time>2026-05-02T10:04:10.001Z</time></trkpt><trkpt lat="43.057330840621844" lon="11.431668052019434"><ele>488.5</ele><time>2026-05-02T10:04:11.001Z</time></trkpt><trkpt lat="43.05723219316599" lon="11.431813551182032"><ele>488.75</ele><time>2026-05-02T10:04:12.001Z</time></trkpt><trkpt lat="43.05712813644667" lon="11.431987783560905"><ele>489.0</ele><time>2026-05-02T10:04:13.001Z</time></trkpt><trkpt lat="43.05701759778081" lon="11.432204205672065"><ele>490.0</ele><time>2026-05-02T10:04:14.001Z</time></trkpt><trkpt lat="43.0569166576761" lon="11.432407732660408"><ele>491.0</ele><time>2026-05-02T10:04:15.001Z</time></trkpt><trkpt lat="43.056824853583954" lon="11.432576803081584"><ele>492.0</ele><time>2026-05-02T10:04:16.001Z</time></trkpt><trkpt lat="43.05671750998011" lon="11.432731589408295"><ele>491.6</ele><time>2026-05-02T10:04:17.001Z</time></trkpt><trkpt lat="43.05660883265508" lon="11.432870112436383"><ele>491.20000000000005</ele><time>2026-05-02T10:04:18.001Z</time></trkpt><trkpt lat="43.05653200495404" lon="11.432985287574908"><ele>490.8</ele><time>2026-05-02T10:04:19.001Z</time></trkpt><trkpt lat="43.0564787091657" lon="11.43307154769158"><ele>490.4</ele><time>2026-05-02T10:04:20.001Z</time></trkpt><trkpt lat="43.05641440145635" lon="11.433142180712375"><ele>490.0</ele><time>2026-05-02T10:04:21.001Z</time></trkpt><trkpt lat="43.0563113047707" lon="11.433212630906066"><ele>492.33333333333337</ele><time>2026-05-02T10:04:22.001Z</time></trkpt><trkpt lat="43.05616388254813" lon="11.433289730281542"><ele>494.66666666666663</ele><time>2026-05-02T10:04:23.001Z</time></trkpt><trkpt lat="43.055987129219595" lon="11.43336167984378"><ele>497.0</ele><time>2026-05-02T10:04:24.001Z</time></trkpt><trkpt lat="43.05582961603792" lon="11.433410745997145"><ele>496.75</ele><time>2026-05-02T10:04:25.001Z</time></trkpt><trkpt lat="43.055702878455776" lon="11.433451341581158"><ele>496.5</ele><time>2026-05-02T10:04:26.001Z</time></trkpt><trkpt lat="43.05559807919287" lon="11.433502559747959"><ele>496.25</ele><time>2026-05-02T10:04:27.001Z</time></trkpt><trkpt lat="43.05550368184519" lon="11.433564307264922"><ele>496.0</ele><time>2026-05-02T10:04:28.001Z</time></trkpt><trkpt lat="43.05539906777064" lon="11.433633881251758"><ele>496.0</ele><time>2026-05-02T10:04:29.001Z</time></trkpt><trkpt lat="43.05527567797493" lon="11.433692156286815"><ele>496.0</ele><time>2026-05-02T10:04:30.001Z</time></trkpt><trkpt lat="43.055149830984426" lon="11.433729748781412"><ele>496.0</ele><time>2026-05-02T10:04:31.001Z</time></trkpt><trkpt lat="43.05502549926792" lon="11.433762051540825"><ele>496.0</ele><time>2026-05-02T10:04:32.001Z</time></trkpt><trkpt lat="43.05487494659771" lon="11.433835966242485"><ele>492.6666666666667</ele><time>2026-05-02T10:04:33.001Z</time></trkpt><trkpt lat="43.05471629620563" lon="11.433942541439842"><ele>489.33333333333337</ele><time>2026-05-02T10:04:34.001Z</time></trkpt><trkpt lat="43.05456755406334" lon="11.434044735596851"><ele>486.0</ele><time>2026-05-02T10:04:35.001Z</time></trkpt><trkpt lat="43.054417321213265" lon="11.434128145696132"><ele>486.0</ele><time>2026-05-02T10:04:36.001Z</time></trkpt><trkpt lat="43.05428508782281" lon="11.434190009219073"><ele>486.0</ele><time>2026-05-02T10:04:37.001Z</time></trkpt><trkpt lat="43.05415350564597" lon="11.434248409942409"><ele>486.0</ele><time>2026-05-02T10:04:38.001Z</time></trkpt><trkpt lat="43.054022471735024" lon="11.434283801203513"><ele>486.0</ele><time>2026-05-02T10:04:39.001Z</time></trkpt><trkpt lat="43.05389227908074" lon="11.434312763799358"><ele>485.6</ele><time>2026-05-02T10:04:40.001Z</time></trkpt><trkpt lat="43.05377933234396" lon="11.434342449340377"><ele>485.20000000000005</ele><time>2026-05-02T10:04:41.001Z</time></trkpt><trkpt lat="43.05368082132333" lon="11.434386310549815"><ele>484.79999999999995</ele><time>2026-05-02T10:04:42.001Z</time></trkpt><trkpt lat="43.05359639590112" lon="11.434448019161"><ele>484.4</ele><time>2026-05-02T10:04:43.001Z</time></trkpt><trkpt lat="43.05352261804484" lon="11.4345296665523"><ele>484.0</ele><time>2026-05-02T10:04:44.001Z</time></trkpt><trkpt lat="43.05343866070221" lon="11.434633523322965"><ele>482.25</ele><time>2026-05-02T10:04:45.001Z</time></trkpt><trkpt lat="43.05335837300666" lon="11.434755994346402"><ele>480.5</ele><time>2026-05-02T10:04:46.002Z</time></trkpt><trkpt lat="43.05329275287267" lon="11.434883158847569"><ele>478.75</ele><time>2026-05-02T10:04:47.002Z</time></trkpt><trkpt lat="43.0532490442769" lon="11.435011447135498"><ele>477.0</ele><time>2026-05-02T10:04:48.002Z</time></trkpt><trkpt lat="43.05319587075272" lon="11.435167309777137"><ele>477.0</ele><time>2026-05-02T10:04:49.002Z</time></trkpt><trkpt lat="43.05314544041808" lon="11.435344692607785"><ele>477.0</ele><time>2026-05-02T10:04:50.002Z</time></trkpt><trkpt lat="43.05310246166071" lon="11.43552661372207"><ele>477.0</ele><time>2026-05-02T10:04:51.002Z</time></trkpt><trkpt lat="43.053081524309874" lon="11.4356955169721"><ele>477.0</ele><time>2026-05-02T10:04:52.002Z</time></trkpt><trkpt lat="43.05306907540142" lon="11.43586017209306"><ele>475.20000000000005</ele><time>2026-05-02T10:04:53.002Z</time></trkpt><trkpt lat="43.053051576721614" lon="11.436019274173166"><ele>473.40000000000003</ele><time>2026-05-02T10:04:54.002Z</time></trkpt><trkpt lat="43.053031387300095" lon="11.43616446442163"><ele>471.59999999999997</ele><time>2026-05-02T10:04:55.002Z</time></trkpt><trkpt lat="43.05300083807259" lon="11.436308648739141"><ele>469.79999999999995</ele><time>2026-05-02T10:04:56.002Z</time></trkpt><trkpt lat="43.052958667061596" lon="11.436437999698905"><ele>468.0</ele><time>2026-05-02T10:04:57.002Z</time></trkpt><trkpt lat="43.052903885009876" lon="11.43655346159795"><ele>468.0</ele><time>2026-05-02T10:04:58.002Z</time></trkpt><trkpt lat="43.05283550994114" lon="11.436656875629422"><ele>467.99999999999994</ele><time>2026-05-02T10:04:59.002Z</time></trkpt><trkpt lat="43.05275798364086" lon="11.436738203811494"><ele>467.99999999999994</ele><time>2026-05-02T10:05:00.002Z</time></trkpt><trkpt lat="43.05267614543615" lon="11.436793945642956"><ele>468.0</ele><time>2026-05-02T10:05:01.002Z</time></trkpt><trkpt lat="43.052591023686176" lon="11.436824116165047"><ele>468.0</ele><time>2026-05-02T10:05:02.002Z</time></trkpt><trkpt lat="43.05250795058209" lon="11.436836212916445"><ele>468.2</ele><time>2026-05-02T10:05:03.002Z</time></trkpt><trkpt lat="43.05242607779006" lon="11.436817030320908"><ele>468.4</ele><time>2026-05-02T10:05:04.002Z</time></trkpt><trkpt lat="43.05233371539156" lon="11.436785165430589"><ele>468.59999999999997</ele><time>2026-05-02T10:05:05.002Z</time></trkpt><trkpt lat="43.0522340082013" lon="11.436725579936965"><ele>468.79999999999995</ele><time>2026-05-02T10:05:06.002Z</time></trkpt><trkpt lat="43.052125532948864" lon="11.436754369038258"><ele>469.0</ele><time>2026-05-02T10:05:07.002Z</time></trkpt><trkpt lat="43.052007178746116" lon="11.436783402676198"><ele>469.0</ele><time>2026-05-02T10:05:08.002Z</time></trkpt><trkpt lat="43.051889161978096" lon="11.436819865451683"><ele>469.0</ele><time>2026-05-02T10:05:09.002Z</time></trkpt><trkpt lat="43.05178062589095" lon="11.43686299796256"><ele>469.0</ele><time>2026-05-02T10:05:10.002Z</time></trkpt><trkpt lat="43.05167822094262" lon="11.436894526713958"><ele>469.0</ele><time>2026-05-02T10:05:11.002Z</time></trkpt><trkpt lat="43.05160315091331" lon="11.436927172642378"><ele>469.0</ele><time>2026-05-02T10:05:12.002Z</time></trkpt><trkpt lat="43.051539806656756" lon="11.436984092366567"><ele>469.25</ele><time>2026-05-02T10:05:13.002Z</time></trkpt><trkpt lat="43.05146631237927" lon="11.437093740959497"><ele>469.5</ele><time>2026-05-02T10:05:14.002Z</time></trkpt><trkpt lat="43.051385784864635" lon="11.43724621623941"><ele>469.75</ele><time>2026-05-02T10:05:15.002Z</time></trkpt><trkpt lat="43.05127869131828" lon="11.43738324235195"><ele>470.0</ele><time>2026-05-02T10:05:16.002Z</time></trkpt><trkpt lat="43.05117530099085" lon="11.437499242143664"><ele>470.0</ele><time>2026-05-02T10:05:17.002Z</time></trkpt><trkpt lat="43.05104680956687" lon="11.437600220278476"><ele>470.0</ele><time>2026-05-02T10:05:18.002Z</time></trkpt><trkpt lat="43.0509031108637" lon="11.437684309032253"><ele>470.0</ele><time>2026-05-02T10:05:19.002Z</time></trkpt><trkpt lat="43.050784653393244" lon="11.437752761553913"><ele>470.0</ele><time>2026-05-02T10:05:20.002Z</time></trkpt><trkpt lat="43.05068055349673" lon="11.43782467940143"><ele>471.75</ele><time>2026-05-02T10:05:21.002Z</time></trkpt><trkpt lat="43.050582823124685" lon="11.437907358996455"><ele>473.5</ele><time>2026-05-02T10:05:22.002Z</time></trkpt><trkpt lat="43.050506634595166" lon="11.438009912593268"><ele>475.25</ele><time>2026-05-02T10:05:23.002Z</time></trkpt><trkpt lat="43.050464854391" lon="11.438153713232653"><ele>477.0</ele><time>2026-05-02T10:05:24.002Z</time></trkpt><trkpt lat="43.0504297641374" lon="11.438320470824552"><ele>478.25</ele><time>2026-05-02T10:05:25.002Z</time></trkpt><trkpt lat="43.05041540349545" lon="11.438524602517738"><ele>479.5</ele><time>2026-05-02T10:05:26.003Z</time></trkpt><trkpt lat="43.0503687741629" lon="11.438681826602092"><ele>480.75</ele><time>2026-05-02T10:05:27.003Z</time></trkpt><trkpt lat="43.050349310255456" lon="11.438810164516767"><ele>482.0</ele><time>2026-05-02T10:05:28.003Z</time></trkpt><trkpt lat="43.050382668288705" lon="11.438946384620774"><ele>483.25</ele><time>2026-05-02T10:05:29.003Z</time></trkpt><trkpt lat="43.050435114750535" lon="11.439067848632298"><ele>484.5</ele><time>2026-05-02T10:05:30.003Z</time></trkpt><trkpt lat="43.05051733058897" lon="11.439197812896085"><ele>485.75</ele><time>2026-05-02T10:05:31.003Z</time></trkpt><trkpt lat="43.0506006658541" lon="11.43933885433591"><ele>487.0</ele><time>2026-05-02T10:05:32.003Z</time></trkpt><trkpt lat="43.05066503915823" lon="11.439466206185443"><ele>487.0</ele><time>2026-05-02T10:05:33.003Z</time></trkpt><trkpt lat="43.05070564282869" lon="11.43962327158632"><ele>487.0</ele><time>2026-05-02T10:05:34.003Z</time></trkpt><trkpt lat="43.05072006333556" lon="11.439799636381302"><ele>487.0</ele><time>2026-05-02T10:05:35.003Z</time></trkpt><trkpt lat="43.05070948019809" lon="11.439984373512713"><ele>487.0</ele><time>2026-05-02T10:05:36.003Z</time></trkpt><trkpt lat="43.050671780016465" lon="11.440161536634585"><ele>485.5</ele><time>2026-05-02T10:05:37.003Z</time></trkpt><trkpt lat="43.05061175537173" lon="11.440320789139028"><ele>484.0</ele><time>2026-05-02T10:05:38.003Z</time></trkpt><trkpt lat="43.05053446464617" lon="11.440446151431479"><ele>482.5</ele><time>2026-05-02T10:05:39.003Z</time></trkpt><trkpt lat="43.05042220265757" lon="11.440531266783545"><ele>481.0</ele><time>2026-05-02T10:05:40.003Z</time></trkpt><trkpt lat="43.05028858406376" lon="11.440627474961136"><ele>477.5</ele><time>2026-05-02T10:05:41.003Z</time></trkpt><trkpt lat="43.05019385153055" lon="11.440739916953012"><ele>474.0</ele><time>2026-05-02T10:05:42.003Z</time></trkpt><trkpt lat="43.050116091297014" lon="11.440850759609708"><ele>470.5</ele><time>2026-05-02T10:05:43.003Z</time></trkpt><trkpt lat="43.05005384405156" lon="11.440964760082155"><ele>467.0</ele><time>2026-05-02T10:05:44.003Z</time></trkpt><trkpt lat="43.05005109302149" lon="11.44114633785626"><ele>465.25</ele><time>2026-05-02T10:05:45.003Z</time></trkpt><trkpt lat="43.05005012360492" lon="11.441329353611497"><ele>463.5</ele><time>2026-05-02T10:05:46.003Z</time></trkpt><trkpt lat="43.05005917724908" lon="11.441540758513462"><ele>461.75</ele><time>2026-05-02T10:05:47.003Z</time></trkpt><trkpt lat="43.05007364825376" lon="11.441722063668395"><ele>460.0</ele><time>2026-05-02T10:05:48.003Z</time></trkpt><trkpt lat="43.05007977751848" lon="11.441863568469946"><ele>460.0</ele><time>2026-05-02T10:05:49.003Z</time></trkpt><trkpt lat="43.050077364471576" lon="11.44195462415163"><ele>460.0</ele><time>2026-05-02T10:05:50.003Z</time></trkpt><trkpt lat="43.05004838613779" lon="11.44209174015258"><ele>460.0</ele><time>2026-05-02T10:05:52.001Z</time></trkpt><trkpt lat="43.05003871493026" lon="11.442181141978999"><ele>464.0</ele><time>2026-05-02T10:05:55.001Z</time></trkpt></trkseg><trkseg><trkpt lat="43.04995271485821" lon="11.442260047124853"><ele>456.2857142857143</ele><time>2026-05-02T10:19:42Z</time></trkpt><trkpt lat="43.05002243561583" lon="11.442311993214082"><ele>457.57142857142856</ele><time>2026-05-02T10:20:18Z</time></trkpt><trkpt lat="43.05007556007622" lon="11.442359529249059"><ele>458.8571428571429</ele><time>2026-05-02T10:20:20Z</time></trkpt><trkpt lat="43.05010140970015" lon="11.442477512012065"><ele>460.14285714285717</ele><time>2026-05-02T10:20:22Z</time></trkpt><trkpt lat="43.050098343459425" lon="11.442564306575676"><ele>461.42857142857144</ele><time>2026-05-02T10:20:23Z</time></trkpt><trkpt lat="43.050102239271446" lon="11.442657281090533"><ele>462.7142857142858</ele><time>2026-05-02T10:20:24Z</time></trkpt><trkpt lat="43.050105449817984" lon="11.442766276656334"><ele>464.00000000000006</ele><time>2026-05-02T10:20:25Z</time></trkpt><trkpt lat="43.050114570263766" lon="11.442885662665745"><ele>465.4</ele><time>2026-05-02T10:20:26Z</time></trkpt><trkpt lat="43.050126378042926" lon="11.443006796962022"><ele>466.79999999999995</ele><time>2026-05-02T10:20:27Z</time></trkpt><trkpt lat="43.0501360215649" lon="11.443154840539636"><ele>468.20000000000005</ele><time>2026-05-02T10:20:28Z</time></trkpt><trkpt lat="43.05013129427916" lon="11.443304482368875"><ele>469.6</ele><time>2026-05-02T10:20:29Z</time></trkpt><trkpt lat="43.05011196797016" lon="11.443458610395616"><ele>471.0</ele><time>2026-05-02T10:20:30Z</time></trkpt><trkpt lat="43.05007404680088" lon="11.44363589386537"><ele>470.75</ele><time>2026-05-02T10:20:31Z</time></trkpt><trkpt lat="43.05002948894385" lon="11.443818372403785"><ele>470.5</ele><time>2026-05-02T10:20:32Z</time></trkpt><trkpt lat="43.04999075365243" lon="11.443991734836867"><ele>470.25</ele><time>2026-05-02T10:20:33Z</time></trkpt><trkpt lat="43.049962052425464" lon="11.444142649137572"><ele>470.0</ele><time>2026-05-02T10:20:34Z</time></trkpt><trkpt lat="43.049938192303564" lon="11.444295347124013"><ele>470.0</ele><time>2026-05-02T10:20:35Z</time></trkpt><trkpt lat="43.04992250652553" lon="11.444468424557213"><ele>470.0</ele><time>2026-05-02T10:20:36Z</time></trkpt><trkpt lat="43.04991941013799" lon="11.444647195463961"><ele>470.0</ele><time>2026-05-02T10:20:37Z</time></trkpt><trkpt lat="43.04992126010932" lon="11.444820173738352"><ele>470.0</ele><time>2026-05-02T10:20:38Z</time></trkpt><trkpt lat="43.04991705853078" lon="11.444981319864214"><ele>467.75</ele><time>2026-05-02T10:20:39Z</time></trkpt><trkpt lat="43.0499063559491" lon="11.44513206573837"><ele>465.5</ele><time>2026-05-02T10:20:40Z</time></trkpt><trkpt lat="43.049877698860016" lon="11.445272543039417"><ele>463.25</ele><time>2026-05-02T10:20:41Z</time></trkpt><trkpt lat="43.04983255106941" lon="11.445414578358777"><ele>461.0</ele><time>2026-05-02T10:20:42Z</time></trkpt><trkpt lat="43.04977009814493" lon="11.445565248678243"><ele>461.0</ele><time>2026-05-02T10:20:43Z</time></trkpt><trkpt lat="43.049711580112536" lon="11.44571834427706"><ele>461.0</ele><time>2026-05-02T10:20:44Z</time></trkpt><trkpt lat="43.04966902004039" lon="11.44588182671555"><ele>461.0</ele><time>2026-05-02T10:20:45Z</time></trkpt><trkpt lat="43.049641532071554" lon="11.446079061320985"><ele>461.0</ele><time>2026-05-02T10:20:46Z</time></trkpt><trkpt lat="43.049616009845245" lon="11.446277517540068"><ele>462.3333333333333</ele><time>2026-05-02T10:20:47Z</time></trkpt><trkpt lat="43.0496017502274" lon="11.446471184402574"><ele>463.66666666666663</ele><time>2026-05-02T10:20:48Z</time></trkpt><trkpt lat="43.04959504172633" lon="11.446684210491897"><ele>465.0</ele><time>2026-05-02T10:20:49Z</time></trkpt><trkpt lat="43.049593831705366" lon="11.446892137820495"><ele>465.0</ele><time>2026-05-02T10:20:50Z</time></trkpt><trkpt lat="43.049589418851575" lon="11.447103462294125"><ele>465.0</ele><time>2026-05-02T10:20:51Z</time></trkpt><trkpt lat="43.0495883081186" lon="11.447290483179964"><ele>465.0</ele><time>2026-05-02T10:20:52Z</time></trkpt><trkpt lat="43.04958340931204" lon="11.4474764640796"><ele>465.0</ele><time>2026-05-02T10:20:53Z</time></trkpt><trkpt lat="43.04958066132057" lon="11.447652504935267"><ele>465.2</ele><time>2026-05-02T10:20:54Z</time></trkpt><trkpt lat="43.04959249985541" lon="11.44781088157255"><ele>465.4</ele><time>2026-05-02T10:20:55Z</time></trkpt><trkpt lat="43.0496255159174" lon="11.447944775327418"><ele>465.6</ele><time>2026-05-02T10:20:56Z</time></trkpt><trkpt lat="43.04967155871134" lon="11.44807764363457"><ele>465.8</ele><time>2026-05-02T10:20:57Z</time></trkpt><trkpt lat="43.0496989021576" lon="11.44819432011594"><ele>466.0</ele><time>2026-05-02T10:20:58Z</time></trkpt><trkpt lat="43.04971068751884" lon="11.448299408300368"><ele>466.6</ele><time>2026-05-02T10:20:59Z</time></trkpt><trkpt lat="43.04968973571309" lon="11.448386470803111"><ele>467.20000000000005</ele><time>2026-05-02T10:21:00Z</time></trkpt><trkpt lat="43.04962798718276" lon="11.448447964715253"><ele>467.79999999999995</ele><time>2026-05-02T10:21:01Z</time></trkpt><trkpt lat="43.04954883092314" lon="11.448512819028927"><ele>468.4</ele><time>2026-05-02T10:21:02Z</time></trkpt><trkpt lat="43.0494884377697" lon="11.448624384887058"><ele>469.0</ele><time>2026-05-02T10:21:03Z</time></trkpt><trkpt lat="43.0493945252231" lon="11.448728479998392"><ele>469.6666666666667</ele><time>2026-05-02T10:21:04Z</time></trkpt><trkpt lat="43.04929763845897" lon="11.448868933166942"><ele>470.33333333333337</ele><time>2026-05-02T10:21:05Z</time></trkpt><trkpt lat="43.04919106322186" lon="11.449024159737446"><ele>471.0</ele><time>2026-05-02T10:21:06Z</time></trkpt><trkpt lat="43.04906239347933" lon="11.449190176910244"><ele>471.0</ele><time>2026-05-02T10:21:07Z</time></trkpt><trkpt lat="43.04894575159578" lon="11.449364990593724"><ele>471.0</ele><time>2026-05-02T10:21:08Z</time></trkpt><trkpt lat="43.04881716412948" lon="11.449549593831014"><ele>471.0</ele><time>2026-05-02T10:21:09Z</time></trkpt><trkpt lat="43.04869997915164" lon="11.449715425786202"><ele>474.25</ele><time>2026-05-02T10:21:10Z</time></trkpt><trkpt lat="43.048597828534206" lon="11.449864142798795"><ele>477.5</ele><time>2026-05-02T10:21:11Z</time></trkpt><trkpt lat="43.048507594689156" lon="11.449987268640381"><ele>480.75</ele><time>2026-05-02T10:21:12Z</time></trkpt><trkpt lat="43.048427895220364" lon="11.450089783256859"><ele>484.0</ele><time>2026-05-02T10:21:13Z</time></trkpt><trkpt lat="43.04834859243449" lon="11.450183606933786"><ele>483.4</ele><time>2026-05-02T10:21:14Z</time></trkpt><trkpt lat="43.048264121056704" lon="11.450256437222196"><ele>482.79999999999995</ele><time>2026-05-02T10:21:15Z</time></trkpt><trkpt lat="43.048187502627535" lon="11.450316329759394"><ele>482.20000000000005</ele><time>2026-05-02T10:21:16Z</time></trkpt><trkpt lat="43.0481364013878" lon="11.450400803997967"><ele>481.6</ele><time>2026-05-02T10:21:17Z</time></trkpt><trkpt lat="43.04807866168606" lon="11.45050324599024"><ele>481.0</ele><time>2026-05-02T10:21:18Z</time></trkpt><trkpt lat="43.04805951821263" lon="11.450640746196102"><ele>481.0</ele><time>2026-05-02T10:21:19Z</time></trkpt><trkpt lat="43.04803574576469" lon="11.450796990367861"><ele>481.0</ele><time>2026-05-02T10:21:20Z</time></trkpt><trkpt lat="43.04801257439597" lon="11.450984884436968"><ele>481.0</ele><time>2026-05-02T10:21:21Z</time></trkpt><trkpt lat="43.047985391386" lon="11.451175824243824"><ele>481.0</ele><time>2026-05-02T10:21:22Z</time></trkpt><trkpt lat="43.04795248253234" lon="11.451366139223031"><ele>482.0</ele><time>2026-05-02T10:21:23Z</time></trkpt><trkpt lat="43.04789165326379" lon="11.451548521955257"><ele>483.0</ele><time>2026-05-02T10:21:24Z</time></trkpt><trkpt lat="43.04784516291444" lon="11.451743401904187"><ele>484.0</ele><time>2026-05-02T10:21:25Z</time></trkpt><trkpt lat="43.04778449906141" lon="11.451893398994358"><ele>485.0</ele><time>2026-05-02T10:21:26Z</time></trkpt><trkpt lat="43.047740020190446" lon="11.452042448753515"><ele>486.66666666666663</ele><time>2026-05-02T10:21:27Z</time></trkpt><trkpt lat="43.04769488714379" lon="11.45223150356939"><ele>488.33333333333337</ele><time>2026-05-02T10:21:28Z</time></trkpt><trkpt lat="43.04765046504901" lon="11.452465121343714"><ele>490.0</ele><time>2026-05-02T10:21:29Z</time></trkpt><trkpt lat="43.047608089653664" lon="11.452720013968392"><ele>491.0</ele><time>2026-05-02T10:21:30Z</time></trkpt><trkpt lat="43.04756580111951" lon="11.452972130273237"><ele>492.0</ele><time>2026-05-02T10:21:31Z</time></trkpt><trkpt lat="43.04752601221455" lon="11.453187054687762"><ele>493.0</ele><time>2026-05-02T10:21:32Z</time></trkpt><trkpt lat="43.04750435490774" lon="11.453368086505773"><ele>493.0</ele><time>2026-05-02T10:21:33Z</time></trkpt><trkpt lat="43.04749018591685" lon="11.45351946570854"><ele>492.99999999999994</ele><time>2026-05-02T10:21:34Z</time></trkpt><trkpt lat="43.047473279632094" lon="11.453653496122115"><ele>492.99999999999994</ele><time>2026-05-02T10:21:35Z</time></trkpt><trkpt lat="43.04744247960628" lon="11.45376460380402"><ele>493.0</ele><time>2026-05-02T10:21:36Z</time></trkpt><trkpt lat="43.04739039529875" lon="11.453842575773054"><ele>493.0</ele><time>2026-05-02T10:21:37Z</time></trkpt><trkpt lat="43.04731159854468" lon="11.453920185100017"><ele>495.25</ele><time>2026-05-02T10:21:38Z</time></trkpt><trkpt lat="43.0472169333371" lon="11.453981336912648"><ele>497.5</ele><time>2026-05-02T10:21:39Z</time></trkpt><trkpt lat="43.04708574409662" lon="11.454033263784206"><ele>499.75</ele><time>2026-05-02T10:21:40Z</time></trkpt><trkpt lat="43.0469856333169" lon="11.45411233128258"><ele>502.0</ele><time>2026-05-02T10:21:41Z</time></trkpt><trkpt lat="43.04689712940213" lon="11.454164063639473"><ele>502.0</ele><time>2026-05-02T10:21:42Z</time></trkpt><trkpt lat="43.0468075523667" lon="11.454195131596164"><ele>502.0</ele><time>2026-05-02T10:21:43Z</time></trkpt><trkpt lat="43.04670642550428" lon="11.454258666693182"><ele>502.0</ele><time>2026-05-02T10:21:44Z</time></trkpt><trkpt lat="43.04659674554653" lon="11.454338155936542"><ele>502.0</ele><time>2026-05-02T10:21:45Z</time></trkpt><trkpt lat="43.04647487128739" lon="11.454449674110318"><ele>503.25</ele><time>2026-05-02T10:21:46Z</time></trkpt><trkpt lat="43.04637016876847" lon="11.454574399537742"><ele>504.5</ele><time>2026-05-02T10:21:47Z</time></trkpt><trkpt lat="43.0462630234158" lon="11.454660783422128"><ele>505.75</ele><time>2026-05-02T10:21:48Z</time></trkpt><trkpt lat="43.046160382258634" lon="11.4547482064011"><ele>507.0</ele><time>2026-05-02T10:21:49Z</time></trkpt><trkpt lat="43.04605021932509" lon="11.454822751058755"><ele>507.0</ele><time>2026-05-02T10:21:50Z</time></trkpt><trkpt lat="43.04593125932449" lon="11.45489972906241"><ele>507.0</ele><time>2026-05-02T10:21:51Z</time></trkpt><trkpt lat="43.045811915383425" lon="11.454972687557209"><ele>507.0</ele><time>2026-05-02T10:21:52Z</time></trkpt><trkpt lat="43.045705571216146" lon="11.455039791893034"><ele>507.0</ele><time>2026-05-02T10:21:53Z</time></trkpt><trkpt lat="43.045605937693196" lon="11.455109771225372"><ele>506.75</ele><time>2026-05-02T10:21:54Z</time></trkpt><trkpt lat="43.045528283126075" lon="11.455190817206596"><ele>506.5</ele><time>2026-05-02T10:21:55Z</time></trkpt><trkpt lat="43.04546364282677" lon="11.455304333111004"><ele>506.25</ele><time>2026-05-02T10:21:56Z</time></trkpt><trkpt lat="43.045397512458386" lon="11.455446616135925"><ele>506.0</ele><time>2026-05-02T10:21:57Z</time></trkpt><trkpt lat="43.04531654951892" lon="11.455614018038284"><ele>505.3333333333333</ele><time>2026-05-02T10:21:58Z</time></trkpt><trkpt lat="43.0452146714615" lon="11.455808935672858"><ele>504.66666666666663</ele><time>2026-05-02T10:21:59Z</time></trkpt><trkpt lat="43.045106785057925" lon="11.45600778214231"><ele>504.0</ele><time>2026-05-02T10:22:00Z</time></trkpt><trkpt lat="43.04501027252051" lon="11.456190727098262"><ele>503.5</ele><time>2026-05-02T10:22:01Z</time></trkpt><trkpt lat="43.04492783193919" lon="11.4563516533884"><ele>503.0</ele><time>2026-05-02T10:22:02Z</time></trkpt><trkpt lat="43.04486021823322" lon="11.456483308643682"><ele>502.5</ele><time>2026-05-02T10:22:03Z</time></trkpt><trkpt lat="43.04478493171548" lon="11.456598112770155"><ele>502.0</ele><time>2026-05-02T10:22:04Z</time></trkpt><trkpt lat="43.04477645695881" lon="11.456806762681639"><ele>502.0</ele><time>2026-05-02T10:22:05Z</time></trkpt><trkpt lat="43.04475737979967" lon="11.45699249100905"><ele>502.00000000000006</ele><time>2026-05-02T10:22:06Z</time></trkpt><trkpt lat="43.04473565810637" lon="11.457143313679909"><ele>502.00000000000006</ele><time>2026-05-02T10:22:07Z</time></trkpt><trkpt lat="43.04470285749945" lon="11.457265422168183"><ele>502.0</ele><time>2026-05-02T10:22:08Z</time></trkpt><trkpt lat="43.04465246898578" lon="11.457369646377378"><ele>502.0</ele><time>2026-05-02T10:22:09Z</time></trkpt><trkpt lat="43.044571453646086" lon="11.45742661546084"><ele>504.0</ele><time>2026-05-02T10:22:10Z</time></trkpt><trkpt lat="43.044463318138554" lon="11.457520391370736"><ele>506.0</ele><time>2026-05-02T10:22:11Z</time></trkpt><trkpt lat="43.04435461423387" lon="11.457639961683606"><ele>508.0</ele><time>2026-05-02T10:22:12Z</time></trkpt><trkpt lat="43.04426156381998" lon="11.457722895790663"><ele>510.0</ele><time>2026-05-02T10:22:13Z</time></trkpt><trkpt lat="43.04418034168521" lon="11.45782669732135"><ele>509.25</ele><time>2026-05-02T10:22:14Z</time></trkpt><trkpt lat="43.04407983826433" lon="11.457922561179297"><ele>508.5</ele><time>2026-05-02T10:22:15Z</time></trkpt><trkpt lat="43.04400199671879" lon="11.458087596657336"><ele>507.75</ele><time>2026-05-02T10:22:16Z</time></trkpt><trkpt lat="43.04390361938168" lon="11.458253658319022"><ele>507.0</ele><time>2026-05-02T10:22:17Z</time></trkpt><trkpt lat="43.04378082223939" lon="11.458414028933245"><ele>507.0</ele><time>2026-05-02T10:22:18Z</time></trkpt><trkpt lat="43.0436668549741" lon="11.458591906984218"><ele>507.0</ele><time>2026-05-02T10:22:19Z</time></trkpt><trkpt lat="43.04357557864217" lon="11.458770763881544"><ele>507.0</ele><time>2026-05-02T10:22:20Z</time></trkpt><trkpt lat="43.04347695840005" lon="11.458900254881263"><ele>507.0</ele><time>2026-05-02T10:22:21Z</time></trkpt><trkpt lat="43.043363282286805" lon="11.459022809372353"><ele>507.0</ele><time>2026-05-02T10:22:22Z</time></trkpt><trkpt lat="43.04324874958913" lon="11.45912233068564"><ele>507.0</ele><time>2026-05-02T10:22:23Z</time></trkpt><trkpt lat="43.04313873433569" lon="11.459200214809968"><ele>507.0</ele><time>2026-05-02T10:22:24Z</time></trkpt><trkpt lat="43.0430406999924" lon="11.459259421606435"><ele>507.0</ele><time>2026-05-02T10:22:25Z</time></trkpt><trkpt lat="43.04294350584545" lon="11.459309908257636"><ele>507.0</ele><time>2026-05-02T10:22:26Z</time></trkpt><trkpt lat="43.04287219502723" lon="11.459420964760408"><ele>507.0</ele><time>2026-05-02T10:22:27Z</time></trkpt><trkpt lat="43.0428115708873" lon="11.459553593395707"><ele>507.0</ele><time>2026-05-02T10:22:28Z</time></trkpt><trkpt lat="43.042769698539736" lon="11.45971341460372"><ele>507.8</ele><time>2026-05-02T10:22:29Z</time></trkpt><trkpt lat="43.04273420595497" lon="11.45985233370079"><ele>508.6</ele><time>2026-05-02T10:22:30Z</time></trkpt><trkpt lat="43.04270929289599" lon="11.459973143982825"><ele>509.40000000000003</ele><time>2026-05-02T10:22:31Z</time></trkpt><trkpt lat="43.04269125919515" lon="11.460094937219141"><ele>510.20000000000005</ele><time>2026-05-02T10:22:32Z</time></trkpt><trkpt lat="43.04269284516806" lon="11.460228616334904"><ele>511.0</ele><time>2026-05-02T10:22:33Z</time></trkpt><trkpt lat="43.042724903059685" lon="11.460365706160488"><ele>510.75</ele><time>2026-05-02T10:22:34Z</time></trkpt><trkpt lat="43.04279900278221" lon="11.460525008203213"><ele>510.5</ele><time>2026-05-02T10:22:35Z</time></trkpt><trkpt lat="43.04288733365354" lon="11.4606885710028"><ele>510.25</ele><time>2026-05-02T10:22:36Z</time></trkpt><trkpt lat="43.0429704512501" lon="11.46085409013025"><ele>510.0</ele><time>2026-05-02T10:22:37Z</time></trkpt><trkpt lat="43.04306627001204" lon="11.461059569167539"><ele>508.0</ele><time>2026-05-02T10:22:38Z</time></trkpt><trkpt lat="43.04316948487694" lon="11.461286463900986"><ele>506.0</ele><time>2026-05-02T10:22:38.998Z</time></trkpt><trkpt lat="43.04325755032142" lon="11.461507863695056"><ele>504.0</ele><time>2026-05-02T10:22:39.998Z</time></trkpt><trkpt lat="43.04333331094985" lon="11.461704554853956"><ele>503.0</ele><time>2026-05-02T10:22:40.998Z</time></trkpt><trkpt lat="43.043409544340825" lon="11.461897408643326"><ele>502.0</ele><time>2026-05-02T10:22:41.998Z</time></trkpt><trkpt lat="43.04348657551316" lon="11.462097117681942"><ele>501.0</ele><time>2026-05-02T10:22:42.998Z</time></trkpt><trkpt lat="43.04354696599714" lon="11.462267161870713"><ele>501.0</ele><time>2026-05-02T10:22:43.998Z</time></trkpt><trkpt lat="43.04359447710775" lon="11.462409687716908"><ele>501.0</ele><time>2026-05-02T10:22:44.998Z</time></trkpt><trkpt lat="43.04362313015652" lon="11.462529383074013"><ele>501.0</ele><time>2026-05-02T10:22:45.998Z</time></trkpt><trkpt lat="43.0436278456916" lon="11.462634056782198"><ele>501.0</ele><time>2026-05-02T10:22:46.998Z</time></trkpt><trkpt lat="43.043608119111006" lon="11.462752832266697"><ele>501.0</ele><time>2026-05-02T10:22:47.998Z</time></trkpt><trkpt lat="43.043555739724255" lon="11.462863406834275"><ele>501.0</ele><time>2026-05-02T10:22:48.998Z</time></trkpt><trkpt lat="43.043492701098934" lon="11.462986663477176"><ele>501.0</ele><time>2026-05-02T10:22:49.998Z</time></trkpt><trkpt lat="43.04338341520834" lon="11.463110870863058"><ele>501.0</ele><time>2026-05-02T10:22:50.998Z</time></trkpt><trkpt lat="43.043289941043824" lon="11.463274331874214"><ele>501.0</ele><time>2026-05-02T10:22:51.998Z</time></trkpt><trkpt lat="43.043216153319364" lon="11.463407065984509"><ele>500.5</ele><time>2026-05-02T10:22:52.998Z</time></trkpt><trkpt lat="43.043173254436" lon="11.463530914158929"><ele>500.0</ele><time>2026-05-02T10:22:53.998Z</time></trkpt><trkpt lat="43.043142016943285" lon="11.463675159729384"><ele>499.5</ele><time>2026-05-02T10:22:54.998Z</time></trkpt><trkpt lat="43.04312583016874" lon="11.463868197259155"><ele>499.0</ele><time>2026-05-02T10:22:55.998Z</time></trkpt><trkpt lat="43.04310534611811" lon="11.464078244285965"><ele>499.0</ele><time>2026-05-02T10:22:56.998Z</time></trkpt><trkpt lat="43.043076257465486" lon="11.464256538991044"><ele>499.0</ele><time>2026-05-02T10:22:57.999Z</time></trkpt><trkpt lat="43.04304279603919" lon="11.464442304924333"><ele>499.0</ele><time>2026-05-02T10:22:58.999Z</time></trkpt><trkpt lat="43.04300937438928" lon="11.46461040088708"><ele>499.0</ele><time>2026-05-02T10:22:59.999Z</time></trkpt><trkpt lat="43.04297993975978" lon="11.464757394345536"><ele>499.79999999999995</ele><time>2026-05-02T10:23:00.999Z</time></trkpt><trkpt lat="43.04294493820555" lon="11.464889225288243"><ele>500.59999999999997</ele><time>2026-05-02T10:23:01.999Z</time></trkpt><trkpt lat="43.04290105196707" lon="11.465013899277219"><ele>501.4</ele><time>2026-05-02T10:23:02.999Z</time></trkpt><trkpt lat="43.042849624982466" lon="11.465148066097163"><ele>502.2</ele><time>2026-05-02T10:23:03.999Z</time></trkpt><trkpt lat="43.04278850256539" lon="11.46528965091334"><ele>503.0</ele><time>2026-05-02T10:23:04.999Z</time></trkpt><trkpt lat="43.04272666905893" lon="11.465434790986048"><ele>502.75</ele><time>2026-05-02T10:23:05.999Z</time></trkpt><trkpt lat="43.04267984423997" lon="11.465599960575892"><ele>502.5</ele><time>2026-05-02T10:23:06.999Z</time></trkpt><trkpt lat="43.04266146024509" lon="11.465795476897862"><ele>502.25</ele><time>2026-05-02T10:23:07.999Z</time></trkpt><trkpt lat="43.04265581964611" lon="11.466033768870918"><ele>502.0</ele><time>2026-05-02T10:23:08.999Z</time></trkpt><trkpt lat="43.04264286832988" lon="11.466267732080707"><ele>501.75</ele><time>2026-05-02T10:23:09.999Z</time></trkpt><trkpt lat="43.04263041838732" lon="11.46648858377417"><ele>501.5</ele><time>2026-05-02T10:23:10.999Z</time></trkpt><trkpt lat="43.04262074490422" lon="11.46668726363852"><ele>501.25</ele><time>2026-05-02T10:23:11.999Z</time></trkpt><trkpt lat="43.04260951851842" lon="11.46685324096262"><ele>501.0</ele><time>2026-05-02T10:23:12.999Z</time></trkpt><trkpt lat="43.042598053574885" lon="11.467008166938466"><ele>500.75</ele><time>2026-05-02T10:23:13.999Z</time></trkpt><trkpt lat="43.042572201902985" lon="11.467162536008203"><ele>500.5</ele><time>2026-05-02T10:23:14.999Z</time></trkpt><trkpt lat="43.04252295208663" lon="11.46733099727134"><ele>500.25</ele><time>2026-05-02T10:23:15.999Z</time></trkpt><trkpt lat="43.04245161457485" lon="11.4675195293077"><ele>500.0</ele><time>2026-05-02T10:23:16.999Z</time></trkpt><trkpt lat="43.04236725848719" lon="11.467763415131035"><ele>501.66666666666663</ele><time>2026-05-02T10:23:17.999Z</time></trkpt><trkpt lat="43.042291539789076" lon="11.467998501090065"><ele>503.33333333333337</ele><time>2026-05-02T10:23:18.999Z</time></trkpt><trkpt lat="43.04224609206335" lon="11.468198958852188"><ele>505.0</ele><time>2026-05-02T10:23:19.999Z</time></trkpt><trkpt lat="43.04221436246477" lon="11.468360570864116"><ele>505.0</ele><time>2026-05-02T10:23:20.999Z</time></trkpt><trkpt lat="43.042189874206024" lon="11.468491090122793"><ele>505.0</ele><time>2026-05-02T10:23:21.999Z</time></trkpt><trkpt lat="43.042164206073394" lon="11.468616026595335"><ele>505.0</ele><time>2026-05-02T10:23:22.999Z</time></trkpt><trkpt lat="43.0421343447791" lon="11.468751547942281"><ele>505.0</ele><time>2026-05-02T10:23:23.999Z</time></trkpt><trkpt lat="43.042100260306256" lon="11.468890652707382"><ele>505.0</ele><time>2026-05-02T10:23:24.999Z</time></trkpt><trkpt lat="43.04204444017801" lon="11.469020565371617"><ele>505.25</ele><time>2026-05-02T10:23:25.999Z</time></trkpt><trkpt lat="43.04195370062022" lon="11.46914591793111"><ele>505.5</ele><time>2026-05-02T10:23:26.999Z</time></trkpt><trkpt lat="43.04183536099375" lon="11.469264013676895"><ele>505.75</ele><time>2026-05-02T10:23:27.999Z</time></trkpt><trkpt lat="43.041695600865" lon="11.469355490135486"><ele>506.0</ele><time>2026-05-02T10:23:28.999Z</time></trkpt><trkpt lat="43.04155476265063" lon="11.46939560372341"><ele>508.0</ele><time>2026-05-02T10:23:29.999Z</time></trkpt><trkpt lat="43.04142354640362" lon="11.469475744820496"><ele>510.0</ele><time>2026-05-02T10:23:30.999Z</time></trkpt><trkpt lat="43.04128472704091" lon="11.469548699451389"><ele>512.0</ele><time>2026-05-02T10:23:31.999Z</time></trkpt><trkpt lat="43.04114031927031" lon="11.469642591147188"><ele>513.3333333333333</ele><time>2026-05-02T10:23:32.999Z</time></trkpt><trkpt lat="43.04100253683171" lon="11.469765908467766"><ele>514.6666666666666</ele><time>2026-05-02T10:23:33.999Z</time></trkpt><trkpt lat="43.04085578070405" lon="11.469926902000756"><ele>516.0</ele><time>2026-05-02T10:23:34.999Z</time></trkpt><trkpt lat="43.040716580076555" lon="11.470101403881413"><ele>517.6666666666666</ele><time>2026-05-02T10:23:35.999Z</time></trkpt><trkpt lat="43.04058321059313" lon="11.470286610068893"><ele>519.3333333333333</ele><time>2026-05-02T10:23:36.999Z</time></trkpt><trkpt lat="43.04048052578695" lon="11.470452210885622"><ele>521.0</ele><time>2026-05-02T10:23:37.999Z</time></trkpt><trkpt lat="43.04038290828416" lon="11.470583196595749"><ele>522.75</ele><time>2026-05-02T10:23:38.999Z</time></trkpt><trkpt lat="43.04027565108981" lon="11.470675867360802"><ele>524.5</ele><time>2026-05-02T10:23:39.999Z</time></trkpt><trkpt lat="43.04014332357605" lon="11.47070778175477"><ele>526.25</ele><time>2026-05-02T10:23:41Z</time></trkpt><trkpt lat="43.03998798098166" lon="11.470776084697553"><ele>528.0</ele><time>2026-05-02T10:23:42Z</time></trkpt><trkpt lat="43.03981254413106" lon="11.470837630496298"><ele>529.3333333333334</ele><time>2026-05-02T10:23:43Z</time></trkpt><trkpt lat="43.03964647004365" lon="11.47093937219539"><ele>530.6666666666667</ele><time>2026-05-02T10:23:44Z</time></trkpt><trkpt lat="43.039487291103185" lon="11.471042186744105"><ele>532.0</ele><time>2026-05-02T10:23:45Z</time></trkpt><trkpt lat="43.03932595401407" lon="11.471137361596456"><ele>532.0</ele><time>2026-05-02T10:23:46Z</time></trkpt><trkpt lat="43.03917375550917" lon="11.471239116985977"><ele>532.0</ele><time>2026-05-02T10:23:47Z</time></trkpt><trkpt lat="43.03904869254607" lon="11.471360563971563"><ele>532.0</ele><time>2026-05-02T10:23:48Z</time></trkpt><trkpt lat="43.038929238180415" lon="11.471498714518216"><ele>532.3333333333334</ele><time>2026-05-02T10:23:49Z</time></trkpt><trkpt lat="43.03882919939835" lon="11.471663368153925"><ele>532.6666666666666</ele><time>2026-05-02T10:23:50Z</time></trkpt><trkpt lat="43.038748213288194" lon="11.471836221317426"><ele>533.0</ele><time>2026-05-02T10:23:51Z</time></trkpt><trkpt lat="43.038688346220795" lon="11.47203201198948"><ele>538.0</ele><time>2026-05-02T10:23:52Z</time></trkpt><trkpt lat="43.03865240397304" lon="11.472237787451574"><ele>543.0</ele><time>2026-05-02T10:23:53Z</time></trkpt><trkpt lat="43.03864400003104" lon="11.472453185642305"><ele>548.0</ele><time>2026-05-02T10:23:54Z</time></trkpt><trkpt lat="43.03866975293879" lon="11.472689353326073"><ele>548.0</ele><time>2026-05-02T10:23:55Z</time></trkpt><trkpt lat="43.038705374551824" lon="11.472927346823175"><ele>548.0</ele><time>2026-05-02T10:23:56Z</time></trkpt><trkpt lat="43.03872341754389" lon="11.473129656957182"><ele>548.0</ele><time>2026-05-02T10:23:57Z</time></trkpt><trkpt lat="43.038726550281694" lon="11.47330062604534"><ele>551.0</ele><time>2026-05-02T10:23:58Z</time></trkpt><trkpt lat="43.03870977120554" lon="11.473460267079332"><ele>554.0</ele><time>2026-05-02T10:23:59Z</time></trkpt><trkpt lat="43.038653034009116" lon="11.47361639167056"><ele>557.0</ele><time>2026-05-02T10:24:00Z</time></trkpt><trkpt lat="43.038556934553135" lon="11.47375051732535"><ele>560.0</ele><time>2026-05-02T10:24:01Z</time></trkpt><trkpt lat="43.03842732996495" lon="11.47386961350398"><ele>563.0</ele><time>2026-05-02T10:24:02Z</time></trkpt><trkpt lat="43.03826686922578" lon="11.473939074390413"><ele>566.0</ele><time>2026-05-02T10:24:03Z</time></trkpt><trkpt lat="43.03809924506144" lon="11.474041802850484"><ele>569.0</ele><time>2026-05-02T10:24:04Z</time></trkpt><trkpt lat="43.037941426094235" lon="11.47412131080852"><ele>569.0</ele><time>2026-05-02T10:24:05Z</time></trkpt><trkpt lat="43.03783117133192" lon="11.474201126675412"><ele>569.0</ele><time>2026-05-02T10:24:06Z</time></trkpt><trkpt lat="43.03775235898856" lon="11.47430244528404"><ele>569.0</ele><time>2026-05-02T10:24:07Z</time></trkpt><trkpt lat="43.0376930240221" lon="11.474449063333626"><ele>569.0</ele><time>2026-05-02T10:24:08Z</time></trkpt><trkpt lat="43.037664412371704" lon="11.47462663754162"><ele>573.0</ele><time>2026-05-02T10:24:09Z</time></trkpt><trkpt lat="43.03766118597883" lon="11.474820078916732"><ele>577.0</ele><time>2026-05-02T10:24:10Z</time></trkpt><trkpt lat="43.037681535638576" lon="11.475038781166049"><ele>581.0</ele><time>2026-05-02T10:24:11Z</time></trkpt><trkpt lat="43.03770622918162" lon="11.475282731262414"><ele>583.6666666666666</ele><time>2026-05-02T10:24:12Z</time></trkpt><trkpt lat="43.037714123362846" lon="11.475543476865411"><ele>586.3333333333334</ele><time>2026-05-02T10:24:13Z</time></trkpt><trkpt lat="43.03771903433713" lon="11.475815140236147"><ele>589.0</ele><time>2026-05-02T10:24:14Z</time></trkpt><trkpt lat="43.037729485323645" lon="11.476110484248256"><ele>590.5</ele><time>2026-05-02T10:24:15Z</time></trkpt><trkpt lat="43.03774011512045" lon="11.476423058487883"><ele>592.0</ele><time>2026-05-02T10:24:16Z</time></trkpt><trkpt lat="43.03775096367017" lon="11.476732583059176"><ele>592.0</ele><time>2026-05-02T10:24:17Z</time></trkpt><trkpt lat="43.03776058007032" lon="11.477005614835877"><ele>592.0</ele><time>2026-05-02T10:24:18Z</time></trkpt><trkpt lat="43.037771654108404" lon="11.477270032370155"><ele>592.0</ele><time>2026-05-02T10:24:19Z</time></trkpt><trkpt lat="43.03776437460576" lon="11.477546595691486"><ele>594.0</ele><time>2026-05-02T10:24:20Z</time></trkpt><trkpt lat="43.03772540931377" lon="11.477834327365757"><ele>596.0</ele><time>2026-05-02T10:24:21Z</time></trkpt><trkpt lat="43.037673931407454" lon="11.478125855387118"><ele>598.0</ele><time>2026-05-02T10:24:22Z</time></trkpt><trkpt lat="43.0376064700214" lon="11.478391252755028"><ele>598.0</ele><time>2026-05-02T10:24:23Z</time></trkpt><trkpt lat="43.03752149717783" lon="11.478617855492374"><ele>598.0</ele><time>2026-05-02T10:24:24Z</time></trkpt><trkpt lat="43.03739118687248" lon="11.478809679554422"><ele>598.0</ele><time>2026-05-02T10:24:25Z</time></trkpt><trkpt lat="43.037280790636" lon="11.479005549899775"><ele>598.25</ele><time>2026-05-02T10:24:26Z</time></trkpt><trkpt lat="43.03716696176166" lon="11.479167269036724"><ele>598.5</ele><time>2026-05-02T10:24:27Z</time></trkpt><trkpt lat="43.03707340562845" lon="11.479301171601985"><ele>598.75</ele><time>2026-05-02T10:24:28Z</time></trkpt><trkpt lat="43.03700161669496" lon="11.479412331622273"><ele>599.0</ele><time>2026-05-02T10:24:29Z</time></trkpt><trkpt lat="43.03694318594944" lon="11.479510512413757"><ele>599.0</ele><time>2026-05-02T10:24:30Z</time></trkpt><trkpt lat="43.036893917336585" lon="11.47958584565201"><ele>599.0</ele><time>2026-05-02T10:24:31Z</time></trkpt><trkpt lat="43.03682869925996" lon="11.479699943832335"><ele>599.0</ele><time>2026-05-02T10:24:33Z</time></trkpt><trkpt lat="43.03680139787639" lon="11.479777916174678"><ele>599.0</ele><time>2026-05-02T10:24:36Z</time></trkpt><trkpt lat="43.036951655640934" lon="11.479923430762273"><ele>599.0</ele><time>2026-05-02T10:24:37Z</time></trkpt><trkpt lat="43.03706306843362" lon="11.480016337723498"><ele>599.6666666666666</ele><time>2026-05-02T10:24:38Z</time></trkpt><trkpt lat="43.03721084388232" lon="11.48012096956038"><ele>600.3333333333334</ele><time>2026-05-02T10:24:39Z</time></trkpt><trkpt lat="43.03736279019259" lon="11.480242731901612"><ele>601.0</ele><time>2026-05-02T10:24:40Z</time></trkpt><trkpt lat="43.03754313912092" lon="11.480393379325877"><ele>596.5</ele><time>2026-05-02T10:24:41Z</time></trkpt><trkpt lat="43.03773681509611" lon="11.480562770218834"><ele>592.0</ele><time>2026-05-02T10:24:42Z</time></trkpt><trkpt lat="43.03794657451731" lon="11.480745645428659"><ele>592.0</ele><time>2026-05-02T10:24:43Z</time></trkpt><trkpt lat="43.03816554252114" lon="11.480937375969251"><ele>592.0</ele><time>2026-05-02T10:24:44Z</time></trkpt><trkpt lat="43.03838593609431" lon="11.481133769955457"><ele>590.5</ele><time>2026-05-02T10:24:44.997Z</time></trkpt><trkpt lat="43.038615971943756" lon="11.481333829933792"><ele>589.0</ele><time>2026-05-02T10:24:45.997Z</time></trkpt><trkpt lat="43.038849051490715" lon="11.481539984978804"><ele>589.0</ele><time>2026-05-02T10:24:46.997Z</time></trkpt><trkpt lat="43.039079468665726" lon="11.481743694768141"><ele>589.0</ele><time>2026-05-02T10:24:47.997Z</time></trkpt><trkpt lat="43.03931232191454" lon="11.481947172171802"><ele>597.0</ele><time>2026-05-02T10:24:48.997Z</time></trkpt><trkpt lat="43.039540761526716" lon="11.482149851406977"><ele>605.0</ele><time>2026-05-02T10:24:49.998Z</time></trkpt><trkpt lat="43.039759107383446" lon="11.482339951264946"><ele>607.5</ele><time>2026-05-02T10:24:50.998Z</time></trkpt><trkpt lat="43.039972049884874" lon="11.48252434225179"><ele>610.0</ele><time>2026-05-02T10:24:51.998Z</time></trkpt><trkpt lat="43.040191197831305" lon="11.482691073215111"><ele>610.0</ele><time>2026-05-02T10:24:52.998Z</time></trkpt><trkpt lat="43.04041504520202" lon="11.482830558303679"><ele>610.0</ele><time>2026-05-02T10:24:53.998Z</time></trkpt><trkpt lat="43.04064096206" lon="11.482934865564847"><ele>614.0</ele><time>2026-05-02T10:24:54.998Z</time></trkpt><trkpt lat="43.04086640965374" lon="11.4829974102775"><ele>618.0</ele><time>2026-05-02T10:24:55.998Z</time></trkpt><trkpt lat="43.04108476570252" lon="11.483045324637628"><ele>618.0</ele><time>2026-05-02T10:24:56.998Z</time></trkpt><trkpt lat="43.04129440127727" lon="11.483100232672568"><ele>618.0</ele><time>2026-05-02T10:24:57.998Z</time></trkpt><trkpt lat="43.04150273962254" lon="11.483161273654474"><ele>618.0</ele><time>2026-05-02T10:24:58.998Z</time></trkpt><trkpt lat="43.041720466167796" lon="11.483232930543778"><ele>615.0</ele><time>2026-05-02T10:24:59.998Z</time></trkpt><trkpt lat="43.04194094522153" lon="11.483302487434553"><ele>612.0</ele><time>2026-05-02T10:25:00.998Z</time></trkpt><trkpt lat="43.042166603483366" lon="11.483367208124871"><ele>612.0</ele><time>2026-05-02T10:25:01.998Z</time></trkpt><trkpt lat="43.042368200423965" lon="11.483425218624678"><ele>612.0</ele><time>2026-05-02T10:25:02.998Z</time></trkpt><trkpt lat="43.04255658366121" lon="11.483483170395209"><ele>612.0</ele><time>2026-05-02T10:25:03.998Z</time></trkpt><trkpt lat="43.042731793209846" lon="11.48353187211197"><ele>612.3333333333334</ele><time>2026-05-02T10:25:04.998Z</time></trkpt><trkpt lat="43.04289342900825" lon="11.483580886697338"><ele>612.6666666666667</ele><time>2026-05-02T10:25:05.999Z</time></trkpt><trkpt lat="43.043047204469474" lon="11.483627989070031"><ele>613.0</ele><time>2026-05-02T10:25:06.999Z</time></trkpt><trkpt lat="43.04319789607088" lon="11.483678438146415"><ele>613.6666666666667</ele><time>2026-05-02T10:25:07.999Z</time></trkpt><trkpt lat="43.04335714206575" lon="11.483726033398687"><ele>614.3333333333334</ele><time>2026-05-02T10:25:08.999Z</time></trkpt><trkpt lat="43.043520827009296" lon="11.483787146352888"><ele>615.0</ele><time>2026-05-02T10:25:09.999Z</time></trkpt><trkpt lat="43.043681044346286" lon="11.48387222055077"><ele>613.6666666666666</ele><time>2026-05-02T10:25:10.999Z</time></trkpt><trkpt lat="43.043848980677936" lon="11.4840122585336"><ele>612.3333333333333</ele><time>2026-05-02T10:25:11.999Z</time></trkpt><trkpt lat="43.044016646494086" lon="11.484174926226746"><ele>611.0</ele><time>2026-05-02T10:25:12.999Z</time></trkpt><trkpt lat="43.044176444061534" lon="11.484347318478921"><ele>611.0</ele><time>2026-05-02T10:25:13.999Z</time></trkpt><trkpt lat="43.04430782704342" lon="11.484505290279326"><ele>611.0</ele><time>2026-05-02T10:25:14.999Z</time></trkpt><trkpt lat="43.04443401539163" lon="11.48468110363144"><ele>611.0</ele><time>2026-05-02T10:25:15.999Z</time></trkpt><trkpt lat="43.04453815566753" lon="11.484895225116732"><ele>611.3333333333333</ele><time>2026-05-02T10:25:16.999Z</time></trkpt><trkpt lat="43.04460688060068" lon="11.485152455759831"><ele>611.6666666666666</ele><time>2026-05-02T10:25:17.999Z</time></trkpt><trkpt lat="43.04467767790521" lon="11.485404722885493"><ele>612.0</ele><time>2026-05-02T10:25:18.999Z</time></trkpt><trkpt lat="43.04475834001821" lon="11.485661633476544"><ele>612.6666666666666</ele><time>2026-05-02T10:25:19.999Z</time></trkpt><trkpt lat="43.04483013400035" lon="11.48594067824322"><ele>613.3333333333333</ele><time>2026-05-02T10:25:20.999Z</time></trkpt><trkpt lat="43.04490242626388" lon="11.486199257586597"><ele>614.0</ele><time>2026-05-02T10:25:21.999Z</time></trkpt><trkpt lat="43.04496595716386" lon="11.486434106396777"><ele>614.25</ele><time>2026-05-02T10:25:22.999Z</time></trkpt><trkpt lat="43.045018806428224" lon="11.486638556696931"><ele>614.5</ele><time>2026-05-02T10:25:23.999Z</time></trkpt><trkpt lat="43.045074112839586" lon="11.48681063040973"><ele>614.75</ele><time>2026-05-02T10:25:24.999Z</time></trkpt><trkpt lat="43.045146630885725" lon="11.486943148984723"><ele>615.0</ele><time>2026-05-02T10:25:25.999Z</time></trkpt><trkpt lat="43.04524409933101" lon="11.487031292831576"><ele>615.0</ele><time>2026-05-02T10:25:26.999Z</time></trkpt><trkpt lat="43.045361893387145" lon="11.487081924368885"><ele>615.0</ele><time>2026-05-02T10:25:27.999Z</time></trkpt><trkpt lat="43.045501394964454" lon="11.487096588082045"><ele>615.0</ele><time>2026-05-02T10:25:28.999Z</time></trkpt><trkpt lat="43.045649372946635" lon="11.48709858755663"><ele>615.0</ele><time>2026-05-02T10:25:29.999Z</time></trkpt><trkpt lat="43.04579369832038" lon="11.487108874547213"><ele>614.5</ele><time>2026-05-02T10:25:30.999Z</time></trkpt><trkpt lat="43.045915194206586" lon="11.487179785793792"><ele>614.0</ele><time>2026-05-02T10:25:31.999Z</time></trkpt><trkpt lat="43.04601793814999" lon="11.487311520461555"><ele>613.5</ele><time>2026-05-02T10:25:32.999Z</time></trkpt><trkpt lat="43.046108399315095" lon="11.48748184965935"><ele>613.0</ele><time>2026-05-02T10:25:33.999Z</time></trkpt><trkpt lat="43.046190968964964" lon="11.487682063300193"><ele>609.3333333333334</ele><time>2026-05-02T10:25:35Z</time></trkpt><trkpt lat="43.046254817370794" lon="11.487930181596637"><ele>605.6666666666666</ele><time>2026-05-02T10:25:36Z</time></trkpt><trkpt lat="43.0462882740055" lon="11.488184829849926"><ele>602.0</ele><time>2026-05-02T10:25:37Z</time></trkpt><trkpt lat="43.04634541974189" lon="11.488414854468797"><ele>602.0</ele><time>2026-05-02T10:25:38Z</time></trkpt><trkpt lat="43.04639470362876" lon="11.488657448255838"><ele>602.0</ele><time>2026-05-02T10:25:39Z</time></trkpt><trkpt lat="43.04644020864155" lon="11.488886517800497"><ele>602.0</ele><time>2026-05-02T10:25:40Z</time></trkpt><trkpt lat="43.04649900714861" lon="11.489092147507275"><ele>600.0</ele><time>2026-05-02T10:25:41Z</time></trkpt><trkpt lat="43.04657811797766" lon="11.489261475017157"><ele>598.0</ele><time>2026-05-02T10:25:42Z</time></trkpt><trkpt lat="43.046685909985854" lon="11.48939331219123"><ele>596.0</ele><time>2026-05-02T10:25:43Z</time></trkpt><trkpt lat="43.046816524026084" lon="11.489488139436382"><ele>594.0</ele><time>2026-05-02T10:25:44Z</time></trkpt><trkpt lat="43.04696583229758" lon="11.489531951320222"><ele>595.0</ele><time>2026-05-02T10:25:45Z</time></trkpt><trkpt lat="43.047123869800885" lon="11.489542131287939"><ele>596.0</ele><time>2026-05-02T10:25:46Z</time></trkpt><trkpt lat="43.04727357489169" lon="11.48955396394359"><ele>597.0</ele><time>2026-05-02T10:25:47Z</time></trkpt><trkpt lat="43.04742972666245" lon="11.4896359941283"><ele>598.5</ele><time>2026-05-02T10:25:48Z</time></trkpt><trkpt lat="43.04756654027418" lon="11.489753615751939"><ele>600.0</ele><time>2026-05-02T10:25:49Z</time></trkpt><trkpt lat="43.047677501781045" lon="11.489889156255163"><ele>601.5</ele><time>2026-05-02T10:25:50Z</time></trkpt><trkpt lat="43.04777480741896" lon="11.489998822622644"><ele>603.0</ele><time>2026-05-02T10:25:51Z</time></trkpt><trkpt lat="43.04788802439946" lon="11.490073126212"><ele>603.0</ele><time>2026-05-02T10:25:52Z</time></trkpt><trkpt lat="43.04802259793568" lon="11.490092578032119"><ele>603.0</ele><time>2026-05-02T10:25:53Z</time></trkpt><trkpt lat="43.048167435263046" lon="11.490064186322009"><ele>603.0</ele><time>2026-05-02T10:25:54Z</time></trkpt><trkpt lat="43.04832632600429" lon="11.490014132760919"><ele>603.0</ele><time>2026-05-02T10:25:55Z</time></trkpt><trkpt lat="43.048475396376986" lon="11.489969917190942"><ele>603.0</ele><time>2026-05-02T10:25:56Z</time></trkpt><trkpt lat="43.04859267288923" lon="11.489950086256227"><ele>603.0</ele><time>2026-05-02T10:25:57Z</time></trkpt><trkpt lat="43.04870472521265" lon="11.489972115251351"><ele>603.0</ele><time>2026-05-02T10:25:58Z</time></trkpt><trkpt lat="43.04880558890581" lon="11.490057183278289"><ele>603.0</ele><time>2026-05-02T10:25:59Z</time></trkpt><trkpt lat="43.04888445321118" lon="11.490201442636094"><ele>603.0</ele><time>2026-05-02T10:26:00Z</time></trkpt><trkpt lat="43.04893689386471" lon="11.490405000566424"><ele>603.0</ele><time>2026-05-02T10:26:01Z</time></trkpt><trkpt lat="43.048998910888194" lon="11.490609517628968"><ele>603.0</ele><time>2026-05-02T10:26:02Z</time></trkpt><trkpt lat="43.0490367490223" lon="11.490776287335816"><ele>603.0</ele><time>2026-05-02T10:26:03Z</time></trkpt><trkpt lat="43.04908495670302" lon="11.49092290174192"><ele>601.0</ele><time>2026-05-02T10:26:04Z</time></trkpt><trkpt lat="43.049162607041346" lon="11.491026453287843"><ele>599.0</ele><time>2026-05-02T10:26:05Z</time></trkpt><trkpt lat="43.04925704290016" lon="11.491084036308289"><ele>597.0</ele><time>2026-05-02T10:26:06Z</time></trkpt><trkpt lat="43.04937485492251" lon="11.491081276631263"><ele>595.0</ele><time>2026-05-02T10:26:07Z</time></trkpt><trkpt lat="43.04951384922231" lon="11.491046740149779"><ele>595.0</ele><time>2026-05-02T10:26:08Z</time></trkpt><trkpt lat="43.04968300942428" lon="11.490996972029839"><ele>595.0</ele><time>2026-05-02T10:26:09Z</time></trkpt><trkpt lat="43.04985961368202" lon="11.490999894841332"><ele>595.0</ele><time>2026-05-02T10:26:10Z</time></trkpt><trkpt lat="43.04998352413118" lon="11.491029669006233"><ele>595.5</ele><time>2026-05-02T10:26:11Z</time></trkpt><trkpt lat="43.05011655539796" lon="11.491003729188849"><ele>596.0</ele><time>2026-05-02T10:26:12Z</time></trkpt><trkpt lat="43.050230336256774" lon="11.490913303388053"><ele>596.5</ele><time>2026-05-02T10:26:13Z</time></trkpt><trkpt lat="43.05032337056763" lon="11.490767586635025"><ele>597.0</ele><time>2026-05-02T10:26:14Z</time></trkpt><trkpt lat="43.05041650647927" lon="11.490560738772494"><ele>601.6666666666666</ele><time>2026-05-02T10:26:15Z</time></trkpt><trkpt lat="43.050525527168475" lon="11.490300248694643"><ele>606.3333333333333</ele><time>2026-05-02T10:26:16Z</time></trkpt><trkpt lat="43.05064835901888" lon="11.490069921925155"><ele>611.0</ele><time>2026-05-02T10:26:17Z</time></trkpt><trkpt lat="43.05073300460988" lon="11.489881395232034"><ele>608.75</ele><time>2026-05-02T10:26:18Z</time></trkpt><trkpt lat="43.05080354761032" lon="11.489728791474292"><ele>606.5</ele><time>2026-05-02T10:26:19Z</time></trkpt><trkpt lat="43.050869953517314" lon="11.489599118269508"><ele>604.25</ele><time>2026-05-02T10:26:20Z</time></trkpt><trkpt lat="43.05097174229397" lon="11.489517598242731"><ele>602.0</ele><time>2026-05-02T10:26:21Z</time></trkpt><trkpt lat="43.05108558843246" lon="11.489497204652896"><ele>602.0</ele><time>2026-05-02T10:26:22Z</time></trkpt><trkpt lat="43.051195863740894" lon="11.489551005825842"><ele>602.0</ele><time>2026-05-02T10:26:23Z</time></trkpt><trkpt lat="43.05129287698367" lon="11.489704911474158"><ele>602.0</ele><time>2026-05-02T10:26:24Z</time></trkpt><trkpt lat="43.051366088630054" lon="11.489869394197648"><ele>602.0</ele><time>2026-05-02T10:26:25Z</time></trkpt><trkpt lat="43.051443609725325" lon="11.490073610715458"><ele>597.6666666666666</ele><time>2026-05-02T10:26:26Z</time></trkpt><trkpt lat="43.05153331063795" lon="11.490298943286865"><ele>593.3333333333334</ele><time>2026-05-02T10:26:27Z</time></trkpt><trkpt lat="43.051616308533205" lon="11.490483139119581"><ele>589.0</ele><time>2026-05-02T10:26:28Z</time></trkpt><trkpt lat="43.05172038520133" lon="11.49063289327961"><ele>585.0</ele><time>2026-05-02T10:26:29.001Z</time></trkpt><trkpt lat="43.05184473877052" lon="11.490769942099563"><ele>581.0</ele><time>2026-05-02T10:26:30.001Z</time></trkpt><trkpt lat="43.05196864124541" lon="11.490885715330144"><ele>577.0</ele><time>2026-05-02T10:26:31.001Z</time></trkpt><trkpt lat="43.05209087912151" lon="11.490970897152108"><ele>573.0</ele><time>2026-05-02T10:26:32.001Z</time></trkpt><trkpt lat="43.05221776086185" lon="11.49100440248588"><ele>573.0</ele><time>2026-05-02T10:26:33.001Z</time></trkpt><trkpt lat="43.052341297582444" lon="11.491001685543253"><ele>573.0</ele><time>2026-05-02T10:26:34.001Z</time></trkpt><trkpt lat="43.052461042463115" lon="11.490966762555168"><ele>573.0</ele><time>2026-05-02T10:26:35.001Z</time></trkpt><trkpt lat="43.052563906945075" lon="11.490912381314027"><ele>573.0</ele><time>2026-05-02T10:26:36.001Z</time></trkpt><trkpt lat="43.05265281853999" lon="11.490857776867252"><ele>573.6666666666666</ele><time>2026-05-02T10:26:37.001Z</time></trkpt><trkpt lat="43.05273896711997" lon="11.490802432687271"><ele>574.3333333333334</ele><time>2026-05-02T10:26:38.001Z</time></trkpt><trkpt lat="43.05282088503055" lon="11.490744852594103"><ele>575.0</ele><time>2026-05-02T10:26:39.001Z</time></trkpt><trkpt lat="43.05290057417863" lon="11.490692769268138"><ele>575.6666666666667</ele><time>2026-05-02T10:26:40.001Z</time></trkpt><trkpt lat="43.052972737802136" lon="11.490631351080138"><ele>576.3333333333334</ele><time>2026-05-02T10:26:41.001Z</time></trkpt><trkpt lat="43.053032179411225" lon="11.490549112689894"><ele>577.0</ele><time>2026-05-02T10:26:42.001Z</time></trkpt><trkpt lat="43.05308379107073" lon="11.490454490169746"><ele>579.3333333333334</ele><time>2026-05-02T10:26:43.001Z</time></trkpt><trkpt lat="43.05312145955482" lon="11.490352350529406"><ele>581.6666666666667</ele><time>2026-05-02T10:26:44.001Z</time></trkpt><trkpt lat="43.053150282897754" lon="11.490246900597004"><ele>584.0</ele><time>2026-05-02T10:26:45.001Z</time></trkpt><trkpt lat="43.05317502360696" lon="11.490139054875188"><ele>586.3333333333334</ele><time>2026-05-02T10:26:46.001Z</time></trkpt><trkpt lat="43.05319690488672" lon="11.49003890235175"><ele>588.6666666666666</ele><time>2026-05-02T10:26:47.001Z</time></trkpt><trkpt lat="43.05321631387169" lon="11.48994832173187"><ele>591.0</ele><time>2026-05-02T10:26:48.001Z</time></trkpt><trkpt lat="43.05323292101632" lon="11.489863518938497"><ele>591.0</ele><time>2026-05-02T10:26:49.001Z</time></trkpt><trkpt lat="43.053258408247515" lon="11.489702921603708"><ele>591.0</ele><time>2026-05-02T10:26:50.998Z</time></trkpt><trkpt lat="43.053294559120665" lon="11.489536348580941"><ele>591.0</ele><time>2026-05-02T10:26:52.998Z</time></trkpt><trkpt lat="43.053313405963266" lon="11.489448191390244"><ele>591.0</ele><time>2026-05-02T10:26:53.998Z</time></trkpt><trkpt lat="43.05333136853694" lon="11.489356499518966"><ele>591.0</ele><time>2026-05-02T10:26:54.998Z</time></trkpt><trkpt lat="43.05335216985231" lon="11.489263830544386"><ele>586.6</ele><time>2026-05-02T10:26:55.998Z</time></trkpt><trkpt lat="43.053384826165" lon="11.489167418388858"><ele>582.2</ele><time>2026-05-02T10:26:56.998Z</time></trkpt><trkpt lat="43.05343552823061" lon="11.489071645978848"><ele>577.8</ele><time>2026-05-02T10:26:57.998Z</time></trkpt><trkpt lat="43.05350507570072" lon="11.488993943694524"><ele>573.4</ele><time>2026-05-02T10:26:58.998Z</time></trkpt><trkpt lat="43.05358922287775" lon="11.488928465237228"><ele>569.0</ele><time>2026-05-02T10:26:59.998Z</time></trkpt><trkpt lat="43.053687894148595" lon="11.488883291355673"><ele>569.0</ele><time>2026-05-02T10:27:00.998Z</time></trkpt><trkpt lat="43.05377905275441" lon="11.488852749094292"><ele>569.0</ele><time>2026-05-02T10:27:01.998Z</time></trkpt><trkpt lat="43.053859855618875" lon="11.488830995310344"><ele>569.0</ele><time>2026-05-02T10:27:02.998Z</time></trkpt><trkpt lat="43.05393313257032" lon="11.488805892082429"><ele>569.0</ele><time>2026-05-02T10:27:03.998Z</time></trkpt><trkpt lat="43.05400260009429" lon="11.48878678939451"><ele>569.0</ele><time>2026-05-02T10:27:04.998Z</time></trkpt><trkpt lat="43.05412198559653" lon="11.48874749933227"><ele>569.0</ele><time>2026-05-02T10:27:06.998Z</time></trkpt><trkpt lat="43.054237399933456" lon="11.488707386642686"><ele>568.3333333333333</ele><time>2026-05-02T10:27:08.998Z</time></trkpt><trkpt lat="43.054334208292644" lon="11.488690424737705"><ele>567.6666666666666</ele><time>2026-05-02T10:27:10.999Z</time></trkpt><trkpt lat="43.05440925435657" lon="11.488699990225703"><ele>567.0</ele><time>2026-05-02T10:27:13.999Z</time></trkpt><trkpt lat="43.05448227771299" lon="11.48870782294396"><ele>566.3333333333334</ele><time>2026-05-02T10:27:16.999Z</time></trkpt><trkpt lat="43.05454980519629" lon="11.488718631863575"><ele>565.6666666666667</ele><time>2026-05-02T10:27:19.999Z</time></trkpt><trkpt lat="43.054641863457235" lon="11.48874152757529"><ele>565.0</ele><time>2026-05-02T10:27:22.999Z</time></trkpt><trkpt lat="43.054704358393494" lon="11.488795234986519"><ele>563.3333333333334</ele><time>2026-05-02T10:27:24.999Z</time></trkpt><trkpt lat="43.0547715275481" lon="11.488836451659774"><ele>561.6666666666667</ele><time>2026-05-02T10:27:26.999Z</time></trkpt><trkpt lat="43.05483695611293" lon="11.488868039983666"><ele>560.0</ele><time>2026-05-02T10:27:28.999Z</time></trkpt><trkpt lat="43.05489639188752" lon="11.488926262679898"><ele>558.3333333333334</ele><time>2026-05-02T10:27:31Z</time></trkpt><trkpt lat="43.05495796795025" lon="11.488979947655023"><ele>556.6666666666666</ele><time>2026-05-02T10:27:33Z</time></trkpt><trkpt lat="43.05503973271261" lon="11.489055025220775"><ele>555.0</ele><time>2026-05-02T10:27:35Z</time></trkpt><trkpt lat="43.055137648695855" lon="11.489111994790004"><ele>554.7142857142858</ele><time>2026-05-02T10:27:37Z</time></trkpt><trkpt lat="43.05520161804147" lon="11.489110848676797"><ele>554.4285714285714</ele><time>2026-05-02T10:27:38Z</time></trkpt><trkpt lat="43.0552673917719" lon="11.489093851281739"><ele>554.1428571428571</ele><time>2026-05-02T10:27:39Z</time></trkpt><trkpt lat="43.05534077069541" lon="11.48907203779348"><ele>553.8571428571429</ele><time>2026-05-02T10:27:40Z</time></trkpt><trkpt lat="43.05541876863425" lon="11.489047849577032"><ele>553.5714285714286</ele><time>2026-05-02T10:27:41Z</time></trkpt><trkpt lat="43.055498412642244" lon="11.489020822979363"><ele>553.2857142857143</ele><time>2026-05-02T10:27:42Z</time></trkpt><trkpt lat="43.055574542882574" lon="11.488994762855238"><ele>553.0</ele><time>2026-05-02T10:27:43Z</time></trkpt><trkpt lat="43.055638489264936" lon="11.488970503234782"><ele>553.0</ele><time>2026-05-02T10:27:44Z</time></trkpt><trkpt lat="43.05576284422318" lon="11.488967671588322"><ele>553.0</ele><time>2026-05-02T10:27:46Z</time></trkpt><trkpt lat="43.05585624336499" lon="11.489009486165562"><ele>553.0</ele><time>2026-05-02T10:27:48Z</time></trkpt><trkpt lat="43.055946743548525" lon="11.48905576905289"><ele>553.0</ele><time>2026-05-02T10:27:50Z</time></trkpt><trkpt lat="43.05606360066139" lon="11.489064742110802"><ele>553.0</ele><time>2026-05-02T10:27:52Z</time></trkpt><trkpt lat="43.05613642439692" lon="11.489045065046763"><ele>552.5</ele><time>2026-05-02T10:27:53Z</time></trkpt><trkpt lat="43.05621385324003" lon="11.489021861775981"><ele>552.0</ele><time>2026-05-02T10:27:54Z</time></trkpt><trkpt lat="43.05628654427531" lon="11.488989836171944"><ele>551.5</ele><time>2026-05-02T10:27:55Z</time></trkpt><trkpt lat="43.056351497706" lon="11.488959187523834"><ele>551.0</ele><time>2026-05-02T10:27:56Z</time></trkpt><trkpt lat="43.0564652150237" lon="11.48891418113179"><ele>550.5</ele><time>2026-05-02T10:27:58Z</time></trkpt><trkpt lat="43.05656240452327" lon="11.488871884454518"><ele>550.0</ele><time>2026-05-02T10:28:00Z</time></trkpt><trkpt lat="43.05664466842588" lon="11.488836367368688"><ele>550.0</ele><time>2026-05-02T10:28:02Z</time></trkpt><trkpt lat="43.05674046189384" lon="11.48878538467594"><ele>550.0</ele><time>2026-05-02T10:28:04Z</time></trkpt><trkpt lat="43.05680254497004" lon="11.48874054794927"><ele>550.0</ele><time>2026-05-02T10:28:05Z</time></trkpt><trkpt lat="43.056851595371135" lon="11.488643444094507"><ele>550.0</ele><time>2026-05-02T10:28:06Z</time></trkpt><trkpt lat="43.056910565969346" lon="11.488546696839403"><ele>550.0</ele><time>2026-05-02T10:28:07.001Z</time></trkpt><trkpt lat="43.05696703250515" lon="11.4884364079792"><ele>547.6666666666667</ele><time>2026-05-02T10:28:08.001Z</time></trkpt><trkpt lat="43.057014953618776" lon="11.488344287770902"><ele>545.3333333333334</ele><time>2026-05-02T10:28:09.001Z</time></trkpt><trkpt lat="43.057057741085316" lon="11.488256304862215"><ele>543.0</ele><time>2026-05-02T10:28:10.001Z</time></trkpt><trkpt lat="43.057102759754734" lon="11.488161604580643"><ele>540.6666666666666</ele><time>2026-05-02T10:28:11.001Z</time></trkpt><trkpt lat="43.05714712734627" lon="11.488065480807528"><ele>538.3333333333333</ele><time>2026-05-02T10:28:12.001Z</time></trkpt><trkpt lat="43.057197156312064" lon="11.48797044967603"><ele>536.0</ele><time>2026-05-02T10:28:13.001Z</time></trkpt><trkpt lat="43.05724805855032" lon="11.487864806147147"><ele>537.0</ele><time>2026-05-02T10:28:14.001Z</time></trkpt><trkpt lat="43.05730185080874" lon="11.487758453975932"><ele>538.0</ele><time>2026-05-02T10:28:15.001Z</time></trkpt><trkpt lat="43.05736181863933" lon="11.48764737704241"><ele>539.0</ele><time>2026-05-02T10:28:16.001Z</time></trkpt><trkpt lat="43.057421018024556" lon="11.487539074978642"><ele>540.0</ele><time>2026-05-02T10:28:17.001Z</time></trkpt><trkpt lat="43.05749538653977" lon="11.487429042296599"><ele>541.0</ele><time>2026-05-02T10:28:18.001Z</time></trkpt><trkpt lat="43.057581265924554" lon="11.487314593789725"><ele>541.0</ele><time>2026-05-02T10:28:19.001Z</time></trkpt><trkpt lat="43.05767835328128" lon="11.487206633101732"><ele>541.0</ele><time>2026-05-02T10:28:20.001Z</time></trkpt><trkpt lat="43.05776078843273" lon="11.487107854151102"><ele>541.0</ele><time>2026-05-02T10:28:21.001Z</time></trkpt><trkpt lat="43.05784978983346" lon="11.487009698954111"><ele>541.0</ele><time>2026-05-02T10:28:22.001Z</time></trkpt><trkpt lat="43.05792812232709" lon="11.486908297434397"><ele>542.4</ele><time>2026-05-02T10:28:23.001Z</time></trkpt><trkpt lat="43.05801091670205" lon="11.486813815139206"><ele>543.8</ele><time>2026-05-02T10:28:24.001Z</time></trkpt><trkpt lat="43.058098430970816" lon="11.486719922362024"><ele>545.1999999999999</ele><time>2026-05-02T10:28:25.001Z</time></trkpt><trkpt lat="43.05817599168926" lon="11.48663154835377"><ele>546.6</ele><time>2026-05-02T10:28:26.001Z</time></trkpt><trkpt lat="43.05824598027984" lon="11.486550087433162"><ele>548.0</ele><time>2026-05-02T10:28:27.001Z</time></trkpt><trkpt lat="43.05830699619299" lon="11.4864792990504"><ele>548.0000000000001</ele><time>2026-05-02T10:28:28.001Z</time></trkpt><trkpt lat="43.05840080984083" lon="11.48641903965717"><ele>548.0</ele><time>2026-05-02T10:28:30.001Z</time></trkpt><trkpt lat="43.05845814672781" lon="11.486380431008529"><ele>548.0</ele><time>2026-05-02T10:28:32.001Z</time></trkpt><trkpt lat="43.058514433177" lon="11.486454564776587"><ele>548.0</ele><time>2026-05-02T10:28:34.001Z</time></trkpt><trkpt lat="43.05858823910431" lon="11.486430249616637"><ele>548.0</ele><time>2026-05-02T10:28:42.001Z</time></trkpt><trkpt lat="43.05863994610798" lon="11.486380247544574"><ele>548.0000000000001</ele><time>2026-05-02T10:28:45.001Z</time></trkpt><trkpt lat="43.05869676259955" lon="11.486339888153719"><ele>548.0</ele><time>2026-05-02T10:28:49.001Z</time></trkpt><trkpt lat="43.05863181617247" lon="11.486355005211212"><ele>548.0</ele><time>2026-05-02T10:28:59.997Z</time></trkpt><trkpt lat="43.058565579185824" lon="11.486407548494283"><ele>548.0</ele><time>2026-05-02T10:29:02.997Z</time></trkpt><trkpt lat="43.05849251118681" lon="11.486380766337692"><ele>548.0</ele><time>2026-05-02T10:29:18.999Z</time></trkpt><trkpt lat="43.05842564021715" lon="11.486355688770367"><ele>548.0</ele><time>2026-05-02T10:29:20.999Z</time></trkpt><trkpt lat="43.05833786417861" lon="11.486416523330895"><ele>548.0</ele><time>2026-05-02T10:29:22.999Z</time></trkpt><trkpt lat="43.058112093584604" lon="11.486670138423078"><ele>546.6</ele><time>2026-05-02T10:29:26.999Z</time></trkpt><trkpt lat="43.0580043175543" lon="11.486801041350763"><ele>545.1999999999999</ele><time>2026-05-02T10:29:27.999Z</time></trkpt><trkpt lat="43.05792772783803" lon="11.486889527644001"><ele>543.8</ele><time>2026-05-02T10:29:28.999Z</time></trkpt><trkpt lat="43.057856114358145" lon="11.486975517955438"><ele>542.4</ele><time>2026-05-02T10:29:29.999Z</time></trkpt><trkpt lat="43.05778368295918" lon="11.487058223265294"><ele>541.0</ele><time>2026-05-02T10:29:30.999Z</time></trkpt><trkpt lat="43.057704828338466" lon="11.487148155194019"><ele>541.0</ele><time>2026-05-02T10:29:31.999Z</time></trkpt><trkpt lat="43.05762182177171" lon="11.487241292123928"><ele>541.0</ele><time>2026-05-02T10:29:32.999Z</time></trkpt><trkpt lat="43.057546330000214" lon="11.487329344611885"><ele>541.0</ele><time>2026-05-02T10:29:34Z</time></trkpt><trkpt lat="43.05747396861404" lon="11.487424832437878"><ele>541.0</ele><time>2026-05-02T10:29:35Z</time></trkpt><trkpt lat="43.05740518778542" lon="11.487523758196819"><ele>541.0</ele><time>2026-05-02T10:29:36Z</time></trkpt><trkpt lat="43.05734555640939" lon="11.487634609900981"><ele>540.1666666666667</ele><time>2026-05-02T10:29:37Z</time></trkpt><trkpt lat="43.05728562091188" lon="11.487741755590328"><ele>539.3333333333334</ele><time>2026-05-02T10:29:38Z</time></trkpt><trkpt lat="43.057217993334014" lon="11.487840335161998"><ele>538.5</ele><time>2026-05-02T10:29:39Z</time></trkpt><trkpt lat="43.05717328970149" lon="11.487931546628193"><ele>537.6666666666666</ele><time>2026-05-02T10:29:40Z</time></trkpt><trkpt lat="43.057134404323854" lon="11.488011649687019"><ele>536.8333333333333</ele><time>2026-05-02T10:29:41Z</time></trkpt><trkpt lat="43.05709492833763" lon="11.488092328301118"><ele>536.0</ele><time>2026-05-02T10:29:42Z</time></trkpt><trkpt lat="43.057059201480925" lon="11.488170366523274"><ele>536.0</ele><time>2026-05-02T10:29:43Z</time></trkpt><trkpt lat="43.057001658475805" lon="11.48828730468522"><ele>536.0</ele><time>2026-05-02T10:29:45Z</time></trkpt><trkpt lat="43.05694705551906" lon="11.488392582308883"><ele>536.0</ele><time>2026-05-02T10:29:47Z</time></trkpt><trkpt lat="43.05690516591094" lon="11.488487804295028"><ele>536.0</ele><time>2026-05-02T10:29:49Z</time></trkpt><trkpt lat="43.05685735098734" lon="11.488548408586947"><ele>536.0</ele><time>2026-05-02T10:29:51Z</time></trkpt><trkpt lat="43.056787827764026" lon="11.488654040487079"><ele>536.0</ele><time>2026-05-02T10:29:55Z</time></trkpt><trkpt lat="43.056703800413466" lon="11.488754368941429"><ele>538.6</ele><time>2026-05-02T10:29:57Z</time></trkpt><trkpt lat="43.05660743131455" lon="11.488816073144582"><ele>541.2</ele><time>2026-05-02T10:29:59Z</time></trkpt><trkpt lat="43.056535682109235" lon="11.488844277847846"><ele>543.8</ele><time>2026-05-02T10:30:00Z</time></trkpt><trkpt lat="43.05644118993786" lon="11.488881984368547"><ele>546.4</ele><time>2026-05-02T10:30:01.001Z</time></trkpt><trkpt lat="43.05635425703966" lon="11.488918436293737"><ele>549.0</ele><time>2026-05-02T10:30:02.001Z</time></trkpt><trkpt lat="43.05626466062759" lon="11.48895728059217"><ele>549.0</ele><time>2026-05-02T10:30:03.001Z</time></trkpt><trkpt lat="43.056171630025666" lon="11.488990843121176"><ele>549.0</ele><time>2026-05-02T10:30:04.001Z</time></trkpt><trkpt lat="43.0560798538129" lon="11.48902473539745"><ele>549.0</ele><time>2026-05-02T10:30:05.001Z</time></trkpt><trkpt lat="43.05600163839286" lon="11.489039268409297"><ele>549.0</ele><time>2026-05-02T10:30:06.001Z</time></trkpt><trkpt lat="43.055932645858206" lon="11.489014124259349"><ele>549.0</ele><time>2026-05-02T10:30:07.001Z</time></trkpt><trkpt lat="43.05586391044827" lon="11.4889837120827"><ele>549.0</ele><time>2026-05-02T10:30:08.001Z</time></trkpt><trkpt lat="43.055791160061325" lon="11.488939521419866"><ele>549.6666666666666</ele><time>2026-05-02T10:30:09.001Z</time></trkpt><trkpt lat="43.055720303118285" lon="11.488916334034675"><ele>550.3333333333334</ele><time>2026-05-02T10:30:10.001Z</time></trkpt><trkpt lat="43.05563144182464" lon="11.488909492980302"><ele>551.0</ele><time>2026-05-02T10:30:11.001Z</time></trkpt><trkpt lat="43.05556440019122" lon="11.48894362017404"><ele>551.6666666666667</ele><time>2026-05-02T10:30:12.001Z</time></trkpt><trkpt lat="43.05547304111161" lon="11.48895380959926"><ele>552.3333333333334</ele><time>2026-05-02T10:30:14.001Z</time></trkpt><trkpt lat="43.05541041302148" lon="11.488969515032586"><ele>553.0</ele><time>2026-05-02T10:30:16.001Z</time></trkpt><trkpt lat="43.05531925337106" lon="11.488974441974712"><ele>553.0</ele><time>2026-05-02T10:30:20.001Z</time></trkpt><trkpt lat="43.055235997925294" lon="11.488996226128785"><ele>553.0</ele><time>2026-05-02T10:30:23.001Z</time></trkpt><trkpt lat="43.05516357433211" lon="11.489002147396759"><ele>553.0</ele><time>2026-05-02T10:30:26.001Z</time></trkpt><trkpt lat="43.05511976013994" lon="11.488728337669816"><ele>553.0</ele><time>2026-05-02T10:30:31.001Z</time></trkpt><trkpt lat="43.05505311518229" lon="11.488771289081559"><ele>553.0</ele><time>2026-05-02T10:30:34.002Z</time></trkpt><trkpt lat="43.05500219481556" lon="11.488839990836833"><ele>553.0</ele><time>2026-05-02T10:30:37.002Z</time></trkpt><trkpt lat="43.05502776254064" lon="11.488954360808327"><ele>553.0</ele><time>2026-05-02T10:31:22.999Z</time></trkpt><trkpt lat="43.05506606362428" lon="11.489055314862789"><ele>553.0</ele><time>2026-05-02T10:31:25.999Z</time></trkpt><trkpt lat="43.05511737357766" lon="11.489114716827242"><ele>553.0</ele><time>2026-05-02T10:31:27.999Z</time></trkpt><trkpt lat="43.055177326804284" lon="11.489052488910113"><ele>553.0</ele><time>2026-05-02T10:31:30.999Z</time></trkpt><trkpt lat="43.055127572023494" lon="11.488997827154098"><ele>553.0</ele><time>2026-05-02T10:31:38Z</time></trkpt><trkpt lat="43.055105442842866" lon="11.488685691059974"><ele>554.0</ele><time>2026-05-02T10:31:41Z</time></trkpt><trkpt lat="43.055102976254496" lon="11.488589207494403"><ele>554.0</ele><time>2026-05-02T10:31:44Z</time></trkpt><trkpt lat="43.05504372573224" lon="11.488687144227315"><ele>554.0</ele><time>2026-05-02T10:31:53Z</time></trkpt><trkpt lat="43.05507810941312" lon="11.488569215288871"><ele>554.0</ele><time>2026-05-02T10:31:56Z</time></trkpt><trkpt lat="43.05504168972439" lon="11.48868552232865"><ele>554.0</ele><time>2026-05-02T10:32:06.001Z</time></trkpt><trkpt lat="43.05509104986013" lon="11.488566962157666"><ele>554.0</ele><time>2026-05-02T10:32:10.001Z</time></trkpt></trkseg><trkseg><trkpt lat="43.05505544702503" lon="11.488767047746826"><ele>553.0</ele><time>2026-05-02T11:34:29Z</time></trkpt><trkpt lat="43.05502769874862" lon="11.488872625763229"><ele>553.0</ele><time>2026-05-02T11:34:31Z</time></trkpt><trkpt lat="43.055008272314076" lon="11.488993750148591"><ele>553.0</ele><time>2026-05-02T11:34:36Z</time></trkpt><trkpt lat="43.05503810276926" lon="11.489101707622407"><ele>553.0</ele><time>2026-05-02T11:34:38Z</time></trkpt><trkpt lat="43.05502079083059" lon="11.489200992950115"><ele>553.0</ele><time>2026-05-02T11:34:42Z</time></trkpt><trkpt lat="43.05495533020618" lon="11.48922019861137"><ele>553.0</ele><time>2026-05-02T11:34:44Z</time></trkpt><trkpt lat="43.05484485284205" lon="11.48922515293929"><ele>553.3333333333334</ele><time>2026-05-02T11:34:46Z</time></trkpt><trkpt lat="43.05478170309118" lon="11.48922559678722"><ele>553.6666666666667</ele><time>2026-05-02T11:34:47Z</time></trkpt><trkpt lat="43.05471205261579" lon="11.48923883316106"><ele>554.0</ele><time>2026-05-02T11:34:48Z</time></trkpt><trkpt lat="43.054628972243044" lon="11.489255173839592"><ele>554.3333333333334</ele><time>2026-05-02T11:34:49Z</time></trkpt><trkpt lat="43.05452742080057" lon="11.48927622409039"><ele>554.6666666666666</ele><time>2026-05-02T11:34:50Z</time></trkpt><trkpt lat="43.05443395268242" lon="11.489282464843924"><ele>555.0</ele><time>2026-05-02T11:34:51Z</time></trkpt><trkpt lat="43.05436341487984" lon="11.489290747342656"><ele>555.0</ele><time>2026-05-02T11:34:52Z</time></trkpt><trkpt lat="43.05427083848295" lon="11.489317210754049"><ele>555.0</ele><time>2026-05-02T11:34:53Z</time></trkpt><trkpt lat="43.05419973658968" lon="11.489371461978578"><ele>555.0</ele><time>2026-05-02T11:34:54Z</time></trkpt><trkpt lat="43.0541469426766" lon="11.489445788329027"><ele>555.0</ele><time>2026-05-02T11:34:55Z</time></trkpt><trkpt lat="43.054108150706035" lon="11.489546949166787"><ele>555.0</ele><time>2026-05-02T11:34:56Z</time></trkpt><trkpt lat="43.054083546147524" lon="11.489659341748611"><ele>555.0</ele><time>2026-05-02T11:34:57Z</time></trkpt><trkpt lat="43.05408915605815" lon="11.489783064507376"><ele>553.2</ele><time>2026-05-02T11:34:58Z</time></trkpt><trkpt lat="43.05411994315289" lon="11.489907119168128"><ele>551.4</ele><time>2026-05-02T11:34:59Z</time></trkpt><trkpt lat="43.05417595977957" lon="11.490021558135801"><ele>549.6</ele><time>2026-05-02T11:35:00Z</time></trkpt><trkpt lat="43.05425062914402" lon="11.49011324428593"><ele>547.8</ele><time>2026-05-02T11:35:01Z</time></trkpt><trkpt lat="43.05434106957587" lon="11.490190150287951"><ele>546.0</ele><time>2026-05-02T11:35:02Z</time></trkpt><trkpt lat="43.05444959843227" lon="11.490260039842564"><ele>546.0</ele><time>2026-05-02T11:35:03Z</time></trkpt><trkpt lat="43.05455567083541" lon="11.490359030919278"><ele>546.0</ele><time>2026-05-02T11:35:04Z</time></trkpt><trkpt lat="43.05466656556869" lon="11.490479864655184"><ele>546.0</ele><time>2026-05-02T11:35:05Z</time></trkpt><trkpt lat="43.05478051604489" lon="11.490620903423498"><ele>546.0</ele><time>2026-05-02T11:35:06Z</time></trkpt><trkpt lat="43.05486168212692" lon="11.490736412540796"><ele>544.4</ele><time>2026-05-02T11:35:07Z</time></trkpt><trkpt lat="43.05493695022499" lon="11.490843538926587"><ele>542.8</ele><time>2026-05-02T11:35:08Z</time></trkpt><trkpt lat="43.05498818863622" lon="11.490964614189203"><ele>541.1999999999999</ele><time>2026-05-02T11:35:09Z</time></trkpt><trkpt lat="43.05504885562622" lon="11.491061700436637"><ele>539.6</ele><time>2026-05-02T11:35:10Z</time></trkpt><trkpt lat="43.055093392819444" lon="11.491176174164941"><ele>538.0</ele><time>2026-05-02T11:35:11Z</time></trkpt><trkpt lat="43.05513500799565" lon="11.49128535174566"><ele>534.5</ele><time>2026-05-02T11:35:12Z</time></trkpt><trkpt lat="43.055179198800715" lon="11.491388067817427"><ele>531.0</ele><time>2026-05-02T11:35:13Z</time></trkpt><trkpt lat="43.05522414539781" lon="11.491481140229634"><ele>527.5</ele><time>2026-05-02T11:35:14Z</time></trkpt><trkpt lat="43.05526127888036" lon="11.491569290059056"><ele>524.0</ele><time>2026-05-02T11:35:15Z</time></trkpt><trkpt lat="43.05530807637626" lon="11.491643710000451"><ele>520.5</ele><time>2026-05-02T11:35:16Z</time></trkpt><trkpt lat="43.05538292055281" lon="11.491750962501962"><ele>517.0</ele><time>2026-05-02T11:35:18Z</time></trkpt><trkpt lat="43.05543463261352" lon="11.491822637333156"><ele>517.0</ele><time>2026-05-02T11:35:20Z</time></trkpt><trkpt lat="43.05540248830409" lon="11.491922170585479"><ele>517.0</ele><time>2026-05-02T11:35:23Z</time></trkpt><trkpt lat="43.055317977219985" lon="11.491826692141418"><ele>517.0</ele><time>2026-05-02T11:35:25Z</time></trkpt><trkpt lat="43.0552486758292" lon="11.491734940205188"><ele>517.0</ele><time>2026-05-02T11:35:26Z</time></trkpt><trkpt lat="43.05518825169291" lon="11.49162233454841"><ele>517.0</ele><time>2026-05-02T11:35:27Z</time></trkpt><trkpt lat="43.05512146725877" lon="11.491529859017904"><ele>517.0</ele><time>2026-05-02T11:35:28Z</time></trkpt><trkpt lat="43.05505948342813" lon="11.49144712519835"><ele>517.0</ele><time>2026-05-02T11:35:29Z</time></trkpt><trkpt lat="43.05500009202664" lon="11.491369196964193"><ele>517.0</ele><time>2026-05-02T11:35:30Z</time></trkpt><trkpt lat="43.0549433407212" lon="11.491281408760928"><ele>517.0</ele><time>2026-05-02T11:35:31Z</time></trkpt><trkpt lat="43.05488623202124" lon="11.491189416405405"><ele>517.0</ele><time>2026-05-02T11:35:32Z</time></trkpt><trkpt lat="43.05483072732082" lon="11.49110477209615"><ele>517.0</ele><time>2026-05-02T11:35:33Z</time></trkpt><trkpt lat="43.05477051954408" lon="11.491022084384337"><ele>520.5</ele><time>2026-05-02T11:35:34Z</time></trkpt><trkpt lat="43.054709608942005" lon="11.490952821484319"><ele>524.0</ele><time>2026-05-02T11:35:35Z</time></trkpt><trkpt lat="43.05463413226099" lon="11.490911234512206"><ele>527.5</ele><time>2026-05-02T11:35:36Z</time></trkpt><trkpt lat="43.05455097718027" lon="11.49091467775159"><ele>531.0</ele><time>2026-05-02T11:35:37Z</time></trkpt><trkpt lat="43.05446560809699" lon="11.490951351750406"><ele>534.5</ele><time>2026-05-02T11:35:38Z</time></trkpt><trkpt lat="43.054393760075236" lon="11.491026967561927"><ele>538.0</ele><time>2026-05-02T11:35:39Z</time></trkpt><trkpt lat="43.05434546656171" lon="11.491131658670952"><ele>537.5</ele><time>2026-05-02T11:35:40Z</time></trkpt><trkpt lat="43.05432459519386" lon="11.491260817625202"><ele>537.0</ele><time>2026-05-02T11:35:41Z</time></trkpt><trkpt lat="43.05433934092772" lon="11.49141837514047"><ele>536.5</ele><time>2026-05-02T11:35:42Z</time></trkpt><trkpt lat="43.05437861092706" lon="11.491608888107377"><ele>536.0</ele><time>2026-05-02T11:35:43Z</time></trkpt><trkpt lat="43.05439907583055" lon="11.491852640168156"><ele>536.0</ele><time>2026-05-02T11:35:44Z</time></trkpt><trkpt lat="43.05442713014728" lon="11.492060906612233"><ele>536.0</ele><time>2026-05-02T11:35:44.998Z</time></trkpt><trkpt lat="43.05443723076564" lon="11.492238035718994"><ele>536.0</ele><time>2026-05-02T11:35:45.998Z</time></trkpt><trkpt lat="43.05443665147126" lon="11.49239560315514"><ele>536.0</ele><time>2026-05-02T11:35:46.998Z</time></trkpt><trkpt lat="43.05442871875632" lon="11.492557713063174"><ele>533.6</ele><time>2026-05-02T11:35:47.998Z</time></trkpt><trkpt lat="43.05441543014884" lon="11.49270693446324"><ele>531.2</ele><time>2026-05-02T11:35:48.998Z</time></trkpt><trkpt lat="43.05439159572934" lon="11.492852547941824"><ele>528.8</ele><time>2026-05-02T11:35:49.998Z</time></trkpt><trkpt lat="43.05435077604462" lon="11.493002364770271"><ele>526.4</ele><time>2026-05-02T11:35:50.998Z</time></trkpt><trkpt lat="43.054294231269495" lon="11.493136547979407"><ele>524.0</ele><time>2026-05-02T11:35:51.998Z</time></trkpt><trkpt lat="43.05423239009069" lon="11.493243220587141"><ele>522.0</ele><time>2026-05-02T11:35:52.998Z</time></trkpt><trkpt lat="43.054160642404575" lon="11.493343332280796"><ele>520.0</ele><time>2026-05-02T11:35:53.998Z</time></trkpt><trkpt lat="43.05407669085715" lon="11.493438907403513"><ele>518.0</ele><time>2026-05-02T11:35:54.998Z</time></trkpt><trkpt lat="43.05398454727491" lon="11.4935199602099"><ele>516.0</ele><time>2026-05-02T11:35:55.998Z</time></trkpt><trkpt lat="43.05388726697012" lon="11.493598462025078"><ele>514.0</ele><time>2026-05-02T11:35:56.998Z</time></trkpt><trkpt lat="43.05379526076723" lon="11.49367655516638"><ele>512.8</ele><time>2026-05-02T11:35:57.998Z</time></trkpt><trkpt lat="43.05370979142752" lon="11.493768862935166"><ele>511.59999999999997</ele><time>2026-05-02T11:35:58.999Z</time></trkpt><trkpt lat="43.053637811233465" lon="11.493877480080439"><ele>510.4</ele><time>2026-05-02T11:35:59.999Z</time></trkpt><trkpt lat="43.05358104485782" lon="11.493998609316964"><ele>509.2</ele><time>2026-05-02T11:36:00.999Z</time></trkpt><trkpt lat="43.05352700304887" lon="11.494135556274848"><ele>508.0</ele><time>2026-05-02T11:36:01.999Z</time></trkpt><trkpt lat="43.05348650487457" lon="11.49429963190231"><ele>508.0</ele><time>2026-05-02T11:36:02.999Z</time></trkpt><trkpt lat="43.05346646748462" lon="11.494477510925652"><ele>508.0</ele><time>2026-05-02T11:36:03.999Z</time></trkpt><trkpt lat="43.053464916425504" lon="11.49465885173964"><ele>508.0</ele><time>2026-05-02T11:36:04.999Z</time></trkpt><trkpt lat="43.05347897789097" lon="11.49484280794896"><ele>508.0</ele><time>2026-05-02T11:36:05.999Z</time></trkpt><trkpt lat="43.0534923975346" lon="11.495002585269253"><ele>507.25</ele><time>2026-05-02T11:36:06.999Z</time></trkpt><trkpt lat="43.05349970558542" lon="11.495153724757467"><ele>506.5</ele><time>2026-05-02T11:36:07.999Z</time></trkpt><trkpt lat="43.0535158502175" lon="11.495318942571357"><ele>505.75</ele><time>2026-05-02T11:36:08.999Z</time></trkpt><trkpt lat="43.05352859503273" lon="11.495489019421434"><ele>505.0</ele><time>2026-05-02T11:36:09.999Z</time></trkpt><trkpt lat="43.053539464923" lon="11.49566102911894"><ele>504.75</ele><time>2026-05-02T11:36:10.999Z</time></trkpt><trkpt lat="43.05354253015329" lon="11.495842987974177"><ele>504.5</ele><time>2026-05-02T11:36:11.999Z</time></trkpt><trkpt lat="43.05353534571143" lon="11.496039537197525"><ele>504.25</ele><time>2026-05-02T11:36:12.999Z</time></trkpt><trkpt lat="43.05350975110579" lon="11.49621301805466"><ele>504.0</ele><time>2026-05-02T11:36:13.999Z</time></trkpt><trkpt lat="43.053486838595205" lon="11.496384464705164"><ele>503.0</ele><time>2026-05-02T11:36:14.999Z</time></trkpt><trkpt lat="43.053468419508796" lon="11.496534929134494"><ele>502.0</ele><time>2026-05-02T11:36:15.999Z</time></trkpt><trkpt lat="43.053451871768054" lon="11.49667650488143"><ele>501.0</ele><time>2026-05-02T11:36:16.999Z</time></trkpt><trkpt lat="43.053424569107285" lon="11.49682726205888"><ele>500.0</ele><time>2026-05-02T11:36:17.999Z</time></trkpt><trkpt lat="43.05340342225394" lon="11.496981065602004"><ele>499.0</ele><time>2026-05-02T11:36:18.999Z</time></trkpt><trkpt lat="43.05337122188211" lon="11.497135149132312"><ele>498.25</ele><time>2026-05-02T11:36:19.999Z</time></trkpt><trkpt lat="43.053330564883986" lon="11.497286591876891"><ele>497.5</ele><time>2026-05-02T11:36:20.999Z</time></trkpt><trkpt lat="43.05328188627455" lon="11.497433572705729"><ele>496.75</ele><time>2026-05-02T11:36:21.999Z</time></trkpt><trkpt lat="43.05323096564995" lon="11.497580952328889"><ele>496.0</ele><time>2026-05-02T11:36:22.999Z</time></trkpt><trkpt lat="43.05317788468638" lon="11.497728279510365"><ele>497.33333333333337</ele><time>2026-05-02T11:36:23.999Z</time></trkpt><trkpt lat="43.05309389373369" lon="11.497876977064198"><ele>498.66666666666663</ele><time>2026-05-02T11:36:24.999Z</time></trkpt><trkpt lat="43.053001808494315" lon="11.49807788684819"><ele>500.0</ele><time>2026-05-02T11:36:25.999Z</time></trkpt><trkpt lat="43.05289893735986" lon="11.498308209526158"><ele>500.0</ele><time>2026-05-02T11:36:26.999Z</time></trkpt><trkpt lat="43.052792123840696" lon="11.4985550597368"><ele>500.0</ele><time>2026-05-02T11:36:27.999Z</time></trkpt><trkpt lat="43.052682134403994" lon="11.498821805612717"><ele>500.0</ele><time>2026-05-02T11:36:28.999Z</time></trkpt><trkpt lat="43.052578389014" lon="11.499115481736203"><ele>495.0</ele><time>2026-05-02T11:36:29.999Z</time></trkpt><trkpt lat="43.0524563099154" lon="11.499399406772966"><ele>490.0</ele><time>2026-05-02T11:36:30.999Z</time></trkpt><trkpt lat="43.05234481160512" lon="11.499663379451283"><ele>486.33333333333337</ele><time>2026-05-02T11:36:31.999Z</time></trkpt><trkpt lat="43.05224463162763" lon="11.49990087023705"><ele>482.66666666666663</ele><time>2026-05-02T11:36:32.999Z</time></trkpt><trkpt lat="43.05215119030415" lon="11.500122818937257"><ele>479.0</ele><time>2026-05-02T11:36:33.999Z</time></trkpt><trkpt lat="43.052066259871914" lon="11.500328687926554"><ele>477.3333333333333</ele><time>2026-05-02T11:36:34.999Z</time></trkpt><trkpt lat="43.05199461224571" lon="11.500516264147004"><ele>475.66666666666663</ele><time>2026-05-02T11:36:35.999Z</time></trkpt><trkpt lat="43.051935086556774" lon="11.500715732180693"><ele>474.0</ele><time>2026-05-02T11:36:36.999Z</time></trkpt><trkpt lat="43.05190660867997" lon="11.500934618950195"><ele>474.0</ele><time>2026-05-02T11:36:37.999Z</time></trkpt><trkpt lat="43.05189460210254" lon="11.50117612490168"><ele>474.0</ele><time>2026-05-02T11:36:38.999Z</time></trkpt><trkpt lat="43.051906275689625" lon="11.501430375053335"><ele>474.0</ele><time>2026-05-02T11:36:39.999Z</time></trkpt><trkpt lat="43.05192226845359" lon="11.501688264287335"><ele>472.33333333333337</ele><time>2026-05-02T11:36:40.999Z</time></trkpt><trkpt lat="43.051937491272895" lon="11.501942433110399"><ele>470.6666666666667</ele><time>2026-05-02T11:36:41.999Z</time></trkpt><trkpt lat="43.051897508193235" lon="11.50215880015024"><ele>469.0</ele><time>2026-05-02T11:36:42.999Z</time></trkpt><trkpt lat="43.05185187000977" lon="11.502340748960446"><ele>468.25</ele><time>2026-05-02T11:36:43.999Z</time></trkpt><trkpt lat="43.05180029723575" lon="11.502521608408767"><ele>467.5</ele><time>2026-05-02T11:36:44.999Z</time></trkpt><trkpt lat="43.05176139332131" lon="11.502709397431829"><ele>466.75</ele><time>2026-05-02T11:36:45.999Z</time></trkpt><trkpt lat="43.05172184777641" lon="11.502905530441659"><ele>466.0</ele><time>2026-05-02T11:36:46.999Z</time></trkpt><trkpt lat="43.051720520739515" lon="11.503095311450606"><ele>465.5</ele><time>2026-05-02T11:36:47.999Z</time></trkpt><trkpt lat="43.05175376864729" lon="11.503268339825945"><ele>465.0</ele><time>2026-05-02T11:36:48.999Z</time></trkpt><trkpt lat="43.051818529049385" lon="11.503435370312458"><ele>464.5</ele><time>2026-05-02T11:36:49.999Z</time></trkpt><trkpt lat="43.05190943503652" lon="11.50361182097552"><ele>464.0</ele><time>2026-05-02T11:36:50.999Z</time></trkpt><trkpt lat="43.05198950921227" lon="11.503817553586652"><ele>461.3333333333333</ele><time>2026-05-02T11:36:51.999Z</time></trkpt><trkpt lat="43.05208597650915" lon="11.50402937847571"><ele>458.66666666666663</ele><time>2026-05-02T11:36:52.999Z</time></trkpt><trkpt lat="43.052162960967266" lon="11.504218871022541"><ele>456.0</ele><time>2026-05-02T11:36:53.999Z</time></trkpt><trkpt lat="43.052218082913456" lon="11.504383767046534"><ele>456.0</ele><time>2026-05-02T11:36:54.999Z</time></trkpt><trkpt lat="43.052263109832126" lon="11.50453270578988"><ele>456.0</ele><time>2026-05-02T11:36:55.999Z</time></trkpt><trkpt lat="43.052289919910336" lon="11.504665488089586"><ele>456.0</ele><time>2026-05-02T11:36:56.999Z</time></trkpt><trkpt lat="43.052295423508646" lon="11.504794527692175"><ele>456.0</ele><time>2026-05-02T11:36:57.999Z</time></trkpt><trkpt lat="43.05229046889762" lon="11.504905442593481"><ele>456.0</ele><time>2026-05-02T11:36:59Z</time></trkpt><trkpt lat="43.05230091437648" lon="11.505052894686935"><ele>456.4</ele><time>2026-05-02T11:37:01Z</time></trkpt><trkpt lat="43.0524181737666" lon="11.50507646406631"><ele>456.8</ele><time>2026-05-02T11:37:03Z</time></trkpt><trkpt lat="43.052495722603744" lon="11.505035987849812"><ele>457.19999999999993</ele><time>2026-05-02T11:37:04Z</time></trkpt><trkpt lat="43.052586084530425" lon="11.504993514627284"><ele>457.59999999999997</ele><time>2026-05-02T11:37:05Z</time></trkpt><trkpt lat="43.05268456860146" lon="11.504985459407314"><ele>458.0</ele><time>2026-05-02T11:37:06Z</time></trkpt><trkpt lat="43.05279256105675" lon="11.50509130827315"><ele>458.0</ele><time>2026-05-02T11:37:07Z</time></trkpt><trkpt lat="43.05290493284225" lon="11.505169157295422"><ele>458.0</ele><time>2026-05-02T11:37:08Z</time></trkpt><trkpt lat="43.0530149557006" lon="11.505255332375857"><ele>458.0</ele><time>2026-05-02T11:37:09Z</time></trkpt><trkpt lat="43.05311856996066" lon="11.505336132219192"><ele>458.0</ele><time>2026-05-02T11:37:10Z</time></trkpt><trkpt lat="43.05317042409566" lon="11.505464275025245"><ele>457.5</ele><time>2026-05-02T11:37:11Z</time></trkpt><trkpt lat="43.053213961007906" lon="11.505582447657208"><ele>457.0</ele><time>2026-05-02T11:37:12Z</time></trkpt><trkpt lat="43.05325161482549" lon="11.505712052023744"><ele>456.5</ele><time>2026-05-02T11:37:13Z</time></trkpt><trkpt lat="43.053254348582094" lon="11.505871699477641"><ele>456.0</ele><time>2026-05-02T11:37:14Z</time></trkpt><trkpt lat="43.053234812668535" lon="11.506083658471685"><ele>455.0</ele><time>2026-05-02T11:37:15Z</time></trkpt><trkpt lat="43.05320189796824" lon="11.506345816537227"><ele>454.0</ele><time>2026-05-02T11:37:16Z</time></trkpt><trkpt lat="43.05316582520919" lon="11.506647251307715"><ele>453.0</ele><time>2026-05-02T11:37:17Z</time></trkpt><trkpt lat="43.05312784383953" lon="11.50697310154804"><ele>449.0</ele><time>2026-05-02T11:37:18Z</time></trkpt><trkpt lat="43.053085013111854" lon="11.50732637397865"><ele>445.0</ele><time>2026-05-02T11:37:19Z</time></trkpt><trkpt lat="43.05304669510268" lon="11.507655279518216"><ele>442.0</ele><time>2026-05-02T11:37:20Z</time></trkpt><trkpt lat="43.05301872975843" lon="11.507949328739135"><ele>439.0</ele><time>2026-05-02T11:37:21Z</time></trkpt><trkpt lat="43.05298346311702" lon="11.508219655721941"><ele>436.0</ele><time>2026-05-02T11:37:22Z</time></trkpt><trkpt lat="43.052967798027495" lon="11.50848659221733"><ele>433.33333333333337</ele><time>2026-05-02T11:37:23Z</time></trkpt><trkpt lat="43.05297583207675" lon="11.508765370842772"><ele>430.66666666666663</ele><time>2026-05-02T11:37:24Z</time></trkpt><trkpt lat="43.053014493213645" lon="11.509062845989602"><ele>428.0</ele><time>2026-05-02T11:37:25Z</time></trkpt><trkpt lat="43.053075067320464" lon="11.509359745870013"><ele>425.3333333333333</ele><time>2026-05-02T11:37:26Z</time></trkpt><trkpt lat="43.05314100334631" lon="11.50960895229011"><ele>422.66666666666663</ele><time>2026-05-02T11:37:27Z</time></trkpt><trkpt lat="43.05320314265909" lon="11.509821086993531"><ele>420.0</ele><time>2026-05-02T11:37:28Z</time></trkpt><trkpt lat="43.053274030050986" lon="11.51001554056887"><ele>419.33333333333337</ele><time>2026-05-02T11:37:29Z</time></trkpt><trkpt lat="43.05337454363897" lon="11.510194520380283"><ele>418.6666666666667</ele><time>2026-05-02T11:37:30Z</time></trkpt><trkpt lat="43.053521171975966" lon="11.5103587783902"><ele>418.0</ele><time>2026-05-02T11:37:31Z</time></trkpt><trkpt lat="43.05370143522329" lon="11.510509787899284"><ele>418.0</ele><time>2026-05-02T11:37:32Z</time></trkpt><trkpt lat="43.05389120833617" lon="11.510621734828602"><ele>418.0</ele><time>2026-05-02T11:37:33Z</time></trkpt><trkpt lat="43.054081548003644" lon="11.510668705065282"><ele>418.0</ele><time>2026-05-02T11:37:34Z</time></trkpt><trkpt lat="43.05426654483491" lon="11.51065710708443"><ele>417.33333333333337</ele><time>2026-05-02T11:37:35Z</time></trkpt><trkpt lat="43.05444056188587" lon="11.510576833817675"><ele>416.66666666666663</ele><time>2026-05-02T11:37:36Z</time></trkpt><trkpt lat="43.05460092772697" lon="11.510451077344722"><ele>416.0</ele><time>2026-05-02T11:37:37Z</time></trkpt><trkpt lat="43.054741857474845" lon="11.510267631853367"><ele>415.3333333333333</ele><time>2026-05-02T11:37:38Z</time></trkpt><trkpt lat="43.05488442196164" lon="11.510063203710418"><ele>414.66666666666663</ele><time>2026-05-02T11:37:39Z</time></trkpt><trkpt lat="43.05500836726734" lon="11.509806754957706"><ele>414.0</ele><time>2026-05-02T11:37:40Z</time></trkpt><trkpt lat="43.05511825861186" lon="11.509500362638525"><ele>414.0</ele><time>2026-05-02T11:37:41Z</time></trkpt><trkpt lat="43.055204523445155" lon="11.509199453471764"><ele>414.0</ele><time>2026-05-02T11:37:42Z</time></trkpt><trkpt lat="43.055344983097406" lon="11.508983768783454"><ele>414.0</ele><time>2026-05-02T11:37:43Z</time></trkpt><trkpt lat="43.055493898905794" lon="11.508779667751192"><ele>414.33333333333337</ele><time>2026-05-02T11:37:44Z</time></trkpt><trkpt lat="43.0556437635424" lon="11.508598493040434"><ele>414.6666666666667</ele><time>2026-05-02T11:37:45Z</time></trkpt><trkpt lat="43.05576005162541" lon="11.508424846469342"><ele>415.0</ele><time>2026-05-02T11:37:46Z</time></trkpt><trkpt lat="43.055861278617115" lon="11.508291698985932"><ele>409.33333333333337</ele><time>2026-05-02T11:37:47Z</time></trkpt><trkpt lat="43.055922686025355" lon="11.508137099435785"><ele>403.66666666666663</ele><time>2026-05-02T11:37:48Z</time></trkpt><trkpt lat="43.055960747659256" lon="11.507946703346661"><ele>398.0</ele><time>2026-05-02T11:37:49Z</time></trkpt><trkpt lat="43.05596524418153" lon="11.507700148549644"><ele>397.3333333333333</ele><time>2026-05-02T11:37:50Z</time></trkpt><trkpt lat="43.05595635257415" lon="11.507444872791405"><ele>396.66666666666663</ele><time>2026-05-02T11:37:50.997Z</time></trkpt><trkpt lat="43.055933129228215" lon="11.507230909590104"><ele>396.0</ele><time>2026-05-02T11:37:51.997Z</time></trkpt><trkpt lat="43.05588278274377" lon="11.50704906278732"><ele>394.0</ele><time>2026-05-02T11:37:52.997Z</time></trkpt><trkpt lat="43.055804643658384" lon="11.506886945850782"><ele>392.0</ele><time>2026-05-02T11:37:53.997Z</time></trkpt><trkpt lat="43.05569176610096" lon="11.506719545760662"><ele>390.0</ele><time>2026-05-02T11:37:54.997Z</time></trkpt><trkpt lat="43.05556844688924" lon="11.506543847669006"><ele>394.0</ele><time>2026-05-02T11:37:55.997Z</time></trkpt><trkpt lat="43.05548822199276" lon="11.506358204816706"><ele>398.0</ele><time>2026-05-02T11:37:56.997Z</time></trkpt><trkpt lat="43.05545197859856" lon="11.506146571905948"><ele>402.0</ele><time>2026-05-02T11:37:57.997Z</time></trkpt><trkpt lat="43.05546707633584" lon="11.505915116052874"><ele>402.0</ele><time>2026-05-02T11:37:58.997Z</time></trkpt><trkpt lat="43.05552898198211" lon="11.505666566754766"><ele>402.0</ele><time>2026-05-02T11:37:59.998Z</time></trkpt><trkpt lat="43.05565667534309" lon="11.505422360273078"><ele>402.0</ele><time>2026-05-02T11:38:00.998Z</time></trkpt><trkpt lat="43.055750691454904" lon="11.505142270025262"><ele>394.0</ele><time>2026-05-02T11:38:01.998Z</time></trkpt><trkpt lat="43.05586834592558" lon="11.504868328517968"><ele>386.0</ele><time>2026-05-02T11:38:02.998Z</time></trkpt><trkpt lat="43.056000283694146" lon="11.504596149115311"><ele>387.3333333333333</ele><time>2026-05-02T11:38:03.998Z</time></trkpt><trkpt lat="43.05612404502917" lon="11.504354982349973"><ele>388.66666666666663</ele><time>2026-05-02T11:38:04.998Z</time></trkpt><trkpt lat="43.05625226002878" lon="11.504158611064272"><ele>390.0</ele><time>2026-05-02T11:38:05.998Z</time></trkpt><trkpt lat="43.05638915024144" lon="11.503998411733106"><ele>390.0</ele><time>2026-05-02T11:38:06.998Z</time></trkpt><trkpt lat="43.05655797199072" lon="11.503900122695743"><ele>390.0</ele><time>2026-05-02T11:38:07.998Z</time></trkpt><trkpt lat="43.056734107106486" lon="11.503781179237498"><ele>390.0</ele><time>2026-05-02T11:38:08.998Z</time></trkpt><trkpt lat="43.05690448090826" lon="11.503675794694244"><ele>388.5</ele><time>2026-05-02T11:38:09.998Z</time></trkpt><trkpt lat="43.05704908649447" lon="11.50359337666167"><ele>387.0</ele><time>2026-05-02T11:38:10.998Z</time></trkpt><trkpt lat="43.0571783417568" lon="11.5035396539326"><ele>385.5</ele><time>2026-05-02T11:38:11.998Z</time></trkpt><trkpt lat="43.057306678310674" lon="11.503496801494052"><ele>384.0</ele><time>2026-05-02T11:38:12.998Z</time></trkpt><trkpt lat="43.05742214856801" lon="11.50343223018532"><ele>381.0</ele><time>2026-05-02T11:38:13.998Z</time></trkpt><trkpt lat="43.057539108328086" lon="11.503390429612523"><ele>378.0</ele><time>2026-05-02T11:38:14.999Z</time></trkpt><trkpt lat="43.05763938927268" lon="11.503324028355365"><ele>375.0</ele><time>2026-05-02T11:38:15.999Z</time></trkpt><trkpt lat="43.05772379417313" lon="11.503213858161015"><ele>372.0</ele><time>2026-05-02T11:38:16.999Z</time></trkpt><trkpt lat="43.05777372399072" lon="11.503054202483323"><ele>372.6</ele><time>2026-05-02T11:38:17.999Z</time></trkpt><trkpt lat="43.05778705191343" lon="11.502887149932672"><ele>373.20000000000005</ele><time>2026-05-02T11:38:18.999Z</time></trkpt><trkpt lat="43.05777329215755" lon="11.502736122954971"><ele>373.8</ele><time>2026-05-02T11:38:19.999Z</time></trkpt><trkpt lat="43.057784037100454" lon="11.502594142218259"><ele>374.4</ele><time>2026-05-02T11:38:20.999Z</time></trkpt><trkpt lat="43.05779943769829" lon="11.502456729946209"><ele>375.0</ele><time>2026-05-02T11:38:21.999Z</time></trkpt><trkpt lat="43.05783584123587" lon="11.502323487031239"><ele>375.0</ele><time>2026-05-02T11:38:22.999Z</time></trkpt><trkpt lat="43.05789396192725" lon="11.502216532706809"><ele>375.0</ele><time>2026-05-02T11:38:23.999Z</time></trkpt><trkpt lat="43.057973218246964" lon="11.502132148707892"><ele>375.0</ele><time>2026-05-02T11:38:24.999Z</time></trkpt><trkpt lat="43.05806823597964" lon="11.502079730818023"><ele>375.0</ele><time>2026-05-02T11:38:25.999Z</time></trkpt><trkpt lat="43.05817608624396" lon="11.502049311171927"><ele>375.0</ele><time>2026-05-02T11:38:26.999Z</time></trkpt><trkpt lat="43.058279523047226" lon="11.502012645417038"><ele>372.75</ele><time>2026-05-02T11:38:27.999Z</time></trkpt><trkpt lat="43.05838530745517" lon="11.502026953760469"><ele>370.5</ele><time>2026-05-02T11:38:28.999Z</time></trkpt><trkpt lat="43.05849701973991" lon="11.502080815806647"><ele>368.25</ele><time>2026-05-02T11:38:29.999Z</time></trkpt><trkpt lat="43.05859941097267" lon="11.50220244349717"><ele>366.0</ele><time>2026-05-02T11:38:30.999Z</time></trkpt><trkpt lat="43.05869971924736" lon="11.502313887636948"><ele>364.75</ele><time>2026-05-02T11:38:31.999Z</time></trkpt><trkpt lat="43.05880263784701" lon="11.502418146580363"><ele>363.5</ele><time>2026-05-02T11:38:32.999Z</time></trkpt><trkpt lat="43.05889923863672" lon="11.50253493156795"><ele>362.25</ele><time>2026-05-02T11:38:33.999Z</time></trkpt><trkpt lat="43.05899648753133" lon="11.502647005821489"><ele>361.0</ele><time>2026-05-02T11:38:34.999Z</time></trkpt><trkpt lat="43.05909708542934" lon="11.502765408931692"><ele>361.25</ele><time>2026-05-02T11:38:35.999Z</time></trkpt><trkpt lat="43.0592025982008" lon="11.50286923289929"><ele>361.5</ele><time>2026-05-02T11:38:36.999Z</time></trkpt><trkpt lat="43.059324913568496" lon="11.502943910629952"><ele>361.75</ele><time>2026-05-02T11:38:37.999Z</time></trkpt><trkpt lat="43.059456407265266" lon="11.502993027078036"><ele>362.0</ele><time>2026-05-02T11:38:38.999Z</time></trkpt><trkpt lat="43.05957636714917" lon="11.503021084175426"><ele>357.0</ele><time>2026-05-02T11:38:39.999Z</time></trkpt><trkpt lat="43.05970688444243" lon="11.503044219153407"><ele>352.0</ele><time>2026-05-02T11:38:40.999Z</time></trkpt><trkpt lat="43.05984252962002" lon="11.50305912861078"><ele>347.0</ele><time>2026-05-02T11:38:41.999Z</time></trkpt><trkpt lat="43.05996737341695" lon="11.503061751567818"><ele>342.0</ele><time>2026-05-02T11:38:42.999Z</time></trkpt><trkpt lat="43.06009217872144" lon="11.503048984883073"><ele>341.0</ele><time>2026-05-02T11:38:43.999Z</time></trkpt><trkpt lat="43.060225078319284" lon="11.503006088183843"><ele>340.0</ele><time>2026-05-02T11:38:44.999Z</time></trkpt><trkpt lat="43.06035085422079" lon="11.502928223971914"><ele>339.0</ele><time>2026-05-02T11:38:45.999Z</time></trkpt><trkpt lat="43.06046376148675" lon="11.502810384098561"><ele>338.0</ele><time>2026-05-02T11:38:46.999Z</time></trkpt><trkpt lat="43.0605616215638" lon="11.502661484371192"><ele>339.0</ele><time>2026-05-02T11:38:47.999Z</time></trkpt><trkpt lat="43.06066525859141" lon="11.502523998289513"><ele>340.0</ele><time>2026-05-02T11:38:49Z</time></trkpt><trkpt lat="43.060744973312026" lon="11.502360507287774"><ele>341.0</ele><time>2026-05-02T11:38:50Z</time></trkpt><trkpt lat="43.06085522028067" lon="11.50223171039876"><ele>342.0</ele><time>2026-05-02T11:38:51Z</time></trkpt><trkpt lat="43.06097809415191" lon="11.502146841856575"><ele>342.0</ele><time>2026-05-02T11:38:52Z</time></trkpt><trkpt lat="43.0611191344154" lon="11.502102097819616"><ele>342.0</ele><time>2026-05-02T11:38:53Z</time></trkpt><trkpt lat="43.061256899616495" lon="11.502062501582612"><ele>342.0</ele><time>2026-05-02T11:38:54Z</time></trkpt><trkpt lat="43.061400490561425" lon="11.502042599524218"><ele>342.0</ele><time>2026-05-02T11:38:55Z</time></trkpt><trkpt lat="43.06155021520915" lon="11.502000033688661"><ele>342.0</ele><time>2026-05-02T11:38:56Z</time></trkpt><trkpt lat="43.06170394189658" lon="11.50191839677208"><ele>342.0</ele><time>2026-05-02T11:38:57Z</time></trkpt><trkpt lat="43.06184576609794" lon="11.501784108149467"><ele>342.0</ele><time>2026-05-02T11:38:58Z</time></trkpt><trkpt lat="43.06198892678325" lon="11.501652936288338"><ele>342.0</ele><time>2026-05-02T11:38:59Z</time></trkpt><trkpt lat="43.06212023303323" lon="11.501510913174307"><ele>342.0</ele><time>2026-05-02T11:39:00Z</time></trkpt><trkpt lat="43.06226861361817" lon="11.501364911599929"><ele>342.0</ele><time>2026-05-02T11:39:01Z</time></trkpt><trkpt lat="43.06240602929763" lon="11.501231205732402"><ele>340.3333333333333</ele><time>2026-05-02T11:39:02Z</time></trkpt><trkpt lat="43.06255470348933" lon="11.501132665296248"><ele>338.66666666666663</ele><time>2026-05-02T11:39:03Z</time></trkpt><trkpt lat="43.06270847334622" lon="11.50103652454724"><ele>337.0</ele><time>2026-05-02T11:39:04Z</time></trkpt><trkpt lat="43.062877019873575" lon="11.500986530904397"><ele>337.0</ele><time>2026-05-02T11:39:05Z</time></trkpt><trkpt lat="43.063045668026945" lon="11.50101362274191"><ele>337.0</ele><time>2026-05-02T11:39:06Z</time></trkpt><trkpt lat="43.06323198069955" lon="11.501084044121454"><ele>337.0</ele><time>2026-05-02T11:39:07Z</time></trkpt><trkpt lat="43.06341812922549" lon="11.50117529606075"><ele>332.3333333333333</ele><time>2026-05-02T11:39:08Z</time></trkpt><trkpt lat="43.06359190417666" lon="11.50126843151712"><ele>327.6666666666667</ele><time>2026-05-02T11:39:09Z</time></trkpt><trkpt lat="43.063760376490805" lon="11.501359039616784"><ele>323.0</ele><time>2026-05-02T11:39:10Z</time></trkpt><trkpt lat="43.06391723628309" lon="11.501443610124971"><ele>323.0</ele><time>2026-05-02T11:39:11Z</time></trkpt><trkpt lat="43.06407927125006" lon="11.501530634328073"><ele>323.0</ele><time>2026-05-02T11:39:12Z</time></trkpt><trkpt lat="43.0642439315422" lon="11.501618556092264"><ele>323.0</ele><time>2026-05-02T11:39:13Z</time></trkpt><trkpt lat="43.06441018159904" lon="11.501673624853707"><ele>322.6666666666667</ele><time>2026-05-02T11:39:14Z</time></trkpt><trkpt lat="43.06457121816512" lon="11.501743436385214"><ele>322.3333333333333</ele><time>2026-05-02T11:39:15Z</time></trkpt><trkpt lat="43.064727066082746" lon="11.5017735490176"><ele>322.0</ele><time>2026-05-02T11:39:16Z</time></trkpt><trkpt lat="43.0648792804981" lon="11.501751499583794"><ele>320.66666666666663</ele><time>2026-05-02T11:39:17Z</time></trkpt><trkpt lat="43.06502440931952" lon="11.501687883037581"><ele>319.3333333333333</ele><time>2026-05-02T11:39:18Z</time></trkpt><trkpt lat="43.06516156097863" lon="11.501582447845962"><ele>318.0</ele><time>2026-05-02T11:39:19Z</time></trkpt><trkpt lat="43.06528454277394" lon="11.501431237802674"><ele>319.0</ele><time>2026-05-02T11:39:20Z</time></trkpt><trkpt lat="43.06539488527285" lon="11.501239280991129"><ele>320.0</ele><time>2026-05-02T11:39:21Z</time></trkpt><trkpt lat="43.06548090130097" lon="11.501035170416772"><ele>321.0</ele><time>2026-05-02T11:39:22Z</time></trkpt><trkpt lat="43.065563707367424" lon="11.500835937934673"><ele>321.0</ele><time>2026-05-02T11:39:23Z</time></trkpt><trkpt lat="43.06564209692198" lon="11.500671570897362"><ele>321.0</ele><time>2026-05-02T11:39:24Z</time></trkpt><trkpt lat="43.06572052254394" lon="11.500508724108423"><ele>321.0</ele><time>2026-05-02T11:39:25Z</time></trkpt><trkpt lat="43.06581805391704" lon="11.500358345478524"><ele>321.0</ele><time>2026-05-02T11:39:26Z</time></trkpt><trkpt lat="43.06594110859756" lon="11.500247242625184"><ele>318.6666666666667</ele><time>2026-05-02T11:39:27Z</time></trkpt><trkpt lat="43.066094923489594" lon="11.500158699093923"><ele>316.33333333333337</ele><time>2026-05-02T11:39:28Z</time></trkpt><trkpt lat="43.06626572076675" lon="11.500092801857832"><ele>314.0</ele><time>2026-05-02T11:39:29Z</time></trkpt><trkpt lat="43.06644121300221" lon="11.500038298427464"><ele>311.33333333333337</ele><time>2026-05-02T11:39:30Z</time></trkpt><trkpt lat="43.06661658362538" lon="11.499979067818115"><ele>308.6666666666667</ele><time>2026-05-02T11:39:31Z</time></trkpt><trkpt lat="43.06682195589304" lon="11.499881283120564"><ele>306.0</ele><time>2026-05-02T11:39:32Z</time></trkpt><trkpt lat="43.067041035758976" lon="11.499735184398855"><ele>305.0</ele><time>2026-05-02T11:39:33Z</time></trkpt><trkpt lat="43.06727274717087" lon="11.499578339814734"><ele>304.0</ele><time>2026-05-02T11:39:34Z</time></trkpt><trkpt lat="43.06750509913068" lon="11.499420069852352"><ele>304.0</ele><time>2026-05-02T11:39:35Z</time></trkpt><trkpt lat="43.06775964666536" lon="11.49927446732279"><ele>304.0</ele><time>2026-05-02T11:39:36Z</time></trkpt><trkpt lat="43.068037054738234" lon="11.499180128208975"><ele>299.0</ele><time>2026-05-02T11:39:37Z</time></trkpt><trkpt lat="43.06831870510948" lon="11.499095809433486"><ele>294.0</ele><time>2026-05-02T11:39:38Z</time></trkpt><trkpt lat="43.06859210972595" lon="11.499013359175692"><ele>294.0</ele><time>2026-05-02T11:39:39Z</time></trkpt><trkpt lat="43.068844607323165" lon="11.498908610002745"><ele>294.0</ele><time>2026-05-02T11:39:40Z</time></trkpt><trkpt lat="43.069083196396235" lon="11.49883829898138"><ele>291.5</ele><time>2026-05-02T11:39:41Z</time></trkpt><trkpt lat="43.0693105954091" lon="11.498767936240725"><ele>289.0</ele><time>2026-05-02T11:39:42Z</time></trkpt><trkpt lat="43.069526730603336" lon="11.498702432983473"><ele>289.0</ele><time>2026-05-02T11:39:43Z</time></trkpt><trkpt lat="43.0697409860799" lon="11.498666597522245"><ele>289.0</ele><time>2026-05-02T11:39:44Z</time></trkpt><trkpt lat="43.069935139777144" lon="11.498575196245826"><ele>289.0</ele><time>2026-05-02T11:39:45Z</time></trkpt><trkpt lat="43.07012624381869" lon="11.498491640891924"><ele>287.66666666666663</ele><time>2026-05-02T11:39:46Z</time></trkpt><trkpt lat="43.07031597140231" lon="11.4983813295771"><ele>286.3333333333333</ele><time>2026-05-02T11:39:47Z</time></trkpt><trkpt lat="43.07050540404887" lon="11.498245751250543"><ele>285.0</ele><time>2026-05-02T11:39:48Z</time></trkpt><trkpt lat="43.070697179465455" lon="11.498105934660932"><ele>284.3333333333333</ele><time>2026-05-02T11:39:49Z</time></trkpt><trkpt lat="43.070888756695155" lon="11.49795605546295"><ele>283.66666666666663</ele><time>2026-05-02T11:39:50Z</time></trkpt><trkpt lat="43.07107835365985" lon="11.497808323464087"><ele>283.0</ele><time>2026-05-02T11:39:51Z</time></trkpt><trkpt lat="43.07127270310798" lon="11.49767789507544"><ele>282.0</ele><time>2026-05-02T11:39:52Z</time></trkpt><trkpt lat="43.07146145909721" lon="11.497532932220162"><ele>281.0</ele><time>2026-05-02T11:39:53Z</time></trkpt><trkpt lat="43.07164976425425" lon="11.497388316405507"><ele>280.0</ele><time>2026-05-02T11:39:54Z</time></trkpt><trkpt lat="43.07184782888676" lon="11.497237466946988"><ele>276.5</ele><time>2026-05-02T11:39:55Z</time></trkpt><trkpt lat="43.07205037675234" lon="11.497084109942376"><ele>273.0</ele><time>2026-05-02T11:39:56Z</time></trkpt><trkpt lat="43.072243705715735" lon="11.496899868347745"><ele>274.0</ele><time>2026-05-02T11:39:56.998Z</time></trkpt><trkpt lat="43.072441671022595" lon="11.496751633023068"><ele>275.0</ele><time>2026-05-02T11:39:57.998Z</time></trkpt><trkpt lat="43.07264061391993" lon="11.496618478190225"><ele>276.0</ele><time>2026-05-02T11:39:58.998Z</time></trkpt><trkpt lat="43.072842896929814" lon="11.496501126276549"><ele>276.0</ele><time>2026-05-02T11:39:59.998Z</time></trkpt><trkpt lat="43.073051569579896" lon="11.496406098431953"><ele>276.0</ele><time>2026-05-02T11:40:00.998Z</time></trkpt><trkpt lat="43.07326642864281" lon="11.49632257839558"><ele>276.0</ele><time>2026-05-02T11:40:01.998Z</time></trkpt><trkpt lat="43.07347892754048" lon="11.496233715205838"><ele>270.5</ele><time>2026-05-02T11:40:02.998Z</time></trkpt><trkpt lat="43.07369142986182" lon="11.49612819212737"><ele>265.0</ele><time>2026-05-02T11:40:03.998Z</time></trkpt><trkpt lat="43.073908759689026" lon="11.496019552483522"><ele>264.5</ele><time>2026-05-02T11:40:04.998Z</time></trkpt><trkpt lat="43.07410951562597" lon="11.495868545765463"><ele>264.0</ele><time>2026-05-02T11:40:05.998Z</time></trkpt><trkpt lat="43.074306043557655" lon="11.495701523272114"><ele>264.0</ele><time>2026-05-02T11:40:06.998Z</time></trkpt><trkpt lat="43.074500634203886" lon="11.495531906276819"><ele>264.0</ele><time>2026-05-02T11:40:07.998Z</time></trkpt><trkpt lat="43.074694517913585" lon="11.495366374937518"><ele>262.0</ele><time>2026-05-02T11:40:08.998Z</time></trkpt><trkpt lat="43.074887612904945" lon="11.495200055492504"><ele>260.0</ele><time>2026-05-02T11:40:09.998Z</time></trkpt><trkpt lat="43.07507887504751" lon="11.495030391770124"><ele>259.0</ele><time>2026-05-02T11:40:10.998Z</time></trkpt><trkpt lat="43.075277750117735" lon="11.494879959998013"><ele>258.0</ele><time>2026-05-02T11:40:11.998Z</time></trkpt><trkpt lat="43.07547018927094" lon="11.494714132310294"><ele>256.5</ele><time>2026-05-02T11:40:12.998Z</time></trkpt><trkpt lat="43.075657317374954" lon="11.494541579001032"><ele>255.0</ele><time>2026-05-02T11:40:13.998Z</time></trkpt><trkpt lat="43.07583525305772" lon="11.494351340102579"><ele>254.33333333333331</ele><time>2026-05-02T11:40:14.998Z</time></trkpt><trkpt lat="43.0760148177711" lon="11.49416950811836"><ele>253.66666666666666</ele><time>2026-05-02T11:40:15.999Z</time></trkpt><trkpt lat="43.07618902678814" lon="11.493981694274197"><ele>253.0</ele><time>2026-05-02T11:40:16.999Z</time></trkpt><trkpt lat="43.07636690508737" lon="11.493798044748752"><ele>252.66666666666666</ele><time>2026-05-02T11:40:17.999Z</time></trkpt><trkpt lat="43.07654141473994" lon="11.493617543333778"><ele>252.33333333333331</ele><time>2026-05-02T11:40:18.999Z</time></trkpt><trkpt lat="43.07671124790543" lon="11.493444477531204"><ele>252.0</ele><time>2026-05-02T11:40:19.999Z</time></trkpt><trkpt lat="43.07686641089385" lon="11.493291725423616"><ele>251.66666666666669</ele><time>2026-05-02T11:40:20.999Z</time></trkpt><trkpt lat="43.077009340853245" lon="11.493166947732044"><ele>251.33333333333334</ele><time>2026-05-02T11:40:21.999Z</time></trkpt><trkpt lat="43.0771542964972" lon="11.493066682082404"><ele>251.0</ele><time>2026-05-02T11:40:22.999Z</time></trkpt><trkpt lat="43.07729570280606" lon="11.492982648698211"><ele>250.8</ele><time>2026-05-02T11:40:23.999Z</time></trkpt><trkpt lat="43.07741583196616" lon="11.492916244769345"><ele>250.60000000000002</ele><time>2026-05-02T11:40:24.999Z</time></trkpt><trkpt lat="43.07751166736097" lon="11.492868833356107"><ele>250.4</ele><time>2026-05-02T11:40:25.999Z</time></trkpt><trkpt lat="43.07759134676731" lon="11.492837137501924"><ele>250.2</ele><time>2026-05-02T11:40:26.999Z</time></trkpt><trkpt lat="43.07769463139146" lon="11.492881444677606"><ele>250.0</ele><time>2026-05-02T11:40:28.999Z</time></trkpt><trkpt lat="43.0778116059786" lon="11.492979032704751"><ele>250.0</ele><time>2026-05-02T11:40:30.999Z</time></trkpt><trkpt lat="43.07789399139843" lon="11.49306845280553"><ele>250.0</ele><time>2026-05-02T11:40:31.999Z</time></trkpt><trkpt lat="43.077990591973126" lon="11.493181490163838"><ele>250.0</ele><time>2026-05-02T11:40:32.999Z</time></trkpt><trkpt lat="43.07809328258318" lon="11.49330253921879"><ele>250.0</ele><time>2026-05-02T11:40:33.999Z</time></trkpt><trkpt lat="43.07819648656635" lon="11.493437547058127"><ele>250.66666666666666</ele><time>2026-05-02T11:40:34.999Z</time></trkpt><trkpt lat="43.07830097405297" lon="11.4935863979336"><ele>251.33333333333331</ele><time>2026-05-02T11:40:35.999Z</time></trkpt><trkpt lat="43.078405792638684" lon="11.493739047229527"><ele>252.0</ele><time>2026-05-02T11:40:36.999Z</time></trkpt><trkpt lat="43.07851399267605" lon="11.493901258073754"><ele>252.66666666666669</ele><time>2026-05-02T11:40:37.999Z</time></trkpt><trkpt lat="43.07861891789217" lon="11.494086575318017"><ele>253.33333333333334</ele><time>2026-05-02T11:40:38.999Z</time></trkpt><trkpt lat="43.078718223895656" lon="11.494298164212335"><ele>254.0</ele><time>2026-05-02T11:40:40Z</time></trkpt><trkpt lat="43.07880206489147" lon="11.494525723051266"><ele>254.0</ele><time>2026-05-02T11:40:41Z</time></trkpt><trkpt lat="43.07887301846011" lon="11.49475320889959"><ele>254.0</ele><time>2026-05-02T11:40:42Z</time></trkpt><trkpt lat="43.07894809247759" lon="11.494981576030185"><ele>254.0</ele><time>2026-05-02T11:40:43Z</time></trkpt><trkpt lat="43.07901899961961" lon="11.495189778518503"><ele>254.0</ele><time>2026-05-02T11:40:44Z</time></trkpt><trkpt lat="43.07909162375882" lon="11.495399366737008"><ele>254.0</ele><time>2026-05-02T11:40:45Z</time></trkpt><trkpt lat="43.07916249436306" lon="11.49560405089398"><ele>254.0</ele><time>2026-05-02T11:40:46Z</time></trkpt><trkpt lat="43.07922951676636" lon="11.495806191158826"><ele>256.6666666666667</ele><time>2026-05-02T11:40:47Z</time></trkpt><trkpt lat="43.07929962522303" lon="11.496007212054321"><ele>259.3333333333333</ele><time>2026-05-02T11:40:48Z</time></trkpt><trkpt lat="43.07936709917873" lon="11.496202636631285"><ele>262.0</ele><time>2026-05-02T11:40:49Z</time></trkpt><trkpt lat="43.07943106244699" lon="11.496392264623852"><ele>262.75</ele><time>2026-05-02T11:40:50Z</time></trkpt><trkpt lat="43.07948387645083" lon="11.496558146030084"><ele>263.5</ele><time>2026-05-02T11:40:51Z</time></trkpt><trkpt lat="43.07951705104789" lon="11.496710419433558"><ele>264.25</ele><time>2026-05-02T11:40:52Z</time></trkpt><trkpt lat="43.07953259862235" lon="11.496857504073859"><ele>265.0</ele><time>2026-05-02T11:40:53Z</time></trkpt><trkpt lat="43.07954319865617" lon="11.497029603359525"><ele>264.5</ele><time>2026-05-02T11:40:54Z</time></trkpt><trkpt lat="43.07956075202845" lon="11.49721378488984"><ele>264.0</ele><time>2026-05-02T11:40:55Z</time></trkpt><trkpt lat="43.079602710787" lon="11.497397681318606"><ele>263.5</ele><time>2026-05-02T11:40:56Z</time></trkpt><trkpt lat="43.07966532327972" lon="11.497599922997715"><ele>263.0</ele><time>2026-05-02T11:40:57Z</time></trkpt><trkpt lat="43.07973311480269" lon="11.497799286455365"><ele>262.25</ele><time>2026-05-02T11:40:58Z</time></trkpt><trkpt lat="43.079798909688925" lon="11.49799919800452"><ele>261.5</ele><time>2026-05-02T11:40:59Z</time></trkpt><trkpt lat="43.07985520456962" lon="11.498191766758987"><ele>260.75</ele><time>2026-05-02T11:41:00Z</time></trkpt><trkpt lat="43.07990257241634" lon="11.498365805070478"><ele>260.0</ele><time>2026-05-02T11:41:01Z</time></trkpt><trkpt lat="43.07996394802252" lon="11.498519613004248"><ele>262.0</ele><time>2026-05-02T11:41:02Z</time></trkpt><trkpt lat="43.08004084509557" lon="11.498662076734064"><ele>264.0</ele><time>2026-05-02T11:41:03Z</time></trkpt><trkpt lat="43.08012823767338" lon="11.498793971672159"><ele>266.0</ele><time>2026-05-02T11:41:04Z</time></trkpt><trkpt lat="43.080242328649696" lon="11.498937417595277"><ele>268.0</ele><time>2026-05-02T11:41:05Z</time></trkpt><trkpt lat="43.080350760014674" lon="11.499084763243083"><ele>268.0</ele><time>2026-05-02T11:41:06Z</time></trkpt><trkpt lat="43.080459676473694" lon="11.499229410999709"><ele>268.0</ele><time>2026-05-02T11:41:07Z</time></trkpt><trkpt lat="43.080563891595595" lon="11.499378052719948"><ele>268.0</ele><time>2026-05-02T11:41:08Z</time></trkpt><trkpt lat="43.080668940754705" lon="11.499543260591967"><ele>268.0</ele><time>2026-05-02T11:41:09Z</time></trkpt><trkpt lat="43.08074995591009" lon="11.499707303720959"><ele>268.0</ele><time>2026-05-02T11:41:10Z</time></trkpt><trkpt lat="43.080849156012015" lon="11.49986378333817"><ele>268.0</ele><time>2026-05-02T11:41:11Z</time></trkpt><trkpt lat="43.08095379237482" lon="11.50001010319932"><ele>268.0</ele><time>2026-05-02T11:41:12Z</time></trkpt><trkpt lat="43.081058151699665" lon="11.500137903668012"><ele>268.0</ele><time>2026-05-02T11:41:13Z</time></trkpt><trkpt lat="43.081161037674136" lon="11.500234572156792"><ele>268.0</ele><time>2026-05-02T11:41:14Z</time></trkpt><trkpt lat="43.08126319775825" lon="11.50029490977876"><ele>268.0</ele><time>2026-05-02T11:41:15Z</time></trkpt><trkpt lat="43.0813760833687" lon="11.500334107694568"><ele>268.0</ele><time>2026-05-02T11:41:16Z</time></trkpt><trkpt lat="43.08149770994108" lon="11.500358094610844"><ele>267.75</ele><time>2026-05-02T11:41:17Z</time></trkpt><trkpt lat="43.08163553457958" lon="11.500380136641338"><ele>267.5</ele><time>2026-05-02T11:41:18Z</time></trkpt><trkpt lat="43.08178394765622" lon="11.500406088288885"><ele>267.25</ele><time>2026-05-02T11:41:19Z</time></trkpt><trkpt lat="43.081942028650325" lon="11.500441960206315"><ele>267.0</ele><time>2026-05-02T11:41:20Z</time></trkpt><trkpt lat="43.08210398683391" lon="11.500486482900236"><ele>267.0</ele><time>2026-05-02T11:41:21Z</time></trkpt><trkpt lat="43.082261680601185" lon="11.500544260332319"><ele>267.0</ele><time>2026-05-02T11:41:22Z</time></trkpt><trkpt lat="43.08242495996073" lon="11.500607209289596"><ele>267.0</ele><time>2026-05-02T11:41:23Z</time></trkpt><trkpt lat="43.08257467269441" lon="11.500673548654348"><ele>268.0</ele><time>2026-05-02T11:41:24Z</time></trkpt><trkpt lat="43.08271293685779" lon="11.50074889265115"><ele>269.0</ele><time>2026-05-02T11:41:25Z</time></trkpt><trkpt lat="43.082865368035534" lon="11.500837954310006"><ele>270.0</ele><time>2026-05-02T11:41:26Z</time></trkpt><trkpt lat="43.08302390615515" lon="11.500934927795196"><ele>270.0</ele><time>2026-05-02T11:41:27.001Z</time></trkpt><trkpt lat="43.0831825007915" lon="11.501030856564249"><ele>270.0</ele><time>2026-05-02T11:41:28.001Z</time></trkpt><trkpt lat="43.08333608637076" lon="11.501124620088785"><ele>270.0</ele><time>2026-05-02T11:41:29.001Z</time></trkpt><trkpt lat="43.08347064291532" lon="11.501226444635332"><ele>269.25</ele><time>2026-05-02T11:41:30.001Z</time></trkpt><trkpt lat="43.083601944585034" lon="11.501302143971309"><ele>268.5</ele><time>2026-05-02T11:41:31.001Z</time></trkpt><trkpt lat="43.0837249341809" lon="11.501374023294256"><ele>267.75</ele><time>2026-05-02T11:41:32.001Z</time></trkpt><trkpt lat="43.083838619329605" lon="11.501441055198672"><ele>267.0</ele><time>2026-05-02T11:41:33.001Z</time></trkpt><trkpt lat="43.08394358129691" lon="11.501507560140444"><ele>267.0</ele><time>2026-05-02T11:41:34.001Z</time></trkpt><trkpt lat="43.08403918398252" lon="11.501568134926003"><ele>267.0</ele><time>2026-05-02T11:41:35.001Z</time></trkpt><trkpt lat="43.08411550460074" lon="11.501616492494964"><ele>267.0</ele><time>2026-05-02T11:41:36.001Z</time></trkpt><trkpt lat="43.08421415759175" lon="11.501694444614825"><ele>267.0</ele><time>2026-05-02T11:41:38.001Z</time></trkpt><trkpt lat="43.08427700317703" lon="11.501731596365781"><ele>267.0</ele><time>2026-05-02T11:41:40.001Z</time></trkpt><trkpt lat="43.084204908372556" lon="11.501928646852118"><ele>267.25</ele><time>2026-05-02T11:41:41.001Z</time></trkpt><trkpt lat="43.084166094196206" lon="11.50206418359517"><ele>267.5</ele><time>2026-05-02T11:41:42.001Z</time></trkpt><trkpt lat="43.084121743214396" lon="11.502255811627869"><ele>267.75</ele><time>2026-05-02T11:41:43.001Z</time></trkpt><trkpt lat="43.08406348365247" lon="11.502450697916927"><ele>268.0</ele><time>2026-05-02T11:41:44.001Z</time></trkpt><trkpt lat="43.084003492522356" lon="11.50265199373671"><ele>268.0</ele><time>2026-05-02T11:41:45.001Z</time></trkpt><trkpt lat="43.084012030228074" lon="11.502868682613634"><ele>268.0</ele><time>2026-05-02T11:41:46.001Z</time></trkpt><trkpt lat="43.084021595286934" lon="11.503086739108282"><ele>268.0</ele><time>2026-05-02T11:41:47.001Z</time></trkpt><trkpt lat="43.0840454443193" lon="11.503255578101985"><ele>268.0</ele><time>2026-05-02T11:41:48.001Z</time></trkpt><trkpt lat="43.08405340962288" lon="11.50341426480211"><ele>269.5</ele><time>2026-05-02T11:41:49.001Z</time></trkpt><trkpt lat="43.084039821867606" lon="11.503577026151056"><ele>271.0</ele><time>2026-05-02T11:41:50.001Z</time></trkpt><trkpt lat="43.084001678739625" lon="11.503726683399728"><ele>272.5</ele><time>2026-05-02T11:41:51.001Z</time></trkpt><trkpt lat="43.08395353240765" lon="11.503871879157309"><ele>274.0</ele><time>2026-05-02T11:41:52.001Z</time></trkpt><trkpt lat="43.08389315162325" lon="11.504006819522457"><ele>275.0</ele><time>2026-05-02T11:41:53.001Z</time></trkpt><trkpt lat="43.08383220596932" lon="11.504128905835094"><ele>276.0</ele><time>2026-05-02T11:41:54.001Z</time></trkpt><trkpt lat="43.08378045019578" lon="11.504220350733677"><ele>277.0</ele><time>2026-05-02T11:41:55.001Z</time></trkpt><trkpt lat="43.08371843005358" lon="11.504276184790353"><ele>278.0</ele><time>2026-05-02T11:41:56.001Z</time></trkpt><trkpt lat="43.083635210941544" lon="11.50431374972365"><ele>279.0</ele><time>2026-05-02T11:41:57.001Z</time></trkpt><trkpt lat="43.083542168223694" lon="11.504280690273264"><ele>279.0</ele><time>2026-05-02T11:41:58.001Z</time></trkpt><trkpt lat="43.08343170115054" lon="11.504256324834422"><ele>279.0</ele><time>2026-05-02T11:41:59.001Z</time></trkpt><trkpt lat="43.08330282481969" lon="11.504213674448849"><ele>279.0</ele><time>2026-05-02T11:42:00.001Z</time></trkpt><trkpt lat="43.08319188255801" lon="11.504195267952468"><ele>279.0</ele><time>2026-05-02T11:42:01.001Z</time></trkpt><trkpt lat="43.083101178538556" lon="11.50419725132301"><ele>279.0</ele><time>2026-05-02T11:42:02.001Z</time></trkpt><trkpt lat="43.08300703595956" lon="11.504250000909744"><ele>281.25</ele><time>2026-05-02T11:42:02.998Z</time></trkpt><trkpt lat="43.08291451119911" lon="11.50434462399264"><ele>283.5</ele><time>2026-05-02T11:42:03.998Z</time></trkpt><trkpt lat="43.08283368589444" lon="11.50446801009963"><ele>285.75</ele><time>2026-05-02T11:42:04.998Z</time></trkpt><trkpt lat="43.08275488013731" lon="11.504627285311566"><ele>288.0</ele><time>2026-05-02T11:42:05.998Z</time></trkpt><trkpt lat="43.08266566760887" lon="11.5048090134558"><ele>289.6666666666667</ele><time>2026-05-02T11:42:06.998Z</time></trkpt><trkpt lat="43.08256958705017" lon="11.50499366498507"><ele>291.33333333333337</ele><time>2026-05-02T11:42:07.998Z</time></trkpt><trkpt lat="43.08246078991879" lon="11.505177267264287"><ele>293.0</ele><time>2026-05-02T11:42:08.998Z</time></trkpt><trkpt lat="43.08233611634021" lon="11.505391959378723"><ele>296.5</ele><time>2026-05-02T11:42:09.998Z</time></trkpt><trkpt lat="43.082190736569096" lon="11.505632612982179"><ele>300.0</ele><time>2026-05-02T11:42:10.998Z</time></trkpt><trkpt lat="43.08204524208874" lon="11.505878183890607"><ele>300.0</ele><time>2026-05-02T11:42:11.998Z</time></trkpt><trkpt lat="43.081908371391066" lon="11.506110932631408"><ele>300.0</ele><time>2026-05-02T11:42:12.998Z</time></trkpt><trkpt lat="43.0817898370266" lon="11.506314631623738"><ele>300.0</ele><time>2026-05-02T11:42:13.998Z</time></trkpt><trkpt lat="43.081686406948684" lon="11.506492073539226"><ele>299.0</ele><time>2026-05-02T11:42:14.998Z</time></trkpt><trkpt lat="43.081589002933995" lon="11.506656270081415"><ele>298.0</ele><time>2026-05-02T11:42:15.998Z</time></trkpt><trkpt lat="43.081496586198874" lon="11.506814930358686"><ele>297.0</ele><time>2026-05-02T11:42:16.998Z</time></trkpt><trkpt lat="43.081400737623966" lon="11.506974433371775"><ele>300.3333333333333</ele><time>2026-05-02T11:42:17.999Z</time></trkpt><trkpt lat="43.081298815946134" lon="11.507152475345368"><ele>303.66666666666663</ele><time>2026-05-02T11:42:18.999Z</time></trkpt><trkpt lat="43.08119573460842" lon="11.507329476618876"><ele>307.0</ele><time>2026-05-02T11:42:19.999Z</time></trkpt><trkpt lat="43.08110364104745" lon="11.507492869874712"><ele>307.0</ele><time>2026-05-02T11:42:20.999Z</time></trkpt><trkpt lat="43.0810169550364" lon="11.507640967865152"><ele>307.0</ele><time>2026-05-02T11:42:21.999Z</time></trkpt><trkpt lat="43.0809331834305" lon="11.507786081171641"><ele>307.0</ele><time>2026-05-02T11:42:22.999Z</time></trkpt><trkpt lat="43.08084813674225" lon="11.507932102908734"><ele>307.0</ele><time>2026-05-02T11:42:23.999Z</time></trkpt><trkpt lat="43.080765108764325" lon="11.508081336426658"><ele>307.0</ele><time>2026-05-02T11:42:24.999Z</time></trkpt><trkpt lat="43.08068509925452" lon="11.508222074456086"><ele>307.0</ele><time>2026-05-02T11:42:25.999Z</time></trkpt><trkpt lat="43.080614528699826" lon="11.5083527996786"><ele>307.0</ele><time>2026-05-02T11:42:26.999Z</time></trkpt><trkpt lat="43.08054218618708" lon="11.508475966865205"><ele>307.0</ele><time>2026-05-02T11:42:27.999Z</time></trkpt><trkpt lat="43.080474927694965" lon="11.508597260661565"><ele>307.0</ele><time>2026-05-02T11:42:28.999Z</time></trkpt><trkpt lat="43.08041304092138" lon="11.50871621722095"><ele>307.0</ele><time>2026-05-02T11:42:29.999Z</time></trkpt><trkpt lat="43.08034643886766" lon="11.508847944203268"><ele>307.0</ele><time>2026-05-02T11:42:30.999Z</time></trkpt><trkpt lat="43.08026923712649" lon="11.509013429138973"><ele>307.0</ele><time>2026-05-02T11:42:31.999Z</time></trkpt><trkpt lat="43.08017872442301" lon="11.509212771202016"><ele>307.3333333333333</ele><time>2026-05-02T11:42:32.999Z</time></trkpt><trkpt lat="43.08008462776641" lon="11.509409306549928"><ele>307.6666666666667</ele><time>2026-05-02T11:42:33.999Z</time></trkpt><trkpt lat="43.080012079239374" lon="11.509598486586203"><ele>308.0</ele><time>2026-05-02T11:42:34.999Z</time></trkpt><trkpt lat="43.07994558126492" lon="11.509768158805706"><ele>305.5</ele><time>2026-05-02T11:42:36Z</time></trkpt><trkpt lat="43.07989976213703" lon="11.50994302998042"><ele>303.0</ele><time>2026-05-02T11:42:37Z</time></trkpt><trkpt lat="43.079875424887966" lon="11.510126984023772"><ele>300.5</ele><time>2026-05-02T11:42:38Z</time></trkpt><trkpt lat="43.07987820342637" lon="11.510294740658212"><ele>298.0</ele><time>2026-05-02T11:42:39Z</time></trkpt><trkpt lat="43.0798862003039" lon="11.510435027412669"><ele>297.8</ele><time>2026-05-02T11:42:40Z</time></trkpt><trkpt lat="43.07988991223492" lon="11.510556541094575"><ele>297.6</ele><time>2026-05-02T11:42:41Z</time></trkpt><trkpt lat="43.079907988903784" lon="11.510675466678585"><ele>297.4</ele><time>2026-05-02T11:42:42Z</time></trkpt><trkpt lat="43.07991562939223" lon="11.510803440536245"><ele>297.2</ele><time>2026-05-02T11:42:43Z</time></trkpt><trkpt lat="43.07992639747169" lon="11.510927091066536"><ele>297.0</ele><time>2026-05-02T11:42:44Z</time></trkpt><trkpt lat="43.07994303339946" lon="11.51107430774608"><ele>301.3333333333333</ele><time>2026-05-02T11:42:45Z</time></trkpt><trkpt lat="43.07994768814106" lon="11.511250746834973"><ele>305.66666666666663</ele><time>2026-05-02T11:42:46Z</time></trkpt><trkpt lat="43.07999585427358" lon="11.511458900496104"><ele>310.0</ele><time>2026-05-02T11:42:47Z</time></trkpt><trkpt lat="43.08009486292046" lon="11.511639779164412"><ele>310.0</ele><time>2026-05-02T11:42:48Z</time></trkpt><trkpt lat="43.080202128595104" lon="11.511830407790708"><ele>310.0</ele><time>2026-05-02T11:42:49Z</time></trkpt><trkpt lat="43.08031213975632" lon="11.51205915721761"><ele>310.0</ele><time>2026-05-02T11:42:50Z</time></trkpt><trkpt lat="43.0804299854125" lon="11.512275643104992"><ele>310.66666666666663</ele><time>2026-05-02T11:42:51Z</time></trkpt><trkpt lat="43.080547124509614" lon="11.512492117818397"><ele>311.3333333333333</ele><time>2026-05-02T11:42:52Z</time></trkpt><trkpt lat="43.08065047685739" lon="11.512681174823948"><ele>312.0</ele><time>2026-05-02T11:42:53Z</time></trkpt><trkpt lat="43.0807367785434" lon="11.512847502094548"><ele>315.0</ele><time>2026-05-02T11:42:54Z</time></trkpt><trkpt lat="43.08081446047503" lon="11.51298331528182"><ele>318.0</ele><time>2026-05-02T11:42:55Z</time></trkpt><trkpt lat="43.08089254295512" lon="11.513089858149826"><ele>321.0</ele><time>2026-05-02T11:42:56Z</time></trkpt><trkpt lat="43.08097986980654" lon="11.513186703043678"><ele>324.0</ele><time>2026-05-02T11:42:57Z</time></trkpt><trkpt lat="43.081078985751574" lon="11.51324118276859"><ele>324.0</ele><time>2026-05-02T11:42:58Z</time></trkpt><trkpt lat="43.08118433087353" lon="11.513225714165273"><ele>324.0</ele><time>2026-05-02T11:42:59Z</time></trkpt><trkpt lat="43.081308612183264" lon="11.51318136082988"><ele>324.0</ele><time>2026-05-02T11:43:00Z</time></trkpt><trkpt lat="43.08143828924905" lon="11.513169504417531"><ele>324.0</ele><time>2026-05-02T11:43:01Z</time></trkpt><trkpt lat="43.08153500501566" lon="11.513213779260417"><ele>324.75</ele><time>2026-05-02T11:43:02Z</time></trkpt><trkpt lat="43.081612758280535" lon="11.513258519641699"><ele>325.5</ele><time>2026-05-02T11:43:03Z</time></trkpt><trkpt lat="43.08169967047934" lon="11.513336731148156"><ele>326.25</ele><time>2026-05-02T11:43:04Z</time></trkpt><trkpt lat="43.081802898624126" lon="11.513465647888475"><ele>327.0</ele><time>2026-05-02T11:43:05Z</time></trkpt><trkpt lat="43.08191582452016" lon="11.513624670947815"><ele>327.3333333333333</ele><time>2026-05-02T11:43:06Z</time></trkpt><trkpt lat="43.082048941213245" lon="11.513787047986389"><ele>327.66666666666663</ele><time>2026-05-02T11:43:07Z</time></trkpt><trkpt lat="43.08217525536666" lon="11.513974949279346"><ele>328.0</ele><time>2026-05-02T11:43:08Z</time></trkpt><trkpt lat="43.0822942295067" lon="11.514136773242035"><ele>328.0</ele><time>2026-05-02T11:43:09Z</time></trkpt><trkpt lat="43.08242098748527" lon="11.514288226690619"><ele>328.0</ele><time>2026-05-02T11:43:10.001Z</time></trkpt><trkpt lat="43.08256995736456" lon="11.514437722814627"><ele>328.0</ele><time>2026-05-02T11:43:11.001Z</time></trkpt><trkpt lat="43.08272846908208" lon="11.51458024122751"><ele>327.66666666666663</ele><time>2026-05-02T11:43:12.001Z</time></trkpt><trkpt lat="43.082871340218844" lon="11.514704939950917"><ele>327.3333333333333</ele><time>2026-05-02T11:43:13.001Z</time></trkpt><trkpt lat="43.083006768626085" lon="11.514819574779223"><ele>327.0</ele><time>2026-05-02T11:43:14.001Z</time></trkpt><trkpt lat="43.08315358972525" lon="11.514916611618307"><ele>326.0</ele><time>2026-05-02T11:43:15.001Z</time></trkpt><trkpt lat="43.08330809880735" lon="11.514985009314701"><ele>325.0</ele><time>2026-05-02T11:43:16.001Z</time></trkpt><trkpt lat="43.08345097163681" lon="11.515031690478004"><ele>324.0</ele><time>2026-05-02T11:43:17.001Z</time></trkpt><trkpt lat="43.08359072009686" lon="11.515070011005816"><ele>324.0</ele><time>2026-05-02T11:43:18.001Z</time></trkpt><trkpt lat="43.083725486912805" lon="11.515094596919273"><ele>324.0</ele><time>2026-05-02T11:43:19.001Z</time></trkpt><trkpt lat="43.083842144126116" lon="11.515096352810067"><ele>324.0</ele><time>2026-05-02T11:43:20.001Z</time></trkpt><trkpt lat="43.08395106469485" lon="11.515074200904648"><ele>324.0</ele><time>2026-05-02T11:43:21.001Z</time></trkpt><trkpt lat="43.08406514443335" lon="11.515014592935746"><ele>323.25</ele><time>2026-05-02T11:43:22.001Z</time></trkpt><trkpt lat="43.08419793669273" lon="11.514920994153236"><ele>322.5</ele><time>2026-05-02T11:43:23.001Z</time></trkpt><trkpt lat="43.084328595616526" lon="11.514843209378963"><ele>321.75</ele><time>2026-05-02T11:43:24.001Z</time></trkpt><trkpt lat="43.08446479626592" lon="11.514853416746586"><ele>321.0</ele><time>2026-05-02T11:43:25.001Z</time></trkpt><trkpt lat="43.08462704502697" lon="11.51486090834251"><ele>321.0</ele><time>2026-05-02T11:43:26.001Z</time></trkpt><trkpt lat="43.08481103577724" lon="11.514867810300279"><ele>321.0</ele><time>2026-05-02T11:43:27.001Z</time></trkpt><trkpt lat="43.08496703513776" lon="11.514871480543976"><ele>321.0</ele><time>2026-05-02T11:43:28.001Z</time></trkpt><trkpt lat="43.08510665020635" lon="11.514874375488699"><ele>320.0</ele><time>2026-05-02T11:43:29.001Z</time></trkpt><trkpt lat="43.085228731981346" lon="11.51485804008427"><ele>319.0</ele><time>2026-05-02T11:43:30.001Z</time></trkpt><trkpt lat="43.08534060766855" lon="11.514887508092157"><ele>318.0</ele><time>2026-05-02T11:43:31.001Z</time></trkpt><trkpt lat="43.085456928671775" lon="11.514947392923652"><ele>317.0</ele><time>2026-05-02T11:43:32.001Z</time></trkpt><trkpt lat="43.08556394115618" lon="11.515029507187094"><ele>317.0</ele><time>2026-05-02T11:43:33.001Z</time></trkpt><trkpt lat="43.0856474398549" lon="11.515156762066598"><ele>317.0</ele><time>2026-05-02T11:43:34.001Z</time></trkpt><trkpt lat="43.08573105392465" lon="11.515303304746963"><ele>317.0</ele><time>2026-05-02T11:43:35.001Z</time></trkpt><trkpt lat="43.08581831930822" lon="11.5154085556385"><ele>317.0</ele><time>2026-05-02T11:43:36.001Z</time></trkpt><trkpt lat="43.08589103282143" lon="11.515506583601326"><ele>316.0</ele><time>2026-05-02T11:43:37.001Z</time></trkpt><trkpt lat="43.085973008853536" lon="11.515577650454839"><ele>315.0</ele><time>2026-05-02T11:43:38.001Z</time></trkpt><trkpt lat="43.08606217715555" lon="11.515638277735034"><ele>314.0</ele><time>2026-05-02T11:43:39.001Z</time></trkpt><trkpt lat="43.0861439278632" lon="11.51569655066801"><ele>313.0</ele><time>2026-05-02T11:43:40.001Z</time></trkpt><trkpt lat="43.08621738394126" lon="11.515762440134436"><ele>312.0</ele><time>2026-05-02T11:43:41.001Z</time></trkpt><trkpt lat="43.086259707719414" lon="11.515852885060713"><ele>312.0</ele><time>2026-05-02T11:43:42.001Z</time></trkpt><trkpt lat="43.08630211889334" lon="11.515923748455357"><ele>312.0</ele><time>2026-05-02T11:43:43.001Z</time></trkpt><trkpt lat="43.0863428999987" lon="11.515991534292379"><ele>312.0</ele><time>2026-05-02T11:43:44.001Z</time></trkpt><trkpt lat="43.08643253389022" lon="11.516124544297977"><ele>312.0</ele><time>2026-05-02T11:43:46.001Z</time></trkpt><trkpt lat="43.0864673997794" lon="11.516206672363934"><ele>312.0</ele><time>2026-05-02T11:43:47.001Z</time></trkpt><trkpt lat="43.08649915565764" lon="11.51628677979793"><ele>312.0</ele><time>2026-05-02T11:43:48.001Z</time></trkpt><trkpt lat="43.086527570738085" lon="11.516376565271576"><ele>310.4</ele><time>2026-05-02T11:43:49.001Z</time></trkpt><trkpt lat="43.08654881142883" lon="11.51646115671082"><ele>308.79999999999995</ele><time>2026-05-02T11:43:50.001Z</time></trkpt><trkpt lat="43.08656669891145" lon="11.516625199760481"><ele>307.2</ele><time>2026-05-02T11:43:52.002Z</time></trkpt><trkpt lat="43.08656423785264" lon="11.516774288710554"><ele>305.59999999999997</ele><time>2026-05-02T11:43:54.002Z</time></trkpt><trkpt lat="43.08653521321426" lon="11.516922769932174"><ele>304.0</ele><time>2026-05-02T11:43:56.002Z</time></trkpt><trkpt lat="43.08653694158863" lon="11.517030857402817"><ele>302.75</ele><time>2026-05-02T11:43:57.002Z</time></trkpt><trkpt lat="43.086523767805126" lon="11.517181855492359"><ele>301.5</ele><time>2026-05-02T11:43:58.002Z</time></trkpt><trkpt lat="43.0865036874347" lon="11.517376422718698"><ele>300.25</ele><time>2026-05-02T11:43:59.002Z</time></trkpt><trkpt lat="43.08648234462522" lon="11.517607234510837"><ele>299.0</ele><time>2026-05-02T11:44:00.002Z</time></trkpt><trkpt lat="43.08645849902871" lon="11.51788429887887"><ele>297.5</ele><time>2026-05-02T11:44:01.002Z</time></trkpt><trkpt lat="43.0864302114266" lon="11.518177202023653"><ele>296.0</ele><time>2026-05-02T11:44:02.002Z</time></trkpt><trkpt lat="43.08638853433954" lon="11.518513324723317"><ele>295.0</ele><time>2026-05-02T11:44:03.002Z</time></trkpt><trkpt lat="43.08635532951279" lon="11.518834879174284"><ele>294.0</ele><time>2026-05-02T11:44:04.002Z</time></trkpt><trkpt lat="43.086332464817744" lon="11.519137354460339"><ele>294.0</ele><time>2026-05-02T11:44:05.002Z</time></trkpt><trkpt lat="43.08630185711006" lon="11.519421267234547"><ele>294.0</ele><time>2026-05-02T11:44:06.002Z</time></trkpt><trkpt lat="43.08626886311076" lon="11.519694278197367"><ele>294.0</ele><time>2026-05-02T11:44:07.002Z</time></trkpt><trkpt lat="43.086241240258566" lon="11.519937445155742"><ele>294.5</ele><time>2026-05-02T11:44:08.002Z</time></trkpt><trkpt lat="43.08621773562912" lon="11.520149017548926"><ele>295.0</ele><time>2026-05-02T11:44:08.999Z</time></trkpt><trkpt lat="43.08618383981971" lon="11.520336241314046"><ele>295.5</ele><time>2026-05-02T11:44:09.999Z</time></trkpt><trkpt lat="43.08613258223394" lon="11.520530369856177"><ele>296.0</ele><time>2026-05-02T11:44:10.999Z</time></trkpt><trkpt lat="43.086055844213206" lon="11.520734740308823"><ele>295.33333333333337</ele><time>2026-05-02T11:44:11.999Z</time></trkpt><trkpt lat="43.08595951266671" lon="11.520920954140083"><ele>294.6666666666667</ele><time>2026-05-02T11:44:12.999Z</time></trkpt><trkpt lat="43.08585336482141" lon="11.521072248216035"><ele>294.0</ele><time>2026-05-02T11:44:13.999Z</time></trkpt><trkpt lat="43.085730445490334" lon="11.521204850117925"><ele>295.3333333333333</ele><time>2026-05-02T11:44:14.999Z</time></trkpt><trkpt lat="43.08558162336295" lon="11.52132510307301"><ele>296.66666666666663</ele><time>2026-05-02T11:44:15.999Z</time></trkpt><trkpt lat="43.08541671419145" lon="11.521431578436331"><ele>298.0</ele><time>2026-05-02T11:44:16.999Z</time></trkpt><trkpt lat="43.0852578772454" lon="11.521511542400228"><ele>298.0</ele><time>2026-05-02T11:44:17.999Z</time></trkpt><trkpt lat="43.085109256671146" lon="11.521567899714023"><ele>298.0</ele><time>2026-05-02T11:44:18.999Z</time></trkpt><trkpt lat="43.0849711793928" lon="11.521618774926123"><ele>298.0</ele><time>2026-05-02T11:44:19.999Z</time></trkpt><trkpt lat="43.084831240134356" lon="11.521667800440822"><ele>298.0</ele><time>2026-05-02T11:44:20.999Z</time></trkpt><trkpt lat="43.08469058071917" lon="11.521725158346987"><ele>297.25</ele><time>2026-05-02T11:44:21.999Z</time></trkpt><trkpt lat="43.084553350551666" lon="11.521785277545055"><ele>296.5</ele><time>2026-05-02T11:44:22.999Z</time></trkpt><trkpt lat="43.084431189055806" lon="11.521840822850752"><ele>295.75</ele><time>2026-05-02T11:44:23.999Z</time></trkpt><trkpt lat="43.084323166161006" lon="11.521893651733901"><ele>295.0</ele><time>2026-05-02T11:44:24.999Z</time></trkpt><trkpt lat="43.08422338749381" lon="11.521942067154367"><ele>295.0</ele><time>2026-05-02T11:44:25.999Z</time></trkpt><trkpt lat="43.08412014640753" lon="11.521994141439421"><ele>295.0</ele><time>2026-05-02T11:44:26.999Z</time></trkpt><trkpt lat="43.084011769428486" lon="11.522056862095802"><ele>295.0</ele><time>2026-05-02T11:44:27.999Z</time></trkpt><trkpt lat="43.083900135171895" lon="11.522118707097052"><ele>295.0</ele><time>2026-05-02T11:44:28.999Z</time></trkpt><trkpt lat="43.083792057141714" lon="11.52218558611879"><ele>296.0</ele><time>2026-05-02T11:44:29.999Z</time></trkpt><trkpt lat="43.08369587945803" lon="11.522275354130844"><ele>297.0</ele><time>2026-05-02T11:44:30.999Z</time></trkpt><trkpt lat="43.08358900254683" lon="11.522368303467191"><ele>298.0</ele><time>2026-05-02T11:44:31.999Z</time></trkpt><trkpt lat="43.083511392571225" lon="11.522532985334603"><ele>299.0</ele><time>2026-05-02T11:44:32.999Z</time></trkpt><trkpt lat="43.08343265253324" lon="11.522724531084407"><ele>299.0</ele><time>2026-05-02T11:44:33.999Z</time></trkpt><trkpt lat="43.08337414548305" lon="11.522937833503438"><ele>299.0</ele><time>2026-05-02T11:44:34.999Z</time></trkpt><trkpt lat="43.083326951736595" lon="11.523166968969731"><ele>299.0</ele><time>2026-05-02T11:44:36Z</time></trkpt><trkpt lat="43.08329242415422" lon="11.523359198644116"><ele>299.4</ele><time>2026-05-02T11:44:37Z</time></trkpt><trkpt lat="43.083249438426826" lon="11.523522473741458"><ele>299.79999999999995</ele><time>2026-05-02T11:44:38Z</time></trkpt><trkpt lat="43.083223498427095" lon="11.52366569701266"><ele>300.20000000000005</ele><time>2026-05-02T11:44:39Z</time></trkpt><trkpt lat="43.08319362990408" lon="11.523790501406246"><ele>300.6</ele><time>2026-05-02T11:44:40Z</time></trkpt><trkpt lat="43.08314879260026" lon="11.523887430393819"><ele>301.0</ele><time>2026-05-02T11:44:41Z</time></trkpt><trkpt lat="43.083090286611366" lon="11.523983897672206"><ele>300.2</ele><time>2026-05-02T11:44:42Z</time></trkpt><trkpt lat="43.08300498399761" lon="11.524077631583605"><ele>299.40000000000003</ele><time>2026-05-02T11:44:43Z</time></trkpt><trkpt lat="43.08290439434359" lon="11.52414810207051"><ele>298.6</ele><time>2026-05-02T11:44:44Z</time></trkpt><trkpt lat="43.08280079112284" lon="11.524194297148584"><ele>297.8</ele><time>2026-05-02T11:44:45Z</time></trkpt><trkpt lat="43.082692468771164" lon="11.524239378007561"><ele>297.0</ele><time>2026-05-02T11:44:46Z</time></trkpt><trkpt lat="43.08259982904731" lon="11.52428821399207"><ele>297.0</ele><time>2026-05-02T11:44:47Z</time></trkpt><trkpt lat="43.08251961573241" lon="11.524349748462726"><ele>297.0</ele><time>2026-05-02T11:44:48Z</time></trkpt><trkpt lat="43.08244422831628" lon="11.524421126524043"><ele>297.0</ele><time>2026-05-02T11:44:49Z</time></trkpt><trkpt lat="43.08236580810332" lon="11.524495343984093"><ele>297.0</ele><time>2026-05-02T11:44:50Z</time></trkpt><trkpt lat="43.082282796971775" lon="11.524573805430077"><ele>297.0</ele><time>2026-05-02T11:44:51Z</time></trkpt><trkpt lat="43.0822041007783" lon="11.524677400039266"><ele>295.75</ele><time>2026-05-02T11:44:52Z</time></trkpt><trkpt lat="43.082110001373124" lon="11.5247933743781"><ele>294.5</ele><time>2026-05-02T11:44:53Z</time></trkpt><trkpt lat="43.08200744810927" lon="11.524920489828007"><ele>293.25</ele><time>2026-05-02T11:44:54Z</time></trkpt><trkpt lat="43.081904835839396" lon="11.52505366279117"><ele>292.0</ele><time>2026-05-02T11:44:55Z</time></trkpt><trkpt lat="43.08180195209088" lon="11.52519429589369"><ele>292.0</ele><time>2026-05-02T11:44:56Z</time></trkpt><trkpt lat="43.08169633068853" lon="11.52533156318151"><ele>292.0</ele><time>2026-05-02T11:44:57Z</time></trkpt><trkpt lat="43.08159208770148" lon="11.525468440218186"><ele>292.0</ele><time>2026-05-02T11:44:58Z</time></trkpt><trkpt lat="43.0814943272445" lon="11.525618544219794"><ele>292.0</ele><time>2026-05-02T11:44:59Z</time></trkpt><trkpt lat="43.08140702760058" lon="11.525781341432873"><ele>292.25</ele><time>2026-05-02T11:45:00Z</time></trkpt><trkpt lat="43.08133282464639" lon="11.525953791930013"><ele>292.5</ele><time>2026-05-02T11:45:01Z</time></trkpt><trkpt lat="43.081271613953774" lon="11.52611707817208"><ele>292.75</ele><time>2026-05-02T11:45:02Z</time></trkpt><trkpt lat="43.081218973430204" lon="11.526261297187384"><ele>293.0</ele><time>2026-05-02T11:45:03Z</time></trkpt><trkpt lat="43.08117047374292" lon="11.526394273158301"><ele>293.6</ele><time>2026-05-02T11:45:04.001Z</time></trkpt><trkpt lat="43.08112079338681" lon="11.526526174268467"><ele>294.20000000000005</ele><time>2026-05-02T11:45:05.001Z</time></trkpt><trkpt lat="43.08107520381826" lon="11.526651687899967"><ele>294.8</ele><time>2026-05-02T11:45:06.001Z</time></trkpt><trkpt lat="43.08102501863285" lon="11.526770314179137"><ele>295.40000000000003</ele><time>2026-05-02T11:45:07.001Z</time></trkpt><trkpt lat="43.080984315531154" lon="11.526889548740103"><ele>296.0</ele><time>2026-05-02T11:45:08.001Z</time></trkpt><trkpt lat="43.08093201959485" lon="11.526998600556402"><ele>296.40000000000003</ele><time>2026-05-02T11:45:09.001Z</time></trkpt><trkpt lat="43.08088985660842" lon="11.527111012144667"><ele>296.8</ele><time>2026-05-02T11:45:10.001Z</time></trkpt><trkpt lat="43.0808415845848" lon="11.527232758215801"><ele>297.20000000000005</ele><time>2026-05-02T11:45:11.001Z</time></trkpt><trkpt lat="43.08078704853194" lon="11.527366981272754"><ele>297.6</ele><time>2026-05-02T11:45:12.001Z</time></trkpt><trkpt lat="43.08072986699778" lon="11.527512266644557"><ele>298.0</ele><time>2026-05-02T11:45:13.001Z</time></trkpt><trkpt lat="43.08066575570601" lon="11.527678580104393"><ele>301.3333333333333</ele><time>2026-05-02T11:45:14.001Z</time></trkpt><trkpt lat="43.0805870143672" lon="11.527876244336111"><ele>304.6666666666667</ele><time>2026-05-02T11:45:15.001Z</time></trkpt><trkpt lat="43.08051318110606" lon="11.52806582834109"><ele>308.0</ele><time>2026-05-02T11:45:16.001Z</time></trkpt><trkpt lat="43.080446112936826" lon="11.52823375708296"><ele>308.2</ele><time>2026-05-02T11:45:17.001Z</time></trkpt><trkpt lat="43.080386317355035" lon="11.528386212019186"><ele>308.4</ele><time>2026-05-02T11:45:18.001Z</time></trkpt><trkpt lat="43.08033201900135" lon="11.528526188242836"><ele>308.59999999999997</ele><time>2026-05-02T11:45:19.001Z</time></trkpt><trkpt lat="43.08028324015097" lon="11.528656628704455"><ele>308.8</ele><time>2026-05-02T11:45:20.001Z</time></trkpt><trkpt lat="43.080238865780764" lon="11.528771394106304"><ele>309.0</ele><time>2026-05-02T11:45:21.001Z</time></trkpt><trkpt lat="43.08020224927415" lon="11.52887232445436"><ele>309.0</ele><time>2026-05-02T11:45:22.001Z</time></trkpt><trkpt lat="43.08016856398465" lon="11.528975389073935"><ele>309.0</ele><time>2026-05-02T11:45:23.001Z</time></trkpt><trkpt lat="43.08013064020539" lon="11.529084970156608"><ele>309.0</ele><time>2026-05-02T11:45:24.001Z</time></trkpt><trkpt lat="43.08009997029002" lon="11.529195370484283"><ele>309.0</ele><time>2026-05-02T11:45:25.001Z</time></trkpt><trkpt lat="43.080076281144706" lon="11.529302037106309"><ele>309.0</ele><time>2026-05-02T11:45:26.001Z</time></trkpt><trkpt lat="43.08005572889044" lon="11.529407657200945"><ele>309.0</ele><time>2026-05-02T11:45:27.001Z</time></trkpt><trkpt lat="43.08003247937361" lon="11.529514093104135"><ele>308.4</ele><time>2026-05-02T11:45:28.001Z</time></trkpt><trkpt lat="43.08000807835697" lon="11.529625247812966"><ele>307.79999999999995</ele><time>2026-05-02T11:45:29.001Z</time></trkpt><trkpt lat="43.07999123207949" lon="11.52974036747046"><ele>307.20000000000005</ele><time>2026-05-02T11:45:30.001Z</time></trkpt><trkpt lat="43.079982740349934" lon="11.529879376878919"><ele>306.6</ele><time>2026-05-02T11:45:31.001Z</time></trkpt><trkpt lat="43.079979457046676" lon="11.530028229034208"><ele>306.0</ele><time>2026-05-02T11:45:32.001Z</time></trkpt><trkpt lat="43.07997940509591" lon="11.530180571586824"><ele>306.0</ele><time>2026-05-02T11:45:33.001Z</time></trkpt><trkpt lat="43.07998494530435" lon="11.530341854505147"><ele>306.0</ele><time>2026-05-02T11:45:34.001Z</time></trkpt><trkpt lat="43.07999327299271" lon="11.530540291257601"><ele>306.0</ele><time>2026-05-02T11:45:35.001Z</time></trkpt><trkpt lat="43.07999343944502" lon="11.530770064182915"><ele>306.0</ele><time>2026-05-02T11:45:36.001Z</time></trkpt><trkpt lat="43.07998372316586" lon="11.53099598919943"><ele>304.0</ele><time>2026-05-02T11:45:37.001Z</time></trkpt><trkpt lat="43.07995853243576" lon="11.53121641529793"><ele>302.0</ele><time>2026-05-02T11:45:38.001Z</time></trkpt><trkpt lat="43.07991125517426" lon="11.531438271315757"><ele>300.0</ele><time>2026-05-02T11:45:39.002Z</time></trkpt><trkpt lat="43.079842977425876" lon="11.53165475933919"><ele>299.25</ele><time>2026-05-02T11:45:40.002Z</time></trkpt><trkpt lat="43.07976242614825" lon="11.531861673105528"><ele>298.5</ele><time>2026-05-02T11:45:41.002Z</time></trkpt><trkpt lat="43.07969263814062" lon="11.53202612655292"><ele>297.75</ele><time>2026-05-02T11:45:42.002Z</time></trkpt><trkpt lat="43.07964257721721" lon="11.532167611773817"><ele>297.0</ele><time>2026-05-02T11:45:43.002Z</time></trkpt><trkpt lat="43.07961644672857" lon="11.532294618362476"><ele>298.4</ele><time>2026-05-02T11:45:44.002Z</time></trkpt><trkpt lat="43.07960755324115" lon="11.532408755263388"><ele>299.79999999999995</ele><time>2026-05-02T11:45:45.002Z</time></trkpt><trkpt lat="43.07961424345561" lon="11.532532171902085"><ele>301.2</ele><time>2026-05-02T11:45:46.002Z</time></trkpt><trkpt lat="43.07964630152712" lon="11.53265636265227"><ele>302.59999999999997</ele><time>2026-05-02T11:45:47.002Z</time></trkpt><trkpt lat="43.079702134463254" lon="11.532811319491595"><ele>304.0</ele><time>2026-05-02T11:45:48.002Z</time></trkpt><trkpt lat="43.079753236867475" lon="11.532963858226633"><ele>305.59999999999997</ele><time>2026-05-02T11:45:49.002Z</time></trkpt><trkpt lat="43.07978698063841" lon="11.533106048013776"><ele>307.2</ele><time>2026-05-02T11:45:50.002Z</time></trkpt><trkpt lat="43.07980533707559" lon="11.53324530279701"><ele>308.79999999999995</ele><time>2026-05-02T11:45:51.002Z</time></trkpt><trkpt lat="43.079788356829305" lon="11.533374826804758"><ele>310.4</ele><time>2026-05-02T11:45:52.002Z</time></trkpt><trkpt lat="43.07978025744647" lon="11.533503956436752"><ele>312.0</ele><time>2026-05-02T11:45:53.002Z</time></trkpt><trkpt lat="43.079723879895255" lon="11.533647459342975"><ele>313.25</ele><time>2026-05-02T11:45:54.002Z</time></trkpt><trkpt lat="43.079717731615084" lon="11.533804218279004"><ele>314.5</ele><time>2026-05-02T11:45:55.002Z</time></trkpt><trkpt lat="43.079729987479105" lon="11.533994604202183"><ele>315.75</ele><time>2026-05-02T11:45:56.002Z</time></trkpt><trkpt lat="43.079764148916254" lon="11.534211371011796"><ele>317.0</ele><time>2026-05-02T11:45:57.002Z</time></trkpt><trkpt lat="43.079809789958546" lon="11.534426204919585"><ele>317.5</ele><time>2026-05-02T11:45:58.002Z</time></trkpt><trkpt lat="43.07984051609539" lon="11.534605811087546"><ele>318.0</ele><time>2026-05-02T11:45:59.002Z</time></trkpt><trkpt lat="43.07988077154995" lon="11.53475730263722"><ele>318.5</ele><time>2026-05-02T11:46:00.002Z</time></trkpt><trkpt lat="43.07993063527001" lon="11.53488273390281"><ele>319.0</ele><time>2026-05-02T11:46:01.002Z</time></trkpt><trkpt lat="43.08000425183082" lon="11.535002677601"><ele>317.66666666666663</ele><time>2026-05-02T11:46:02.002Z</time></trkpt><trkpt lat="43.08007247775338" lon="11.535098396526976"><ele>316.3333333333333</ele><time>2026-05-02T11:46:03.002Z</time></trkpt><trkpt lat="43.08014791534826" lon="11.535166722770574"><ele>315.0</ele><time>2026-05-02T11:46:04.002Z</time></trkpt><trkpt lat="43.080194084508996" lon="11.535252021905917"><ele>313.6666666666667</ele><time>2026-05-02T11:46:05.002Z</time></trkpt><trkpt lat="43.080227932750304" lon="11.535351135556052"><ele>312.33333333333337</ele><time>2026-05-02T11:46:06.002Z</time></trkpt><trkpt lat="43.08024879001238" lon="11.535456253161627"><ele>311.0</ele><time>2026-05-02T11:46:07.002Z</time></trkpt><trkpt lat="43.0802529169091" lon="11.535566142772428"><ele>310.33333333333337</ele><time>2026-05-02T11:46:08.002Z</time></trkpt><trkpt lat="43.08023822197754" lon="11.535680190382676"><ele>309.6666666666667</ele><time>2026-05-02T11:46:09.002Z</time></trkpt><trkpt lat="43.08022331895896" lon="11.535796972972225"><ele>309.0</ele><time>2026-05-02T11:46:10.002Z</time></trkpt><trkpt lat="43.08020510907346" lon="11.535899841385955"><ele>308.3333333333333</ele><time>2026-05-02T11:46:11.002Z</time></trkpt><trkpt lat="43.0801985621753" lon="11.535999588582317"><ele>307.66666666666663</ele><time>2026-05-02T11:46:12.002Z</time></trkpt><trkpt lat="43.080201997276134" lon="11.536098788170095"><ele>307.0</ele><time>2026-05-02T11:46:13.002Z</time></trkpt><trkpt lat="43.080210866192324" lon="11.536199124576623"><ele>305.71428571428567</ele><time>2026-05-02T11:46:14.002Z</time></trkpt><trkpt lat="43.080220995375385" lon="11.536299384023746"><ele>304.42857142857144</ele><time>2026-05-02T11:46:14.999Z</time></trkpt><trkpt lat="43.08022966340007" lon="11.536398521640786"><ele>303.1428571428571</ele><time>2026-05-02T11:46:15.999Z</time></trkpt><trkpt lat="43.08024322420623" lon="11.536490563321555"><ele>301.85714285714283</ele><time>2026-05-02T11:46:16.999Z</time></trkpt><trkpt lat="43.08025693302149" lon="11.53658666197242"><ele>300.57142857142856</ele><time>2026-05-02T11:46:17.999Z</time></trkpt><trkpt lat="43.08026180414294" lon="11.536680944973613"><ele>299.2857142857143</ele><time>2026-05-02T11:46:18.999Z</time></trkpt><trkpt lat="43.08025671373148" lon="11.536773722007881"><ele>298.0</ele><time>2026-05-02T11:46:19.999Z</time></trkpt><trkpt lat="43.080242143410906" lon="11.536864344741003"><ele>298.0</ele><time>2026-05-02T11:46:20.999Z</time></trkpt><trkpt lat="43.08022217002294" lon="11.536953389416107"><ele>298.0</ele><time>2026-05-02T11:46:21.999Z</time></trkpt><trkpt lat="43.08021402418762" lon="11.537041210023023"><ele>298.0</ele><time>2026-05-02T11:46:22.999Z</time></trkpt><trkpt lat="43.0802248649212" lon="11.537127131059677"><ele>298.0</ele><time>2026-05-02T11:46:23.999Z</time></trkpt><trkpt lat="43.08023884552881" lon="11.537224017706539"><ele>298.0</ele><time>2026-05-02T11:46:24.999Z</time></trkpt><trkpt lat="43.08029673129953" lon="11.53734751938923"><ele>298.0</ele><time>2026-05-02T11:46:25.999Z</time></trkpt><trkpt lat="43.08041951511189" lon="11.537417943289132"><ele>296.6</ele><time>2026-05-02T11:46:26.999Z</time></trkpt><trkpt lat="43.080528295139906" lon="11.537493887003524"><ele>295.20000000000005</ele><time>2026-05-02T11:46:27.999Z</time></trkpt><trkpt lat="43.0806146774696" lon="11.537573381203702"><ele>293.8</ele><time>2026-05-02T11:46:28.999Z</time></trkpt><trkpt lat="43.08067541708183" lon="11.537682306038201"><ele>292.40000000000003</ele><time>2026-05-02T11:46:29.999Z</time></trkpt><trkpt lat="43.08071837222062" lon="11.537826182248796"><ele>291.0</ele><time>2026-05-02T11:46:30.999Z</time></trkpt><trkpt lat="43.08074752148689" lon="11.537984045364098"><ele>290.2</ele><time>2026-05-02T11:46:31.999Z</time></trkpt><trkpt lat="43.08077119346381" lon="11.538138279573326"><ele>289.40000000000003</ele><time>2026-05-02T11:46:32.999Z</time></trkpt><trkpt lat="43.08078923839918" lon="11.538278790132123"><ele>288.6</ele><time>2026-05-02T11:46:33.999Z</time></trkpt><trkpt lat="43.08079951535208" lon="11.538413156127039"><ele>287.8</ele><time>2026-05-02T11:46:35Z</time></trkpt><trkpt lat="43.080823353439904" lon="11.538542557561607"><ele>287.0</ele><time>2026-05-02T11:46:36Z</time></trkpt><trkpt lat="43.080845055085184" lon="11.538679314765792"><ele>286.75</ele><time>2026-05-02T11:46:37Z</time></trkpt><trkpt lat="43.080859716766405" lon="11.538827160272879"><ele>286.5</ele><time>2026-05-02T11:46:38Z</time></trkpt><trkpt lat="43.08088642869464" lon="11.538989376886152"><ele>286.25</ele><time>2026-05-02T11:46:39Z</time></trkpt><trkpt lat="43.08091458765563" lon="11.539171900983003"><ele>286.0</ele><time>2026-05-02T11:46:40Z</time></trkpt><trkpt lat="43.080961551102455" lon="11.539365333507279"><ele>287.0</ele><time>2026-05-02T11:46:41Z</time></trkpt><trkpt lat="43.08104192732105" lon="11.53956099746978"><ele>288.0</ele><time>2026-05-02T11:46:42Z</time></trkpt><trkpt lat="43.08114814399238" lon="11.539741750196121"><ele>289.0</ele><time>2026-05-02T11:46:43Z</time></trkpt><trkpt lat="43.081275609875085" lon="11.53989664987806"><ele>289.0</ele><time>2026-05-02T11:46:44Z</time></trkpt><trkpt lat="43.08139916204431" lon="11.540016291267355"><ele>289.0</ele><time>2026-05-02T11:46:45Z</time></trkpt><trkpt lat="43.081494334948175" lon="11.540112588521424"><ele>289.0</ele><time>2026-05-02T11:46:46Z</time></trkpt><trkpt lat="43.08155872252699" lon="11.540213499420188"><ele>289.0</ele><time>2026-05-02T11:46:47Z</time></trkpt><trkpt lat="43.08160936640487" lon="11.540343043959862"><ele>290.0</ele><time>2026-05-02T11:46:48Z</time></trkpt><trkpt lat="43.08165466951661" lon="11.540489878883525"><ele>291.0</ele><time>2026-05-02T11:46:49Z</time></trkpt><trkpt lat="43.08167596794274" lon="11.54066770536927"><ele>292.0</ele><time>2026-05-02T11:46:50Z</time></trkpt><trkpt lat="43.08169332894193" lon="11.540883459298756"><ele>293.0</ele><time>2026-05-02T11:46:51Z</time></trkpt><trkpt lat="43.0817085719104" lon="11.541097888068254"><ele>293.75</ele><time>2026-05-02T11:46:52Z</time></trkpt><trkpt lat="43.08173266172827" lon="11.541278689405482"><ele>294.5</ele><time>2026-05-02T11:46:53Z</time></trkpt><trkpt lat="43.081768399820696" lon="11.5414367258005"><ele>295.25</ele><time>2026-05-02T11:46:54Z</time></trkpt><trkpt lat="43.08181119057379" lon="11.541596395304913"><ele>296.0</ele><time>2026-05-02T11:46:55Z</time></trkpt><trkpt lat="43.08185497980432" lon="11.541751820507754"><ele>296.0</ele><time>2026-05-02T11:46:56Z</time></trkpt><trkpt lat="43.08187127338454" lon="11.541897733637251"><ele>296.0</ele><time>2026-05-02T11:46:57Z</time></trkpt><trkpt lat="43.081889726333635" lon="11.54202479867655"><ele>296.0</ele><time>2026-05-02T11:46:58Z</time></trkpt><trkpt lat="43.08191308750225" lon="11.542161497107783"><ele>296.0</ele><time>2026-05-02T11:46:59Z</time></trkpt><trkpt lat="43.08190532822583" lon="11.542322493270035"><ele>296.0</ele><time>2026-05-02T11:47:00Z</time></trkpt><trkpt lat="43.08190132317657" lon="11.542478544507098"><ele>296.0</ele><time>2026-05-02T11:47:01.001Z</time></trkpt><trkpt lat="43.08190406415961" lon="11.542614190562734"><ele>296.0</ele><time>2026-05-02T11:47:02.001Z</time></trkpt><trkpt lat="43.08192466320206" lon="11.542736704332466"><ele>296.0</ele><time>2026-05-02T11:47:03.001Z</time></trkpt><trkpt lat="43.08196092623527" lon="11.542834438370265"><ele>296.0</ele><time>2026-05-02T11:47:04.001Z</time></trkpt><trkpt lat="43.081982442256276" lon="11.542927878620581"><ele>296.0</ele><time>2026-05-02T11:47:05.001Z</time></trkpt><trkpt lat="43.08206144247979" lon="11.542991040114805"><ele>296.0</ele><time>2026-05-02T11:47:06.001Z</time></trkpt><trkpt lat="43.08214878665275" lon="11.54303212109927"><ele>294.5</ele><time>2026-05-02T11:47:07.001Z</time></trkpt><trkpt lat="43.082273663061855" lon="11.543048374256811"><ele>293.0</ele><time>2026-05-02T11:47:08.001Z</time></trkpt><trkpt lat="43.08240836868191" lon="11.543075198600443"><ele>291.5</ele><time>2026-05-02T11:47:09.001Z</time></trkpt><trkpt lat="43.082562877460624" lon="11.543127269780202"><ele>290.0</ele><time>2026-05-02T11:47:10.001Z</time></trkpt><trkpt lat="43.0827318903299" lon="11.54316151892006"><ele>290.0</ele><time>2026-05-02T11:47:11.001Z</time></trkpt><trkpt lat="43.0828691102412" lon="11.543205161640058"><ele>290.0</ele><time>2026-05-02T11:47:12.001Z</time></trkpt><trkpt lat="43.08299974644342" lon="11.543225964565698"><ele>290.0</ele><time>2026-05-02T11:47:13.001Z</time></trkpt><trkpt lat="43.08314392576242" lon="11.543243530526846"><ele>290.0</ele><time>2026-05-02T11:47:14.001Z</time></trkpt><trkpt lat="43.083276934198516" lon="11.543279479867794"><ele>289.0</ele><time>2026-05-02T11:47:15.001Z</time></trkpt><trkpt lat="43.08338623520378" lon="11.543339657766554"><ele>288.0</ele><time>2026-05-02T11:47:16.001Z</time></trkpt><trkpt lat="43.083491432549195" lon="11.54336714095663"><ele>287.0</ele><time>2026-05-02T11:47:17.001Z</time></trkpt><trkpt lat="43.08358068807164" lon="11.543375475238083"><ele>286.0</ele><time>2026-05-02T11:47:18.001Z</time></trkpt><trkpt lat="43.08365947749179" lon="11.543328959245782"><ele>285.0</ele><time>2026-05-02T11:47:19.001Z</time></trkpt><trkpt lat="43.08374535304862" lon="11.543303736087223"><ele>285.0</ele><time>2026-05-02T11:47:20.001Z</time></trkpt><trkpt lat="43.08383687525726" lon="11.543229731478114"><ele>285.0</ele><time>2026-05-02T11:47:21.001Z</time></trkpt><trkpt lat="43.08391358179142" lon="11.543166609282496"><ele>285.0</ele><time>2026-05-02T11:47:22.001Z</time></trkpt><trkpt lat="43.08401624004081" lon="11.543157924899106"><ele>285.0</ele><time>2026-05-02T11:47:23.001Z</time></trkpt><trkpt lat="43.084123568586584" lon="11.543228348038108"><ele>285.0</ele><time>2026-05-02T11:47:24.001Z</time></trkpt><trkpt lat="43.08425270389665" lon="11.543283989021987"><ele>282.3333333333333</ele><time>2026-05-02T11:47:25.001Z</time></trkpt><trkpt lat="43.08439847662076" lon="11.543341322253612"><ele>279.66666666666663</ele><time>2026-05-02T11:47:26.001Z</time></trkpt><trkpt lat="43.0845562852564" lon="11.5434180097316"><ele>277.0</ele><time>2026-05-02T11:47:27.001Z</time></trkpt><trkpt lat="43.084699977609446" lon="11.54348318196936"><ele>277.0</ele><time>2026-05-02T11:47:28.001Z</time></trkpt><trkpt lat="43.084832314063256" lon="11.543530138864394"><ele>277.0</ele><time>2026-05-02T11:47:29.001Z</time></trkpt><trkpt lat="43.08495315586757" lon="11.543592287352524"><ele>277.0</ele><time>2026-05-02T11:47:30.001Z</time></trkpt><trkpt lat="43.08506871526138" lon="11.543656791791564"><ele>277.0</ele><time>2026-05-02T11:47:31.001Z</time></trkpt><trkpt lat="43.08519024523855" lon="11.543734260160498"><ele>275.25</ele><time>2026-05-02T11:47:32.001Z</time></trkpt><trkpt lat="43.08532835773978" lon="11.543822827470741"><ele>273.5</ele><time>2026-05-02T11:47:33.002Z</time></trkpt><trkpt lat="43.0854613687502" lon="11.54389816409314"><ele>271.75</ele><time>2026-05-02T11:47:34.002Z</time></trkpt><trkpt lat="43.08558578334513" lon="11.543949386480456"><ele>270.0</ele><time>2026-05-02T11:47:35.002Z</time></trkpt><trkpt lat="43.08570810322475" lon="11.543988529474138"><ele>270.0</ele><time>2026-05-02T11:47:36.002Z</time></trkpt><trkpt lat="43.08583630680588" lon="11.54401541118293"><ele>270.0</ele><time>2026-05-02T11:47:37.002Z</time></trkpt><trkpt lat="43.08596500460583" lon="11.544035590687407"><ele>270.0</ele><time>2026-05-02T11:47:38.002Z</time></trkpt><trkpt lat="43.08609273856009" lon="11.544062783561172"><ele>270.0</ele><time>2026-05-02T11:47:39.002Z</time></trkpt><trkpt lat="43.08621683098201" lon="11.544081182042493"><ele>270.0</ele><time>2026-05-02T11:47:40.002Z</time></trkpt><trkpt lat="43.08633276107578" lon="11.544117278692694"><ele>270.0</ele><time>2026-05-02T11:47:41.002Z</time></trkpt><trkpt lat="43.08645015827952" lon="11.544172654139455"><ele>270.0</ele><time>2026-05-02T11:47:42.002Z</time></trkpt><trkpt lat="43.0865557901856" lon="11.544241346647944"><ele>270.0</ele><time>2026-05-02T11:47:43.002Z</time></trkpt><trkpt lat="43.08665248147208" lon="11.54432001223683"><ele>270.1666666666667</ele><time>2026-05-02T11:47:44.002Z</time></trkpt><trkpt lat="43.08674242841282" lon="11.54439751533768"><ele>270.3333333333333</ele><time>2026-05-02T11:47:45.002Z</time></trkpt><trkpt lat="43.086821931886575" lon="11.544463628034075"><ele>270.5</ele><time>2026-05-02T11:47:46.002Z</time></trkpt><trkpt lat="43.08689367283858" lon="11.54453262136341"><ele>270.66666666666663</ele><time>2026-05-02T11:47:47.002Z</time></trkpt><trkpt lat="43.08695715066908" lon="11.544594718746556"><ele>270.8333333333333</ele><time>2026-05-02T11:47:48.002Z</time></trkpt><trkpt lat="43.08701306380111" lon="11.544652278863696"><ele>271.0</ele><time>2026-05-02T11:47:49.002Z</time></trkpt><trkpt lat="43.087079117586605" lon="11.544742579805582"><ele>271.0</ele><time>2026-05-02T11:47:51.002Z</time></trkpt><trkpt lat="43.08710057293153" lon="11.544859746379872"><ele>271.0</ele><time>2026-05-02T11:47:55.002Z</time></trkpt><trkpt lat="43.08704469096459" lon="11.544977730947576"><ele>271.0</ele><time>2026-05-02T11:47:57.002Z</time></trkpt><trkpt lat="43.087007418691854" lon="11.545088855642186"><ele>271.0</ele><time>2026-05-02T11:47:58.002Z</time></trkpt><trkpt lat="43.08696235564655" lon="11.54522205445654"><ele>271.0</ele><time>2026-05-02T11:47:59.002Z</time></trkpt><trkpt lat="43.086919918140566" lon="11.545352351188905"><ele>270.0</ele><time>2026-05-02T11:48:00.002Z</time></trkpt><trkpt lat="43.08687577393685" lon="11.545499983930709"><ele>269.0</ele><time>2026-05-02T11:48:01.002Z</time></trkpt><trkpt lat="43.0868313227649" lon="11.545652453038848"><ele>268.0</ele><time>2026-05-02T11:48:02.002Z</time></trkpt><trkpt lat="43.086788341104544" lon="11.545812888501075"><ele>267.0</ele><time>2026-05-02T11:48:03.002Z</time></trkpt><trkpt lat="43.08674612605885" lon="11.545981735121428"><ele>267.0</ele><time>2026-05-02T11:48:04.002Z</time></trkpt><trkpt lat="43.08670575408272" lon="11.546147609019863"><ele>267.0</ele><time>2026-05-02T11:48:05.002Z</time></trkpt><trkpt lat="43.08667484230955" lon="11.546306063620872"><ele>267.0</ele><time>2026-05-02T11:48:06.003Z</time></trkpt><trkpt lat="43.08664331225006" lon="11.546479956047895"><ele>267.0</ele><time>2026-05-02T11:48:07.003Z</time></trkpt><trkpt lat="43.08660023220759" lon="11.546650816882405"><ele>265.0</ele><time>2026-05-02T11:48:08.003Z</time></trkpt><trkpt lat="43.086560336152026" lon="11.546817288301867"><ele>263.0</ele><time>2026-05-02T11:48:09.003Z</time></trkpt><trkpt lat="43.086518692799714" lon="11.546983973836245"><ele>261.0</ele><time>2026-05-02T11:48:10.003Z</time></trkpt><trkpt lat="43.08648526312945" lon="11.54714975144348"><ele>259.0</ele><time>2026-05-02T11:48:11.003Z</time></trkpt><trkpt lat="43.08645184599235" lon="11.54731444709472"><ele>258.75</ele><time>2026-05-02T11:48:12.003Z</time></trkpt><trkpt lat="43.086411573496896" lon="11.547476014792458"><ele>258.5</ele><time>2026-05-02T11:48:13.003Z</time></trkpt><trkpt lat="43.08638207430196" lon="11.54763367962446"><ele>258.25</ele><time>2026-05-02T11:48:14.003Z</time></trkpt><trkpt lat="43.08635494237355" lon="11.547776283645163"><ele>258.0</ele><time>2026-05-02T11:48:15.003Z</time></trkpt><trkpt lat="43.08632408930774" lon="11.547907636237829"><ele>257.6</ele><time>2026-05-02T11:48:16.003Z</time></trkpt><trkpt lat="43.08629440513227" lon="11.54803120124844"><ele>257.20000000000005</ele><time>2026-05-02T11:48:17.003Z</time></trkpt><trkpt lat="43.08627006687646" lon="11.548143608746672"><ele>256.8</ele><time>2026-05-02T11:48:18.003Z</time></trkpt><trkpt lat="43.0862461455913" lon="11.548230741809437"><ele>256.40000000000003</ele><time>2026-05-02T11:48:19.003Z</time></trkpt><trkpt lat="43.08620886743296" lon="11.548343853111138"><ele>256.0</ele><time>2026-05-02T11:48:20.999Z</time></trkpt><trkpt lat="43.086250368356616" lon="11.548186813262916"><ele>256.0</ele><time>2026-05-02T11:48:51Z</time></trkpt><trkpt lat="43.08619281996881" lon="11.548225459893787"><ele>256.0</ele><time>2026-05-02T11:48:52Z</time></trkpt><trkpt lat="43.08630864284513" lon="11.54796831938958"><ele>256.0</ele><time>2026-05-02T11:48:54Z</time></trkpt><trkpt lat="43.08631358282832" lon="11.54787095984163"><ele>256.0</ele><time>2026-05-02T11:48:55Z</time></trkpt><trkpt lat="43.08633519246628" lon="11.547767311000442"><ele>256.0</ele><time>2026-05-02T11:48:56.001Z</time></trkpt><trkpt lat="43.08636285358256" lon="11.547657382232659"><ele>256.3333333333333</ele><time>2026-05-02T11:48:57.001Z</time></trkpt><trkpt lat="43.08639296536437" lon="11.547539712717127"><ele>256.66666666666663</ele><time>2026-05-02T11:48:58.001Z</time></trkpt><trkpt lat="43.08642525509305" lon="11.547421502042019"><ele>257.0</ele><time>2026-05-02T11:48:59.001Z</time></trkpt><trkpt lat="43.08645301036427" lon="11.54732292818797"><ele>257.3333333333333</ele><time>2026-05-02T11:49:00.001Z</time></trkpt><trkpt lat="43.0864736978084" lon="11.547238413520427"><ele>257.6666666666667</ele><time>2026-05-02T11:49:01.001Z</time></trkpt><trkpt lat="43.08651109812256" lon="11.54708338837783"><ele>258.0</ele><time>2026-05-02T11:49:03.001Z</time></trkpt><trkpt lat="43.08652627150917" lon="11.546997742457382"><ele>258.1666666666667</ele><time>2026-05-02T11:49:04.001Z</time></trkpt><trkpt lat="43.08654760990763" lon="11.54690775740301"><ele>258.3333333333333</ele><time>2026-05-02T11:49:05.001Z</time></trkpt><trkpt lat="43.08658126439056" lon="11.546767097147562"><ele>258.5</ele><time>2026-05-02T11:49:07.001Z</time></trkpt><trkpt lat="43.08662613319669" lon="11.546601866015468"><ele>258.66666666666663</ele><time>2026-05-02T11:49:09.001Z</time></trkpt><trkpt lat="43.0866506017658" lon="11.54651603808462"><ele>258.8333333333333</ele><time>2026-05-02T11:49:10.001Z</time></trkpt><trkpt lat="43.08667126329728" lon="11.546425985033109"><ele>259.0</ele><time>2026-05-02T11:49:11.001Z</time></trkpt><trkpt lat="43.086700277795345" lon="11.546343838886823"><ele>259.59999999999997</ele><time>2026-05-02T11:49:12.001Z</time></trkpt><trkpt lat="43.08673451762361" lon="11.546190941204728"><ele>260.2</ele><time>2026-05-02T11:49:14.001Z</time></trkpt><trkpt lat="43.086757857258235" lon="11.546086235891947"><ele>260.79999999999995</ele><time>2026-05-02T11:49:16.001Z</time></trkpt><trkpt lat="43.08660351656458" lon="11.546015599183393"><ele>261.4</ele><time>2026-05-02T11:49:25.002Z</time></trkpt><trkpt lat="43.08652728844713" lon="11.545981818315068"><ele>262.0</ele><time>2026-05-02T11:49:26.002Z</time></trkpt><trkpt lat="43.08644950513407" lon="11.545967448845799"><ele>262.0</ele><time>2026-05-02T11:49:27.002Z</time></trkpt><trkpt lat="43.086354946637805" lon="11.545936950962648"><ele>262.0</ele><time>2026-05-02T11:49:28.002Z</time></trkpt><trkpt lat="43.08625458170471" lon="11.545915861757482"><ele>262.0</ele><time>2026-05-02T11:49:29.002Z</time></trkpt><trkpt lat="43.08616364718632" lon="11.545893598821113"><ele>262.0</ele><time>2026-05-02T11:49:30.002Z</time></trkpt><trkpt lat="43.08607879698355" lon="11.545871958734539"><ele>262.0</ele><time>2026-05-02T11:49:31.002Z</time></trkpt><trkpt lat="43.08599352628777" lon="11.545841733298566"><ele>262.0</ele><time>2026-05-02T11:49:32.002Z</time></trkpt><trkpt lat="43.085926002940994" lon="11.545817758547159"><ele>262.0</ele><time>2026-05-02T11:49:33.002Z</time></trkpt><trkpt lat="43.085861682606684" lon="11.545803470447604"><ele>262.0</ele><time>2026-05-02T11:49:34.002Z</time></trkpt><trkpt lat="43.08578345724552" lon="11.545794600322775"><ele>262.0</ele><time>2026-05-02T11:49:36.002Z</time></trkpt><trkpt lat="43.08569294844587" lon="11.545885589832631"><ele>262.0</ele><time>2026-05-02T11:49:38.002Z</time></trkpt><trkpt lat="43.08565453366894" lon="11.545976332526934"><ele>262.0</ele><time>2026-05-02T11:49:39.002Z</time></trkpt><trkpt lat="43.08561159638645" lon="11.54607408088537"><ele>261.8</ele><time>2026-05-02T11:49:40.002Z</time></trkpt><trkpt lat="43.085563846738054" lon="11.546189400852695"><ele>261.6</ele><time>2026-05-02T11:49:41.002Z</time></trkpt><trkpt lat="43.08550424416352" lon="11.546321042512824"><ele>261.40000000000003</ele><time>2026-05-02T11:49:42.002Z</time></trkpt><trkpt lat="43.085446488305706" lon="11.546447054347574"><ele>261.2</ele><time>2026-05-02T11:49:43.002Z</time></trkpt><trkpt lat="43.08538301982167" lon="11.546568798812757"><ele>261.0</ele><time>2026-05-02T11:49:44.002Z</time></trkpt><trkpt lat="43.0853120307574" lon="11.546704392347252"><ele>260.6</ele><time>2026-05-02T11:49:45.002Z</time></trkpt><trkpt lat="43.08524471313359" lon="11.546844188581858"><ele>260.20000000000005</ele><time>2026-05-02T11:49:46.002Z</time></trkpt><trkpt lat="43.085179147218575" lon="11.546976636137611"><ele>259.79999999999995</ele><time>2026-05-02T11:49:47.002Z</time></trkpt><trkpt lat="43.085120236217875" lon="11.547096145128922"><ele>259.4</ele><time>2026-05-02T11:49:48.002Z</time></trkpt><trkpt lat="43.08507113004178" lon="11.547199689044426"><ele>259.0</ele><time>2026-05-02T11:49:49.002Z</time></trkpt><trkpt lat="43.08501418626116" lon="11.547323391758255"><ele>258.4</ele><time>2026-05-02T11:49:50.002Z</time></trkpt><trkpt lat="43.084955896648495" lon="11.5474404520081"><ele>257.79999999999995</ele><time>2026-05-02T11:49:51.002Z</time></trkpt><trkpt lat="43.08489689539651" lon="11.547558295254033"><ele>257.20000000000005</ele><time>2026-05-02T11:49:52.002Z</time></trkpt><trkpt lat="43.08484946653377" lon="11.547673973028889"><ele>256.6</ele><time>2026-05-02T11:49:53.002Z</time></trkpt><trkpt lat="43.08480065925504" lon="11.54777648688252"><ele>256.0</ele><time>2026-05-02T11:49:54.002Z</time></trkpt><trkpt lat="43.084750639572896" lon="11.547871825627455"><ele>254.83333333333331</ele><time>2026-05-02T11:49:55.002Z</time></trkpt><trkpt lat="43.084703351206414" lon="11.54795694073661"><ele>253.66666666666666</ele><time>2026-05-02T11:49:56.002Z</time></trkpt><trkpt lat="43.08466587716968" lon="11.548038446125057"><ele>252.5</ele><time>2026-05-02T11:49:57.002Z</time></trkpt><trkpt lat="43.0846300468279" lon="11.548128468183977"><ele>251.33333333333331</ele><time>2026-05-02T11:49:58.003Z</time></trkpt><trkpt lat="43.08457215187707" lon="11.548248592123375"><ele>250.16666666666666</ele><time>2026-05-02T11:50:00.003Z</time></trkpt><trkpt lat="43.08455706570832" lon="11.548348448025013"><ele>249.0</ele><time>2026-05-02T11:50:04.003Z</time></trkpt><trkpt lat="43.08472394069296" lon="11.548433831560239"><ele>249.0</ele><time>2026-05-02T11:50:06.003Z</time></trkpt><trkpt lat="43.084818676634434" lon="11.548471794735391"><ele>249.0</ele><time>2026-05-02T11:50:07.003Z</time></trkpt><trkpt lat="43.084916447883884" lon="11.548542790269044"><ele>249.0</ele><time>2026-05-02T11:50:08.003Z</time></trkpt><trkpt lat="43.08502065427896" lon="11.548636399437779"><ele>249.0</ele><time>2026-05-02T11:50:09.003Z</time></trkpt><trkpt lat="43.08513101005215" lon="11.548748657813356"><ele>249.66666666666669</ele><time>2026-05-02T11:50:10.003Z</time></trkpt><trkpt lat="43.0852549641098" lon="11.54887123043227"><ele>250.33333333333334</ele><time>2026-05-02T11:50:11.003Z</time></trkpt><trkpt lat="43.08538773358694" lon="11.548998353938128"><ele>251.0</ele><time>2026-05-02T11:50:12.003Z</time></trkpt><trkpt lat="43.08550183427783" lon="11.54912772026779"><ele>251.0</ele><time>2026-05-02T11:50:13.003Z</time></trkpt><trkpt lat="43.08563628125667" lon="11.549209136855556"><ele>251.0</ele><time>2026-05-02T11:50:14.003Z</time></trkpt><trkpt lat="43.08574638773179" lon="11.549276235755336"><ele>251.0</ele><time>2026-05-02T11:50:15.003Z</time></trkpt><trkpt lat="43.08583518978846" lon="11.549326121974717"><ele>251.0</ele><time>2026-05-02T11:50:16.003Z</time></trkpt><trkpt lat="43.08593233192627" lon="11.54936935030415"><ele>250.8</ele><time>2026-05-02T11:50:18.003Z</time></trkpt><trkpt lat="43.08592742988497" lon="11.549481628692323"><ele>250.60000000000002</ele><time>2026-05-02T11:50:21.003Z</time></trkpt><trkpt lat="43.085836280098356" lon="11.549638443805291"><ele>250.4</ele><time>2026-05-02T11:50:23.003Z</time></trkpt><trkpt lat="43.085772238816844" lon="11.549738124443065"><ele>250.2</ele><time>2026-05-02T11:50:24.003Z</time></trkpt><trkpt lat="43.08570227338548" lon="11.549847685398841"><ele>250.0</ele><time>2026-05-02T11:50:25.003Z</time></trkpt><trkpt lat="43.08562358708818" lon="11.549970922466278"><ele>250.0</ele><time>2026-05-02T11:50:26.003Z</time></trkpt><trkpt lat="43.08553798700576" lon="11.550104774380378"><ele>250.0</ele><time>2026-05-02T11:50:26.999Z</time></trkpt><trkpt lat="43.08545543566147" lon="11.55024599628561"><ele>250.0</ele><time>2026-05-02T11:50:27.999Z</time></trkpt><trkpt lat="43.085376565059" lon="11.550373591077658"><ele>250.0</ele><time>2026-05-02T11:50:28.999Z</time></trkpt><trkpt lat="43.08530019416586" lon="11.550493757426997"><ele>249.6</ele><time>2026-05-02T11:50:29.999Z</time></trkpt><trkpt lat="43.085229495867935" lon="11.550613063528472"><ele>249.2</ele><time>2026-05-02T11:50:30.999Z</time></trkpt><trkpt lat="43.085159340182365" lon="11.550719131091396"><ele>248.8</ele><time>2026-05-02T11:50:31.999Z</time></trkpt><trkpt lat="43.085085037362816" lon="11.550826687624687"><ele>248.4</ele><time>2026-05-02T11:50:32.999Z</time></trkpt><trkpt lat="43.0850003914246" lon="11.550937504733495"><ele>248.0</ele><time>2026-05-02T11:50:33.999Z</time></trkpt><trkpt lat="43.084917498626886" lon="11.551049998333845"><ele>247.5</ele><time>2026-05-02T11:50:34.999Z</time></trkpt><trkpt lat="43.08483209350122" lon="11.55116897559745"><ele>247.0</ele><time>2026-05-02T11:50:35.999Z</time></trkpt><trkpt lat="43.08473500290611" lon="11.551299234508921"><ele>246.5</ele><time>2026-05-02T11:50:36.999Z</time></trkpt><trkpt lat="43.08463520144037" lon="11.551435336944248"><ele>246.0</ele><time>2026-05-02T11:50:37.999Z</time></trkpt><trkpt lat="43.084531209441224" lon="11.551575861556854"><ele>246.0</ele><time>2026-05-02T11:50:38.999Z</time></trkpt><trkpt lat="43.08442580989742" lon="11.55171798435675"><ele>246.0</ele><time>2026-05-02T11:50:39.999Z</time></trkpt><trkpt lat="43.08432352396161" lon="11.551863007886606"><ele>246.0</ele><time>2026-05-02T11:50:41Z</time></trkpt><trkpt lat="43.08422560871914" lon="11.552025161435402"><ele>246.0</ele><time>2026-05-02T11:50:42Z</time></trkpt><trkpt lat="43.08413481493229" lon="11.552205880429659"><ele>244.66666666666669</ele><time>2026-05-02T11:50:43Z</time></trkpt><trkpt lat="43.08405069880586" lon="11.552396252014534"><ele>243.33333333333334</ele><time>2026-05-02T11:50:44Z</time></trkpt><trkpt lat="43.08397234414603" lon="11.552582672522155"><ele>242.0</ele><time>2026-05-02T11:50:45Z</time></trkpt><trkpt lat="43.08389797292889" lon="11.552795178352095"><ele>242.33333333333334</ele><time>2026-05-02T11:50:46Z</time></trkpt><trkpt lat="43.083835788829845" lon="11.55304328425144"><ele>242.66666666666669</ele><time>2026-05-02T11:50:47Z</time></trkpt><trkpt lat="43.08378779160243" lon="11.553331292814656"><ele>243.0</ele><time>2026-05-02T11:50:48Z</time></trkpt><trkpt lat="43.0837465046078" lon="11.553644724311722"><ele>244.0</ele><time>2026-05-02T11:50:49Z</time></trkpt><trkpt lat="43.08370405034626" lon="11.553953940113416"><ele>245.0</ele><time>2026-05-02T11:50:50Z</time></trkpt><trkpt lat="43.08365602889091" lon="11.554232321219862"><ele>246.0</ele><time>2026-05-02T11:50:51Z</time></trkpt><trkpt lat="43.08362208111754" lon="11.55444496103105"><ele>247.25</ele><time>2026-05-02T11:50:52Z</time></trkpt><trkpt lat="43.08359882058036" lon="11.554616189738686"><ele>248.5</ele><time>2026-05-02T11:50:53Z</time></trkpt><trkpt lat="43.083571768823965" lon="11.554787432323186"><ele>249.75</ele><time>2026-05-02T11:50:54Z</time></trkpt><trkpt lat="43.08353302056069" lon="11.554984263738282"><ele>251.0</ele><time>2026-05-02T11:50:55Z</time></trkpt><trkpt lat="43.083498057985054" lon="11.555210320811094"><ele>252.33333333333334</ele><time>2026-05-02T11:50:56Z</time></trkpt><trkpt lat="43.08346669762996" lon="11.555443750974264"><ele>253.66666666666669</ele><time>2026-05-02T11:50:57Z</time></trkpt><trkpt lat="43.08345206703684" lon="11.555648996771758"><ele>255.0</ele><time>2026-05-02T11:50:58Z</time></trkpt><trkpt lat="43.083449257382306" lon="11.555827641127873"><ele>255.0</ele><time>2026-05-02T11:50:59Z</time></trkpt><trkpt lat="43.083468538836264" lon="11.555987045724072"><ele>255.0</ele><time>2026-05-02T11:51:00Z</time></trkpt><trkpt lat="43.08352309957975" lon="11.55612964877242"><ele>255.0</ele><time>2026-05-02T11:51:01Z</time></trkpt><trkpt lat="43.083621395215715" lon="11.55623370353175"><ele>255.0</ele><time>2026-05-02T11:51:02Z</time></trkpt><trkpt lat="43.08375564741561" lon="11.556298365928956"><ele>255.0</ele><time>2026-05-02T11:51:03Z</time></trkpt><trkpt lat="43.08391110720097" lon="11.55635172113876"><ele>255.0</ele><time>2026-05-02T11:51:04.001Z</time></trkpt><trkpt lat="43.084074066007574" lon="11.55641625574565"><ele>255.0</ele><time>2026-05-02T11:51:05.001Z</time></trkpt><trkpt lat="43.08421984226406" lon="11.556523407519022"><ele>258.3333333333333</ele><time>2026-05-02T11:51:06.001Z</time></trkpt><trkpt lat="43.08434706385162" lon="11.556695171323181"><ele>261.66666666666663</ele><time>2026-05-02T11:51:07.001Z</time></trkpt><trkpt lat="43.084458392174" lon="11.55687033567712"><ele>265.0</ele><time>2026-05-02T11:51:08.001Z</time></trkpt><trkpt lat="43.0845206063354" lon="11.557056746730833"><ele>267.66666666666663</ele><time>2026-05-02T11:51:09.001Z</time></trkpt><trkpt lat="43.084549558434894" lon="11.557264388982626"><ele>270.3333333333333</ele><time>2026-05-02T11:51:10.001Z</time></trkpt><trkpt lat="43.084568794906794" lon="11.557487903022759"><ele>273.0</ele><time>2026-05-02T11:51:11.001Z</time></trkpt><trkpt lat="43.084574684201996" lon="11.557727783135876"><ele>274.6666666666667</ele><time>2026-05-02T11:51:12.001Z</time></trkpt><trkpt lat="43.084505615199035" lon="11.557958865545686"><ele>276.33333333333337</ele><time>2026-05-02T11:51:13.001Z</time></trkpt><trkpt lat="43.08443743460734" lon="11.558200293653982"><ele>278.0</ele><time>2026-05-02T11:51:14.001Z</time></trkpt><trkpt lat="43.084385254080445" lon="11.55842273846969"><ele>278.0</ele><time>2026-05-02T11:51:15.001Z</time></trkpt><trkpt lat="43.0843293036504" lon="11.558605156086301"><ele>278.0</ele><time>2026-05-02T11:51:16.001Z</time></trkpt><trkpt lat="43.084318465019116" lon="11.558781683854018"><ele>278.0</ele><time>2026-05-02T11:51:17.001Z</time></trkpt><trkpt lat="43.084335568992486" lon="11.558958040646143"><ele>278.0</ele><time>2026-05-02T11:51:18.001Z</time></trkpt><trkpt lat="43.084378074744535" lon="11.55909899102981"><ele>278.6</ele><time>2026-05-02T11:51:19.001Z</time></trkpt><trkpt lat="43.0844423435355" lon="11.559208384279211"><ele>279.20000000000005</ele><time>2026-05-02T11:51:20.001Z</time></trkpt><trkpt lat="43.08453872734441" lon="11.559271751547756"><ele>279.8</ele><time>2026-05-02T11:51:21.001Z</time></trkpt><trkpt lat="43.0846542824255" lon="11.55929325724557"><ele>280.40000000000003</ele><time>2026-05-02T11:51:22.001Z</time></trkpt><trkpt lat="43.0847499145188" lon="11.559303781533888"><ele>281.0</ele><time>2026-05-02T11:51:23.001Z</time></trkpt><trkpt lat="43.084812909260044" lon="11.5593615847728"><ele>281.0</ele><time>2026-05-02T11:51:24.001Z</time></trkpt><trkpt lat="43.08483394572834" lon="11.559475446089532"><ele>281.0</ele><time>2026-05-02T11:51:25.001Z</time></trkpt><trkpt lat="43.08482712834962" lon="11.559632897885287"><ele>281.0</ele><time>2026-05-02T11:51:26.001Z</time></trkpt><trkpt lat="43.08476788148626" lon="11.559813506904659"><ele>281.0</ele><time>2026-05-02T11:51:27.001Z</time></trkpt><trkpt lat="43.0847614081727" lon="11.559985801413957"><ele>281.0</ele><time>2026-05-02T11:51:28.001Z</time></trkpt><trkpt lat="43.08481237381517" lon="11.560122167110142"><ele>281.0</ele><time>2026-05-02T11:51:29.001Z</time></trkpt><trkpt lat="43.08491250264397" lon="11.560243225471938"><ele>281.0</ele><time>2026-05-02T11:51:30.001Z</time></trkpt><trkpt lat="43.08503066322165" lon="11.560343854865069"><ele>281.0</ele><time>2026-05-02T11:51:31.001Z</time></trkpt><trkpt lat="43.08508863474454" lon="11.560458185552879"><ele>283.5</ele><time>2026-05-02T11:51:32.001Z</time></trkpt><trkpt lat="43.08511296178438" lon="11.560580756491854"><ele>286.0</ele><time>2026-05-02T11:51:33.001Z</time></trkpt><trkpt lat="43.08510451907134" lon="11.56072637685014"><ele>288.5</ele><time>2026-05-02T11:51:34.002Z</time></trkpt><trkpt lat="43.08501865307193" lon="11.560857059580803"><ele>291.0</ele><time>2026-05-02T11:51:35.002Z</time></trkpt><trkpt lat="43.084881154472384" lon="11.560939737157893"><ele>291.5</ele><time>2026-05-02T11:51:36.002Z</time></trkpt><trkpt lat="43.08479146503243" lon="11.561047190120922"><ele>292.0</ele><time>2026-05-02T11:51:37.002Z</time></trkpt><trkpt lat="43.0847547453885" lon="11.561175210967184"><ele>292.5</ele><time>2026-05-02T11:51:38.002Z</time></trkpt><trkpt lat="43.08477345455481" lon="11.561322835279176"><ele>293.0</ele><time>2026-05-02T11:51:39.002Z</time></trkpt><trkpt lat="43.084832175272" lon="11.561487192514255"><ele>294.6666666666667</ele><time>2026-05-02T11:51:40.002Z</time></trkpt><trkpt lat="43.0849169314606" lon="11.561674784415732"><ele>296.3333333333333</ele><time>2026-05-02T11:51:41.002Z</time></trkpt><trkpt lat="43.08501179361678" lon="11.561885339981075"><ele>298.0</ele><time>2026-05-02T11:51:42.002Z</time></trkpt><trkpt lat="43.08509160020756" lon="11.562099653780633"><ele>298.75</ele><time>2026-05-02T11:51:43.002Z</time></trkpt><trkpt lat="43.08510601264176" lon="11.562277973975647"><ele>299.5</ele><time>2026-05-02T11:51:44.002Z</time></trkpt><trkpt lat="43.08509374650188" lon="11.562426467487283"><ele>300.25</ele><time>2026-05-02T11:51:45.002Z</time></trkpt><trkpt lat="43.08505234963983" lon="11.562587829095959"><ele>301.0</ele><time>2026-05-02T11:51:46.002Z</time></trkpt><trkpt lat="43.084956782996024" lon="11.562726119362463"><ele>302.3333333333333</ele><time>2026-05-02T11:51:47.002Z</time></trkpt><trkpt lat="43.08482388547975" lon="11.562838104194642"><ele>303.6666666666667</ele><time>2026-05-02T11:51:48.002Z</time></trkpt><trkpt lat="43.084665992297985" lon="11.562849632379411"><ele>305.0</ele><time>2026-05-02T11:51:49.002Z</time></trkpt><trkpt lat="43.08448791634883" lon="11.56286176464279"><ele>303.6666666666667</ele><time>2026-05-02T11:51:50.002Z</time></trkpt><trkpt lat="43.08429878630778" lon="11.562874007640595"><ele>302.3333333333333</ele><time>2026-05-02T11:51:51.002Z</time></trkpt><trkpt lat="43.08409802260096" lon="11.562887003785868"><ele>301.0</ele><time>2026-05-02T11:51:52.002Z</time></trkpt><trkpt lat="43.083926908552876" lon="11.562940250864909"><ele>301.0</ele><time>2026-05-02T11:51:53.002Z</time></trkpt><trkpt lat="43.08378155071519" lon="11.56302677483009"><ele>301.0</ele><time>2026-05-02T11:51:54.002Z</time></trkpt><trkpt lat="43.08365793472151" lon="11.563145221285996"><ele>301.0</ele><time>2026-05-02T11:51:55.002Z</time></trkpt><trkpt lat="43.08353549936713" lon="11.56330502062986"><ele>301.0</ele><time>2026-05-02T11:51:56.002Z</time></trkpt><trkpt lat="43.083412996741075" lon="11.563502274877786"><ele>301.0</ele><time>2026-05-02T11:51:57.002Z</time></trkpt><trkpt lat="43.08330000751094" lon="11.563722225402245"><ele>301.0</ele><time>2026-05-02T11:51:58.002Z</time></trkpt><trkpt lat="43.08318324057611" lon="11.563955049830653"><ele>301.0</ele><time>2026-05-02T11:51:59.002Z</time></trkpt><trkpt lat="43.08307529970348" lon="11.56420555114951"><ele>301.0</ele><time>2026-05-02T11:52:00.002Z</time></trkpt><trkpt lat="43.082982184938835" lon="11.564479155582232"><ele>301.0</ele><time>2026-05-02T11:52:01.002Z</time></trkpt><trkpt lat="43.082899114168896" lon="11.56475479320328"><ele>303.0</ele><time>2026-05-02T11:52:02.002Z</time></trkpt><trkpt lat="43.08281547770423" lon="11.565011256318515"><ele>305.0</ele><time>2026-05-02T11:52:03.002Z</time></trkpt><trkpt lat="43.08270836548863" lon="11.565255090627085"><ele>307.0</ele><time>2026-05-02T11:52:04.002Z</time></trkpt><trkpt lat="43.08257212998716" lon="11.565491617288187"><ele>307.3333333333333</ele><time>2026-05-02T11:52:05.002Z</time></trkpt><trkpt lat="43.08242359437238" lon="11.565717824640613"><ele>307.6666666666667</ele><time>2026-05-02T11:52:06.002Z</time></trkpt><trkpt lat="43.08227656563329" lon="11.565941865382651"><ele>308.0</ele><time>2026-05-02T11:52:07.003Z</time></trkpt><trkpt lat="43.082130585109105" lon="11.566162145892779"><ele>311.6666666666667</ele><time>2026-05-02T11:52:08.003Z</time></trkpt><trkpt lat="43.081981696670915" lon="11.566390568495486"><ele>315.3333333333333</ele><time>2026-05-02T11:52:09.003Z</time></trkpt><trkpt lat="43.081842420714025" lon="11.566612829633883"><ele>319.0</ele><time>2026-05-02T11:52:10.003Z</time></trkpt><trkpt lat="43.081725155340536" lon="11.566817595366613"><ele>322.0</ele><time>2026-05-02T11:52:11.003Z</time></trkpt><trkpt lat="43.08165072686618" lon="11.567031238148221"><ele>325.0</ele><time>2026-05-02T11:52:12.003Z</time></trkpt><trkpt lat="43.08159681794405" lon="11.567259450535762"><ele>328.0</ele><time>2026-05-02T11:52:13.003Z</time></trkpt><trkpt lat="43.08156965408505" lon="11.567496242145511"><ele>322.0</ele><time>2026-05-02T11:52:14.003Z</time></trkpt><trkpt lat="43.0815483824457" lon="11.56773635982973"><ele>316.0</ele><time>2026-05-02T11:52:15.003Z</time></trkpt><trkpt lat="43.08153140979186" lon="11.567993399792787"><ele>310.0</ele><time>2026-05-02T11:52:16.003Z</time></trkpt><trkpt lat="43.08150671988237" lon="11.568250190518082"><ele>310.0</ele><time>2026-05-02T11:52:17.003Z</time></trkpt><trkpt lat="43.08147735385474" lon="11.56849955761216"><ele>310.0</ele><time>2026-05-02T11:52:18.003Z</time></trkpt><trkpt lat="43.08142910262885" lon="11.568753226491328"><ele>310.0</ele><time>2026-05-02T11:52:19.003Z</time></trkpt><trkpt lat="43.081350664135975" lon="11.569003802428368"><ele>313.66666666666663</ele><time>2026-05-02T11:52:20.003Z</time></trkpt><trkpt lat="43.0812580887661" lon="11.56926749218374"><ele>317.3333333333333</ele><time>2026-05-02T11:52:21.003Z</time></trkpt><trkpt lat="43.08118074596248" lon="11.569529905659154"><ele>321.0</ele><time>2026-05-02T11:52:22.003Z</time></trkpt><trkpt lat="43.081088404365175" lon="11.569746488657232"><ele>323.3333333333333</ele><time>2026-05-02T11:52:23.003Z</time></trkpt><trkpt lat="43.08099972158138" lon="11.569938961461528"><ele>325.66666666666663</ele><time>2026-05-02T11:52:24.003Z</time></trkpt><trkpt lat="43.08088251975324" lon="11.570089038728154"><ele>328.0</ele><time>2026-05-02T11:52:25.003Z</time></trkpt><trkpt lat="43.080762344711395" lon="11.570202168933903"><ele>328.0</ele><time>2026-05-02T11:52:26.003Z</time></trkpt><trkpt lat="43.08065202770322" lon="11.57026956838653"><ele>328.0</ele><time>2026-05-02T11:52:27.003Z</time></trkpt><trkpt lat="43.080551244464694" lon="11.570298268650054"><ele>328.0</ele><time>2026-05-02T11:52:28.003Z</time></trkpt><trkpt lat="43.080462316695616" lon="11.570305853486227"><ele>328.0</ele><time>2026-05-02T11:52:29.003Z</time></trkpt><trkpt lat="43.08036744444437" lon="11.570391048129723"><ele>328.0</ele><time>2026-05-02T11:52:30.003Z</time></trkpt><trkpt lat="43.08026977668429" lon="11.570415684164495"><ele>330.2</ele><time>2026-05-02T11:52:31.003Z</time></trkpt><trkpt lat="43.080166293580206" lon="11.57044152053662"><ele>332.4</ele><time>2026-05-02T11:52:32.003Z</time></trkpt><trkpt lat="43.08006270012146" lon="11.57047083403095"><ele>334.59999999999997</ele><time>2026-05-02T11:52:32.999Z</time></trkpt><trkpt lat="43.0799543670305" lon="11.570501488646203"><ele>336.79999999999995</ele><time>2026-05-02T11:52:33.999Z</time></trkpt><trkpt lat="43.079852864162675" lon="11.570531211292984"><ele>339.0</ele><time>2026-05-02T11:52:34.999Z</time></trkpt><trkpt lat="43.07976854812923" lon="11.570582576005565"><ele>339.0</ele><time>2026-05-02T11:52:35.999Z</time></trkpt><trkpt lat="43.07970798762413" lon="11.570614989380076"><ele>339.0</ele><time>2026-05-02T11:52:36.999Z</time></trkpt><trkpt lat="43.07965202080339" lon="11.570708244625088"><ele>339.0</ele><time>2026-05-02T11:52:38.999Z</time></trkpt><trkpt lat="43.079695228436684" lon="11.570790403577284"><ele>339.0</ele><time>2026-05-02T11:52:39.999Z</time></trkpt><trkpt lat="43.07981082043854" lon="11.570847211988378"><ele>339.0</ele><time>2026-05-02T11:52:41.999Z</time></trkpt><trkpt lat="43.079897984015346" lon="11.570854403741645"><ele>339.0</ele><time>2026-05-02T11:52:42.999Z</time></trkpt><trkpt lat="43.07999589528014" lon="11.570868093152017"><ele>339.6</ele><time>2026-05-02T11:52:43.999Z</time></trkpt><trkpt lat="43.08010170874354" lon="11.570899168995545"><ele>340.2</ele><time>2026-05-02T11:52:45Z</time></trkpt><trkpt lat="43.08018568210022" lon="11.570942577364374"><ele>340.8</ele><time>2026-05-02T11:52:46Z</time></trkpt><trkpt lat="43.08028609894359" lon="11.570996095375815"><ele>341.40000000000003</ele><time>2026-05-02T11:52:47Z</time></trkpt><trkpt lat="43.08038429920844" lon="11.571082634944359"><ele>342.0</ele><time>2026-05-02T11:52:48Z</time></trkpt><trkpt lat="43.08049983520602" lon="11.571133061770748"><ele>342.75</ele><time>2026-05-02T11:52:49Z</time></trkpt><trkpt lat="43.080614926281974" lon="11.57121559505429"><ele>343.5</ele><time>2026-05-02T11:52:50Z</time></trkpt><trkpt lat="43.08072544916992" lon="11.571313685962028"><ele>344.25</ele><time>2026-05-02T11:52:51Z</time></trkpt><trkpt lat="43.080845348841784" lon="11.571379082412788"><ele>345.0</ele><time>2026-05-02T11:52:52Z</time></trkpt><trkpt lat="43.0809527276994" lon="11.571460952960328"><ele>345.0</ele><time>2026-05-02T11:52:53Z</time></trkpt><trkpt lat="43.081053698941034" lon="11.571546255728625"><ele>345.0</ele><time>2026-05-02T11:52:54Z</time></trkpt><trkpt lat="43.081136327464655" lon="11.571625054600329"><ele>345.0</ele><time>2026-05-02T11:52:55Z</time></trkpt><trkpt lat="43.08121882618539" lon="11.571699574165788"><ele>345.0</ele><time>2026-05-02T11:52:56Z</time></trkpt><trkpt lat="43.08129496152542" lon="11.571771444357577"><ele>345.0</ele><time>2026-05-02T11:52:57Z</time></trkpt><trkpt lat="43.08136906205477" lon="11.571841556447547"><ele>345.0</ele><time>2026-05-02T11:52:58Z</time></trkpt><trkpt lat="43.08145039011578" lon="11.571901595135877"><ele>345.0</ele><time>2026-05-02T11:52:59Z</time></trkpt><trkpt lat="43.08153417630417" lon="11.571961913932846"><ele>345.0</ele><time>2026-05-02T11:53:00Z</time></trkpt><trkpt lat="43.08162643236307" lon="11.572037663839254"><ele>345.0</ele><time>2026-05-02T11:53:01Z</time></trkpt><trkpt lat="43.081707951193074" lon="11.572124283148982"><ele>345.0</ele><time>2026-05-02T11:53:02Z</time></trkpt><trkpt lat="43.08178386590254" lon="11.5722384752596"><ele>345.8</ele><time>2026-05-02T11:53:03Z</time></trkpt><trkpt lat="43.081845307738" lon="11.57236415338594"><ele>346.6</ele><time>2026-05-02T11:53:04Z</time></trkpt><trkpt lat="43.081901172242716" lon="11.572489444369797"><ele>347.4</ele><time>2026-05-02T11:53:05Z</time></trkpt><trkpt lat="43.0819573927011" lon="11.572611843829634"><ele>348.2</ele><time>2026-05-02T11:53:06Z</time></trkpt><trkpt lat="43.08201350789447" lon="11.57272629418251"><ele>349.0</ele><time>2026-05-02T11:53:07.001Z</time></trkpt><trkpt lat="43.08206792944967" lon="11.5728442242818"><ele>346.79999999999995</ele><time>2026-05-02T11:53:08.001Z</time></trkpt><trkpt lat="43.08212462680562" lon="11.572966186974813"><ele>344.59999999999997</ele><time>2026-05-02T11:53:09.001Z</time></trkpt><trkpt lat="43.082173385815935" lon="11.573098313520063"><ele>342.4</ele><time>2026-05-02T11:53:10.001Z</time></trkpt><trkpt lat="43.082232718518874" lon="11.573228141760653"><ele>340.2</ele><time>2026-05-02T11:53:11.001Z</time></trkpt><trkpt lat="43.08228740315971" lon="11.573361971684628"><ele>338.0</ele><time>2026-05-02T11:53:12.001Z</time></trkpt><trkpt lat="43.082343419947804" lon="11.573491064219933"><ele>338.0</ele><time>2026-05-02T11:53:13.001Z</time></trkpt><trkpt lat="43.082401035642235" lon="11.573614162286095"><ele>338.0</ele><time>2026-05-02T11:53:14.001Z</time></trkpt><trkpt lat="43.08245387327319" lon="11.573739639376605"><ele>338.0</ele><time>2026-05-02T11:53:15.001Z</time></trkpt><trkpt lat="43.08250065416507" lon="11.573858650972934"><ele>338.0</ele><time>2026-05-02T11:53:16.001Z</time></trkpt><trkpt lat="43.08255550339058" lon="11.57398467467735"><ele>338.0</ele><time>2026-05-02T11:53:17.001Z</time></trkpt><trkpt lat="43.082614523693685" lon="11.574122076275856"><ele>340.25</ele><time>2026-05-02T11:53:18.001Z</time></trkpt><trkpt lat="43.082683121722255" lon="11.574278474171164"><ele>342.5</ele><time>2026-05-02T11:53:19.001Z</time></trkpt><trkpt lat="43.08275560244545" lon="11.574461910666937"><ele>344.75</ele><time>2026-05-02T11:53:20.001Z</time></trkpt><trkpt lat="43.08282828902042" lon="11.574641015646588"><ele>347.0</ele><time>2026-05-02T11:53:21.001Z</time></trkpt><trkpt lat="43.08289261080858" lon="11.574812420234903"><ele>347.0</ele><time>2026-05-02T11:53:22.001Z</time></trkpt><trkpt lat="43.08295618629597" lon="11.574977032054642"><ele>347.0</ele><time>2026-05-02T11:53:23.001Z</time></trkpt><trkpt lat="43.08301987886447" lon="11.575137867392439"><ele>347.0</ele><time>2026-05-02T11:53:24.001Z</time></trkpt><trkpt lat="43.08308718459977" lon="11.575288635309493"><ele>347.0</ele><time>2026-05-02T11:53:25.001Z</time></trkpt><trkpt lat="43.08315330165848" lon="11.575424028438166"><ele>348.75</ele><time>2026-05-02T11:53:26.001Z</time></trkpt><trkpt lat="43.08321042500086" lon="11.57558120173005"><ele>350.5</ele><time>2026-05-02T11:53:27.001Z</time></trkpt><trkpt lat="43.083280500435976" lon="11.575740494158518"><ele>352.25</ele><time>2026-05-02T11:53:28.001Z</time></trkpt><trkpt lat="43.08334981573863" lon="11.575898374624334"><ele>354.0</ele><time>2026-05-02T11:53:29.001Z</time></trkpt><trkpt lat="43.08341903694001" lon="11.57601607811303"><ele>354.0</ele><time>2026-05-02T11:53:30.001Z</time></trkpt><trkpt lat="43.083458521043106" lon="11.576128579943"><ele>354.0</ele><time>2026-05-02T11:53:31.001Z</time></trkpt><trkpt lat="43.08350809979965" lon="11.576232786818572"><ele>354.0</ele><time>2026-05-02T11:53:32.001Z</time></trkpt><trkpt lat="43.08355372942036" lon="11.57634996238005"><ele>354.0</ele><time>2026-05-02T11:53:33.001Z</time></trkpt><trkpt lat="43.083597607590704" lon="11.576466071945756"><ele>354.0</ele><time>2026-05-02T11:53:34.001Z</time></trkpt><trkpt lat="43.08363904202697" lon="11.576587207204247"><ele>353.2</ele><time>2026-05-02T11:53:35.001Z</time></trkpt><trkpt lat="43.08367479058875" lon="11.576702176810388"><ele>352.4</ele><time>2026-05-02T11:53:36.002Z</time></trkpt><trkpt lat="43.08370606197729" lon="11.576824732596178"><ele>351.6</ele><time>2026-05-02T11:53:37.002Z</time></trkpt><trkpt lat="43.08373492088195" lon="11.576956648324193"><ele>350.8</ele><time>2026-05-02T11:53:38.002Z</time></trkpt><trkpt lat="43.08376290045894" lon="11.57709525764797"><ele>350.0</ele><time>2026-05-02T11:53:39.002Z</time></trkpt><trkpt lat="43.083791941023115" lon="11.577233990059687"><ele>350.0</ele><time>2026-05-02T11:53:40.002Z</time></trkpt><trkpt lat="43.08382261254162" lon="11.577371606574486"><ele>350.0</ele><time>2026-05-02T11:53:41.002Z</time></trkpt><trkpt lat="43.08385334743835" lon="11.577513730686675"><ele>350.0</ele><time>2026-05-02T11:53:42.002Z</time></trkpt><trkpt lat="43.08388365900781" lon="11.577654283472867"><ele>350.0</ele><time>2026-05-02T11:53:43.002Z</time></trkpt><trkpt lat="43.083921108894636" lon="11.5778034312419"><ele>350.0</ele><time>2026-05-02T11:53:44.002Z</time></trkpt><trkpt lat="43.08396014471235" lon="11.577955065024454"><ele>350.0</ele><time>2026-05-02T11:53:45.002Z</time></trkpt><trkpt lat="43.08399526183739" lon="11.578093041604317"><ele>350.0</ele><time>2026-05-02T11:53:46.002Z</time></trkpt><trkpt lat="43.08401297449407" lon="11.578233452796313"><ele>350.0</ele><time>2026-05-02T11:53:47.002Z</time></trkpt><trkpt lat="43.08405780973761" lon="11.57836321461358"><ele>350.0</ele><time>2026-05-02T11:53:48.002Z</time></trkpt><trkpt lat="43.0840815203053" lon="11.578504875395023"><ele>350.0</ele><time>2026-05-02T11:53:49.002Z</time></trkpt><trkpt lat="43.084110329230796" lon="11.578656595105928"><ele>353.0</ele><time>2026-05-02T11:53:50.002Z</time></trkpt><trkpt lat="43.084143549265114" lon="11.578815649316288"><ele>356.0</ele><time>2026-05-02T11:53:51.002Z</time></trkpt><trkpt lat="43.08418149623565" lon="11.578966656716831"><ele>359.0</ele><time>2026-05-02T11:53:52.002Z</time></trkpt><trkpt lat="43.08423350039494" lon="11.57910385025537"><ele>362.0</ele><time>2026-05-02T11:53:53.002Z</time></trkpt><trkpt lat="43.08430165626522" lon="11.579247794902043"><ele>362.0</ele><time>2026-05-02T11:53:54.002Z</time></trkpt><trkpt lat="43.084379702913836" lon="11.579385066353689"><ele>362.0</ele><time>2026-05-02T11:53:55.002Z</time></trkpt><trkpt lat="43.08445767305354" lon="11.579518828804275"><ele>362.0</ele><time>2026-05-02T11:53:56.002Z</time></trkpt><trkpt lat="43.08453279600442" lon="11.579655807643464"><ele>362.0</ele><time>2026-05-02T11:53:57.002Z</time></trkpt><trkpt lat="43.084609504228446" lon="11.579795071012937"><ele>364.0</ele><time>2026-05-02T11:53:58.002Z</time></trkpt><trkpt lat="43.084687771652284" lon="11.57993195099289"><ele>366.0</ele><time>2026-05-02T11:53:59.002Z</time></trkpt><trkpt lat="43.0847597201893" lon="11.58005950731256"><ele>368.0</ele><time>2026-05-02T11:54:00.002Z</time></trkpt><trkpt lat="43.08483014037028" lon="11.580175925648476"><ele>370.0</ele><time>2026-05-02T11:54:01.002Z</time></trkpt><trkpt lat="43.08488421436866" lon="11.58029196985935"><ele>370.8</ele><time>2026-05-02T11:54:02.002Z</time></trkpt><trkpt lat="43.084927207242195" lon="11.580417587355479"><ele>371.6</ele><time>2026-05-02T11:54:03.002Z</time></trkpt><trkpt lat="43.08496719209239" lon="11.580546934751625"><ele>372.4</ele><time>2026-05-02T11:54:04.002Z</time></trkpt><trkpt lat="43.08500602193341" lon="11.580689223996536"><ele>373.2</ele><time>2026-05-02T11:54:05.002Z</time></trkpt><trkpt lat="43.08504368607468" lon="11.580836821351477"><ele>374.0</ele><time>2026-05-02T11:54:06.002Z</time></trkpt><trkpt lat="43.08508892287304" lon="11.580980236477142"><ele>374.2</ele><time>2026-05-02T11:54:07.002Z</time></trkpt><trkpt lat="43.08512038492283" lon="11.581110274462185"><ele>374.4</ele><time>2026-05-02T11:54:08.002Z</time></trkpt><trkpt lat="43.08515411458972" lon="11.581232587399082"><ele>374.6</ele><time>2026-05-02T11:54:09.003Z</time></trkpt><trkpt lat="43.085186824853004" lon="11.581351026429811"><ele>374.8</ele><time>2026-05-02T11:54:10.003Z</time></trkpt><trkpt lat="43.08521860466884" lon="11.581470189260367"><ele>375.0</ele><time>2026-05-02T11:54:11.003Z</time></trkpt><trkpt lat="43.085271503152704" lon="11.581596703969122"><ele>374.0</ele><time>2026-05-02T11:54:12.003Z</time></trkpt><trkpt lat="43.085330005726874" lon="11.581721337449562"><ele>373.0</ele><time>2026-05-02T11:54:13.003Z</time></trkpt><trkpt lat="43.08540184967221" lon="11.581842222945822"><ele>372.0</ele><time>2026-05-02T11:54:14.003Z</time></trkpt><trkpt lat="43.08548538756016" lon="11.581963260965681"><ele>371.0</ele><time>2026-05-02T11:54:15.003Z</time></trkpt><trkpt lat="43.085556731369984" lon="11.582076740916458"><ele>371.8</ele><time>2026-05-02T11:54:16.003Z</time></trkpt><trkpt lat="43.08563010573602" lon="11.582180604726581"><ele>372.6</ele><time>2026-05-02T11:54:17.003Z</time></trkpt><trkpt lat="43.08569289091781" lon="11.582280469136126"><ele>373.4</ele><time>2026-05-02T11:54:18.003Z</time></trkpt><trkpt lat="43.085746666933765" lon="11.58238277800571"><ele>374.2</ele><time>2026-05-02T11:54:19.003Z</time></trkpt><trkpt lat="43.08579425844981" lon="11.582484237349673"><ele>375.0</ele><time>2026-05-02T11:54:20.003Z</time></trkpt><trkpt lat="43.08583917428556" lon="11.582574271691039"><ele>375.0</ele><time>2026-05-02T11:54:21.003Z</time></trkpt><trkpt lat="43.08590101407525" lon="11.58263910175311"><ele>375.0</ele><time>2026-05-02T11:54:22.003Z</time></trkpt><trkpt lat="43.085988411480905" lon="11.58271250911501"><ele>375.0</ele><time>2026-05-02T11:54:23.003Z</time></trkpt><trkpt lat="43.086082811928286" lon="11.582796337117896"><ele>375.0</ele><time>2026-05-02T11:54:24.003Z</time></trkpt><trkpt lat="43.08617623547776" lon="11.582890114966837"><ele>375.0</ele><time>2026-05-02T11:54:25.003Z</time></trkpt><trkpt lat="43.08626913533662" lon="11.582967086507203"><ele>373.8</ele><time>2026-05-02T11:54:26.003Z</time></trkpt><trkpt lat="43.08634925275864" lon="11.583049365268531"><ele>372.6</ele><time>2026-05-02T11:54:27.003Z</time></trkpt><trkpt lat="43.086430013317056" lon="11.583129988667677"><ele>371.4</ele><time>2026-05-02T11:54:28.003Z</time></trkpt><trkpt lat="43.08650314597638" lon="11.583211324087758"><ele>370.2</ele><time>2026-05-02T11:54:29.003Z</time></trkpt><trkpt lat="43.08658432913939" lon="11.583287848581353"><ele>369.0</ele><time>2026-05-02T11:54:30.003Z</time></trkpt><trkpt lat="43.08666529179225" lon="11.583357149205135"><ele>369.0</ele><time>2026-05-02T11:54:31.003Z</time></trkpt><trkpt lat="43.086739874058544" lon="11.58342213066109"><ele>369.0</ele><time>2026-05-02T11:54:32.003Z</time></trkpt><trkpt lat="43.08681672366891" lon="11.583477358011613"><ele>369.0</ele><time>2026-05-02T11:54:33.003Z</time></trkpt><trkpt lat="43.08689055629198" lon="11.583532623736655"><ele>369.0</ele><time>2026-05-02T11:54:34.003Z</time></trkpt><trkpt lat="43.086973288702175" lon="11.583590854210073"><ele>369.0</ele><time>2026-05-02T11:54:35.003Z</time></trkpt><trkpt lat="43.087059536154385" lon="11.583660459488847"><ele>366.2</ele><time>2026-05-02T11:54:36.003Z</time></trkpt><trkpt lat="43.08715480378342" lon="11.583736638819756"><ele>363.4</ele><time>2026-05-02T11:54:37.003Z</time></trkpt><trkpt lat="43.08724740958425" lon="11.583814485955543"><ele>360.6</ele><time>2026-05-02T11:54:38.003Z</time></trkpt><trkpt lat="43.0873442451588" lon="11.58389283391509"><ele>357.8</ele><time>2026-05-02T11:54:38.999Z</time></trkpt><trkpt lat="43.08744235066381" lon="11.583967321979467"><ele>355.0</ele><time>2026-05-02T11:54:39.999Z</time></trkpt><trkpt lat="43.08753852965212" lon="11.584046116220666"><ele>355.0</ele><time>2026-05-02T11:54:41Z</time></trkpt><trkpt lat="43.08763375655349" lon="11.584121030700906"><ele>355.0</ele><time>2026-05-02T11:54:42Z</time></trkpt><trkpt lat="43.08773324392669" lon="11.584202343907805"><ele>355.0</ele><time>2026-05-02T11:54:43Z</time></trkpt><trkpt lat="43.08783169769836" lon="11.584285852038127"><ele>355.0</ele><time>2026-05-02T11:54:44Z</time></trkpt><trkpt lat="43.08792815855971" lon="11.584367310680413"><ele>355.0</ele><time>2026-05-02T11:54:45Z</time></trkpt><trkpt lat="43.08802224159912" lon="11.584444931166143"><ele>355.0</ele><time>2026-05-02T11:54:46Z</time></trkpt><trkpt lat="43.08812140811779" lon="11.584524621900574"><ele>355.0</ele><time>2026-05-02T11:54:47Z</time></trkpt><trkpt lat="43.08822889746668" lon="11.584593795149711"><ele>355.0</ele><time>2026-05-02T11:54:48Z</time></trkpt><trkpt lat="43.088338143861534" lon="11.584665684069439"><ele>356.25</ele><time>2026-05-02T11:54:49Z</time></trkpt><trkpt lat="43.088465083299624" lon="11.584739972159033"><ele>357.5</ele><time>2026-05-02T11:54:50Z</time></trkpt><trkpt lat="43.08859914235236" lon="11.584828512136426"><ele>358.75</ele><time>2026-05-02T11:54:51Z</time></trkpt><trkpt lat="43.08873053024694" lon="11.584923424740676"><ele>360.0</ele><time>2026-05-02T11:54:52Z</time></trkpt><trkpt lat="43.08885623717091" lon="11.585029030650727"><ele>360.0</ele><time>2026-05-02T11:54:53Z</time></trkpt><trkpt lat="43.08898423213774" lon="11.585143450645479"><ele>360.0</ele><time>2026-05-02T11:54:54Z</time></trkpt><trkpt lat="43.08909836531238" lon="11.585241920147471"><ele>360.0</ele><time>2026-05-02T11:54:55Z</time></trkpt><trkpt lat="43.089192206752834" lon="11.585327571283726"><ele>360.0</ele><time>2026-05-02T11:54:56Z</time></trkpt><trkpt lat="43.08927607399092" lon="11.585404072956624"><ele>362.0</ele><time>2026-05-02T11:54:57Z</time></trkpt><trkpt lat="43.08936555636704" lon="11.585482501639296"><ele>364.0</ele><time>2026-05-02T11:54:58Z</time></trkpt><trkpt lat="43.08945685427509" lon="11.585558474858965"><ele>366.0</ele><time>2026-05-02T11:54:59Z</time></trkpt><trkpt lat="43.08954943732583" lon="11.58563772154092"><ele>368.0</ele><time>2026-05-02T11:55:00Z</time></trkpt><trkpt lat="43.08964591297589" lon="11.58572559269559"><ele>370.0</ele><time>2026-05-02T11:55:01Z</time></trkpt><trkpt lat="43.08974736195178" lon="11.585813899137243"><ele>370.0</ele><time>2026-05-02T11:55:02Z</time></trkpt><trkpt lat="43.08985237124774" lon="11.585904836518472"><ele>370.0</ele><time>2026-05-02T11:55:03Z</time></trkpt><trkpt lat="43.08995302372054" lon="11.585998268589067"><ele>370.0</ele><time>2026-05-02T11:55:04Z</time></trkpt><trkpt lat="43.09004736094342" lon="11.586086719515519"><ele>370.0</ele><time>2026-05-02T11:55:05Z</time></trkpt><trkpt lat="43.09013964058451" lon="11.586193046575715"><ele>372.0</ele><time>2026-05-02T11:55:06Z</time></trkpt><trkpt lat="43.09022573174607" lon="11.586322912919705"><ele>374.0</ele><time>2026-05-02T11:55:07Z</time></trkpt><trkpt lat="43.0903038375763" lon="11.586483195009759"><ele>376.0</ele><time>2026-05-02T11:55:08Z</time></trkpt><trkpt lat="43.09039537532361" lon="11.586664809367779"><ele>378.0</ele><time>2026-05-02T11:55:09Z</time></trkpt><trkpt lat="43.0904867696936" lon="11.586837161096959"><ele>378.0</ele><time>2026-05-02T11:55:10Z</time></trkpt><trkpt lat="43.09056387791605" lon="11.586986332826697"><ele>378.0</ele><time>2026-05-02T11:55:11Z</time></trkpt><trkpt lat="43.09062938002729" lon="11.5871176542016"><ele>378.0</ele><time>2026-05-02T11:55:12Z</time></trkpt><trkpt lat="43.09068664768573" lon="11.58723599695262"><ele>378.0</ele><time>2026-05-02T11:55:13Z</time></trkpt><trkpt lat="43.09072934442265" lon="11.587356537892502"><ele>376.0</ele><time>2026-05-02T11:55:14.001Z</time></trkpt><trkpt lat="43.09077885144247" lon="11.587455515312831"><ele>374.0</ele><time>2026-05-02T11:55:15.001Z</time></trkpt><trkpt lat="43.09083035283727" lon="11.587550187336689"><ele>372.0</ele><time>2026-05-02T11:55:16.001Z</time></trkpt><trkpt lat="43.090900927801044" lon="11.587624887914943"><ele>370.0</ele><time>2026-05-02T11:55:17.001Z</time></trkpt><trkpt lat="43.09097767705893" lon="11.587718975486682"><ele>368.0</ele><time>2026-05-02T11:55:18.001Z</time></trkpt><trkpt lat="43.091071406995816" lon="11.5878043670786"><ele>368.5</ele><time>2026-05-02T11:55:19.001Z</time></trkpt><trkpt lat="43.091182768832084" lon="11.587897360265442"><ele>369.0</ele><time>2026-05-02T11:55:20.001Z</time></trkpt><trkpt lat="43.09131677943813" lon="11.587941961451111"><ele>369.5</ele><time>2026-05-02T11:55:21.001Z</time></trkpt><trkpt lat="43.09143802433332" lon="11.588011317235573"><ele>370.0</ele><time>2026-05-02T11:55:22.001Z</time></trkpt><trkpt lat="43.091551306763044" lon="11.588089342445288"><ele>369.0</ele><time>2026-05-02T11:55:23.001Z</time></trkpt><trkpt lat="43.09166987411754" lon="11.588159883621731"><ele>368.0</ele><time>2026-05-02T11:55:24.001Z</time></trkpt><trkpt lat="43.091777348454436" lon="11.588245852716403"><ele>367.0</ele><time>2026-05-02T11:55:25.001Z</time></trkpt><trkpt lat="43.091885540567525" lon="11.588310993271019"><ele>366.0</ele><time>2026-05-02T11:55:26.001Z</time></trkpt><trkpt lat="43.09198375669388" lon="11.588371343934119"><ele>366.0</ele><time>2026-05-02T11:55:27.001Z</time></trkpt><trkpt lat="43.09207501844526" lon="11.588429958395002"><ele>366.0</ele><time>2026-05-02T11:55:28.001Z</time></trkpt><trkpt lat="43.09215728973874" lon="11.588480241110453"><ele>366.0</ele><time>2026-05-02T11:55:29.001Z</time></trkpt><trkpt lat="43.092234124565735" lon="11.58852814820109"><ele>366.0</ele><time>2026-05-02T11:55:30.001Z</time></trkpt><trkpt lat="43.092307108288175" lon="11.588572379636965"><ele>366.0</ele><time>2026-05-02T11:55:31.001Z</time></trkpt><trkpt lat="43.09237878663562" lon="11.588616370330199"><ele>366.0</ele><time>2026-05-02T11:55:32.001Z</time></trkpt><trkpt lat="43.092446020270756" lon="11.588660204601734"><ele>364.4</ele><time>2026-05-02T11:55:33.001Z</time></trkpt><trkpt lat="43.09251490751832" lon="11.588707459196455"><ele>362.8</ele><time>2026-05-02T11:55:34.001Z</time></trkpt><trkpt lat="43.09258496593965" lon="11.588764863303886"><ele>361.2</ele><time>2026-05-02T11:55:35.001Z</time></trkpt><trkpt lat="43.09267074600145" lon="11.588834307757693"><ele>359.59999999999997</ele><time>2026-05-02T11:55:36.001Z</time></trkpt><trkpt lat="43.09275746077091" lon="11.588919867586803"><ele>358.0</ele><time>2026-05-02T11:55:37.001Z</time></trkpt><trkpt lat="43.09284662963019" lon="11.589021286735662"><ele>358.0</ele><time>2026-05-02T11:55:38.001Z</time></trkpt><trkpt lat="43.09293261261017" lon="11.58912441285819"><ele>358.0</ele><time>2026-05-02T11:55:39.001Z</time></trkpt><trkpt lat="43.093011590068606" lon="11.589228820871906"><ele>358.0</ele><time>2026-05-02T11:55:40.001Z</time></trkpt><trkpt lat="43.0930910727219" lon="11.589348102561043"><ele>358.0</ele><time>2026-05-02T11:55:41.001Z</time></trkpt><trkpt lat="43.093165015682715" lon="11.5894780282053"><ele>355.75</ele><time>2026-05-02T11:55:42.001Z</time></trkpt><trkpt lat="43.093231726467074" lon="11.589616879831437"><ele>353.5</ele><time>2026-05-02T11:55:43.001Z</time></trkpt><trkpt lat="43.09329037858457" lon="11.589752544912086"><ele>351.25</ele><time>2026-05-02T11:55:44.001Z</time></trkpt><trkpt lat="43.09334801788614" lon="11.589888877399613"><ele>349.0</ele><time>2026-05-02T11:55:45.001Z</time></trkpt><trkpt lat="43.0934070993863" lon="11.590018265306345"><ele>348.79999999999995</ele><time>2026-05-02T11:55:46.002Z</time></trkpt><trkpt lat="43.09346672017154" lon="11.590134276629106"><ele>348.59999999999997</ele><time>2026-05-02T11:55:47.002Z</time></trkpt><trkpt lat="43.09353506273307" lon="11.59024241223311"><ele>348.4</ele><time>2026-05-02T11:55:48.002Z</time></trkpt><trkpt lat="43.093614184571095" lon="11.590342557886505"><ele>348.2</ele><time>2026-05-02T11:55:49.002Z</time></trkpt><trkpt lat="43.09370475987825" lon="11.590439458808977"><ele>348.0</ele><time>2026-05-02T11:55:50.002Z</time></trkpt><trkpt lat="43.09380877153197" lon="11.59054177773514"><ele>348.59999999999997</ele><time>2026-05-02T11:55:51.002Z</time></trkpt><trkpt lat="43.093911362817565" lon="11.590636810313958"><ele>349.2</ele><time>2026-05-02T11:55:52.002Z</time></trkpt><trkpt lat="43.09400402939905" lon="11.59072278522129"><ele>349.8</ele><time>2026-05-02T11:55:53.002Z</time></trkpt><trkpt lat="43.09408714893873" lon="11.590800940104675"><ele>350.4</ele><time>2026-05-02T11:55:54.002Z</time></trkpt><trkpt lat="43.094168933913906" lon="11.590876233637827"><ele>351.0</ele><time>2026-05-02T11:55:55.002Z</time></trkpt><trkpt lat="43.094249020142236" lon="11.590955376323873"><ele>351.0</ele><time>2026-05-02T11:55:56.002Z</time></trkpt><trkpt lat="43.09432805553259" lon="11.591045430254015"><ele>351.0</ele><time>2026-05-02T11:55:57.002Z</time></trkpt><trkpt lat="43.09439758673531" lon="11.591160851377177"><ele>351.0</ele><time>2026-05-02T11:55:58.002Z</time></trkpt><trkpt lat="43.094433513997295" lon="11.591304016337684"><ele>351.0</ele><time>2026-05-02T11:55:59.002Z</time></trkpt><trkpt lat="43.09446958905939" lon="11.591436489552768"><ele>351.0</ele><time>2026-05-02T11:56:00.002Z</time></trkpt><trkpt lat="43.094509128291214" lon="11.59157135404971"><ele>347.5</ele><time>2026-05-02T11:56:01.002Z</time></trkpt><trkpt lat="43.094565663557525" lon="11.591697119931293"><ele>344.0</ele><time>2026-05-02T11:56:02.002Z</time></trkpt><trkpt lat="43.094616319750706" lon="11.591844719861305"><ele>340.5</ele><time>2026-05-02T11:56:03.002Z</time></trkpt><trkpt lat="43.09468168174696" lon="11.592003307132623"><ele>337.0</ele><time>2026-05-02T11:56:04.002Z</time></trkpt><trkpt lat="43.094756907608236" lon="11.592189059816333"><ele>335.0</ele><time>2026-05-02T11:56:05.002Z</time></trkpt><trkpt lat="43.09484632036351" lon="11.592401779208013"><ele>333.0</ele><time>2026-05-02T11:56:06.002Z</time></trkpt><trkpt lat="43.0949294120443" lon="11.592614529658194"><ele>331.0</ele><time>2026-05-02T11:56:07.002Z</time></trkpt><trkpt lat="43.0950163428663" lon="11.59283459583085"><ele>335.0</ele><time>2026-05-02T11:56:08.002Z</time></trkpt><trkpt lat="43.09510893474187" lon="11.593053507649332"><ele>339.0</ele><time>2026-05-02T11:56:09.002Z</time></trkpt><trkpt lat="43.09520038659713" lon="11.593269723904138"><ele>343.0</ele><time>2026-05-02T11:56:10.002Z</time></trkpt><trkpt lat="43.095286134385034" lon="11.593476580371146"><ele>340.0</ele><time>2026-05-02T11:56:11.002Z</time></trkpt><trkpt lat="43.095372237512784" lon="11.593688387974376"><ele>337.0</ele><time>2026-05-02T11:56:12.002Z</time></trkpt><trkpt lat="43.09545095964048" lon="11.593880410391575"><ele>334.0</ele><time>2026-05-02T11:56:13.002Z</time></trkpt><trkpt lat="43.09552091252684" lon="11.594048788720315"><ele>334.0</ele><time>2026-05-02T11:56:14.002Z</time></trkpt><trkpt lat="43.095578774568594" lon="11.59418829357202"><ele>334.0</ele><time>2026-05-02T11:56:15.002Z</time></trkpt><trkpt lat="43.09562743561075" lon="11.594307757005591"><ele>334.0</ele><time>2026-05-02T11:56:16.002Z</time></trkpt><trkpt lat="43.095677593689345" lon="11.59441812350845"><ele>334.0</ele><time>2026-05-02T11:56:17.003Z</time></trkpt><trkpt lat="43.095726993104826" lon="11.59453144457117"><ele>334.0</ele><time>2026-05-02T11:56:18.003Z</time></trkpt><trkpt lat="43.09577563020394" lon="11.594641973268487"><ele>336.6</ele><time>2026-05-02T11:56:19.003Z</time></trkpt><trkpt lat="43.09583081757938" lon="11.594735605103718"><ele>339.2</ele><time>2026-05-02T11:56:20.003Z</time></trkpt><trkpt lat="43.095894824707216" lon="11.594815611655546"><ele>341.8</ele><time>2026-05-02T11:56:21.003Z</time></trkpt><trkpt lat="43.095973285048565" lon="11.594882544749654"><ele>344.40000000000003</ele><time>2026-05-02T11:56:22.003Z</time></trkpt><trkpt lat="43.09606483977823" lon="11.594956026338666"><ele>347.0</ele><time>2026-05-02T11:56:23.003Z</time></trkpt><trkpt lat="43.096159859387235" lon="11.595027557976746"><ele>347.0</ele><time>2026-05-02T11:56:24.003Z</time></trkpt><trkpt lat="43.09624784311636" lon="11.595108250958775"><ele>347.0</ele><time>2026-05-02T11:56:25.003Z</time></trkpt><trkpt lat="43.09631280979739" lon="11.595204933937268"><ele>347.0</ele><time>2026-05-02T11:56:26.003Z</time></trkpt><trkpt lat="43.096367120018336" lon="11.595333071041399"><ele>347.0</ele><time>2026-05-02T11:56:27.003Z</time></trkpt><trkpt lat="43.0964209917784" lon="11.595462042989546"><ele>347.0</ele><time>2026-05-02T11:56:28.003Z</time></trkpt><trkpt lat="43.09647100888296" lon="11.595594289877758"><ele>346.75</ele><time>2026-05-02T11:56:29.003Z</time></trkpt><trkpt lat="43.096514175875804" lon="11.59571752292422"><ele>346.5</ele><time>2026-05-02T11:56:30.003Z</time></trkpt><trkpt lat="43.096538629647114" lon="11.595864072021524"><ele>346.25</ele><time>2026-05-02T11:56:31.003Z</time></trkpt><trkpt lat="43.09658420646916" lon="11.596045869053293"><ele>346.0</ele><time>2026-05-02T11:56:32.003Z</time></trkpt><trkpt lat="43.09663643522522" lon="11.596265896141798"><ele>349.66666666666663</ele><time>2026-05-02T11:56:33.003Z</time></trkpt><trkpt lat="43.096692573294526" lon="11.596507863070714"><ele>353.3333333333333</ele><time>2026-05-02T11:56:34.003Z</time></trkpt><trkpt lat="43.096757815796146" lon="11.59671584245628"><ele>357.0</ele><time>2026-05-02T11:56:35.003Z</time></trkpt><trkpt lat="43.09678703290802" lon="11.596895575841542"><ele>358.20000000000005</ele><time>2026-05-02T11:56:36.003Z</time></trkpt><trkpt lat="43.09682305834646" lon="11.597037434372153"><ele>359.4</ele><time>2026-05-02T11:56:37.003Z</time></trkpt><trkpt lat="43.096857222644495" lon="11.597143899360702"><ele>360.6</ele><time>2026-05-02T11:56:38.003Z</time></trkpt><trkpt lat="43.09690549003733" lon="11.597228933027825"><ele>361.79999999999995</ele><time>2026-05-02T11:56:39.003Z</time></trkpt><trkpt lat="43.09697945075801" lon="11.59730257852304"><ele>363.0</ele><time>2026-05-02T11:56:40.003Z</time></trkpt><trkpt lat="43.09707106838586" lon="11.597343347351206"><ele>363.0</ele><time>2026-05-02T11:56:41.003Z</time></trkpt><trkpt lat="43.09718612159465" lon="11.59739111395503"><ele>363.0</ele><time>2026-05-02T11:56:42.003Z</time></trkpt><trkpt lat="43.097277342914076" lon="11.597466862567808"><ele>363.0</ele><time>2026-05-02T11:56:43.003Z</time></trkpt><trkpt lat="43.097370810597226" lon="11.59758979549089"><ele>363.0</ele><time>2026-05-02T11:56:44.003Z</time></trkpt><trkpt lat="43.097482522436565" lon="11.597760128711087"><ele>365.0</ele><time>2026-05-02T11:56:44.999Z</time></trkpt><trkpt lat="43.09759949511382" lon="11.597935835075484"><ele>367.0</ele><time>2026-05-02T11:56:45.999Z</time></trkpt><trkpt lat="43.097714768713864" lon="11.598112259827513"><ele>369.0</ele><time>2026-05-02T11:56:46.999Z</time></trkpt><trkpt lat="43.09780841436404" lon="11.598261271503246"><ele>369.0</ele><time>2026-05-02T11:56:47.999Z</time></trkpt><trkpt lat="43.09788679532294" lon="11.59838825469827"><ele>369.0</ele><time>2026-05-02T11:56:48.999Z</time></trkpt><trkpt lat="43.09795572538206" lon="11.59849774005474"><ele>369.0</ele><time>2026-05-02T11:56:49.999Z</time></trkpt><trkpt lat="43.098019464048136" lon="11.598578954107385"><ele>369.0</ele><time>2026-05-02T11:56:50.999Z</time></trkpt><trkpt lat="43.098082399529815" lon="11.598607451430778"><ele>369.0</ele><time>2026-05-02T11:56:51.999Z</time></trkpt><trkpt lat="43.09815976147293" lon="11.598602371736073"><ele>368.6</ele><time>2026-05-02T11:56:52.999Z</time></trkpt><trkpt lat="43.098254952600435" lon="11.598560162403967"><ele>368.2</ele><time>2026-05-02T11:56:53.999Z</time></trkpt><trkpt lat="43.09834966129658" lon="11.59849601465638"><ele>367.8</ele><time>2026-05-02T11:56:54.999Z</time></trkpt><trkpt lat="43.098422155297975" lon="11.598411416829503"><ele>367.40000000000003</ele><time>2026-05-02T11:56:56Z</time></trkpt><trkpt lat="43.098472449483076" lon="11.598302615220902"><ele>367.0</ele><time>2026-05-02T11:56:57Z</time></trkpt><trkpt lat="43.09850523242397" lon="11.598166975545565"><ele>367.0</ele><time>2026-05-02T11:56:58Z</time></trkpt><trkpt lat="43.09853580975162" lon="11.59802217503944"><ele>367.0</ele><time>2026-05-02T11:56:59Z</time></trkpt><trkpt lat="43.09857494602439" lon="11.597862560782893"><ele>367.0</ele><time>2026-05-02T11:57:00Z</time></trkpt><trkpt lat="43.09860799200084" lon="11.59772021213879"><ele>367.0</ele><time>2026-05-02T11:57:01Z</time></trkpt><trkpt lat="43.09864782185057" lon="11.597604291995207"><ele>367.0</ele><time>2026-05-02T11:57:02Z</time></trkpt><trkpt lat="43.09869409446765" lon="11.59751411736788"><ele>366.16666666666663</ele><time>2026-05-02T11:57:03Z</time></trkpt><trkpt lat="43.09874622816192" lon="11.597436965129486"><ele>365.3333333333333</ele><time>2026-05-02T11:57:04Z</time></trkpt><trkpt lat="43.098809699724846" lon="11.59738152972793"><ele>364.5</ele><time>2026-05-02T11:57:05Z</time></trkpt><trkpt lat="43.0988861039961" lon="11.597371163042823"><ele>363.6666666666667</ele><time>2026-05-02T11:57:06Z</time></trkpt><trkpt lat="43.098969274856024" lon="11.597410846697459"><ele>362.83333333333337</ele><time>2026-05-02T11:57:07Z</time></trkpt><trkpt lat="43.09905714905564" lon="11.59748444292971"><ele>362.0</ele><time>2026-05-02T11:57:08Z</time></trkpt><trkpt lat="43.099141944360646" lon="11.597563747493274"><ele>361.20000000000005</ele><time>2026-05-02T11:57:09Z</time></trkpt><trkpt lat="43.09921880987479" lon="11.59764456135591"><ele>360.4</ele><time>2026-05-02T11:57:10Z</time></trkpt><trkpt lat="43.09928589427299" lon="11.597755597707593"><ele>359.6</ele><time>2026-05-02T11:57:11Z</time></trkpt><trkpt lat="43.099372108338606" lon="11.5978513203226"><ele>358.79999999999995</ele><time>2026-05-02T11:57:12Z</time></trkpt><trkpt lat="43.09944345710415" lon="11.597984971546026"><ele>358.0</ele><time>2026-05-02T11:57:13Z</time></trkpt><trkpt lat="43.09953272893986" lon="11.598098657237202"><ele>360.0</ele><time>2026-05-02T11:57:14Z</time></trkpt><trkpt lat="43.09961833115721" lon="11.598240929059147"><ele>362.0</ele><time>2026-05-02T11:57:15Z</time></trkpt><trkpt lat="43.09971282359534" lon="11.598394193562287"><ele>364.0</ele><time>2026-05-02T11:57:16Z</time></trkpt><trkpt lat="43.09981096599747" lon="11.598554516084036"><ele>366.0</ele><time>2026-05-02T11:57:17Z</time></trkpt><trkpt lat="43.09990906060995" lon="11.598717366343976"><ele>363.0</ele><time>2026-05-02T11:57:18Z</time></trkpt><trkpt lat="43.10000230299866" lon="11.598865060646583"><ele>360.0</ele><time>2026-05-02T11:57:19.001Z</time></trkpt><trkpt lat="43.10008057653256" lon="11.599001196061133"><ele>357.0</ele><time>2026-05-02T11:57:20.001Z</time></trkpt><trkpt lat="43.100173525556755" lon="11.5991079867223"><ele>354.0</ele><time>2026-05-02T11:57:21.001Z</time></trkpt><trkpt lat="43.10026960771188" lon="11.599182432466193"><ele>354.0</ele><time>2026-05-02T11:57:22.001Z</time></trkpt><trkpt lat="43.1003871430512" lon="11.599238370932984"><ele>354.0</ele><time>2026-05-02T11:57:23.001Z</time></trkpt><trkpt lat="43.10052946525618" lon="11.599259208082682"><ele>354.0</ele><time>2026-05-02T11:57:24.001Z</time></trkpt><trkpt lat="43.10069310231173" lon="11.599261745613077"><ele>354.0</ele><time>2026-05-02T11:57:25.001Z</time></trkpt><trkpt lat="43.1008742792992" lon="11.599237069203543"><ele>352.3333333333333</ele><time>2026-05-02T11:57:26.001Z</time></trkpt><trkpt lat="43.10104889055689" lon="11.599204065026091"><ele>350.66666666666663</ele><time>2026-05-02T11:57:27.001Z</time></trkpt><trkpt lat="43.10120397808023" lon="11.599196276141535"><ele>349.0</ele><time>2026-05-02T11:57:28.001Z</time></trkpt><trkpt lat="43.10134600617876" lon="11.599216263138546"><ele>349.0</ele><time>2026-05-02T11:57:29.001Z</time></trkpt><trkpt lat="43.101468787471106" lon="11.599291783699936"><ele>349.0</ele><time>2026-05-02T11:57:30.001Z</time></trkpt><trkpt lat="43.10158624147056" lon="11.599390527466813"><ele>349.0</ele><time>2026-05-02T11:57:31.001Z</time></trkpt><trkpt lat="43.10169166528988" lon="11.599484663099004"><ele>349.0</ele><time>2026-05-02T11:57:32.001Z</time></trkpt><trkpt lat="43.101804255677216" lon="11.599583848552806"><ele>349.75</ele><time>2026-05-02T11:57:33.001Z</time></trkpt><trkpt lat="43.10188739687108" lon="11.59970056861775"><ele>350.5</ele><time>2026-05-02T11:57:34.001Z</time></trkpt><trkpt lat="43.10194582717397" lon="11.599854525513019"><ele>351.25</ele><time>2026-05-02T11:57:35.001Z</time></trkpt><trkpt lat="43.10202698980794" lon="11.60000162294654"><ele>352.0</ele><time>2026-05-02T11:57:36.001Z</time></trkpt><trkpt lat="43.10210915738792" lon="11.600176989067275"><ele>349.75</ele><time>2026-05-02T11:57:37.001Z</time></trkpt><trkpt lat="43.10219239204546" lon="11.600341496078748"><ele>347.5</ele><time>2026-05-02T11:57:38.001Z</time></trkpt><trkpt lat="43.102267404006525" lon="11.600511237395638"><ele>345.25</ele><time>2026-05-02T11:57:39.001Z</time></trkpt><trkpt lat="43.102331035657706" lon="11.60066642863155"><ele>343.0</ele><time>2026-05-02T11:57:40.001Z</time></trkpt><trkpt lat="43.10238754953982" lon="11.60079501785941"><ele>346.16666666666663</ele><time>2026-05-02T11:57:41.001Z</time></trkpt><trkpt lat="43.102448468546164" lon="11.600912965713212"><ele>349.3333333333333</ele><time>2026-05-02T11:57:42.001Z</time></trkpt><trkpt lat="43.10251861006002" lon="11.601006353691075"><ele>352.5</ele><time>2026-05-02T11:57:43.001Z</time></trkpt><trkpt lat="43.10259593457909" lon="11.601068989446453"><ele>355.6666666666667</ele><time>2026-05-02T11:57:44.001Z</time></trkpt><trkpt lat="43.10267350625949" lon="11.60109429484476"><ele>358.83333333333337</ele><time>2026-05-02T11:57:45.001Z</time></trkpt><trkpt lat="43.10274584191133" lon="11.601082330484385"><ele>362.0</ele><time>2026-05-02T11:57:46.001Z</time></trkpt><trkpt lat="43.10282337176237" lon="11.601032823318159"><ele>362.0</ele><time>2026-05-02T11:57:47.001Z</time></trkpt><trkpt lat="43.1028927279035" lon="11.600946326420516"><ele>362.0</ele><time>2026-05-02T11:57:48.001Z</time></trkpt><trkpt lat="43.10297979646068" lon="11.60084193928077"><ele>362.0</ele><time>2026-05-02T11:57:49.002Z</time></trkpt><trkpt lat="43.10307240736975" lon="11.600722059626905"><ele>362.0</ele><time>2026-05-02T11:57:50.002Z</time></trkpt><trkpt lat="43.103165239174025" lon="11.600613200952733"><ele>362.0</ele><time>2026-05-02T11:57:51.002Z</time></trkpt><trkpt lat="43.103240523278906" lon="11.600519521503756"><ele>362.0</ele><time>2026-05-02T11:57:52.002Z</time></trkpt><trkpt lat="43.103333005331926" lon="11.600473298507927"><ele>362.0</ele><time>2026-05-02T11:57:53.002Z</time></trkpt><trkpt lat="43.10344049390198" lon="11.600456801294152"><ele>362.0</ele><time>2026-05-02T11:57:54.002Z</time></trkpt><trkpt lat="43.10356583389761" lon="11.600472799714153"><ele>362.0</ele><time>2026-05-02T11:57:55.002Z</time></trkpt><trkpt lat="43.103722526542924" lon="11.600524040228894"><ele>362.33333333333337</ele><time>2026-05-02T11:57:56.002Z</time></trkpt><trkpt lat="43.1038987858674" lon="11.600539092140892"><ele>362.6666666666667</ele><time>2026-05-02T11:57:57.002Z</time></trkpt><trkpt lat="43.104086871284395" lon="11.600566978945224"><ele>363.0</ele><time>2026-05-02T11:57:58.002Z</time></trkpt><trkpt lat="43.10429093226081" lon="11.600601259125241"><ele>363.6666666666667</ele><time>2026-05-02T11:57:59.002Z</time></trkpt><trkpt lat="43.10450271558287" lon="11.600638928166196"><ele>364.33333333333337</ele><time>2026-05-02T11:58:00.002Z</time></trkpt><trkpt lat="43.10470601147549" lon="11.600672491898932"><ele>365.0</ele><time>2026-05-02T11:58:01.002Z</time></trkpt><trkpt lat="43.10489712574911" lon="11.60070727901379"><ele>365.6666666666667</ele><time>2026-05-02T11:58:02.002Z</time></trkpt><trkpt lat="43.10507449502945" lon="11.600740139376502"><ele>366.3333333333333</ele><time>2026-05-02T11:58:03.002Z</time></trkpt><trkpt lat="43.10522685212512" lon="11.600754337388238"><ele>367.0</ele><time>2026-05-02T11:58:04.002Z</time></trkpt><trkpt lat="43.10537244967194" lon="11.600743532654812"><ele>367.0</ele><time>2026-05-02T11:58:05.002Z</time></trkpt><trkpt lat="43.10552176425268" lon="11.600705583001272"><ele>367.0</ele><time>2026-05-02T11:58:06.002Z</time></trkpt><trkpt lat="43.10568783200061" lon="11.60062455622918"><ele>367.0</ele><time>2026-05-02T11:58:07.002Z</time></trkpt><trkpt lat="43.10584551265711" lon="11.600529913423067"><ele>367.25</ele><time>2026-05-02T11:58:08.002Z</time></trkpt><trkpt lat="43.1059660890103" lon="11.600437217828407"><ele>367.5</ele><time>2026-05-02T11:58:09.002Z</time></trkpt><trkpt lat="43.10606889139699" lon="11.600370070639048"><ele>367.75</ele><time>2026-05-02T11:58:10.002Z</time></trkpt><trkpt lat="43.10616624881291" lon="11.600322304015775"><ele>368.0</ele><time>2026-05-02T11:58:11.002Z</time></trkpt><trkpt lat="43.106271236670686" lon="11.60032839718249"><ele>368.0</ele><time>2026-05-02T11:58:12.002Z</time></trkpt><trkpt lat="43.10636958989927" lon="11.600314622893288"><ele>368.0</ele><time>2026-05-02T11:58:13.002Z</time></trkpt><trkpt lat="43.106469877025496" lon="11.600385852699922"><ele>368.0</ele><time>2026-05-02T11:58:14.002Z</time></trkpt><trkpt lat="43.10659525682851" lon="11.600463982964879"><ele>368.0</ele><time>2026-05-02T11:58:15.002Z</time></trkpt><trkpt lat="43.106752983304595" lon="11.60054231436956"><ele>373.33333333333337</ele><time>2026-05-02T11:58:16.002Z</time></trkpt><trkpt lat="43.106920504838996" lon="11.600655282375957"><ele>378.6666666666667</ele><time>2026-05-02T11:58:17.002Z</time></trkpt><trkpt lat="43.10708594967065" lon="11.600767999264013"><ele>384.0</ele><time>2026-05-02T11:58:18.002Z</time></trkpt><trkpt lat="43.107248137712304" lon="11.600890906031436"><ele>384.0</ele><time>2026-05-02T11:58:19.002Z</time></trkpt><trkpt lat="43.10739555446193" lon="11.601000257212227"><ele>384.0</ele><time>2026-05-02T11:58:20.002Z</time></trkpt><trkpt lat="43.1075173380789" lon="11.601092142271874"><ele>384.0</ele><time>2026-05-02T11:58:21.002Z</time></trkpt><trkpt lat="43.10761513872678" lon="11.601170775355287"><ele>384.0</ele><time>2026-05-02T11:58:22.003Z</time></trkpt><trkpt lat="43.10770019749693" lon="11.60124311899405"><ele>385.5</ele><time>2026-05-02T11:58:23.003Z</time></trkpt><trkpt lat="43.107777240949524" lon="11.601303678024399"><ele>387.0</ele><time>2026-05-02T11:58:24.003Z</time></trkpt><trkpt lat="43.10782805541491" lon="11.601369589730973"><ele>388.5</ele><time>2026-05-02T11:58:25.003Z</time></trkpt><trkpt lat="43.10788823873117" lon="11.601453917167662"><ele>390.0</ele><time>2026-05-02T11:58:26.003Z</time></trkpt><trkpt lat="43.10796661915916" lon="11.601500055616059"><ele>391.5</ele><time>2026-05-02T11:58:27.003Z</time></trkpt><trkpt lat="43.10800835125925" lon="11.601622053259637"><ele>393.0</ele><time>2026-05-02T11:58:28.003Z</time></trkpt><trkpt lat="43.10804086664357" lon="11.601733057449023"><ele>393.0</ele><time>2026-05-02T11:58:29.003Z</time></trkpt><trkpt lat="43.10806452586645" lon="11.601861364832166"><ele>393.0</ele><time>2026-05-02T11:58:30.003Z</time></trkpt><trkpt lat="43.10806832197959" lon="11.602004443775627"><ele>393.0</ele><time>2026-05-02T11:58:31.003Z</time></trkpt><trkpt lat="43.108048310577644" lon="11.602146711015445"><ele>393.0</ele><time>2026-05-02T11:58:32.003Z</time></trkpt><trkpt lat="43.10803809005207" lon="11.602297249912658"><ele>393.0</ele><time>2026-05-02T11:58:33.003Z</time></trkpt><trkpt lat="43.10801037297067" lon="11.602448328764176"><ele>392.0</ele><time>2026-05-02T11:58:34.003Z</time></trkpt><trkpt lat="43.107966543587025" lon="11.602634998758468"><ele>391.0</ele><time>2026-05-02T11:58:35.003Z</time></trkpt><trkpt lat="43.10792431433691" lon="11.602818300226726"><ele>390.0</ele><time>2026-05-02T11:58:36.003Z</time></trkpt><trkpt lat="43.10787950804924" lon="11.60297355865988"><ele>389.0</ele><time>2026-05-02T11:58:37.003Z</time></trkpt><trkpt lat="43.10783887595068" lon="11.603111544425436"><ele>386.79999999999995</ele><time>2026-05-02T11:58:38.003Z</time></trkpt><trkpt lat="43.10781598912312" lon="11.60323788902474"><ele>384.59999999999997</ele><time>2026-05-02T11:58:39.003Z</time></trkpt><trkpt lat="43.107813557814175" lon="11.603363422275459"><ele>382.4</ele><time>2026-05-02T11:58:40.003Z</time></trkpt><trkpt lat="43.10783643094279" lon="11.603526101880497"><ele>380.2</ele><time>2026-05-02T11:58:41.003Z</time></trkpt><trkpt lat="43.107881195997614" lon="11.60370878284434"><ele>378.0</ele><time>2026-05-02T11:58:42.003Z</time></trkpt><trkpt lat="43.10793839785458" lon="11.60389493302806"><ele>376.25</ele><time>2026-05-02T11:58:43.003Z</time></trkpt><trkpt lat="43.10799418654386" lon="11.604072982482375"><ele>374.5</ele><time>2026-05-02T11:58:44.003Z</time></trkpt><trkpt lat="43.108048804493144" lon="11.604235088620882"><ele>372.75</ele><time>2026-05-02T11:58:45.003Z</time></trkpt><trkpt lat="43.10811099160026" lon="11.6043722124379"><ele>371.0</ele><time>2026-05-02T11:58:46.003Z</time></trkpt><trkpt lat="43.108193132433975" lon="11.604505830884706"><ele>372.6666666666667</ele><time>2026-05-02T11:58:47.003Z</time></trkpt><trkpt lat="43.10830826404187" lon="11.604634894850966"><ele>374.3333333333333</ele><time>2026-05-02T11:58:48.003Z</time></trkpt><trkpt lat="43.10845423584238" lon="11.604769818968046"><ele>376.0</ele><time>2026-05-02T11:58:49.003Z</time></trkpt><trkpt lat="43.1086260926425" lon="11.60491928025505"><ele>376.0</ele><time>2026-05-02T11:58:50.003Z</time></trkpt><trkpt lat="43.10879371246383" lon="11.605067224866254"><ele>376.0</ele><time>2026-05-02T11:58:50.999Z</time></trkpt><trkpt lat="43.108953542421524" lon="11.605211567744373"><ele>376.0</ele><time>2026-05-02T11:58:51.999Z</time></trkpt><trkpt lat="43.1091102109118" lon="11.605350455801885"><ele>375.66666666666663</ele><time>2026-05-02T11:58:52.999Z</time></trkpt><trkpt lat="43.109260981502096" lon="11.605513631014917"><ele>375.3333333333333</ele><time>2026-05-02T11:58:53.999Z</time></trkpt><trkpt lat="43.10942999111841" lon="11.605646204683769"><ele>375.0</ele><time>2026-05-02T11:58:54.999Z</time></trkpt><trkpt lat="43.10958263811986" lon="11.605790972699307"><ele>375.0</ele><time>2026-05-02T11:58:55.999Z</time></trkpt><trkpt lat="43.10972665826457" lon="11.605933072557537"><ele>375.0</ele><time>2026-05-02T11:58:56.999Z</time></trkpt><trkpt lat="43.109863579138334" lon="11.606091833505591"><ele>375.0</ele><time>2026-05-02T11:58:57.999Z</time></trkpt><trkpt lat="43.11000000854683" lon="11.606228129788342"><ele>374.25</ele><time>2026-05-02T11:58:58.999Z</time></trkpt><trkpt lat="43.110133572070914" lon="11.606334402925446"><ele>373.5</ele><time>2026-05-02T11:58:59.999Z</time></trkpt><trkpt lat="43.11024113174064" lon="11.606449496741197"><ele>372.75</ele><time>2026-05-02T11:59:00.999Z</time></trkpt><trkpt lat="43.11033355843686" lon="11.60655236649605"><ele>372.0</ele><time>2026-05-02T11:59:02Z</time></trkpt><trkpt lat="43.11041899281113" lon="11.60664133044439"><ele>372.0</ele><time>2026-05-02T11:59:03Z</time></trkpt><trkpt lat="43.110498999210485" lon="11.606717308363"><ele>372.0</ele><time>2026-05-02T11:59:04Z</time></trkpt><trkpt lat="43.11060131144785" lon="11.606788257466214"><ele>372.0</ele><time>2026-05-02T11:59:05Z</time></trkpt><trkpt lat="43.11074574377814" lon="11.606820443463745"><ele>372.0</ele><time>2026-05-02T11:59:06Z</time></trkpt><trkpt lat="43.11089917003791" lon="11.606894522292803"><ele>369.6666666666667</ele><time>2026-05-02T11:59:07Z</time></trkpt><trkpt lat="43.11105054823247" lon="11.6069999461783"><ele>367.33333333333337</ele><time>2026-05-02T11:59:08Z</time></trkpt><trkpt lat="43.11120155209537" lon="11.607135265423276"><ele>365.0</ele><time>2026-05-02T11:59:09Z</time></trkpt><trkpt lat="43.1113439852357" lon="11.607270871433276"><ele>365.0</ele><time>2026-05-02T11:59:10Z</time></trkpt><trkpt lat="43.11147972613529" lon="11.6073988153167"><ele>365.0</ele><time>2026-05-02T11:59:11Z</time></trkpt><trkpt lat="43.111610809339936" lon="11.607512058473407"><ele>365.0</ele><time>2026-05-02T11:59:12Z</time></trkpt><trkpt lat="43.111729296792234" lon="11.607627352292724"><ele>365.0</ele><time>2026-05-02T11:59:13Z</time></trkpt><trkpt lat="43.11184324465647" lon="11.607728796760425"><ele>365.0</ele><time>2026-05-02T11:59:14Z</time></trkpt><trkpt lat="43.1119501191548" lon="11.607815804125323"><ele>365.0</ele><time>2026-05-02T11:59:15Z</time></trkpt><trkpt lat="43.112052213928656" lon="11.607903673836558"><ele>365.0</ele><time>2026-05-02T11:59:16Z</time></trkpt><trkpt lat="43.11215321359683" lon="11.607994338755763"><ele>365.0</ele><time>2026-05-02T11:59:17Z</time></trkpt><trkpt lat="43.11224817748309" lon="11.60808786631673"><ele>365.0</ele><time>2026-05-02T11:59:18Z</time></trkpt><trkpt lat="43.11234185485349" lon="11.608179705387544"><ele>365.0</ele><time>2026-05-02T11:59:19Z</time></trkpt><trkpt lat="43.112437983649215" lon="11.60827629225743"><ele>365.0</ele><time>2026-05-02T11:59:20Z</time></trkpt><trkpt lat="43.112539385843114" lon="11.608384873819368"><ele>365.0</ele><time>2026-05-02T11:59:21Z</time></trkpt><trkpt lat="43.11265115898217" lon="11.608511352975654"><ele>365.0</ele><time>2026-05-02T11:59:22Z</time></trkpt><trkpt lat="43.1127731940325" lon="11.60865609500666"><ele>365.0</ele><time>2026-05-02T11:59:23Z</time></trkpt><trkpt lat="43.11288412680289" lon="11.608825586795442"><ele>363.33333333333337</ele><time>2026-05-02T11:59:24Z</time></trkpt><trkpt lat="43.11299053369505" lon="11.609030028823717"><ele>361.6666666666667</ele><time>2026-05-02T11:59:25Z</time></trkpt><trkpt lat="43.11309817974733" lon="11.60924722029862"><ele>360.0</ele><time>2026-05-02T11:59:26.001Z</time></trkpt><trkpt lat="43.11318286093442" lon="11.60945381409395"><ele>363.0</ele><time>2026-05-02T11:59:27.001Z</time></trkpt><trkpt lat="43.113252576561706" lon="11.609644438857567"><ele>366.0</ele><time>2026-05-02T11:59:28.001Z</time></trkpt><trkpt lat="43.113309808604036" lon="11.609832465168223"><ele>369.0</ele><time>2026-05-02T11:59:29.001Z</time></trkpt><trkpt lat="43.11337746409786" lon="11.610013509103487"><ele>369.0</ele><time>2026-05-02T11:59:30.001Z</time></trkpt><trkpt lat="43.11347494818902" lon="11.610215997821484"><ele>369.0</ele><time>2026-05-02T11:59:31.001Z</time></trkpt><trkpt lat="43.11358489177649" lon="11.610419477537405"><ele>369.0</ele><time>2026-05-02T11:59:32.001Z</time></trkpt><trkpt lat="43.11368303220441" lon="11.610600723806456"><ele>367.25</ele><time>2026-05-02T11:59:33.001Z</time></trkpt><trkpt lat="43.11376448654723" lon="11.610764681612395"><ele>365.5</ele><time>2026-05-02T11:59:34.001Z</time></trkpt><trkpt lat="43.11384131680702" lon="11.61090639787982"><ele>363.75</ele><time>2026-05-02T11:59:35.001Z</time></trkpt><trkpt lat="43.11391567669316" lon="11.611034920521867"><ele>362.0</ele><time>2026-05-02T11:59:36.001Z</time></trkpt><trkpt lat="43.11401616315163" lon="11.611161550405509"><ele>364.0</ele><time>2026-05-02T11:59:37.001Z</time></trkpt><trkpt lat="43.11414312593971" lon="11.611299363892806"><ele>366.0</ele><time>2026-05-02T11:59:38.001Z</time></trkpt><trkpt lat="43.114263444229316" lon="11.611430446228525"><ele>368.0</ele><time>2026-05-02T11:59:39.001Z</time></trkpt><trkpt lat="43.11438197442533" lon="11.611581539703762"><ele>368.0</ele><time>2026-05-02T11:59:40.001Z</time></trkpt><trkpt lat="43.11447195260405" lon="11.611740140098851"><ele>368.0</ele><time>2026-05-02T11:59:41.001Z</time></trkpt><trkpt lat="43.11454130075085" lon="11.61188209313823"><ele>368.0</ele><time>2026-05-02T11:59:42.001Z</time></trkpt><trkpt lat="43.11459919317303" lon="11.612023913740453"><ele>368.0</ele><time>2026-05-02T11:59:43.001Z</time></trkpt><trkpt lat="43.11464946454997" lon="11.61219117308058"><ele>366.0</ele><time>2026-05-02T11:59:44.001Z</time></trkpt><trkpt lat="43.114685061344396" lon="11.612373575431892"><ele>364.0</ele><time>2026-05-02T11:59:45.001Z</time></trkpt><trkpt lat="43.114709817034836" lon="11.612541729981976"><ele>362.0</ele><time>2026-05-02T11:59:46.001Z</time></trkpt><trkpt lat="43.114747699445516" lon="11.612687225203649"><ele>360.0</ele><time>2026-05-02T11:59:47.001Z</time></trkpt><trkpt lat="43.11481056132514" lon="11.61282851998034"><ele>357.3333333333333</ele><time>2026-05-02T11:59:48.001Z</time></trkpt><trkpt lat="43.11489590333699" lon="11.612975810055872"><ele>354.66666666666663</ele><time>2026-05-02T11:59:49.001Z</time></trkpt><trkpt lat="43.115003376268135" lon="11.61313275361491"><ele>352.0</ele><time>2026-05-02T11:59:50.001Z</time></trkpt><trkpt lat="43.11512578547825" lon="11.613307231027047"><ele>356.3333333333333</ele><time>2026-05-02T11:59:51.001Z</time></trkpt><trkpt lat="43.11523750758478" lon="11.613477087183307"><ele>360.6666666666667</ele><time>2026-05-02T11:59:52.001Z</time></trkpt><trkpt lat="43.115331453759346" lon="11.61363292694856"><ele>365.0</ele><time>2026-05-02T11:59:53.001Z</time></trkpt><trkpt lat="43.11542641858253" lon="11.61377589320736"><ele>365.0</ele><time>2026-05-02T11:59:54.001Z</time></trkpt><trkpt lat="43.11552079843833" lon="11.613920131988053"><ele>365.0</ele><time>2026-05-02T11:59:55.001Z</time></trkpt><trkpt lat="43.115643013369116" lon="11.614014312189065"><ele>365.0</ele><time>2026-05-02T11:59:56.002Z</time></trkpt><trkpt lat="43.1157542047899" lon="11.614119405458037"><ele>365.0</ele><time>2026-05-02T11:59:57.002Z</time></trkpt><trkpt lat="43.11585443826704" lon="11.614218602785295"><ele>367.75</ele><time>2026-05-02T11:59:58.002Z</time></trkpt><trkpt lat="43.115938223626486" lon="11.614334086553836"><ele>370.5</ele><time>2026-05-02T11:59:59.002Z</time></trkpt><trkpt lat="43.116006417221215" lon="11.614479847690818"><ele>373.25</ele><time>2026-05-02T12:00:00.002Z</time></trkpt><trkpt lat="43.11605584504227" lon="11.614644462237273"><ele>376.0</ele><time>2026-05-02T12:00:01.002Z</time></trkpt><trkpt lat="43.116084289107135" lon="11.614828907457289"><ele>376.3333333333333</ele><time>2026-05-02T12:00:02.002Z</time></trkpt><trkpt lat="43.1160974001419" lon="11.615025373040273"><ele>376.6666666666667</ele><time>2026-05-02T12:00:03.002Z</time></trkpt><trkpt lat="43.11609015830957" lon="11.615251142283524"><ele>377.0</ele><time>2026-05-02T12:00:04.002Z</time></trkpt><trkpt lat="43.116074941055366" lon="11.615498005171037"><ele>377.6666666666667</ele><time>2026-05-02T12:00:05.002Z</time></trkpt><trkpt lat="43.116058991282266" lon="11.615751328044439"><ele>378.3333333333333</ele><time>2026-05-02T12:00:06.002Z</time></trkpt><trkpt lat="43.11603868771657" lon="11.615963426633725"><ele>379.0</ele><time>2026-05-02T12:00:07.002Z</time></trkpt><trkpt lat="43.116000029335034" lon="11.616165609264957"><ele>379.66666666666663</ele><time>2026-05-02T12:00:08.002Z</time></trkpt><trkpt lat="43.11592733232071" lon="11.616370305788083"><ele>380.3333333333333</ele><time>2026-05-02T12:00:09.002Z</time></trkpt><trkpt lat="43.11583252499251" lon="11.616592024213345"><ele>381.0</ele><time>2026-05-02T12:00:10.002Z</time></trkpt><trkpt lat="43.11571772927317" lon="11.616859394049365"><ele>381.3333333333333</ele><time>2026-05-02T12:00:11.002Z</time></trkpt><trkpt lat="43.115592304407244" lon="11.61713574400686"><ele>381.66666666666663</ele><time>2026-05-02T12:00:12.002Z</time></trkpt><trkpt lat="43.11549758178705" lon="11.617339715146272"><ele>382.0</ele><time>2026-05-02T12:00:13.002Z</time></trkpt><trkpt lat="43.1154140277798" lon="11.617529149478973"><ele>382.0</ele><time>2026-05-02T12:00:14.002Z</time></trkpt><trkpt lat="43.115338838514916" lon="11.617695578701449"><ele>382.0</ele><time>2026-05-02T12:00:15.002Z</time></trkpt><trkpt lat="43.11527918381516" lon="11.617853378270153"><ele>382.0</ele><time>2026-05-02T12:00:16.002Z</time></trkpt><trkpt lat="43.11523651550296" lon="11.617997570576243"><ele>382.0</ele><time>2026-05-02T12:00:17.002Z</time></trkpt><trkpt lat="43.11519578378857" lon="11.618141157453053"><ele>383.40000000000003</ele><time>2026-05-02T12:00:18.002Z</time></trkpt><trkpt lat="43.11516830753058" lon="11.618250879009661"><ele>384.8</ele><time>2026-05-02T12:00:19.002Z</time></trkpt><trkpt lat="43.115148325485706" lon="11.618341928115473"><ele>386.2</ele><time>2026-05-02T12:00:20.002Z</time></trkpt><trkpt lat="43.1151211576786" lon="11.61846028231921"><ele>387.6</ele><time>2026-05-02T12:00:22.002Z</time></trkpt><trkpt lat="43.11523303958059" lon="11.618534711415242"><ele>389.0</ele><time>2026-05-02T12:00:26.002Z</time></trkpt><trkpt lat="43.115315477951896" lon="11.618544562225267"><ele>389.0</ele><time>2026-05-02T12:01:38.001Z</time></trkpt><trkpt lat="43.11540485848463" lon="11.618563228584282"><ele>389.0</ele><time>2026-05-02T12:01:40.001Z</time></trkpt><trkpt lat="43.11552612096795" lon="11.618611844623933"><ele>389.0</ele><time>2026-05-02T12:01:42.001Z</time></trkpt><trkpt lat="43.115596378467316" lon="11.618632594507298"><ele>389.0</ele><time>2026-05-02T12:01:43.001Z</time></trkpt><trkpt lat="43.11567802056041" lon="11.618649529713833"><ele>389.0</ele><time>2026-05-02T12:01:44.001Z</time></trkpt><trkpt lat="43.11576119414737" lon="11.618658632750726"><ele>388.49999999999994</ele><time>2026-05-02T12:01:45.001Z</time></trkpt><trkpt lat="43.11584331702098" lon="11.618664006998653"><ele>388.0</ele><time>2026-05-02T12:01:46.001Z</time></trkpt><trkpt lat="43.11592005448311" lon="11.618663737697423"><ele>387.5</ele><time>2026-05-02T12:01:47.001Z</time></trkpt><trkpt lat="43.115994940813685" lon="11.618658887243427"><ele>387.0</ele><time>2026-05-02T12:01:48.001Z</time></trkpt><trkpt lat="43.11607484890837" lon="11.61864513185107"><ele>386.49999999999994</ele><time>2026-05-02T12:01:49.001Z</time></trkpt><trkpt lat="43.11616929440922" lon="11.61859615421827"><ele>386.0</ele><time>2026-05-02T12:01:50.001Z</time></trkpt><trkpt lat="43.1162714174182" lon="11.618562748322034"><ele>386.0</ele><time>2026-05-02T12:01:51.001Z</time></trkpt><trkpt lat="43.116386426585024" lon="11.618524241550478"><ele>386.0</ele><time>2026-05-02T12:01:52.001Z</time></trkpt><trkpt lat="43.116506716747075" lon="11.618484274128047"><ele>386.0</ele><time>2026-05-02T12:01:53.001Z</time></trkpt><trkpt lat="43.116641462442274" lon="11.618455405491538"><ele>386.0</ele><time>2026-05-02T12:01:54.001Z</time></trkpt><trkpt lat="43.116777574231115" lon="11.618455612075753"><ele>384.0</ele><time>2026-05-02T12:01:55.001Z</time></trkpt><trkpt lat="43.11690803399735" lon="11.618468787635708"><ele>382.0</ele><time>2026-05-02T12:01:56.001Z</time></trkpt><trkpt lat="43.1170406359873" lon="11.618487714298839"><ele>380.0</ele><time>2026-05-02T12:01:57.001Z</time></trkpt><trkpt lat="43.11717283302886" lon="11.618502943040554"><ele>378.0</ele><time>2026-05-02T12:01:58.002Z</time></trkpt><trkpt lat="43.11730814862718" lon="11.6185381071093"><ele>376.3333333333333</ele><time>2026-05-02T12:01:59.002Z</time></trkpt><trkpt lat="43.117446907107485" lon="11.618554393631614"><ele>374.66666666666663</ele><time>2026-05-02T12:02:00.002Z</time></trkpt><trkpt lat="43.11760208061708" lon="11.618555776389355"><ele>373.0</ele><time>2026-05-02T12:02:01.002Z</time></trkpt><trkpt lat="43.11776224446511" lon="11.618565419217092"><ele>373.0</ele><time>2026-05-02T12:02:02.002Z</time></trkpt><trkpt lat="43.117923626379664" lon="11.618559535917237"><ele>373.0</ele><time>2026-05-02T12:02:03.002Z</time></trkpt><trkpt lat="43.11808586207929" lon="11.618564897114702"><ele>373.0</ele><time>2026-05-02T12:02:04.002Z</time></trkpt><trkpt lat="43.118243697608456" lon="11.618568538530988"><ele>372.3333333333333</ele><time>2026-05-02T12:02:05.002Z</time></trkpt><trkpt lat="43.11840147037534" lon="11.618574027358651"><ele>371.6666666666667</ele><time>2026-05-02T12:02:06.002Z</time></trkpt><trkpt lat="43.118563839530026" lon="11.618577855088594"><ele>371.0</ele><time>2026-05-02T12:02:07.002Z</time></trkpt><trkpt lat="43.11872071947638" lon="11.618587365133443"><ele>371.0</ele><time>2026-05-02T12:02:08.002Z</time></trkpt><trkpt lat="43.11887477844362" lon="11.618599747323113"><ele>371.0</ele><time>2026-05-02T12:02:09.002Z</time></trkpt><trkpt lat="43.119025957982984" lon="11.618613287738201"><ele>371.0</ele><time>2026-05-02T12:02:10.002Z</time></trkpt><trkpt lat="43.119177259076736" lon="11.618632896357102"><ele>370.5</ele><time>2026-05-02T12:02:11.002Z</time></trkpt><trkpt lat="43.11931660119275" lon="11.618654284637193"><ele>370.0</ele><time>2026-05-02T12:02:12.002Z</time></trkpt><trkpt lat="43.11947079251809" lon="11.618669856236227"><ele>369.5</ele><time>2026-05-02T12:02:13.002Z</time></trkpt><trkpt lat="43.1196204042429" lon="11.618685631689997"><ele>369.0</ele><time>2026-05-02T12:02:14.002Z</time></trkpt><trkpt lat="43.11976947100455" lon="11.61869598139735"><ele>371.0</ele><time>2026-05-02T12:02:15.002Z</time></trkpt><trkpt lat="43.11991978616275" lon="11.61870205558426"><ele>373.0</ele><time>2026-05-02T12:02:16.002Z</time></trkpt><trkpt lat="43.12006962236695" lon="11.618716791140823"><ele>375.0</ele><time>2026-05-02T12:02:17.002Z</time></trkpt><trkpt lat="43.120227549330956" lon="11.618732305132399"><ele>375.0</ele><time>2026-05-02T12:02:18.002Z</time></trkpt><trkpt lat="43.120355513536786" lon="11.618769135550817"><ele>375.0</ele><time>2026-05-02T12:02:19.002Z</time></trkpt><trkpt lat="43.12046234189066" lon="11.618772959567472"><ele>375.0</ele><time>2026-05-02T12:02:20.002Z</time></trkpt><trkpt lat="43.1205759733374" lon="11.6187557577041"><ele>375.0</ele><time>2026-05-02T12:02:21.002Z</time></trkpt><trkpt lat="43.120705738530475" lon="11.618758840141803"><ele>376.25</ele><time>2026-05-02T12:02:22.002Z</time></trkpt><trkpt lat="43.120832907397876" lon="11.618699651520279"><ele>377.5</ele><time>2026-05-02T12:02:23.002Z</time></trkpt><trkpt lat="43.12095339477153" lon="11.618583907407729"><ele>378.75</ele><time>2026-05-02T12:02:24.002Z</time></trkpt><trkpt lat="43.12106622911667" lon="11.618464368890411"><ele>380.0</ele><time>2026-05-02T12:02:25.002Z</time></trkpt><trkpt lat="43.12117185327202" lon="11.618347459017672"><ele>380.0</ele><time>2026-05-02T12:02:26.002Z</time></trkpt><trkpt lat="43.1212754720079" lon="11.618236257379063"><ele>380.0</ele><time>2026-05-02T12:02:27.002Z</time></trkpt><trkpt lat="43.12136139485883" lon="11.61811542021884"><ele>380.0</ele><time>2026-05-02T12:02:28.002Z</time></trkpt><trkpt lat="43.12147105938896" lon="11.618026987530305"><ele>380.0</ele><time>2026-05-02T12:02:29.002Z</time></trkpt><trkpt lat="43.121571256083705" lon="11.617892859477696"><ele>381.0</ele><time>2026-05-02T12:02:30.002Z</time></trkpt><trkpt lat="43.12169619695054" lon="11.617770923083324"><ele>382.0</ele><time>2026-05-02T12:02:31.002Z</time></trkpt><trkpt lat="43.12182828017812" lon="11.617632426772966"><ele>383.0</ele><time>2026-05-02T12:02:32.002Z</time></trkpt><trkpt lat="43.12196582958383" lon="11.617494186436803"><ele>383.0</ele><time>2026-05-02T12:02:33.002Z</time></trkpt><trkpt lat="43.122102802774435" lon="11.617358776280815"><ele>383.0</ele><time>2026-05-02T12:02:34.003Z</time></trkpt><trkpt lat="43.1222490129642" lon="11.61723726858412"><ele>383.0</ele><time>2026-05-02T12:02:35.003Z</time></trkpt><trkpt lat="43.12237963949675" lon="11.617097618020725"><ele>380.0</ele><time>2026-05-02T12:02:36.003Z</time></trkpt><trkpt lat="43.122508860355715" lon="11.616944103759174"><ele>377.0</ele><time>2026-05-02T12:02:37.003Z</time></trkpt><trkpt lat="43.122642270473136" lon="11.61676805557493"><ele>374.0</ele><time>2026-05-02T12:02:38.003Z</time></trkpt><trkpt lat="43.12277211752283" lon="11.616558028250852"><ele>374.0</ele><time>2026-05-02T12:02:39.003Z</time></trkpt><trkpt lat="43.122899257351456" lon="11.616311288758801"><ele>374.0</ele><time>2026-05-02T12:02:40.003Z</time></trkpt><trkpt lat="43.12300778400007" lon="11.616061121403801"><ele>374.0</ele><time>2026-05-02T12:02:41.003Z</time></trkpt><trkpt lat="43.12309189591971" lon="11.615818146644509"><ele>374.33333333333337</ele><time>2026-05-02T12:02:42.003Z</time></trkpt><trkpt lat="43.1231966398337" lon="11.61559004696469"><ele>374.6666666666667</ele><time>2026-05-02T12:02:43.003Z</time></trkpt><trkpt lat="43.12331180471134" lon="11.615366406602082"><ele>375.0</ele><time>2026-05-02T12:02:44.003Z</time></trkpt><trkpt lat="43.123421579508275" lon="11.615180759776543"><ele>377.3333333333333</ele><time>2026-05-02T12:02:45.003Z</time></trkpt><trkpt lat="43.12352595139607" lon="11.615002293151703"><ele>379.66666666666663</ele><time>2026-05-02T12:02:46.003Z</time></trkpt><trkpt lat="43.12362855088056" lon="11.614844208180646"><ele>382.0</ele><time>2026-05-02T12:02:47.003Z</time></trkpt><trkpt lat="43.12372081663723" lon="11.614712678151703"><ele>382.0</ele><time>2026-05-02T12:02:48.003Z</time></trkpt><trkpt lat="43.12381703165811" lon="11.614603907874544"><ele>382.0</ele><time>2026-05-02T12:02:49.003Z</time></trkpt><trkpt lat="43.123936109943514" lon="11.614505589550221"><ele>382.0</ele><time>2026-05-02T12:02:50.003Z</time></trkpt><trkpt lat="43.124066625963934" lon="11.614423750511405"><ele>382.0</ele><time>2026-05-02T12:02:51.003Z</time></trkpt><trkpt lat="43.124194356795876" lon="11.614362847437379"><ele>383.75</ele><time>2026-05-02T12:02:52.003Z</time></trkpt><trkpt lat="43.12432352775144" lon="11.614318685041468"><ele>385.5</ele><time>2026-05-02T12:02:53.003Z</time></trkpt><trkpt lat="43.12446885404116" lon="11.614283517471641"><ele>387.25</ele><time>2026-05-02T12:02:54.003Z</time></trkpt><trkpt lat="43.12461620136665" lon="11.614257701910134"><ele>389.0</ele><time>2026-05-02T12:02:55.003Z</time></trkpt><trkpt lat="43.12475151794315" lon="11.614235169747031"><ele>389.0</ele><time>2026-05-02T12:02:56.003Z</time></trkpt><trkpt lat="43.12488484999112" lon="11.614231080588816"><ele>389.0</ele><time>2026-05-02T12:02:57.003Z</time></trkpt><trkpt lat="43.1250221352617" lon="11.61428152565496"><ele>389.0</ele><time>2026-05-02T12:02:58.003Z</time></trkpt><trkpt lat="43.12516272611278" lon="11.61435335203303"><ele>389.0</ele><time>2026-05-02T12:02:59.003Z</time></trkpt><trkpt lat="43.125305513300276" lon="11.614400964515049"><ele>387.25</ele><time>2026-05-02T12:03:00.003Z</time></trkpt><trkpt lat="43.12543189050509" lon="11.614461507526253"><ele>385.5</ele><time>2026-05-02T12:03:01.003Z</time></trkpt><trkpt lat="43.12554205453021" lon="11.614544142180682"><ele>383.75</ele><time>2026-05-02T12:03:02.003Z</time></trkpt><trkpt lat="43.1256732915284" lon="11.61457624164928"><ele>382.0</ele><time>2026-05-02T12:03:03Z</time></trkpt><trkpt lat="43.125804454233794" lon="11.61453965173222"><ele>381.0</ele><time>2026-05-02T12:03:04Z</time></trkpt><trkpt lat="43.12594694564737" lon="11.614520848597191"><ele>380.0</ele><time>2026-05-02T12:03:05Z</time></trkpt><trkpt lat="43.12611230600922" lon="11.614520704447985"><ele>379.0</ele><time>2026-05-02T12:03:06Z</time></trkpt><trkpt lat="43.12627608520284" lon="11.614473752328268"><ele>379.0</ele><time>2026-05-02T12:03:07Z</time></trkpt><trkpt lat="43.12643827937861" lon="11.614458174143758"><ele>379.0</ele><time>2026-05-02T12:03:08Z</time></trkpt><trkpt lat="43.12659506071997" lon="11.614439093900973"><ele>379.0</ele><time>2026-05-02T12:03:09Z</time></trkpt><trkpt lat="43.12673991084024" lon="11.614426623961988"><ele>378.79999999999995</ele><time>2026-05-02T12:03:10Z</time></trkpt><trkpt lat="43.12686879916455" lon="11.61441887514925"><ele>378.59999999999997</ele><time>2026-05-02T12:03:11Z</time></trkpt><trkpt lat="43.12698076838244" lon="11.61440931424495"><ele>378.4</ele><time>2026-05-02T12:03:12Z</time></trkpt><trkpt lat="43.12708078821825" lon="11.614394673351834"><ele>378.2</ele><time>2026-05-02T12:03:13Z</time></trkpt><trkpt lat="43.12717941157195" lon="11.614370369283655"><ele>378.0</ele><time>2026-05-02T12:03:14Z</time></trkpt><trkpt lat="43.12727534784515" lon="11.614328230961915"><ele>378.0</ele><time>2026-05-02T12:03:15Z</time></trkpt><trkpt lat="43.12736721621377" lon="11.614261185649859"><ele>378.0</ele><time>2026-05-02T12:03:16Z</time></trkpt><trkpt lat="43.127454346924395" lon="11.614150758683062"><ele>378.0</ele><time>2026-05-02T12:03:17Z</time></trkpt><trkpt lat="43.12754406065107" lon="11.614023446726007"><ele>378.0</ele><time>2026-05-02T12:03:18Z</time></trkpt><trkpt lat="43.12764424108428" lon="11.613911749540273"><ele>377.25</ele><time>2026-05-02T12:03:19Z</time></trkpt><trkpt lat="43.12772721592386" lon="11.613792372379619"><ele>376.5</ele><time>2026-05-02T12:03:20Z</time></trkpt><trkpt lat="43.12780401797845" lon="11.613683747286094"><ele>375.75</ele><time>2026-05-02T12:03:21Z</time></trkpt><trkpt lat="43.12787460155036" lon="11.613563275981509"><ele>375.0</ele><time>2026-05-02T12:03:22Z</time></trkpt><trkpt lat="43.12797930041142" lon="11.61348604828256"><ele>373.75</ele><time>2026-05-02T12:03:23Z</time></trkpt><trkpt lat="43.12808318858779" lon="11.613396134197009"><ele>372.5</ele><time>2026-05-02T12:03:24Z</time></trkpt><trkpt lat="43.128182953978836" lon="11.613296372444616"><ele>371.25</ele><time>2026-05-02T12:03:25Z</time></trkpt><trkpt lat="43.12828837801331" lon="11.613222464846917"><ele>370.0</ele><time>2026-05-02T12:03:26Z</time></trkpt><trkpt lat="43.128386600219734" lon="11.613154959242797"><ele>369.6</ele><time>2026-05-02T12:03:27Z</time></trkpt><trkpt lat="43.12847908237576" lon="11.613089663837643"><ele>369.2</ele><time>2026-05-02T12:03:28Z</time></trkpt><trkpt lat="43.12856901873326" lon="11.613033236263433"><ele>368.79999999999995</ele><time>2026-05-02T12:03:29Z</time></trkpt><trkpt lat="43.12865162280612" lon="11.612975298054456"><ele>368.4</ele><time>2026-05-02T12:03:30Z</time></trkpt><trkpt lat="43.12871983939295" lon="11.612916528366908"><ele>368.0</ele><time>2026-05-02T12:03:31Z</time></trkpt><trkpt lat="43.128784713349454" lon="11.612862608387687"><ele>366.25</ele><time>2026-05-02T12:03:32Z</time></trkpt><trkpt lat="43.12884012722997" lon="11.612748135423137"><ele>364.5</ele><time>2026-05-02T12:03:33Z</time></trkpt><trkpt lat="43.12881942280175" lon="11.612559049491312"><ele>362.75</ele><time>2026-05-02T12:03:34Z</time></trkpt><trkpt lat="43.128816519828426" lon="11.612368445368208"><ele>361.0</ele><time>2026-05-02T12:03:35Z</time></trkpt><trkpt lat="43.12881638167065" lon="11.612155784633002"><ele>358.66666666666663</ele><time>2026-05-02T12:03:36.001Z</time></trkpt><trkpt lat="43.128823158610594" lon="11.611914782837893"><ele>356.3333333333333</ele><time>2026-05-02T12:03:37.001Z</time></trkpt><trkpt lat="43.12886074244374" lon="11.611636758082541"><ele>354.0</ele><time>2026-05-02T12:03:38.001Z</time></trkpt><trkpt lat="43.12887434074063" lon="11.611345158723871"><ele>353.3333333333333</ele><time>2026-05-02T12:03:39.001Z</time></trkpt><trkpt lat="43.128887117032626" lon="11.61107695544809"><ele>352.66666666666663</ele><time>2026-05-02T12:03:40.001Z</time></trkpt><trkpt lat="43.1289029320423" lon="11.610836678819219"><ele>352.0</ele><time>2026-05-02T12:03:41.001Z</time></trkpt><trkpt lat="43.1289129381878" lon="11.610624539997577"><ele>352.0</ele><time>2026-05-02T12:03:42.001Z</time></trkpt><trkpt lat="43.12890970446694" lon="11.610449381671584"><ele>352.0</ele><time>2026-05-02T12:03:43.001Z</time></trkpt><trkpt lat="43.12887744422736" lon="11.610257857897688"><ele>352.0</ele><time>2026-05-02T12:03:44.001Z</time></trkpt><trkpt lat="43.12883762539488" lon="11.610058017743407"><ele>352.0</ele><time>2026-05-02T12:03:45.001Z</time></trkpt><trkpt lat="43.12877925910179" lon="11.609846811403955"><ele>354.3333333333333</ele><time>2026-05-02T12:03:46.001Z</time></trkpt><trkpt lat="43.128694191942486" lon="11.609628472496777"><ele>356.6666666666667</ele><time>2026-05-02T12:03:47.001Z</time></trkpt><trkpt lat="43.12860277264974" lon="11.60941662986679"><ele>359.0</ele><time>2026-05-02T12:03:48.001Z</time></trkpt><trkpt lat="43.12850192531605" lon="11.609206243624326"><ele>362.33333333333337</ele><time>2026-05-02T12:03:49.001Z</time></trkpt><trkpt lat="43.1284200957312" lon="11.609005564838824"><ele>365.6666666666667</ele><time>2026-05-02T12:03:50.001Z</time></trkpt><trkpt lat="43.12835078355232" lon="11.60880464997666"><ele>369.0</ele><time>2026-05-02T12:03:51.001Z</time></trkpt><trkpt lat="43.12828123283996" lon="11.608602980206172"><ele>366.3333333333333</ele><time>2026-05-02T12:03:52.001Z</time></trkpt><trkpt lat="43.12819235794067" lon="11.608401888656056"><ele>363.66666666666663</ele><time>2026-05-02T12:03:53.001Z</time></trkpt><trkpt lat="43.12808531964981" lon="11.608215088739227"><ele>361.0</ele><time>2026-05-02T12:03:54.001Z</time></trkpt><trkpt lat="43.127973434299854" lon="11.608055130919322"><ele>361.0</ele><time>2026-05-02T12:03:55.001Z</time></trkpt><trkpt lat="43.12788147827111" lon="11.607921154254925"><ele>361.0</ele><time>2026-05-02T12:03:56.001Z</time></trkpt><trkpt lat="43.12779378591199" lon="11.607777535775648"><ele>361.0</ele><time>2026-05-02T12:03:57.001Z</time></trkpt><trkpt lat="43.12771992019142" lon="11.607615028297001"><ele>361.0</ele><time>2026-05-02T12:03:58.001Z</time></trkpt><trkpt lat="43.1276624343542" lon="11.607444507696169"><ele>363.25</ele><time>2026-05-02T12:03:59.001Z</time></trkpt><trkpt lat="43.12760823803615" lon="11.607285716158268"><ele>365.5</ele><time>2026-05-02T12:04:00.001Z</time></trkpt><trkpt lat="43.127555227173936" lon="11.607120826584376"><ele>367.75</ele><time>2026-05-02T12:04:01.001Z</time></trkpt><trkpt lat="43.12750548987577" lon="11.606954382816019"><ele>370.0</ele><time>2026-05-02T12:04:02.001Z</time></trkpt><trkpt lat="43.12745944542686" lon="11.606783188937564"><ele>370.5</ele><time>2026-05-02T12:04:03.001Z</time></trkpt><trkpt lat="43.12741506840369" lon="11.606593381123735"><ele>371.0</ele><time>2026-05-02T12:04:04.001Z</time></trkpt><trkpt lat="43.12737363771695" lon="11.60638647751856"><ele>371.5</ele><time>2026-05-02T12:04:05.001Z</time></trkpt><trkpt lat="43.12734121756779" lon="11.606200424518098"><ele>372.0</ele><time>2026-05-02T12:04:06.001Z</time></trkpt><trkpt lat="43.12730128871519" lon="11.60602046360176"><ele>369.5</ele><time>2026-05-02T12:04:07.001Z</time></trkpt><trkpt lat="43.127240869651146" lon="11.605861868705551"><ele>367.0</ele><time>2026-05-02T12:04:08.001Z</time></trkpt><trkpt lat="43.127153404321724" lon="11.6057114157781"><ele>364.5</ele><time>2026-05-02T12:04:09.001Z</time></trkpt><trkpt lat="43.12704248721046" lon="11.605574980859906"><ele>362.0</ele><time>2026-05-02T12:04:10.001Z</time></trkpt><trkpt lat="43.12691495178993" lon="11.605472164540718"><ele>362.0</ele><time>2026-05-02T12:04:11.001Z</time></trkpt><trkpt lat="43.126800555639704" lon="11.605339441700115"><ele>362.0</ele><time>2026-05-02T12:04:12.001Z</time></trkpt><trkpt lat="43.12667623105422" lon="11.605219445409508"><ele>362.0</ele><time>2026-05-02T12:04:13.001Z</time></trkpt><trkpt lat="43.12656394193545" lon="11.605095222017598"><ele>362.0</ele><time>2026-05-02T12:04:14.001Z</time></trkpt><trkpt lat="43.126463641549535" lon="11.60495838170274"><ele>361.6666666666667</ele><time>2026-05-02T12:04:15.002Z</time></trkpt><trkpt lat="43.12637337645376" lon="11.604793654307269"><ele>361.3333333333333</ele><time>2026-05-02T12:04:16.002Z</time></trkpt><trkpt lat="43.12629509016129" lon="11.604616164730949"><ele>361.0</ele><time>2026-05-02T12:04:17.002Z</time></trkpt><trkpt lat="43.1262188460797" lon="11.604431935216668"><ele>362.25</ele><time>2026-05-02T12:04:18.002Z</time></trkpt><trkpt lat="43.126149214055545" lon="11.604261910894117"><ele>363.5</ele><time>2026-05-02T12:04:19.002Z</time></trkpt><trkpt lat="43.12609124440298" lon="11.604117799984438"><ele>364.75</ele><time>2026-05-02T12:04:20.002Z</time></trkpt><trkpt lat="43.12603998385201" lon="11.60399230062026"><ele>366.0</ele><time>2026-05-02T12:04:21.002Z</time></trkpt><trkpt lat="43.125995596291745" lon="11.603884414759959"><ele>366.0</ele><time>2026-05-02T12:04:22.002Z</time></trkpt><trkpt lat="43.12594934655784" lon="11.603773621763828"><ele>366.0</ele><time>2026-05-02T12:04:23.002Z</time></trkpt><trkpt lat="43.12589585586219" lon="11.603648795866246"><ele>366.0</ele><time>2026-05-02T12:04:24.002Z</time></trkpt><trkpt lat="43.12584138921711" lon="11.60352173546259"><ele>366.0</ele><time>2026-05-02T12:04:25.002Z</time></trkpt><trkpt lat="43.12578960621427" lon="11.603397414662288"><ele>366.0</ele><time>2026-05-02T12:04:26.002Z</time></trkpt><trkpt lat="43.12573887552224" lon="11.603273931430724"><ele>365.20000000000005</ele><time>2026-05-02T12:04:27.002Z</time></trkpt><trkpt lat="43.125685998012024" lon="11.603145222656352"><ele>364.40000000000003</ele><time>2026-05-02T12:04:28.002Z</time></trkpt><trkpt lat="43.12563193104994" lon="11.60301396474333"><ele>363.6</ele><time>2026-05-02T12:04:29.002Z</time></trkpt><trkpt lat="43.12557765998953" lon="11.602882970359017"><ele>362.8</ele><time>2026-05-02T12:04:30.002Z</time></trkpt><trkpt lat="43.12552139267636" lon="11.602747157315939"><ele>362.0</ele><time>2026-05-02T12:04:31.002Z</time></trkpt><trkpt lat="43.12546410968449" lon="11.602609472241893"><ele>362.0</ele><time>2026-05-02T12:04:32.002Z</time></trkpt><trkpt lat="43.125401954775974" lon="11.602461133838549"><ele>362.0</ele><time>2026-05-02T12:04:33.002Z</time></trkpt><trkpt lat="43.125319002985236" lon="11.602302493598984"><ele>362.0</ele><time>2026-05-02T12:04:34.002Z</time></trkpt><trkpt lat="43.12524604551937" lon="11.602118290741297"><ele>362.0</ele><time>2026-05-02T12:04:35.002Z</time></trkpt><trkpt lat="43.12516576298606" lon="11.60192579466246"><ele>363.6666666666667</ele><time>2026-05-02T12:04:36.002Z</time></trkpt><trkpt lat="43.12508896941657" lon="11.601715592169905"><ele>365.3333333333333</ele><time>2026-05-02T12:04:37.002Z</time></trkpt><trkpt lat="43.125015483424505" lon="11.601507703892931"><ele>367.0</ele><time>2026-05-02T12:04:38.002Z</time></trkpt><trkpt lat="43.12494487954877" lon="11.60130368079069"><ele>365.66666666666663</ele><time>2026-05-02T12:04:39.002Z</time></trkpt><trkpt lat="43.12488920217644" lon="11.601091481619632"><ele>364.3333333333333</ele><time>2026-05-02T12:04:40.002Z</time></trkpt><trkpt lat="43.12481755270731" lon="11.600883882937481"><ele>363.0</ele><time>2026-05-02T12:04:41.002Z</time></trkpt><trkpt lat="43.12471906714662" lon="11.600676292759006"><ele>363.0</ele><time>2026-05-02T12:04:42.002Z</time></trkpt><trkpt lat="43.12462561332841" lon="11.600458196694929"><ele>363.0</ele><time>2026-05-02T12:04:43.002Z</time></trkpt><trkpt lat="43.12454145202508" lon="11.600249521508868"><ele>363.0</ele><time>2026-05-02T12:04:44.002Z</time></trkpt><trkpt lat="43.12444797982852" lon="11.600069859816408"><ele>365.0</ele><time>2026-05-02T12:04:45.002Z</time></trkpt><trkpt lat="43.12435855367187" lon="11.599904568317116"><ele>367.0</ele><time>2026-05-02T12:04:46.002Z</time></trkpt><trkpt lat="43.12426433292507" lon="11.59976596865087"><ele>369.0</ele><time>2026-05-02T12:04:47.002Z</time></trkpt><trkpt lat="43.12418800763115" lon="11.59962516155995"><ele>371.0</ele><time>2026-05-02T12:04:48.002Z</time></trkpt><trkpt lat="43.12412384805589" lon="11.599494220450827"><ele>370.8</ele><time>2026-05-02T12:04:49.002Z</time></trkpt><trkpt lat="43.12407915436016" lon="11.599355532170758"><ele>370.6</ele><time>2026-05-02T12:04:50.002Z</time></trkpt><trkpt lat="43.12403867124621" lon="11.599231684395367"><ele>370.4</ele><time>2026-05-02T12:04:51.002Z</time></trkpt><trkpt lat="43.124012031704176" lon="11.599105450098035"><ele>370.2</ele><time>2026-05-02T12:04:52.002Z</time></trkpt><trkpt lat="43.12405362780071" lon="11.598964789146438"><ele>370.0</ele><time>2026-05-02T12:04:53.003Z</time></trkpt><trkpt lat="43.12411501055692" lon="11.598822919533447"><ele>369.3333333333333</ele><time>2026-05-02T12:04:54.003Z</time></trkpt><trkpt lat="43.124188700312416" lon="11.598638252748108"><ele>368.6666666666667</ele><time>2026-05-02T12:04:55.003Z</time></trkpt><trkpt lat="43.124268019443434" lon="11.598421622885757"><ele>368.0</ele><time>2026-05-02T12:04:56.003Z</time></trkpt><trkpt lat="43.124334201317396" lon="11.598211770500352"><ele>368.0</ele><time>2026-05-02T12:04:57.003Z</time></trkpt><trkpt lat="43.12437158798932" lon="11.597983882516498"><ele>368.0</ele><time>2026-05-02T12:04:58.003Z</time></trkpt><trkpt lat="43.12437505867251" lon="11.59775951130404"><ele>368.0</ele><time>2026-05-02T12:04:59.003Z</time></trkpt><trkpt lat="43.124374786310085" lon="11.597516992831899"><ele>367.33333333333337</ele><time>2026-05-02T12:05:00.003Z</time></trkpt><trkpt lat="43.12438786884062" lon="11.597255867651775"><ele>366.6666666666667</ele><time>2026-05-02T12:05:01.003Z</time></trkpt><trkpt lat="43.12440351070621" lon="11.597005866866208"><ele>366.0</ele><time>2026-05-02T12:05:02.003Z</time></trkpt><trkpt lat="43.124420123702585" lon="11.596755506708401"><ele>363.6666666666667</ele><time>2026-05-02T12:05:03.003Z</time></trkpt><trkpt lat="43.124440226687874" lon="11.59649073470923"><ele>361.33333333333337</ele><time>2026-05-02T12:05:04.003Z</time></trkpt><trkpt lat="43.1244606175644" lon="11.596239147518478"><ele>359.0</ele><time>2026-05-02T12:05:05.003Z</time></trkpt><trkpt lat="43.12448567012765" lon="11.59602201165851"><ele>359.0</ele><time>2026-05-02T12:05:06.003Z</time></trkpt><trkpt lat="43.124505824035374" lon="11.595825307942288"><ele>359.0</ele><time>2026-05-02T12:05:07.003Z</time></trkpt><trkpt lat="43.12450639664067" lon="11.59565075833376"><ele>359.0</ele><time>2026-05-02T12:05:08.003Z</time></trkpt><trkpt lat="43.12447179858537" lon="11.59548710658696"><ele>359.0</ele><time>2026-05-02T12:05:08.999Z</time></trkpt><trkpt lat="43.12443385525563" lon="11.595299879495903"><ele>360.6666666666667</ele><time>2026-05-02T12:05:09.999Z</time></trkpt><trkpt lat="43.12439279677488" lon="11.59506858941526"><ele>362.3333333333333</ele><time>2026-05-02T12:05:10.999Z</time></trkpt><trkpt lat="43.124331995197274" lon="11.594850887152605"><ele>364.0</ele><time>2026-05-02T12:05:11.999Z</time></trkpt><trkpt lat="43.124276870959264" lon="11.59468367869774"><ele>364.0</ele><time>2026-05-02T12:05:12.999Z</time></trkpt><trkpt lat="43.12423040623676" lon="11.59454521534221"><ele>364.0</ele><time>2026-05-02T12:05:14Z</time></trkpt><trkpt lat="43.12418609845788" lon="11.594424234438629"><ele>364.0</ele><time>2026-05-02T12:05:15Z</time></trkpt><trkpt lat="43.12414798940959" lon="11.59431595938097"><ele>364.0</ele><time>2026-05-02T12:05:16Z</time></trkpt><trkpt lat="43.124114331531025" lon="11.594193536925872"><ele>364.0</ele><time>2026-05-02T12:05:17Z</time></trkpt><trkpt lat="43.12410125196315" lon="11.59406947020063"><ele>364.3333333333333</ele><time>2026-05-02T12:05:18Z</time></trkpt><trkpt lat="43.124111955107615" lon="11.593939614180824"><ele>364.66666666666663</ele><time>2026-05-02T12:05:19Z</time></trkpt><trkpt lat="43.12412363934804" lon="11.593822059593563"><ele>365.0</ele><time>2026-05-02T12:05:20Z</time></trkpt><trkpt lat="43.124130353701" lon="11.593708307965064"><ele>365.3333333333333</ele><time>2026-05-02T12:05:21Z</time></trkpt><trkpt lat="43.12413612571233" lon="11.593610520488872"><ele>365.6666666666667</ele><time>2026-05-02T12:05:22Z</time></trkpt><trkpt lat="43.124127047299346" lon="11.593463073998487"><ele>366.0</ele><time>2026-05-02T12:05:24Z</time></trkpt><trkpt lat="43.124135466564105" lon="11.593369494437392"><ele>366.5</ele><time>2026-05-02T12:05:26Z</time></trkpt><trkpt lat="43.12414212714691" lon="11.59328333187069"><ele>367.0</ele><time>2026-05-02T12:05:28Z</time></trkpt><trkpt lat="43.12417714842553" lon="11.593195989279277"><ele>367.5</ele><time>2026-05-02T12:05:31Z</time></trkpt><trkpt lat="43.12428711897528" lon="11.593189379107676"><ele>368.0</ele><time>2026-05-02T12:05:33Z</time></trkpt><trkpt lat="43.12435295911523" lon="11.59316057609244"><ele>368.5</ele><time>2026-05-02T12:05:34Z</time></trkpt><trkpt lat="43.124437005979" lon="11.593123208679579"><ele>369.0</ele><time>2026-05-02T12:05:35Z</time></trkpt><trkpt lat="43.124519446442655" lon="11.593075529458043"><ele>369.0</ele><time>2026-05-02T12:05:36Z</time></trkpt><trkpt lat="43.12461041248506" lon="11.593025300764856"><ele>369.0</ele><time>2026-05-02T12:05:37Z</time></trkpt><trkpt lat="43.12469878127806" lon="11.592968916470378"><ele>369.0</ele><time>2026-05-02T12:05:38Z</time></trkpt><trkpt lat="43.124791505703506" lon="11.59291543548224"><ele>369.0</ele><time>2026-05-02T12:05:39Z</time></trkpt><trkpt lat="43.12488427287625" lon="11.592870440589403"><ele>369.0</ele><time>2026-05-02T12:05:40Z</time></trkpt><trkpt lat="43.124975550373605" lon="11.592822789097939"><ele>370.0</ele><time>2026-05-02T12:05:41Z</time></trkpt><trkpt lat="43.12505973069084" lon="11.592768340573254"><ele>371.0</ele><time>2026-05-02T12:05:42Z</time></trkpt><trkpt lat="43.12514641276162" lon="11.592735680868913"><ele>372.0</ele><time>2026-05-02T12:05:43Z</time></trkpt><trkpt lat="43.12523350046158" lon="11.592692453582906"><ele>373.0</ele><time>2026-05-02T12:05:44Z</time></trkpt><trkpt lat="43.125327852456586" lon="11.592642981246646"><ele>374.0</ele><time>2026-05-02T12:05:45Z</time></trkpt><trkpt lat="43.125436044143534" lon="11.592603412438827"><ele>374.0</ele><time>2026-05-02T12:05:46Z</time></trkpt><trkpt lat="43.125544901401994" lon="11.592571686181996"><ele>374.0</ele><time>2026-05-02T12:05:47.001Z</time></trkpt><trkpt lat="43.12564891817543" lon="11.592552267703882"><ele>374.0</ele><time>2026-05-02T12:05:48.001Z</time></trkpt><trkpt lat="43.12573819033753" lon="11.592526812061374"><ele>374.0</ele><time>2026-05-02T12:05:49.001Z</time></trkpt><trkpt lat="43.12582400150622" lon="11.592502916405508"><ele>374.0</ele><time>2026-05-02T12:05:50.001Z</time></trkpt><trkpt lat="43.12589373040751" lon="11.592462639986316"><ele>371.6</ele><time>2026-05-02T12:05:51.001Z</time></trkpt><trkpt lat="43.12596966611057" lon="11.592430581941462"><ele>369.2</ele><time>2026-05-02T12:05:52.001Z</time></trkpt><trkpt lat="43.126046899446315" lon="11.592355000577596"><ele>366.8</ele><time>2026-05-02T12:05:53.001Z</time></trkpt><trkpt lat="43.1261039402498" lon="11.592223431572398"><ele>364.40000000000003</ele><time>2026-05-02T12:05:54.001Z</time></trkpt><trkpt lat="43.12618047862742" lon="11.592114706586132"><ele>362.0</ele><time>2026-05-02T12:05:55.001Z</time></trkpt><trkpt lat="43.12623295064053" lon="11.591967172230259"><ele>362.0</ele><time>2026-05-02T12:05:56.001Z</time></trkpt><trkpt lat="43.12630102325721" lon="11.591820526213557"><ele>362.0</ele><time>2026-05-02T12:05:57.001Z</time></trkpt><trkpt lat="43.12635817464609" lon="11.59169154034332"><ele>362.0</ele><time>2026-05-02T12:05:58.001Z</time></trkpt><trkpt lat="43.126396341620534" lon="11.591558526334117"><ele>362.0</ele><time>2026-05-02T12:05:59.001Z</time></trkpt><trkpt lat="43.12644822183473" lon="11.591451216464664"><ele>362.0</ele><time>2026-05-02T12:06:00.001Z</time></trkpt><trkpt lat="43.126477278642874" lon="11.591343030325964"><ele>362.0</ele><time>2026-05-02T12:06:01.001Z</time></trkpt><trkpt lat="43.12648727646018" lon="11.591224755031899"><ele>362.0</ele><time>2026-05-02T12:06:02.001Z</time></trkpt><trkpt lat="43.12647154860771" lon="11.591092962762872"><ele>362.0</ele><time>2026-05-02T12:06:03.001Z</time></trkpt><trkpt lat="43.12642625047225" lon="11.59094037795714"><ele>362.0</ele><time>2026-05-02T12:06:04.001Z</time></trkpt><trkpt lat="43.12638432881509" lon="11.590801717245148"><ele>362.0</ele><time>2026-05-02T12:06:05.001Z</time></trkpt><trkpt lat="43.126346662769116" lon="11.590686040238984"><ele>360.1666666666667</ele><time>2026-05-02T12:06:06.001Z</time></trkpt><trkpt lat="43.126325656115" lon="11.590593106290534"><ele>358.33333333333337</ele><time>2026-05-02T12:06:07.001Z</time></trkpt><trkpt lat="43.12630597264997" lon="11.590489600694166"><ele>356.5</ele><time>2026-05-02T12:06:08.001Z</time></trkpt><trkpt lat="43.12630100900762" lon="11.59038277449721"><ele>354.6666666666667</ele><time>2026-05-02T12:06:09.001Z</time></trkpt><trkpt lat="43.12631593447098" lon="11.590267171188275"><ele>352.8333333333333</ele><time>2026-05-02T12:06:10.001Z</time></trkpt><trkpt lat="43.12634747749048" lon="11.590159354540713"><ele>351.0</ele><time>2026-05-02T12:06:11.001Z</time></trkpt><trkpt lat="43.12640213728325" lon="11.59004289451636"><ele>349.5</ele><time>2026-05-02T12:06:12.001Z</time></trkpt><trkpt lat="43.12646808927971" lon="11.589922375634558"><ele>348.0</ele><time>2026-05-02T12:06:13.001Z</time></trkpt><trkpt lat="43.126540236230724" lon="11.589802878074485"><ele>346.5</ele><time>2026-05-02T12:06:14.001Z</time></trkpt><trkpt lat="43.12661834118423" lon="11.58968469195488"><ele>345.0</ele><time>2026-05-02T12:06:15.001Z</time></trkpt><trkpt lat="43.12670480946371" lon="11.589561477230076"><ele>343.25</ele><time>2026-05-02T12:06:16.001Z</time></trkpt><trkpt lat="43.126806261519036" lon="11.589408903101065"><ele>341.5</ele><time>2026-05-02T12:06:17.001Z</time></trkpt><trkpt lat="43.12691244532877" lon="11.589267027465382"><ele>339.75</ele><time>2026-05-02T12:06:18.001Z</time></trkpt><trkpt lat="43.12700702985608" lon="11.589125920445905"><ele>338.0</ele><time>2026-05-02T12:06:19.001Z</time></trkpt><trkpt lat="43.12709827636494" lon="11.588997633780526"><ele>338.0</ele><time>2026-05-02T12:06:20.002Z</time></trkpt><trkpt lat="43.127201385234834" lon="11.58885907054356"><ele>338.0</ele><time>2026-05-02T12:06:21.002Z</time></trkpt><trkpt lat="43.127298431308006" lon="11.588724497370631"><ele>338.0</ele><time>2026-05-02T12:06:22.002Z</time></trkpt><trkpt lat="43.12739222445334" lon="11.588596385935604"><ele>338.0</ele><time>2026-05-02T12:06:23.002Z</time></trkpt><trkpt lat="43.1274792091062" lon="11.588473537002011"><ele>337.59999999999997</ele><time>2026-05-02T12:06:24.002Z</time></trkpt><trkpt lat="43.12756207051956" lon="11.588357988398284"><ele>337.2</ele><time>2026-05-02T12:06:25.002Z</time></trkpt><trkpt lat="43.12763808864937" lon="11.58824828220721"><ele>336.8</ele><time>2026-05-02T12:06:26.002Z</time></trkpt><trkpt lat="43.12771844262229" lon="11.588152879482953"><ele>336.4</ele><time>2026-05-02T12:06:27.002Z</time></trkpt><trkpt lat="43.12777370850188" lon="11.588061542820196"><ele>336.0</ele><time>2026-05-02T12:06:28.002Z</time></trkpt><trkpt lat="43.12782244665957" lon="11.587955134729778"><ele>335.5</ele><time>2026-05-02T12:06:29.002Z</time></trkpt><trkpt lat="43.127862738844264" lon="11.587814737540166"><ele>335.0</ele><time>2026-05-02T12:06:30.002Z</time></trkpt><trkpt lat="43.12789644039612" lon="11.587631380464227"><ele>334.5</ele><time>2026-05-02T12:06:31.002Z</time></trkpt><trkpt lat="43.12795259198251" lon="11.587406787438256"><ele>334.0</ele><time>2026-05-02T12:06:32.002Z</time></trkpt><trkpt lat="43.127991222935314" lon="11.587176131442805"><ele>333.0</ele><time>2026-05-02T12:06:33.002Z</time></trkpt><trkpt lat="43.12802799548173" lon="11.586967884604768"><ele>332.0</ele><time>2026-05-02T12:06:34.002Z</time></trkpt><trkpt lat="43.128066663111206" lon="11.586770250995839"><ele>331.0</ele><time>2026-05-02T12:06:35.002Z</time></trkpt><trkpt lat="43.128110247622914" lon="11.586581806128581"><ele>331.0</ele><time>2026-05-02T12:06:36.002Z</time></trkpt><trkpt lat="43.128150774391116" lon="11.58641026241135"><ele>331.0</ele><time>2026-05-02T12:06:37.002Z</time></trkpt><trkpt lat="43.12817311073915" lon="11.586230046696457"><ele>331.0</ele><time>2026-05-02T12:06:38.002Z</time></trkpt><trkpt lat="43.12820987217016" lon="11.586051763362432"><ele>331.0</ele><time>2026-05-02T12:06:39.002Z</time></trkpt><trkpt lat="43.128233789947565" lon="11.585872463824764"><ele>329.25</ele><time>2026-05-02T12:06:40.002Z</time></trkpt><trkpt lat="43.128266374483644" lon="11.585685803122244"><ele>327.5</ele><time>2026-05-02T12:06:41.002Z</time></trkpt><trkpt lat="43.12828177100914" lon="11.585519040697363"><ele>325.75</ele><time>2026-05-02T12:06:42.002Z</time></trkpt><trkpt lat="43.1282938428384" lon="11.585359335194335"><ele>324.0</ele><time>2026-05-02T12:06:43.002Z</time></trkpt><trkpt lat="43.12830209456196" lon="11.585195679749715"><ele>323.2</ele><time>2026-05-02T12:06:44.002Z</time></trkpt><trkpt lat="43.12830812517864" lon="11.585055635604604"><ele>322.4</ele><time>2026-05-02T12:06:45.002Z</time></trkpt><trkpt lat="43.128315118122046" lon="11.584923776712872"><ele>321.6</ele><time>2026-05-02T12:06:46.002Z</time></trkpt><trkpt lat="43.128324159321416" lon="11.584768127486193"><ele>320.8</ele><time>2026-05-02T12:06:47.002Z</time></trkpt><trkpt lat="43.12833847136171" lon="11.584608758786056"><ele>320.0</ele><time>2026-05-02T12:06:48.002Z</time></trkpt><trkpt lat="43.12835319694691" lon="11.58445566357465"><ele>318.0</ele><time>2026-05-02T12:06:49.002Z</time></trkpt><trkpt lat="43.12839485338098" lon="11.584308458646564"><ele>316.0</ele><time>2026-05-02T12:06:50.002Z</time></trkpt><trkpt lat="43.12845718553828" lon="11.584159611453487"><ele>314.0</ele><time>2026-05-02T12:06:51.002Z</time></trkpt><trkpt lat="43.12852485487407" lon="11.584029768990556"><ele>312.0</ele><time>2026-05-02T12:06:52.002Z</time></trkpt><trkpt lat="43.1285928353737" lon="11.583924181618457"><ele>312.0</ele><time>2026-05-02T12:06:53.002Z</time></trkpt><trkpt lat="43.128692898309154" lon="11.583851137889111"><ele>312.0</ele><time>2026-05-02T12:06:54.002Z</time></trkpt><trkpt lat="43.12880643215925" lon="11.583794131969736"><ele>312.0</ele><time>2026-05-02T12:06:55.003Z</time></trkpt><trkpt lat="43.12892465160831" lon="11.583750796179908"><ele>312.0</ele><time>2026-05-02T12:06:56.003Z</time></trkpt><trkpt lat="43.12901449215384" lon="11.583681158588197"><ele>308.4</ele><time>2026-05-02T12:06:57.003Z</time></trkpt><trkpt lat="43.12909245135773" lon="11.583608535131981"><ele>304.79999999999995</ele><time>2026-05-02T12:06:58.003Z</time></trkpt><trkpt lat="43.129140593682045" lon="11.583486715604497"><ele>301.2</ele><time>2026-05-02T12:06:59.003Z</time></trkpt><trkpt lat="43.12919572261527" lon="11.58335926766104"><ele>297.59999999999997</ele><time>2026-05-02T12:07:00.003Z</time></trkpt><trkpt lat="43.129237093754305" lon="11.583207087159295"><ele>294.0</ele><time>2026-05-02T12:07:01.003Z</time></trkpt><trkpt lat="43.12927342591652" lon="11.583047506646267"><ele>294.0</ele><time>2026-05-02T12:07:02.003Z</time></trkpt><trkpt lat="43.129292093598096" lon="11.582860501014125"><ele>294.0</ele><time>2026-05-02T12:07:03.003Z</time></trkpt><trkpt lat="43.12932595286766" lon="11.582650296761695"><ele>294.0</ele><time>2026-05-02T12:07:04.003Z</time></trkpt><trkpt lat="43.129374037946455" lon="11.5824117232705"><ele>290.3333333333333</ele><time>2026-05-02T12:07:05.003Z</time></trkpt><trkpt lat="43.129406168099386" lon="11.582165793690512"><ele>286.66666666666663</ele><time>2026-05-02T12:07:06.003Z</time></trkpt><trkpt lat="43.1294397123266" lon="11.581910712911249"><ele>283.0</ele><time>2026-05-02T12:07:07.003Z</time></trkpt><trkpt lat="43.129470741121885" lon="11.581676754603725"><ele>279.0</ele><time>2026-05-02T12:07:08.003Z</time></trkpt><trkpt lat="43.12950174883058" lon="11.581444076558101"><ele>275.0</ele><time>2026-05-02T12:07:09.003Z</time></trkpt><trkpt lat="43.129529897274544" lon="11.581233118900222"><ele>271.0</ele><time>2026-05-02T12:07:10.003Z</time></trkpt><trkpt lat="43.129557551403884" lon="11.581030124156529"><ele>269.25</ele><time>2026-05-02T12:07:11.003Z</time></trkpt><trkpt lat="43.129567734619684" lon="11.580842073240515"><ele>267.5</ele><time>2026-05-02T12:07:12.003Z</time></trkpt><trkpt lat="43.129594046493835" lon="11.58066114507109"><ele>265.75</ele><time>2026-05-02T12:07:13.003Z</time></trkpt><trkpt lat="43.12961689394243" lon="11.580486653479113"><ele>264.0</ele><time>2026-05-02T12:07:14.003Z</time></trkpt><trkpt lat="43.129641145464355" lon="11.580328646809898"><ele>263.5</ele><time>2026-05-02T12:07:14.999Z</time></trkpt><trkpt lat="43.129679822186745" lon="11.580171413774876"><ele>263.0</ele><time>2026-05-02T12:07:15.999Z</time></trkpt><trkpt lat="43.12971220712203" lon="11.579993852326444"><ele>262.5</ele><time>2026-05-02T12:07:16.999Z</time></trkpt><trkpt lat="43.12977656916994" lon="11.579794665806473"><ele>262.0</ele><time>2026-05-02T12:07:17.999Z</time></trkpt><trkpt lat="43.129865887822106" lon="11.579575231589043"><ele>262.0</ele><time>2026-05-02T12:07:18.999Z</time></trkpt><trkpt lat="43.1299605200981" lon="11.579384208819402"><ele>262.0</ele><time>2026-05-02T12:07:19.999Z</time></trkpt><trkpt lat="43.13004296033783" lon="11.579203748813727"><ele>262.0</ele><time>2026-05-02T12:07:20.999Z</time></trkpt><trkpt lat="43.13011769859401" lon="11.579034213735614"><ele>262.0</ele><time>2026-05-02T12:07:21.999Z</time></trkpt><trkpt lat="43.13016475862882" lon="11.578860623724063"><ele>262.0</ele><time>2026-05-02T12:07:22.999Z</time></trkpt><trkpt lat="43.130210190960845" lon="11.578700423470165"><ele>262.0</ele><time>2026-05-02T12:07:23.999Z</time></trkpt><trkpt lat="43.13024091065957" lon="11.578539626105192"><ele>262.0</ele><time>2026-05-02T12:07:24.999Z</time></trkpt><trkpt lat="43.130249053873406" lon="11.578388625815371"><ele>261.6</ele><time>2026-05-02T12:07:25.999Z</time></trkpt><trkpt lat="43.130253492911436" lon="11.578237466321937"><ele>261.2</ele><time>2026-05-02T12:07:26.999Z</time></trkpt><trkpt lat="43.13023673925107" lon="11.578097828371316"><ele>260.8</ele><time>2026-05-02T12:07:27.999Z</time></trkpt><trkpt lat="43.13019059133678" lon="11.577976561061488"><ele>260.4</ele><time>2026-05-02T12:07:29Z</time></trkpt><trkpt lat="43.13013583519659" lon="11.577846112253809"><ele>260.0</ele><time>2026-05-02T12:07:30Z</time></trkpt><trkpt lat="43.130056720694185" lon="11.577703301428603"><ele>258.75</ele><time>2026-05-02T12:07:31Z</time></trkpt><trkpt lat="43.129976196002076" lon="11.577537998418075"><ele>257.5</ele><time>2026-05-02T12:07:32Z</time></trkpt><trkpt lat="43.12987021707417" lon="11.577428971850036"><ele>256.25</ele><time>2026-05-02T12:07:33Z</time></trkpt><trkpt lat="43.12978659980096" lon="11.57733019989246"><ele>255.0</ele><time>2026-05-02T12:07:34Z</time></trkpt><trkpt lat="43.12967271874298" lon="11.577284825242396"><ele>254.6</ele><time>2026-05-02T12:07:35Z</time></trkpt><trkpt lat="43.12953165883395" lon="11.577297785851846"><ele>254.2</ele><time>2026-05-02T12:07:36Z</time></trkpt><trkpt lat="43.129416125372536" lon="11.577266507016006"><ele>253.8</ele><time>2026-05-02T12:07:37Z</time></trkpt><trkpt lat="43.12931929100995" lon="11.577250481437693"><ele>253.4</ele><time>2026-05-02T12:07:38Z</time></trkpt><trkpt lat="43.129247691747224" lon="11.577205186300992"><ele>253.0</ele><time>2026-05-02T12:07:39Z</time></trkpt><trkpt lat="43.129180103539824" lon="11.577147808992454"><ele>253.0</ele><time>2026-05-02T12:07:40Z</time></trkpt><trkpt lat="43.12914312458934" lon="11.577043465379443"><ele>253.0</ele><time>2026-05-02T12:07:41Z</time></trkpt><trkpt lat="43.129122604408614" lon="11.576933807761307"><ele>253.0</ele><time>2026-05-02T12:07:42Z</time></trkpt><trkpt lat="43.129117349747425" lon="11.57684336586635"><ele>253.0</ele><time>2026-05-02T12:07:43Z</time></trkpt><trkpt lat="43.12910785896208" lon="11.576696100382277"><ele>253.0</ele><time>2026-05-02T12:07:44Z</time></trkpt><trkpt lat="43.129098627997166" lon="11.576499317650292"><ele>253.66666666666666</ele><time>2026-05-02T12:07:45Z</time></trkpt><trkpt lat="43.12910649100131" lon="11.576296113540469"><ele>254.33333333333331</ele><time>2026-05-02T12:07:46Z</time></trkpt><trkpt lat="43.129116128151495" lon="11.57607972816314"><ele>255.0</ele><time>2026-05-02T12:07:47Z</time></trkpt><trkpt lat="43.12914610630274" lon="11.57585397491627"><ele>255.75</ele><time>2026-05-02T12:07:48Z</time></trkpt><trkpt lat="43.129159565226516" lon="11.575638737668793"><ele>256.5</ele><time>2026-05-02T12:07:49Z</time></trkpt><trkpt lat="43.12915578924052" lon="11.575454524531093"><ele>257.25</ele><time>2026-05-02T12:07:50Z</time></trkpt><trkpt lat="43.12917897325882" lon="11.575302078628914"><ele>258.0</ele><time>2026-05-02T12:07:51Z</time></trkpt><trkpt lat="43.129194010389206" lon="11.57517254435853"><ele>258.3333333333333</ele><time>2026-05-02T12:07:52Z</time></trkpt><trkpt lat="43.129208278800405" lon="11.57507519754961"><ele>258.6666666666667</ele><time>2026-05-02T12:07:53.001Z</time></trkpt><trkpt lat="43.12921607944835" lon="11.574976325951557"><ele>259.0</ele><time>2026-05-02T12:07:54.001Z</time></trkpt><trkpt lat="43.129342431245426" lon="11.574932902207202"><ele>259.33333333333337</ele><time>2026-05-02T12:07:55.001Z</time></trkpt><trkpt lat="43.1294279058589" lon="11.57490462983595"><ele>259.6666666666667</ele><time>2026-05-02T12:07:56.001Z</time></trkpt><trkpt lat="43.129509248384416" lon="11.574874289877616"><ele>260.0</ele><time>2026-05-02T12:07:57.001Z</time></trkpt><trkpt lat="43.12958097178761" lon="11.57484357396351"><ele>260.0</ele><time>2026-05-02T12:07:58.001Z</time></trkpt><trkpt lat="43.12969371574042" lon="11.574840621809825"><ele>260.0</ele><time>2026-05-02T12:07:59.001Z</time></trkpt><trkpt lat="43.12984514874853" lon="11.574895728273189"><ele>260.0</ele><time>2026-05-02T12:08:00.001Z</time></trkpt><trkpt lat="43.130003667043475" lon="11.574936456334646"><ele>260.0</ele><time>2026-05-02T12:08:01.001Z</time></trkpt><trkpt lat="43.13017114924596" lon="11.57498202265923"><ele>260.0</ele><time>2026-05-02T12:08:02.001Z</time></trkpt><trkpt lat="43.1303383069009" lon="11.5750265356966"><ele>260.0</ele><time>2026-05-02T12:08:03.001Z</time></trkpt><trkpt lat="43.13051055614009" lon="11.575049346630907"><ele>260.0</ele><time>2026-05-02T12:08:04.001Z</time></trkpt><trkpt lat="43.13069192584879" lon="11.575101400385483"><ele>260.33333333333337</ele><time>2026-05-02T12:08:05.001Z</time></trkpt><trkpt lat="43.13088733994574" lon="11.575154988168197"><ele>260.6666666666667</ele><time>2026-05-02T12:08:06.001Z</time></trkpt><trkpt lat="43.13109156246813" lon="11.575206650844157"><ele>261.0</ele><time>2026-05-02T12:08:07.001Z</time></trkpt><trkpt lat="43.13129980227325" lon="11.575261945881875"><ele>261.0</ele><time>2026-05-02T12:08:08.001Z</time></trkpt><trkpt lat="43.13150987664131" lon="11.575317896118396"><ele>261.0</ele><time>2026-05-02T12:08:09.001Z</time></trkpt><trkpt lat="43.131732962586014" lon="11.575380843487872"><ele>261.0</ele><time>2026-05-02T12:08:10.001Z</time></trkpt><trkpt lat="43.13196045962904" lon="11.575440254852328"><ele>262.0</ele><time>2026-05-02T12:08:11.001Z</time></trkpt><trkpt lat="43.13219771316456" lon="11.575505021850173"><ele>263.0</ele><time>2026-05-02T12:08:12.001Z</time></trkpt><trkpt lat="43.13244641471658" lon="11.575577261355642"><ele>264.0</ele><time>2026-05-02T12:08:13.001Z</time></trkpt><trkpt lat="43.13269266362985" lon="11.575654941821057"><ele>265.0</ele><time>2026-05-02T12:08:14.001Z</time></trkpt><trkpt lat="43.13293738868359" lon="11.575739558912181"><ele>265.0</ele><time>2026-05-02T12:08:15.001Z</time></trkpt><trkpt lat="43.133177262519744" lon="11.575821230988868"><ele>265.0</ele><time>2026-05-02T12:08:16.001Z</time></trkpt><trkpt lat="43.13342148206535" lon="11.575901570521234"><ele>265.0</ele><time>2026-05-02T12:08:17.001Z</time></trkpt><trkpt lat="43.1336586436905" lon="11.575980889242876"><ele>265.0</ele><time>2026-05-02T12:08:18.001Z</time></trkpt><trkpt lat="43.13389299736825" lon="11.576056094285068"><ele>265.5</ele><time>2026-05-02T12:08:19.001Z</time></trkpt><trkpt lat="43.13412650677407" lon="11.576131907343717"><ele>266.0</ele><time>2026-05-02T12:08:20.001Z</time></trkpt><trkpt lat="43.134364523111984" lon="11.57620902523558"><ele>263.5</ele><time>2026-05-02T12:08:21.001Z</time></trkpt><trkpt lat="43.13459674768188" lon="11.57628740807121"><ele>261.0</ele><time>2026-05-02T12:08:22.001Z</time></trkpt><trkpt lat="43.134827933563535" lon="11.576378602634902"><ele>262.0</ele><time>2026-05-02T12:08:23.001Z</time></trkpt><trkpt lat="43.135058492450895" lon="11.576502627318192"><ele>263.0</ele><time>2026-05-02T12:08:24.001Z</time></trkpt><trkpt lat="43.135268634566565" lon="11.57671786962203"><ele>263.0</ele><time>2026-05-02T12:08:25.002Z</time></trkpt><trkpt lat="43.135492215284074" lon="11.576919477526742"><ele>263.0</ele><time>2026-05-02T12:08:26.002Z</time></trkpt><trkpt lat="43.13572104494811" lon="11.577125436728036"><ele>262.5</ele><time>2026-05-02T12:08:27.002Z</time></trkpt><trkpt lat="43.135948946229234" lon="11.577329670487561"><ele>262.0</ele><time>2026-05-02T12:08:28.002Z</time></trkpt><trkpt lat="43.136184443124684" lon="11.577518941964712"><ele>262.0</ele><time>2026-05-02T12:08:29.002Z</time></trkpt><trkpt lat="43.13639562610629" lon="11.577706143381514"><ele>262.0</ele><time>2026-05-02T12:08:30.002Z</time></trkpt><trkpt lat="43.136590306237" lon="11.57788227283541"><ele>262.66666666666663</ele><time>2026-05-02T12:08:31.002Z</time></trkpt><trkpt lat="43.13677196889111" lon="11.578048441555374"><ele>263.3333333333333</ele><time>2026-05-02T12:08:32.002Z</time></trkpt><trkpt lat="43.13694175529617" lon="11.578201718475169"><ele>264.0</ele><time>2026-05-02T12:08:33.002Z</time></trkpt><trkpt lat="43.137088816395725" lon="11.578333038781073"><ele>264.0</ele><time>2026-05-02T12:08:34.002Z</time></trkpt><trkpt lat="43.1372157759232" lon="11.578443841019975"><ele>264.0</ele><time>2026-05-02T12:08:35.002Z</time></trkpt><trkpt lat="43.13731723696455" lon="11.57855911448181"><ele>264.0</ele><time>2026-05-02T12:08:36.002Z</time></trkpt><trkpt lat="43.137417892856405" lon="11.578624204791824"><ele>264.0</ele><time>2026-05-02T12:08:37.002Z</time></trkpt><trkpt lat="43.137482593113546" lon="11.578708268666492"><ele>264.25</ele><time>2026-05-02T12:08:38.002Z</time></trkpt><trkpt lat="43.137561112652506" lon="11.578779094688798"><ele>264.5</ele><time>2026-05-02T12:08:40.002Z</time></trkpt><trkpt lat="43.13771007123573" lon="11.578565587076621"><ele>264.75</ele><time>2026-05-02T12:08:42.002Z</time></trkpt><trkpt lat="43.13778586809865" lon="11.578463106317006"><ele>265.0</ele><time>2026-05-02T12:08:43.002Z</time></trkpt><trkpt lat="43.137847158817905" lon="11.578354402415448"><ele>265.2</ele><time>2026-05-02T12:08:44.002Z</time></trkpt><trkpt lat="43.13791045017881" lon="11.578246140523069"><ele>265.4</ele><time>2026-05-02T12:08:45.002Z</time></trkpt><trkpt lat="43.137972935094915" lon="11.578138896639828"><ele>265.6</ele><time>2026-05-02T12:08:46.002Z</time></trkpt><trkpt lat="43.13804230622961" lon="11.578020837158483"><ele>265.8</ele><time>2026-05-02T12:08:47.002Z</time></trkpt><trkpt lat="43.13811261453236" lon="11.577901182828489"><ele>266.0</ele><time>2026-05-02T12:08:48.002Z</time></trkpt><trkpt lat="43.13818524656716" lon="11.577778419014995"><ele>268.25</ele><time>2026-05-02T12:08:49.002Z</time></trkpt><trkpt lat="43.13825581208219" lon="11.57765947650038"><ele>270.5</ele><time>2026-05-02T12:08:50.002Z</time></trkpt><trkpt lat="43.13833050633121" lon="11.577534481243136"><ele>272.75</ele><time>2026-05-02T12:08:51.002Z</time></trkpt><trkpt lat="43.138415725782714" lon="11.577398334272955"><ele>275.0</ele><time>2026-05-02T12:08:52.002Z</time></trkpt><trkpt lat="43.13850572183667" lon="11.577250839662566"><ele>275.0</ele><time>2026-05-02T12:08:53.002Z</time></trkpt><trkpt lat="43.13860354705916" lon="11.577083940384249"><ele>275.0</ele><time>2026-05-02T12:08:54.002Z</time></trkpt><trkpt lat="43.13867402606432" lon="11.576921025557173"><ele>275.0</ele><time>2026-05-02T12:08:55.002Z</time></trkpt><trkpt lat="43.13872947148519" lon="11.576783294620476"><ele>275.0</ele><time>2026-05-02T12:08:56.002Z</time></trkpt><trkpt lat="43.13876541618963" lon="11.5766156514171"><ele>276.0</ele><time>2026-05-02T12:08:57.002Z</time></trkpt><trkpt lat="43.13878411682106" lon="11.576407451094564"><ele>277.0</ele><time>2026-05-02T12:08:58.003Z</time></trkpt><trkpt lat="43.13878557879468" lon="11.576186705331892"><ele>278.0</ele><time>2026-05-02T12:08:59.003Z</time></trkpt><trkpt lat="43.13877729812588" lon="11.575981684763502"><ele>279.4</ele><time>2026-05-02T12:09:00.003Z</time></trkpt><trkpt lat="43.13878378622118" lon="11.575805570142387"><ele>280.8</ele><time>2026-05-02T12:09:01.003Z</time></trkpt><trkpt lat="43.13876205799056" lon="11.575659088034836"><ele>282.2</ele><time>2026-05-02T12:09:02.003Z</time></trkpt><trkpt lat="43.13874071090299" lon="11.575529504204418"><ele>283.6</ele><time>2026-05-02T12:09:03.003Z</time></trkpt><trkpt lat="43.138694571009886" lon="11.575407332265732"><ele>285.0</ele><time>2026-05-02T12:09:04.003Z</time></trkpt><trkpt lat="43.138627279359746" lon="11.575289879692468"><ele>288.25</ele><time>2026-05-02T12:09:05.003Z</time></trkpt><trkpt lat="43.13852753386141" lon="11.575166036362859"><ele>291.5</ele><time>2026-05-02T12:09:06.003Z</time></trkpt><trkpt lat="43.138405882687785" lon="11.575036128786456"><ele>294.75</ele><time>2026-05-02T12:09:07.003Z</time></trkpt><trkpt lat="43.13828355729543" lon="11.574907897669483"><ele>298.0</ele><time>2026-05-02T12:09:08.003Z</time></trkpt><trkpt lat="43.13818842633866" lon="11.574771612124549"><ele>298.6</ele><time>2026-05-02T12:09:09.003Z</time></trkpt><trkpt lat="43.13810991742803" lon="11.57466701908133"><ele>299.20000000000005</ele><time>2026-05-02T12:09:10.003Z</time></trkpt><trkpt lat="43.13805066215062" lon="11.574558700040129"><ele>299.8</ele><time>2026-05-02T12:09:11.003Z</time></trkpt><trkpt lat="43.138015662838455" lon="11.574422549910768"><ele>300.40000000000003</ele><time>2026-05-02T12:09:12.003Z</time></trkpt><trkpt lat="43.13792686616931" lon="11.57429659807535"><ele>301.0</ele><time>2026-05-02T12:09:13.003Z</time></trkpt><trkpt lat="43.137970392496754" lon="11.574102443317852"><ele>301.0</ele><time>2026-05-02T12:09:14.003Z</time></trkpt><trkpt lat="43.137972730369405" lon="11.573909983728669"><ele>301.0</ele><time>2026-05-02T12:09:15.003Z</time></trkpt><trkpt lat="43.137970107862394" lon="11.573739764008518"><ele>301.0</ele><time>2026-05-02T12:09:16.003Z</time></trkpt><trkpt lat="43.13796671687042" lon="11.573560850201195"><ele>301.0</ele><time>2026-05-02T12:09:17.003Z</time></trkpt><trkpt lat="43.13795971566958" lon="11.573344455141601"><ele>300.0</ele><time>2026-05-02T12:09:18.003Z</time></trkpt><trkpt lat="43.13796836427724" lon="11.573117610774814"><ele>299.0</ele><time>2026-05-02T12:09:19.003Z</time></trkpt><trkpt lat="43.13796158046713" lon="11.572907485365969"><ele>298.0</ele><time>2026-05-02T12:09:20.003Z</time></trkpt><trkpt lat="43.13795574943353" lon="11.572714347218"><ele>297.2</ele><time>2026-05-02T12:09:20.999Z</time></trkpt><trkpt lat="43.137950308801024" lon="11.572539173271386"><ele>296.4</ele><time>2026-05-02T12:09:21.999Z</time></trkpt><trkpt lat="43.137933915443135" lon="11.572383309031082"><ele>295.59999999999997</ele><time>2026-05-02T12:09:22.999Z</time></trkpt><trkpt lat="43.13796079126568" lon="11.572247568716822"><ele>294.8</ele><time>2026-05-02T12:09:23.999Z</time></trkpt><trkpt lat="43.137987497165106" lon="11.572128472539822"><ele>294.0</ele><time>2026-05-02T12:09:24.999Z</time></trkpt><trkpt lat="43.1380448050418" lon="11.572025185018529"><ele>292.0</ele><time>2026-05-02T12:09:25.999Z</time></trkpt><trkpt lat="43.13811495085782" lon="11.571929506981975"><ele>290.0</ele><time>2026-05-02T12:09:26.999Z</time></trkpt><trkpt lat="43.138250614727035" lon="11.571886283157356"><ele>288.0</ele><time>2026-05-02T12:09:27.999Z</time></trkpt><trkpt lat="43.138374196421815" lon="11.57182162836047"><ele>286.0</ele><time>2026-05-02T12:09:28.999Z</time></trkpt><trkpt lat="43.13847850043651" lon="11.571746563307645"><ele>290.0</ele><time>2026-05-02T12:09:29.999Z</time></trkpt><trkpt lat="43.13857363811716" lon="11.571658261810043"><ele>294.0</ele><time>2026-05-02T12:09:30.999Z</time></trkpt><trkpt lat="43.138663749822534" lon="11.571546317642454"><ele>298.0</ele><time>2026-05-02T12:09:31.999Z</time></trkpt><trkpt lat="43.1386991309455" lon="11.571375832238708"><ele>302.0</ele><time>2026-05-02T12:09:32.999Z</time></trkpt><trkpt lat="43.13871992099919" lon="11.571217364492801"><ele>301.5</ele><time>2026-05-02T12:09:33.999Z</time></trkpt><trkpt lat="43.13873216499377" lon="11.571051521549938"><ele>301.0</ele><time>2026-05-02T12:09:35Z</time></trkpt><trkpt lat="43.13866552313278" lon="11.570884287431971"><ele>300.5</ele><time>2026-05-02T12:09:36Z</time></trkpt><trkpt lat="43.13859639233882" lon="11.570735327231391"><ele>300.0</ele><time>2026-05-02T12:09:37Z</time></trkpt><trkpt lat="43.138516463121974" lon="11.570611996551166"><ele>300.0</ele><time>2026-05-02T12:09:38Z</time></trkpt><trkpt lat="43.13848035173387" lon="11.570493707057585"><ele>300.0</ele><time>2026-05-02T12:09:39Z</time></trkpt><trkpt lat="43.13845488173353" lon="11.570375578511895"><ele>300.0</ele><time>2026-05-02T12:09:40Z</time></trkpt><trkpt lat="43.13845746294948" lon="11.57022893620239"><ele>300.0</ele><time>2026-05-02T12:09:41Z</time></trkpt><trkpt lat="43.138494495417255" lon="11.570069455503813"><ele>300.0</ele><time>2026-05-02T12:09:42Z</time></trkpt><trkpt lat="43.1385296345829" lon="11.569860792988873"><ele>301.6666666666667</ele><time>2026-05-02T12:09:43Z</time></trkpt><trkpt lat="43.138538242092196" lon="11.569652487123625"><ele>303.33333333333337</ele><time>2026-05-02T12:09:44Z</time></trkpt><trkpt lat="43.13853624119293" lon="11.569434744560446"><ele>305.0</ele><time>2026-05-02T12:09:45Z</time></trkpt><trkpt lat="43.13851849977449" lon="11.569239952765132"><ele>305.25</ele><time>2026-05-02T12:09:46Z</time></trkpt><trkpt lat="43.13851323003915" lon="11.569044452641522"><ele>305.5</ele><time>2026-05-02T12:09:47Z</time></trkpt><trkpt lat="43.138477596841035" lon="11.56887700433848"><ele>305.75</ele><time>2026-05-02T12:09:48Z</time></trkpt><trkpt lat="43.13841993575186" lon="11.56872780459465"><ele>306.0</ele><time>2026-05-02T12:09:49Z</time></trkpt><trkpt lat="43.138323410458135" lon="11.568591979296114"><ele>306.25</ele><time>2026-05-02T12:09:50Z</time></trkpt><trkpt lat="43.138237715545785" lon="11.568422560862276"><ele>306.5</ele><time>2026-05-02T12:09:51Z</time></trkpt><trkpt lat="43.13815841678366" lon="11.568294435759553"><ele>306.75</ele><time>2026-05-02T12:09:52Z</time></trkpt><trkpt lat="43.13808532847033" lon="11.56817634504255"><ele>307.0</ele><time>2026-05-02T12:09:53Z</time></trkpt><trkpt lat="43.13798157620421" lon="11.568107736913149"><ele>303.4</ele><time>2026-05-02T12:09:54Z</time></trkpt><trkpt lat="43.13791895848865" lon="11.567996208080679"><ele>299.79999999999995</ele><time>2026-05-02T12:09:55.001Z</time></trkpt><trkpt lat="43.137878867295086" lon="11.567862670295975"><ele>296.2</ele><time>2026-05-02T12:09:56.001Z</time></trkpt><trkpt lat="43.13786561862513" lon="11.56771226629821"><ele>292.59999999999997</ele><time>2026-05-02T12:09:57.001Z</time></trkpt><trkpt lat="43.137871865777726" lon="11.567540983315126"><ele>289.0</ele><time>2026-05-02T12:09:58.001Z</time></trkpt><trkpt lat="43.13789786653893" lon="11.567366075666428"><ele>289.0</ele><time>2026-05-02T12:09:59.001Z</time></trkpt><trkpt lat="43.137933618962556" lon="11.567219389480853"><ele>289.0</ele><time>2026-05-02T12:10:00.001Z</time></trkpt><trkpt lat="43.13795131206236" lon="11.567041823841716"><ele>289.0</ele><time>2026-05-02T12:10:01.001Z</time></trkpt><trkpt lat="43.13794456743838" lon="11.566861366111468"><ele>289.0</ele><time>2026-05-02T12:10:02.001Z</time></trkpt><trkpt lat="43.13792720778306" lon="11.56669116148212"><ele>288.75</ele><time>2026-05-02T12:10:03.001Z</time></trkpt><trkpt lat="43.13792209173795" lon="11.566513476351773"><ele>288.5</ele><time>2026-05-02T12:10:04.001Z</time></trkpt><trkpt lat="43.13789676627065" lon="11.566341482040759"><ele>288.25</ele><time>2026-05-02T12:10:05.001Z</time></trkpt><trkpt lat="43.13788862874105" lon="11.566153990770413"><ele>288.0</ele><time>2026-05-02T12:10:06.001Z</time></trkpt><trkpt lat="43.137873089636756" lon="11.565976151001898"><ele>288.0</ele><time>2026-05-02T12:10:07.001Z</time></trkpt><trkpt lat="43.13786212939059" lon="11.56581193276824"><ele>288.0</ele><time>2026-05-02T12:10:08.001Z</time></trkpt><trkpt lat="43.137867132747736" lon="11.565640438110504"><ele>288.0</ele><time>2026-05-02T12:10:09.001Z</time></trkpt><trkpt lat="43.13785370819276" lon="11.565473777134049"><ele>288.0</ele><time>2026-05-02T12:10:10.001Z</time></trkpt><trkpt lat="43.13785021167867" lon="11.565325236042916"><ele>288.0</ele><time>2026-05-02T12:10:11.001Z</time></trkpt><trkpt lat="43.137829651185456" lon="11.5651906664459"><ele>288.0</ele><time>2026-05-02T12:10:12.001Z</time></trkpt><trkpt lat="43.137791029984044" lon="11.565058403487289"><ele>288.0</ele><time>2026-05-02T12:10:13.001Z</time></trkpt><trkpt lat="43.137725317473" lon="11.564922107335294"><ele>288.0</ele><time>2026-05-02T12:10:14.001Z</time></trkpt><trkpt lat="43.13765577193606" lon="11.564793131037952"><ele>288.0</ele><time>2026-05-02T12:10:15.001Z</time></trkpt><trkpt lat="43.13760187933701" lon="11.564684339234853"><ele>288.0</ele><time>2026-05-02T12:10:16.001Z</time></trkpt><trkpt lat="43.137558694540594" lon="11.564590276304877"><ele>288.0</ele><time>2026-05-02T12:10:17.001Z</time></trkpt><trkpt lat="43.137506086491115" lon="11.564498259793838"><ele>288.0</ele><time>2026-05-02T12:10:18.001Z</time></trkpt><trkpt lat="43.13746439452381" lon="11.564413738985394"><ele>288.0</ele><time>2026-05-02T12:10:19.001Z</time></trkpt><trkpt lat="43.137415218086744" lon="11.564344979563808"><ele>288.0</ele><time>2026-05-02T12:10:20.001Z</time></trkpt><trkpt lat="43.13734382485598" lon="11.564307823959517"><ele>288.0</ele><time>2026-05-02T12:10:21.001Z</time></trkpt><trkpt lat="43.13725397221951" lon="11.564308199531954"><ele>284.2</ele><time>2026-05-02T12:10:22.001Z</time></trkpt><trkpt lat="43.13714883136922" lon="11.564354072629543"><ele>280.4</ele><time>2026-05-02T12:10:23.001Z</time></trkpt><trkpt lat="43.13706726113315" lon="11.564429605837393"><ele>276.59999999999997</ele><time>2026-05-02T12:10:24.001Z</time></trkpt><trkpt lat="43.137008051748424" lon="11.564520596199385"><ele>272.8</ele><time>2026-05-02T12:10:25.002Z</time></trkpt><trkpt lat="43.13696291882134" lon="11.564622514387363"><ele>269.0</ele><time>2026-05-02T12:10:26.002Z</time></trkpt><trkpt lat="43.13694329931719" lon="11.564739062080633"><ele>269.0</ele><time>2026-05-02T12:10:27.002Z</time></trkpt><trkpt lat="43.13694918450178" lon="11.564870045565629"><ele>269.0</ele><time>2026-05-02T12:10:28.002Z</time></trkpt><trkpt lat="43.136977525418935" lon="11.564989643436267"><ele>269.0</ele><time>2026-05-02T12:10:29.002Z</time></trkpt><trkpt lat="43.13703080561269" lon="11.56511590075224"><ele>269.0</ele><time>2026-05-02T12:10:30.002Z</time></trkpt><trkpt lat="43.13710046063473" lon="11.565239715077736"><ele>269.0</ele><time>2026-05-02T12:10:31.002Z</time></trkpt><trkpt lat="43.13714768689007" lon="11.565359102808486"><ele>268.6666666666667</ele><time>2026-05-02T12:10:32.002Z</time></trkpt><trkpt lat="43.137190641705125" lon="11.565446459948667"><ele>268.33333333333337</ele><time>2026-05-02T12:10:33.002Z</time></trkpt><trkpt lat="43.13722132248471" lon="11.565533560437581"><ele>268.0</ele><time>2026-05-02T12:10:34.002Z</time></trkpt><trkpt lat="43.13723462431508" lon="11.565619724988498"><ele>267.6666666666667</ele><time>2026-05-02T12:10:35.002Z</time></trkpt><trkpt lat="43.13725354737632" lon="11.565724684346307"><ele>267.3333333333333</ele><time>2026-05-02T12:10:36.002Z</time></trkpt><trkpt lat="43.13723253950085" lon="11.565854496687466"><ele>267.0</ele><time>2026-05-02T12:10:37.002Z</time></trkpt><trkpt lat="43.13720353956004" lon="11.565973090322567"><ele>267.0</ele><time>2026-05-02T12:10:38.002Z</time></trkpt><trkpt lat="43.137160463029666" lon="11.566064323223673"><ele>267.0</ele><time>2026-05-02T12:10:39.002Z</time></trkpt><trkpt lat="43.13711447109923" lon="11.566144927687892"><ele>267.0</ele><time>2026-05-02T12:10:40.002Z</time></trkpt><trkpt lat="43.13705948534219" lon="11.566217636407561"><ele>267.0</ele><time>2026-05-02T12:10:41.002Z</time></trkpt><trkpt lat="43.136996391323244" lon="11.566273341071561"><ele>267.0</ele><time>2026-05-02T12:10:42.002Z</time></trkpt><trkpt lat="43.13692756913388" lon="11.566323426768546"><ele>267.0</ele><time>2026-05-02T12:10:43.002Z</time></trkpt><trkpt lat="43.13685106356918" lon="11.56636402170615"><ele>267.8</ele><time>2026-05-02T12:10:44.002Z</time></trkpt><trkpt lat="43.13675534972084" lon="11.566400725714523"><ele>268.6</ele><time>2026-05-02T12:10:45.002Z</time></trkpt><trkpt lat="43.13666612044541" lon="11.566428131860938"><ele>269.40000000000003</ele><time>2026-05-02T12:10:46.002Z</time></trkpt><trkpt lat="43.13657803129275" lon="11.566456643809845"><ele>270.2</ele><time>2026-05-02T12:10:47.002Z</time></trkpt><trkpt lat="43.13649425523074" lon="11.56649843413792"><ele>271.0</ele><time>2026-05-02T12:10:48.002Z</time></trkpt><trkpt lat="43.13641539169818" lon="11.566534470013096"><ele>267.16666666666663</ele><time>2026-05-02T12:10:49.002Z</time></trkpt><trkpt lat="43.13635537867625" lon="11.566565786332804"><ele>263.3333333333333</ele><time>2026-05-02T12:10:50.002Z</time></trkpt><trkpt lat="43.1362696900259" lon="11.566564803502343"><ele>259.5</ele><time>2026-05-02T12:10:52.002Z</time></trkpt><trkpt lat="43.13617414211341" lon="11.566572474565515"><ele>255.66666666666669</ele><time>2026-05-02T12:10:54.002Z</time></trkpt><trkpt lat="43.13610030524144" lon="11.566455634564653"><ele>251.83333333333334</ele><time>2026-05-02T12:10:56.002Z</time></trkpt><trkpt lat="43.136094988901704" lon="11.566363906192981"><ele>248.0</ele><time>2026-05-02T12:10:57.002Z</time></trkpt><trkpt lat="43.13612015225453" lon="11.566264598225198"><ele>248.0</ele><time>2026-05-02T12:10:58.003Z</time></trkpt><trkpt lat="43.13617342084977" lon="11.566192226959092"><ele>248.00000000000003</ele><time>2026-05-02T12:10:59.003Z</time></trkpt><trkpt lat="43.13621068328604" lon="11.566101216996369"><ele>248.0</ele><time>2026-05-02T12:11:00.003Z</time></trkpt><trkpt lat="43.1362630955454" lon="11.566034259943937"><ele>248.0</ele><time>2026-05-02T12:11:01.003Z</time></trkpt><trkpt lat="43.136314460058614" lon="11.56596946272219"><ele>248.00000000000003</ele><time>2026-05-02T12:11:02.003Z</time></trkpt><trkpt lat="43.13635769172989" lon="11.565891560568591"><ele>248.0</ele><time>2026-05-02T12:11:03.003Z</time></trkpt><trkpt lat="43.136388639172274" lon="11.565796470456933"><ele>248.0</ele><time>2026-05-02T12:11:04.003Z</time></trkpt><trkpt lat="43.13640048262382" lon="11.565688953011163"><ele>248.00000000000003</ele><time>2026-05-02T12:11:05.003Z</time></trkpt><trkpt lat="43.136386700519026" lon="11.56558867813661"><ele>248.0</ele><time>2026-05-02T12:11:06.003Z</time></trkpt><trkpt lat="43.13635552472549" lon="11.565487945489368"><ele>248.0</ele><time>2026-05-02T12:11:07.003Z</time></trkpt><trkpt lat="43.13630254611335" lon="11.565401811040795"><ele>248.0</ele><time>2026-05-02T12:11:08.003Z</time></trkpt><trkpt lat="43.13624071632293" lon="11.565325456119732"><ele>248.00000000000003</ele><time>2026-05-02T12:11:09.003Z</time></trkpt><trkpt lat="43.13617736883899" lon="11.565259070664764"><ele>248.0</ele><time>2026-05-02T12:11:10.003Z</time></trkpt><trkpt lat="43.13612595013731" lon="11.565194763365053"><ele>247.50000000000003</ele><time>2026-05-02T12:11:11.003Z</time></trkpt><trkpt lat="43.13607918262345" lon="11.565120904190334"><ele>247.0</ele><time>2026-05-02T12:11:12.003Z</time></trkpt><trkpt lat="43.136050609092806" lon="11.56503453407881"><ele>246.5</ele><time>2026-05-02T12:11:13.003Z</time></trkpt><trkpt lat="43.13603334195143" lon="11.564924433757804"><ele>246.0</ele><time>2026-05-02T12:11:14.003Z</time></trkpt><trkpt lat="43.13603842884651" lon="11.564799500806668"><ele>245.50000000000003</ele><time>2026-05-02T12:11:15.003Z</time></trkpt><trkpt lat="43.13605604804456" lon="11.564680530466903"><ele>245.0</ele><time>2026-05-02T12:11:16.003Z</time></trkpt><trkpt lat="43.13608976034126" lon="11.564570168259486"><ele>244.0</ele><time>2026-05-02T12:11:17.003Z</time></trkpt><trkpt lat="43.13613552495406" lon="11.564455905694263"><ele>243.0</ele><time>2026-05-02T12:11:18.003Z</time></trkpt><trkpt lat="43.136189298369125" lon="11.564345524119261"><ele>242.0</ele><time>2026-05-02T12:11:19.003Z</time></trkpt><trkpt lat="43.13624538054599" lon="11.56424585128097"><ele>241.0</ele><time>2026-05-02T12:11:20.003Z</time></trkpt><trkpt lat="43.13629602634057" lon="11.564149440135306"><ele>240.0</ele><time>2026-05-02T12:11:21.003Z</time></trkpt><trkpt lat="43.13633325987348" lon="11.564047435022069"><ele>240.0</ele><time>2026-05-02T12:11:22.003Z</time></trkpt><trkpt lat="43.136358861565235" lon="11.563931128338247"><ele>240.0</ele><time>2026-05-02T12:11:23.003Z</time></trkpt><trkpt lat="43.13637346189519" lon="11.56381618630097"><ele>240.0</ele><time>2026-05-02T12:11:24.003Z</time></trkpt><trkpt lat="43.136373711875414" lon="11.563692688834015"><ele>240.0</ele><time>2026-05-02T12:11:25.003Z</time></trkpt><trkpt lat="43.13635871318542" lon="11.563563016024853"><ele>240.0</ele><time>2026-05-02T12:11:26.003Z</time></trkpt><trkpt lat="43.136335479826" lon="11.563439686016675"><ele>240.25</ele><time>2026-05-02T12:11:27Z</time></trkpt><trkpt lat="43.13628650644601" lon="11.563319857784316"><ele>240.5</ele><time>2026-05-02T12:11:28Z</time></trkpt><trkpt lat="43.13621353194485" lon="11.563174005383216"><ele>240.75</ele><time>2026-05-02T12:11:29Z</time></trkpt><trkpt lat="43.13610603907062" lon="11.563032525385593"><ele>241.0</ele><time>2026-05-02T12:11:30Z</time></trkpt><trkpt lat="43.13597519957204" lon="11.562886968772947"><ele>243.66666666666666</ele><time>2026-05-02T12:11:31Z</time></trkpt><trkpt lat="43.13583114596872" lon="11.562745710988269"><ele>246.33333333333331</ele><time>2026-05-02T12:11:32Z</time></trkpt><trkpt lat="43.135718249139515" lon="11.562597156272897"><ele>249.0</ele><time>2026-05-02T12:11:33Z</time></trkpt><trkpt lat="43.13561989359921" lon="11.562471535003136"><ele>243.66666666666669</ele><time>2026-05-02T12:11:34Z</time></trkpt><trkpt lat="43.13552248285346" lon="11.562318608292077"><ele>238.33333333333334</ele><time>2026-05-02T12:11:35Z</time></trkpt><trkpt lat="43.13541750579965" lon="11.562158930349476"><ele>233.0</ele><time>2026-05-02T12:11:36Z</time></trkpt><trkpt lat="43.135313347117844" lon="11.561980169593099"><ele>233.0</ele><time>2026-05-02T12:11:37Z</time></trkpt><trkpt lat="43.13520715821084" lon="11.561790072109154"><ele>233.0</ele><time>2026-05-02T12:11:38Z</time></trkpt><trkpt lat="43.135089377976655" lon="11.561597343610629"><ele>233.0</ele><time>2026-05-02T12:11:39Z</time></trkpt><trkpt lat="43.134967390028834" lon="11.561356944897467"><ele>226.0</ele><time>2026-05-02T12:11:40Z</time></trkpt><trkpt lat="43.1348579426805" lon="11.561139500663138"><ele>219.0</ele><time>2026-05-02T12:11:41Z</time></trkpt><trkpt lat="43.13476170909856" lon="11.56093350205033"><ele>212.0</ele><time>2026-05-02T12:11:42Z</time></trkpt><trkpt lat="43.13465803737868" lon="11.5607540625234"><ele>212.0</ele><time>2026-05-02T12:11:43Z</time></trkpt><trkpt lat="43.13455703749587" lon="11.560567896308736"><ele>212.0</ele><time>2026-05-02T12:11:44Z</time></trkpt><trkpt lat="43.13446114386905" lon="11.560386128032167"><ele>212.0</ele><time>2026-05-02T12:11:45Z</time></trkpt><trkpt lat="43.13436817911182" lon="11.560212285785962"><ele>213.0</ele><time>2026-05-02T12:11:46Z</time></trkpt><trkpt lat="43.13427716874202" lon="11.56004727696266"><ele>214.0</ele><time>2026-05-02T12:11:47Z</time></trkpt><trkpt lat="43.13418756069714" lon="11.55988651517774"><ele>215.0</ele><time>2026-05-02T12:11:48Z</time></trkpt><trkpt lat="43.1341090408858" lon="11.559732663057622"><ele>216.0</ele><time>2026-05-02T12:11:49Z</time></trkpt><trkpt lat="43.13404402292959" lon="11.559569962416044"><ele>212.0</ele><time>2026-05-02T12:11:50Z</time></trkpt><trkpt lat="43.13399942193836" lon="11.559402992916677"><ele>208.0</ele><time>2026-05-02T12:11:51Z</time></trkpt><trkpt lat="43.13400018549792" lon="11.559225240735756"><ele>204.0</ele><time>2026-05-02T12:11:52Z</time></trkpt><trkpt lat="43.13400417623157" lon="11.55903525337784"><ele>200.0</ele><time>2026-05-02T12:11:53Z</time></trkpt><trkpt lat="43.134010527442015" lon="11.558807283778256"><ele>200.0</ele><time>2026-05-02T12:11:54Z</time></trkpt><trkpt lat="43.13401854859454" lon="11.558572284527811"><ele>200.0</ele><time>2026-05-02T12:11:55Z</time></trkpt><trkpt lat="43.134023427495265" lon="11.558347493250924"><ele>200.0</ele><time>2026-05-02T12:11:56Z</time></trkpt><trkpt lat="43.13400666675256" lon="11.558127539994027"><ele>200.0</ele><time>2026-05-02T12:11:57Z</time></trkpt><trkpt lat="43.13400010488275" lon="11.55790165314835"><ele>200.0</ele><time>2026-05-02T12:11:58Z</time></trkpt><trkpt lat="43.13398901228518" lon="11.557656182044177"><ele>200.0</ele><time>2026-05-02T12:11:59.001Z</time></trkpt><trkpt lat="43.133959983941764" lon="11.55742690478529"><ele>200.0</ele><time>2026-05-02T12:12:00.001Z</time></trkpt><trkpt lat="43.1339238663579" lon="11.557178968685426"><ele>200.0</ele><time>2026-05-02T12:12:01.001Z</time></trkpt><trkpt lat="43.13388808607526" lon="11.556939992051092"><ele>200.0</ele><time>2026-05-02T12:12:02.001Z</time></trkpt><trkpt lat="43.13385802781244" lon="11.556720919217279"><ele>201.25</ele><time>2026-05-02T12:12:03.001Z</time></trkpt><trkpt lat="43.133827893590194" lon="11.556533125313255"><ele>202.5</ele><time>2026-05-02T12:12:04.001Z</time></trkpt><trkpt lat="43.13379436520618" lon="11.556374968021204"><ele>203.75</ele><time>2026-05-02T12:12:05.001Z</time></trkpt><trkpt lat="43.1337588128572" lon="11.556237785250849"><ele>205.0</ele><time>2026-05-02T12:12:06.001Z</time></trkpt><trkpt lat="43.13370097565224" lon="11.556122781882282"><ele>207.0</ele><time>2026-05-02T12:12:07.001Z</time></trkpt><trkpt lat="43.13365216577124" lon="11.55601071181527"><ele>209.0</ele><time>2026-05-02T12:12:08.001Z</time></trkpt><trkpt lat="43.133560319126616" lon="11.555934078017874"><ele>211.0</ele><time>2026-05-02T12:12:09.001Z</time></trkpt><trkpt lat="43.133478227468714" lon="11.555846943114208"><ele>213.0</ele><time>2026-05-02T12:12:10.001Z</time></trkpt><trkpt lat="43.13336915321564" lon="11.555829648378829"><ele>215.0</ele><time>2026-05-02T12:12:11.001Z</time></trkpt><trkpt lat="43.13326995428974" lon="11.555836195584616"><ele>219.0</ele><time>2026-05-02T12:12:12.001Z</time></trkpt><trkpt lat="43.13317496872182" lon="11.555873805146438"><ele>223.0</ele><time>2026-05-02T12:12:13.001Z</time></trkpt><trkpt lat="43.1330726403186" lon="11.5559082085462"><ele>227.0</ele><time>2026-05-02T12:12:14.001Z</time></trkpt><trkpt lat="43.13299204259219" lon="11.556005877764061"><ele>231.0</ele><time>2026-05-02T12:12:15.001Z</time></trkpt><trkpt lat="43.13291092182239" lon="11.55609192371238"><ele>235.0</ele><time>2026-05-02T12:12:16.001Z</time></trkpt><trkpt lat="43.13283534096144" lon="11.55619483841651"><ele>230.75</ele><time>2026-05-02T12:12:17.001Z</time></trkpt><trkpt lat="43.13275159178699" lon="11.556304010925238"><ele>226.5</ele><time>2026-05-02T12:12:18.001Z</time></trkpt><trkpt lat="43.132670140559966" lon="11.556426721384357"><ele>222.25</ele><time>2026-05-02T12:12:19.001Z</time></trkpt><trkpt lat="43.13258946477048" lon="11.556548536592674"><ele>218.0</ele><time>2026-05-02T12:12:20.001Z</time></trkpt><trkpt lat="43.13250597734955" lon="11.556658549183265"><ele>218.0</ele><time>2026-05-02T12:12:21.001Z</time></trkpt><trkpt lat="43.13242669785519" lon="11.556769042957031"><ele>218.0</ele><time>2026-05-02T12:12:22.001Z</time></trkpt><trkpt lat="43.13234322260651" lon="11.556870372612353"><ele>218.0</ele><time>2026-05-02T12:12:23.001Z</time></trkpt><trkpt lat="43.132259921194226" lon="11.556958533447178"><ele>218.0</ele><time>2026-05-02T12:12:24.001Z</time></trkpt><trkpt lat="43.13217275726415" lon="11.557021958270587"><ele>218.0</ele><time>2026-05-02T12:12:25.001Z</time></trkpt><trkpt lat="43.13207933888711" lon="11.557072487863445"><ele>217.0</ele><time>2026-05-02T12:12:26.001Z</time></trkpt><trkpt lat="43.13198065930503" lon="11.557145206087025"><ele>216.0</ele><time>2026-05-02T12:12:27.001Z</time></trkpt><trkpt lat="43.13188181818265" lon="11.557190129662184"><ele>215.0</ele><time>2026-05-02T12:12:28.001Z</time></trkpt><trkpt lat="43.13177434667158" lon="11.557241215294887"><ele>214.0</ele><time>2026-05-02T12:12:29.001Z</time></trkpt><trkpt lat="43.131650061684915" lon="11.55729380201643"><ele>213.6</ele><time>2026-05-02T12:12:30.002Z</time></trkpt><trkpt lat="43.13153674487081" lon="11.557340909830351"><ele>213.2</ele><time>2026-05-02T12:12:31.002Z</time></trkpt><trkpt lat="43.13144148193395" lon="11.557374027907269"><ele>212.79999999999998</ele><time>2026-05-02T12:12:32.002Z</time></trkpt><trkpt lat="43.131360299661395" lon="11.557383238648985"><ele>212.39999999999998</ele><time>2026-05-02T12:12:33.002Z</time></trkpt><trkpt lat="43.13127708577053" lon="11.55735213811492"><ele>212.0</ele><time>2026-05-02T12:12:34.002Z</time></trkpt><trkpt lat="43.13119137630836" lon="11.557298347282254"><ele>212.00000000000003</ele><time>2026-05-02T12:12:35.002Z</time></trkpt><trkpt lat="43.13112243051183" lon="11.557201366481545"><ele>212.0</ele><time>2026-05-02T12:12:36.002Z</time></trkpt><trkpt lat="43.13107013933885" lon="11.55709540054933"><ele>212.0</ele><time>2026-05-02T12:12:37.002Z</time></trkpt><trkpt lat="43.131046103360056" lon="11.556983236385179"><ele>212.0</ele><time>2026-05-02T12:12:38.002Z</time></trkpt><trkpt lat="43.13104286939797" lon="11.55687396619929"><ele>212.00000000000003</ele><time>2026-05-02T12:12:39.002Z</time></trkpt><trkpt lat="43.131060280412065" lon="11.556763615202714"><ele>212.0</ele><time>2026-05-02T12:12:40.002Z</time></trkpt><trkpt lat="43.131103914043635" lon="11.556643988202874"><ele>216.5</ele><time>2026-05-02T12:12:41.002Z</time></trkpt><trkpt lat="43.13119495359843" lon="11.55658545816963"><ele>221.0</ele><time>2026-05-02T12:12:42.002Z</time></trkpt><trkpt lat="43.13128981799259" lon="11.556517944014082"><ele>225.5</ele><time>2026-05-02T12:12:43.002Z</time></trkpt><trkpt lat="43.13141664425838" lon="11.55642822465093"><ele>230.0</ele><time>2026-05-02T12:12:44.002Z</time></trkpt><trkpt lat="43.131567872242435" lon="11.556321544994143"><ele>234.33333333333334</ele><time>2026-05-02T12:12:45.002Z</time></trkpt><trkpt lat="43.13170351041001" lon="11.556195382998512"><ele>238.66666666666669</ele><time>2026-05-02T12:12:46.002Z</time></trkpt><trkpt lat="43.13186104674231" lon="11.556089170066354"><ele>243.0</ele><time>2026-05-02T12:12:47.002Z</time></trkpt><trkpt lat="43.13200481366816" lon="11.555952507376755"><ele>243.0</ele><time>2026-05-02T12:12:48.002Z</time></trkpt><trkpt lat="43.132141987601244" lon="11.555812244641904"><ele>243.0</ele><time>2026-05-02T12:12:49.002Z</time></trkpt><trkpt lat="43.132276903921586" lon="11.55566395351372"><ele>243.0</ele><time>2026-05-02T12:12:50.002Z</time></trkpt><trkpt lat="43.13241003156976" lon="11.55552045221738"><ele>243.75</ele><time>2026-05-02T12:12:51.002Z</time></trkpt><trkpt lat="43.132529498689294" lon="11.555403562428179"><ele>244.5</ele><time>2026-05-02T12:12:52.002Z</time></trkpt><trkpt lat="43.13263113304692" lon="11.555266797012345"><ele>245.25</ele><time>2026-05-02T12:12:53.002Z</time></trkpt><trkpt lat="43.13272565970192" lon="11.555158625836384"><ele>246.0</ele><time>2026-05-02T12:12:54.002Z</time></trkpt><trkpt lat="43.13278541380891" lon="11.555066637021554"><ele>246.0</ele><time>2026-05-02T12:12:55.002Z</time></trkpt><trkpt lat="43.13284559596338" lon="11.554991935387179"><ele>246.00000000000003</ele><time>2026-05-02T12:12:56.002Z</time></trkpt><trkpt lat="43.13286588511561" lon="11.554862741985705"><ele>246.00000000000003</ele><time>2026-05-02T12:12:57.002Z</time></trkpt><trkpt lat="43.13289639442552" lon="11.55473316672467"><ele>246.0</ele><time>2026-05-02T12:12:58.002Z</time></trkpt><trkpt lat="43.132879642598496" lon="11.55459671659343"><ele>246.0</ele><time>2026-05-02T12:12:59.002Z</time></trkpt><trkpt lat="43.13280708185235" lon="11.554474379664622"><ele>246.8</ele><time>2026-05-02T12:13:00.002Z</time></trkpt><trkpt lat="43.1327381881999" lon="11.55434481461389"><ele>247.60000000000002</ele><time>2026-05-02T12:13:01.002Z</time></trkpt><trkpt lat="43.13264524724815" lon="11.554219482858079"><ele>248.4</ele><time>2026-05-02T12:13:02.002Z</time></trkpt><trkpt lat="43.13255952131171" lon="11.554133663040458"><ele>249.2</ele><time>2026-05-02T12:13:03.003Z</time></trkpt><trkpt lat="43.13248974848697" lon="11.5540542611597"><ele>250.0</ele><time>2026-05-02T12:13:04.003Z</time></trkpt><trkpt lat="43.132402156439234" lon="11.554042630581751"><ele>253.2</ele><time>2026-05-02T12:13:05.003Z</time></trkpt><trkpt lat="43.132317077561645" lon="11.554037661180011"><ele>256.4</ele><time>2026-05-02T12:13:06.003Z</time></trkpt><trkpt lat="43.13221238047188" lon="11.554076616368427"><ele>259.6</ele><time>2026-05-02T12:13:07.003Z</time></trkpt><trkpt lat="43.13210621602979" lon="11.554160969034225"><ele>262.8</ele><time>2026-05-02T12:13:08.003Z</time></trkpt><trkpt lat="43.132010532754265" lon="11.554287817794817"><ele>266.0</ele><time>2026-05-02T12:13:09.003Z</time></trkpt><trkpt lat="43.13191665005263" lon="11.554443196055512"><ele>262.6666666666667</ele><time>2026-05-02T12:13:10.003Z</time></trkpt><trkpt lat="43.131807500019974" lon="11.554616997811616"><ele>259.3333333333333</ele><time>2026-05-02T12:13:11.003Z</time></trkpt><trkpt lat="43.13170244237459" lon="11.554770658375306"><ele>256.0</ele><time>2026-05-02T12:13:12.003Z</time></trkpt><trkpt lat="43.13159281678656" lon="11.554908490016784"><ele>257.5</ele><time>2026-05-02T12:13:13.003Z</time></trkpt><trkpt lat="43.131489012505334" lon="11.555021083899753"><ele>259.0</ele><time>2026-05-02T12:13:14.003Z</time></trkpt><trkpt lat="43.13139364095692" lon="11.555095730238135"><ele>260.5</ele><time>2026-05-02T12:13:15.003Z</time></trkpt><trkpt lat="43.131298857379576" lon="11.555145648409445"><ele>262.0</ele><time>2026-05-02T12:13:16.003Z</time></trkpt><trkpt lat="43.13119212221115" lon="11.555170967742061"><ele>262.0</ele><time>2026-05-02T12:13:17.003Z</time></trkpt><trkpt lat="43.13107661696243" lon="11.55516427015122"><ele>262.0</ele><time>2026-05-02T12:13:18.003Z</time></trkpt><trkpt lat="43.13097369248706" lon="11.55511795528152"><ele>262.0</ele><time>2026-05-02T12:13:19.003Z</time></trkpt><trkpt lat="43.130884558253754" lon="11.55500415574738"><ele>262.0</ele><time>2026-05-02T12:13:20.003Z</time></trkpt><trkpt lat="43.13080074916699" lon="11.554853881066933"><ele>263.0</ele><time>2026-05-02T12:13:21.003Z</time></trkpt><trkpt lat="43.13069487750592" lon="11.554693144019526"><ele>264.0</ele><time>2026-05-02T12:13:22.003Z</time></trkpt><trkpt lat="43.130584438764856" lon="11.55454728449196"><ele>265.0</ele><time>2026-05-02T12:13:23.003Z</time></trkpt><trkpt lat="43.130469012310854" lon="11.554447212759522"><ele>266.0</ele><time>2026-05-02T12:13:24.003Z</time></trkpt><trkpt lat="43.13032778129657" lon="11.554345231634738"><ele>266.0</ele><time>2026-05-02T12:13:25.003Z</time></trkpt><trkpt lat="43.13020731734318" lon="11.554189888482918"><ele>266.0</ele><time>2026-05-02T12:13:26.003Z</time></trkpt><trkpt lat="43.13007248998293" lon="11.554056322451224"><ele>266.0</ele><time>2026-05-02T12:13:27.003Z</time></trkpt><trkpt lat="43.129954729558754" lon="11.553927755526722"><ele>266.25</ele><time>2026-05-02T12:13:28.003Z</time></trkpt><trkpt lat="43.129838095829754" lon="11.553848602910259"><ele>266.5</ele><time>2026-05-02T12:13:29.003Z</time></trkpt><trkpt lat="43.1297096061832" lon="11.553807435530265"><ele>266.75</ele><time>2026-05-02T12:13:30.003Z</time></trkpt><trkpt lat="43.12956903424365" lon="11.553789145521536"><ele>267.0</ele><time>2026-05-02T12:13:31.003Z</time></trkpt><trkpt lat="43.12945646632849" lon="11.553777329119592"><ele>267.0</ele><time>2026-05-02T12:13:32.003Z</time></trkpt><trkpt lat="43.12938734793479" lon="11.55371762503607"><ele>267.0</ele><time>2026-05-02T12:13:32.999Z</time></trkpt><trkpt lat="43.12932622050101" lon="11.553599804960045"><ele>267.0</ele><time>2026-05-02T12:13:34.999Z</time></trkpt><trkpt lat="43.12928397596336" lon="11.553530572675443"><ele>267.0</ele><time>2026-05-02T12:13:35.999Z</time></trkpt><trkpt lat="43.12931173939339" lon="11.553402126530402"><ele>267.0</ele><time>2026-05-02T12:13:36.999Z</time></trkpt><trkpt lat="43.12935236424473" lon="11.553287408941591"><ele>267.0</ele><time>2026-05-02T12:13:37.999Z</time></trkpt><trkpt lat="43.12942112097438" lon="11.553193825203307"><ele>269.75</ele><time>2026-05-02T12:13:38.999Z</time></trkpt><trkpt lat="43.12949615912722" lon="11.553120292025026"><ele>272.5</ele><time>2026-05-02T12:13:39.999Z</time></trkpt><trkpt lat="43.12961614218418" lon="11.553131719062023"><ele>275.25</ele><time>2026-05-02T12:13:41Z</time></trkpt><trkpt lat="43.12973947195896" lon="11.553143160948887"><ele>278.0</ele><time>2026-05-02T12:13:42Z</time></trkpt><trkpt lat="43.12987107880324" lon="11.553189022139605"><ele>278.0</ele><time>2026-05-02T12:13:43Z</time></trkpt><trkpt lat="43.13003641559316" lon="11.55325158416587"><ele>278.0</ele><time>2026-05-02T12:13:44Z</time></trkpt><trkpt lat="43.13021348205359" lon="11.553302717010785"><ele>278.0</ele><time>2026-05-02T12:13:45Z</time></trkpt><trkpt lat="43.130367449456664" lon="11.553367104287528"><ele>278.0</ele><time>2026-05-02T12:13:46Z</time></trkpt><trkpt lat="43.13049169907032" lon="11.55340820750381"><ele>278.0</ele><time>2026-05-02T12:13:47Z</time></trkpt><trkpt lat="43.130608152602704" lon="11.553424522024791"><ele>278.0</ele><time>2026-05-02T12:13:48Z</time></trkpt><trkpt lat="43.13072013617635" lon="11.553412119481973"><ele>278.0</ele><time>2026-05-02T12:13:49Z</time></trkpt><trkpt lat="43.13082663083463" lon="11.553368711959427"><ele>279.0</ele><time>2026-05-02T12:13:50Z</time></trkpt><trkpt lat="43.13092767580638" lon="11.553292108346108"><ele>280.0</ele><time>2026-05-02T12:13:51Z</time></trkpt><trkpt lat="43.13101176923699" lon="11.553194580346313"><ele>281.0</ele><time>2026-05-02T12:13:52Z</time></trkpt><trkpt lat="43.1310711306295" lon="11.55308375355693"><ele>282.0</ele><time>2026-05-02T12:13:53Z</time></trkpt><trkpt lat="43.13110871579624" lon="11.552947819915447"><ele>283.0</ele><time>2026-05-02T12:13:54Z</time></trkpt><trkpt lat="43.13112179500433" lon="11.552780643223223"><ele>285.25</ele><time>2026-05-02T12:13:55Z</time></trkpt><trkpt lat="43.1311183664513" lon="11.552591836491821"><ele>287.5</ele><time>2026-05-02T12:13:56Z</time></trkpt><trkpt lat="43.131092815951824" lon="11.552395210222375"><ele>289.75</ele><time>2026-05-02T12:13:57Z</time></trkpt><trkpt lat="43.131064584865804" lon="11.552186397660716"><ele>292.0</ele><time>2026-05-02T12:13:58Z</time></trkpt><trkpt lat="43.131072268172424" lon="11.552003981842493"><ele>294.25</ele><time>2026-05-02T12:13:59Z</time></trkpt><trkpt lat="43.131123265063565" lon="11.551839448124388"><ele>296.5</ele><time>2026-05-02T12:14:00Z</time></trkpt><trkpt lat="43.13119100438914" lon="11.551687490944127"><ele>298.75</ele><time>2026-05-02T12:14:01Z</time></trkpt><trkpt lat="43.13128412348364" lon="11.551518361883186"><ele>301.0</ele><time>2026-05-02T12:14:02Z</time></trkpt><trkpt lat="43.13138687355587" lon="11.551334507240359"><ele>300.0</ele><time>2026-05-02T12:14:03Z</time></trkpt><trkpt lat="43.131503458921905" lon="11.55112852457457"><ele>299.0</ele><time>2026-05-02T12:14:04Z</time></trkpt><trkpt lat="43.13160951514781" lon="11.550939719294492"><ele>298.0</ele><time>2026-05-02T12:14:05Z</time></trkpt><trkpt lat="43.13171888785349" lon="11.550735336195773"><ele>298.0</ele><time>2026-05-02T12:14:06.001Z</time></trkpt><trkpt lat="43.13183391168779" lon="11.55051523060057"><ele>298.0</ele><time>2026-05-02T12:14:07.001Z</time></trkpt><trkpt lat="43.13195496957087" lon="11.55028467669666"><ele>298.0</ele><time>2026-05-02T12:14:08.001Z</time></trkpt><trkpt lat="43.132079864330805" lon="11.550049837313313"><ele>301.0</ele><time>2026-05-02T12:14:09.001Z</time></trkpt><trkpt lat="43.13220021592526" lon="11.549826944664842"><ele>304.0</ele><time>2026-05-02T12:14:10.001Z</time></trkpt><trkpt lat="43.132314177269166" lon="11.549625702351417"><ele>307.0</ele><time>2026-05-02T12:14:11.001Z</time></trkpt><trkpt lat="43.13242141382869" lon="11.549461726151145"><ele>307.66666666666663</ele><time>2026-05-02T12:14:12.001Z</time></trkpt><trkpt lat="43.132538319909195" lon="11.549308758223864"><ele>308.3333333333333</ele><time>2026-05-02T12:14:13.001Z</time></trkpt><trkpt lat="43.13268414859296" lon="11.549170245185966"><ele>309.0</ele><time>2026-05-02T12:14:14.001Z</time></trkpt><trkpt lat="43.13283981298957" lon="11.54906115828099"><ele>309.0</ele><time>2026-05-02T12:14:15.001Z</time></trkpt><trkpt lat="43.13299484138255" lon="11.548958073820328"><ele>309.0</ele><time>2026-05-02T12:14:16.001Z</time></trkpt><trkpt lat="43.13312562057587" lon="11.548855669622053"><ele>309.0</ele><time>2026-05-02T12:14:17.001Z</time></trkpt><trkpt lat="43.133230683576194" lon="11.548764952678336"><ele>309.0</ele><time>2026-05-02T12:14:18.001Z</time></trkpt><trkpt lat="43.13331634769689" lon="11.548667347848479"><ele>309.5</ele><time>2026-05-02T12:14:19.001Z</time></trkpt><trkpt lat="43.13339740495272" lon="11.548540767313302"><ele>310.0</ele><time>2026-05-02T12:14:20.001Z</time></trkpt><trkpt lat="43.13345326622292" lon="11.54837762951975"><ele>310.5</ele><time>2026-05-02T12:14:21.001Z</time></trkpt><trkpt lat="43.13348420856041" lon="11.548208502652923"><ele>311.0</ele><time>2026-05-02T12:14:22.001Z</time></trkpt><trkpt lat="43.13349661627812" lon="11.548032119871904"><ele>311.0</ele><time>2026-05-02T12:14:23.001Z</time></trkpt><trkpt lat="43.13346822050013" lon="11.547849522199463"><ele>311.0</ele><time>2026-05-02T12:14:24.001Z</time></trkpt><trkpt lat="43.1334384694773" lon="11.547694913164243"><ele>311.0</ele><time>2026-05-02T12:14:25.001Z</time></trkpt><trkpt lat="43.133406760267064" lon="11.547562422346703"><ele>311.0</ele><time>2026-05-02T12:14:26.001Z</time></trkpt><trkpt lat="43.13337362344057" lon="11.547443090529974"><ele>311.0</ele><time>2026-05-02T12:14:27.001Z</time></trkpt><trkpt lat="43.13333835375166" lon="11.54731494844089"><ele>311.0</ele><time>2026-05-02T12:14:28.001Z</time></trkpt><trkpt lat="43.13330853488918" lon="11.54719822403815"><ele>311.0</ele><time>2026-05-02T12:14:29.001Z</time></trkpt><trkpt lat="43.13327705712871" lon="11.547067132129946"><ele>311.0</ele><time>2026-05-02T12:14:30.001Z</time></trkpt><trkpt lat="43.13324113918641" lon="11.546910614133848"><ele>311.0</ele><time>2026-05-02T12:14:31.001Z</time></trkpt><trkpt lat="43.133202277338725" lon="11.546739970599809"><ele>311.0</ele><time>2026-05-02T12:14:32.001Z</time></trkpt><trkpt lat="43.133159737466464" lon="11.546554401222236"><ele>307.0</ele><time>2026-05-02T12:14:33.001Z</time></trkpt><trkpt lat="43.13311661838656" lon="11.54637062374809"><ele>303.0</ele><time>2026-05-02T12:14:34.001Z</time></trkpt><trkpt lat="43.13306068304466" lon="11.546205318570177"><ele>299.0</ele><time>2026-05-02T12:14:35.001Z</time></trkpt><trkpt lat="43.133027198276594" lon="11.546047401283372"><ele>295.0</ele><time>2026-05-02T12:14:36.002Z</time></trkpt><trkpt lat="43.13299323429528" lon="11.54590792041049"><ele>295.0</ele><time>2026-05-02T12:14:37.002Z</time></trkpt><trkpt lat="43.13296477311521" lon="11.545776394531769"><ele>295.0</ele><time>2026-05-02T12:14:38.002Z</time></trkpt><trkpt lat="43.132935890790684" lon="11.545652121202462"><ele>295.0</ele><time>2026-05-02T12:14:39.002Z</time></trkpt><trkpt lat="43.132906559990964" lon="11.545528255399619"><ele>295.0</ele><time>2026-05-02T12:14:40.002Z</time></trkpt><trkpt lat="43.132871808429684" lon="11.545405383058858"><ele>295.0</ele><time>2026-05-02T12:14:41.002Z</time></trkpt><trkpt lat="43.132840268106385" lon="11.545283962968098"><ele>295.5</ele><time>2026-05-02T12:14:42.002Z</time></trkpt><trkpt lat="43.13281429977585" lon="11.545171050454233"><ele>296.0</ele><time>2026-05-02T12:14:43.002Z</time></trkpt><trkpt lat="43.132797632748364" lon="11.545073875578451"><ele>296.5</ele><time>2026-05-02T12:14:44.002Z</time></trkpt><trkpt lat="43.132771030261786" lon="11.544961042222125"><ele>297.0</ele><time>2026-05-02T12:14:46.002Z</time></trkpt><trkpt lat="43.13275386601818" lon="11.544863502878046"><ele>297.5</ele><time>2026-05-02T12:15:01.002Z</time></trkpt><trkpt lat="43.13273561754022" lon="11.544775298339548"><ele>298.0</ele><time>2026-05-02T12:15:02.002Z</time></trkpt><trkpt lat="43.132711432613604" lon="11.544669728611844"><ele>298.0</ele><time>2026-05-02T12:15:03.002Z</time></trkpt><trkpt lat="43.13268250280438" lon="11.54455354884726"><ele>298.0</ele><time>2026-05-02T12:15:04.002Z</time></trkpt><trkpt lat="43.132648874209934" lon="11.544414363953493"><ele>298.0</ele><time>2026-05-02T12:15:05.002Z</time></trkpt><trkpt lat="43.13261155019734" lon="11.544270511707962"><ele>298.0</ele><time>2026-05-02T12:15:06.002Z</time></trkpt><trkpt lat="43.132565993454996" lon="11.544104600989868"><ele>298.0</ele><time>2026-05-02T12:15:07.002Z</time></trkpt><trkpt lat="43.13250774658764" lon="11.543909114326668"><ele>299.3333333333333</ele><time>2026-05-02T12:15:08.002Z</time></trkpt><trkpt lat="43.132435450765094" lon="11.543691236142283"><ele>300.6666666666667</ele><time>2026-05-02T12:15:09.003Z</time></trkpt><trkpt lat="43.13234831171138" lon="11.543466836668404"><ele>302.0</ele><time>2026-05-02T12:15:10.003Z</time></trkpt><trkpt lat="43.13227299530302" lon="11.543258128128498"><ele>302.0</ele><time>2026-05-02T12:15:11.003Z</time></trkpt><trkpt lat="43.13219767022383" lon="11.54307123713987"><ele>302.0</ele><time>2026-05-02T12:15:12.003Z</time></trkpt><trkpt lat="43.132125835501434" lon="11.542896428530714"><ele>302.0</ele><time>2026-05-02T12:15:13.003Z</time></trkpt><trkpt lat="43.13205703555668" lon="11.542722459390186"><ele>302.0</ele><time>2026-05-02T12:15:14.003Z</time></trkpt><trkpt lat="43.13198062878452" lon="11.542547661796485"><ele>302.5</ele><time>2026-05-02T12:15:15.003Z</time></trkpt><trkpt lat="43.13191415808579" lon="11.54239192704768"><ele>303.0</ele><time>2026-05-02T12:15:16.003Z</time></trkpt><trkpt lat="43.13186209404673" lon="11.542251280528825"><ele>303.5</ele><time>2026-05-02T12:15:17.003Z</time></trkpt><trkpt lat="43.131822929994044" lon="11.54211105428938"><ele>304.0</ele><time>2026-05-02T12:15:18.003Z</time></trkpt><trkpt lat="43.13180578777924" lon="11.541941497032823"><ele>304.3333333333333</ele><time>2026-05-02T12:15:19.003Z</time></trkpt><trkpt lat="43.13181927139653" lon="11.541744787314139"><ele>304.6666666666667</ele><time>2026-05-02T12:15:20.003Z</time></trkpt><trkpt lat="43.13187185386899" lon="11.541538766174286"><ele>305.0</ele><time>2026-05-02T12:15:21.003Z</time></trkpt><trkpt lat="43.131919586939446" lon="11.541287224886117"><ele>305.33333333333337</ele><time>2026-05-02T12:15:22.003Z</time></trkpt><trkpt lat="43.13193841385533" lon="11.541027150356378"><ele>305.6666666666667</ele><time>2026-05-02T12:15:23.003Z</time></trkpt><trkpt lat="43.13196619458026" lon="11.540795272325417"><ele>306.0</ele><time>2026-05-02T12:15:24.003Z</time></trkpt><trkpt lat="43.13202442076798" lon="11.540569848164296"><ele>306.0</ele><time>2026-05-02T12:15:25.003Z</time></trkpt><trkpt lat="43.132085898065974" lon="11.540343749408043"><ele>306.0</ele><time>2026-05-02T12:15:26.003Z</time></trkpt><trkpt lat="43.13212165714523" lon="11.540128231656091"><ele>306.0</ele><time>2026-05-02T12:15:27.003Z</time></trkpt><trkpt lat="43.132168308353144" lon="11.539944821639665"><ele>306.0</ele><time>2026-05-02T12:15:28.003Z</time></trkpt><trkpt lat="43.13219369393575" lon="11.539773366209067"><ele>306.0</ele><time>2026-05-02T12:15:29.003Z</time></trkpt><trkpt lat="43.13219993998414" lon="11.539581856141892"><ele>306.0</ele><time>2026-05-02T12:15:30.003Z</time></trkpt><trkpt lat="43.1321922557566" lon="11.539367398775159"><ele>306.0</ele><time>2026-05-02T12:15:31.003Z</time></trkpt><trkpt lat="43.13219919410376" lon="11.53912697319926"><ele>304.3333333333333</ele><time>2026-05-02T12:15:32.003Z</time></trkpt><trkpt lat="43.132209824322565" lon="11.53890624607234"><ele>302.66666666666663</ele><time>2026-05-02T12:15:33.003Z</time></trkpt><trkpt lat="43.132223651173945" lon="11.53866662092519"><ele>301.0</ele><time>2026-05-02T12:15:34.003Z</time></trkpt><trkpt lat="43.13226099657814" lon="11.538438715820126"><ele>298.3333333333333</ele><time>2026-05-02T12:15:35.003Z</time></trkpt><trkpt lat="43.13233155549179" lon="11.538210064045977"><ele>295.6666666666667</ele><time>2026-05-02T12:15:36.003Z</time></trkpt><trkpt lat="43.132397314428566" lon="11.537989614372217"><ele>293.0</ele><time>2026-05-02T12:15:37.003Z</time></trkpt><trkpt lat="43.132460610776086" lon="11.53778686556984"><ele>290.5</ele><time>2026-05-02T12:15:38.003Z</time></trkpt><trkpt lat="43.13251931365451" lon="11.537606945153817"><ele>288.0</ele><time>2026-05-02T12:15:39Z</time></trkpt><trkpt lat="43.13258135343677" lon="11.53743905485698"><ele>285.5</ele><time>2026-05-02T12:15:40Z</time></trkpt><trkpt lat="43.13265185271269" lon="11.53726897826335"><ele>283.0</ele><time>2026-05-02T12:15:41Z</time></trkpt><trkpt lat="43.13273379478339" lon="11.53710039012011"><ele>281.0</ele><time>2026-05-02T12:15:42Z</time></trkpt><trkpt lat="43.13281826086425" lon="11.53695986058996"><ele>279.0</ele><time>2026-05-02T12:15:43Z</time></trkpt><trkpt lat="43.13289691442736" lon="11.536850832047984"><ele>277.0</ele><time>2026-05-02T12:15:44Z</time></trkpt><trkpt lat="43.132970964520524" lon="11.536749961494493"><ele>275.0</ele><time>2026-05-02T12:15:45Z</time></trkpt><trkpt lat="43.13304995453856" lon="11.536645657270832"><ele>275.0</ele><time>2026-05-02T12:15:46Z</time></trkpt><trkpt lat="43.1331330284038" lon="11.536536837550072"><ele>275.0</ele><time>2026-05-02T12:15:47Z</time></trkpt><trkpt lat="43.13322099666613" lon="11.53641806094801"><ele>275.0</ele><time>2026-05-02T12:15:48Z</time></trkpt><trkpt lat="43.133310594315745" lon="11.536287437523894"><ele>275.0</ele><time>2026-05-02T12:15:49Z</time></trkpt><trkpt lat="43.133402520300926" lon="11.536124428927387"><ele>274.33333333333337</ele><time>2026-05-02T12:15:50Z</time></trkpt><trkpt lat="43.13351503426603" lon="11.535921303517384"><ele>273.6666666666667</ele><time>2026-05-02T12:15:51Z</time></trkpt><trkpt lat="43.133617413189086" lon="11.535686561248626"><ele>273.0</ele><time>2026-05-02T12:15:52Z</time></trkpt><trkpt lat="43.13371788767706" lon="11.535456309561493"><ele>270.0</ele><time>2026-05-02T12:15:53Z</time></trkpt><trkpt lat="43.13381534898007" lon="11.53522739553581"><ele>267.0</ele><time>2026-05-02T12:15:54Z</time></trkpt><trkpt lat="43.13391239449774" lon="11.53500461581409"><ele>264.0</ele><time>2026-05-02T12:15:55Z</time></trkpt><trkpt lat="43.133999431416946" lon="11.53479671776225"><ele>265.3333333333333</ele><time>2026-05-02T12:15:56Z</time></trkpt><trkpt lat="43.13409535590973" lon="11.534618694111103"><ele>266.66666666666663</ele><time>2026-05-02T12:15:57Z</time></trkpt><trkpt lat="43.13417885235429" lon="11.534424694100261"><ele>268.0</ele><time>2026-05-02T12:15:58Z</time></trkpt><trkpt lat="43.13426162487501" lon="11.534227720630271"><ele>268.0</ele><time>2026-05-02T12:15:59Z</time></trkpt><trkpt lat="43.134346867582146" lon="11.534023338131417"><ele>268.0</ele><time>2026-05-02T12:16:00Z</time></trkpt><trkpt lat="43.13442650992983" lon="11.533824594038203"><ele>268.0</ele><time>2026-05-02T12:16:01Z</time></trkpt><trkpt lat="43.13449388048302" lon="11.533634532127033"><ele>267.0</ele><time>2026-05-02T12:16:02Z</time></trkpt><trkpt lat="43.13454781475771" lon="11.533467860897067"><ele>266.0</ele><time>2026-05-02T12:16:03Z</time></trkpt><trkpt lat="43.134596221395455" lon="11.533305226028492"><ele>265.0</ele><time>2026-05-02T12:16:04Z</time></trkpt><trkpt lat="43.13464243851117" lon="11.533138847796035"><ele>264.0</ele><time>2026-05-02T12:16:05Z</time></trkpt><trkpt lat="43.13468955280125" lon="11.532965797488327"><ele>263.6666666666667</ele><time>2026-05-02T12:16:06Z</time></trkpt><trkpt lat="43.134735330926034" lon="11.532788386188523"><ele>263.33333333333337</ele><time>2026-05-02T12:16:07Z</time></trkpt><trkpt lat="43.13478417241201" lon="11.532583968328098"><ele>263.0</ele><time>2026-05-02T12:16:08Z</time></trkpt><trkpt lat="43.13483466154081" lon="11.532360719933221"><ele>263.0</ele><time>2026-05-02T12:16:09Z</time></trkpt><trkpt lat="43.13487198067882" lon="11.532105975723223"><ele>263.0</ele><time>2026-05-02T12:16:10Z</time></trkpt><trkpt lat="43.134932127009755" lon="11.531828383308481"><ele>263.0</ele><time>2026-05-02T12:16:11.001Z</time></trkpt><trkpt lat="43.13499136799573" lon="11.531520390188719"><ele>265.6666666666667</ele><time>2026-05-02T12:16:12.001Z</time></trkpt><trkpt lat="43.13502581907945" lon="11.531254966986033"><ele>268.3333333333333</ele><time>2026-05-02T12:16:13.001Z</time></trkpt><trkpt lat="43.13503552196758" lon="11.531022882810682"><ele>271.0</ele><time>2026-05-02T12:16:14.001Z</time></trkpt><trkpt lat="43.13505515964127" lon="11.530822011125345"><ele>272.0</ele><time>2026-05-02T12:16:15.001Z</time></trkpt><trkpt lat="43.13505012587791" lon="11.53065476371599"><ele>273.0</ele><time>2026-05-02T12:16:16.001Z</time></trkpt><trkpt lat="43.13504533485665" lon="11.53047650703843"><ele>274.0</ele><time>2026-05-02T12:16:17.001Z</time></trkpt><trkpt lat="43.1349607453625" lon="11.530301203393588"><ele>275.0</ele><time>2026-05-02T12:16:18.001Z</time></trkpt><trkpt lat="43.1349058442972" lon="11.5301060457129"><ele>270.6666666666667</ele><time>2026-05-02T12:16:19.001Z</time></trkpt><trkpt lat="43.134829605258105" lon="11.529883663595898"><ele>266.3333333333333</ele><time>2026-05-02T12:16:20.001Z</time></trkpt><trkpt lat="43.13474558486359" lon="11.529645972611327"><ele>262.0</ele><time>2026-05-02T12:16:21.001Z</time></trkpt><trkpt lat="43.13464586885591" lon="11.529405521072297"><ele>262.0</ele><time>2026-05-02T12:16:22.001Z</time></trkpt><trkpt lat="43.13456227397306" lon="11.529174462817195"><ele>262.0</ele><time>2026-05-02T12:16:23.001Z</time></trkpt><trkpt lat="43.13448675551035" lon="11.528957934473464"><ele>262.0</ele><time>2026-05-02T12:16:24.001Z</time></trkpt><trkpt lat="43.13441903972206" lon="11.528765500237553"><ele>262.25</ele><time>2026-05-02T12:16:25.001Z</time></trkpt><trkpt lat="43.13436921733562" lon="11.528589743855207"><ele>262.5</ele><time>2026-05-02T12:16:26.001Z</time></trkpt><trkpt lat="43.13433336500594" lon="11.528396625314613"><ele>262.75</ele><time>2026-05-02T12:16:27.001Z</time></trkpt><trkpt lat="43.13433667612068" lon="11.528176300748536"><ele>263.0</ele><time>2026-05-02T12:16:28.001Z</time></trkpt><trkpt lat="43.134384776949396" lon="11.527926463662558"><ele>261.5</ele><time>2026-05-02T12:16:29.001Z</time></trkpt><trkpt lat="43.13439703245972" lon="11.52762391539138"><ele>260.0</ele><time>2026-05-02T12:16:30.001Z</time></trkpt><trkpt lat="43.134440554606755" lon="11.527313341460841"><ele>257.0</ele><time>2026-05-02T12:16:31.001Z</time></trkpt><trkpt lat="43.134464149223014" lon="11.526997004240362"><ele>254.0</ele><time>2026-05-02T12:16:32.001Z</time></trkpt><trkpt lat="43.13447183105446" lon="11.526686505679516"><ele>254.0</ele><time>2026-05-02T12:16:33.001Z</time></trkpt><trkpt lat="43.134495700684944" lon="11.526405678794507"><ele>254.0</ele><time>2026-05-02T12:16:34.001Z</time></trkpt><trkpt lat="43.13451879189235" lon="11.526161700633653"><ele>254.0</ele><time>2026-05-02T12:16:35.001Z</time></trkpt><trkpt lat="43.134563473424286" lon="11.525972448346602"><ele>252.66666666666669</ele><time>2026-05-02T12:16:36.001Z</time></trkpt><trkpt lat="43.13460941165107" lon="11.525806988583529"><ele>251.33333333333331</ele><time>2026-05-02T12:16:37.001Z</time></trkpt><trkpt lat="43.13468237581059" lon="11.525617755790808"><ele>250.0</ele><time>2026-05-02T12:16:38.001Z</time></trkpt><trkpt lat="43.13477035844381" lon="11.525376195750118"><ele>249.66666666666666</ele><time>2026-05-02T12:16:39.001Z</time></trkpt><trkpt lat="43.13487417308609" lon="11.525112559717023"><ele>249.33333333333331</ele><time>2026-05-02T12:16:40.001Z</time></trkpt><trkpt lat="43.13495111747756" lon="11.524845718734552"><ele>249.0</ele><time>2026-05-02T12:16:41.001Z</time></trkpt><trkpt lat="43.135009151513955" lon="11.52462744766277"><ele>249.75</ele><time>2026-05-02T12:16:42.001Z</time></trkpt><trkpt lat="43.13504955858558" lon="11.524453281785759"><ele>250.5</ele><time>2026-05-02T12:16:43.002Z</time></trkpt><trkpt lat="43.13506498097888" lon="11.524296762159553"><ele>251.25</ele><time>2026-05-02T12:16:44.002Z</time></trkpt><trkpt lat="43.13506417009033" lon="11.524115657178532"><ele>252.0</ele><time>2026-05-02T12:16:45.002Z</time></trkpt><trkpt lat="43.135049574134776" lon="11.52388960170774"><ele>250.33333333333331</ele><time>2026-05-02T12:16:46.002Z</time></trkpt><trkpt lat="43.13503299173066" lon="11.523613824939016"><ele>248.66666666666666</ele><time>2026-05-02T12:16:47.002Z</time></trkpt><trkpt lat="43.1350112702293" lon="11.523292440244411"><ele>247.0</ele><time>2026-05-02T12:16:48.002Z</time></trkpt><trkpt lat="43.134993099412895" lon="11.522973427104796"><ele>244.0</ele><time>2026-05-02T12:16:49.002Z</time></trkpt><trkpt lat="43.13497660521475" lon="11.522669926820374"><ele>241.0</ele><time>2026-05-02T12:16:50.002Z</time></trkpt><trkpt lat="43.134965299294535" lon="11.522358259047248"><ele>239.0</ele><time>2026-05-02T12:16:51.002Z</time></trkpt><trkpt lat="43.1349680127054" lon="11.522039740801716"><ele>237.0</ele><time>2026-05-02T12:16:52.002Z</time></trkpt><trkpt lat="43.13498454021297" lon="11.521738745425399"><ele>237.0</ele><time>2026-05-02T12:16:53.002Z</time></trkpt><trkpt lat="43.13499641941237" lon="11.521465473192222"><ele>237.0</ele><time>2026-05-02T12:16:54.002Z</time></trkpt><trkpt lat="43.13500297634761" lon="11.521216616338846"><ele>237.0</ele><time>2026-05-02T12:16:55.002Z</time></trkpt><trkpt lat="43.134999520469314" lon="11.520992103974287"><ele>236.75</ele><time>2026-05-02T12:16:56.002Z</time></trkpt><trkpt lat="43.13498857705182" lon="11.520783365177298"><ele>236.5</ele><time>2026-05-02T12:16:57.002Z</time></trkpt><trkpt lat="43.13497527452292" lon="11.520595658678223"><ele>236.25</ele><time>2026-05-02T12:16:58.002Z</time></trkpt><trkpt lat="43.13495664288141" lon="11.520426382803926"><ele>236.0</ele><time>2026-05-02T12:16:59.002Z</time></trkpt><trkpt lat="43.13492796191429" lon="11.52026473570971"><ele>238.0</ele><time>2026-05-02T12:17:00.002Z</time></trkpt><trkpt lat="43.134896246795186" lon="11.520067349323604"><ele>240.0</ele><time>2026-05-02T12:17:01.002Z</time></trkpt><trkpt lat="43.134841726556125" lon="11.519853677722029"><ele>242.0</ele><time>2026-05-02T12:17:02.002Z</time></trkpt><trkpt lat="43.134783230579814" lon="11.519647474194644"><ele>238.0</ele><time>2026-05-02T12:17:03.002Z</time></trkpt><trkpt lat="43.13472923757363" lon="11.519462594699656"><ele>234.0</ele><time>2026-05-02T12:17:04.002Z</time></trkpt><trkpt lat="43.134689022427" lon="11.519269935652673"><ele>230.0</ele><time>2026-05-02T12:17:05.002Z</time></trkpt><trkpt lat="43.13465985470747" lon="11.519035999631805"><ele>230.0</ele><time>2026-05-02T12:17:06.002Z</time></trkpt><trkpt lat="43.13464304597249" lon="11.518763663289606"><ele>230.0</ele><time>2026-05-02T12:17:07.002Z</time></trkpt><trkpt lat="43.13463381534724" lon="11.518512296880004"><ele>230.0</ele><time>2026-05-02T12:17:08.002Z</time></trkpt><trkpt lat="43.13463439011315" lon="11.518278990065047"><ele>233.25</ele><time>2026-05-02T12:17:09.002Z</time></trkpt><trkpt lat="43.13464947091493" lon="11.518084271935168"><ele>236.5</ele><time>2026-05-02T12:17:10.002Z</time></trkpt><trkpt lat="43.13468324845158" lon="11.517912972733278"><ele>239.75</ele><time>2026-05-02T12:17:11.002Z</time></trkpt><trkpt lat="43.134750690924726" lon="11.5177740517929"><ele>243.0</ele><time>2026-05-02T12:17:12.002Z</time></trkpt><trkpt lat="43.134838859478336" lon="11.517622509742111"><ele>240.33333333333331</ele><time>2026-05-02T12:17:13.002Z</time></trkpt><trkpt lat="43.134940934651745" lon="11.517463463143914"><ele>237.66666666666666</ele><time>2026-05-02T12:17:14.002Z</time></trkpt><trkpt lat="43.135047032305714" lon="11.517292258301993"><ele>235.0</ele><time>2026-05-02T12:17:15.002Z</time></trkpt><trkpt lat="43.13515687323099" lon="11.517113100328245"><ele>236.66666666666666</ele><time>2026-05-02T12:17:16.003Z</time></trkpt><trkpt lat="43.135264240277564" lon="11.51693658485384"><ele>238.33333333333331</ele><time>2026-05-02T12:17:17.003Z</time></trkpt><trkpt lat="43.135372471218254" lon="11.516757963602151"><ele>240.0</ele><time>2026-05-02T12:17:18.003Z</time></trkpt><trkpt lat="43.13548739567245" lon="11.516568295731167"><ele>240.0</ele><time>2026-05-02T12:17:19.003Z</time></trkpt><trkpt lat="43.135598500444175" lon="11.516373666573228"><ele>240.0</ele><time>2026-05-02T12:17:20.003Z</time></trkpt><trkpt lat="43.13570590685729" lon="11.51618823289591"><ele>240.0</ele><time>2026-05-02T12:17:21.003Z</time></trkpt><trkpt lat="43.13582384656106" lon="11.516030830509306"><ele>237.25</ele><time>2026-05-02T12:17:22.003Z</time></trkpt><trkpt lat="43.135944803912544" lon="11.515907364430413"><ele>234.5</ele><time>2026-05-02T12:17:23.003Z</time></trkpt><trkpt lat="43.136059601480234" lon="11.515808864238844"><ele>231.75</ele><time>2026-05-02T12:17:24.003Z</time></trkpt><trkpt lat="43.13614049173928" lon="11.515688629672947"><ele>229.0</ele><time>2026-05-02T12:17:25.003Z</time></trkpt><trkpt lat="43.13623618774795" lon="11.515585757436394"><ele>229.0</ele><time>2026-05-02T12:17:26.003Z</time></trkpt><trkpt lat="43.13629975478864" lon="11.515427475787325"><ele>229.0</ele><time>2026-05-02T12:17:27.003Z</time></trkpt><trkpt lat="43.136316778783744" lon="11.51524077964279"><ele>229.0</ele><time>2026-05-02T12:17:28.003Z</time></trkpt><trkpt lat="43.13632633678165" lon="11.51503874730126"><ele>229.0</ele><time>2026-05-02T12:17:29.003Z</time></trkpt><trkpt lat="43.13631613689187" lon="11.51481461031341"><ele>229.0</ele><time>2026-05-02T12:17:30.003Z</time></trkpt><trkpt lat="43.1362856784636" lon="11.514608244514966"><ele>229.0</ele><time>2026-05-02T12:17:31.003Z</time></trkpt><trkpt lat="43.13622682911559" lon="11.514401435225174"><ele>229.0</ele><time>2026-05-02T12:17:32.003Z</time></trkpt><trkpt lat="43.13612843650367" lon="11.514195719726471"><ele>229.0</ele><time>2026-05-02T12:17:33.003Z</time></trkpt><trkpt lat="43.136034709568506" lon="11.51401025834305"><ele>229.0</ele><time>2026-05-02T12:17:34.003Z</time></trkpt><trkpt lat="43.13593358282092" lon="11.51384264917586"><ele>229.0</ele><time>2026-05-02T12:17:35.003Z</time></trkpt><trkpt lat="43.13584295181191" lon="11.513671487465638"><ele>226.66666666666666</ele><time>2026-05-02T12:17:36.003Z</time></trkpt><trkpt lat="43.13576167736316" lon="11.51349043704561"><ele>224.33333333333331</ele><time>2026-05-02T12:17:37.003Z</time></trkpt><trkpt lat="43.13567622738269" lon="11.513298437726245"><ele>222.0</ele><time>2026-05-02T12:17:38.003Z</time></trkpt><trkpt lat="43.13559253294199" lon="11.513094448198817"><ele>223.66666666666669</ele><time>2026-05-02T12:17:39.003Z</time></trkpt><trkpt lat="43.135537439955264" lon="11.512866609933221"><ele>225.33333333333334</ele><time>2026-05-02T12:17:40.003Z</time></trkpt><trkpt lat="43.13547381973395" lon="11.512643255420548"><ele>227.0</ele><time>2026-05-02T12:17:41.003Z</time></trkpt><trkpt lat="43.13539415026584" lon="11.512444477707612"><ele>227.0</ele><time>2026-05-02T12:17:42.003Z</time></trkpt><trkpt lat="43.135326711746735" lon="11.51225388219262"><ele>227.0</ele><time>2026-05-02T12:17:43.003Z</time></trkpt><trkpt lat="43.135243303923176" lon="11.512091481190533"><ele>227.0</ele><time>2026-05-02T12:17:44.003Z</time></trkpt><trkpt lat="43.135149961021604" lon="11.511941363062979"><ele>227.0</ele><time>2026-05-02T12:17:45Z</time></trkpt><trkpt lat="43.13506367877223" lon="11.511787978274993"><ele>228.0</ele><time>2026-05-02T12:17:46Z</time></trkpt><trkpt lat="43.13497997206081" lon="11.511643107079815"><ele>229.0</ele><time>2026-05-02T12:17:47Z</time></trkpt><trkpt lat="43.13489546902432" lon="11.511501997393404"><ele>230.0</ele><time>2026-05-02T12:17:48Z</time></trkpt><trkpt lat="43.13482004538811" lon="11.511357549575202"><ele>231.0</ele><time>2026-05-02T12:17:49Z</time></trkpt><trkpt lat="43.1347518637891" lon="11.511214896317835"><ele>232.60000000000002</ele><time>2026-05-02T12:17:50Z</time></trkpt><trkpt lat="43.13470728241346" lon="11.511078000525403"><ele>234.20000000000002</ele><time>2026-05-02T12:17:51Z</time></trkpt><trkpt lat="43.13464782576963" lon="11.510978401767941"><ele>235.79999999999998</ele><time>2026-05-02T12:17:52Z</time></trkpt><trkpt lat="43.13459821918232" lon="11.510869540338994"><ele>237.39999999999998</ele><time>2026-05-02T12:17:53Z</time></trkpt><trkpt lat="43.13454519670889" lon="11.510748973162709"><ele>239.0</ele><time>2026-05-02T12:17:54Z</time></trkpt><trkpt lat="43.13448853487948" lon="11.51062739626108"><ele>239.0</ele><time>2026-05-02T12:17:55Z</time></trkpt><trkpt lat="43.1344324483613" lon="11.510511358348559"><ele>238.99999999999997</ele><time>2026-05-02T12:17:56Z</time></trkpt><trkpt lat="43.13437565936529" lon="11.510388311459725"><ele>238.99999999999997</ele><time>2026-05-02T12:17:57Z</time></trkpt><trkpt lat="43.134321092426546" lon="11.51025102429346"><ele>239.0</ele><time>2026-05-02T12:17:58Z</time></trkpt><trkpt lat="43.13425692556304" lon="11.51010747321747"><ele>239.0</ele><time>2026-05-02T12:17:59Z</time></trkpt><trkpt lat="43.134194834777524" lon="11.509961362034431"><ele>237.5</ele><time>2026-05-02T12:18:00Z</time></trkpt><trkpt lat="43.134130927435564" lon="11.509818956500165"><ele>236.0</ele><time>2026-05-02T12:18:01Z</time></trkpt><trkpt lat="43.13406562546305" lon="11.509681336766715"><ele>234.5</ele><time>2026-05-02T12:18:02Z</time></trkpt><trkpt lat="43.13400394024967" lon="11.509542948691712"><ele>233.0</ele><time>2026-05-02T12:18:03Z</time></trkpt><trkpt lat="43.13393705953039" lon="11.509397167769299"><ele>230.66666666666669</ele><time>2026-05-02T12:18:04Z</time></trkpt><trkpt lat="43.13386380148214" lon="11.509241770922092"><ele>228.33333333333331</ele><time>2026-05-02T12:18:05Z</time></trkpt><trkpt lat="43.13379989008063" lon="11.509027671743802"><ele>226.0</ele><time>2026-05-02T12:18:06Z</time></trkpt><trkpt lat="43.13373537780257" lon="11.508783892364713"><ele>224.0</ele><time>2026-05-02T12:18:07Z</time></trkpt><trkpt lat="43.13367346019991" lon="11.50853325833588"><ele>222.0</ele><time>2026-05-02T12:18:08Z</time></trkpt><trkpt lat="43.13362097305396" lon="11.508300124651644"><ele>220.0</ele><time>2026-05-02T12:18:09Z</time></trkpt><trkpt lat="43.13357617867359" lon="11.5080990886113"><ele>218.0</ele><time>2026-05-02T12:18:10Z</time></trkpt><trkpt lat="43.13354877909962" lon="11.507907661640779"><ele>216.0</ele><time>2026-05-02T12:18:11Z</time></trkpt><trkpt lat="43.13353656426545" lon="11.507686117211705"><ele>214.0</ele><time>2026-05-02T12:18:12Z</time></trkpt><trkpt lat="43.13354476250383" lon="11.507418607672804"><ele>214.0</ele><time>2026-05-02T12:18:13Z</time></trkpt><trkpt lat="43.13358581914045" lon="11.507149312073627"><ele>214.0</ele><time>2026-05-02T12:18:14Z</time></trkpt><trkpt lat="43.13361959454377" lon="11.506884974832348"><ele>214.0</ele><time>2026-05-02T12:18:15Z</time></trkpt><trkpt lat="43.13363861985642" lon="11.506623220261073"><ele>213.33333333333331</ele><time>2026-05-02T12:18:16Z</time></trkpt><trkpt lat="43.13366968785611" lon="11.506368941191582"><ele>212.66666666666669</ele><time>2026-05-02T12:18:17.001Z</time></trkpt><trkpt lat="43.13371738466272" lon="11.50611028002193"><ele>212.0</ele><time>2026-05-02T12:18:18.001Z</time></trkpt><trkpt lat="43.13375096367981" lon="11.505838637428061"><ele>211.66666666666669</ele><time>2026-05-02T12:18:19.001Z</time></trkpt><trkpt lat="43.133784471562194" lon="11.505567570226788"><ele>211.33333333333331</ele><time>2026-05-02T12:18:20.001Z</time></trkpt><trkpt lat="43.13381779039035" lon="11.505298032354895"><ele>211.0</ele><time>2026-05-02T12:18:21.001Z</time></trkpt><trkpt lat="43.13384935809449" lon="11.505033459095658"><ele>211.0</ele><time>2026-05-02T12:18:22.001Z</time></trkpt><trkpt lat="43.133881316582766" lon="11.504765759040056"><ele>211.0</ele><time>2026-05-02T12:18:23.001Z</time></trkpt><trkpt lat="43.13391701695611" lon="11.504494523990314"><ele>211.0</ele><time>2026-05-02T12:18:24.001Z</time></trkpt><trkpt lat="43.133957210690504" lon="11.504217544244433"><ele>212.0</ele><time>2026-05-02T12:18:25.001Z</time></trkpt><trkpt lat="43.134005531081726" lon="11.503917749936852"><ele>213.0</ele><time>2026-05-02T12:18:26.001Z</time></trkpt><trkpt lat="43.134062791113124" lon="11.503594928981501"><ele>211.0</ele><time>2026-05-02T12:18:27.001Z</time></trkpt><trkpt lat="43.13412825041553" lon="11.503263699232049"><ele>209.0</ele><time>2026-05-02T12:18:28.001Z</time></trkpt><trkpt lat="43.13419505181063" lon="11.502924870512725"><ele>205.5</ele><time>2026-05-02T12:18:29.001Z</time></trkpt><trkpt lat="43.13425891737709" lon="11.502601082919643"><ele>202.0</ele><time>2026-05-02T12:18:30.001Z</time></trkpt><trkpt lat="43.13431888860289" lon="11.502297402601634"><ele>199.33333333333331</ele><time>2026-05-02T12:18:31.001Z</time></trkpt><trkpt lat="43.13437515980406" lon="11.502012458270526"><ele>196.66666666666669</ele><time>2026-05-02T12:18:32.001Z</time></trkpt><trkpt lat="43.134427249924066" lon="11.501735994935924"><ele>194.0</ele><time>2026-05-02T12:18:33.001Z</time></trkpt><trkpt lat="43.1344766480551" lon="11.501472832966549"><ele>191.0</ele><time>2026-05-02T12:18:34.001Z</time></trkpt><trkpt lat="43.13452568205904" lon="11.50121161092746"><ele>188.0</ele><time>2026-05-02T12:18:35.001Z</time></trkpt><trkpt lat="43.1345755739997" lon="11.500946725949108"><ele>185.0</ele><time>2026-05-02T12:18:36.001Z</time></trkpt><trkpt lat="43.13462702369193" lon="11.500673564550922"><ele>182.0</ele><time>2026-05-02T12:18:37.001Z</time></trkpt><trkpt lat="43.1346769906866" lon="11.500408183372645"><ele>179.0</ele><time>2026-05-02T12:18:38.001Z</time></trkpt><trkpt lat="43.1347187186402" lon="11.500126975590454"><ele>176.0</ele><time>2026-05-02T12:18:39.001Z</time></trkpt><trkpt lat="43.1347833693305" lon="11.49983414251999"><ele>172.5</ele><time>2026-05-02T12:18:40.001Z</time></trkpt><trkpt lat="43.134875669220214" lon="11.49953912062217"><ele>169.0</ele><time>2026-05-02T12:18:41.001Z</time></trkpt><trkpt lat="43.13496198222153" lon="11.499236836670812"><ele>169.0</ele><time>2026-05-02T12:18:42.001Z</time></trkpt><trkpt lat="43.13505381084657" lon="11.498940158741897"><ele>169.0</ele><time>2026-05-02T12:18:43.001Z</time></trkpt><trkpt lat="43.13514880263119" lon="11.498635407181238"><ele>165.5</ele><time>2026-05-02T12:18:44.001Z</time></trkpt><trkpt lat="43.13524035944925" lon="11.498341980987767"><ele>162.0</ele><time>2026-05-02T12:18:45.001Z</time></trkpt><trkpt lat="43.13532993885435" lon="11.498054892222612"><ele>161.5</ele><time>2026-05-02T12:18:46.001Z</time></trkpt><trkpt lat="43.135419198846265" lon="11.497780865952855"><ele>161.0</ele><time>2026-05-02T12:18:47.001Z</time></trkpt><trkpt lat="43.135518107126366" lon="11.497495407058835"><ele>161.0</ele><time>2026-05-02T12:18:48.001Z</time></trkpt><trkpt lat="43.13564906680572" lon="11.497224167094119"><ele>161.0</ele><time>2026-05-02T12:18:49.002Z</time></trkpt><trkpt lat="43.135796859675956" lon="11.49695719432996"><ele>161.5</ele><time>2026-05-02T12:18:50.002Z</time></trkpt><trkpt lat="43.13594659561135" lon="11.49670060420172"><ele>162.0</ele><time>2026-05-02T12:18:51.002Z</time></trkpt><trkpt lat="43.136097910859846" lon="11.496443957236346"><ele>162.5</ele><time>2026-05-02T12:18:52.002Z</time></trkpt><trkpt lat="43.1362447250862" lon="11.496194877055228"><ele>163.0</ele><time>2026-05-02T12:18:53.002Z</time></trkpt><trkpt lat="43.13639225805209" lon="11.495944577444885"><ele>163.0</ele><time>2026-05-02T12:18:54.002Z</time></trkpt><trkpt lat="43.13653333470406" lon="11.495705230192288"><ele>163.0</ele><time>2026-05-02T12:18:55.002Z</time></trkpt><trkpt lat="43.13668172469554" lon="11.495452214934481"><ele>165.0</ele><time>2026-05-02T12:18:56.002Z</time></trkpt><trkpt lat="43.13684193932832" lon="11.495176653737486"><ele>167.0</ele><time>2026-05-02T12:18:57.002Z</time></trkpt><trkpt lat="43.13699216393982" lon="11.49491827498012"><ele>167.0</ele><time>2026-05-02T12:18:58.002Z</time></trkpt><trkpt lat="43.137118325540655" lon="11.494701283265307"><ele>167.0</ele><time>2026-05-02T12:18:59.002Z</time></trkpt><trkpt lat="43.13721750344977" lon="11.494497365451423"><ele>167.0</ele><time>2026-05-02T12:19:00.002Z</time></trkpt><trkpt lat="43.13731939528549" lon="11.49432113466973"><ele>166.33333333333331</ele><time>2026-05-02T12:19:01.002Z</time></trkpt><trkpt lat="43.137387910617896" lon="11.494133716979436"><ele>165.66666666666666</ele><time>2026-05-02T12:19:02.002Z</time></trkpt><trkpt lat="43.1374436609006" lon="11.49391869917497"><ele>165.0</ele><time>2026-05-02T12:19:03.002Z</time></trkpt><trkpt lat="43.13747651453321" lon="11.493641775099155"><ele>167.0</ele><time>2026-05-02T12:19:04.002Z</time></trkpt><trkpt lat="43.13751355568476" lon="11.493344642862432"><ele>169.0</ele><time>2026-05-02T12:19:05.002Z</time></trkpt><trkpt lat="43.137550533438024" lon="11.493023113329684"><ele>170.0</ele><time>2026-05-02T12:19:06.002Z</time></trkpt><trkpt lat="43.1375861035989" lon="11.492713820256622"><ele>171.0</ele><time>2026-05-02T12:19:07.002Z</time></trkpt><trkpt lat="43.137622127218926" lon="11.492400584221292"><ele>174.5</ele><time>2026-05-02T12:19:08.002Z</time></trkpt><trkpt lat="43.13765810541636" lon="11.49207510036646"><ele>178.0</ele><time>2026-05-02T12:19:09.002Z</time></trkpt><trkpt lat="43.1376781916094" lon="11.491756093048306"><ele>178.0</ele><time>2026-05-02T12:19:10.002Z</time></trkpt><trkpt lat="43.137719863814844" lon="11.491471189306697"><ele>178.0</ele><time>2026-05-02T12:19:11.002Z</time></trkpt><trkpt lat="43.137753002756924" lon="11.491223985632033"><ele>178.0</ele><time>2026-05-02T12:19:12.002Z</time></trkpt><trkpt lat="43.13777866848898" lon="11.491000995096362"><ele>177.75</ele><time>2026-05-02T12:19:13.002Z</time></trkpt><trkpt lat="43.137792579840045" lon="11.4908091053099"><ele>177.5</ele><time>2026-05-02T12:19:14.002Z</time></trkpt><trkpt lat="43.13779251964976" lon="11.490645574305145"><ele>177.25</ele><time>2026-05-02T12:19:15.002Z</time></trkpt><trkpt lat="43.13778479337155" lon="11.490479765169553"><ele>177.0</ele><time>2026-05-02T12:19:16.002Z</time></trkpt><trkpt lat="43.137769674632416" lon="11.490292876310896"><ele>177.0</ele><time>2026-05-02T12:19:17.002Z</time></trkpt><trkpt lat="43.137750767434596" lon="11.490095579864445"><ele>177.0</ele><time>2026-05-02T12:19:18.002Z</time></trkpt><trkpt lat="43.13773420430749" lon="11.489896853853024"><ele>177.0</ele><time>2026-05-02T12:19:19.002Z</time></trkpt><trkpt lat="43.13772171960169" lon="11.489693617267676"><ele>177.0</ele><time>2026-05-02T12:19:20.002Z</time></trkpt><trkpt lat="43.137707108335626" lon="11.489487482695939"><ele>173.0</ele><time>2026-05-02T12:19:21.002Z</time></trkpt><trkpt lat="43.13769790646215" lon="11.48927304435134"><ele>169.0</ele><time>2026-05-02T12:19:22.003Z</time></trkpt><trkpt lat="43.13769285386836" lon="11.48905955372456"><ele>165.0</ele><time>2026-05-02T12:19:23.003Z</time></trkpt><trkpt lat="43.13768937641766" lon="11.488857155357698"><ele>163.0</ele><time>2026-05-02T12:19:24.003Z</time></trkpt><trkpt lat="43.13768507035884" lon="11.488692700343407"><ele>161.0</ele><time>2026-05-02T12:19:25.003Z</time></trkpt><trkpt lat="43.137681201279875" lon="11.488557340800654"><ele>159.0</ele><time>2026-05-02T12:19:26.003Z</time></trkpt><trkpt lat="43.137679226244835" lon="11.48844234584861"><ele>157.0</ele><time>2026-05-02T12:19:27.003Z</time></trkpt><trkpt lat="43.137679769418185" lon="11.488323977087108"><ele>155.0</ele><time>2026-05-02T12:19:28.003Z</time></trkpt><trkpt lat="43.13767856150725" lon="11.488195853227605"><ele>155.0</ele><time>2026-05-02T12:19:29.003Z</time></trkpt><trkpt lat="43.13767788551577" lon="11.488059788017068"><ele>155.0</ele><time>2026-05-02T12:19:30.003Z</time></trkpt><trkpt lat="43.13767694214193" lon="11.48792155349338"><ele>155.0</ele><time>2026-05-02T12:19:31.003Z</time></trkpt><trkpt lat="43.137677891726064" lon="11.48778303036038"><ele>155.0</ele><time>2026-05-02T12:19:32.003Z</time></trkpt><trkpt lat="43.13767736307699" lon="11.487640451089828"><ele>155.0</ele><time>2026-05-02T12:19:33.003Z</time></trkpt><trkpt lat="43.13767697810302" lon="11.487503082985171"><ele>154.0</ele><time>2026-05-02T12:19:34.003Z</time></trkpt><trkpt lat="43.13767375593064" lon="11.487346276200938"><ele>153.0</ele><time>2026-05-02T12:19:35.003Z</time></trkpt><trkpt lat="43.13767356943885" lon="11.487174833931137"><ele>152.0</ele><time>2026-05-02T12:19:36.003Z</time></trkpt><trkpt lat="43.13767047126707" lon="11.486994712006378"><ele>151.0</ele><time>2026-05-02T12:19:37.003Z</time></trkpt><trkpt lat="43.137667585291" lon="11.486795235319244"><ele>150.25</ele><time>2026-05-02T12:19:38.003Z</time></trkpt><trkpt lat="43.1376673769464" lon="11.486582954682461"><ele>149.5</ele><time>2026-05-02T12:19:39.003Z</time></trkpt><trkpt lat="43.137667260618315" lon="11.486371333849622"><ele>148.75</ele><time>2026-05-02T12:19:40.003Z</time></trkpt><trkpt lat="43.13766750762947" lon="11.486185884099108"><ele>148.0</ele><time>2026-05-02T12:19:41.003Z</time></trkpt><trkpt lat="43.1376699431731" lon="11.486036438245565"><ele>148.0</ele><time>2026-05-02T12:19:42.003Z</time></trkpt><trkpt lat="43.137669681450085" lon="11.48593214226118"><ele>148.0</ele><time>2026-05-02T12:19:43.003Z</time></trkpt><trkpt lat="43.13764695015826" lon="11.485825056271013"><ele>148.0</ele><time>2026-05-02T12:19:45.003Z</time></trkpt><trkpt lat="43.13754342905508" lon="11.485785160522918"><ele>148.0</ele><time>2026-05-02T12:19:47.003Z</time></trkpt><trkpt lat="43.13747314941961" lon="11.485790028374868"><ele>148.0</ele><time>2026-05-02T12:19:48.003Z</time></trkpt><trkpt lat="43.1374072690411" lon="11.485799806407378"><ele>148.0</ele><time>2026-05-02T12:19:49.003Z</time></trkpt><trkpt lat="43.13731998094893" lon="11.485802384446444"><ele>147.6</ele><time>2026-05-02T12:19:51Z</time></trkpt><trkpt lat="43.137242555597574" lon="11.485801175327461"><ele>147.20000000000002</ele><time>2026-05-02T12:20:15Z</time></trkpt><trkpt lat="43.13715448063591" lon="11.485803489424885"><ele>146.8</ele><time>2026-05-02T12:20:16Z</time></trkpt><trkpt lat="43.13705590830649" lon="11.485803161792719"><ele>146.4</ele><time>2026-05-02T12:20:17Z</time></trkpt><trkpt lat="43.13694412897355" lon="11.485798442206352"><ele>146.0</ele><time>2026-05-02T12:20:18Z</time></trkpt><trkpt lat="43.13683143508737" lon="11.48579811966027"><ele>146.0</ele><time>2026-05-02T12:20:19Z</time></trkpt><trkpt lat="43.13671059771129" lon="11.485794997764994"><ele>146.0</ele><time>2026-05-02T12:20:20Z</time></trkpt><trkpt lat="43.1365832380215" lon="11.485787657646679"><ele>146.0</ele><time>2026-05-02T12:20:21Z</time></trkpt><trkpt lat="43.13644968198377" lon="11.485782761062111"><ele>146.0</ele><time>2026-05-02T12:20:22.001Z</time></trkpt><trkpt lat="43.136304066902085" lon="11.485779380255405"><ele>146.33333333333331</ele><time>2026-05-02T12:20:23.001Z</time></trkpt><trkpt lat="43.136150828011246" lon="11.485776972586715"><ele>146.66666666666666</ele><time>2026-05-02T12:20:24.001Z</time></trkpt><trkpt lat="43.13599140418695" lon="11.48577679157093"><ele>147.0</ele><time>2026-05-02T12:20:25.001Z</time></trkpt><trkpt lat="43.13582422399657" lon="11.485770161037037"><ele>147.0</ele><time>2026-05-02T12:20:26.001Z</time></trkpt><trkpt lat="43.13565873036095" lon="11.48576283762829"><ele>147.0</ele><time>2026-05-02T12:20:27.001Z</time></trkpt><trkpt lat="43.13549460192028" lon="11.485756349173815"><ele>147.0</ele><time>2026-05-02T12:20:28.001Z</time></trkpt><trkpt lat="43.13534677174514" lon="11.485752144217019"><ele>147.0</ele><time>2026-05-02T12:20:29.001Z</time></trkpt><trkpt lat="43.13521194837857" lon="11.48574643699581"><ele>147.0</ele><time>2026-05-02T12:20:30.001Z</time></trkpt><trkpt lat="43.13509316454857" lon="11.485738352348553"><ele>147.0</ele><time>2026-05-02T12:20:31.001Z</time></trkpt><trkpt lat="43.13498450187726" lon="11.485724736191603"><ele>147.0</ele><time>2026-05-02T12:20:32.001Z</time></trkpt><trkpt lat="43.13490085977654" lon="11.48569781873261"><ele>147.0</ele><time>2026-05-02T12:20:33.001Z</time></trkpt><trkpt lat="43.13482658060772" lon="11.485646616603303"><ele>147.25</ele><time>2026-05-02T12:20:34.001Z</time></trkpt><trkpt lat="43.1347412486113" lon="11.485611508587802"><ele>147.5</ele><time>2026-05-02T12:20:35.001Z</time></trkpt><trkpt lat="43.13468950009465" lon="11.485442409179003"><ele>147.75</ele><time>2026-05-02T12:20:36.001Z</time></trkpt><trkpt lat="43.13463933283695" lon="11.485241481735217"><ele>148.0</ele><time>2026-05-02T12:20:37.001Z</time></trkpt><trkpt lat="43.13457645777946" lon="11.484997768730633"><ele>147.33333333333334</ele><time>2026-05-02T12:20:38.001Z</time></trkpt><trkpt lat="43.13449957151559" lon="11.484764738597"><ele>146.66666666666666</ele><time>2026-05-02T12:20:39.001Z</time></trkpt><trkpt lat="43.13445287752779" lon="11.484558697975944"><ele>146.0</ele><time>2026-05-02T12:20:40.001Z</time></trkpt><trkpt lat="43.13440755467524" lon="11.484375240592668"><ele>145.8</ele><time>2026-05-02T12:20:41.001Z</time></trkpt><trkpt lat="43.1343630477042" lon="11.48420993337471"><ele>145.6</ele><time>2026-05-02T12:20:42.001Z</time></trkpt><trkpt lat="43.134324579911755" lon="11.484061073826362"><ele>145.4</ele><time>2026-05-02T12:20:43.001Z</time></trkpt><trkpt lat="43.13429199195061" lon="11.483930669821381"><ele>145.2</ele><time>2026-05-02T12:20:44.001Z</time></trkpt><trkpt lat="43.13426275519381" lon="11.483805307011783"><ele>145.0</ele><time>2026-05-02T12:20:45.001Z</time></trkpt><trkpt lat="43.134231288095144" lon="11.483693021276604"><ele>145.0</ele><time>2026-05-02T12:20:46.001Z</time></trkpt><trkpt lat="43.13420088566354" lon="11.483595233778681"><ele>145.0</ele><time>2026-05-02T12:20:47.001Z</time></trkpt><trkpt lat="43.13417577875678" lon="11.483507731743599"><ele>145.0</ele><time>2026-05-02T12:20:48.001Z</time></trkpt><trkpt lat="43.13414595672996" lon="11.483404584870794"><ele>145.0</ele><time>2026-05-02T12:20:50.001Z</time></trkpt><trkpt lat="43.134122840323194" lon="11.483316619733143"><ele>145.0</ele><time>2026-05-02T12:20:53.002Z</time></trkpt><trkpt lat="43.13410315011604" lon="11.483192265096731"><ele>145.0</ele><time>2026-05-02T12:20:57.002Z</time></trkpt><trkpt lat="43.13424962186848" lon="11.483141001250402"><ele>145.0</ele><time>2026-05-02T12:21:00.002Z</time></trkpt><trkpt lat="43.13436521414121" lon="11.483160845760501"><ele>145.0</ele><time>2026-05-02T12:21:01.002Z</time></trkpt><trkpt lat="43.13450219035841" lon="11.483166655253672"><ele>145.0</ele><time>2026-05-02T12:21:02.002Z</time></trkpt><trkpt lat="43.13463703213649" lon="11.483210991162984"><ele>145.0</ele><time>2026-05-02T12:21:03.002Z</time></trkpt><trkpt lat="43.1347669308271" lon="11.483231188193235"><ele>145.0</ele><time>2026-05-02T12:21:04.002Z</time></trkpt><trkpt lat="43.13488176816172" lon="11.483249544159072"><ele>145.0</ele><time>2026-05-02T12:21:05.002Z</time></trkpt><trkpt lat="43.13497214704656" lon="11.483264432272396"><ele>145.0</ele><time>2026-05-02T12:21:06.002Z</time></trkpt><trkpt lat="43.135067960156675" lon="11.483282732364176"><ele>145.0</ele><time>2026-05-02T12:21:07.002Z</time></trkpt><trkpt lat="43.13517816918402" lon="11.483303383187273"><ele>145.0</ele><time>2026-05-02T12:21:08.002Z</time></trkpt><trkpt lat="43.13530135857206" lon="11.483325616988312"><ele>145.25</ele><time>2026-05-02T12:21:09.002Z</time></trkpt><trkpt lat="43.13542829852831" lon="11.483357826612956"><ele>145.5</ele><time>2026-05-02T12:21:10.002Z</time></trkpt><trkpt lat="43.1355613390421" lon="11.483375280472472"><ele>145.75</ele><time>2026-05-02T12:21:11.002Z</time></trkpt><trkpt lat="43.13569362888455" lon="11.48339702442902"><ele>146.0</ele><time>2026-05-02T12:21:12.002Z</time></trkpt><trkpt lat="43.135826023804064" lon="11.483404180292702"><ele>146.0</ele><time>2026-05-02T12:21:13.002Z</time></trkpt><trkpt lat="43.13596369227518" lon="11.483407189240245"><ele>146.0</ele><time>2026-05-02T12:21:14.002Z</time></trkpt><trkpt lat="43.136092001781705" lon="11.483403916962775"><ele>146.0</ele><time>2026-05-02T12:21:15.002Z</time></trkpt><trkpt lat="43.136217185626975" lon="11.483401886995477"><ele>146.0</ele><time>2026-05-02T12:21:16.002Z</time></trkpt><trkpt lat="43.13633816185751" lon="11.483400017164946"><ele>146.0</ele><time>2026-05-02T12:21:17.002Z</time></trkpt><trkpt lat="43.13645148656211" lon="11.483394274907962"><ele>146.0</ele><time>2026-05-02T12:21:18.002Z</time></trkpt><trkpt lat="43.136558034322405" lon="11.483388896675548"><ele>146.0</ele><time>2026-05-02T12:21:19.002Z</time></trkpt><trkpt lat="43.13664578239656" lon="11.483386889592982"><ele>146.0</ele><time>2026-05-02T12:21:20.002Z</time></trkpt><trkpt lat="43.13675338242187" lon="11.48337678405868"><ele>146.0</ele><time>2026-05-02T12:21:22.002Z</time></trkpt><trkpt lat="43.13679505896163" lon="11.483189302817884"><ele>146.0</ele><time>2026-05-02T12:21:25.002Z</time></trkpt><trkpt lat="43.13680082612188" lon="11.483074951701852"><ele>146.0</ele><time>2026-05-02T12:21:26.003Z</time></trkpt><trkpt lat="43.13679305163558" lon="11.482940558051183"><ele>146.0</ele><time>2026-05-02T12:21:27.003Z</time></trkpt><trkpt lat="43.136784527554234" lon="11.4828000784855"><ele>146.0</ele><time>2026-05-02T12:21:28.003Z</time></trkpt><trkpt lat="43.13675442934312" lon="11.48268742248208"><ele>146.0</ele><time>2026-05-02T12:21:29.003Z</time></trkpt><trkpt lat="43.136754814080966" lon="11.482591180341997"><ele>146.0</ele><time>2026-05-02T12:21:30.003Z</time></trkpt><trkpt lat="43.13676992570931" lon="11.48245087540807"><ele>146.0</ele><time>2026-05-02T12:21:32.003Z</time></trkpt><trkpt lat="43.13676472432901" lon="11.482337443609246"><ele>146.0</ele><time>2026-05-02T12:21:36.003Z</time></trkpt><trkpt lat="43.13675184651579" lon="11.482222918100586"><ele>146.0</ele><time>2026-05-02T12:21:39.003Z</time></trkpt><trkpt lat="43.13674767938839" lon="11.482106025364628"><ele>146.0</ele><time>2026-05-02T12:21:42.003Z</time></trkpt><trkpt lat="43.13673648804648" lon="11.482014193860847"><ele>146.0</ele><time>2026-05-02T12:21:45.003Z</time></trkpt><trkpt lat="43.13670115709633" lon="11.481897590722212"><ele>146.0</ele><time>2026-05-02T12:21:49.003Z</time></trkpt><trkpt lat="43.13659120991" lon="11.48192077361483"><ele>146.0</ele><time>2026-05-02T12:21:52.003Z</time></trkpt><trkpt lat="43.136513394096305" lon="11.481912920541681"><ele>146.0</ele><time>2026-05-02T12:21:56.003Z</time></trkpt><trkpt lat="43.13644154394585" lon="11.481917907768572"><ele>146.0</ele><time>2026-05-02T12:21:59Z</time></trkpt><trkpt lat="43.13650529567133" lon="11.481934778278442"><ele>146.0</ele><time>2026-05-02T12:22:03Z</time></trkpt><trkpt lat="43.13655406536431" lon="11.482111764310769"><ele>146.0</ele><time>2026-05-02T12:22:04Z</time></trkpt><trkpt lat="43.13662140385824" lon="11.48214366226205"><ele>146.0</ele><time>2026-05-02T12:22:07Z</time></trkpt><trkpt lat="43.13667313895308" lon="11.482202225292255"><ele>146.0</ele><time>2026-05-02T12:22:11Z</time></trkpt></trkseg><trkseg><trkpt lat="43.13662394646441" lon="11.48210631234116"><ele>146.0</ele><time>2026-05-02T12:54:50.001Z</time></trkpt><trkpt lat="43.13653346099154" lon="11.482084913269093"><ele>146.0</ele><time>2026-05-02T12:54:52.001Z</time></trkpt><trkpt lat="43.13645925612946" lon="11.482156694978745"><ele>146.0</ele><time>2026-05-02T12:54:57.001Z</time></trkpt><trkpt lat="43.136454172490616" lon="11.482258940310668"><ele>146.0</ele><time>2026-05-02T12:54:58.001Z</time></trkpt><trkpt lat="43.136468754667355" lon="11.482360281699856"><ele>146.0</ele><time>2026-05-02T12:54:59.001Z</time></trkpt><trkpt lat="43.136484644520635" lon="11.482448363751798"><ele>146.0</ele><time>2026-05-02T12:55:00.001Z</time></trkpt><trkpt lat="43.13650645914259" lon="11.482539609380098"><ele>146.0</ele><time>2026-05-02T12:55:03.001Z</time></trkpt><trkpt lat="43.136737820986184" lon="11.482580611170999"><ele>146.0</ele><time>2026-05-02T12:55:10.001Z</time></trkpt><trkpt lat="43.136795844940906" lon="11.48252336258238"><ele>146.0</ele><time>2026-05-02T12:55:16.001Z</time></trkpt><trkpt lat="43.13679134881647" lon="11.482372988709056"><ele>146.0</ele><time>2026-05-02T12:55:18.001Z</time></trkpt><trkpt lat="43.13676869121397" lon="11.482231842211743"><ele>146.2</ele><time>2026-05-02T12:55:20.001Z</time></trkpt><trkpt lat="43.136760020387804" lon="11.482082911665303"><ele>146.39999999999998</ele><time>2026-05-02T12:55:22.001Z</time></trkpt><trkpt lat="43.13675220206133" lon="11.481973333175429"><ele>146.6</ele><time>2026-05-02T12:55:24.001Z</time></trkpt><trkpt lat="43.13677682067642" lon="11.4818899070879"><ele>146.79999999999998</ele><time>2026-05-02T12:55:30.001Z</time></trkpt><trkpt lat="43.13687708041673" lon="11.481898587393204"><ele>147.0</ele><time>2026-05-02T12:55:31.001Z</time></trkpt><trkpt lat="43.1369715895936" lon="11.481884749529682"><ele>147.0</ele><time>2026-05-02T12:55:33.001Z</time></trkpt><trkpt lat="43.13707973412986" lon="11.481885502208419"><ele>147.0</ele><time>2026-05-02T12:55:35.001Z</time></trkpt><trkpt lat="43.137206149101274" lon="11.481872964092876"><ele>147.0</ele><time>2026-05-02T12:55:37.001Z</time></trkpt><trkpt lat="43.13726984863911" lon="11.48186509221782"><ele>147.0</ele><time>2026-05-02T12:55:38.001Z</time></trkpt><trkpt lat="43.137334054947296" lon="11.48186351077933"><ele>147.0</ele><time>2026-05-02T12:55:39.001Z</time></trkpt><trkpt lat="43.13742904847596" lon="11.481847389773648"><ele>146.79999999999998</ele><time>2026-05-02T12:55:41.001Z</time></trkpt><trkpt lat="43.13750816234746" lon="11.481841842686283"><ele>146.6</ele><time>2026-05-02T12:55:43.002Z</time></trkpt><trkpt lat="43.13756818960225" lon="11.481765303097317"><ele>146.39999999999998</ele><time>2026-05-02T12:55:45.002Z</time></trkpt><trkpt lat="43.13759702465049" lon="11.481645603016682"><ele>146.2</ele><time>2026-05-02T12:55:47.002Z</time></trkpt><trkpt lat="43.13761808834898" lon="11.481508844141352"><ele>146.0</ele><time>2026-05-02T12:55:49.002Z</time></trkpt><trkpt lat="43.13764777915389" lon="11.48138492332658"><ele>146.0</ele><time>2026-05-02T12:55:51.002Z</time></trkpt><trkpt lat="43.13773394556739" lon="11.481267283585169"><ele>146.0</ele><time>2026-05-02T12:55:53.002Z</time></trkpt><trkpt lat="43.13780316273284" lon="11.481233786301754"><ele>146.0</ele><time>2026-05-02T12:55:54.002Z</time></trkpt><trkpt lat="43.13788545771632" lon="11.481225170391014"><ele>146.0</ele><time>2026-05-02T12:55:55.002Z</time></trkpt><trkpt lat="43.13796284010857" lon="11.481215963183578"><ele>146.0</ele><time>2026-05-02T12:55:56.002Z</time></trkpt><trkpt lat="43.13803960935574" lon="11.481204805883044"><ele>146.0</ele><time>2026-05-02T12:55:57.002Z</time></trkpt><trkpt lat="43.13811476172442" lon="11.481183936935942"><ele>145.83333333333331</ele><time>2026-05-02T12:55:58.002Z</time></trkpt><trkpt lat="43.13819180541969" lon="11.481161500864175"><ele>145.66666666666666</ele><time>2026-05-02T12:55:59.002Z</time></trkpt><trkpt lat="43.138266600180295" lon="11.481142163706172"><ele>145.5</ele><time>2026-05-02T12:56:00.002Z</time></trkpt><trkpt lat="43.13834659182946" lon="11.481124381595086"><ele>145.33333333333334</ele><time>2026-05-02T12:56:01.002Z</time></trkpt><trkpt lat="43.1384220880685" lon="11.481106843957543"><ele>145.16666666666669</ele><time>2026-05-02T12:56:02.002Z</time></trkpt><trkpt lat="43.13849699183437" lon="11.48108743136807"><ele>145.0</ele><time>2026-05-02T12:56:03.002Z</time></trkpt><trkpt lat="43.13856533943539" lon="11.481071677109334"><ele>145.0</ele><time>2026-05-02T12:56:04.002Z</time></trkpt><trkpt lat="43.13862955555232" lon="11.481057993990303"><ele>145.0</ele><time>2026-05-02T12:56:04.998Z</time></trkpt><trkpt lat="43.138697604890915" lon="11.48104476785578"><ele>145.0</ele><time>2026-05-02T12:56:05.998Z</time></trkpt><trkpt lat="43.13877246587821" lon="11.481028848777573"><ele>145.0</ele><time>2026-05-02T12:56:06.998Z</time></trkpt><trkpt lat="43.138860970694346" lon="11.481047787017333"><ele>145.0</ele><time>2026-05-02T12:56:07.998Z</time></trkpt><trkpt lat="43.138945619180774" lon="11.481030610910684"><ele>145.0</ele><time>2026-05-02T12:56:08.998Z</time></trkpt><trkpt lat="43.139035503644756" lon="11.481012372365353"><ele>144.66666666666669</ele><time>2026-05-02T12:56:09.998Z</time></trkpt><trkpt lat="43.13911844494014" lon="11.480995542672716"><ele>144.33333333333334</ele><time>2026-05-02T12:56:10.998Z</time></trkpt><trkpt lat="43.13919440171424" lon="11.480980130202632"><ele>144.0</ele><time>2026-05-02T12:56:11.998Z</time></trkpt><trkpt lat="43.13926846063864" lon="11.48096895097138"><ele>143.66666666666666</ele><time>2026-05-02T12:56:12.998Z</time></trkpt><trkpt lat="43.13934507577747" lon="11.480959624395647"><ele>143.33333333333331</ele><time>2026-05-02T12:56:13.998Z</time></trkpt><trkpt lat="43.139426843630865" lon="11.481027513244003"><ele>143.0</ele><time>2026-05-02T12:56:14.998Z</time></trkpt><trkpt lat="43.13948932724255" lon="11.481140542084487"><ele>144.25</ele><time>2026-05-02T12:56:15.998Z</time></trkpt><trkpt lat="43.13951304090543" lon="11.481293534449469"><ele>145.5</ele><time>2026-05-02T12:56:16.998Z</time></trkpt><trkpt lat="43.139569614570156" lon="11.4814268376414"><ele>146.75</ele><time>2026-05-02T12:56:17.998Z</time></trkpt><trkpt lat="43.13961348646107" lon="11.481573460574001"><ele>148.0</ele><time>2026-05-02T12:56:18.998Z</time></trkpt><trkpt lat="43.13966157832424" lon="11.481716416314677"><ele>148.0</ele><time>2026-05-02T12:56:19.999Z</time></trkpt><trkpt lat="43.13970320389932" lon="11.481839540835066"><ele>148.0</ele><time>2026-05-02T12:56:20.999Z</time></trkpt><trkpt lat="43.13974497173307" lon="11.481954345432122"><ele>148.0</ele><time>2026-05-02T12:56:21.999Z</time></trkpt><trkpt lat="43.13978380282933" lon="11.48206850805006"><ele>148.0</ele><time>2026-05-02T12:56:22.999Z</time></trkpt><trkpt lat="43.139819181374754" lon="11.482172485007816"><ele>148.0</ele><time>2026-05-02T12:56:23.999Z</time></trkpt><trkpt lat="43.13985186910598" lon="11.482269911220149"><ele>148.0</ele><time>2026-05-02T12:56:24.999Z</time></trkpt><trkpt lat="43.13988264461648" lon="11.482364886130297"><ele>147.0</ele><time>2026-05-02T12:56:25.999Z</time></trkpt><trkpt lat="43.13991368884848" lon="11.482449207892481"><ele>146.0</ele><time>2026-05-02T12:56:30.999Z</time></trkpt><trkpt lat="43.14003761668122" lon="11.482425897493108"><ele>145.0</ele><time>2026-05-02T12:56:32.999Z</time></trkpt><trkpt lat="43.14010974484609" lon="11.482369590016011"><ele>144.0</ele><time>2026-05-02T12:56:33.999Z</time></trkpt><trkpt lat="43.140198207321866" lon="11.482295739861259"><ele>143.0</ele><time>2026-05-02T12:56:35Z</time></trkpt><trkpt lat="43.14029061217345" lon="11.48222584714362"><ele>143.0</ele><time>2026-05-02T12:56:36Z</time></trkpt><trkpt lat="43.14037755823945" lon="11.48216275518269"><ele>143.0</ele><time>2026-05-02T12:56:37Z</time></trkpt><trkpt lat="43.14045506787682" lon="11.482115326030936"><ele>143.0</ele><time>2026-05-02T12:56:38Z</time></trkpt><trkpt lat="43.140518166365624" lon="11.482087351152263"><ele>143.0</ele><time>2026-05-02T12:56:39Z</time></trkpt><trkpt lat="43.1406326351632" lon="11.482132430191697"><ele>143.0</ele><time>2026-05-02T12:56:41Z</time></trkpt><trkpt lat="43.14071288657766" lon="11.482166234546785"><ele>142.6</ele><time>2026-05-02T12:56:43Z</time></trkpt><trkpt lat="43.14082822929025" lon="11.4821091998335"><ele>142.20000000000002</ele><time>2026-05-02T13:00:09Z</time></trkpt><trkpt lat="43.14087609464454" lon="11.482036994546787"><ele>141.8</ele><time>2026-05-02T13:00:11Z</time></trkpt><trkpt lat="43.14089751691206" lon="11.481924404650803"><ele>141.4</ele><time>2026-05-02T13:00:13Z</time></trkpt><trkpt lat="43.140852860002084" lon="11.481859050425522"><ele>141.0</ele><time>2026-05-02T13:00:17Z</time></trkpt><trkpt lat="43.14074784120573" lon="11.481876400516779"><ele>141.14285714285714</ele><time>2026-05-02T13:00:19Z</time></trkpt><trkpt lat="43.14068040443344" lon="11.481919274398189"><ele>141.28571428571428</ele><time>2026-05-02T13:00:20Z</time></trkpt><trkpt lat="43.14062262015733" lon="11.481971843344432"><ele>141.42857142857142</ele><time>2026-05-02T13:00:21Z</time></trkpt><trkpt lat="43.1405596594049" lon="11.482016906162878"><ele>141.57142857142856</ele><time>2026-05-02T13:00:22Z</time></trkpt><trkpt lat="43.140495251971025" lon="11.482063881977318"><ele>141.7142857142857</ele><time>2026-05-02T13:00:23Z</time></trkpt><trkpt lat="43.140428865408616" lon="11.48211352491607"><ele>141.85714285714286</ele><time>2026-05-02T13:00:24Z</time></trkpt><trkpt lat="43.140360789322216" lon="11.482149462604845"><ele>142.0</ele><time>2026-05-02T13:00:25Z</time></trkpt><trkpt lat="43.14029449469731" lon="11.482198059995623"><ele>142.14285714285714</ele><time>2026-05-02T13:00:26Z</time></trkpt><trkpt lat="43.14022767657113" lon="11.482253419147073"><ele>142.28571428571428</ele><time>2026-05-02T13:00:27Z</time></trkpt><trkpt lat="43.140160369201446" lon="11.482298660506041"><ele>142.42857142857142</ele><time>2026-05-02T13:00:28Z</time></trkpt><trkpt lat="43.14009254664244" lon="11.482340690984486"><ele>142.57142857142856</ele><time>2026-05-02T13:00:29Z</time></trkpt><trkpt lat="43.14003475859027" lon="11.482378933513386"><ele>142.71428571428572</ele><time>2026-05-02T13:00:30Z</time></trkpt><trkpt lat="43.1399726943985" lon="11.4824210261328"><ele>142.85714285714283</ele><time>2026-05-02T13:00:31Z</time></trkpt><trkpt lat="43.139907908052265" lon="11.482470034114806"><ele>143.0</ele><time>2026-05-02T13:00:32Z</time></trkpt><trkpt lat="43.13985016886563" lon="11.482515954680894"><ele>143.8</ele><time>2026-05-02T13:00:33Z</time></trkpt><trkpt lat="43.13978982016753" lon="11.482561912028597"><ele>144.60000000000002</ele><time>2026-05-02T13:00:34Z</time></trkpt><trkpt lat="43.139726325350836" lon="11.482609283249348"><ele>145.39999999999998</ele><time>2026-05-02T13:00:35.001Z</time></trkpt><trkpt lat="43.13965598633954" lon="11.4826603367048"><ele>146.2</ele><time>2026-05-02T13:00:36.001Z</time></trkpt><trkpt lat="43.139556486993584" lon="11.482728829793734"><ele>147.0</ele><time>2026-05-02T13:00:37.001Z</time></trkpt><trkpt lat="43.13943118634128" lon="11.482818567336835"><ele>147.0</ele><time>2026-05-02T13:00:38.001Z</time></trkpt><trkpt lat="43.139305797525324" lon="11.482913004259217"><ele>147.0</ele><time>2026-05-02T13:00:39.001Z</time></trkpt><trkpt lat="43.139172831673456" lon="11.483004667146384"><ele>147.0</ele><time>2026-05-02T13:00:40.001Z</time></trkpt><trkpt lat="43.139027478268126" lon="11.483090254847351"><ele>146.66666666666666</ele><time>2026-05-02T13:00:41.001Z</time></trkpt><trkpt lat="43.138866468600646" lon="11.483159260901552"><ele>146.33333333333331</ele><time>2026-05-02T13:00:42.001Z</time></trkpt><trkpt lat="43.13870397740317" lon="11.48322468916701"><ele>146.0</ele><time>2026-05-02T13:00:43.001Z</time></trkpt><trkpt lat="43.138527557440106" lon="11.483264016187533"><ele>146.0</ele><time>2026-05-02T13:00:44.001Z</time></trkpt><trkpt lat="43.13837095194111" lon="11.483302955728535"><ele>146.0</ele><time>2026-05-02T13:00:45.001Z</time></trkpt><trkpt lat="43.138213888853734" lon="11.483332888824869"><ele>146.0</ele><time>2026-05-02T13:00:46.001Z</time></trkpt><trkpt lat="43.13805751701915" lon="11.483347348870872"><ele>146.33333333333331</ele><time>2026-05-02T13:00:47.001Z</time></trkpt><trkpt lat="43.13790436714586" lon="11.48334550802318"><ele>146.66666666666666</ele><time>2026-05-02T13:00:48.001Z</time></trkpt><trkpt lat="43.13774828080072" lon="11.48334844905081"><ele>147.0</ele><time>2026-05-02T13:00:49.001Z</time></trkpt><trkpt lat="43.137591850830454" lon="11.483352300077678"><ele>147.0</ele><time>2026-05-02T13:00:50.001Z</time></trkpt><trkpt lat="43.13743940325285" lon="11.483358546764626"><ele>147.0</ele><time>2026-05-02T13:00:51.001Z</time></trkpt><trkpt lat="43.13729562969554" lon="11.48336725855617"><ele>147.0</ele><time>2026-05-02T13:00:52.001Z</time></trkpt><trkpt lat="43.13716478137124" lon="11.483366844503228"><ele>147.0</ele><time>2026-05-02T13:00:53.001Z</time></trkpt><trkpt lat="43.137052931659255" lon="11.483367975458584"><ele>146.79999999999998</ele><time>2026-05-02T13:00:54.001Z</time></trkpt><trkpt lat="43.13696347587933" lon="11.48337144357159"><ele>146.6</ele><time>2026-05-02T13:00:55.001Z</time></trkpt><trkpt lat="43.13689257747782" lon="11.483364984853862"><ele>146.39999999999998</ele><time>2026-05-02T13:00:56.001Z</time></trkpt><trkpt lat="43.13680236292136" lon="11.483306014045054"><ele>146.2</ele><time>2026-05-02T13:00:58.001Z</time></trkpt><trkpt lat="43.13680227901672" lon="11.483100089770216"><ele>146.0</ele><time>2026-05-02T13:01:00.001Z</time></trkpt><trkpt lat="43.136781347951555" lon="11.48295648620936"><ele>146.0</ele><time>2026-05-02T13:01:01.001Z</time></trkpt><trkpt lat="43.13677975140178" lon="11.482819128244218"><ele>146.0</ele><time>2026-05-02T13:01:02.001Z</time></trkpt><trkpt lat="43.13677493065327" lon="11.482683433366931"><ele>146.0</ele><time>2026-05-02T13:01:03.001Z</time></trkpt><trkpt lat="43.13677607314637" lon="11.482552290738269"><ele>146.0</ele><time>2026-05-02T13:01:04.001Z</time></trkpt><trkpt lat="43.13677351515862" lon="11.48243906516923"><ele>146.0</ele><time>2026-05-02T13:01:05.001Z</time></trkpt><trkpt lat="43.136762353169736" lon="11.482307019841867"><ele>146.0</ele><time>2026-05-02T13:01:07.001Z</time></trkpt><trkpt lat="43.13675333148067" lon="11.482180040339635"><ele>146.0</ele><time>2026-05-02T13:01:09.001Z</time></trkpt><trkpt lat="43.13674414702362" lon="11.48202710387203"><ele>146.0</ele><time>2026-05-02T13:01:11.002Z</time></trkpt><trkpt lat="43.13671238180893" lon="11.481895963355052"><ele>146.0</ele><time>2026-05-02T13:01:15.002Z</time></trkpt><trkpt lat="43.1366834244238" lon="11.481801858853121"><ele>146.0</ele><time>2026-05-02T13:01:16.002Z</time></trkpt><trkpt lat="43.136658478215104" lon="11.481686230446018"><ele>146.25</ele><time>2026-05-02T13:01:17.002Z</time></trkpt><trkpt lat="43.13663627286778" lon="11.481548923709468"><ele>146.5</ele><time>2026-05-02T13:01:18.002Z</time></trkpt><trkpt lat="43.13660054594198" lon="11.48139372284579"><ele>146.75</ele><time>2026-05-02T13:01:19.002Z</time></trkpt><trkpt lat="43.136554172909314" lon="11.481227272733884"><ele>147.0</ele><time>2026-05-02T13:01:20.002Z</time></trkpt><trkpt lat="43.136509596926395" lon="11.481077178573322"><ele>146.6</ele><time>2026-05-02T13:01:21.002Z</time></trkpt><trkpt lat="43.136469632551815" lon="11.480949716997099"><ele>146.2</ele><time>2026-05-02T13:01:22.002Z</time></trkpt><trkpt lat="43.13643719946596" lon="11.480840606120461"><ele>145.8</ele><time>2026-05-02T13:01:23.002Z</time></trkpt><trkpt lat="43.13641183274006" lon="11.480719570761005"><ele>145.4</ele><time>2026-05-02T13:01:24.002Z</time></trkpt><trkpt lat="43.13637172879724" lon="11.480560314917032"><ele>145.0</ele><time>2026-05-02T13:01:25.002Z</time></trkpt><trkpt lat="43.13631713433616" lon="11.480383961776475"><ele>144.66666666666669</ele><time>2026-05-02T13:01:26.002Z</time></trkpt><trkpt lat="43.13626828057941" lon="11.480191756481242"><ele>144.33333333333334</ele><time>2026-05-02T13:01:27.002Z</time></trkpt><trkpt lat="43.13622263158675" lon="11.479986896691374"><ele>144.0</ele><time>2026-05-02T13:01:28.002Z</time></trkpt><trkpt lat="43.13617861840135" lon="11.479771721433893"><ele>144.0</ele><time>2026-05-02T13:01:29.002Z</time></trkpt><trkpt lat="43.13612778806855" lon="11.479556094919708"><ele>144.0</ele><time>2026-05-02T13:01:30.002Z</time></trkpt><trkpt lat="43.13607545412887" lon="11.479333806095994"><ele>144.0</ele><time>2026-05-02T13:01:31.002Z</time></trkpt><trkpt lat="43.136020342828594" lon="11.479113340516633"><ele>144.0</ele><time>2026-05-02T13:01:32.002Z</time></trkpt><trkpt lat="43.13596925307314" lon="11.478896175840406"><ele>144.0</ele><time>2026-05-02T13:01:33.002Z</time></trkpt><trkpt lat="43.1359182245975" lon="11.478677138094849"><ele>144.0</ele><time>2026-05-02T13:01:34.002Z</time></trkpt><trkpt lat="43.135869541970195" lon="11.47846166809835"><ele>144.33333333333334</ele><time>2026-05-02T13:01:35.002Z</time></trkpt><trkpt lat="43.13582202663668" lon="11.478249271728426"><ele>144.66666666666669</ele><time>2026-05-02T13:01:36.002Z</time></trkpt><trkpt lat="43.13578091845968" lon="11.47805565567068"><ele>145.0</ele><time>2026-05-02T13:01:37.002Z</time></trkpt><trkpt lat="43.13574105646844" lon="11.477864036535326"><ele>144.0</ele><time>2026-05-02T13:01:38.002Z</time></trkpt><trkpt lat="43.13569612234221" lon="11.477659304843318"><ele>143.0</ele><time>2026-05-02T13:01:39.002Z</time></trkpt><trkpt lat="43.13564004773588" lon="11.47742914377114"><ele>142.0</ele><time>2026-05-02T13:01:40.002Z</time></trkpt><trkpt lat="43.13559647579604" lon="11.477172306469015"><ele>141.33333333333334</ele><time>2026-05-02T13:01:41.002Z</time></trkpt><trkpt lat="43.13553927465155" lon="11.476898119850494"><ele>140.66666666666666</ele><time>2026-05-02T13:01:42.002Z</time></trkpt><trkpt lat="43.13546684356723" lon="11.476612750925069"><ele>140.0</ele><time>2026-05-02T13:01:43.002Z</time></trkpt><trkpt lat="43.13541601573645" lon="11.476339807296446"><ele>139.33333333333331</ele><time>2026-05-02T13:01:44.002Z</time></trkpt><trkpt lat="43.135351543123704" lon="11.476093802365611"><ele>138.66666666666666</ele><time>2026-05-02T13:01:45.002Z</time></trkpt><trkpt lat="43.13528461792871" lon="11.475872611020625"><ele>138.0</ele><time>2026-05-02T13:01:46.002Z</time></trkpt><trkpt lat="43.13522237429786" lon="11.475633558456895"><ele>138.0</ele><time>2026-05-02T13:01:47.003Z</time></trkpt><trkpt lat="43.13516255481118" lon="11.475385619743449"><ele>138.0</ele><time>2026-05-02T13:01:48.003Z</time></trkpt><trkpt lat="43.1351033068784" lon="11.475128753280645"><ele>138.0</ele><time>2026-05-02T13:01:49.003Z</time></trkpt><trkpt lat="43.135045723830785" lon="11.47485248338295"><ele>138.0</ele><time>2026-05-02T13:01:50.003Z</time></trkpt><trkpt lat="43.13499243430645" lon="11.474569112558038"><ele>138.0</ele><time>2026-05-02T13:01:51.003Z</time></trkpt><trkpt lat="43.13493767553625" lon="11.474269823651532"><ele>138.0</ele><time>2026-05-02T13:01:52.003Z</time></trkpt><trkpt lat="43.13487890715541" lon="11.47396206818754"><ele>138.0</ele><time>2026-05-02T13:01:53.003Z</time></trkpt><trkpt lat="43.13481426495123" lon="11.473645705403204"><ele>138.0</ele><time>2026-05-02T13:01:54.003Z</time></trkpt><trkpt lat="43.134752241944085" lon="11.473332400372316"><ele>138.0</ele><time>2026-05-02T13:01:55.003Z</time></trkpt><trkpt lat="43.13469986053955" lon="11.473058767382659"><ele>138.0</ele><time>2026-05-02T13:01:56.003Z</time></trkpt><trkpt lat="43.1346542179014" lon="11.472826035128893"><ele>138.0</ele><time>2026-05-02T13:01:57.003Z</time></trkpt><trkpt lat="43.134613431816774" lon="11.472615924692132"><ele>138.0</ele><time>2026-05-02T13:01:58.003Z</time></trkpt><trkpt lat="43.13457930238369" lon="11.472425107318694"><ele>138.0</ele><time>2026-05-02T13:01:59.003Z</time></trkpt><trkpt lat="43.13454707208855" lon="11.47224578844747"><ele>138.0</ele><time>2026-05-02T13:02:00.003Z</time></trkpt><trkpt lat="43.13451133516679" lon="11.472073760857386"><ele>138.0</ele><time>2026-05-02T13:02:01.003Z</time></trkpt><trkpt lat="43.13448010840446" lon="11.471907287562347"><ele>138.0</ele><time>2026-05-02T13:02:02.003Z</time></trkpt><trkpt lat="43.13445255128342" lon="11.471759169996899"><ele>138.0</ele><time>2026-05-02T13:02:03.003Z</time></trkpt><trkpt lat="43.13442522858081" lon="11.471626261931464"><ele>138.0</ele><time>2026-05-02T13:02:04.003Z</time></trkpt><trkpt lat="43.13440299581587" lon="11.471515938576342"><ele>138.0</ele><time>2026-05-02T13:02:05.003Z</time></trkpt><trkpt lat="43.13439568654753" lon="11.471428649018453"><ele>138.0</ele><time>2026-05-02T13:02:06.003Z</time></trkpt><trkpt lat="43.13442914558987" lon="11.471304886297643"><ele>138.0</ele><time>2026-05-02T13:02:08.003Z</time></trkpt><trkpt lat="43.134535742830906" lon="11.471277493676137"><ele>138.0</ele><time>2026-05-02T13:02:09.003Z</time></trkpt><trkpt lat="43.13464978032774" lon="11.471215740337676"><ele>138.0</ele><time>2026-05-02T13:02:10.003Z</time></trkpt><trkpt lat="43.13477916749575" lon="11.471145674915778"><ele>138.0</ele><time>2026-05-02T13:02:11.003Z</time></trkpt><trkpt lat="43.13491132215383" lon="11.471050987441194"><ele>138.66666666666666</ele><time>2026-05-02T13:02:11.998Z</time></trkpt><trkpt lat="43.135055812175075" lon="11.470974769488766"><ele>139.33333333333331</ele><time>2026-05-02T13:02:12.998Z</time></trkpt><trkpt lat="43.135204679813796" lon="11.47089353594388"><ele>140.0</ele><time>2026-05-02T13:02:13.998Z</time></trkpt><trkpt lat="43.13535803675445" lon="11.470815277838495"><ele>140.0</ele><time>2026-05-02T13:02:14.998Z</time></trkpt><trkpt lat="43.13550961647681" lon="11.470737620494974"><ele>140.0</ele><time>2026-05-02T13:02:15.998Z</time></trkpt><trkpt lat="43.135659275554204" lon="11.470654727190084"><ele>140.0</ele><time>2026-05-02T13:02:16.998Z</time></trkpt><trkpt lat="43.13580947097527" lon="11.470572507268995"><ele>140.33333333333331</ele><time>2026-05-02T13:02:17.998Z</time></trkpt><trkpt lat="43.135966037003676" lon="11.470487955227055"><ele>140.66666666666666</ele><time>2026-05-02T13:02:18.999Z</time></trkpt><trkpt lat="43.13612913604027" lon="11.47039861468531"><ele>141.0</ele><time>2026-05-02T13:02:19.999Z</time></trkpt><trkpt lat="43.13628905151184" lon="11.470303893409323"><ele>141.0</ele><time>2026-05-02T13:02:20.999Z</time></trkpt><trkpt lat="43.13643168209267" lon="11.470219522804932"><ele>141.0</ele><time>2026-05-02T13:02:21.999Z</time></trkpt><trkpt lat="43.13656216889562" lon="11.470146385040925"><ele>141.0</ele><time>2026-05-02T13:02:22.999Z</time></trkpt><trkpt lat="43.136685740186316" lon="11.470080276870977"><ele>141.0</ele><time>2026-05-02T13:02:23.999Z</time></trkpt><trkpt lat="43.136807994162" lon="11.470014596713664"><ele>140.75</ele><time>2026-05-02T13:02:24.999Z</time></trkpt><trkpt lat="43.136917874413314" lon="11.469947929712154"><ele>140.5</ele><time>2026-05-02T13:02:25.999Z</time></trkpt><trkpt lat="43.137020033476986" lon="11.469890323315257"><ele>140.25</ele><time>2026-05-02T13:02:26.999Z</time></trkpt><trkpt lat="43.13712873046081" lon="11.469825510285693"><ele>140.0</ele><time>2026-05-02T13:02:27.999Z</time></trkpt><trkpt lat="43.13725001766186" lon="11.469749915587057"><ele>140.0</ele><time>2026-05-02T13:02:28.999Z</time></trkpt><trkpt lat="43.13738395475507" lon="11.469655765357343"><ele>140.0</ele><time>2026-05-02T13:02:29.999Z</time></trkpt><trkpt lat="43.13752736043841" lon="11.4695406776929"><ele>140.0</ele><time>2026-05-02T13:02:30.999Z</time></trkpt><trkpt lat="43.13767287538945" lon="11.469402100996662"><ele>140.33333333333331</ele><time>2026-05-02T13:02:31.999Z</time></trkpt><trkpt lat="43.13781533447739" lon="11.469257698106412"><ele>140.66666666666666</ele><time>2026-05-02T13:02:32.999Z</time></trkpt><trkpt lat="43.1379542860451" lon="11.46911316488358"><ele>141.0</ele><time>2026-05-02T13:02:33.999Z</time></trkpt><trkpt lat="43.138089998018735" lon="11.468969608476087"><ele>141.0</ele><time>2026-05-02T13:02:34.999Z</time></trkpt><trkpt lat="43.13822172745096" lon="11.46882562525151"><ele>141.0</ele><time>2026-05-02T13:02:35.999Z</time></trkpt><trkpt lat="43.13835420640674" lon="11.468682087261051"><ele>141.0</ele><time>2026-05-02T13:02:36.999Z</time></trkpt><trkpt lat="43.138481734989426" lon="11.468547878540157"><ele>140.66666666666666</ele><time>2026-05-02T13:02:38Z</time></trkpt><trkpt lat="43.13861781032942" lon="11.468404578561591"><ele>140.33333333333331</ele><time>2026-05-02T13:02:39Z</time></trkpt><trkpt lat="43.13875745642985" lon="11.468259460357567"><ele>140.0</ele><time>2026-05-02T13:02:40Z</time></trkpt><trkpt lat="43.13890726885839" lon="11.468102141341967"><ele>140.66666666666666</ele><time>2026-05-02T13:02:41Z</time></trkpt><trkpt lat="43.13907922713623" lon="11.467934093828783"><ele>141.33333333333334</ele><time>2026-05-02T13:02:42Z</time></trkpt><trkpt lat="43.13925112143243" lon="11.467757742182734"><ele>142.0</ele><time>2026-05-02T13:02:43Z</time></trkpt><trkpt lat="43.13943226547415" lon="11.467570601762016"><ele>142.0</ele><time>2026-05-02T13:02:44Z</time></trkpt><trkpt lat="43.13959948143257" lon="11.467396579498812"><ele>142.0</ele><time>2026-05-02T13:02:45Z</time></trkpt><trkpt lat="43.139755407018804" lon="11.467242680062762"><ele>142.0</ele><time>2026-05-02T13:02:46Z</time></trkpt><trkpt lat="43.13991382641761" lon="11.46707652924995"><ele>142.66666666666669</ele><time>2026-05-02T13:02:47Z</time></trkpt><trkpt lat="43.14007777489497" lon="11.466904473040461"><ele>143.33333333333334</ele><time>2026-05-02T13:02:48Z</time></trkpt><trkpt lat="43.14025021252953" lon="11.46672069827652"><ele>144.0</ele><time>2026-05-02T13:02:49Z</time></trkpt><trkpt lat="43.14042382017722" lon="11.466534789477755"><ele>144.0</ele><time>2026-05-02T13:02:50Z</time></trkpt><trkpt lat="43.14058974021334" lon="11.466354952382384"><ele>144.0</ele><time>2026-05-02T13:02:51Z</time></trkpt><trkpt lat="43.1407607717127" lon="11.466170202135832"><ele>144.0</ele><time>2026-05-02T13:02:52Z</time></trkpt><trkpt lat="43.14092963609579" lon="11.465994734545973"><ele>143.66666666666666</ele><time>2026-05-02T13:02:53Z</time></trkpt><trkpt lat="43.141094555390765" lon="11.465824105845764"><ele>143.33333333333331</ele><time>2026-05-02T13:02:54Z</time></trkpt><trkpt lat="43.14126277672455" lon="11.465653360695208"><ele>143.0</ele><time>2026-05-02T13:02:55Z</time></trkpt><trkpt lat="43.14143431856425" lon="11.46547656577921"><ele>143.66666666666666</ele><time>2026-05-02T13:02:56Z</time></trkpt><trkpt lat="43.14159677873874" lon="11.465304971042618"><ele>144.33333333333334</ele><time>2026-05-02T13:02:57Z</time></trkpt><trkpt lat="43.141761267305796" lon="11.46513181634976"><ele>145.0</ele><time>2026-05-02T13:02:58Z</time></trkpt><trkpt lat="43.141919725059076" lon="11.464963968603456"><ele>145.0</ele><time>2026-05-02T13:02:59Z</time></trkpt><trkpt lat="43.142077749618316" lon="11.464798697599228"><ele>145.0</ele><time>2026-05-02T13:03:00Z</time></trkpt><trkpt lat="43.142220882177405" lon="11.464647392326924"><ele>145.0</ele><time>2026-05-02T13:03:01Z</time></trkpt><trkpt lat="43.14236341623843" lon="11.464494015838227"><ele>145.33333333333334</ele><time>2026-05-02T13:03:02.001Z</time></trkpt><trkpt lat="43.14250206367077" lon="11.464343391020998"><ele>145.66666666666666</ele><time>2026-05-02T13:03:03.001Z</time></trkpt><trkpt lat="43.142632090697475" lon="11.464174931360091"><ele>146.0</ele><time>2026-05-02T13:03:04.001Z</time></trkpt><trkpt lat="43.14274327284013" lon="11.463978054519432"><ele>146.33333333333331</ele><time>2026-05-02T13:03:05.001Z</time></trkpt><trkpt lat="43.142846081486034" lon="11.4637530500513"><ele>146.66666666666666</ele><time>2026-05-02T13:03:06.001Z</time></trkpt><trkpt lat="43.14293578140664" lon="11.463528155128039"><ele>147.0</ele><time>2026-05-02T13:03:07.001Z</time></trkpt><trkpt lat="43.14302722868817" lon="11.463311023982286"><ele>147.0</ele><time>2026-05-02T13:03:08.001Z</time></trkpt><trkpt lat="43.14310348913307" lon="11.463117536306497"><ele>147.0</ele><time>2026-05-02T13:03:09.001Z</time></trkpt><trkpt lat="43.14317174666788" lon="11.462939500375848"><ele>147.0</ele><time>2026-05-02T13:03:10.001Z</time></trkpt><trkpt lat="43.14324517187287" lon="11.462747984585414"><ele>148.66666666666666</ele><time>2026-05-02T13:03:11.001Z</time></trkpt><trkpt lat="43.14332478785593" lon="11.462530908078367"><ele>150.33333333333331</ele><time>2026-05-02T13:03:12.001Z</time></trkpt><trkpt lat="43.14342474230415" lon="11.462334053302074"><ele>152.0</ele><time>2026-05-02T13:03:13.001Z</time></trkpt><trkpt lat="43.14349556352606" lon="11.462145747687666"><ele>151.5</ele><time>2026-05-02T13:03:14.001Z</time></trkpt><trkpt lat="43.14358605722213" lon="11.462003869244148"><ele>151.0</ele><time>2026-05-02T13:03:15.001Z</time></trkpt><trkpt lat="43.14369781059807" lon="11.461872852934107"><ele>150.5</ele><time>2026-05-02T13:03:16.001Z</time></trkpt><trkpt lat="43.143835323335026" lon="11.461763339543095"><ele>150.0</ele><time>2026-05-02T13:03:17.001Z</time></trkpt><trkpt lat="43.143972168460635" lon="11.461640017974768"><ele>152.0</ele><time>2026-05-02T13:03:18.001Z</time></trkpt><trkpt lat="43.14412991045408" lon="11.46154276318909"><ele>154.0</ele><time>2026-05-02T13:03:19.001Z</time></trkpt><trkpt lat="43.144286079986614" lon="11.46146136513774"><ele>156.0</ele><time>2026-05-02T13:03:20.001Z</time></trkpt><trkpt lat="43.14444592576475" lon="11.461385289837999"><ele>156.0</ele><time>2026-05-02T13:03:21.001Z</time></trkpt><trkpt lat="43.14459783616263" lon="11.461316707441325"><ele>156.0</ele><time>2026-05-02T13:03:22.001Z</time></trkpt><trkpt lat="43.14475185128744" lon="11.461248303819547"><ele>156.0</ele><time>2026-05-02T13:03:23.001Z</time></trkpt><trkpt lat="43.14489129290009" lon="11.461178846906979"><ele>157.2</ele><time>2026-05-02T13:03:24.001Z</time></trkpt><trkpt lat="43.14501022423527" lon="11.46110583573893"><ele>158.39999999999998</ele><time>2026-05-02T13:03:25.001Z</time></trkpt><trkpt lat="43.14511597819653" lon="11.461028502759019"><ele>159.6</ele><time>2026-05-02T13:03:26.001Z</time></trkpt><trkpt lat="43.145205234094966" lon="11.460956662667554"><ele>160.79999999999998</ele><time>2026-05-02T13:03:27.001Z</time></trkpt><trkpt lat="43.14527753829228" lon="11.460891465578003"><ele>162.0</ele><time>2026-05-02T13:03:28.001Z</time></trkpt><trkpt lat="43.14531981772274" lon="11.460807306341362"><ele>162.0</ele><time>2026-05-02T13:03:29.001Z</time></trkpt><trkpt lat="43.14536357459125" lon="11.460736605450524"><ele>162.0</ele><time>2026-05-02T13:03:30.001Z</time></trkpt><trkpt lat="43.14551599846878" lon="11.460850523103176"><ele>162.0</ele><time>2026-05-02T13:03:31.001Z</time></trkpt><trkpt lat="43.14561786819017" lon="11.46083092115663"><ele>162.0</ele><time>2026-05-02T13:03:32.001Z</time></trkpt><trkpt lat="43.14572034190625" lon="11.46079090220158"><ele>162.25</ele><time>2026-05-02T13:03:33.002Z</time></trkpt><trkpt lat="43.145842186058616" lon="11.460771082504634"><ele>162.5</ele><time>2026-05-02T13:03:34.002Z</time></trkpt><trkpt lat="43.14597699464621" lon="11.460736152943651"><ele>162.75</ele><time>2026-05-02T13:03:35.002Z</time></trkpt><trkpt lat="43.146123363266966" lon="11.460694563326188"><ele>163.0</ele><time>2026-05-02T13:03:36.002Z</time></trkpt><trkpt lat="43.146279722627945" lon="11.460648454178868"><ele>163.0</ele><time>2026-05-02T13:03:37.002Z</time></trkpt><trkpt lat="43.14644205840198" lon="11.460595169854574"><ele>163.0</ele><time>2026-05-02T13:03:38.002Z</time></trkpt><trkpt lat="43.14661594221144" lon="11.460532370327236"><ele>163.0</ele><time>2026-05-02T13:03:39.002Z</time></trkpt><trkpt lat="43.14677726004217" lon="11.460478755436725"><ele>162.0</ele><time>2026-05-02T13:03:40.002Z</time></trkpt><trkpt lat="43.14692581793626" lon="11.46043281979776"><ele>161.0</ele><time>2026-05-02T13:03:41.002Z</time></trkpt><trkpt lat="43.14708808098353" lon="11.460385798435789"><ele>160.0</ele><time>2026-05-02T13:03:42.002Z</time></trkpt><trkpt lat="43.147273965990145" lon="11.460333747526537"><ele>158.0</ele><time>2026-05-02T13:03:43.002Z</time></trkpt><trkpt lat="43.1474641548356" lon="11.46029006830634"><ele>156.0</ele><time>2026-05-02T13:03:44.002Z</time></trkpt><trkpt lat="43.14763986353906" lon="11.460269929360633"><ele>154.0</ele><time>2026-05-02T13:03:45.002Z</time></trkpt><trkpt lat="43.14780952542025" lon="11.460276523655548"><ele>154.0</ele><time>2026-05-02T13:03:46.002Z</time></trkpt><trkpt lat="43.14796440478454" lon="11.460298884559352"><ele>154.0</ele><time>2026-05-02T13:03:47.002Z</time></trkpt><trkpt lat="43.14810396267852" lon="11.460356620926545"><ele>154.0</ele><time>2026-05-02T13:03:48.002Z</time></trkpt><trkpt lat="43.14823227237569" lon="11.460435080510127"><ele>154.0</ele><time>2026-05-02T13:03:49.002Z</time></trkpt><trkpt lat="43.14834105959555" lon="11.460483052319136"><ele>153.5</ele><time>2026-05-02T13:03:50.002Z</time></trkpt><trkpt lat="43.14841932440046" lon="11.460637092976716"><ele>153.0</ele><time>2026-05-02T13:03:51.002Z</time></trkpt><trkpt lat="43.14850557350509" lon="11.460783466378846"><ele>152.5</ele><time>2026-05-02T13:03:52.002Z</time></trkpt><trkpt lat="43.1485973469753" lon="11.460978687656215"><ele>152.0</ele><time>2026-05-02T13:03:53.002Z</time></trkpt><trkpt lat="43.148688236849566" lon="11.461226877858476"><ele>151.0</ele><time>2026-05-02T13:03:54.002Z</time></trkpt><trkpt lat="43.14879296599312" lon="11.461498637604281"><ele>150.0</ele><time>2026-05-02T13:03:55.002Z</time></trkpt><trkpt lat="43.148909358849274" lon="11.461774751390426"><ele>150.0</ele><time>2026-05-02T13:03:56.002Z</time></trkpt><trkpt lat="43.149016082913256" lon="11.462029253345642"><ele>150.0</ele><time>2026-05-02T13:03:57.002Z</time></trkpt><trkpt lat="43.149111127096134" lon="11.462250083778791"><ele>150.0</ele><time>2026-05-02T13:03:58.002Z</time></trkpt><trkpt lat="43.14920087529091" lon="11.462449268591373"><ele>148.5</ele><time>2026-05-02T13:03:59.002Z</time></trkpt><trkpt lat="43.149288541221175" lon="11.462628808452354"><ele>147.0</ele><time>2026-05-02T13:04:00.002Z</time></trkpt><trkpt lat="43.149377477073514" lon="11.462779706652306"><ele>145.5</ele><time>2026-05-02T13:04:01.002Z</time></trkpt><trkpt lat="43.14946780131693" lon="11.462903315736595"><ele>144.0</ele><time>2026-05-02T13:04:02.002Z</time></trkpt><trkpt lat="43.14956115939602" lon="11.463006520006203"><ele>144.0</ele><time>2026-05-02T13:04:03.002Z</time></trkpt><trkpt lat="43.14966187376453" lon="11.463090694516339"><ele>144.0</ele><time>2026-05-02T13:04:04.002Z</time></trkpt><trkpt lat="43.149768055715626" lon="11.463143415751938"><ele>144.0</ele><time>2026-05-02T13:04:05.002Z</time></trkpt><trkpt lat="43.14987363078947" lon="11.463159877481722"><ele>144.0</ele><time>2026-05-02T13:04:06.003Z</time></trkpt><trkpt lat="43.149984813384464" lon="11.463148633204682"><ele>144.0</ele><time>2026-05-02T13:04:07.003Z</time></trkpt><trkpt lat="43.150082782633945" lon="11.463109986145504"><ele>144.0</ele><time>2026-05-02T13:04:08.003Z</time></trkpt><trkpt lat="43.150188415494775" lon="11.463050982919112"><ele>144.0</ele><time>2026-05-02T13:04:09.003Z</time></trkpt><trkpt lat="43.15031101022253" lon="11.462971718131122"><ele>144.0</ele><time>2026-05-02T13:04:10.003Z</time></trkpt><trkpt lat="43.150467279968595" lon="11.462871664229766"><ele>144.0</ele><time>2026-05-02T13:04:11.003Z</time></trkpt><trkpt lat="43.150642188626094" lon="11.462765391982433"><ele>144.0</ele><time>2026-05-02T13:04:12.003Z</time></trkpt><trkpt lat="43.15080659013231" lon="11.462671902830683"><ele>144.0</ele><time>2026-05-02T13:04:13.003Z</time></trkpt><trkpt lat="43.15096351438201" lon="11.462586510366153"><ele>144.0</ele><time>2026-05-02T13:04:14.003Z</time></trkpt><trkpt lat="43.15112713712567" lon="11.462503908609346"><ele>144.0</ele><time>2026-05-02T13:04:15.003Z</time></trkpt><trkpt lat="43.15129866563285" lon="11.462414905454121"><ele>144.0</ele><time>2026-05-02T13:04:16.003Z</time></trkpt><trkpt lat="43.151480069669525" lon="11.462318470176966"><ele>144.0</ele><time>2026-05-02T13:04:17.003Z</time></trkpt><trkpt lat="43.151666561971496" lon="11.46221556579378"><ele>143.66666666666666</ele><time>2026-05-02T13:04:17.999Z</time></trkpt><trkpt lat="43.151862731755116" lon="11.46210872001688"><ele>143.33333333333331</ele><time>2026-05-02T13:04:18.999Z</time></trkpt><trkpt lat="43.15206762042822" lon="11.462001401201766"><ele>143.0</ele><time>2026-05-02T13:04:19.999Z</time></trkpt><trkpt lat="43.152274290839" lon="11.46189176151784"><ele>144.0</ele><time>2026-05-02T13:04:20.999Z</time></trkpt><trkpt lat="43.15248647574071" lon="11.4617834864332"><ele>145.0</ele><time>2026-05-02T13:04:21.999Z</time></trkpt><trkpt lat="43.1527024169216" lon="11.461673949088649"><ele>145.0</ele><time>2026-05-02T13:04:22.999Z</time></trkpt><trkpt lat="43.152917283579356" lon="11.461560444799165"><ele>145.0</ele><time>2026-05-02T13:04:23.999Z</time></trkpt><trkpt lat="43.15312910550412" lon="11.46144765856114"><ele>144.66666666666669</ele><time>2026-05-02T13:04:24.999Z</time></trkpt><trkpt lat="43.153339396767656" lon="11.46133622899424"><ele>144.33333333333334</ele><time>2026-05-02T13:04:25.999Z</time></trkpt><trkpt lat="43.153548427699036" lon="11.461229929864402"><ele>144.0</ele><time>2026-05-02T13:04:26.999Z</time></trkpt><trkpt lat="43.15376448631789" lon="11.461116338754918"><ele>144.66666666666666</ele><time>2026-05-02T13:04:27.999Z</time></trkpt><trkpt lat="43.15395640038509" lon="11.461017483247634"><ele>145.33333333333331</ele><time>2026-05-02T13:04:28.999Z</time></trkpt><trkpt lat="43.15412732893009" lon="11.460927900104636"><ele>146.0</ele><time>2026-05-02T13:04:29.999Z</time></trkpt><trkpt lat="43.15428330682236" lon="11.46084419151445"><ele>146.0</ele><time>2026-05-02T13:04:30.999Z</time></trkpt><trkpt lat="43.15443054285888" lon="11.460767359070626"><ele>146.0</ele><time>2026-05-02T13:04:31.999Z</time></trkpt><trkpt lat="43.15458404941453" lon="11.460691207248468"><ele>146.0</ele><time>2026-05-02T13:04:32.999Z</time></trkpt><trkpt lat="43.15475132828295" lon="11.460603661541555"><ele>146.0</ele><time>2026-05-02T13:04:34Z</time></trkpt><trkpt lat="43.1549287245358" lon="11.460506672525018"><ele>146.0</ele><time>2026-05-02T13:04:35Z</time></trkpt><trkpt lat="43.155111754066716" lon="11.4604057544724"><ele>146.0</ele><time>2026-05-02T13:04:36Z</time></trkpt><trkpt lat="43.15528568179873" lon="11.460311294150616"><ele>146.0</ele><time>2026-05-02T13:04:37Z</time></trkpt><trkpt lat="43.155471963650555" lon="11.460208097154245"><ele>146.0</ele><time>2026-05-02T13:04:38Z</time></trkpt><trkpt lat="43.15567227142214" lon="11.460105339244887"><ele>146.0</ele><time>2026-05-02T13:04:39Z</time></trkpt><trkpt lat="43.15588246098242" lon="11.459997036622674"><ele>146.0</ele><time>2026-05-02T13:04:40Z</time></trkpt><trkpt lat="43.15608760016336" lon="11.459892635229748"><ele>146.0</ele><time>2026-05-02T13:04:41Z</time></trkpt><trkpt lat="43.15629642675189" lon="11.459773924248793"><ele>146.0</ele><time>2026-05-02T13:04:42Z</time></trkpt><trkpt lat="43.15650586665501" lon="11.459659376471807"><ele>146.66666666666666</ele><time>2026-05-02T13:04:43Z</time></trkpt><trkpt lat="43.15671684872492" lon="11.459548652819574"><ele>147.33333333333334</ele><time>2026-05-02T13:04:44Z</time></trkpt><trkpt lat="43.156923600734615" lon="11.459441376110988"><ele>148.0</ele><time>2026-05-02T13:04:45Z</time></trkpt><trkpt lat="43.1571351687932" lon="11.459329069326678"><ele>148.0</ele><time>2026-05-02T13:04:46Z</time></trkpt><trkpt lat="43.15734945322731" lon="11.459211858181964"><ele>148.0</ele><time>2026-05-02T13:04:47Z</time></trkpt><trkpt lat="43.15756930223201" lon="11.459093430353372"><ele>147.0</ele><time>2026-05-02T13:04:48Z</time></trkpt><trkpt lat="43.15779157448155" lon="11.458973061162542"><ele>146.0</ele><time>2026-05-02T13:04:49Z</time></trkpt><trkpt lat="43.15800903565384" lon="11.458855897703259"><ele>145.5</ele><time>2026-05-02T13:04:50Z</time></trkpt><trkpt lat="43.15822920200918" lon="11.458740103450168"><ele>145.0</ele><time>2026-05-02T13:04:51Z</time></trkpt><trkpt lat="43.15844149647345" lon="11.458630474329762"><ele>145.0</ele><time>2026-05-02T13:04:52Z</time></trkpt><trkpt lat="43.15865904769722" lon="11.458516294235443"><ele>145.0</ele><time>2026-05-02T13:04:53Z</time></trkpt><trkpt lat="43.15887840612491" lon="11.45840105983658"><ele>145.5</ele><time>2026-05-02T13:04:54.001Z</time></trkpt><trkpt lat="43.15909659767824" lon="11.45828199614628"><ele>146.0</ele><time>2026-05-02T13:04:55.001Z</time></trkpt><trkpt lat="43.159311700813056" lon="11.458170181156564"><ele>146.0</ele><time>2026-05-02T13:04:56.001Z</time></trkpt><trkpt lat="43.159506244545895" lon="11.458070979006537"><ele>146.0</ele><time>2026-05-02T13:04:57.001Z</time></trkpt><trkpt lat="43.15968456323808" lon="11.457975956561308"><ele>146.0</ele><time>2026-05-02T13:04:58.001Z</time></trkpt><trkpt lat="43.15984566293171" lon="11.457889089834053"><ele>146.0</ele><time>2026-05-02T13:04:59.001Z</time></trkpt><trkpt lat="43.15998273414082" lon="11.457818885547468"><ele>146.0</ele><time>2026-05-02T13:05:00.001Z</time></trkpt><trkpt lat="43.16010126267346" lon="11.457757206836241"><ele>146.0</ele><time>2026-05-02T13:05:01.001Z</time></trkpt><trkpt lat="43.160201999987564" lon="11.457700905877893"><ele>146.0</ele><time>2026-05-02T13:05:02.001Z</time></trkpt><trkpt lat="43.16028249433927" lon="11.457649202473698"><ele>146.0</ele><time>2026-05-02T13:05:03.001Z</time></trkpt><trkpt lat="43.16034518405471" lon="11.45758372508417"><ele>146.0</ele><time>2026-05-02T13:05:04.001Z</time></trkpt><trkpt lat="43.16039524181026" lon="11.457499607759427"><ele>146.0</ele><time>2026-05-02T13:05:05.001Z</time></trkpt><trkpt lat="43.160430264319125" lon="11.457393058633206"><ele>146.0</ele><time>2026-05-02T13:05:06.001Z</time></trkpt><trkpt lat="43.16044965507799" lon="11.457257788323982"><ele>146.0</ele><time>2026-05-02T13:05:07.001Z</time></trkpt><trkpt lat="43.16045840891935" lon="11.457105391067142"><ele>146.4</ele><time>2026-05-02T13:05:08.001Z</time></trkpt><trkpt lat="43.16048174228273" lon="11.456954485957011"><ele>146.8</ele><time>2026-05-02T13:05:09.001Z</time></trkpt><trkpt lat="43.16052983893682" lon="11.456872564792235"><ele>147.20000000000002</ele><time>2026-05-02T13:05:10.001Z</time></trkpt><trkpt lat="43.1605873709796" lon="11.456834252333591"><ele>147.6</ele><time>2026-05-02T13:05:11.001Z</time></trkpt><trkpt lat="43.160716019442965" lon="11.456836295431852"><ele>148.0</ele><time>2026-05-02T13:05:13.001Z</time></trkpt><trkpt lat="43.16077426015776" lon="11.45689089060698"><ele>148.0</ele><time>2026-05-02T13:05:14.001Z</time></trkpt><trkpt lat="43.16083315445214" lon="11.456981212827916"><ele>148.0</ele><time>2026-05-02T13:05:15.001Z</time></trkpt><trkpt lat="43.160888843189014" lon="11.457132311411552"><ele>148.0</ele><time>2026-05-02T13:05:16.001Z</time></trkpt><trkpt lat="43.1609350395277" lon="11.457290275223192"><ele>148.0</ele><time>2026-05-02T13:05:17.001Z</time></trkpt><trkpt lat="43.160970862489044" lon="11.457446850246715"><ele>148.0</ele><time>2026-05-02T13:05:18.001Z</time></trkpt><trkpt lat="43.161015633213815" lon="11.457616188612224"><ele>148.0</ele><time>2026-05-02T13:05:19.001Z</time></trkpt><trkpt lat="43.16106105068888" lon="11.457784081749807"><ele>148.0</ele><time>2026-05-02T13:05:20.001Z</time></trkpt><trkpt lat="43.16110036234496" lon="11.457980267740576"><ele>148.0</ele><time>2026-05-02T13:05:21.001Z</time></trkpt><trkpt lat="43.16112246827955" lon="11.458185075195725"><ele>147.66666666666669</ele><time>2026-05-02T13:05:22.001Z</time></trkpt><trkpt lat="43.16113578109265" lon="11.458397276661572"><ele>147.33333333333334</ele><time>2026-05-02T13:05:23.001Z</time></trkpt><trkpt lat="43.16115190914581" lon="11.45865297692415"><ele>147.0</ele><time>2026-05-02T13:05:24.002Z</time></trkpt><trkpt lat="43.16117332953309" lon="11.458927410638065"><ele>146.66666666666666</ele><time>2026-05-02T13:05:25.002Z</time></trkpt><trkpt lat="43.161200098868385" lon="11.459201672032435"><ele>146.33333333333331</ele><time>2026-05-02T13:05:26.002Z</time></trkpt><trkpt lat="43.16123154018794" lon="11.459452105464983"><ele>146.0</ele><time>2026-05-02T13:05:27.002Z</time></trkpt><trkpt lat="43.161265960480584" lon="11.459690285675128"><ele>146.0</ele><time>2026-05-02T13:05:28.002Z</time></trkpt><trkpt lat="43.161295390028556" lon="11.459901765275294"><ele>146.0</ele><time>2026-05-02T13:05:29.002Z</time></trkpt><trkpt lat="43.161333349263046" lon="11.460071705179047"><ele>146.0</ele><time>2026-05-02T13:05:30.002Z</time></trkpt><trkpt lat="43.16138737123946" lon="11.460222617015553"><ele>146.0</ele><time>2026-05-02T13:05:31.002Z</time></trkpt><trkpt lat="43.16146755939136" lon="11.460361030207451"><ele>145.66666666666666</ele><time>2026-05-02T13:05:32.002Z</time></trkpt><trkpt lat="43.16158034311778" lon="11.460497403370699"><ele>145.33333333333334</ele><time>2026-05-02T13:05:33.002Z</time></trkpt><trkpt lat="43.16172809367873" lon="11.460638827540278"><ele>145.0</ele><time>2026-05-02T13:05:34.002Z</time></trkpt><trkpt lat="43.16188800112593" lon="11.460796463345268"><ele>145.0</ele><time>2026-05-02T13:05:35.002Z</time></trkpt><trkpt lat="43.162058151156884" lon="11.460963442916531"><ele>145.0</ele><time>2026-05-02T13:05:36.002Z</time></trkpt><trkpt lat="43.162214309411546" lon="11.461127255402529"><ele>145.0</ele><time>2026-05-02T13:05:37.002Z</time></trkpt><trkpt lat="43.16237464276178" lon="11.461291177645831"><ele>144.33333333333334</ele><time>2026-05-02T13:05:38.002Z</time></trkpt><trkpt lat="43.16254202110489" lon="11.461463208072828"><ele>143.66666666666666</ele><time>2026-05-02T13:05:39.002Z</time></trkpt><trkpt lat="43.162695358138095" lon="11.461629302526546"><ele>143.0</ele><time>2026-05-02T13:05:40.002Z</time></trkpt><trkpt lat="43.16284775501661" lon="11.46178513776872"><ele>143.0</ele><time>2026-05-02T13:05:41.002Z</time></trkpt><trkpt lat="43.16299432582774" lon="11.461921237877329"><ele>143.0</ele><time>2026-05-02T13:05:42.002Z</time></trkpt><trkpt lat="43.16314001281984" lon="11.462028253078032"><ele>143.0</ele><time>2026-05-02T13:05:43.002Z</time></trkpt><trkpt lat="43.16328012694817" lon="11.462112007865642"><ele>143.0</ele><time>2026-05-02T13:05:44.002Z</time></trkpt><trkpt lat="43.163415226179666" lon="11.462190317111821"><ele>143.0</ele><time>2026-05-02T13:05:45.002Z</time></trkpt><trkpt lat="43.163518493007565" lon="11.462270968534627"><ele>143.0</ele><time>2026-05-02T13:05:46.002Z</time></trkpt><trkpt lat="43.16358965062824" lon="11.462373076234218"><ele>143.0</ele><time>2026-05-02T13:05:47.002Z</time></trkpt><trkpt lat="43.163643333591466" lon="11.462518438525041"><ele>143.0</ele><time>2026-05-02T13:05:48.002Z</time></trkpt><trkpt lat="43.16371140502897" lon="11.462678472334373"><ele>143.0</ele><time>2026-05-02T13:05:49.002Z</time></trkpt><trkpt lat="43.163794890384025" lon="11.462793109466126"><ele>143.0</ele><time>2026-05-02T13:05:50.002Z</time></trkpt><trkpt lat="43.16392305030529" lon="11.462885930139027"><ele>143.0</ele><time>2026-05-02T13:05:51.002Z</time></trkpt><trkpt lat="43.164088096529916" lon="11.462981265306528"><ele>143.33333333333331</ele><time>2026-05-02T13:05:52.002Z</time></trkpt><trkpt lat="43.16426990110379" lon="11.46310579310497"><ele>143.66666666666666</ele><time>2026-05-02T13:05:53.002Z</time></trkpt><trkpt lat="43.16441873128811" lon="11.463230851889668"><ele>144.0</ele><time>2026-05-02T13:05:54.002Z</time></trkpt><trkpt lat="43.16454344850195" lon="11.46335316236408"><ele>144.0</ele><time>2026-05-02T13:05:55.002Z</time></trkpt><trkpt lat="43.164642246110915" lon="11.463470895599285"><ele>144.0</ele><time>2026-05-02T13:05:56.003Z</time></trkpt><trkpt lat="43.16472684083307" lon="11.463574776984261"><ele>144.0</ele><time>2026-05-02T13:05:57.003Z</time></trkpt><trkpt lat="43.164829463756774" lon="11.463691861457962"><ele>144.0</ele><time>2026-05-02T13:05:58.003Z</time></trkpt><trkpt lat="43.16495075595091" lon="11.463822993887613"><ele>144.33333333333334</ele><time>2026-05-02T13:05:59.003Z</time></trkpt><trkpt lat="43.16508460159505" lon="11.463946908985667"><ele>144.66666666666669</ele><time>2026-05-02T13:06:00.003Z</time></trkpt><trkpt lat="43.16522762151656" lon="11.464055198185461"><ele>145.0</ele><time>2026-05-02T13:06:01.003Z</time></trkpt><trkpt lat="43.165374104507656" lon="11.464136985562785"><ele>145.0</ele><time>2026-05-02T13:06:02.003Z</time></trkpt><trkpt lat="43.16550104350121" lon="11.464204859646898"><ele>145.0</ele><time>2026-05-02T13:06:03.003Z</time></trkpt><trkpt lat="43.16559930790725" lon="11.464276839584713"><ele>145.0</ele><time>2026-05-02T13:06:04.003Z</time></trkpt><trkpt lat="43.16568602046546" lon="11.464342085423201"><ele>145.0</ele><time>2026-05-02T13:06:05.003Z</time></trkpt><trkpt lat="43.165767218217646" lon="11.464393875574155"><ele>145.0</ele><time>2026-05-02T13:06:06.003Z</time></trkpt><trkpt lat="43.16584608717881" lon="11.464439220488549"><ele>145.2</ele><time>2026-05-02T13:06:07.003Z</time></trkpt><trkpt lat="43.165925484483964" lon="11.464479830497774"><ele>145.4</ele><time>2026-05-02T13:06:08.003Z</time></trkpt><trkpt lat="43.1660010155633" lon="11.464494318129917"><ele>145.6</ele><time>2026-05-02T13:06:09.003Z</time></trkpt><trkpt lat="43.1660746788603" lon="11.464456902877503"><ele>145.8</ele><time>2026-05-02T13:06:10.003Z</time></trkpt><trkpt lat="43.16614936011029" lon="11.464360855888351"><ele>146.0</ele><time>2026-05-02T13:06:11.003Z</time></trkpt><trkpt lat="43.16622891611264" lon="11.46421557260644"><ele>146.0</ele><time>2026-05-02T13:06:12.003Z</time></trkpt><trkpt lat="43.166302193626024" lon="11.464051082723374"><ele>146.0</ele><time>2026-05-02T13:06:13.003Z</time></trkpt><trkpt lat="43.166388360241726" lon="11.463904530971543"><ele>146.0</ele><time>2026-05-02T13:06:14.003Z</time></trkpt><trkpt lat="43.166487972897215" lon="11.463760940744015"><ele>146.0</ele><time>2026-05-02T13:06:15.003Z</time></trkpt><trkpt lat="43.16660338422024" lon="11.463635853931136"><ele>146.25</ele><time>2026-05-02T13:06:16.003Z</time></trkpt><trkpt lat="43.16671913136617" lon="11.463535199291309"><ele>146.5</ele><time>2026-05-02T13:06:17.003Z</time></trkpt><trkpt lat="43.166820062500605" lon="11.463464533689201"><ele>146.75</ele><time>2026-05-02T13:06:18.003Z</time></trkpt><trkpt lat="43.16689765483144" lon="11.46342196730556"><ele>147.0</ele><time>2026-05-02T13:06:19.003Z</time></trkpt><trkpt lat="43.16702175059573" lon="11.463439360687955"><ele>147.0</ele><time>2026-05-02T13:06:21.003Z</time></trkpt><trkpt lat="43.16710178318984" lon="11.463503300405883"><ele>147.0</ele><time>2026-05-02T13:06:22.003Z</time></trkpt><trkpt lat="43.16720189938529" lon="11.463600276488107"><ele>147.0</ele><time>2026-05-02T13:06:23.003Z</time></trkpt><trkpt lat="43.16731537354917" lon="11.463706252882789"><ele>147.0</ele><time>2026-05-02T13:06:24Z</time></trkpt><trkpt lat="43.167440879878114" lon="11.463801887967076"><ele>147.25</ele><time>2026-05-02T13:06:25Z</time></trkpt><trkpt lat="43.16756301740594" lon="11.463877839645013"><ele>147.5</ele><time>2026-05-02T13:06:26Z</time></trkpt><trkpt lat="43.16766698109165" lon="11.463937284962613"><ele>147.75</ele><time>2026-05-02T13:06:27Z</time></trkpt><trkpt lat="43.16776380604566" lon="11.46399330243372"><ele>148.0</ele><time>2026-05-02T13:06:28Z</time></trkpt><trkpt lat="43.167864563098625" lon="11.464050908178308"><ele>148.0</ele><time>2026-05-02T13:06:29Z</time></trkpt><trkpt lat="43.16795627904853" lon="11.464103465956764"><ele>148.0</ele><time>2026-05-02T13:06:30Z</time></trkpt><trkpt lat="43.16803911300894" lon="11.464151854690465"><ele>148.0</ele><time>2026-05-02T13:06:31Z</time></trkpt><trkpt lat="43.168107766933254" lon="11.464195893867688"><ele>148.0</ele><time>2026-05-02T13:06:32Z</time></trkpt><trkpt lat="43.16816552334697" lon="11.464262377005738"><ele>148.0</ele><time>2026-05-02T13:06:34Z</time></trkpt><trkpt lat="43.16816275279858" lon="11.464391407441461"><ele>148.0</ele><time>2026-05-02T13:06:36Z</time></trkpt><trkpt lat="43.168120520895165" lon="11.464509831046094"><ele>148.20000000000002</ele><time>2026-05-02T13:06:37Z</time></trkpt><trkpt lat="43.16804645119029" lon="11.464662296264652"><ele>148.4</ele><time>2026-05-02T13:06:38Z</time></trkpt><trkpt lat="43.16798008152466" lon="11.464794903113358"><ele>148.60000000000002</ele><time>2026-05-02T13:06:39Z</time></trkpt><trkpt lat="43.167943978476416" lon="11.464902331493427"><ele>148.8</ele><time>2026-05-02T13:06:40Z</time></trkpt><trkpt lat="43.167930680228615" lon="11.46498918058107"><ele>149.0</ele><time>2026-05-02T13:06:41Z</time></trkpt><trkpt lat="43.167933983259324" lon="11.465099429803338"><ele>149.0</ele><time>2026-05-02T13:06:44Z</time></trkpt><trkpt lat="43.16795519899369" lon="11.465246502246421"><ele>149.0</ele><time>2026-05-02T13:06:49Z</time></trkpt><trkpt lat="43.16805526350868" lon="11.465330578901607"><ele>149.0</ele><time>2026-05-02T13:06:50Z</time></trkpt><trkpt lat="43.16815105818701" lon="11.465394401244472"><ele>149.0</ele><time>2026-05-02T13:06:51Z</time></trkpt><trkpt lat="43.1682799811023" lon="11.465461231535654"><ele>149.0</ele><time>2026-05-02T13:06:52Z</time></trkpt><trkpt lat="43.16841660059351" lon="11.46553346688391"><ele>149.0</ele><time>2026-05-02T13:06:53Z</time></trkpt><trkpt lat="43.16856064935423" lon="11.465608362688062"><ele>149.0</ele><time>2026-05-02T13:06:54Z</time></trkpt><trkpt lat="43.168686991062835" lon="11.465656538116207"><ele>149.0</ele><time>2026-05-02T13:06:55Z</time></trkpt><trkpt lat="43.168804420960406" lon="11.465697513384333"><ele>149.0</ele><time>2026-05-02T13:06:56.001Z</time></trkpt><trkpt lat="43.16891102875377" lon="11.46572341108937"><ele>149.0</ele><time>2026-05-02T13:06:57.001Z</time></trkpt><trkpt lat="43.16901319586266" lon="11.46574097602042"><ele>149.0</ele><time>2026-05-02T13:06:58.001Z</time></trkpt><trkpt lat="43.169122254349595" lon="11.465758000740735"><ele>149.0</ele><time>2026-05-02T13:06:59.001Z</time></trkpt><trkpt lat="43.16923590331882" lon="11.465761706901379"><ele>149.0</ele><time>2026-05-02T13:07:00.001Z</time></trkpt><trkpt lat="43.16934043948613" lon="11.465761323825998"><ele>149.2</ele><time>2026-05-02T13:07:01.001Z</time></trkpt><trkpt lat="43.16943914979825" lon="11.465757039832951"><ele>149.4</ele><time>2026-05-02T13:07:02.001Z</time></trkpt><trkpt lat="43.16953458410594" lon="11.465749979139398"><ele>149.6</ele><time>2026-05-02T13:07:03.001Z</time></trkpt><trkpt lat="43.16962568191662" lon="11.46574278971421"><ele>149.8</ele><time>2026-05-02T13:07:04.001Z</time></trkpt><trkpt lat="43.16972228827099" lon="11.465729433361556"><ele>150.0</ele><time>2026-05-02T13:07:05.001Z</time></trkpt><trkpt lat="43.16982232058798" lon="11.465707120141651"><ele>149.8</ele><time>2026-05-02T13:07:06.001Z</time></trkpt><trkpt lat="43.16992446706658" lon="11.46567564465278"><ele>149.6</ele><time>2026-05-02T13:07:07.001Z</time></trkpt><trkpt lat="43.1700281998571" lon="11.465635560690622"><ele>149.4</ele><time>2026-05-02T13:07:08.001Z</time></trkpt><trkpt lat="43.170131776258096" lon="11.465596680399944"><ele>149.2</ele><time>2026-05-02T13:07:09.001Z</time></trkpt><trkpt lat="43.17023009788337" lon="11.465556429902747"><ele>149.0</ele><time>2026-05-02T13:07:10.001Z</time></trkpt><trkpt lat="43.170321341442936" lon="11.465520446104355"><ele>149.0</ele><time>2026-05-02T13:07:11.001Z</time></trkpt><trkpt lat="43.17041136775857" lon="11.465483699900343"><ele>149.0</ele><time>2026-05-02T13:07:12.001Z</time></trkpt><trkpt lat="43.17050358202213" lon="11.465448601477782"><ele>149.0</ele><time>2026-05-02T13:07:13.001Z</time></trkpt><trkpt lat="43.17059589376122" lon="11.465413680517736"><ele>149.0</ele><time>2026-05-02T13:07:14.001Z</time></trkpt><trkpt lat="43.17068837049994" lon="11.465373833549993"><ele>149.0</ele><time>2026-05-02T13:07:15.001Z</time></trkpt><trkpt lat="43.17078675582911" lon="11.465333933050706"><ele>149.0</ele><time>2026-05-02T13:07:16.001Z</time></trkpt><trkpt lat="43.17088934461628" lon="11.465293851512639"><ele>149.0</ele><time>2026-05-02T13:07:17.001Z</time></trkpt><trkpt lat="43.17099749612942" lon="11.465250215689025"><ele>149.0</ele><time>2026-05-02T13:07:18.001Z</time></trkpt><trkpt lat="43.171108372895" lon="11.46520668172548"><ele>149.0</ele><time>2026-05-02T13:07:19.001Z</time></trkpt><trkpt lat="43.17123076901671" lon="11.465160969217557"><ele>149.0</ele><time>2026-05-02T13:07:20.001Z</time></trkpt><trkpt lat="43.17135121150192" lon="11.465110980590465"><ele>149.0</ele><time>2026-05-02T13:07:21.001Z</time></trkpt><trkpt lat="43.17147811907831" lon="11.465055078171279"><ele>149.0</ele><time>2026-05-02T13:07:22.001Z</time></trkpt><trkpt lat="43.171613724264944" lon="11.465003731585119"><ele>149.0</ele><time>2026-05-02T13:07:23.001Z</time></trkpt><trkpt lat="43.171760139688544" lon="11.464950871585732"><ele>148.75</ele><time>2026-05-02T13:07:24.001Z</time></trkpt><trkpt lat="43.17188163353083" lon="11.464902220529742"><ele>148.5</ele><time>2026-05-02T13:07:25.001Z</time></trkpt><trkpt lat="43.172023481122714" lon="11.464843766855438"><ele>148.25</ele><time>2026-05-02T13:07:26.001Z</time></trkpt><trkpt lat="43.17217725796616" lon="11.46478185633361"><ele>148.0</ele><time>2026-05-02T13:07:27.001Z</time></trkpt><trkpt lat="43.172337451312785" lon="11.464718039020415"><ele>148.33333333333334</ele><time>2026-05-02T13:07:28.002Z</time></trkpt><trkpt lat="43.17250714359449" lon="11.46464790750966"><ele>148.66666666666666</ele><time>2026-05-02T13:07:29.002Z</time></trkpt><trkpt lat="43.17267085071163" lon="11.464586971369151"><ele>149.0</ele><time>2026-05-02T13:07:30.002Z</time></trkpt><trkpt lat="43.172838895305" lon="11.4645219658673"><ele>149.33333333333331</ele><time>2026-05-02T13:07:31.002Z</time></trkpt><trkpt lat="43.17300941557093" lon="11.464451722152827"><ele>149.66666666666666</ele><time>2026-05-02T13:07:32.002Z</time></trkpt><trkpt lat="43.17318493638276" lon="11.464372683149726"><ele>150.0</ele><time>2026-05-02T13:07:33.002Z</time></trkpt><trkpt lat="43.173379470828465" lon="11.46428166005558"><ele>150.0</ele><time>2026-05-02T13:07:34.002Z</time></trkpt><trkpt lat="43.17360085929857" lon="11.464192881859379"><ele>150.0</ele><time>2026-05-02T13:07:35.002Z</time></trkpt><trkpt lat="43.1738301530596" lon="11.464111695892345"><ele>149.0</ele><time>2026-05-02T13:07:36.002Z</time></trkpt><trkpt lat="43.174055713489835" lon="11.464036229229384"><ele>148.0</ele><time>2026-05-02T13:07:37.002Z</time></trkpt><trkpt lat="43.17428040162113" lon="11.463945225095484"><ele>148.0</ele><time>2026-05-02T13:07:38.002Z</time></trkpt><trkpt lat="43.17450297664702" lon="11.463867296421558"><ele>148.0</ele><time>2026-05-02T13:07:39.002Z</time></trkpt><trkpt lat="43.17470800354392" lon="11.463783760815721"><ele>148.0</ele><time>2026-05-02T13:07:40.002Z</time></trkpt><trkpt lat="43.174914173840385" lon="11.463704874054638"><ele>148.66666666666669</ele><time>2026-05-02T13:07:41.002Z</time></trkpt><trkpt lat="43.17512520136116" lon="11.463620577570131"><ele>149.33333333333334</ele><time>2026-05-02T13:07:42.002Z</time></trkpt><trkpt lat="43.175335490171086" lon="11.463545208548297"><ele>150.0</ele><time>2026-05-02T13:07:43.002Z</time></trkpt><trkpt lat="43.17553938904865" lon="11.463448848500931"><ele>150.66666666666666</ele><time>2026-05-02T13:07:44.002Z</time></trkpt><trkpt lat="43.1757478283125" lon="11.463362584369538"><ele>151.33333333333331</ele><time>2026-05-02T13:07:45.002Z</time></trkpt><trkpt lat="43.175947923454295" lon="11.463279328190552"><ele>152.0</ele><time>2026-05-02T13:07:46.002Z</time></trkpt><trkpt lat="43.176142306377685" lon="11.463195774783161"><ele>152.0</ele><time>2026-05-02T13:07:47.002Z</time></trkpt><trkpt lat="43.17633214214424" lon="11.463114280406767"><ele>152.0</ele><time>2026-05-02T13:07:48.002Z</time></trkpt><trkpt lat="43.17651873909432" lon="11.463034509933054"><ele>152.0</ele><time>2026-05-02T13:07:49.002Z</time></trkpt><trkpt lat="43.1767055808831" lon="11.462950732012144"><ele>152.33333333333331</ele><time>2026-05-02T13:07:50.002Z</time></trkpt><trkpt lat="43.176885202074885" lon="11.462869073692469"><ele>152.66666666666666</ele><time>2026-05-02T13:07:51.002Z</time></trkpt><trkpt lat="43.17706975236224" lon="11.46280974635384"><ele>153.0</ele><time>2026-05-02T13:07:52.002Z</time></trkpt><trkpt lat="43.17724867699708" lon="11.462736976297785"><ele>153.0</ele><time>2026-05-02T13:07:53.002Z</time></trkpt><trkpt lat="43.17742713113461" lon="11.462672276904124"><ele>153.0</ele><time>2026-05-02T13:07:54.002Z</time></trkpt><trkpt lat="43.17742713113461" lon="11.462672276904124"><ele>153.0</ele><time>2026-05-02T13:07:54.002Z</time></trkpt><trkpt lat="43.17847454163704" lon="11.462506639803665"><ele>153.0</ele><time>2026-05-02T13:08:00.002Z</time></trkpt><trkpt lat="43.17864999046913" lon="11.46256656709419"><ele>153.0</ele><time>2026-05-02T13:08:01.003Z</time></trkpt><trkpt lat="43.178826642790405" lon="11.462633429691538"><ele>153.0</ele><time>2026-05-02T13:08:02.003Z</time></trkpt><trkpt lat="43.179010773127445" lon="11.462694224244457"><ele>154.33333333333334</ele><time>2026-05-02T13:08:03.003Z</time></trkpt><trkpt lat="43.17920031393673" lon="11.462756034040309"><ele>155.66666666666669</ele><time>2026-05-02T13:08:04.003Z</time></trkpt><trkpt lat="43.179390453884125" lon="11.462794481154674"><ele>157.0</ele><time>2026-05-02T13:08:05.003Z</time></trkpt><trkpt lat="43.17956334169735" lon="11.462801520217662"><ele>157.0</ele><time>2026-05-02T13:08:06.003Z</time></trkpt><trkpt lat="43.17972793274349" lon="11.462756849143453"><ele>157.0</ele><time>2026-05-02T13:08:07.003Z</time></trkpt><trkpt lat="43.17988914524544" lon="11.462660402911167"><ele>157.0</ele><time>2026-05-02T13:08:08.003Z</time></trkpt><trkpt lat="43.180031580153404" lon="11.462522248400491"><ele>157.33333333333334</ele><time>2026-05-02T13:08:09.003Z</time></trkpt><trkpt lat="43.18015932334529" lon="11.462329731812556"><ele>157.66666666666666</ele><time>2026-05-02T13:08:10.003Z</time></trkpt><trkpt lat="43.18026678273922" lon="11.462098656700798"><ele>158.0</ele><time>2026-05-02T13:08:11.003Z</time></trkpt><trkpt lat="43.1803585916174" lon="11.461828497336384"><ele>159.33333333333331</ele><time>2026-05-02T13:08:12.003Z</time></trkpt><trkpt lat="43.180460452198034" lon="11.461551660930926"><ele>160.66666666666666</ele><time>2026-05-02T13:08:13.003Z</time></trkpt><trkpt lat="43.18058283199761" lon="11.461297296438623"><ele>162.0</ele><time>2026-05-02T13:08:14.003Z</time></trkpt><trkpt lat="43.1807386965196" lon="11.46106519952828"><ele>162.0</ele><time>2026-05-02T13:08:15.003Z</time></trkpt><trkpt lat="43.180943398438195" lon="11.460862587410748"><ele>162.0</ele><time>2026-05-02T13:08:16.003Z</time></trkpt><trkpt lat="43.18115065463102" lon="11.46067308437958"><ele>162.0</ele><time>2026-05-02T13:08:17.003Z</time></trkpt><trkpt lat="43.18135165685056" lon="11.460476877108459"><ele>162.0</ele><time>2026-05-02T13:08:18.003Z</time></trkpt><trkpt lat="43.181539606407135" lon="11.460279032665364"><ele>161.33333333333334</ele><time>2026-05-02T13:08:19.003Z</time></trkpt><trkpt lat="43.181719178613506" lon="11.460097371687164"><ele>160.66666666666669</ele><time>2026-05-02T13:08:20.003Z</time></trkpt><trkpt lat="43.181889256378525" lon="11.459928068557518"><ele>160.0</ele><time>2026-05-02T13:08:21.003Z</time></trkpt><trkpt lat="43.182049511759054" lon="11.459770238979777"><ele>160.0</ele><time>2026-05-02T13:08:22.003Z</time></trkpt><trkpt lat="43.182206533689936" lon="11.459608218011292"><ele>160.0</ele><time>2026-05-02T13:08:23.003Z</time></trkpt><trkpt lat="43.18236053107625" lon="11.459456136848235"><ele>160.0</ele><time>2026-05-02T13:08:24.003Z</time></trkpt><trkpt lat="43.18250561486025" lon="11.459317243727869"><ele>160.0</ele><time>2026-05-02T13:08:25.003Z</time></trkpt><trkpt lat="43.18264017789855" lon="11.459185418792694"><ele>160.0</ele><time>2026-05-02T13:08:26.003Z</time></trkpt><trkpt lat="43.18278216678826" lon="11.459036234254489"><ele>160.0</ele><time>2026-05-02T13:08:27.003Z</time></trkpt><trkpt lat="43.18292952406878" lon="11.458874233605517"><ele>160.66666666666669</ele><time>2026-05-02T13:08:28.003Z</time></trkpt><trkpt lat="43.183075768194705" lon="11.458719239675926"><ele>161.33333333333334</ele><time>2026-05-02T13:08:29.003Z</time></trkpt><trkpt lat="43.183221507180754" lon="11.45856884567442"><ele>162.0</ele><time>2026-05-02T13:08:29.999Z</time></trkpt><trkpt lat="43.183370003343555" lon="11.458415653048435"><ele>162.0</ele><time>2026-05-02T13:08:30.999Z</time></trkpt><trkpt lat="43.18352780004447" lon="11.458262534476065"><ele>162.0</ele><time>2026-05-02T13:08:31.999Z</time></trkpt><trkpt lat="43.18368120093487" lon="11.458116121816616"><ele>162.0</ele><time>2026-05-02T13:08:32.999Z</time></trkpt><trkpt lat="43.18381799909114" lon="11.457978741706425"><ele>162.25</ele><time>2026-05-02T13:08:33.999Z</time></trkpt><trkpt lat="43.18393711956042" lon="11.457853936815539"><ele>162.5</ele><time>2026-05-02T13:08:34.999Z</time></trkpt><trkpt lat="43.18404242405252" lon="11.457734952151595"><ele>162.75</ele><time>2026-05-02T13:08:35.999Z</time></trkpt><trkpt lat="43.18415149836676" lon="11.45761186801547"><ele>163.0</ele><time>2026-05-02T13:08:36.999Z</time></trkpt><trkpt lat="43.18426212186955" lon="11.457482755094704"><ele>163.0</ele><time>2026-05-02T13:08:37.999Z</time></trkpt><trkpt lat="43.18436892252888" lon="11.457350568351023"><ele>163.0</ele><time>2026-05-02T13:08:38.999Z</time></trkpt><trkpt lat="43.1844758419067" lon="11.45721961504783"><ele>163.0</ele><time>2026-05-02T13:08:39.999Z</time></trkpt><trkpt lat="43.18458362279799" lon="11.457085107825197"><ele>163.0</ele><time>2026-05-02T13:08:40.999Z</time></trkpt><trkpt lat="43.18469045281393" lon="11.456950964430746"><ele>163.0</ele><time>2026-05-02T13:08:41.999Z</time></trkpt><trkpt lat="43.18479559480234" lon="11.456819689781"><ele>163.0</ele><time>2026-05-02T13:08:42.999Z</time></trkpt><trkpt lat="43.18490269193715" lon="11.456685182226153"><ele>163.0</ele><time>2026-05-02T13:08:43.999Z</time></trkpt><trkpt lat="43.18502156100725" lon="11.456536358172468"><ele>163.0</ele><time>2026-05-02T13:08:44.999Z</time></trkpt><trkpt lat="43.18514773941473" lon="11.456373929609518"><ele>164.0</ele><time>2026-05-02T13:08:45.999Z</time></trkpt><trkpt lat="43.18527667663977" lon="11.456214470715256"><ele>165.0</ele><time>2026-05-02T13:08:47Z</time></trkpt><trkpt lat="43.18540841691474" lon="11.456048675461629"><ele>166.0</ele><time>2026-05-02T13:08:48Z</time></trkpt><trkpt lat="43.18553625146154" lon="11.455892645383623"><ele>166.0</ele><time>2026-05-02T13:08:49Z</time></trkpt><trkpt lat="43.18566160468906" lon="11.455743132687616"><ele>166.0</ele><time>2026-05-02T13:08:50Z</time></trkpt><trkpt lat="43.185784282644086" lon="11.455598866696393"><ele>166.0</ele><time>2026-05-02T13:08:51Z</time></trkpt><trkpt lat="43.18590616387486" lon="11.455471533540662"><ele>167.0</ele><time>2026-05-02T13:08:52Z</time></trkpt><trkpt lat="43.186029969505945" lon="11.455347968266596"><ele>168.0</ele><time>2026-05-02T13:08:53Z</time></trkpt><trkpt lat="43.18616683000839" lon="11.455223118270824"><ele>169.0</ele><time>2026-05-02T13:08:54Z</time></trkpt><trkpt lat="43.186324679006255" lon="11.45508997501189"><ele>169.0</ele><time>2026-05-02T13:08:55Z</time></trkpt><trkpt lat="43.186504994406576" lon="11.45496121627083"><ele>169.0</ele><time>2026-05-02T13:08:56Z</time></trkpt><trkpt lat="43.18669587285785" lon="11.454845294569324"><ele>169.0</ele><time>2026-05-02T13:08:57Z</time></trkpt><trkpt lat="43.18687824766748" lon="11.454752046818161"><ele>169.33333333333334</ele><time>2026-05-02T13:08:58Z</time></trkpt><trkpt lat="43.187041486849196" lon="11.454668515690999"><ele>169.66666666666666</ele><time>2026-05-02T13:08:59Z</time></trkpt><trkpt lat="43.18720145083896" lon="11.45458496631296"><ele>170.0</ele><time>2026-05-02T13:09:00Z</time></trkpt><trkpt lat="43.187353798143285" lon="11.454499712063411"><ele>172.25</ele><time>2026-05-02T13:09:01Z</time></trkpt><trkpt lat="43.18749719780184" lon="11.454416442993974"><ele>174.5</ele><time>2026-05-02T13:09:02Z</time></trkpt><trkpt lat="43.18762474769964" lon="11.45434030915867"><ele>176.75</ele><time>2026-05-02T13:09:03Z</time></trkpt><trkpt lat="43.18774401476394" lon="11.454272155567756"><ele>179.0</ele><time>2026-05-02T13:09:04Z</time></trkpt><trkpt lat="43.18786037112393" lon="11.454206023170023"><ele>179.0</ele><time>2026-05-02T13:09:05Z</time></trkpt><trkpt lat="43.18797051587614" lon="11.45414539372126"><ele>179.0</ele><time>2026-05-02T13:09:06Z</time></trkpt><trkpt lat="43.188074640817604" lon="11.454089269375006"><ele>179.0</ele><time>2026-05-02T13:09:07.001Z</time></trkpt><trkpt lat="43.18817565230359" lon="11.454046922229576"><ele>179.0</ele><time>2026-05-02T13:09:08.001Z</time></trkpt><trkpt lat="43.18828108268853" lon="11.454036295795026"><ele>179.0</ele><time>2026-05-02T13:09:09.001Z</time></trkpt><trkpt lat="43.18839752071091" lon="11.454025550918853"><ele>179.5</ele><time>2026-05-02T13:09:10.001Z</time></trkpt><trkpt lat="43.18852355540097" lon="11.454031139138108"><ele>180.0</ele><time>2026-05-02T13:09:11.001Z</time></trkpt><trkpt lat="43.1886642278634" lon="11.45403134043092"><ele>180.5</ele><time>2026-05-02T13:09:12.001Z</time></trkpt><trkpt lat="43.188817705161945" lon="11.454022140896662"><ele>181.0</ele><time>2026-05-02T13:09:13.001Z</time></trkpt><trkpt lat="43.18895685897575" lon="11.454021654904022"><ele>180.20000000000002</ele><time>2026-05-02T13:09:14.001Z</time></trkpt><trkpt lat="43.18907460245635" lon="11.454028219706162"><ele>179.4</ele><time>2026-05-02T13:09:15.001Z</time></trkpt><trkpt lat="43.18918307257233" lon="11.45403418735546"><ele>178.6</ele><time>2026-05-02T13:09:16.001Z</time></trkpt><trkpt lat="43.18929275904142" lon="11.45404373882717"><ele>177.8</ele><time>2026-05-02T13:09:17.001Z</time></trkpt><trkpt lat="43.18939822625991" lon="11.454049767428337"><ele>177.0</ele><time>2026-05-02T13:09:18.001Z</time></trkpt><trkpt lat="43.18949925739973" lon="11.454049750696923"><ele>177.0</ele><time>2026-05-02T13:09:19.001Z</time></trkpt><trkpt lat="43.18959935019774" lon="11.454040003240216"><ele>177.0</ele><time>2026-05-02T13:09:20.001Z</time></trkpt><trkpt lat="43.189701436547644" lon="11.454014479880687"><ele>177.0</ele><time>2026-05-02T13:09:21.001Z</time></trkpt><trkpt lat="43.189813388703755" lon="11.45396132803104"><ele>177.0</ele><time>2026-05-02T13:09:22.001Z</time></trkpt><trkpt lat="43.18992143839241" lon="11.453897652653621"><ele>177.0</ele><time>2026-05-02T13:09:23.001Z</time></trkpt><trkpt lat="43.19002598426277" lon="11.453831660479503"><ele>177.0</ele><time>2026-05-02T13:09:24.001Z</time></trkpt><trkpt lat="43.19013137699941" lon="11.453766331099065"><ele>177.0</ele><time>2026-05-02T13:09:25.001Z</time></trkpt><trkpt lat="43.19023381811758" lon="11.45370367151748"><ele>177.0</ele><time>2026-05-02T13:09:26.001Z</time></trkpt><trkpt lat="43.1903362070683" lon="11.453642702481671"><ele>177.0</ele><time>2026-05-02T13:09:27.001Z</time></trkpt><trkpt lat="43.19043843165854" lon="11.453582639022553"><ele>177.0</ele><time>2026-05-02T13:09:28.001Z</time></trkpt><trkpt lat="43.19054097036256" lon="11.453526553341879"><ele>177.0</ele><time>2026-05-02T13:09:29.001Z</time></trkpt><trkpt lat="43.19064046243961" lon="11.45347533906562"><ele>177.0</ele><time>2026-05-02T13:09:30.001Z</time></trkpt><trkpt lat="43.19074327797932" lon="11.453437679480762"><ele>177.0</ele><time>2026-05-02T13:09:31.001Z</time></trkpt><trkpt lat="43.1908459859203" lon="11.45340928170106"><ele>177.0</ele><time>2026-05-02T13:09:32.001Z</time></trkpt><trkpt lat="43.19094858560329" lon="11.453389689562956"><ele>175.8</ele><time>2026-05-02T13:09:33.001Z</time></trkpt><trkpt lat="43.19105052774872" lon="11.453376177609105"><ele>174.6</ele><time>2026-05-02T13:09:34.001Z</time></trkpt><trkpt lat="43.191150489126635" lon="11.453368907006963"><ele>173.4</ele><time>2026-05-02T13:09:35.001Z</time></trkpt><trkpt lat="43.19124915393941" lon="11.453369477407458"><ele>172.20000000000002</ele><time>2026-05-02T13:09:36.002Z</time></trkpt><trkpt lat="43.19134214202939" lon="11.453379637273853"><ele>171.0</ele><time>2026-05-02T13:09:37.002Z</time></trkpt><trkpt lat="43.19142779753051" lon="11.453417186676727"><ele>171.0</ele><time>2026-05-02T13:09:38.002Z</time></trkpt><trkpt lat="43.19149788810666" lon="11.453479246034988"><ele>171.0</ele><time>2026-05-02T13:09:39.002Z</time></trkpt><trkpt lat="43.19155249702305" lon="11.453560364658161"><ele>171.0</ele><time>2026-05-02T13:09:40.002Z</time></trkpt><trkpt lat="43.191597371157414" lon="11.453648832403825"><ele>171.0</ele><time>2026-05-02T13:09:41.002Z</time></trkpt><trkpt lat="43.191643014426226" lon="11.45375110498898"><ele>171.0</ele><time>2026-05-02T13:09:42.002Z</time></trkpt><trkpt lat="43.19168410573178" lon="11.45386410813559"><ele>171.0</ele><time>2026-05-02T13:09:43.002Z</time></trkpt><trkpt lat="43.19173252323129" lon="11.45399505836819"><ele>169.75</ele><time>2026-05-02T13:09:44.002Z</time></trkpt><trkpt lat="43.19178306023376" lon="11.45413288388034"><ele>168.5</ele><time>2026-05-02T13:09:45.002Z</time></trkpt><trkpt lat="43.19184271297096" lon="11.454277029695302"><ele>167.25</ele><time>2026-05-02T13:09:46.002Z</time></trkpt><trkpt lat="43.19189953264446" lon="11.454424877660452"><ele>166.0</ele><time>2026-05-02T13:09:47.002Z</time></trkpt><trkpt lat="43.191959169992906" lon="11.454573159561948"><ele>166.0</ele><time>2026-05-02T13:09:48.002Z</time></trkpt><trkpt lat="43.192023733531016" lon="11.454710343642795"><ele>166.0</ele><time>2026-05-02T13:09:49.002Z</time></trkpt><trkpt lat="43.192096644141955" lon="11.45482317137744"><ele>166.0</ele><time>2026-05-02T13:09:50.002Z</time></trkpt><trkpt lat="43.19218653012852" lon="11.454887626295685"><ele>166.0</ele><time>2026-05-02T13:09:51.002Z</time></trkpt><trkpt lat="43.19227971566102" lon="11.454938619440043"><ele>166.0</ele><time>2026-05-02T13:09:52.002Z</time></trkpt><trkpt lat="43.1923711158113" lon="11.4549763416989"><ele>166.0</ele><time>2026-05-02T13:09:53.002Z</time></trkpt><trkpt lat="43.192462233830945" lon="11.45501080292531"><ele>166.0</ele><time>2026-05-02T13:09:54.002Z</time></trkpt><trkpt lat="43.192550671236894" lon="11.455040102130763"><ele>166.0</ele><time>2026-05-02T13:09:55.002Z</time></trkpt><trkpt lat="43.192639320613296" lon="11.45505574820649"><ele>166.0</ele><time>2026-05-02T13:09:56.002Z</time></trkpt><trkpt lat="43.19273357863783" lon="11.455040426852001"><ele>166.0</ele><time>2026-05-02T13:09:57.002Z</time></trkpt><trkpt lat="43.192821314269096" lon="11.455000045733449"><ele>166.0</ele><time>2026-05-02T13:09:58.002Z</time></trkpt><trkpt lat="43.192903221764425" lon="11.454947138050267"><ele>166.0</ele><time>2026-05-02T13:09:59.002Z</time></trkpt><trkpt lat="43.1929816777456" lon="11.454880275783877"><ele>166.0</ele><time>2026-05-02T13:10:00.002Z</time></trkpt><trkpt lat="43.19305009842601" lon="11.454811592104695"><ele>166.0</ele><time>2026-05-02T13:10:01.002Z</time></trkpt><trkpt lat="43.193102875692816" lon="11.454730799009662"><ele>166.0</ele><time>2026-05-02T13:10:02.002Z</time></trkpt><trkpt lat="43.19313718777207" lon="11.454633526047045"><ele>166.0</ele><time>2026-05-02T13:10:03.002Z</time></trkpt><trkpt lat="43.193153914100954" lon="11.454521108198621"><ele>166.4</ele><time>2026-05-02T13:10:04.002Z</time></trkpt><trkpt lat="43.19314761505386" lon="11.454393815661376"><ele>166.8</ele><time>2026-05-02T13:10:05.002Z</time></trkpt><trkpt lat="43.19313262118842" lon="11.454263986036059"><ele>167.20000000000002</ele><time>2026-05-02T13:10:06.002Z</time></trkpt><trkpt lat="43.19310904671952" lon="11.454142751378852"><ele>167.60000000000002</ele><time>2026-05-02T13:10:07.002Z</time></trkpt><trkpt lat="43.193080883908344" lon="11.454023176632166"><ele>168.0</ele><time>2026-05-02T13:10:08.003Z</time></trkpt><trkpt lat="43.19305842705319" lon="11.45390760195892"><ele>168.0</ele><time>2026-05-02T13:10:09.003Z</time></trkpt><trkpt lat="43.19303073402063" lon="11.453798346894338"><ele>168.0</ele><time>2026-05-02T13:10:10.003Z</time></trkpt><trkpt lat="43.19299709100367" lon="11.45368983489696"><ele>168.0</ele><time>2026-05-02T13:10:11.003Z</time></trkpt><trkpt lat="43.192948584138676" lon="11.453580975460849"><ele>168.0</ele><time>2026-05-02T13:10:12.003Z</time></trkpt><trkpt lat="43.192896662873274" lon="11.453474741022628"><ele>168.0</ele><time>2026-05-02T13:10:13.003Z</time></trkpt><trkpt lat="43.192835539983285" lon="11.453368963480662"><ele>167.8</ele><time>2026-05-02T13:10:14.003Z</time></trkpt><trkpt lat="43.19278177499914" lon="11.45326281985824"><ele>167.60000000000002</ele><time>2026-05-02T13:10:15.003Z</time></trkpt><trkpt lat="43.19273444690155" lon="11.453153798409863"><ele>167.39999999999998</ele><time>2026-05-02T13:10:16.003Z</time></trkpt><trkpt lat="43.1927021734894" lon="11.45302273331985"><ele>167.2</ele><time>2026-05-02T13:10:17.003Z</time></trkpt><trkpt lat="43.1927026823307" lon="11.452878046936188"><ele>167.0</ele><time>2026-05-02T13:10:18.003Z</time></trkpt><trkpt lat="43.19272972808593" lon="11.452722105601671"><ele>166.33333333333331</ele><time>2026-05-02T13:10:19.003Z</time></trkpt><trkpt lat="43.192806585769354" lon="11.452531538794421"><ele>165.66666666666666</ele><time>2026-05-02T13:10:20.003Z</time></trkpt><trkpt lat="43.192913281141145" lon="11.4523263744441"><ele>165.0</ele><time>2026-05-02T13:10:21.003Z</time></trkpt><trkpt lat="43.19304998078897" lon="11.452104548081305"><ele>161.33333333333334</ele><time>2026-05-02T13:10:22.003Z</time></trkpt><trkpt lat="43.19318790976116" lon="11.451878414711548"><ele>157.66666666666669</ele><time>2026-05-02T13:10:23.003Z</time></trkpt><trkpt lat="43.1933268164785" lon="11.45163932254353"><ele>154.0</ele><time>2026-05-02T13:10:24.003Z</time></trkpt><trkpt lat="43.19347527706728" lon="11.45138581790703"><ele>156.0</ele><time>2026-05-02T13:10:25.003Z</time></trkpt><trkpt lat="43.19363030755773" lon="11.451118305129134"><ele>158.0</ele><time>2026-05-02T13:10:26.003Z</time></trkpt><trkpt lat="43.19380031931079" lon="11.450825348754009"><ele>158.0</ele><time>2026-05-02T13:10:27.003Z</time></trkpt><trkpt lat="43.19397468183945" lon="11.450524245304383"><ele>158.0</ele><time>2026-05-02T13:10:28.003Z</time></trkpt><trkpt lat="43.19416115169061" lon="11.450215473222084"><ele>159.0</ele><time>2026-05-02T13:10:29.003Z</time></trkpt><trkpt lat="43.19434777502941" lon="11.449922083833272"><ele>160.0</ele><time>2026-05-02T13:10:30.003Z</time></trkpt><trkpt lat="43.19452703119635" lon="11.449626779207575"><ele>159.0</ele><time>2026-05-02T13:10:31.003Z</time></trkpt><trkpt lat="43.19470208780373" lon="11.449333076219022"><ele>158.0</ele><time>2026-05-02T13:10:32.003Z</time></trkpt><trkpt lat="43.194862361541716" lon="11.449059427856213"><ele>158.0</ele><time>2026-05-02T13:10:33.003Z</time></trkpt><trkpt lat="43.195007331401996" lon="11.448800636323003"><ele>158.0</ele><time>2026-05-02T13:10:34.003Z</time></trkpt><trkpt lat="43.195134445593034" lon="11.448530832800113"><ele>159.5</ele><time>2026-05-02T13:10:35.003Z</time></trkpt><trkpt lat="43.19523411575355" lon="11.4482379273452"><ele>161.0</ele><time>2026-05-02T13:10:36Z</time></trkpt><trkpt lat="43.195317082639875" lon="11.44792872264596"><ele>163.5</ele><time>2026-05-02T13:10:37Z</time></trkpt><trkpt lat="43.19538816076138" lon="11.447608361496702"><ele>166.0</ele><time>2026-05-02T13:10:38Z</time></trkpt><trkpt lat="43.19545503070062" lon="11.44727619084149"><ele>167.5</ele><time>2026-05-02T13:10:39Z</time></trkpt><trkpt lat="43.195524207951756" lon="11.446936992684492"><ele>169.0</ele><time>2026-05-02T13:10:40Z</time></trkpt><trkpt lat="43.195596028151634" lon="11.44659375703054"><ele>170.5</ele><time>2026-05-02T13:10:41Z</time></trkpt><trkpt lat="43.195665294846656" lon="11.446261970057094"><ele>172.0</ele><time>2026-05-02T13:10:42Z</time></trkpt><trkpt lat="43.19572970815806" lon="11.445954354356244"><ele>168.33333333333334</ele><time>2026-05-02T13:10:43Z</time></trkpt><trkpt lat="43.195793939237824" lon="11.445670792799094"><ele>164.66666666666666</ele><time>2026-05-02T13:10:44Z</time></trkpt><trkpt lat="43.1958694433279" lon="11.44538693556789"><ele>161.0</ele><time>2026-05-02T13:10:45Z</time></trkpt><trkpt lat="43.19597239693193" lon="11.445108984582388"><ele>161.0</ele><time>2026-05-02T13:10:46Z</time></trkpt><trkpt lat="43.196109170818985" lon="11.444843049620735"><ele>161.0</ele><time>2026-05-02T13:10:47Z</time></trkpt><trkpt lat="43.19627066177104" lon="11.444601893995324"><ele>160.0</ele><time>2026-05-02T13:10:48Z</time></trkpt><trkpt lat="43.196435243767176" lon="11.444410207128158"><ele>159.0</ele><time>2026-05-02T13:10:49Z</time></trkpt><trkpt lat="43.196615872608795" lon="11.444281318966711"><ele>158.0</ele><time>2026-05-02T13:10:50Z</time></trkpt><trkpt lat="43.19680972275681" lon="11.444171028536628"><ele>158.0</ele><time>2026-05-02T13:10:51Z</time></trkpt><trkpt lat="43.19700153594509" lon="11.44408096877587"><ele>158.0</ele><time>2026-05-02T13:10:52Z</time></trkpt><trkpt lat="43.19717967411895" lon="11.44399720742463"><ele>158.0</ele><time>2026-05-02T13:10:53Z</time></trkpt><trkpt lat="43.19734220128064" lon="11.443918420266428"><ele>158.0</ele><time>2026-05-02T13:10:54Z</time></trkpt><trkpt lat="43.1975141182917" lon="11.443832429078913"><ele>158.0</ele><time>2026-05-02T13:10:55Z</time></trkpt><trkpt lat="43.19769164826584" lon="11.443744383214293"><ele>158.0</ele><time>2026-05-02T13:10:56Z</time></trkpt><trkpt lat="43.19785586898473" lon="11.443667959581775"><ele>158.0</ele><time>2026-05-02T13:10:57Z</time></trkpt><trkpt lat="43.19800808722966" lon="11.443593988321766"><ele>158.0</ele><time>2026-05-02T13:10:58Z</time></trkpt><trkpt lat="43.19814859059008" lon="11.443520173382757"><ele>158.0</ele><time>2026-05-02T13:10:59Z</time></trkpt><trkpt lat="43.19826904974966" lon="11.443457267837887"><ele>158.0</ele><time>2026-05-02T13:11:00Z</time></trkpt><trkpt lat="43.19837016302717" lon="11.443408941655502"><ele>158.0</ele><time>2026-05-02T13:11:01Z</time></trkpt><trkpt lat="43.198438801983606" lon="11.443387116911072"><ele>158.0</ele><time>2026-05-02T13:11:02Z</time></trkpt><trkpt lat="43.19852513557892" lon="11.443426924082585"><ele>158.0</ele><time>2026-05-02T13:11:04Z</time></trkpt><trkpt lat="43.1985578043947" lon="11.443501903473138"><ele>158.0</ele><time>2026-05-02T13:11:05Z</time></trkpt><trkpt lat="43.19858433693122" lon="11.443621215682025"><ele>158.0</ele><time>2026-05-02T13:11:06Z</time></trkpt><trkpt lat="43.19861525578324" lon="11.443776401635166"><ele>158.0</ele><time>2026-05-02T13:11:07Z</time></trkpt><trkpt lat="43.19865190579949" lon="11.443963021053587"><ele>157.66666666666666</ele><time>2026-05-02T13:11:08Z</time></trkpt><trkpt lat="43.19869972470381" lon="11.44418150074091"><ele>157.33333333333334</ele><time>2026-05-02T13:11:09.001Z</time></trkpt><trkpt lat="43.19875932308376" lon="11.444441949219632"><ele>157.0</ele><time>2026-05-02T13:11:10.001Z</time></trkpt><trkpt lat="43.19882615567754" lon="11.444723289890153"><ele>156.5</ele><time>2026-05-02T13:11:11.001Z</time></trkpt><trkpt lat="43.198900563491385" lon="11.445016724830483"><ele>156.0</ele><time>2026-05-02T13:11:12.001Z</time></trkpt><trkpt lat="43.19898185305898" lon="11.445345681343568"><ele>156.0</ele><time>2026-05-02T13:11:13.001Z</time></trkpt><trkpt lat="43.199062095063965" lon="11.445670705528062"><ele>156.0</ele><time>2026-05-02T13:11:14.001Z</time></trkpt><trkpt lat="43.19914113509914" lon="11.44600850210849"><ele>155.5</ele><time>2026-05-02T13:11:15.001Z</time></trkpt><trkpt lat="43.19922235769001" lon="11.44634857810711"><ele>155.0</ele><time>2026-05-02T13:11:16.001Z</time></trkpt><trkpt lat="43.19929566851309" lon="11.446649337692966"><ele>155.0</ele><time>2026-05-02T13:11:17.001Z</time></trkpt><trkpt lat="43.1993636093595" lon="11.446922720996424"><ele>155.0</ele><time>2026-05-02T13:11:18.001Z</time></trkpt><trkpt lat="43.19942942236787" lon="11.44720629080701"><ele>155.0</ele><time>2026-05-02T13:11:19.001Z</time></trkpt><trkpt lat="43.19949490582718" lon="11.447488803956098"><ele>155.0</ele><time>2026-05-02T13:11:20.001Z</time></trkpt><trkpt lat="43.19956252793149" lon="11.447772353761488"><ele>155.0</ele><time>2026-05-02T13:11:21.001Z</time></trkpt><trkpt lat="43.199634380329336" lon="11.448071717489874"><ele>155.0</ele><time>2026-05-02T13:11:22.001Z</time></trkpt><trkpt lat="43.19970145489169" lon="11.448342671886286"><ele>155.0</ele><time>2026-05-02T13:11:23.001Z</time></trkpt><trkpt lat="43.19977124570921" lon="11.448619172451506"><ele>155.0</ele><time>2026-05-02T13:11:24.001Z</time></trkpt><trkpt lat="43.19983827733266" lon="11.448895650723495"><ele>155.0</ele><time>2026-05-02T13:11:25.001Z</time></trkpt><trkpt lat="43.19990161203481" lon="11.449164450850082"><ele>155.33333333333331</ele><time>2026-05-02T13:11:26.001Z</time></trkpt><trkpt lat="43.199964184459006" lon="11.449429193664303"><ele>155.66666666666666</ele><time>2026-05-02T13:11:27.001Z</time></trkpt><trkpt lat="43.200031376353245" lon="11.449696680460905"><ele>156.0</ele><time>2026-05-02T13:11:28.001Z</time></trkpt><trkpt lat="43.20009686223482" lon="11.449961948656197"><ele>156.0</ele><time>2026-05-02T13:11:29.001Z</time></trkpt><trkpt lat="43.20015684555311" lon="11.450217525804195"><ele>156.0</ele><time>2026-05-02T13:11:30.001Z</time></trkpt><trkpt lat="43.200220899289114" lon="11.450467463366722"><ele>156.0</ele><time>2026-05-02T13:11:31.001Z</time></trkpt><trkpt lat="43.20027796307078" lon="11.450708217050632"><ele>156.0</ele><time>2026-05-02T13:11:32.001Z</time></trkpt><trkpt lat="43.200336881945105" lon="11.450955421315163"><ele>156.0</ele><time>2026-05-02T13:11:33.001Z</time></trkpt><trkpt lat="43.20039482249056" lon="11.451205777883867"><ele>156.0</ele><time>2026-05-02T13:11:34.001Z</time></trkpt><trkpt lat="43.20044607318365" lon="11.451448712224103"><ele>155.33333333333334</ele><time>2026-05-02T13:11:35.001Z</time></trkpt><trkpt lat="43.200491251570035" lon="11.45167244011773"><ele>154.66666666666669</ele><time>2026-05-02T13:11:36.001Z</time></trkpt><trkpt lat="43.20053244179053" lon="11.45189783567191"><ele>154.0</ele><time>2026-05-02T13:11:37.001Z</time></trkpt><trkpt lat="43.20056987758067" lon="11.452115383561758"><ele>153.75</ele><time>2026-05-02T13:11:38.001Z</time></trkpt><trkpt lat="43.200609225301484" lon="11.452308672017608"><ele>153.5</ele><time>2026-05-02T13:11:39.001Z</time></trkpt><trkpt lat="43.20065679584803" lon="11.452482914298047"><ele>153.25</ele><time>2026-05-02T13:11:40.001Z</time></trkpt><trkpt lat="43.20072469536922" lon="11.452660610123996"><ele>153.0</ele><time>2026-05-02T13:11:41.002Z</time></trkpt><trkpt lat="43.200793786902274" lon="11.452826821005896"><ele>152.75</ele><time>2026-05-02T13:11:42.002Z</time></trkpt><trkpt lat="43.200852477405654" lon="11.452981634499828"><ele>152.5</ele><time>2026-05-02T13:11:43.002Z</time></trkpt><trkpt lat="43.20088517833123" lon="11.453124578590089"><ele>152.25</ele><time>2026-05-02T13:11:44.002Z</time></trkpt><trkpt lat="43.200889628665166" lon="11.45328602852629"><ele>152.0</ele><time>2026-05-02T13:11:45.002Z</time></trkpt><trkpt lat="43.20088222054928" lon="11.453484063401262"><ele>152.0</ele><time>2026-05-02T13:11:46.002Z</time></trkpt><trkpt lat="43.2008715949263" lon="11.453704920874134"><ele>152.0</ele><time>2026-05-02T13:11:47.002Z</time></trkpt><trkpt lat="43.20087368681796" lon="11.453926497309187"><ele>152.0</ele><time>2026-05-02T13:11:48.002Z</time></trkpt><trkpt lat="43.20089303030216" lon="11.45411280934025"><ele>153.75</ele><time>2026-05-02T13:11:49.002Z</time></trkpt><trkpt lat="43.20092611609978" lon="11.454268911126018"><ele>155.5</ele><time>2026-05-02T13:11:50.002Z</time></trkpt><trkpt lat="43.20095675501302" lon="11.454424872888"><ele>157.25</ele><time>2026-05-02T13:11:51.002Z</time></trkpt><trkpt lat="43.200970478552435" lon="11.454588160315186"><ele>159.0</ele><time>2026-05-02T13:11:52.002Z</time></trkpt><trkpt lat="43.200966728821804" lon="11.454748945994202"><ele>159.8</ele><time>2026-05-02T13:11:53.002Z</time></trkpt><trkpt lat="43.20095862465927" lon="11.45491017700376"><ele>160.60000000000002</ele><time>2026-05-02T13:11:54.002Z</time></trkpt><trkpt lat="43.20096403760058" lon="11.455064485778793"><ele>161.4</ele><time>2026-05-02T13:11:55.002Z</time></trkpt><trkpt lat="43.200962161226734" lon="11.455212153129745"><ele>162.20000000000002</ele><time>2026-05-02T13:11:56.002Z</time></trkpt><trkpt lat="43.200930830735345" lon="11.455354354988915"><ele>163.0</ele><time>2026-05-02T13:11:57.002Z</time></trkpt><trkpt lat="43.200863051959054" lon="11.455494181999285"><ele>163.75</ele><time>2026-05-02T13:11:58.002Z</time></trkpt><trkpt lat="43.20076710132425" lon="11.4556273958959"><ele>164.5</ele><time>2026-05-02T13:11:59.002Z</time></trkpt><trkpt lat="43.200665121869825" lon="11.455765994828901"><ele>165.25</ele><time>2026-05-02T13:12:00.002Z</time></trkpt><trkpt lat="43.200545624201" lon="11.455924521133555"><ele>166.0</ele><time>2026-05-02T13:12:01.002Z</time></trkpt><trkpt lat="43.20042960128019" lon="11.456080202478757"><ele>166.0</ele><time>2026-05-02T13:12:02.002Z</time></trkpt><trkpt lat="43.20032604203622" lon="11.456227852513482"><ele>166.0</ele><time>2026-05-02T13:12:03.002Z</time></trkpt><trkpt lat="43.200235932436684" lon="11.456358723716107"><ele>166.0</ele><time>2026-05-02T13:12:04.002Z</time></trkpt><trkpt lat="43.20016238128134" lon="11.45646847944229"><ele>166.0</ele><time>2026-05-02T13:12:05.002Z</time></trkpt><trkpt lat="43.200114472959164" lon="11.456541074860935"><ele>166.0</ele><time>2026-05-02T13:12:06.002Z</time></trkpt><trkpt lat="43.2000627928671" lon="11.456598196918835"><ele>166.0</ele><time>2026-05-02T13:12:07.002Z</time></trkpt><trkpt lat="43.20000151137508" lon="11.456663736836711"><ele>166.0</ele><time>2026-05-02T13:12:08.002Z</time></trkpt><trkpt lat="43.19991857260952" lon="11.45675548117906"><ele>166.0</ele><time>2026-05-02T13:12:09.002Z</time></trkpt><trkpt lat="43.199831170752226" lon="11.45686240342077"><ele>166.0</ele><time>2026-05-02T13:12:10.002Z</time></trkpt><trkpt lat="43.19973761063136" lon="11.456991381896593"><ele>165.75</ele><time>2026-05-02T13:12:11.002Z</time></trkpt><trkpt lat="43.199641350409074" lon="11.457128332762812"><ele>165.5</ele><time>2026-05-02T13:12:12.002Z</time></trkpt><trkpt lat="43.19953847576562" lon="11.45727287303523"><ele>165.25</ele><time>2026-05-02T13:12:13.002Z</time></trkpt><trkpt lat="43.19942856082869" lon="11.457418437536115"><ele>165.0</ele><time>2026-05-02T13:12:14.003Z</time></trkpt><trkpt lat="43.19930746486331" lon="11.457552730910248"><ele>165.0</ele><time>2026-05-02T13:12:15.003Z</time></trkpt><trkpt lat="43.19918610670308" lon="11.457673683909087"><ele>165.0</ele><time>2026-05-02T13:12:16.003Z</time></trkpt><trkpt lat="43.199076516572205" lon="11.457791585123678"><ele>165.0</ele><time>2026-05-02T13:12:17.003Z</time></trkpt><trkpt lat="43.19898330113916" lon="11.457913236446416"><ele>165.0</ele><time>2026-05-02T13:12:18.003Z</time></trkpt><trkpt lat="43.19889847467371" lon="11.458018614030433"><ele>164.0</ele><time>2026-05-02T13:12:19.003Z</time></trkpt><trkpt lat="43.198827105424996" lon="11.458113594176792"><ele>163.0</ele><time>2026-05-02T13:12:20.003Z</time></trkpt><trkpt lat="43.19876275099047" lon="11.458209004563015"><ele>162.0</ele><time>2026-05-02T13:12:21.003Z</time></trkpt><trkpt lat="43.19869645668324" lon="11.458315739926842"><ele>161.0</ele><time>2026-05-02T13:12:22.003Z</time></trkpt><trkpt lat="43.19863107980253" lon="11.458418390635162"><ele>160.0</ele><time>2026-05-02T13:12:23.003Z</time></trkpt><trkpt lat="43.198559550517395" lon="11.458533358342015"><ele>160.0</ele><time>2026-05-02T13:12:24.003Z</time></trkpt><trkpt lat="43.19847847176321" lon="11.458661342508202"><ele>160.0</ele><time>2026-05-02T13:12:25.003Z</time></trkpt><trkpt lat="43.19839258560401" lon="11.458801196806313"><ele>160.0</ele><time>2026-05-02T13:12:26.003Z</time></trkpt><trkpt lat="43.19829740567716" lon="11.45895301907277"><ele>160.0</ele><time>2026-05-02T13:12:27.003Z</time></trkpt><trkpt lat="43.19819871083931" lon="11.459115898379183"><ele>158.33333333333334</ele><time>2026-05-02T13:12:28.003Z</time></trkpt><trkpt lat="43.19809577494895" lon="11.459284108210982"><ele>156.66666666666666</ele><time>2026-05-02T13:12:29.003Z</time></trkpt><trkpt lat="43.19799277060347" lon="11.459455964148177"><ele>155.0</ele><time>2026-05-02T13:12:30.003Z</time></trkpt><trkpt lat="43.197887649207345" lon="11.459628345598142"><ele>155.0</ele><time>2026-05-02T13:12:31.003Z</time></trkpt><trkpt lat="43.197780868537826" lon="11.459802383734436"><ele>155.0</ele><time>2026-05-02T13:12:32.003Z</time></trkpt><trkpt lat="43.197668019513905" lon="11.4599852426518"><ele>155.0</ele><time>2026-05-02T13:12:33.003Z</time></trkpt><trkpt lat="43.19755083913594" lon="11.460167057099529"><ele>155.0</ele><time>2026-05-02T13:12:34.003Z</time></trkpt><trkpt lat="43.197439346398454" lon="11.460337866699307"><ele>155.0</ele><time>2026-05-02T13:12:35.003Z</time></trkpt><trkpt lat="43.19732471043618" lon="11.460512105988888"><ele>155.0</ele><time>2026-05-02T13:12:36.003Z</time></trkpt><trkpt lat="43.197207408993016" lon="11.460689486882181"><ele>155.33333333333331</ele><time>2026-05-02T13:12:37.003Z</time></trkpt><trkpt lat="43.19708819997137" lon="11.460871191724218"><ele>155.66666666666666</ele><time>2026-05-02T13:12:38.003Z</time></trkpt><trkpt lat="43.19697377291787" lon="11.461046611855261"><ele>156.0</ele><time>2026-05-02T13:12:39.003Z</time></trkpt><trkpt lat="43.196863686657025" lon="11.461220201158717"><ele>155.66666666666666</ele><time>2026-05-02T13:12:40.003Z</time></trkpt><trkpt lat="43.19674627056177" lon="11.461400767886206"><ele>155.33333333333331</ele><time>2026-05-02T13:12:41.003Z</time></trkpt><trkpt lat="43.19662898744703" lon="11.46157882311836"><ele>155.0</ele><time>2026-05-02T13:12:42Z</time></trkpt><trkpt lat="43.19650912202789" lon="11.461763650163899"><ele>154.0</ele><time>2026-05-02T13:12:43Z</time></trkpt><trkpt lat="43.196392399898706" lon="11.461952387816531"><ele>153.0</ele><time>2026-05-02T13:12:44Z</time></trkpt><trkpt lat="43.19628007855702" lon="11.462148288568153"><ele>152.0</ele><time>2026-05-02T13:12:45Z</time></trkpt><trkpt lat="43.19618169914078" lon="11.462321635853261"><ele>151.66666666666666</ele><time>2026-05-02T13:12:46Z</time></trkpt><trkpt lat="43.19608130463414" lon="11.462517122658038"><ele>151.33333333333334</ele><time>2026-05-02T13:12:47Z</time></trkpt><trkpt lat="43.19600536636881" lon="11.46268613374179"><ele>151.0</ele><time>2026-05-02T13:12:48Z</time></trkpt><trkpt lat="43.19593751075169" lon="11.462859316973155"><ele>150.75</ele><time>2026-05-02T13:12:49Z</time></trkpt><trkpt lat="43.195869834880654" lon="11.463042970343109"><ele>150.5</ele><time>2026-05-02T13:12:50Z</time></trkpt><trkpt lat="43.1958070671616" lon="11.463226180400088"><ele>150.25</ele><time>2026-05-02T13:12:51Z</time></trkpt><trkpt lat="43.19574545987138" lon="11.463399784047015"><ele>150.0</ele><time>2026-05-02T13:12:52Z</time></trkpt><trkpt lat="43.19568378042802" lon="11.463561814130061"><ele>150.0</ele><time>2026-05-02T13:12:53Z</time></trkpt><trkpt lat="43.19562205119081" lon="11.463712513327803"><ele>150.0</ele><time>2026-05-02T13:12:54Z</time></trkpt><trkpt lat="43.19555703977937" lon="11.463878834499425"><ele>150.0</ele><time>2026-05-02T13:12:55Z</time></trkpt><trkpt lat="43.195491009624405" lon="11.46404149564586"><ele>150.0</ele><time>2026-05-02T13:12:56Z</time></trkpt><trkpt lat="43.19542378044277" lon="11.464210977406847"><ele>150.25</ele><time>2026-05-02T13:12:57Z</time></trkpt><trkpt lat="43.195354033552555" lon="11.46438196723435"><ele>150.5</ele><time>2026-05-02T13:12:58Z</time></trkpt><trkpt lat="43.19528125506442" lon="11.46456135855478"><ele>150.75</ele><time>2026-05-02T13:12:59Z</time></trkpt><trkpt lat="43.19520782164871" lon="11.464740376010603"><ele>151.0</ele><time>2026-05-02T13:13:00Z</time></trkpt><trkpt lat="43.19514176412215" lon="11.46490307806261"><ele>151.4</ele><time>2026-05-02T13:13:01Z</time></trkpt><trkpt lat="43.19508466739014" lon="11.465039807583794"><ele>151.8</ele><time>2026-05-02T13:13:02Z</time></trkpt><trkpt lat="43.195031893200266" lon="11.465161450974607"><ele>152.20000000000002</ele><time>2026-05-02T13:13:03Z</time></trkpt><trkpt lat="43.19498745777089" lon="11.465271905932958"><ele>152.6</ele><time>2026-05-02T13:13:04Z</time></trkpt><trkpt lat="43.194946369204516" lon="11.465377236591884"><ele>153.0</ele><time>2026-05-02T13:13:05Z</time></trkpt><trkpt lat="43.19491531388398" lon="11.465469672781834"><ele>153.33333333333334</ele><time>2026-05-02T13:13:06Z</time></trkpt><trkpt lat="43.19489700828402" lon="11.465560276279989"><ele>153.66666666666666</ele><time>2026-05-02T13:13:07Z</time></trkpt><trkpt lat="43.194897986604516" lon="11.465661528735112"><ele>154.0</ele><time>2026-05-02T13:13:08Z</time></trkpt><trkpt lat="43.19491968744699" lon="11.465767027558648"><ele>154.33333333333331</ele><time>2026-05-02T13:13:09Z</time></trkpt><trkpt lat="43.19496346962354" lon="11.465865364700832"><ele>154.66666666666666</ele><time>2026-05-02T13:13:10Z</time></trkpt><trkpt lat="43.19502941538361" lon="11.4659594375137"><ele>155.0</ele><time>2026-05-02T13:13:11Z</time></trkpt><trkpt lat="43.19511098179966" lon="11.466056767860696"><ele>155.0</ele><time>2026-05-02T13:13:12.001Z</time></trkpt><trkpt lat="43.19521001453655" lon="11.46618973877249"><ele>155.0</ele><time>2026-05-02T13:13:13.001Z</time></trkpt><trkpt lat="43.19530132092575" lon="11.466316150186184"><ele>155.0</ele><time>2026-05-02T13:13:14.001Z</time></trkpt><trkpt lat="43.19536471337045" lon="11.466431408890426"><ele>155.0</ele><time>2026-05-02T13:13:15.001Z</time></trkpt><trkpt lat="43.19540658269217" lon="11.466572011620794"><ele>156.0</ele><time>2026-05-02T13:13:16.001Z</time></trkpt><trkpt lat="43.19543747731615" lon="11.466760293391184"><ele>157.0</ele><time>2026-05-02T13:13:17.001Z</time></trkpt><trkpt lat="43.19545836151595" lon="11.46697861116298"><ele>158.0</ele><time>2026-05-02T13:13:18.001Z</time></trkpt><trkpt lat="43.19547935462582" lon="11.467187479753774"><ele>158.4</ele><time>2026-05-02T13:13:19.001Z</time></trkpt><trkpt lat="43.19550436507886" lon="11.467358334942123"><ele>158.8</ele><time>2026-05-02T13:13:20.001Z</time></trkpt><trkpt lat="43.19552955605393" lon="11.46747497588793"><ele>159.2</ele><time>2026-05-02T13:13:21.001Z</time></trkpt><trkpt lat="43.19557217228863" lon="11.467554392282514"><ele>159.6</ele><time>2026-05-02T13:13:22.001Z</time></trkpt><trkpt lat="43.195645979170315" lon="11.467624212587726"><ele>160.0</ele><time>2026-05-02T13:13:23.001Z</time></trkpt><trkpt lat="43.19573631016142" lon="11.467662516729076"><ele>161.0</ele><time>2026-05-02T13:13:24.001Z</time></trkpt><trkpt lat="43.195839925740664" lon="11.46768787528801"><ele>162.0</ele><time>2026-05-02T13:13:25.001Z</time></trkpt><trkpt lat="43.19593426194253" lon="11.467700466550125"><ele>163.0</ele><time>2026-05-02T13:13:26.001Z</time></trkpt><trkpt lat="43.19601820587606" lon="11.46772919240501"><ele>164.0</ele><time>2026-05-02T13:13:27.001Z</time></trkpt><trkpt lat="43.196095381295194" lon="11.467781868847132"><ele>165.0</ele><time>2026-05-02T13:13:28.001Z</time></trkpt><trkpt lat="43.19616883162373" lon="11.467842188340503"><ele>165.0</ele><time>2026-05-02T13:13:29.001Z</time></trkpt><trkpt lat="43.19623884106981" lon="11.46791886002671"><ele>165.0</ele><time>2026-05-02T13:13:30.001Z</time></trkpt><trkpt lat="43.19629815604957" lon="11.467996574009844"><ele>165.0</ele><time>2026-05-02T13:13:31.001Z</time></trkpt><trkpt lat="43.19635032275027" lon="11.46807985276644"><ele>165.0</ele><time>2026-05-02T13:13:32.001Z</time></trkpt><trkpt lat="43.19639935657413" lon="11.468162748839616"><ele>165.0</ele><time>2026-05-02T13:13:33.001Z</time></trkpt><trkpt lat="43.196448856212825" lon="11.468248625153798"><ele>165.0</ele><time>2026-05-02T13:13:34.001Z</time></trkpt><trkpt lat="43.196496481277805" lon="11.468324565591109"><ele>166.66666666666666</ele><time>2026-05-02T13:13:35.001Z</time></trkpt><trkpt lat="43.19654501143999" lon="11.46840498812243"><ele>168.33333333333334</ele><time>2026-05-02T13:13:36.001Z</time></trkpt><trkpt lat="43.19657661399754" lon="11.468481108706701"><ele>170.0</ele><time>2026-05-02T13:13:37.001Z</time></trkpt><trkpt lat="43.196607783668846" lon="11.468640786678915"><ele>171.66666666666669</ele><time>2026-05-02T13:13:39.001Z</time></trkpt><trkpt lat="43.19661482346161" lon="11.46872846663443"><ele>173.33333333333334</ele><time>2026-05-02T13:13:40.001Z</time></trkpt><trkpt lat="43.196619880878636" lon="11.468821039645606"><ele>175.0</ele><time>2026-05-02T13:13:41.001Z</time></trkpt><trkpt lat="43.1966548938679" lon="11.468975779913837"><ele>176.0</ele><time>2026-05-02T13:13:43.001Z</time></trkpt><trkpt lat="43.19669927533889" lon="11.469041144229115"><ele>177.0</ele><time>2026-05-02T13:13:44.002Z</time></trkpt><trkpt lat="43.19674772712623" lon="11.469106471634834"><ele>178.0</ele><time>2026-05-02T13:13:45.002Z</time></trkpt><trkpt lat="43.196829225865464" lon="11.469238888015079"><ele>179.0</ele><time>2026-05-02T13:13:47.002Z</time></trkpt><trkpt lat="43.19687136813638" lon="11.469307463620986"><ele>180.0</ele><time>2026-05-02T13:13:48.002Z</time></trkpt><trkpt lat="43.196912888538336" lon="11.469376014905054"><ele>181.0</ele><time>2026-05-02T13:13:49.002Z</time></trkpt><trkpt lat="43.19695121322885" lon="11.469449083141631"><ele>181.0</ele><time>2026-05-02T13:13:50.002Z</time></trkpt><trkpt lat="43.19698847905716" lon="11.469522976877297"><ele>181.0</ele><time>2026-05-02T13:13:51.002Z</time></trkpt><trkpt lat="43.197030222300974" lon="11.469608389577058"><ele>181.0</ele><time>2026-05-02T13:13:52.002Z</time></trkpt><trkpt lat="43.197068028390376" lon="11.469701832416682"><ele>181.0</ele><time>2026-05-02T13:13:53.002Z</time></trkpt><trkpt lat="43.19711035020007" lon="11.469794617780874"><ele>181.0</ele><time>2026-05-02T13:13:54.002Z</time></trkpt><trkpt lat="43.197148170635174" lon="11.469893855740182"><ele>181.0</ele><time>2026-05-02T13:13:55.002Z</time></trkpt><trkpt lat="43.19718134112996" lon="11.469992223743288"><ele>181.16666666666669</ele><time>2026-05-02T13:13:56.002Z</time></trkpt><trkpt lat="43.19721419303433" lon="11.470092534115981"><ele>181.33333333333334</ele><time>2026-05-02T13:13:57.002Z</time></trkpt><trkpt lat="43.19723750817294" lon="11.47018847866527"><ele>181.5</ele><time>2026-05-02T13:13:58.002Z</time></trkpt><trkpt lat="43.19726564864757" lon="11.470281558073399"><ele>181.66666666666666</ele><time>2026-05-02T13:13:59.002Z</time></trkpt><trkpt lat="43.19730437477598" lon="11.470365107940651"><ele>181.83333333333331</ele><time>2026-05-02T13:14:00.002Z</time></trkpt><trkpt lat="43.19736004497634" lon="11.470437550188752"><ele>182.0</ele><time>2026-05-02T13:14:01.002Z</time></trkpt><trkpt lat="43.1974193649009" lon="11.470505914716872"><ele>185.6</ele><time>2026-05-02T13:14:02.002Z</time></trkpt><trkpt lat="43.19749168676425" lon="11.470554975068923"><ele>189.2</ele><time>2026-05-02T13:14:03.002Z</time></trkpt><trkpt lat="43.197584261415386" lon="11.470593455236859"><ele>192.8</ele><time>2026-05-02T13:14:04.002Z</time></trkpt><trkpt lat="43.19768455455553" lon="11.47061449003542"><ele>196.4</ele><time>2026-05-02T13:14:05.002Z</time></trkpt><trkpt lat="43.19778874010153" lon="11.470618005751222"><ele>200.0</ele><time>2026-05-02T13:14:06.002Z</time></trkpt><trkpt lat="43.19787654937541" lon="11.470628646599025"><ele>200.0</ele><time>2026-05-02T13:14:07.002Z</time></trkpt><trkpt lat="43.197965284231906" lon="11.470668435579896"><ele>200.0</ele><time>2026-05-02T13:14:08.002Z</time></trkpt><trkpt lat="43.19806347132955" lon="11.470750602047529"><ele>200.0</ele><time>2026-05-02T13:14:09.002Z</time></trkpt><trkpt lat="43.19815631371552" lon="11.470850039745047"><ele>200.0</ele><time>2026-05-02T13:14:10.002Z</time></trkpt><trkpt lat="43.19824557457417" lon="11.470959243925916"><ele>200.0</ele><time>2026-05-02T13:14:11.002Z</time></trkpt><trkpt lat="43.19831509598579" lon="11.471081587724747"><ele>200.8</ele><time>2026-05-02T13:14:12.002Z</time></trkpt><trkpt lat="43.198375687496736" lon="11.47121258161685"><ele>201.6</ele><time>2026-05-02T13:14:13.002Z</time></trkpt><trkpt lat="43.19843248018038" lon="11.471358600879753"><ele>202.39999999999998</ele><time>2026-05-02T13:14:14.002Z</time></trkpt><trkpt lat="43.198473038523694" lon="11.471497454795927"><ele>203.2</ele><time>2026-05-02T13:14:15.002Z</time></trkpt><trkpt lat="43.19850222542641" lon="11.471632441829394"><ele>204.0</ele><time>2026-05-02T13:14:16.002Z</time></trkpt><trkpt lat="43.19852587469279" lon="11.471786467447593"><ele>205.5</ele><time>2026-05-02T13:14:17.003Z</time></trkpt><trkpt lat="43.19853968995074" lon="11.471949497851226"><ele>207.0</ele><time>2026-05-02T13:14:18.003Z</time></trkpt><trkpt lat="43.19852882732583" lon="11.472121596919914"><ele>208.5</ele><time>2026-05-02T13:14:19.003Z</time></trkpt><trkpt lat="43.19851489601291" lon="11.472313110573651"><ele>210.0</ele><time>2026-05-02T13:14:20.003Z</time></trkpt><trkpt lat="43.19849470484685" lon="11.472483499695848"><ele>210.6</ele><time>2026-05-02T13:14:21.003Z</time></trkpt><trkpt lat="43.19847821884663" lon="11.472629395013248"><ele>211.2</ele><time>2026-05-02T13:14:22.003Z</time></trkpt><trkpt lat="43.19847901081358" lon="11.472754892860209"><ele>211.8</ele><time>2026-05-02T13:14:23.003Z</time></trkpt><trkpt lat="43.19849813308113" lon="11.472882429669344"><ele>212.4</ele><time>2026-05-02T13:14:24.003Z</time></trkpt><trkpt lat="43.19855099341061" lon="11.473016867300885"><ele>213.0</ele><time>2026-05-02T13:14:25.003Z</time></trkpt><trkpt lat="43.19863406153387" lon="11.473177111071262"><ele>213.2</ele><time>2026-05-02T13:14:26.003Z</time></trkpt><trkpt lat="43.19871033865945" lon="11.473326664347903"><ele>213.4</ele><time>2026-05-02T13:14:27.003Z</time></trkpt><trkpt lat="43.19877133914656" lon="11.473449401162151"><ele>213.59999999999997</ele><time>2026-05-02T13:14:28.003Z</time></trkpt><trkpt lat="43.198818502600844" lon="11.473555920781413"><ele>213.79999999999998</ele><time>2026-05-02T13:14:29.003Z</time></trkpt><trkpt lat="43.198850616798985" lon="11.473660895840196"><ele>214.0</ele><time>2026-05-02T13:14:30.003Z</time></trkpt><trkpt lat="43.1988704698227" lon="11.473814041116897"><ele>211.75</ele><time>2026-05-02T13:14:31.003Z</time></trkpt><trkpt lat="43.198865789526984" lon="11.473994801061641"><ele>209.5</ele><time>2026-05-02T13:14:32.003Z</time></trkpt><trkpt lat="43.19885804444694" lon="11.474157034828961"><ele>207.25</ele><time>2026-05-02T13:14:33.003Z</time></trkpt><trkpt lat="43.198869745528796" lon="11.474315639975025"><ele>205.0</ele><time>2026-05-02T13:14:34.003Z</time></trkpt><trkpt lat="43.19890869888293" lon="11.47445638618458"><ele>205.0</ele><time>2026-05-02T13:14:35.003Z</time></trkpt><trkpt lat="43.198969302694394" lon="11.474593282633487"><ele>205.0</ele><time>2026-05-02T13:14:36.003Z</time></trkpt><trkpt lat="43.19905582796962" lon="11.474750836384416"><ele>205.0</ele><time>2026-05-02T13:14:37.003Z</time></trkpt><trkpt lat="43.199160675425375" lon="11.474927652873271"><ele>205.0</ele><time>2026-05-02T13:14:38.003Z</time></trkpt><trkpt lat="43.199259324609905" lon="11.475113953467137"><ele>203.5</ele><time>2026-05-02T13:14:39.003Z</time></trkpt><trkpt lat="43.19934646870445" lon="11.475273247583486"><ele>202.0</ele><time>2026-05-02T13:14:40.003Z</time></trkpt><trkpt lat="43.199421709047854" lon="11.475398819031142"><ele>200.5</ele><time>2026-05-02T13:14:41.003Z</time></trkpt><trkpt lat="43.199500669235015" lon="11.47550964857089"><ele>199.0</ele><time>2026-05-02T13:14:42.003Z</time></trkpt><trkpt lat="43.1995930494984" lon="11.475616810460288"><ele>200.75</ele><time>2026-05-02T13:14:43.003Z</time></trkpt><trkpt lat="43.19969121030249" lon="11.475708504062966"><ele>202.5</ele><time>2026-05-02T13:14:44.003Z</time></trkpt><trkpt lat="43.199795918139685" lon="11.475781989308274"><ele>204.25</ele><time>2026-05-02T13:14:45.003Z</time></trkpt><trkpt lat="43.19991033320148" lon="11.47584105335091"><ele>206.0</ele><time>2026-05-02T13:14:46.003Z</time></trkpt><trkpt lat="43.2000151040273" lon="11.475919899161525"><ele>206.0</ele><time>2026-05-02T13:14:47.003Z</time></trkpt><trkpt lat="43.2001148893006" lon="11.476031708655404"><ele>206.0</ele><time>2026-05-02T13:14:48Z</time></trkpt><trkpt lat="43.20019838873778" lon="11.476150392192825"><ele>206.0</ele><time>2026-05-02T13:14:49Z</time></trkpt><trkpt lat="43.20029537193879" lon="11.476267899224476"><ele>206.0</ele><time>2026-05-02T13:14:50Z</time></trkpt><trkpt lat="43.200424927065384" lon="11.476391126690496"><ele>207.0</ele><time>2026-05-02T13:14:51Z</time></trkpt><trkpt lat="43.2005489024829" lon="11.476513861177823"><ele>208.0</ele><time>2026-05-02T13:14:52Z</time></trkpt><trkpt lat="43.200645853403536" lon="11.476634031693935"><ele>209.0</ele><time>2026-05-02T13:14:53Z</time></trkpt><trkpt lat="43.20073472267924" lon="11.476778034260109"><ele>210.0</ele><time>2026-05-02T13:14:54Z</time></trkpt><trkpt lat="43.200821453740595" lon="11.47695615086384"><ele>208.66666666666669</ele><time>2026-05-02T13:14:55Z</time></trkpt><trkpt lat="43.20090422293157" lon="11.47714388309606"><ele>207.33333333333334</ele><time>2026-05-02T13:14:56Z</time></trkpt><trkpt lat="43.20098097559026" lon="11.47732749505403"><ele>206.0</ele><time>2026-05-02T13:14:57Z</time></trkpt><trkpt lat="43.2010530770202" lon="11.477513411291682"><ele>206.0</ele><time>2026-05-02T13:14:58Z</time></trkpt><trkpt lat="43.20111842125305" lon="11.477691501643367"><ele>206.0</ele><time>2026-05-02T13:14:59Z</time></trkpt><trkpt lat="43.20118726252621" lon="11.477869837440409"><ele>206.0</ele><time>2026-05-02T13:15:00Z</time></trkpt><trkpt lat="43.20125606081879" lon="11.478050067123467"><ele>206.0</ele><time>2026-05-02T13:15:01Z</time></trkpt><trkpt lat="43.20133882869433" lon="11.47824700648904"><ele>207.0</ele><time>2026-05-02T13:15:02Z</time></trkpt><trkpt lat="43.201422226469894" lon="11.478440749414778"><ele>208.0</ele><time>2026-05-02T13:15:03Z</time></trkpt><trkpt lat="43.2014999437796" lon="11.478629279552072"><ele>209.0</ele><time>2026-05-02T13:15:04Z</time></trkpt><trkpt lat="43.201573174957154" lon="11.478821061374672"><ele>210.33333333333334</ele><time>2026-05-02T13:15:05Z</time></trkpt><trkpt lat="43.20164770609994" lon="11.47903745555075"><ele>211.66666666666669</ele><time>2026-05-02T13:15:06Z</time></trkpt><trkpt lat="43.20172047383019" lon="11.479283812311808"><ele>213.0</ele><time>2026-05-02T13:15:07Z</time></trkpt><trkpt lat="43.20178156306749" lon="11.479526306187433"><ele>212.66666666666669</ele><time>2026-05-02T13:15:08Z</time></trkpt><trkpt lat="43.20183388267812" lon="11.479736798547618"><ele>212.33333333333334</ele><time>2026-05-02T13:15:09Z</time></trkpt><trkpt lat="43.20188930185894" lon="11.47994127344406"><ele>212.0</ele><time>2026-05-02T13:15:10Z</time></trkpt><trkpt lat="43.201965678343235" lon="11.48016772615576"><ele>212.0</ele><time>2026-05-02T13:15:11Z</time></trkpt><trkpt lat="43.20204731615179" lon="11.480371951550143"><ele>212.0</ele><time>2026-05-02T13:15:12Z</time></trkpt><trkpt lat="43.20211607691515" lon="11.4805476652323"><ele>212.0</ele><time>2026-05-02T13:15:13Z</time></trkpt><trkpt lat="43.20217237484565" lon="11.480711922053693"><ele>212.0</ele><time>2026-05-02T13:15:14Z</time></trkpt><trkpt lat="43.20221692037253" lon="11.48090777928683"><ele>212.66666666666669</ele><time>2026-05-02T13:15:15Z</time></trkpt><trkpt lat="43.20225161125152" lon="11.48114361668878"><ele>213.33333333333331</ele><time>2026-05-02T13:15:16Z</time></trkpt><trkpt lat="43.202274976145475" lon="11.48135512967196"><ele>214.0</ele><time>2026-05-02T13:15:17Z</time></trkpt><trkpt lat="43.202296510106535" lon="11.481523821986242"><ele>214.0</ele><time>2026-05-02T13:15:18Z</time></trkpt><trkpt lat="43.202315178313675" lon="11.481689307303975"><ele>214.0</ele><time>2026-05-02T13:15:19Z</time></trkpt><trkpt lat="43.20231864323862" lon="11.48187638190754"><ele>214.0</ele><time>2026-05-02T13:15:20.001Z</time></trkpt><trkpt lat="43.202297690996865" lon="11.482073670817623"><ele>214.0</ele><time>2026-05-02T13:15:21.001Z</time></trkpt><trkpt lat="43.20225128370688" lon="11.482281104951358"><ele>216.25</ele><time>2026-05-02T13:15:22.001Z</time></trkpt><trkpt lat="43.20221078562111" lon="11.482481196662112"><ele>218.5</ele><time>2026-05-02T13:15:23.001Z</time></trkpt><trkpt lat="43.20218879712379" lon="11.482653558868163"><ele>220.75</ele><time>2026-05-02T13:15:24.001Z</time></trkpt><trkpt lat="43.20219090432569" lon="11.482815436909501"><ele>223.0</ele><time>2026-05-02T13:15:25.001Z</time></trkpt><trkpt lat="43.202201015569656" lon="11.482983540760827"><ele>225.8</ele><time>2026-05-02T13:15:26.001Z</time></trkpt><trkpt lat="43.20219868725717" lon="11.48313459879991"><ele>228.60000000000002</ele><time>2026-05-02T13:15:27.001Z</time></trkpt><trkpt lat="43.20217506062522" lon="11.48326080718554"><ele>231.39999999999998</ele><time>2026-05-02T13:15:28.001Z</time></trkpt><trkpt lat="43.202123673789515" lon="11.483368998128723"><ele>234.2</ele><time>2026-05-02T13:15:29.001Z</time></trkpt><trkpt lat="43.20205873342407" lon="11.483476455984318"><ele>237.0</ele><time>2026-05-02T13:15:30.001Z</time></trkpt><trkpt lat="43.20197472145971" lon="11.4836026700864"><ele>237.0</ele><time>2026-05-02T13:15:31.001Z</time></trkpt><trkpt lat="43.20188660208473" lon="11.483735004036033"><ele>237.0</ele><time>2026-05-02T13:15:32.001Z</time></trkpt><trkpt lat="43.201821039369946" lon="11.483851093196591"><ele>237.0</ele><time>2026-05-02T13:15:33.001Z</time></trkpt><trkpt lat="43.20177737960406" lon="11.483942166148136"><ele>237.0</ele><time>2026-05-02T13:15:34.001Z</time></trkpt><trkpt lat="43.20175384152488" lon="11.484035335567125"><ele>237.0</ele><time>2026-05-02T13:15:35.001Z</time></trkpt><trkpt lat="43.20176025635521" lon="11.48414239260681"><ele>240.2</ele><time>2026-05-02T13:15:36.001Z</time></trkpt><trkpt lat="43.201791759364404" lon="11.484251702160172"><ele>243.39999999999998</ele><time>2026-05-02T13:15:37.001Z</time></trkpt><trkpt lat="43.20184258615837" lon="11.484354701512409"><ele>246.60000000000002</ele><time>2026-05-02T13:15:38.001Z</time></trkpt><trkpt lat="43.201905889911615" lon="11.484466860342867"><ele>249.8</ele><time>2026-05-02T13:15:39.001Z</time></trkpt><trkpt lat="43.20198182231618" lon="11.484595161080348"><ele>253.0</ele><time>2026-05-02T13:15:40.001Z</time></trkpt><trkpt lat="43.2020399529498" lon="11.484726349362937"><ele>255.25</ele><time>2026-05-02T13:15:41.001Z</time></trkpt><trkpt lat="43.20207406964105" lon="11.48486476040741"><ele>257.5</ele><time>2026-05-02T13:15:42.001Z</time></trkpt><trkpt lat="43.20210565194443" lon="11.485037161456573"><ele>259.75</ele><time>2026-05-02T13:15:43.001Z</time></trkpt><trkpt lat="43.20213864015908" lon="11.485223401324244"><ele>262.0</ele><time>2026-05-02T13:15:44.001Z</time></trkpt><trkpt lat="43.20216963877857" lon="11.485385142642084"><ele>260.0</ele><time>2026-05-02T13:15:45.001Z</time></trkpt><trkpt lat="43.20220165755144" lon="11.485538798951124"><ele>258.0</ele><time>2026-05-02T13:15:46.001Z</time></trkpt><trkpt lat="43.20223609762391" lon="11.48569275877751"><ele>256.0</ele><time>2026-05-02T13:15:47.001Z</time></trkpt><trkpt lat="43.202274222969855" lon="11.48583661069793"><ele>254.0</ele><time>2026-05-02T13:15:48.001Z</time></trkpt><trkpt lat="43.20231651674548" lon="11.485969606746572"><ele>254.5</ele><time>2026-05-02T13:15:49.001Z</time></trkpt><trkpt lat="43.2023646858512" lon="11.486096534225828"><ele>255.0</ele><time>2026-05-02T13:15:50.001Z</time></trkpt><trkpt lat="43.202443263455386" lon="11.486234684799511"><ele>255.5</ele><time>2026-05-02T13:15:51.001Z</time></trkpt><trkpt lat="43.20254338909444" lon="11.486372822585174"><ele>256.0</ele><time>2026-05-02T13:15:52.001Z</time></trkpt><trkpt lat="43.20264502817794" lon="11.486508146135224"><ele>253.33333333333331</ele><time>2026-05-02T13:15:53.002Z</time></trkpt><trkpt lat="43.20277815047544" lon="11.486671266254202"><ele>250.66666666666669</ele><time>2026-05-02T13:15:54.002Z</time></trkpt><trkpt lat="43.202920199788686" lon="11.486856605157783"><ele>248.0</ele><time>2026-05-02T13:15:55.002Z</time></trkpt><trkpt lat="43.20305775494619" lon="11.487021877872376"><ele>248.33333333333334</ele><time>2026-05-02T13:15:56.002Z</time></trkpt><trkpt lat="43.20318076753925" lon="11.48718003127732"><ele>248.66666666666669</ele><time>2026-05-02T13:15:57.002Z</time></trkpt><trkpt lat="43.2032969497741" lon="11.487316600178998"><ele>249.0</ele><time>2026-05-02T13:15:58.002Z</time></trkpt><trkpt lat="43.20339824634941" lon="11.487454740632254"><ele>249.0</ele><time>2026-05-02T13:15:59.002Z</time></trkpt><trkpt lat="43.20349426130544" lon="11.487572934816816"><ele>249.0</ele><time>2026-05-02T13:16:00.002Z</time></trkpt><trkpt lat="43.20358285074057" lon="11.487695983583297"><ele>249.0</ele><time>2026-05-02T13:16:01.002Z</time></trkpt><trkpt lat="43.20366322305679" lon="11.487814821558596"><ele>249.0</ele><time>2026-05-02T13:16:02.002Z</time></trkpt><trkpt lat="43.203758661955874" lon="11.487976728941897"><ele>244.66666666666669</ele><time>2026-05-02T13:16:03.002Z</time></trkpt><trkpt lat="43.203862423768406" lon="11.488168326390063"><ele>240.33333333333334</ele><time>2026-05-02T13:16:04.002Z</time></trkpt><trkpt lat="43.20395922861772" lon="11.488357527597728"><ele>236.0</ele><time>2026-05-02T13:16:05.002Z</time></trkpt><trkpt lat="43.20404982619677" lon="11.488520213929977"><ele>239.0</ele><time>2026-05-02T13:16:06.002Z</time></trkpt><trkpt lat="43.204129945114836" lon="11.488662100577438"><ele>242.0</ele><time>2026-05-02T13:16:07.002Z</time></trkpt><trkpt lat="43.204220877757635" lon="11.488781472982906"><ele>245.0</ele><time>2026-05-02T13:16:08.002Z</time></trkpt><trkpt lat="43.204304436702216" lon="11.488896456270338"><ele>248.0</ele><time>2026-05-02T13:16:09.002Z</time></trkpt><trkpt lat="43.20439508966398" lon="11.489024032580854"><ele>248.0</ele><time>2026-05-02T13:16:10.002Z</time></trkpt><trkpt lat="43.20448027502683" lon="11.4891829935411"><ele>248.0</ele><time>2026-05-02T13:16:11.002Z</time></trkpt><trkpt lat="43.20455873352626" lon="11.489364424906167"><ele>248.0</ele><time>2026-05-02T13:16:12.002Z</time></trkpt><trkpt lat="43.20462439148375" lon="11.48955286260253"><ele>244.75</ele><time>2026-05-02T13:16:13.002Z</time></trkpt><trkpt lat="43.20467027707503" lon="11.489741615317127"><ele>241.5</ele><time>2026-05-02T13:16:14.002Z</time></trkpt><trkpt lat="43.20471945730096" lon="11.489917272499879"><ele>238.25</ele><time>2026-05-02T13:16:15.002Z</time></trkpt><trkpt lat="43.20477044170888" lon="11.4900733163142"><ele>235.0</ele><time>2026-05-02T13:16:16.002Z</time></trkpt><trkpt lat="43.20481762159794" lon="11.490207437850975"><ele>237.5</ele><time>2026-05-02T13:16:17.002Z</time></trkpt><trkpt lat="43.20487023359453" lon="11.490320749224301"><ele>240.0</ele><time>2026-05-02T13:16:18.002Z</time></trkpt><trkpt lat="43.20493666080743" lon="11.490417447021011"><ele>242.5</ele><time>2026-05-02T13:16:19.002Z</time></trkpt><trkpt lat="43.20502818707207" lon="11.490531332965183"><ele>245.0</ele><time>2026-05-02T13:16:20.002Z</time></trkpt><trkpt lat="43.20512748887302" lon="11.490656184516482"><ele>245.0</ele><time>2026-05-02T13:16:21.002Z</time></trkpt><trkpt lat="43.20520727771578" lon="11.490754990391109"><ele>245.0</ele><time>2026-05-02T13:16:22.002Z</time></trkpt><trkpt lat="43.20529116817466" lon="11.490828325627387"><ele>245.0</ele><time>2026-05-02T13:16:23.002Z</time></trkpt><trkpt lat="43.205388031209814" lon="11.490877667953356"><ele>245.0</ele><time>2026-05-02T13:16:24.002Z</time></trkpt><trkpt lat="43.20549315277191" lon="11.490902854312628"><ele>245.0</ele><time>2026-05-02T13:16:25.002Z</time></trkpt><trkpt lat="43.20561147060322" lon="11.49091015735024"><ele>248.25</ele><time>2026-05-02T13:16:26.003Z</time></trkpt><trkpt lat="43.20573697357557" lon="11.490903023214326"><ele>251.5</ele><time>2026-05-02T13:16:27.003Z</time></trkpt><trkpt lat="43.2058592991658" lon="11.490891436060496"><ele>254.75</ele><time>2026-05-02T13:16:28.003Z</time></trkpt><trkpt lat="43.20597090184296" lon="11.490874613329234"><ele>258.0</ele><time>2026-05-02T13:16:29.003Z</time></trkpt><trkpt lat="43.206081093746015" lon="11.490860844737346"><ele>258.0</ele><time>2026-05-02T13:16:30.003Z</time></trkpt><trkpt lat="43.20618494434736" lon="11.490866306107433"><ele>258.0</ele><time>2026-05-02T13:16:31.003Z</time></trkpt><trkpt lat="43.20628366733911" lon="11.49089250078677"><ele>258.0</ele><time>2026-05-02T13:16:32.003Z</time></trkpt><trkpt lat="43.20637632515729" lon="11.490921875534784"><ele>258.0</ele><time>2026-05-02T13:16:33.003Z</time></trkpt><trkpt lat="43.20646009972933" lon="11.490967707212425"><ele>258.0</ele><time>2026-05-02T13:16:34.003Z</time></trkpt><trkpt lat="43.20654572146597" lon="11.491031544570703"><ele>257.75</ele><time>2026-05-02T13:16:35.003Z</time></trkpt><trkpt lat="43.20663326642319" lon="11.491124587703656"><ele>257.5</ele><time>2026-05-02T13:16:36.003Z</time></trkpt><trkpt lat="43.206710713619195" lon="11.491253457203085"><ele>257.25</ele><time>2026-05-02T13:16:37.003Z</time></trkpt><trkpt lat="43.20677334479622" lon="11.491399468683907"><ele>257.0</ele><time>2026-05-02T13:16:38.003Z</time></trkpt><trkpt lat="43.20681594143013" lon="11.491523412944458"><ele>256.2</ele><time>2026-05-02T13:16:39.003Z</time></trkpt><trkpt lat="43.20686411740746" lon="11.491654263639687"><ele>255.39999999999998</ele><time>2026-05-02T13:16:40.003Z</time></trkpt><trkpt lat="43.20691492367306" lon="11.491762098209591"><ele>254.60000000000002</ele><time>2026-05-02T13:16:41.003Z</time></trkpt><trkpt lat="43.20697713079839" lon="11.491873094782779"><ele>253.8</ele><time>2026-05-02T13:16:42.003Z</time></trkpt><trkpt lat="43.207049604736305" lon="11.491987446471468"><ele>253.0</ele><time>2026-05-02T13:16:43.003Z</time></trkpt><trkpt lat="43.20713722119402" lon="11.492100230987196"><ele>251.75</ele><time>2026-05-02T13:16:44.003Z</time></trkpt><trkpt lat="43.20724086477104" lon="11.492202680152177"><ele>250.5</ele><time>2026-05-02T13:16:45.003Z</time></trkpt><trkpt lat="43.20735488507022" lon="11.492303994344232"><ele>249.25</ele><time>2026-05-02T13:16:46.003Z</time></trkpt><trkpt lat="43.20746944891283" lon="11.492413957538634"><ele>248.0</ele><time>2026-05-02T13:16:47.003Z</time></trkpt><trkpt lat="43.20758020806932" lon="11.492524656596347"><ele>248.0</ele><time>2026-05-02T13:16:48.003Z</time></trkpt><trkpt lat="43.20769104825099" lon="11.492646784351818"><ele>248.0</ele><time>2026-05-02T13:16:49.003Z</time></trkpt><trkpt lat="43.207809778568084" lon="11.49277084652752"><ele>248.0</ele><time>2026-05-02T13:16:50.003Z</time></trkpt><trkpt lat="43.2079327706164" lon="11.49289965625821"><ele>248.0</ele><time>2026-05-02T13:16:51.003Z</time></trkpt><trkpt lat="43.20805604720696" lon="11.493029881243242"><ele>248.5</ele><time>2026-05-02T13:16:52.003Z</time></trkpt><trkpt lat="43.20817495314241" lon="11.493155505227941"><ele>249.0</ele><time>2026-05-02T13:16:53.003Z</time></trkpt><trkpt lat="43.208290368107164" lon="11.493263442981654"><ele>249.5</ele><time>2026-05-02T13:16:54Z</time></trkpt><trkpt lat="43.20840077477157" lon="11.493361517257684"><ele>250.0</ele><time>2026-05-02T13:16:55Z</time></trkpt><trkpt lat="43.20849749787646" lon="11.493445607463487"><ele>250.0</ele><time>2026-05-02T13:16:56Z</time></trkpt><trkpt lat="43.20858714017429" lon="11.493513864052037"><ele>250.0</ele><time>2026-05-02T13:16:57Z</time></trkpt><trkpt lat="43.20866557409793" lon="11.49357278615537"><ele>250.0</ele><time>2026-05-02T13:16:58Z</time></trkpt><trkpt lat="43.20873232550657" lon="11.493637659518328"><ele>250.0</ele><time>2026-05-02T13:16:59Z</time></trkpt><trkpt lat="43.20879686964676" lon="11.493722185831183"><ele>250.0</ele><time>2026-05-02T13:17:00Z</time></trkpt><trkpt lat="43.20885601292961" lon="11.493810796636248"><ele>251.8</ele><time>2026-05-02T13:17:01Z</time></trkpt><trkpt lat="43.20891508922157" lon="11.493933813925558"><ele>253.6</ele><time>2026-05-02T13:17:02Z</time></trkpt><trkpt lat="43.20897120332325" lon="11.494070984533376"><ele>255.39999999999998</ele><time>2026-05-02T13:17:03Z</time></trkpt><trkpt lat="43.209019707051105" lon="11.49420683202699"><ele>257.2</ele><time>2026-05-02T13:17:04Z</time></trkpt><trkpt lat="43.209062855874045" lon="11.494349469389192"><ele>259.0</ele><time>2026-05-02T13:17:05Z</time></trkpt><trkpt lat="43.20910405752535" lon="11.494504318360676"><ele>259.5</ele><time>2026-05-02T13:17:06Z</time></trkpt><trkpt lat="43.20914529325466" lon="11.494658368071601"><ele>260.0</ele><time>2026-05-02T13:17:07Z</time></trkpt><trkpt lat="43.209178355047385" lon="11.49481499096371"><ele>260.5</ele><time>2026-05-02T13:17:08Z</time></trkpt><trkpt lat="43.209202241640185" lon="11.494965014763979"><ele>261.0</ele><time>2026-05-02T13:17:09Z</time></trkpt><trkpt lat="43.209217405393574" lon="11.49510394641021"><ele>261.0</ele><time>2026-05-02T13:17:10Z</time></trkpt><trkpt lat="43.20922943316553" lon="11.495227735752907"><ele>261.0</ele><time>2026-05-02T13:17:11Z</time></trkpt><trkpt lat="43.20923528209472" lon="11.49532854209582"><ele>261.0</ele><time>2026-05-02T13:17:12Z</time></trkpt><trkpt lat="43.20928448763228" lon="11.49550257384059"><ele>261.0</ele><time>2026-05-02T13:17:14Z</time></trkpt><trkpt lat="43.20933284834303" lon="11.495621987112829"><ele>261.0</ele><time>2026-05-02T13:17:15Z</time></trkpt><trkpt lat="43.209382012952304" lon="11.495738461162665"><ele>261.3333333333333</ele><time>2026-05-02T13:17:16Z</time></trkpt><trkpt lat="43.209422781360495" lon="11.495844343592601"><ele>261.6666666666667</ele><time>2026-05-02T13:17:17Z</time></trkpt><trkpt lat="43.209458412931234" lon="11.495950276497553"><ele>262.0</ele><time>2026-05-02T13:17:18Z</time></trkpt><trkpt lat="43.209485431722946" lon="11.496055034294052"><ele>262.33333333333337</ele><time>2026-05-02T13:17:19Z</time></trkpt><trkpt lat="43.20951213442078" lon="11.496155752168773"><ele>262.6666666666667</ele><time>2026-05-02T13:17:20Z</time></trkpt><trkpt lat="43.2095505229974" lon="11.496259960037774"><ele>263.0</ele><time>2026-05-02T13:17:21Z</time></trkpt><trkpt lat="43.209585429578" lon="11.496353148588012"><ele>263.4</ele><time>2026-05-02T13:17:22Z</time></trkpt><trkpt lat="43.209630989654435" lon="11.49644980477541"><ele>263.8</ele><time>2026-05-02T13:17:23.001Z</time></trkpt><trkpt lat="43.209678172851966" lon="11.496543104051185"><ele>264.2</ele><time>2026-05-02T13:17:24.001Z</time></trkpt><trkpt lat="43.20973926624384" lon="11.496638522070175"><ele>264.6</ele><time>2026-05-02T13:17:25.001Z</time></trkpt><trkpt lat="43.20981757476023" lon="11.49672852210493"><ele>265.0</ele><time>2026-05-02T13:17:26.001Z</time></trkpt><trkpt lat="43.20990728445899" lon="11.49681219471074"><ele>265.0</ele><time>2026-05-02T13:17:27.001Z</time></trkpt><trkpt lat="43.21000606390865" lon="11.496884975249586"><ele>265.0</ele><time>2026-05-02T13:17:28.001Z</time></trkpt><trkpt lat="43.2101027348306" lon="11.49695069416817"><ele>265.0</ele><time>2026-05-02T13:17:29.001Z</time></trkpt><trkpt lat="43.210183436717664" lon="11.497006550596772"><ele>265.0</ele><time>2026-05-02T13:17:30.001Z</time></trkpt><trkpt lat="43.21027798659815" lon="11.497079447090357"><ele>265.0</ele><time>2026-05-02T13:17:31.001Z</time></trkpt><trkpt lat="43.2103534396815" lon="11.497141732112896"><ele>264.8333333333333</ele><time>2026-05-02T13:17:32.001Z</time></trkpt><trkpt lat="43.2104256058354" lon="11.497199464910505"><ele>264.66666666666663</ele><time>2026-05-02T13:17:33.001Z</time></trkpt><trkpt lat="43.21050686132189" lon="11.497262797334729"><ele>264.5</ele><time>2026-05-02T13:17:34.001Z</time></trkpt><trkpt lat="43.21058340437532" lon="11.497326108095901"><ele>264.3333333333333</ele><time>2026-05-02T13:17:35.001Z</time></trkpt><trkpt lat="43.21065758415308" lon="11.497384926564639"><ele>264.1666666666667</ele><time>2026-05-02T13:17:36.001Z</time></trkpt><trkpt lat="43.21072156562057" lon="11.497452400187814"><ele>264.0</ele><time>2026-05-02T13:17:37.001Z</time></trkpt><trkpt lat="43.210775386504" lon="11.497533713385424"><ele>264.0</ele><time>2026-05-02T13:17:38.001Z</time></trkpt><trkpt lat="43.21081863878557" lon="11.497627331699746"><ele>264.0</ele><time>2026-05-02T13:17:39.001Z</time></trkpt><trkpt lat="43.210848827605965" lon="11.497742327940186"><ele>264.0</ele><time>2026-05-02T13:17:40.001Z</time></trkpt><trkpt lat="43.21087630605631" lon="11.497877745136941"><ele>264.0</ele><time>2026-05-02T13:17:41.001Z</time></trkpt><trkpt lat="43.21089336010201" lon="11.498016413696474"><ele>264.0</ele><time>2026-05-02T13:17:42.001Z</time></trkpt><trkpt lat="43.21091243773606" lon="11.498148622243518"><ele>263.1666666666667</ele><time>2026-05-02T13:17:43.001Z</time></trkpt><trkpt lat="43.21093395446385" lon="11.498261142664544"><ele>262.3333333333333</ele><time>2026-05-02T13:17:44.001Z</time></trkpt><trkpt lat="43.21095928315909" lon="11.498365919079177"><ele>261.5</ele><time>2026-05-02T13:17:45.001Z</time></trkpt><trkpt lat="43.210999318875984" lon="11.498455600629535"><ele>260.66666666666663</ele><time>2026-05-02T13:17:46.001Z</time></trkpt><trkpt lat="43.2110531777452" lon="11.498541516337758"><ele>259.8333333333333</ele><time>2026-05-02T13:17:47.001Z</time></trkpt><trkpt lat="43.21111808513296" lon="11.498607910881928"><ele>259.0</ele><time>2026-05-02T13:17:48.001Z</time></trkpt><trkpt lat="43.21118730636258" lon="11.498650461145273"><ele>259.0</ele><time>2026-05-02T13:17:49.001Z</time></trkpt><trkpt lat="43.21126502272178" lon="11.498683400551906"><ele>259.0</ele><time>2026-05-02T13:17:50.001Z</time></trkpt><trkpt lat="43.2113422053264" lon="11.498695447313986"><ele>259.0</ele><time>2026-05-02T13:17:51.001Z</time></trkpt><trkpt lat="43.21143312126273" lon="11.49869397836976"><ele>259.0</ele><time>2026-05-02T13:17:52.001Z</time></trkpt><trkpt lat="43.211529211906836" lon="11.498683163850357"><ele>259.0</ele><time>2026-05-02T13:17:53.001Z</time></trkpt><trkpt lat="43.211612754084676" lon="11.498661881022274"><ele>259.0</ele><time>2026-05-02T13:17:54.001Z</time></trkpt><trkpt lat="43.21169749370882" lon="11.498632847856122"><ele>257.5</ele><time>2026-05-02T13:17:55.001Z</time></trkpt><trkpt lat="43.21176517426177" lon="11.498605726713327"><ele>256.0</ele><time>2026-05-02T13:17:56.002Z</time></trkpt><trkpt lat="43.21186169905151" lon="11.498582342398993"><ele>254.5</ele><time>2026-05-02T13:17:58.002Z</time></trkpt><trkpt lat="43.211971181443815" lon="11.498606957335927"><ele>253.0</ele><time>2026-05-02T13:18:00.002Z</time></trkpt><trkpt lat="43.21202325175718" lon="11.498660490967556"><ele>251.49999999999997</ele><time>2026-05-02T13:18:01.002Z</time></trkpt><trkpt lat="43.21208635783291" lon="11.498736585283574"><ele>250.0</ele><time>2026-05-02T13:18:02.002Z</time></trkpt><trkpt lat="43.212131978674" lon="11.498818299121343"><ele>248.99999999999997</ele><time>2026-05-02T13:18:03.002Z</time></trkpt><trkpt lat="43.212169286828576" lon="11.498913347085873"><ele>248.0</ele><time>2026-05-02T13:18:04.002Z</time></trkpt><trkpt lat="43.212199061046555" lon="11.49902231191386"><ele>247.0</ele><time>2026-05-02T13:18:05.002Z</time></trkpt><trkpt lat="43.21221417756372" lon="11.499129665177701"><ele>246.0</ele><time>2026-05-02T13:18:06.002Z</time></trkpt><trkpt lat="43.21221561835288" lon="11.499233350832471"><ele>244.99999999999997</ele><time>2026-05-02T13:18:07.002Z</time></trkpt><trkpt lat="43.212203595318066" lon="11.499331839979128"><ele>244.0</ele><time>2026-05-02T13:18:08.002Z</time></trkpt><trkpt lat="43.21217702893451" lon="11.499417742764761"><ele>243.99999999999997</ele><time>2026-05-02T13:18:09.002Z</time></trkpt><trkpt lat="43.21213371715229" lon="11.499498733626947"><ele>244.0</ele><time>2026-05-02T13:18:10.002Z</time></trkpt><trkpt lat="43.21207665106125" lon="11.499556521260942"><ele>244.0</ele><time>2026-05-02T13:18:11.002Z</time></trkpt><trkpt lat="43.21200738481023" lon="11.499603241718"><ele>244.0</ele><time>2026-05-02T13:18:12.002Z</time></trkpt><trkpt lat="43.2119029958531" lon="11.499640533973297"><ele>243.99999999999997</ele><time>2026-05-02T13:18:13.002Z</time></trkpt><trkpt lat="43.21180000199689" lon="11.499663800593138"><ele>244.0</ele><time>2026-05-02T13:18:14.002Z</time></trkpt><trkpt lat="43.21171354151192" lon="11.49970269314744"><ele>241.39999999999998</ele><time>2026-05-02T13:18:15.002Z</time></trkpt><trkpt lat="43.211654769184804" lon="11.49975456358342"><ele>238.79999999999998</ele><time>2026-05-02T13:18:16.002Z</time></trkpt><trkpt lat="43.21160103744856" lon="11.499846468684918"><ele>236.20000000000002</ele><time>2026-05-02T13:18:17.002Z</time></trkpt><trkpt lat="43.21155520102598" lon="11.499967371469468"><ele>233.60000000000002</ele><time>2026-05-02T13:18:18.002Z</time></trkpt><trkpt lat="43.21152195452247" lon="11.500107007987618"><ele>231.0</ele><time>2026-05-02T13:18:19.002Z</time></trkpt><trkpt lat="43.21149927175098" lon="11.500274994356884"><ele>228.0</ele><time>2026-05-02T13:18:20.002Z</time></trkpt><trkpt lat="43.21147064592974" lon="11.500460676179348"><ele>225.0</ele><time>2026-05-02T13:18:21.002Z</time></trkpt><trkpt lat="43.211440057596405" lon="11.500622908451499"><ele>222.0</ele><time>2026-05-02T13:18:22.002Z</time></trkpt><trkpt lat="43.21141094054973" lon="11.500748684135937"><ele>219.0</ele><time>2026-05-02T13:18:23.002Z</time></trkpt><trkpt lat="43.2113741035336" lon="11.500869231156125"><ele>219.0</ele><time>2026-05-02T13:18:24.002Z</time></trkpt><trkpt lat="43.211323152747156" lon="11.500960035900642"><ele>218.99999999999997</ele><time>2026-05-02T13:18:25.002Z</time></trkpt><trkpt lat="43.2112569880901" lon="11.501029106948884"><ele>218.99999999999997</ele><time>2026-05-02T13:18:26.002Z</time></trkpt><trkpt lat="43.2111777513001" lon="11.50109007742161"><ele>219.0</ele><time>2026-05-02T13:18:27.002Z</time></trkpt><trkpt lat="43.21106902162968" lon="11.501136903663285"><ele>219.0</ele><time>2026-05-02T13:18:28.002Z</time></trkpt><trkpt lat="43.21094732976147" lon="11.501189429849365"><ele>219.2</ele><time>2026-05-02T13:18:29.002Z</time></trkpt><trkpt lat="43.21083461857299" lon="11.501260242308598"><ele>219.39999999999998</ele><time>2026-05-02T13:18:30.003Z</time></trkpt><trkpt lat="43.210748468855705" lon="11.501353125429645"><ele>219.6</ele><time>2026-05-02T13:18:31.003Z</time></trkpt><trkpt lat="43.2106707821999" lon="11.501454230448608"><ele>219.8</ele><time>2026-05-02T13:18:32.003Z</time></trkpt><trkpt lat="43.21060331032935" lon="11.50156713334917"><ele>220.0</ele><time>2026-05-02T13:18:33.003Z</time></trkpt><trkpt lat="43.210549375292416" lon="11.5016957954292"><ele>220.0</ele><time>2026-05-02T13:18:34.003Z</time></trkpt><trkpt lat="43.210501914937545" lon="11.501853885682712"><ele>220.0</ele><time>2026-05-02T13:18:35.003Z</time></trkpt><trkpt lat="43.21045475166543" lon="11.502020588128083"><ele>220.0</ele><time>2026-05-02T13:18:36.003Z</time></trkpt><trkpt lat="43.21041033551342" lon="11.502159794055029"><ele>220.0</ele><time>2026-05-02T13:18:37.003Z</time></trkpt><trkpt lat="43.21036714248901" lon="11.50226547677476"><ele>222.0</ele><time>2026-05-02T13:18:38.003Z</time></trkpt><trkpt lat="43.21031602527617" lon="11.502349314691466"><ele>224.0</ele><time>2026-05-02T13:18:39.003Z</time></trkpt><trkpt lat="43.21025142327515" lon="11.502415055977783"><ele>226.0</ele><time>2026-05-02T13:18:40.003Z</time></trkpt><trkpt lat="43.210161419182135" lon="11.502499403634323"><ele>228.0</ele><time>2026-05-02T13:18:41.003Z</time></trkpt><trkpt lat="43.21005717738905" lon="11.502599240075465"><ele>230.0</ele><time>2026-05-02T13:18:42.003Z</time></trkpt><trkpt lat="43.20995008330784" lon="11.50270445103204"><ele>230.0</ele><time>2026-05-02T13:18:43.003Z</time></trkpt><trkpt lat="43.2098452221216" lon="11.502810822798187"><ele>230.0</ele><time>2026-05-02T13:18:44.003Z</time></trkpt><trkpt lat="43.20974783484388" lon="11.502909326541458"><ele>230.0</ele><time>2026-05-02T13:18:45.003Z</time></trkpt><trkpt lat="43.209650724543884" lon="11.503009786220005"><ele>230.0</ele><time>2026-05-02T13:18:46.003Z</time></trkpt><trkpt lat="43.20954803985098" lon="11.503115309098897"><ele>227.25</ele><time>2026-05-02T13:18:47.003Z</time></trkpt><trkpt lat="43.209454548362125" lon="11.503218941102961"><ele>224.5</ele><time>2026-05-02T13:18:48.003Z</time></trkpt><trkpt lat="43.20936470222967" lon="11.50332057195128"><ele>221.75</ele><time>2026-05-02T13:18:49.003Z</time></trkpt><trkpt lat="43.2092793515125" lon="11.503432807783406"><ele>219.0</ele><time>2026-05-02T13:18:50.003Z</time></trkpt><trkpt lat="43.20919957866857" lon="11.503568629640988"><ele>219.0</ele><time>2026-05-02T13:18:51.003Z</time></trkpt><trkpt lat="43.209127237323194" lon="11.503715507537565"><ele>219.0</ele><time>2026-05-02T13:18:52.003Z</time></trkpt><trkpt lat="43.2090541112413" lon="11.503853024562382"><ele>219.0</ele><time>2026-05-02T13:18:53.003Z</time></trkpt><trkpt lat="43.20898386652608" lon="11.503975358939847"><ele>219.0</ele><time>2026-05-02T13:18:54.003Z</time></trkpt><trkpt lat="43.20891717491368" lon="11.504094686289243"><ele>217.16666666666666</ele><time>2026-05-02T13:18:55.003Z</time></trkpt><trkpt lat="43.20885051537764" lon="11.504205471835908"><ele>215.33333333333331</ele><time>2026-05-02T13:18:56.003Z</time></trkpt><trkpt lat="43.20878681444665" lon="11.504307429458395"><ele>213.5</ele><time>2026-05-02T13:18:57.003Z</time></trkpt><trkpt lat="43.20873016371631" lon="11.50439197598353"><ele>211.66666666666666</ele><time>2026-05-02T13:18:58.003Z</time></trkpt><trkpt lat="43.208667248563195" lon="11.504468407418939"><ele>209.83333333333331</ele><time>2026-05-02T13:18:59.003Z</time></trkpt><trkpt lat="43.20859930388536" lon="11.504519491373886"><ele>208.0</ele><time>2026-05-02T13:19:00Z</time></trkpt><trkpt lat="43.20851161429452" lon="11.504557264934167"><ele>204.8</ele><time>2026-05-02T13:19:01Z</time></trkpt><trkpt lat="43.208401276550205" lon="11.504582463620604"><ele>201.60000000000002</ele><time>2026-05-02T13:19:02Z</time></trkpt><trkpt lat="43.208284498574265" lon="11.504601197590615"><ele>198.39999999999998</ele><time>2026-05-02T13:19:03Z</time></trkpt><trkpt lat="43.208175189915174" lon="11.504607175304098"><ele>195.2</ele><time>2026-05-02T13:19:04Z</time></trkpt><trkpt lat="43.208082137818145" lon="11.504606256570346"><ele>192.0</ele><time>2026-05-02T13:19:05Z</time></trkpt><trkpt lat="43.20799848005988" lon="11.50459557233267"><ele>192.0</ele><time>2026-05-02T13:19:06Z</time></trkpt><trkpt lat="43.20792693698509" lon="11.504575341246793"><ele>192.0</ele><time>2026-05-02T13:19:07Z</time></trkpt><trkpt lat="43.207827352333005" lon="11.504527660155587"><ele>192.0</ele><time>2026-05-02T13:19:09Z</time></trkpt><trkpt lat="43.20776343400443" lon="11.504555454308111"><ele>192.0</ele><time>2026-05-02T13:19:11Z</time></trkpt><trkpt lat="43.2077396448462" lon="11.504639920965273"><ele>192.0</ele><time>2026-05-02T13:19:13Z</time></trkpt><trkpt lat="43.20778127433819" lon="11.504720953151855"><ele>192.0</ele><time>2026-05-02T13:19:15Z</time></trkpt><trkpt lat="43.207865631374624" lon="11.504780812074271"><ele>192.0</ele><time>2026-05-02T13:19:17Z</time></trkpt><trkpt lat="43.207930186214554" lon="11.504802591323337"><ele>192.0</ele><time>2026-05-02T13:19:18Z</time></trkpt><trkpt lat="43.20802030595259" lon="11.504835257978758"><ele>192.0</ele><time>2026-05-02T13:19:19Z</time></trkpt><trkpt lat="43.208134680011575" lon="11.504888002770468"><ele>192.0</ele><time>2026-05-02T13:19:20Z</time></trkpt><trkpt lat="43.2082531812614" lon="11.50495728186992"><ele>192.0</ele><time>2026-05-02T13:19:21Z</time></trkpt><trkpt lat="43.20836029619148" lon="11.505023755142668"><ele>192.0</ele><time>2026-05-02T13:19:22Z</time></trkpt><trkpt lat="43.20844998934069" lon="11.505067504903774"><ele>192.0</ele><time>2026-05-02T13:19:23Z</time></trkpt><trkpt lat="43.20855593615767" lon="11.505097108445522"><ele>192.0</ele><time>2026-05-02T13:19:24Z</time></trkpt><trkpt lat="43.208663779732" lon="11.505108677933105"><ele>192.0</ele><time>2026-05-02T13:19:25Z</time></trkpt><trkpt lat="43.208763834799804" lon="11.50511978378769"><ele>192.0</ele><time>2026-05-02T13:19:26Z</time></trkpt><trkpt lat="43.208848851809385" lon="11.50513199320315"><ele>191.99999999999997</ele><time>2026-05-02T13:19:27Z</time></trkpt><trkpt lat="43.20891595058053" lon="11.505168819141167"><ele>192.0</ele><time>2026-05-02T13:19:28Z</time></trkpt><trkpt lat="43.20897872864332" lon="11.50518002090853"><ele>192.0</ele><time>2026-05-02T13:19:29.001Z</time></trkpt><trkpt lat="43.209039992590434" lon="11.50515762853304"><ele>192.0</ele><time>2026-05-02T13:19:30.001Z</time></trkpt><trkpt lat="43.20911042239406" lon="11.505134121556223"><ele>192.0</ele><time>2026-05-02T13:19:31.001Z</time></trkpt><trkpt lat="43.209189194945324" lon="11.50508983623813"><ele>191.99999999999997</ele><time>2026-05-02T13:19:32.001Z</time></trkpt><trkpt lat="43.20926101117383" lon="11.505039448088533"><ele>192.0</ele><time>2026-05-02T13:19:33.001Z</time></trkpt><trkpt lat="43.209323501608154" lon="11.504986038435664"><ele>190.99999999999997</ele><time>2026-05-02T13:19:34.001Z</time></trkpt><trkpt lat="43.20938088615835" lon="11.504941918810301"><ele>190.0</ele><time>2026-05-02T13:19:35.001Z</time></trkpt><trkpt lat="43.2094439882063" lon="11.504915496414174"><ele>189.0</ele><time>2026-05-02T13:19:36.001Z</time></trkpt><trkpt lat="43.209511012526065" lon="11.504930399216391"><ele>188.0</ele><time>2026-05-02T13:19:37.001Z</time></trkpt><trkpt lat="43.20958587470442" lon="11.504926364213832"><ele>187.0</ele><time>2026-05-02T13:19:38.001Z</time></trkpt><trkpt lat="43.20966231721515" lon="11.50494838447786"><ele>185.99999999999997</ele><time>2026-05-02T13:19:39.001Z</time></trkpt><trkpt lat="43.20973971099598" lon="11.50499564270686"><ele>185.0</ele><time>2026-05-02T13:19:40.001Z</time></trkpt><trkpt lat="43.20982735182272" lon="11.505061029094733"><ele>183.4</ele><time>2026-05-02T13:19:41.001Z</time></trkpt><trkpt lat="43.20991378707146" lon="11.505134409953342"><ele>181.8</ele><time>2026-05-02T13:19:42.001Z</time></trkpt><trkpt lat="43.210004619697656" lon="11.505233854587795"><ele>180.2</ele><time>2026-05-02T13:19:43.001Z</time></trkpt><trkpt lat="43.21009914209294" lon="11.50530289810598"><ele>178.6</ele><time>2026-05-02T13:19:44.001Z</time></trkpt><trkpt lat="43.210182239908015" lon="11.505364453465184"><ele>177.0</ele><time>2026-05-02T13:19:45.001Z</time></trkpt><trkpt lat="43.210253802199155" lon="11.505400631998702"><ele>175.16666666666666</ele><time>2026-05-02T13:19:46.001Z</time></trkpt><trkpt lat="43.21033257339801" lon="11.505419899751853"><ele>173.33333333333334</ele><time>2026-05-02T13:19:47.001Z</time></trkpt><trkpt lat="43.21042321482853" lon="11.505433641735445"><ele>171.5</ele><time>2026-05-02T13:19:48.001Z</time></trkpt><trkpt lat="43.21051432134428" lon="11.505451158016255"><ele>169.66666666666669</ele><time>2026-05-02T13:19:49.001Z</time></trkpt><trkpt lat="43.21060196193187" lon="11.505470606766869"><ele>167.83333333333334</ele><time>2026-05-02T13:19:50.001Z</time></trkpt><trkpt lat="43.21067710269407" lon="11.505473760362548"><ele>166.0</ele><time>2026-05-02T13:19:51.001Z</time></trkpt><trkpt lat="43.21077231562532" lon="11.505448736078668"><ele>167.60000000000002</ele><time>2026-05-02T13:19:52.001Z</time></trkpt><trkpt lat="43.210889897396974" lon="11.505403484423717"><ele>169.2</ele><time>2026-05-02T13:19:53.001Z</time></trkpt><trkpt lat="43.21099934326744" lon="11.50536354917195"><ele>170.8</ele><time>2026-05-02T13:19:54.001Z</time></trkpt><trkpt lat="43.211083139335884" lon="11.505342333848027"><ele>172.39999999999998</ele><time>2026-05-02T13:19:55.001Z</time></trkpt><trkpt lat="43.21115151375805" lon="11.505336594972214"><ele>174.0</ele><time>2026-05-02T13:19:56.001Z</time></trkpt><trkpt lat="43.211220522970365" lon="11.505358316603976"><ele>172.2</ele><time>2026-05-02T13:19:57.001Z</time></trkpt><trkpt lat="43.21128361373487" lon="11.505445848008653"><ele>170.39999999999998</ele><time>2026-05-02T13:19:58.001Z</time></trkpt><trkpt lat="43.21135161437716" lon="11.505534121448076"><ele>168.6</ele><time>2026-05-02T13:19:59.001Z</time></trkpt><trkpt lat="43.211393138581876" lon="11.505678364170514"><ele>166.8</ele><time>2026-05-02T13:20:00.001Z</time></trkpt><trkpt lat="43.21144621620929" lon="11.505865036494077"><ele>165.0</ele><time>2026-05-02T13:20:01.001Z</time></trkpt><trkpt lat="43.21150373899415" lon="11.50606641156113"><ele>165.0</ele><time>2026-05-02T13:20:02.001Z</time></trkpt><trkpt lat="43.21156800678221" lon="11.506291399373128"><ele>165.0</ele><time>2026-05-02T13:20:03.001Z</time></trkpt><trkpt lat="43.21164101372353" lon="11.506546981069004"><ele>165.0</ele><time>2026-05-02T13:20:04.001Z</time></trkpt><trkpt lat="43.211712947962475" lon="11.50679880734937"><ele>165.0</ele><time>2026-05-02T13:20:05.001Z</time></trkpt><trkpt lat="43.211778589463385" lon="11.507028604464274"><ele>165.0</ele><time>2026-05-02T13:20:06.001Z</time></trkpt><trkpt lat="43.211838646141054" lon="11.507237593529332"><ele>165.0</ele><time>2026-05-02T13:20:07.002Z</time></trkpt><trkpt lat="43.21189348129651" lon="11.507414060623685"><ele>164.8</ele><time>2026-05-02T13:20:08.002Z</time></trkpt><trkpt lat="43.211939741421304" lon="11.507544634845734"><ele>164.6</ele><time>2026-05-02T13:20:09.002Z</time></trkpt><trkpt lat="43.21201185611264" lon="11.507639678883812"><ele>164.39999999999998</ele><time>2026-05-02T13:20:10.002Z</time></trkpt><trkpt lat="43.212079135892154" lon="11.507717286618218"><ele>164.2</ele><time>2026-05-02T13:20:11.002Z</time></trkpt><trkpt lat="43.21215695541378" lon="11.507774337309003"><ele>164.0</ele><time>2026-05-02T13:20:12.002Z</time></trkpt><trkpt lat="43.21225779814711" lon="11.50782993875806"><ele>163.79999999999998</ele><time>2026-05-02T13:20:13.002Z</time></trkpt><trkpt lat="43.21236059199273" lon="11.507870453129732"><ele>163.6</ele><time>2026-05-02T13:20:14.002Z</time></trkpt><trkpt lat="43.21244003724765" lon="11.507955795842182"><ele>163.4</ele><time>2026-05-02T13:20:15.002Z</time></trkpt><trkpt lat="43.21253071475403" lon="11.508019677110404"><ele>163.2</ele><time>2026-05-02T13:20:16.002Z</time></trkpt><trkpt lat="43.21258997672042" lon="11.508150708480404"><ele>163.0</ele><time>2026-05-02T13:20:17.002Z</time></trkpt><trkpt lat="43.212652996284774" lon="11.508297017031621"><ele>162.75</ele><time>2026-05-02T13:20:18.002Z</time></trkpt><trkpt lat="43.212728952545774" lon="11.508467407970665"><ele>162.5</ele><time>2026-05-02T13:20:19.002Z</time></trkpt><trkpt lat="43.21280517046778" lon="11.508617667888386"><ele>162.25</ele><time>2026-05-02T13:20:20.002Z</time></trkpt><trkpt lat="43.21287269953024" lon="11.508751764887137"><ele>162.0</ele><time>2026-05-02T13:20:21.002Z</time></trkpt><trkpt lat="43.21294382900414" lon="11.508904274328206"><ele>161.75</ele><time>2026-05-02T13:20:22.002Z</time></trkpt><trkpt lat="43.21302876013099" lon="11.509072084727942"><ele>161.5</ele><time>2026-05-02T13:20:23.002Z</time></trkpt><trkpt lat="43.21311353355051" lon="11.509243740374178"><ele>161.25</ele><time>2026-05-02T13:20:24.002Z</time></trkpt><trkpt lat="43.21319173007116" lon="11.509404746489665"><ele>161.0</ele><time>2026-05-02T13:20:25.002Z</time></trkpt><trkpt lat="43.21326617919546" lon="11.509538181898892"><ele>161.5</ele><time>2026-05-02T13:20:26.002Z</time></trkpt><trkpt lat="43.2133416195239" lon="11.50964995400197"><ele>162.0</ele><time>2026-05-02T13:20:27.002Z</time></trkpt><trkpt lat="43.21344461637106" lon="11.509772550648526"><ele>162.5</ele><time>2026-05-02T13:20:28.002Z</time></trkpt><trkpt lat="43.213574779331104" lon="11.509908467352828"><ele>163.0</ele><time>2026-05-02T13:20:29.002Z</time></trkpt><trkpt lat="43.21370048516514" lon="11.510049875132527"><ele>163.0</ele><time>2026-05-02T13:20:30.002Z</time></trkpt><trkpt lat="43.213810401993776" lon="11.510199299035571"><ele>163.0</ele><time>2026-05-02T13:20:31.002Z</time></trkpt><trkpt lat="43.213896886507115" lon="11.510374870922883"><ele>163.0</ele><time>2026-05-02T13:20:32.002Z</time></trkpt><trkpt lat="43.213982499504205" lon="11.510538368713899"><ele>163.25</ele><time>2026-05-02T13:20:33.002Z</time></trkpt><trkpt lat="43.21405947674789" lon="11.510693350113879"><ele>163.5</ele><time>2026-05-02T13:20:34.002Z</time></trkpt><trkpt lat="43.214131531694775" lon="11.510837239324056"><ele>163.75</ele><time>2026-05-02T13:20:35.002Z</time></trkpt><trkpt lat="43.21419337860456" lon="11.510954260843187"><ele>164.0</ele><time>2026-05-02T13:20:36.002Z</time></trkpt><trkpt lat="43.214233359210155" lon="11.511067483364586"><ele>164.0</ele><time>2026-05-02T13:20:37.002Z</time></trkpt><trkpt lat="43.21424526299603" lon="11.511193201649192"><ele>164.0</ele><time>2026-05-02T13:20:38.002Z</time></trkpt><trkpt lat="43.21424684830347" lon="11.511339065642666"><ele>164.0</ele><time>2026-05-02T13:20:39.002Z</time></trkpt><trkpt lat="43.214215693277524" lon="11.511478062956112"><ele>164.0</ele><time>2026-05-02T13:20:40.002Z</time></trkpt><trkpt lat="43.214185185495076" lon="11.51164052608754"><ele>164.0</ele><time>2026-05-02T13:20:41.002Z</time></trkpt><trkpt lat="43.21418254365975" lon="11.511774133812969"><ele>164.33333333333331</ele><time>2026-05-02T13:20:42.002Z</time></trkpt><trkpt lat="43.21418657901529" lon="11.511871593232428"><ele>164.66666666666666</ele><time>2026-05-02T13:20:43.002Z</time></trkpt><trkpt lat="43.214218068096194" lon="11.511973414204817"><ele>165.0</ele><time>2026-05-02T13:20:44.003Z</time></trkpt><trkpt lat="43.21426324350216" lon="11.512097060969317"><ele>165.33333333333334</ele><time>2026-05-02T13:20:45.003Z</time></trkpt><trkpt lat="43.214315502372926" lon="11.512213143302507"><ele>165.66666666666669</ele><time>2026-05-02T13:20:46.003Z</time></trkpt><trkpt lat="43.2143779420206" lon="11.512306173389161"><ele>166.0</ele><time>2026-05-02T13:20:47.003Z</time></trkpt><trkpt lat="43.21445094660092" lon="11.51237957429504"><ele>166.5</ele><time>2026-05-02T13:20:48.003Z</time></trkpt><trkpt lat="43.214551126258236" lon="11.51246186256664"><ele>167.0</ele><time>2026-05-02T13:20:49.003Z</time></trkpt><trkpt lat="43.21466669376617" lon="11.512570188179446"><ele>167.5</ele><time>2026-05-02T13:20:50.003Z</time></trkpt><trkpt lat="43.21477528144177" lon="11.51270208516925"><ele>168.0</ele><time>2026-05-02T13:20:51.003Z</time></trkpt><trkpt lat="43.214906625457836" lon="11.512803054510513"><ele>171.0</ele><time>2026-05-02T13:20:52.003Z</time></trkpt><trkpt lat="43.21503112974933" lon="11.512936498243633"><ele>174.0</ele><time>2026-05-02T13:20:53.003Z</time></trkpt><trkpt lat="43.21514773400157" lon="11.51305324079192"><ele>177.0</ele><time>2026-05-02T13:20:54.003Z</time></trkpt><trkpt lat="43.215240185277494" lon="11.513157320456736"><ele>180.0</ele><time>2026-05-02T13:20:55.003Z</time></trkpt><trkpt lat="43.21531468571885" lon="11.513263783431025"><ele>180.0</ele><time>2026-05-02T13:20:56.003Z</time></trkpt><trkpt lat="43.21538266722931" lon="11.513390784567674"><ele>180.0</ele><time>2026-05-02T13:20:57.003Z</time></trkpt><trkpt lat="43.21543819921059" lon="11.513527898552047"><ele>180.0</ele><time>2026-05-02T13:20:58.003Z</time></trkpt><trkpt lat="43.21545966787369" lon="11.513667598697987"><ele>180.0</ele><time>2026-05-02T13:20:59.003Z</time></trkpt><trkpt lat="43.215498840463965" lon="11.513782243745725"><ele>180.0</ele><time>2026-05-02T13:21:00.003Z</time></trkpt><trkpt lat="43.2155104564457" lon="11.513908276091481"><ele>180.5</ele><time>2026-05-02T13:21:01.003Z</time></trkpt><trkpt lat="43.21553118374983" lon="11.51404257499158"><ele>181.0</ele><time>2026-05-02T13:21:02.003Z</time></trkpt><trkpt lat="43.21556668042422" lon="11.51418909312175"><ele>181.5</ele><time>2026-05-02T13:21:03.003Z</time></trkpt><trkpt lat="43.21562723333297" lon="11.514375313296664"><ele>182.0</ele><time>2026-05-02T13:21:04.003Z</time></trkpt><trkpt lat="43.215704446043404" lon="11.514591232428819"><ele>179.33333333333331</ele><time>2026-05-02T13:21:05.003Z</time></trkpt><trkpt lat="43.21578418612405" lon="11.514813919870885"><ele>176.66666666666666</ele><time>2026-05-02T13:21:06Z</time></trkpt><trkpt lat="43.215871149769434" lon="11.51505938210494"><ele>174.0</ele><time>2026-05-02T13:21:07Z</time></trkpt><trkpt lat="43.21595685267431" lon="11.515304230431415"><ele>172.0</ele><time>2026-05-02T13:21:08Z</time></trkpt><trkpt lat="43.21604279955591" lon="11.515529943181864"><ele>170.0</ele><time>2026-05-02T13:21:09Z</time></trkpt><trkpt lat="43.21613978186827" lon="11.515764882339916"><ele>168.0</ele><time>2026-05-02T13:21:10Z</time></trkpt><trkpt lat="43.21625095562409" lon="11.516002285232396"><ele>168.33333333333334</ele><time>2026-05-02T13:21:11Z</time></trkpt><trkpt lat="43.21638113143433" lon="11.516256749301542"><ele>168.66666666666669</ele><time>2026-05-02T13:21:12Z</time></trkpt><trkpt lat="43.21650690723021" lon="11.51650166355678"><ele>169.0</ele><time>2026-05-02T13:21:13Z</time></trkpt><trkpt lat="43.21662682477953" lon="11.51673208838898"><ele>169.0</ele><time>2026-05-02T13:21:14Z</time></trkpt><trkpt lat="43.2167400698579" lon="11.51696486558871"><ele>169.0</ele><time>2026-05-02T13:21:15Z</time></trkpt><trkpt lat="43.21683205835477" lon="11.517170845227366"><ele>169.0</ele><time>2026-05-02T13:21:16Z</time></trkpt><trkpt lat="43.216910783366934" lon="11.517365265333586"><ele>169.0</ele><time>2026-05-02T13:21:17Z</time></trkpt><trkpt lat="43.21697905817068" lon="11.517533866528437"><ele>169.0</ele><time>2026-05-02T13:21:18Z</time></trkpt><trkpt lat="43.21704685451307" lon="11.517705550429719"><ele>169.0</ele><time>2026-05-02T13:21:19Z</time></trkpt><trkpt lat="43.21711511375974" lon="11.517877039314516"><ele>169.0</ele><time>2026-05-02T13:21:20Z</time></trkpt><trkpt lat="43.21718142320419" lon="11.518047915032772"><ele>169.0</ele><time>2026-05-02T13:21:21Z</time></trkpt><trkpt lat="43.21724331589236" lon="11.518207071497773"><ele>169.0</ele><time>2026-05-02T13:21:22Z</time></trkpt><trkpt lat="43.21729620033171" lon="11.518347166545736"><ele>169.0</ele><time>2026-05-02T13:21:23Z</time></trkpt><trkpt lat="43.217346092854385" lon="11.51848720588427"><ele>169.0</ele><time>2026-05-02T13:21:24Z</time></trkpt><trkpt lat="43.21739465224082" lon="11.518646004168072"><ele>170.25</ele><time>2026-05-02T13:21:25Z</time></trkpt><trkpt lat="43.21743744115902" lon="11.51881101074027"><ele>171.5</ele><time>2026-05-02T13:21:26Z</time></trkpt><trkpt lat="43.2174733169938" lon="11.51899085123364"><ele>172.75</ele><time>2026-05-02T13:21:27Z</time></trkpt><trkpt lat="43.217491511796915" lon="11.519167217300748"><ele>174.0</ele><time>2026-05-02T13:21:28Z</time></trkpt><trkpt lat="43.217483456877325" lon="11.519351555495259"><ele>174.0</ele><time>2026-05-02T13:21:29Z</time></trkpt><trkpt lat="43.21746370159761" lon="11.51953176880353"><ele>174.0</ele><time>2026-05-02T13:21:30Z</time></trkpt><trkpt lat="43.21744331521821" lon="11.519722444509226"><ele>174.0</ele><time>2026-05-02T13:21:31Z</time></trkpt><trkpt lat="43.21742823801963" lon="11.519916913087208"><ele>174.0</ele><time>2026-05-02T13:21:32Z</time></trkpt><trkpt lat="43.21741987468014" lon="11.520111056409746"><ele>175.5</ele><time>2026-05-02T13:21:33Z</time></trkpt><trkpt lat="43.21741214260366" lon="11.520299084519454"><ele>177.0</ele><time>2026-05-02T13:21:34Z</time></trkpt><trkpt lat="43.21740304569758" lon="11.520473384696729"><ele>178.5</ele><time>2026-05-02T13:21:35Z</time></trkpt><trkpt lat="43.21739672535486" lon="11.520624247916798"><ele>180.0</ele><time>2026-05-02T13:21:36Z</time></trkpt><trkpt lat="43.21739904349477" lon="11.52074098631101"><ele>179.83333333333334</ele><time>2026-05-02T13:21:37Z</time></trkpt><trkpt lat="43.21740987264718" lon="11.520837244201863"><ele>179.66666666666666</ele><time>2026-05-02T13:21:38Z</time></trkpt><trkpt lat="43.21743391008142" lon="11.520941307886174"><ele>179.5</ele><time>2026-05-02T13:21:39Z</time></trkpt><trkpt lat="43.21747481188008" lon="11.521048582246975"><ele>179.33333333333331</ele><time>2026-05-02T13:21:40Z</time></trkpt><trkpt lat="43.217535294756516" lon="11.52116380923271"><ele>179.16666666666666</ele><time>2026-05-02T13:21:41.001Z</time></trkpt><trkpt lat="43.21759865193693" lon="11.521260290545003"><ele>179.0</ele><time>2026-05-02T13:21:42.001Z</time></trkpt><trkpt lat="43.2176763760602" lon="11.521354473027106"><ele>179.0</ele><time>2026-05-02T13:21:43.001Z</time></trkpt><trkpt lat="43.21777573202319" lon="11.52143769817841"><ele>179.0</ele><time>2026-05-02T13:21:44.001Z</time></trkpt><trkpt lat="43.217884724138734" lon="11.521495101604549"><ele>179.0</ele><time>2026-05-02T13:21:45.001Z</time></trkpt><trkpt lat="43.2179751824079" lon="11.521539446541125"><ele>179.0</ele><time>2026-05-02T13:21:46.001Z</time></trkpt><trkpt lat="43.21805802039472" lon="11.521594014695443"><ele>179.0</ele><time>2026-05-02T13:21:47.001Z</time></trkpt><trkpt lat="43.21812318233372" lon="11.52166258622057"><ele>179.2</ele><time>2026-05-02T13:21:48.001Z</time></trkpt><trkpt lat="43.21815970523313" lon="11.521747885778789"><ele>179.39999999999998</ele><time>2026-05-02T13:21:49.001Z</time></trkpt><trkpt lat="43.21816264600126" lon="11.521869669257843"><ele>179.6</ele><time>2026-05-02T13:21:50.001Z</time></trkpt><trkpt lat="43.21816331926231" lon="11.52201928277473"><ele>179.8</ele><time>2026-05-02T13:21:51.001Z</time></trkpt><trkpt lat="43.21817656573833" lon="11.522192470582434"><ele>180.0</ele><time>2026-05-02T13:21:52.001Z</time></trkpt><trkpt lat="43.21822817746581" lon="11.522357635427387"><ele>180.0</ele><time>2026-05-02T13:21:53.001Z</time></trkpt><trkpt lat="43.218282027127735" lon="11.522533985099692"><ele>180.0</ele><time>2026-05-02T13:21:54.001Z</time></trkpt><trkpt lat="43.21833307435029" lon="11.522719442342858"><ele>180.0</ele><time>2026-05-02T13:21:55.001Z</time></trkpt><trkpt lat="43.21838564414696" lon="11.522898508399265"><ele>180.0</ele><time>2026-05-02T13:21:56.001Z</time></trkpt><trkpt lat="43.21844945339584" lon="11.52306728567509"><ele>177.33333333333334</ele><time>2026-05-02T13:21:57.001Z</time></trkpt><trkpt lat="43.21852170344945" lon="11.523234298743418"><ele>174.66666666666669</ele><time>2026-05-02T13:21:58.001Z</time></trkpt><trkpt lat="43.21860240653218" lon="11.52340650126219"><ele>172.0</ele><time>2026-05-02T13:21:59.001Z</time></trkpt><trkpt lat="43.2186951481756" lon="11.523587639864346"><ele>172.0</ele><time>2026-05-02T13:22:00.001Z</time></trkpt><trkpt lat="43.21880039988791" lon="11.52377093927556"><ele>172.0</ele><time>2026-05-02T13:22:01.001Z</time></trkpt><trkpt lat="43.21890648201265" lon="11.523958576246786"><ele>172.0</ele><time>2026-05-02T13:22:02.001Z</time></trkpt><trkpt lat="43.21902648634795" lon="11.524154451266"><ele>172.0</ele><time>2026-05-02T13:22:03.001Z</time></trkpt><trkpt lat="43.2191455562692" lon="11.524346484555334"><ele>172.0</ele><time>2026-05-02T13:22:04.001Z</time></trkpt><trkpt lat="43.219248858442946" lon="11.524522056651533"><ele>172.0</ele><time>2026-05-02T13:22:05.001Z</time></trkpt><trkpt lat="43.21933883257243" lon="11.524678676847966"><ele>171.0</ele><time>2026-05-02T13:22:06.001Z</time></trkpt><trkpt lat="43.21942565579607" lon="11.524811398627198"><ele>170.0</ele><time>2026-05-02T13:22:07.001Z</time></trkpt><trkpt lat="43.219499600396894" lon="11.524898153636132"><ele>169.0</ele><time>2026-05-02T13:22:08.001Z</time></trkpt><trkpt lat="43.2195726581637" lon="11.524966095737591"><ele>168.0</ele><time>2026-05-02T13:22:09.001Z</time></trkpt><trkpt lat="43.219655815416814" lon="11.525014071602886"><ele>167.0</ele><time>2026-05-02T13:22:10.001Z</time></trkpt><trkpt lat="43.21975024839992" lon="11.525038927206587"><ele>168.5</ele><time>2026-05-02T13:22:11.001Z</time></trkpt><trkpt lat="43.21984389487036" lon="11.525036037526665"><ele>170.0</ele><time>2026-05-02T13:22:12.001Z</time></trkpt><trkpt lat="43.21995397125978" lon="11.524996828473418"><ele>171.5</ele><time>2026-05-02T13:22:13.001Z</time></trkpt><trkpt lat="43.220077235382895" lon="11.524943827083757"><ele>173.0</ele><time>2026-05-02T13:22:14.001Z</time></trkpt><trkpt lat="43.22020073810144" lon="11.524886907038558"><ele>173.0</ele><time>2026-05-02T13:22:15.001Z</time></trkpt><trkpt lat="43.220302807941025" lon="11.524850680949813"><ele>173.0</ele><time>2026-05-02T13:22:16.002Z</time></trkpt><trkpt lat="43.22041755289679" lon="11.524840498242336"><ele>173.0</ele><time>2026-05-02T13:22:17.002Z</time></trkpt><trkpt lat="43.22054017915303" lon="11.524875007934515"><ele>173.0</ele><time>2026-05-02T13:22:18.002Z</time></trkpt><trkpt lat="43.220645792804156" lon="11.524971432631274"><ele>174.25</ele><time>2026-05-02T13:22:19.002Z</time></trkpt><trkpt lat="43.22076043446014" lon="11.525054313209516"><ele>175.5</ele><time>2026-05-02T13:22:20.002Z</time></trkpt><trkpt lat="43.2208618442816" lon="11.525158666575278"><ele>176.75</ele><time>2026-05-02T13:22:21.002Z</time></trkpt><trkpt lat="43.220972214677765" lon="11.52523098221377"><ele>178.0</ele><time>2026-05-02T13:22:22.002Z</time></trkpt><trkpt lat="43.22110615896343" lon="11.525274341894924"><ele>178.0</ele><time>2026-05-02T13:22:23.002Z</time></trkpt><trkpt lat="43.22126114021656" lon="11.525298694147985"><ele>178.0</ele><time>2026-05-02T13:22:24.002Z</time></trkpt><trkpt lat="43.22142346057101" lon="11.52532277017425"><ele>178.0</ele><time>2026-05-02T13:22:25.002Z</time></trkpt><trkpt lat="43.221583691183014" lon="11.525351231195389"><ele>180.0</ele><time>2026-05-02T13:22:26.002Z</time></trkpt><trkpt lat="43.221763893670044" lon="11.525383428631208"><ele>182.0</ele><time>2026-05-02T13:22:27.002Z</time></trkpt><trkpt lat="43.22194841675262" lon="11.525408834274012"><ele>184.0</ele><time>2026-05-02T13:22:28.002Z</time></trkpt><trkpt lat="43.22211894526793" lon="11.525432902384592"><ele>180.75</ele><time>2026-05-02T13:22:29.002Z</time></trkpt><trkpt lat="43.222272763959616" lon="11.525458333058664"><ele>177.5</ele><time>2026-05-02T13:22:30.002Z</time></trkpt><trkpt lat="43.22241511981253" lon="11.525475111974922"><ele>174.25</ele><time>2026-05-02T13:22:31.002Z</time></trkpt><trkpt lat="43.22254210534477" lon="11.525482711735458"><ele>171.0</ele><time>2026-05-02T13:22:32.002Z</time></trkpt><trkpt lat="43.22265397504979" lon="11.525490143890597"><ele>170.5</ele><time>2026-05-02T13:22:33.002Z</time></trkpt><trkpt lat="43.222752037019504" lon="11.525517416667459"><ele>170.0</ele><time>2026-05-02T13:22:34.002Z</time></trkpt><trkpt lat="43.222840787367815" lon="11.52562346834837"><ele>169.5</ele><time>2026-05-02T13:22:35.002Z</time></trkpt><trkpt lat="43.22292471248241" lon="11.525739543921736"><ele>169.0</ele><time>2026-05-02T13:22:36.002Z</time></trkpt><trkpt lat="43.22302718831617" lon="11.52581867881796"><ele>169.0</ele><time>2026-05-02T13:22:37.002Z</time></trkpt><trkpt lat="43.223103973124694" lon="11.52589511314055"><ele>169.0</ele><time>2026-05-02T13:22:38.002Z</time></trkpt><trkpt lat="43.22317811129718" lon="11.525931824861376"><ele>169.0</ele><time>2026-05-02T13:22:39.002Z</time></trkpt><trkpt lat="43.223257199823216" lon="11.525984770636146"><ele>169.0</ele><time>2026-05-02T13:22:40.002Z</time></trkpt><trkpt lat="43.22336216651472" lon="11.525978807776475"><ele>169.0</ele><time>2026-05-02T13:22:41.002Z</time></trkpt><trkpt lat="43.22348835908947" lon="11.52598163588256"><ele>171.33333333333334</ele><time>2026-05-02T13:22:42.002Z</time></trkpt><trkpt lat="43.223607287980855" lon="11.52597446878933"><ele>173.66666666666666</ele><time>2026-05-02T13:22:43.002Z</time></trkpt><trkpt lat="43.22379283490728" lon="11.52596629285277"><ele>176.0</ele><time>2026-05-02T13:22:44.002Z</time></trkpt><trkpt lat="43.223952311392594" lon="11.525964633341305"><ele>176.33333333333331</ele><time>2026-05-02T13:22:45.002Z</time></trkpt><trkpt lat="43.224117703106145" lon="11.52593818260582"><ele>176.66666666666666</ele><time>2026-05-02T13:22:46.002Z</time></trkpt><trkpt lat="43.22427950504424" lon="11.525914534115744"><ele>177.0</ele><time>2026-05-02T13:22:47.002Z</time></trkpt><trkpt lat="43.22445967185847" lon="11.52592431428878"><ele>177.0</ele><time>2026-05-02T13:22:48.002Z</time></trkpt><trkpt lat="43.224648222695755" lon="11.526000340929903"><ele>177.0</ele><time>2026-05-02T13:22:49.002Z</time></trkpt><trkpt lat="43.22485453395043" lon="11.526061028092569"><ele>177.0</ele><time>2026-05-02T13:22:50.002Z</time></trkpt><trkpt lat="43.22507882921531" lon="11.526105128419282"><ele>178.0</ele><time>2026-05-02T13:22:51.002Z</time></trkpt><trkpt lat="43.22528034927531" lon="11.52616401344655"><ele>179.0</ele><time>2026-05-02T13:22:52.003Z</time></trkpt><trkpt lat="43.22544372113547" lon="11.526212803485873"><ele>180.0</ele><time>2026-05-02T13:22:53.003Z</time></trkpt><trkpt lat="43.225587382683024" lon="11.52625355065313"><ele>179.0</ele><time>2026-05-02T13:22:54.003Z</time></trkpt><trkpt lat="43.225706081859016" lon="11.526292581806016"><ele>178.0</ele><time>2026-05-02T13:22:55.003Z</time></trkpt><trkpt lat="43.22580167882838" lon="11.52635256544861"><ele>177.0</ele><time>2026-05-02T13:22:56.003Z</time></trkpt><trkpt lat="43.22589112217096" lon="11.526391149366832"><ele>176.0</ele><time>2026-05-02T13:22:57.003Z</time></trkpt><trkpt lat="43.225969675258185" lon="11.526391687020025"><ele>175.0</ele><time>2026-05-02T13:22:58.003Z</time></trkpt><trkpt lat="43.22605186077899" lon="11.526407798343477"><ele>175.0</ele><time>2026-05-02T13:22:59.003Z</time></trkpt><trkpt lat="43.226148511553845" lon="11.526404711951718"><ele>175.0</ele><time>2026-05-02T13:23:00.003Z</time></trkpt><trkpt lat="43.226276821715345" lon="11.526401667194563"><ele>175.0</ele><time>2026-05-02T13:23:01.003Z</time></trkpt><trkpt lat="43.22641601596254" lon="11.52638996354583"><ele>175.0</ele><time>2026-05-02T13:23:02.003Z</time></trkpt><trkpt lat="43.22656302082638" lon="11.52638035002455"><ele>175.5</ele><time>2026-05-02T13:23:03.003Z</time></trkpt><trkpt lat="43.226703850170395" lon="11.526368728994044"><ele>176.0</ele><time>2026-05-02T13:23:04.003Z</time></trkpt><trkpt lat="43.22683381618561" lon="11.526367748270467"><ele>176.5</ele><time>2026-05-02T13:23:05.003Z</time></trkpt><trkpt lat="43.226949586999396" lon="11.526370692731541"><ele>177.0</ele><time>2026-05-02T13:23:06.003Z</time></trkpt><trkpt lat="43.22705292602998" lon="11.526379428719169"><ele>177.0</ele><time>2026-05-02T13:23:07.003Z</time></trkpt><trkpt lat="43.2271496338048" lon="11.52639835129361"><ele>177.0</ele><time>2026-05-02T13:23:08.003Z</time></trkpt><trkpt lat="43.22723704750735" lon="11.526439086567065"><ele>177.0</ele><time>2026-05-02T13:23:09.003Z</time></trkpt><trkpt lat="43.227323171368845" lon="11.526499630809887"><ele>177.0</ele><time>2026-05-02T13:23:10.003Z</time></trkpt><trkpt lat="43.22741761121278" lon="11.526588837519208"><ele>177.0</ele><time>2026-05-02T13:23:11.003Z</time></trkpt><trkpt lat="43.22753146583773" lon="11.526716136400555"><ele>175.66666666666666</ele><time>2026-05-02T13:23:12Z</time></trkpt><trkpt lat="43.22765352261971" lon="11.526851159428517"><ele>174.33333333333331</ele><time>2026-05-02T13:23:13Z</time></trkpt><trkpt lat="43.22777678323534" lon="11.526988974207555"><ele>173.0</ele><time>2026-05-02T13:23:14Z</time></trkpt><trkpt lat="43.22788914566408" lon="11.527098293952031"><ele>172.66666666666666</ele><time>2026-05-02T13:23:15Z</time></trkpt><trkpt lat="43.22800716032986" lon="11.527186145765336"><ele>172.33333333333334</ele><time>2026-05-02T13:23:16Z</time></trkpt><trkpt lat="43.22814727607292" lon="11.527266704927978"><ele>172.0</ele><time>2026-05-02T13:23:17Z</time></trkpt><trkpt lat="43.22830484709691" lon="11.527340724461107"><ele>171.0</ele><time>2026-05-02T13:23:18Z</time></trkpt><trkpt lat="43.22844210952373" lon="11.527400088187552"><ele>170.0</ele><time>2026-05-02T13:23:19Z</time></trkpt><trkpt lat="43.22856783145726" lon="11.527453526345171"><ele>169.0</ele><time>2026-05-02T13:23:20Z</time></trkpt><trkpt lat="43.22868514526947" lon="11.527513650869542"><ele>168.0</ele><time>2026-05-02T13:23:21Z</time></trkpt><trkpt lat="43.22878975920715" lon="11.527608570819433"><ele>168.0</ele><time>2026-05-02T13:23:22Z</time></trkpt><trkpt lat="43.22891061313829" lon="11.527742374476244"><ele>168.0</ele><time>2026-05-02T13:23:23Z</time></trkpt><trkpt lat="43.229055826759236" lon="11.527921523939177"><ele>168.0</ele><time>2026-05-02T13:23:24Z</time></trkpt><trkpt lat="43.22920688601396" lon="11.528117469605213"><ele>169.5</ele><time>2026-05-02T13:23:25Z</time></trkpt><trkpt lat="43.2293367514901" lon="11.528289219818827"><ele>171.0</ele><time>2026-05-02T13:23:26Z</time></trkpt><trkpt lat="43.229441798909775" lon="11.528412529029824"><ele>172.5</ele><time>2026-05-02T13:23:27Z</time></trkpt><trkpt lat="43.229526725305035" lon="11.528514004987365"><ele>174.0</ele><time>2026-05-02T13:23:28Z</time></trkpt><trkpt lat="43.22961159905575" lon="11.528603272328755"><ele>174.0</ele><time>2026-05-02T13:23:29Z</time></trkpt><trkpt lat="43.229691000522045" lon="11.528672325870309"><ele>174.0</ele><time>2026-05-02T13:23:30Z</time></trkpt><trkpt lat="43.229764190579225" lon="11.52872535545724"><ele>174.0</ele><time>2026-05-02T13:23:31Z</time></trkpt><trkpt lat="43.229822093298665" lon="11.528763189021847"><ele>174.0</ele><time>2026-05-02T13:23:32Z</time></trkpt><trkpt lat="43.22994350028447" lon="11.528830188063704"><ele>174.0</ele><time>2026-05-02T13:23:35Z</time></trkpt><trkpt lat="43.23001671804427" lon="11.528964925901569"><ele>174.66666666666666</ele><time>2026-05-02T13:23:36Z</time></trkpt><trkpt lat="43.230127748605994" lon="11.529114922743304"><ele>175.33333333333331</ele><time>2026-05-02T13:23:37Z</time></trkpt><trkpt lat="43.23026073565452" lon="11.529291532087482"><ele>176.0</ele><time>2026-05-02T13:23:38Z</time></trkpt><trkpt lat="43.23041436581989" lon="11.529487754879431"><ele>174.66666666666666</ele><time>2026-05-02T13:23:39Z</time></trkpt><trkpt lat="43.230566740719055" lon="11.529701137854094"><ele>173.33333333333334</ele><time>2026-05-02T13:23:40Z</time></trkpt><trkpt lat="43.23073402264403" lon="11.52991881879337"><ele>172.0</ele><time>2026-05-02T13:23:41Z</time></trkpt><trkpt lat="43.23089111899109" lon="11.530154259789835"><ele>172.0</ele><time>2026-05-02T13:23:42Z</time></trkpt><trkpt lat="43.23104199836576" lon="11.530363320974574"><ele>172.0</ele><time>2026-05-02T13:23:43Z</time></trkpt><trkpt lat="43.231171601464546" lon="11.530549771864122"><ele>172.0</ele><time>2026-05-02T13:23:44Z</time></trkpt><trkpt lat="43.23127663750657" lon="11.530742375905671"><ele>171.33333333333334</ele><time>2026-05-02T13:23:45Z</time></trkpt><trkpt lat="43.23136247050023" lon="11.530965996330856"><ele>170.66666666666666</ele><time>2026-05-02T13:23:46Z</time></trkpt><trkpt lat="43.2314329111268" lon="11.531233815168413"><ele>170.0</ele><time>2026-05-02T13:23:47.001Z</time></trkpt><trkpt lat="43.23149281521607" lon="11.531538609636797"><ele>170.0</ele><time>2026-05-02T13:23:48.001Z</time></trkpt><trkpt lat="43.23155556362561" lon="11.531852111980838"><ele>170.0</ele><time>2026-05-02T13:23:49.001Z</time></trkpt><trkpt lat="43.23163218740314" lon="11.532157584449566"><ele>170.0</ele><time>2026-05-02T13:23:50.001Z</time></trkpt><trkpt lat="43.23168518447359" lon="11.532496695271707"><ele>170.0</ele><time>2026-05-02T13:23:51.001Z</time></trkpt><trkpt lat="43.23174963795615" lon="11.532817212267636"><ele>170.0</ele><time>2026-05-02T13:23:52.001Z</time></trkpt><trkpt lat="43.231810255885684" lon="11.53311537279371"><ele>170.0</ele><time>2026-05-02T13:23:53.001Z</time></trkpt><trkpt lat="43.23186518941315" lon="11.533383336824281"><ele>170.0</ele><time>2026-05-02T13:23:54.001Z</time></trkpt><trkpt lat="43.231927660487045" lon="11.533629209545678"><ele>169.33333333333331</ele><time>2026-05-02T13:23:55.001Z</time></trkpt><trkpt lat="43.23197618996226" lon="11.533844627532876"><ele>168.66666666666666</ele><time>2026-05-02T13:23:56.001Z</time></trkpt><trkpt lat="43.23203963115527" lon="11.534035254266348"><ele>168.0</ele><time>2026-05-02T13:23:57.001Z</time></trkpt><trkpt lat="43.23214457441738" lon="11.53420765147653"><ele>168.0</ele><time>2026-05-02T13:23:58.001Z</time></trkpt><trkpt lat="43.232287085612036" lon="11.534374420644658"><ele>168.0</ele><time>2026-05-02T13:23:59.001Z</time></trkpt><trkpt lat="43.23246995874981" lon="11.534521216992122"><ele>168.0</ele><time>2026-05-02T13:24:00.001Z</time></trkpt><trkpt lat="43.23267686504916" lon="11.534657681258041"><ele>168.66666666666666</ele><time>2026-05-02T13:24:01.001Z</time></trkpt><trkpt lat="43.23286855807206" lon="11.534825140738036"><ele>169.33333333333331</ele><time>2026-05-02T13:24:02.001Z</time></trkpt><trkpt lat="43.23305371406525" lon="11.53496686624428"><ele>170.0</ele><time>2026-05-02T13:24:03.001Z</time></trkpt><trkpt lat="43.233220161537375" lon="11.535095208109505"><ele>169.66666666666666</ele><time>2026-05-02T13:24:04.001Z</time></trkpt><trkpt lat="43.2333953072115" lon="11.535241152150146"><ele>169.33333333333334</ele><time>2026-05-02T13:24:05.001Z</time></trkpt><trkpt lat="43.233549851985536" lon="11.535404476103533"><ele>169.0</ele><time>2026-05-02T13:24:06.001Z</time></trkpt><trkpt lat="43.233668642842176" lon="11.535586326890137"><ele>169.0</ele><time>2026-05-02T13:24:07.001Z</time></trkpt><trkpt lat="43.23377455197363" lon="11.535777939807799"><ele>169.0</ele><time>2026-05-02T13:24:08.001Z</time></trkpt><trkpt lat="43.23388106610739" lon="11.535975325083559"><ele>169.0</ele><time>2026-05-02T13:24:09.001Z</time></trkpt><trkpt lat="43.23400133180775" lon="11.536161267145959"><ele>170.0</ele><time>2026-05-02T13:24:10.001Z</time></trkpt><trkpt lat="43.23410741982836" lon="11.536368031240423"><ele>171.0</ele><time>2026-05-02T13:24:11.001Z</time></trkpt><trkpt lat="43.23421753280069" lon="11.536578408135727"><ele>172.0</ele><time>2026-05-02T13:24:12.001Z</time></trkpt><trkpt lat="43.23433070702965" lon="11.536791524221332"><ele>172.0</ele><time>2026-05-02T13:24:13.001Z</time></trkpt><trkpt lat="43.234444591665195" lon="11.537002839594573"><ele>172.0</ele><time>2026-05-02T13:24:14.001Z</time></trkpt><trkpt lat="43.234561082069916" lon="11.537216564980154"><ele>172.0</ele><time>2026-05-02T13:24:15.001Z</time></trkpt><trkpt lat="43.234682310779746" lon="11.537439442329028"><ele>172.0</ele><time>2026-05-02T13:24:16.001Z</time></trkpt><trkpt lat="43.23479430775644" lon="11.537681358929492"><ele>172.0</ele><time>2026-05-02T13:24:17.001Z</time></trkpt><trkpt lat="43.23493229462028" lon="11.537897653490733"><ele>172.0</ele><time>2026-05-02T13:24:18.001Z</time></trkpt><trkpt lat="43.23504431065372" lon="11.538142608478154"><ele>172.33333333333334</ele><time>2026-05-02T13:24:19.001Z</time></trkpt><trkpt lat="43.235183646316706" lon="11.538362830534258"><ele>172.66666666666666</ele><time>2026-05-02T13:24:20.002Z</time></trkpt><trkpt lat="43.23531519663008" lon="11.538605275966196"><ele>173.0</ele><time>2026-05-02T13:24:21.002Z</time></trkpt><trkpt lat="43.23543364345934" lon="11.53886109697343"><ele>173.0</ele><time>2026-05-02T13:24:22.002Z</time></trkpt><trkpt lat="43.235554766927116" lon="11.539084622314373"><ele>173.0</ele><time>2026-05-02T13:24:23.002Z</time></trkpt><trkpt lat="43.23566609069558" lon="11.539291169525503"><ele>173.0</ele><time>2026-05-02T13:24:24.002Z</time></trkpt><trkpt lat="43.235765551426944" lon="11.539483771788369"><ele>173.66666666666666</ele><time>2026-05-02T13:24:25.002Z</time></trkpt><trkpt lat="43.23585500856971" lon="11.539654423179138"><ele>174.33333333333334</ele><time>2026-05-02T13:24:26.002Z</time></trkpt><trkpt lat="43.23589376217667" lon="11.539859896654358"><ele>175.0</ele><time>2026-05-02T13:24:27.002Z</time></trkpt><trkpt lat="43.235873017317445" lon="11.540093939846543"><ele>175.0</ele><time>2026-05-02T13:24:28.002Z</time></trkpt><trkpt lat="43.23586052251905" lon="11.540359767323377"><ele>175.0</ele><time>2026-05-02T13:24:29.002Z</time></trkpt><trkpt lat="43.23586470781" lon="11.540620963013165"><ele>175.0</ele><time>2026-05-02T13:24:30.002Z</time></trkpt><trkpt lat="43.235849041477465" lon="11.540880401262203"><ele>175.0</ele><time>2026-05-02T13:24:31.002Z</time></trkpt><trkpt lat="43.23584117529067" lon="11.541153052430337"><ele>175.0</ele><time>2026-05-02T13:24:32.002Z</time></trkpt><trkpt lat="43.23582843043153" lon="11.541430113893458"><ele>175.0</ele><time>2026-05-02T13:24:33.002Z</time></trkpt><trkpt lat="43.235814111521506" lon="11.541709003701609"><ele>176.33333333333334</ele><time>2026-05-02T13:24:34.002Z</time></trkpt><trkpt lat="43.23580048650159" lon="11.542007685393664"><ele>177.66666666666666</ele><time>2026-05-02T13:24:35.002Z</time></trkpt><trkpt lat="43.235790248200615" lon="11.542322947517565"><ele>179.0</ele><time>2026-05-02T13:24:36.002Z</time></trkpt><trkpt lat="43.23577629006082" lon="11.54264287830242"><ele>178.66666666666666</ele><time>2026-05-02T13:24:37.002Z</time></trkpt><trkpt lat="43.23576094576962" lon="11.542960580931604"><ele>178.33333333333334</ele><time>2026-05-02T13:24:38.002Z</time></trkpt><trkpt lat="43.235748314247175" lon="11.543251022687327"><ele>178.0</ele><time>2026-05-02T13:24:39.002Z</time></trkpt><trkpt lat="43.23573599189587" lon="11.543524698010875"><ele>177.66666666666669</ele><time>2026-05-02T13:24:40.002Z</time></trkpt><trkpt lat="43.23571967690594" lon="11.5438067753358"><ele>177.33333333333334</ele><time>2026-05-02T13:24:41.002Z</time></trkpt><trkpt lat="43.235710179706736" lon="11.544093900924024"><ele>177.0</ele><time>2026-05-02T13:24:42.002Z</time></trkpt><trkpt lat="43.235700085191446" lon="11.544371660245586"><ele>176.66666666666666</ele><time>2026-05-02T13:24:43.002Z</time></trkpt><trkpt lat="43.23569659667445" lon="11.54463356818265"><ele>176.33333333333331</ele><time>2026-05-02T13:24:44.002Z</time></trkpt><trkpt lat="43.235702810371905" lon="11.544899507671108"><ele>176.0</ele><time>2026-05-02T13:24:45.002Z</time></trkpt><trkpt lat="43.235735466974354" lon="11.545176866023224"><ele>176.0</ele><time>2026-05-02T13:24:46.002Z</time></trkpt><trkpt lat="43.23580768777454" lon="11.545465995706364"><ele>176.0</ele><time>2026-05-02T13:24:47.002Z</time></trkpt><trkpt lat="43.235910463218374" lon="11.545756906832095"><ele>176.0</ele><time>2026-05-02T13:24:48.002Z</time></trkpt><trkpt lat="43.236027735670355" lon="11.546050332293953"><ele>176.0</ele><time>2026-05-02T13:24:49.002Z</time></trkpt><trkpt lat="43.23616460129285" lon="11.54632535047193"><ele>177.0</ele><time>2026-05-02T13:24:50.002Z</time></trkpt><trkpt lat="43.23632812291804" lon="11.54658841521539"><ele>178.0</ele><time>2026-05-02T13:24:51.002Z</time></trkpt><trkpt lat="43.236511794422974" lon="11.54685026999045"><ele>176.0</ele><time>2026-05-02T13:24:52.002Z</time></trkpt><trkpt lat="43.236687402866465" lon="11.547095048798473"><ele>174.0</ele><time>2026-05-02T13:24:53.002Z</time></trkpt><trkpt lat="43.23687127171584" lon="11.547330509039146"><ele>174.0</ele><time>2026-05-02T13:24:54.003Z</time></trkpt><trkpt lat="43.23706764679964" lon="11.54754925586842"><ele>174.0</ele><time>2026-05-02T13:24:55.003Z</time></trkpt><trkpt lat="43.23726430416486" lon="11.547762340108493"><ele>175.0</ele><time>2026-05-02T13:24:56.003Z</time></trkpt><trkpt lat="43.23745796183988" lon="11.547973967676944"><ele>176.0</ele><time>2026-05-02T13:24:57.003Z</time></trkpt><trkpt lat="43.237645849822734" lon="11.548184130585904"><ele>176.0</ele><time>2026-05-02T13:24:58.003Z</time></trkpt><trkpt lat="43.23783940093745" lon="11.54839680911403"><ele>176.0</ele><time>2026-05-02T13:24:59.003Z</time></trkpt><trkpt lat="43.23805580762743" lon="11.548625485040878"><ele>176.0</ele><time>2026-05-02T13:25:00.003Z</time></trkpt><trkpt lat="43.23829247526347" lon="11.548846651209864"><ele>176.0</ele><time>2026-05-02T13:25:01.003Z</time></trkpt><trkpt lat="43.23852681136492" lon="11.549047414818537"><ele>176.0</ele><time>2026-05-02T13:25:02.003Z</time></trkpt><trkpt lat="43.23875140586158" lon="11.549214210504138"><ele>176.0</ele><time>2026-05-02T13:25:03.003Z</time></trkpt><trkpt lat="43.23895795015917" lon="11.549354657683788"><ele>175.66666666666666</ele><time>2026-05-02T13:25:04.003Z</time></trkpt><trkpt lat="43.23914515252572" lon="11.549497124670827"><ele>175.33333333333334</ele><time>2026-05-02T13:25:05.003Z</time></trkpt><trkpt lat="43.23932931766812" lon="11.54966540178144"><ele>175.0</ele><time>2026-05-02T13:25:06.003Z</time></trkpt><trkpt lat="43.23950594235059" lon="11.549865848387256"><ele>175.0</ele><time>2026-05-02T13:25:07.003Z</time></trkpt><trkpt lat="43.23966669677028" lon="11.550088011290391"><ele>175.0</ele><time>2026-05-02T13:25:08.003Z</time></trkpt><trkpt lat="43.23982053788609" lon="11.550305955279272"><ele>175.0</ele><time>2026-05-02T13:25:09.003Z</time></trkpt><trkpt lat="43.2399629577997" lon="11.550509959483989"><ele>174.33333333333334</ele><time>2026-05-02T13:25:10.003Z</time></trkpt><trkpt lat="43.24009966294835" lon="11.550704244891351"><ele>173.66666666666666</ele><time>2026-05-02T13:25:11.003Z</time></trkpt><trkpt lat="43.24023394197174" lon="11.550892753720191"><ele>173.0</ele><time>2026-05-02T13:25:12.003Z</time></trkpt><trkpt lat="43.24035896462921" lon="11.551066195213622"><ele>172.33333333333331</ele><time>2026-05-02T13:25:13.003Z</time></trkpt><trkpt lat="43.240482317645636" lon="11.551233613489082"><ele>171.66666666666666</ele><time>2026-05-02T13:25:14.003Z</time></trkpt><trkpt lat="43.24059481007941" lon="11.551386823619014"><ele>171.0</ele><time>2026-05-02T13:25:15.003Z</time></trkpt><trkpt lat="43.24068926666032" lon="11.55152032700622"><ele>172.60000000000002</ele><time>2026-05-02T13:25:16.003Z</time></trkpt><trkpt lat="43.240751118283065" lon="11.551652156949244"><ele>174.2</ele><time>2026-05-02T13:25:17.003Z</time></trkpt><trkpt lat="43.24080691804654" lon="11.551762806015374"><ele>175.8</ele><time>2026-05-02T13:25:17.999Z</time></trkpt><trkpt lat="43.24083201835894" lon="11.551877766434979"><ele>177.39999999999998</ele><time>2026-05-02T13:25:18.999Z</time></trkpt><trkpt lat="43.2408319493521" lon="11.552002866632266"><ele>179.0</ele><time>2026-05-02T13:25:19.999Z</time></trkpt><trkpt lat="43.240752853010676" lon="11.552100316025484"><ele>179.2</ele><time>2026-05-02T13:25:20.999Z</time></trkpt><trkpt lat="43.240696266287316" lon="11.552217518452416"><ele>179.39999999999998</ele><time>2026-05-02T13:25:21.999Z</time></trkpt><trkpt lat="43.24065967222559" lon="11.552340328672209"><ele>179.6</ele><time>2026-05-02T13:25:22.999Z</time></trkpt><trkpt lat="43.24061275333245" lon="11.552436648483642"><ele>179.8</ele><time>2026-05-02T13:25:23.999Z</time></trkpt><trkpt lat="43.24057157611075" lon="11.55253674109984"><ele>180.0</ele><time>2026-05-02T13:25:24.999Z</time></trkpt><trkpt lat="43.240524155289044" lon="11.5526474373027"><ele>178.6</ele><time>2026-05-02T13:25:26Z</time></trkpt><trkpt lat="43.240468721701134" lon="11.552767857511256"><ele>177.2</ele><time>2026-05-02T13:25:26.999Z</time></trkpt><trkpt lat="43.240409848409854" lon="11.552865799207572"><ele>175.8</ele><time>2026-05-02T13:25:27.999Z</time></trkpt><trkpt lat="43.24036400079415" lon="11.552937007345173"><ele>174.4</ele><time>2026-05-02T13:25:29Z</time></trkpt><trkpt lat="43.240442293106405" lon="11.553130731534887"><ele>173.0</ele><time>2026-05-02T13:25:33Z</time></trkpt><trkpt lat="43.24052593051955" lon="11.553194957082948"><ele>173.0</ele><time>2026-05-02T13:25:34Z</time></trkpt><trkpt lat="43.24062481113501" lon="11.55325613295848"><ele>173.0</ele><time>2026-05-02T13:25:35Z</time></trkpt><trkpt lat="43.24071297598461" lon="11.553307994305351"><ele>173.0</ele><time>2026-05-02T13:25:36Z</time></trkpt><trkpt lat="43.240800561861064" lon="11.553367272420695"><ele>173.0</ele><time>2026-05-02T13:25:37Z</time></trkpt><trkpt lat="43.24088263779023" lon="11.553432365767247"><ele>173.0</ele><time>2026-05-02T13:25:38Z</time></trkpt><trkpt lat="43.24096928229954" lon="11.553493629437847"><ele>173.0</ele><time>2026-05-02T13:25:39Z</time></trkpt><trkpt lat="43.24104839640317" lon="11.553566172564246"><ele>173.0</ele><time>2026-05-02T13:25:40Z</time></trkpt><trkpt lat="43.24113462253612" lon="11.553633732178627"><ele>173.0</ele><time>2026-05-02T13:25:41Z</time></trkpt><trkpt lat="43.241210510002965" lon="11.553695595193771"><ele>173.0</ele><time>2026-05-02T13:25:42Z</time></trkpt><trkpt lat="43.24130669269069" lon="11.553760096973926"><ele>173.0</ele><time>2026-05-02T13:25:43Z</time></trkpt><trkpt lat="43.2414237817392" lon="11.553810988506704"><ele>174.25</ele><time>2026-05-02T13:25:44Z</time></trkpt><trkpt lat="43.24154472193305" lon="11.553830853667739"><ele>175.5</ele><time>2026-05-02T13:25:45Z</time></trkpt><trkpt lat="43.241684939782715" lon="11.553830527543068"><ele>176.75</ele><time>2026-05-02T13:25:46Z</time></trkpt><trkpt lat="43.241828098489265" lon="11.553824755203793"><ele>178.0</ele><time>2026-05-02T13:25:47Z</time></trkpt><trkpt lat="43.24195115387118" lon="11.553849202448271"><ele>178.0</ele><time>2026-05-02T13:25:48Z</time></trkpt><trkpt lat="43.24205653441146" lon="11.553899999555332"><ele>178.0</ele><time>2026-05-02T13:25:49Z</time></trkpt><trkpt lat="43.24217444819322" lon="11.553988697983865"><ele>178.0</ele><time>2026-05-02T13:25:50Z</time></trkpt><trkpt lat="43.24230588021436" lon="11.554098226688856"><ele>178.0</ele><time>2026-05-02T13:25:51Z</time></trkpt><trkpt lat="43.24244717060298" lon="11.554223889017367"><ele>182.0</ele><time>2026-05-02T13:25:52Z</time></trkpt><trkpt lat="43.2425697627206" lon="11.554319024458824"><ele>186.0</ele><time>2026-05-02T13:25:53Z</time></trkpt><trkpt lat="43.24268610844609" lon="11.554399779517414"><ele>190.0</ele><time>2026-05-02T13:25:54Z</time></trkpt><trkpt lat="43.242797622913244" lon="11.554471610738686"><ele>194.0</ele><time>2026-05-02T13:25:55Z</time></trkpt><trkpt lat="43.24291409473981" lon="11.554518713551786"><ele>192.5</ele><time>2026-05-02T13:25:56Z</time></trkpt><trkpt lat="43.24302948100259" lon="11.554542134268544"><ele>191.0</ele><time>2026-05-02T13:25:57Z</time></trkpt><trkpt lat="43.243146473315036" lon="11.55454506596673"><ele>189.5</ele><time>2026-05-02T13:25:58Z</time></trkpt><trkpt lat="43.243279898943925" lon="11.554531557797556"><ele>188.0</ele><time>2026-05-02T13:25:59.001Z</time></trkpt><trkpt lat="43.24339974380028" lon="11.55450851434289"><ele>188.5</ele><time>2026-05-02T13:26:00.001Z</time></trkpt><trkpt lat="43.243518278076365" lon="11.554488903539573"><ele>189.0</ele><time>2026-05-02T13:26:01.001Z</time></trkpt><trkpt lat="43.24364812621004" lon="11.55447009631147"><ele>189.5</ele><time>2026-05-02T13:26:02.001Z</time></trkpt><trkpt lat="43.24380018305127" lon="11.554450170206689"><ele>190.0</ele><time>2026-05-02T13:26:03.001Z</time></trkpt><trkpt lat="43.24396475219549" lon="11.554432392033847"><ele>190.0</ele><time>2026-05-02T13:26:04.001Z</time></trkpt><trkpt lat="43.24413888316702" lon="11.554407537604328"><ele>190.0</ele><time>2026-05-02T13:26:05.001Z</time></trkpt><trkpt lat="43.24431920436998" lon="11.554378607228086"><ele>190.0</ele><time>2026-05-02T13:26:06.001Z</time></trkpt><trkpt lat="43.244513308838904" lon="11.554354304034591"><ele>190.0</ele><time>2026-05-02T13:26:07.001Z</time></trkpt><trkpt lat="43.244701424483246" lon="11.554335762411528"><ele>190.0</ele><time>2026-05-02T13:26:08.001Z</time></trkpt><trkpt lat="43.244881440367415" lon="11.554317199360197"><ele>190.0</ele><time>2026-05-02T13:26:09.001Z</time></trkpt><trkpt lat="43.24506407225867" lon="11.55429165848261"><ele>188.66666666666669</ele><time>2026-05-02T13:26:10.001Z</time></trkpt><trkpt lat="43.245247085799896" lon="11.554264724837765"><ele>187.33333333333334</ele><time>2026-05-02T13:26:11.001Z</time></trkpt><trkpt lat="43.24543375750629" lon="11.554238345053696"><ele>186.0</ele><time>2026-05-02T13:26:12.001Z</time></trkpt><trkpt lat="43.24562134762327" lon="11.554212880814125"><ele>183.0</ele><time>2026-05-02T13:26:13.001Z</time></trkpt><trkpt lat="43.245803495189726" lon="11.554185854029253"><ele>180.0</ele><time>2026-05-02T13:26:14.001Z</time></trkpt><trkpt lat="43.24597331982854" lon="11.554161123898973"><ele>177.0</ele><time>2026-05-02T13:26:15.001Z</time></trkpt><trkpt lat="43.246141461485735" lon="11.554139005708132"><ele>177.0</ele><time>2026-05-02T13:26:16.001Z</time></trkpt><trkpt lat="43.246294563996166" lon="11.554122808274213"><ele>177.0</ele><time>2026-05-02T13:26:17.001Z</time></trkpt><trkpt lat="43.24643954891319" lon="11.554111827537346"><ele>177.0</ele><time>2026-05-02T13:26:18.001Z</time></trkpt><trkpt lat="43.24657246683126" lon="11.55411767395802"><ele>177.0</ele><time>2026-05-02T13:26:19.001Z</time></trkpt><trkpt lat="43.24668919317684" lon="11.55414676286401"><ele>175.33333333333334</ele><time>2026-05-02T13:26:20.001Z</time></trkpt><trkpt lat="43.24680816403863" lon="11.554229529900251"><ele>173.66666666666669</ele><time>2026-05-02T13:26:21.001Z</time></trkpt><trkpt lat="43.246955698859196" lon="11.554321252801655"><ele>172.0</ele><time>2026-05-02T13:26:22.001Z</time></trkpt><trkpt lat="43.24712130753072" lon="11.55443715231536"><ele>171.66666666666669</ele><time>2026-05-02T13:26:23.001Z</time></trkpt><trkpt lat="43.247292204504085" lon="11.554541316351681"><ele>171.33333333333334</ele><time>2026-05-02T13:26:24.001Z</time></trkpt><trkpt lat="43.24743409228865" lon="11.554651554442295"><ele>171.0</ele><time>2026-05-02T13:26:25.001Z</time></trkpt><trkpt lat="43.24755933848942" lon="11.554746997617352"><ele>173.0</ele><time>2026-05-02T13:26:26.001Z</time></trkpt><trkpt lat="43.24767551201381" lon="11.55483667324057"><ele>175.0</ele><time>2026-05-02T13:26:27.001Z</time></trkpt><trkpt lat="43.24778192445105" lon="11.554923194352032"><ele>177.0</ele><time>2026-05-02T13:26:28.001Z</time></trkpt><trkpt lat="43.24787345055537" lon="11.555025419663423"><ele>179.0</ele><time>2026-05-02T13:26:29.001Z</time></trkpt><trkpt lat="43.24792987133977" lon="11.555182166488649"><ele>179.0</ele><time>2026-05-02T13:26:30.001Z</time></trkpt><trkpt lat="43.24802332138062" lon="11.5553296389433"><ele>179.0</ele><time>2026-05-02T13:26:31.002Z</time></trkpt><trkpt lat="43.248104303237106" lon="11.555467663885642"><ele>179.0</ele><time>2026-05-02T13:26:32.002Z</time></trkpt><trkpt lat="43.24820390166883" lon="11.555577662289746"><ele>179.0</ele><time>2026-05-02T13:26:33.002Z</time></trkpt><trkpt lat="43.2483350001376" lon="11.5556962778714"><ele>181.66666666666666</ele><time>2026-05-02T13:26:34.002Z</time></trkpt><trkpt lat="43.24847555467656" lon="11.555812882547562"><ele>184.33333333333334</ele><time>2026-05-02T13:26:35.002Z</time></trkpt><trkpt lat="43.24861762842341" lon="11.55591674918843"><ele>187.0</ele><time>2026-05-02T13:26:36.002Z</time></trkpt><trkpt lat="43.24872539256159" lon="11.556025537367978"><ele>187.0</ele><time>2026-05-02T13:26:37.002Z</time></trkpt><trkpt lat="43.24883427436176" lon="11.556069865874441"><ele>187.0</ele><time>2026-05-02T13:26:38.002Z</time></trkpt><trkpt lat="43.2489265437639" lon="11.556102352213372"><ele>187.0</ele><time>2026-05-02T13:26:39.002Z</time></trkpt><trkpt lat="43.249019237466776" lon="11.556099600453093"><ele>187.0</ele><time>2026-05-02T13:26:40.002Z</time></trkpt><trkpt lat="43.24914415183194" lon="11.556075345841679"><ele>187.0</ele><time>2026-05-02T13:26:41.002Z</time></trkpt><trkpt lat="43.24929211098824" lon="11.556062757797793"><ele>189.25</ele><time>2026-05-02T13:26:42.002Z</time></trkpt><trkpt lat="43.249437561805365" lon="11.556036988797171"><ele>191.5</ele><time>2026-05-02T13:26:43.002Z</time></trkpt><trkpt lat="43.24957893094334" lon="11.556011942933587"><ele>193.75</ele><time>2026-05-02T13:26:44.002Z</time></trkpt><trkpt lat="43.249729575838536" lon="11.555976205850337"><ele>196.0</ele><time>2026-05-02T13:26:45.002Z</time></trkpt><trkpt lat="43.24987335373084" lon="11.5559681675909"><ele>196.75</ele><time>2026-05-02T13:26:46.002Z</time></trkpt><trkpt lat="43.249992554821944" lon="11.555946628126417"><ele>197.5</ele><time>2026-05-02T13:26:47.002Z</time></trkpt><trkpt lat="43.250105215478435" lon="11.555897075311131"><ele>198.25</ele><time>2026-05-02T13:26:48.002Z</time></trkpt><trkpt lat="43.25022714006958" lon="11.555800633390191"><ele>199.0</ele><time>2026-05-02T13:26:49.002Z</time></trkpt><trkpt lat="43.250350015044404" lon="11.555680432957912"><ele>199.0</ele><time>2026-05-02T13:26:50.002Z</time></trkpt><trkpt lat="43.2504666486607" lon="11.555558105138534"><ele>199.0</ele><time>2026-05-02T13:26:51.002Z</time></trkpt><trkpt lat="43.25057758510551" lon="11.555439747912091"><ele>199.0</ele><time>2026-05-02T13:26:52.002Z</time></trkpt><trkpt lat="43.25069783218001" lon="11.555328448783314"><ele>199.0</ele><time>2026-05-02T13:26:53.002Z</time></trkpt><trkpt lat="43.25081272027555" lon="11.555200041968355"><ele>203.0</ele><time>2026-05-02T13:26:54.002Z</time></trkpt><trkpt lat="43.25090855786054" lon="11.555076708960685"><ele>207.0</ele><time>2026-05-02T13:26:55.002Z</time></trkpt><trkpt lat="43.25101984386137" lon="11.555010247118238"><ele>211.0</ele><time>2026-05-02T13:26:56.002Z</time></trkpt><trkpt lat="43.25113182008231" lon="11.554947371600578"><ele>215.0</ele><time>2026-05-02T13:26:57.002Z</time></trkpt><trkpt lat="43.25127082417583" lon="11.554883055693722"><ele>215.0</ele><time>2026-05-02T13:26:58.002Z</time></trkpt><trkpt lat="43.25143377020143" lon="11.554815814251539"><ele>215.0</ele><time>2026-05-02T13:26:59.002Z</time></trkpt><trkpt lat="43.251582468791845" lon="11.554736998214885"><ele>215.0</ele><time>2026-05-02T13:27:00.002Z</time></trkpt><trkpt lat="43.25172075140139" lon="11.554697214325106"><ele>214.6</ele><time>2026-05-02T13:27:01.002Z</time></trkpt><trkpt lat="43.25184123553006" lon="11.554661177610658"><ele>214.2</ele><time>2026-05-02T13:27:02.002Z</time></trkpt><trkpt lat="43.25194282405564" lon="11.554632459870255"><ele>213.8</ele><time>2026-05-02T13:27:03.002Z</time></trkpt><trkpt lat="43.25200833907248" lon="11.554619595509111"><ele>213.4</ele><time>2026-05-02T13:27:04.002Z</time></trkpt><trkpt lat="43.25213119689521" lon="11.554606864843416"><ele>213.0</ele><time>2026-05-02T13:27:06.003Z</time></trkpt><trkpt lat="43.25223335837633" lon="11.554615284993016"><ele>213.25</ele><time>2026-05-02T13:27:07.003Z</time></trkpt><trkpt lat="43.25235785777949" lon="11.554674924290664"><ele>213.5</ele><time>2026-05-02T13:27:08.003Z</time></trkpt><trkpt lat="43.25248794506028" lon="11.554700367675093"><ele>213.75</ele><time>2026-05-02T13:27:09.003Z</time></trkpt><trkpt lat="43.25261376444694" lon="11.554740295648324"><ele>214.0</ele><time>2026-05-02T13:27:10.003Z</time></trkpt><trkpt lat="43.25273491497914" lon="11.554752193243393"><ele>214.0</ele><time>2026-05-02T13:27:11.003Z</time></trkpt><trkpt lat="43.25284031786973" lon="11.554736239645411"><ele>213.99999999999997</ele><time>2026-05-02T13:27:12.003Z</time></trkpt><trkpt lat="43.25293033174141" lon="11.554713168629213"><ele>213.99999999999997</ele><time>2026-05-02T13:27:13.003Z</time></trkpt><trkpt lat="43.25302684890525" lon="11.55468984869547"><ele>214.0</ele><time>2026-05-02T13:27:14.003Z</time></trkpt><trkpt lat="43.25313398436965" lon="11.554657961573431"><ele>214.0</ele><time>2026-05-02T13:27:15.003Z</time></trkpt><trkpt lat="43.253248985132736" lon="11.554603993525914"><ele>218.5</ele><time>2026-05-02T13:27:16.003Z</time></trkpt><trkpt lat="43.25336553132092" lon="11.55453324743836"><ele>223.0</ele><time>2026-05-02T13:27:17.003Z</time></trkpt><trkpt lat="43.2534864947821" lon="11.554457969906505"><ele>227.5</ele><time>2026-05-02T13:27:18.003Z</time></trkpt><trkpt lat="43.253586835643944" lon="11.55437087990258"><ele>232.0</ele><time>2026-05-02T13:27:19.003Z</time></trkpt><trkpt lat="43.25367487741852" lon="11.554293601425798"><ele>232.0</ele><time>2026-05-02T13:27:20.003Z</time></trkpt><trkpt lat="43.25376983102687" lon="11.554216955486647"><ele>232.0</ele><time>2026-05-02T13:27:21.003Z</time></trkpt><trkpt lat="43.25386819563961" lon="11.554114549730931"><ele>232.0</ele><time>2026-05-02T13:27:22.003Z</time></trkpt><trkpt lat="43.25397373128181" lon="11.553998163334654"><ele>232.0</ele><time>2026-05-02T13:27:23.003Z</time></trkpt><trkpt lat="43.254038949558115" lon="11.553811659528447"><ele>234.6</ele><time>2026-05-02T13:27:23.999Z</time></trkpt><trkpt lat="43.25407225130632" lon="11.553617894561453"><ele>237.2</ele><time>2026-05-02T13:27:24.999Z</time></trkpt><trkpt lat="43.2540673250846" lon="11.553456247253393"><ele>239.8</ele><time>2026-05-02T13:27:25.999Z</time></trkpt><trkpt lat="43.25407177332248" lon="11.55334725944999"><ele>242.4</ele><time>2026-05-02T13:27:26.999Z</time></trkpt><trkpt lat="43.254099291603275" lon="11.553226441648132"><ele>245.0</ele><time>2026-05-02T13:27:27.999Z</time></trkpt><trkpt lat="43.25415120230657" lon="11.553110951540214"><ele>245.0</ele><time>2026-05-02T13:27:28.999Z</time></trkpt><trkpt lat="43.25423042848158" lon="11.55300403035361"><ele>245.0</ele><time>2026-05-02T13:27:29.999Z</time></trkpt><trkpt lat="43.254317264703324" lon="11.552946887894178"><ele>245.0</ele><time>2026-05-02T13:27:30.999Z</time></trkpt><trkpt lat="43.2544182143239" lon="11.552950054099192"><ele>245.0</ele><time>2026-05-02T13:27:31.999Z</time></trkpt><trkpt lat="43.25450804891593" lon="11.552926654767107"><ele>245.0</ele><time>2026-05-02T13:27:32.999Z</time></trkpt><trkpt lat="43.25462582897252" lon="11.552930553637047"><ele>245.0</ele><time>2026-05-02T13:27:33.999Z</time></trkpt><trkpt lat="43.25476233197773" lon="11.552929381522363"><ele>245.0</ele><time>2026-05-02T13:27:35Z</time></trkpt><trkpt lat="43.2549133659901" lon="11.552923264757062"><ele>245.0</ele><time>2026-05-02T13:27:36Z</time></trkpt><trkpt lat="43.255068077500844" lon="11.552912147641687"><ele>245.0</ele><time>2026-05-02T13:27:37Z</time></trkpt><trkpt lat="43.25522255023603" lon="11.552907529045207"><ele>245.75</ele><time>2026-05-02T13:27:38Z</time></trkpt><trkpt lat="43.255361484778135" lon="11.552908736375446"><ele>246.5</ele><time>2026-05-02T13:27:39Z</time></trkpt><trkpt lat="43.25548412482417" lon="11.552922167735254"><ele>247.25</ele><time>2026-05-02T13:27:40Z</time></trkpt><trkpt lat="43.2556030581148" lon="11.552952009305159"><ele>248.0</ele><time>2026-05-02T13:27:41Z</time></trkpt><trkpt lat="43.255740477223576" lon="11.553008926825148"><ele>249.33333333333334</ele><time>2026-05-02T13:27:42Z</time></trkpt><trkpt lat="43.25589349766624" lon="11.553104469091664"><ele>250.66666666666669</ele><time>2026-05-02T13:27:43Z</time></trkpt><trkpt lat="43.256064013203066" lon="11.55321500608325"><ele>252.0</ele><time>2026-05-02T13:27:44Z</time></trkpt><trkpt lat="43.256227408635866" lon="11.553326770070273"><ele>252.0</ele><time>2026-05-02T13:27:45Z</time></trkpt><trkpt lat="43.25638645114236" lon="11.55343726390582"><ele>252.0</ele><time>2026-05-02T13:27:46Z</time></trkpt><trkpt lat="43.256531965832366" lon="11.553529740983482"><ele>252.0</ele><time>2026-05-02T13:27:47Z</time></trkpt><trkpt lat="43.25666805044987" lon="11.553612012660126"><ele>251.75</ele><time>2026-05-02T13:27:48Z</time></trkpt><trkpt lat="43.256789169891576" lon="11.553679957442524"><ele>251.5</ele><time>2026-05-02T13:27:49Z</time></trkpt><trkpt lat="43.25692703782012" lon="11.553724901108707"><ele>251.25</ele><time>2026-05-02T13:27:50Z</time></trkpt><trkpt lat="43.25708121026348" lon="11.553726429168615"><ele>251.0</ele><time>2026-05-02T13:27:51Z</time></trkpt><trkpt lat="43.25724051851591" lon="11.553694849258054"><ele>251.33333333333334</ele><time>2026-05-02T13:27:52Z</time></trkpt><trkpt lat="43.257401696950915" lon="11.553641282388655"><ele>251.66666666666669</ele><time>2026-05-02T13:27:53Z</time></trkpt><trkpt lat="43.257558939575695" lon="11.553583851193997"><ele>252.0</ele><time>2026-05-02T13:27:54Z</time></trkpt><trkpt lat="43.25770383554268" lon="11.553517351511383"><ele>252.0</ele><time>2026-05-02T13:27:55Z</time></trkpt><trkpt lat="43.257834392817635" lon="11.553442122885212"><ele>252.0</ele><time>2026-05-02T13:27:56Z</time></trkpt><trkpt lat="43.25797292941143" lon="11.553372942486837"><ele>252.0</ele><time>2026-05-02T13:27:57.001Z</time></trkpt><trkpt lat="43.25811790725392" lon="11.553313138260481"><ele>252.0</ele><time>2026-05-02T13:27:58.001Z</time></trkpt><trkpt lat="43.258266491972385" lon="11.553269040770633"><ele>252.0</ele><time>2026-05-02T13:27:59.001Z</time></trkpt><trkpt lat="43.25841487292636" lon="11.5532359115402"><ele>252.0</ele><time>2026-05-02T13:28:00.001Z</time></trkpt><trkpt lat="43.25856816278471" lon="11.553199445646724"><ele>252.0</ele><time>2026-05-02T13:28:01.001Z</time></trkpt><trkpt lat="43.2587088329933" lon="11.553167475058773"><ele>252.0</ele><time>2026-05-02T13:28:02.001Z</time></trkpt><trkpt lat="43.25884464752808" lon="11.553128178467686"><ele>250.0</ele><time>2026-05-02T13:28:03.001Z</time></trkpt><trkpt lat="43.258982727221806" lon="11.553052975914303"><ele>248.0</ele><time>2026-05-02T13:28:04.001Z</time></trkpt><trkpt lat="43.259115845708195" lon="11.55292830882599"><ele>246.0</ele><time>2026-05-02T13:28:05.001Z</time></trkpt><trkpt lat="43.25922761116419" lon="11.552784504335733"><ele>246.0</ele><time>2026-05-02T13:28:06.001Z</time></trkpt><trkpt lat="43.25934209273762" lon="11.552673224380936"><ele>246.0</ele><time>2026-05-02T13:28:07.001Z</time></trkpt><trkpt lat="43.25943042919881" lon="11.5525269756865"><ele>246.0</ele><time>2026-05-02T13:28:08.001Z</time></trkpt><trkpt lat="43.25948368675253" lon="11.552351789379438"><ele>246.0</ele><time>2026-05-02T13:28:09.001Z</time></trkpt><trkpt lat="43.25953495754087" lon="11.552185251784907"><ele>246.0</ele><time>2026-05-02T13:28:10.001Z</time></trkpt><trkpt lat="43.25957591419395" lon="11.551999629823117"><ele>246.0</ele><time>2026-05-02T13:28:11.001Z</time></trkpt><trkpt lat="43.25961834106408" lon="11.551808286516966"><ele>246.0</ele><time>2026-05-02T13:28:12.001Z</time></trkpt><trkpt lat="43.259662431081075" lon="11.551662313076106"><ele>246.0</ele><time>2026-05-02T13:28:13.001Z</time></trkpt><trkpt lat="43.259699498707164" lon="11.551549498329576"><ele>246.0</ele><time>2026-05-02T13:28:14.001Z</time></trkpt><trkpt lat="43.259724276215124" lon="11.551441070716137"><ele>246.00000000000003</ele><time>2026-05-02T13:28:15.001Z</time></trkpt><trkpt lat="43.25974915740383" lon="11.55131191772364"><ele>246.00000000000003</ele><time>2026-05-02T13:28:16.001Z</time></trkpt><trkpt lat="43.25978554705173" lon="11.551159445915882"><ele>246.0</ele><time>2026-05-02T13:28:17.001Z</time></trkpt><trkpt lat="43.259859639021165" lon="11.551030488053865"><ele>246.0</ele><time>2026-05-02T13:28:18.001Z</time></trkpt><trkpt lat="43.259922742895654" lon="11.550904422343477"><ele>246.5</ele><time>2026-05-02T13:28:19.001Z</time></trkpt><trkpt lat="43.25997507836191" lon="11.550772016607427"><ele>247.0</ele><time>2026-05-02T13:28:20.001Z</time></trkpt><trkpt lat="43.260047915585986" lon="11.55064987008809"><ele>247.5</ele><time>2026-05-02T13:28:21.001Z</time></trkpt><trkpt lat="43.2601249764784" lon="11.55052376194448"><ele>248.0</ele><time>2026-05-02T13:28:22.001Z</time></trkpt><trkpt lat="43.26020860637444" lon="11.550393040676227"><ele>246.25</ele><time>2026-05-02T13:28:23.001Z</time></trkpt><trkpt lat="43.26029362910817" lon="11.550263128488062"><ele>244.5</ele><time>2026-05-02T13:28:24.001Z</time></trkpt><trkpt lat="43.26038770797797" lon="11.550157035618518"><ele>242.75</ele><time>2026-05-02T13:28:25.001Z</time></trkpt><trkpt lat="43.26049923340478" lon="11.550071036973726"><ele>241.0</ele><time>2026-05-02T13:28:26.001Z</time></trkpt><trkpt lat="43.260643525961314" lon="11.549997381095064"><ele>239.0</ele><time>2026-05-02T13:28:27.002Z</time></trkpt><trkpt lat="43.26079043159867" lon="11.54995250199941"><ele>237.0</ele><time>2026-05-02T13:28:28.002Z</time></trkpt><trkpt lat="43.26093143417839" lon="11.549929099727759"><ele>235.0</ele><time>2026-05-02T13:28:29.002Z</time></trkpt><trkpt lat="43.26106753081039" lon="11.549970403523707"><ele>233.0</ele><time>2026-05-02T13:28:30.002Z</time></trkpt><trkpt lat="43.26120287410063" lon="11.549973642712215"><ele>233.0</ele><time>2026-05-02T13:28:31.002Z</time></trkpt><trkpt lat="43.261340819051625" lon="11.549997506350199"><ele>233.0</ele><time>2026-05-02T13:28:32.002Z</time></trkpt><trkpt lat="43.26148855798379" lon="11.54997945308063"><ele>233.0</ele><time>2026-05-02T13:28:33.002Z</time></trkpt><trkpt lat="43.261636032945745" lon="11.549935210951096"><ele>233.0</ele><time>2026-05-02T13:28:34.002Z</time></trkpt><trkpt lat="43.26177974821465" lon="11.549862251522988"><ele>233.66666666666669</ele><time>2026-05-02T13:28:35.002Z</time></trkpt><trkpt lat="43.26191534787095" lon="11.549765406087433"><ele>234.33333333333331</ele><time>2026-05-02T13:28:36.002Z</time></trkpt><trkpt lat="43.26204232662498" lon="11.549642723684448"><ele>235.0</ele><time>2026-05-02T13:28:37.002Z</time></trkpt><trkpt lat="43.26217227223404" lon="11.549499246008756"><ele>238.66666666666666</ele><time>2026-05-02T13:28:38.002Z</time></trkpt><trkpt lat="43.262296188086566" lon="11.549337742710254"><ele>242.33333333333331</ele><time>2026-05-02T13:28:39.002Z</time></trkpt><trkpt lat="43.26242090061258" lon="11.549208576785496"><ele>246.0</ele><time>2026-05-02T13:28:40.002Z</time></trkpt><trkpt lat="43.26251998706533" lon="11.549042254575193"><ele>246.0</ele><time>2026-05-02T13:28:41.002Z</time></trkpt><trkpt lat="43.26261938981253" lon="11.548872951591814"><ele>246.0</ele><time>2026-05-02T13:28:42.002Z</time></trkpt><trkpt lat="43.262708926282535" lon="11.548695890356948"><ele>246.0</ele><time>2026-05-02T13:28:43.002Z</time></trkpt><trkpt lat="43.26279160219567" lon="11.548523894822127"><ele>248.0</ele><time>2026-05-02T13:28:44.002Z</time></trkpt><trkpt lat="43.26289497672956" lon="11.548372306075711"><ele>250.0</ele><time>2026-05-02T13:28:45.002Z</time></trkpt><trkpt lat="43.26297220830179" lon="11.548196736786677"><ele>252.0</ele><time>2026-05-02T13:28:46.002Z</time></trkpt><trkpt lat="43.26305225531176" lon="11.54803955551437"><ele>254.0</ele><time>2026-05-02T13:28:47.002Z</time></trkpt><trkpt lat="43.26311336584976" lon="11.547869311330428"><ele>256.5</ele><time>2026-05-02T13:28:48.002Z</time></trkpt><trkpt lat="43.26317526486859" lon="11.547705097556218"><ele>259.0</ele><time>2026-05-02T13:28:49.002Z</time></trkpt><trkpt lat="43.26324368748634" lon="11.547544917588189"><ele>261.5</ele><time>2026-05-02T13:28:50.002Z</time></trkpt><trkpt lat="43.26332052019998" lon="11.547408324287524"><ele>264.0</ele><time>2026-05-02T13:28:51.002Z</time></trkpt><trkpt lat="43.26339392351923" lon="11.547305049672396"><ele>264.0</ele><time>2026-05-02T13:28:52.002Z</time></trkpt><trkpt lat="43.26347869975619" lon="11.54721011255497"><ele>264.0</ele><time>2026-05-02T13:28:53.002Z</time></trkpt><trkpt lat="43.26357812799744" lon="11.547115330365571"><ele>264.0</ele><time>2026-05-02T13:28:54.002Z</time></trkpt><trkpt lat="43.26370829067452" lon="11.546996546758484"><ele>264.0</ele><time>2026-05-02T13:28:55.002Z</time></trkpt><trkpt lat="43.26383983015366" lon="11.546884116386266"><ele>264.0</ele><time>2026-05-02T13:28:56.002Z</time></trkpt><trkpt lat="43.26396776301533" lon="11.546766544175862"><ele>264.0</ele><time>2026-05-02T13:28:57.002Z</time></trkpt><trkpt lat="43.264090426445804" lon="11.546648520507478"><ele>264.0</ele><time>2026-05-02T13:28:58.002Z</time></trkpt><trkpt lat="43.264204989366746" lon="11.54652056804021"><ele>264.0</ele><time>2026-05-02T13:28:59.002Z</time></trkpt><trkpt lat="43.264306853077954" lon="11.54639501189867"><ele>264.0</ele><time>2026-05-02T13:29:00.003Z</time></trkpt><trkpt lat="43.26438534527519" lon="11.546265636988753"><ele>264.0</ele><time>2026-05-02T13:29:01.003Z</time></trkpt><trkpt lat="43.26444596011551" lon="11.546107955271241"><ele>264.0</ele><time>2026-05-02T13:29:02.003Z</time></trkpt><trkpt lat="43.26449560132809" lon="11.54592874806974"><ele>267.0</ele><time>2026-05-02T13:29:03.003Z</time></trkpt><trkpt lat="43.26453602455519" lon="11.545734918524047"><ele>270.0</ele><time>2026-05-02T13:29:04.003Z</time></trkpt><trkpt lat="43.26456319400323" lon="11.545537727587629"><ele>273.0</ele><time>2026-05-02T13:29:05.003Z</time></trkpt><trkpt lat="43.264589240906155" lon="11.545357346913539"><ele>276.0</ele><time>2026-05-02T13:29:06.003Z</time></trkpt><trkpt lat="43.264614939719294" lon="11.5452014001583"><ele>276.2</ele><time>2026-05-02T13:29:07.003Z</time></trkpt><trkpt lat="43.26463801299475" lon="11.54506114042604"><ele>276.40000000000003</ele><time>2026-05-02T13:29:08.003Z</time></trkpt><trkpt lat="43.26465873216252" lon="11.54491876893116"><ele>276.6</ele><time>2026-05-02T13:29:09.003Z</time></trkpt><trkpt lat="43.264676771428576" lon="11.544797531887804"><ele>276.8</ele><time>2026-05-02T13:29:10.003Z</time></trkpt><trkpt lat="43.26471647407393" lon="11.544680469970183"><ele>277.0</ele><time>2026-05-02T13:29:11.003Z</time></trkpt><trkpt lat="43.2647648203931" lon="11.544550592729703"><ele>271.0</ele><time>2026-05-02T13:29:12.003Z</time></trkpt><trkpt lat="43.264833457809075" lon="11.544415585570228"><ele>265.0</ele><time>2026-05-02T13:29:13.003Z</time></trkpt><trkpt lat="43.26491086310254" lon="11.544274224986324"><ele>259.0</ele><time>2026-05-02T13:29:14.003Z</time></trkpt><trkpt lat="43.26499429249367" lon="11.544117415356673"><ele>253.0</ele><time>2026-05-02T13:29:15.003Z</time></trkpt><trkpt lat="43.26506732314252" lon="11.543943454778427"><ele>253.0</ele><time>2026-05-02T13:29:16.003Z</time></trkpt><trkpt lat="43.2651326079089" lon="11.543771157348896"><ele>253.0</ele><time>2026-05-02T13:29:17.003Z</time></trkpt><trkpt lat="43.265188920618705" lon="11.543599613745814"><ele>253.0</ele><time>2026-05-02T13:29:18.003Z</time></trkpt><trkpt lat="43.265234586961824" lon="11.543417682105549"><ele>253.0</ele><time>2026-05-02T13:29:19.003Z</time></trkpt><trkpt lat="43.265252668063084" lon="11.543234921837543"><ele>250.75</ele><time>2026-05-02T13:29:20.003Z</time></trkpt><trkpt lat="43.26522894407664" lon="11.543044728404844"><ele>248.5</ele><time>2026-05-02T13:29:21.003Z</time></trkpt><trkpt lat="43.26520653335827" lon="11.542850611653066"><ele>246.25</ele><time>2026-05-02T13:29:22.003Z</time></trkpt><trkpt lat="43.26519640502286" lon="11.542647830748187"><ele>244.0</ele><time>2026-05-02T13:29:23.003Z</time></trkpt><trkpt lat="43.265216559885246" lon="11.542444930584182"><ele>241.66666666666666</ele><time>2026-05-02T13:29:24.003Z</time></trkpt><trkpt lat="43.2652911476868" lon="11.542277918392843"><ele>239.33333333333331</ele><time>2026-05-02T13:29:25.003Z</time></trkpt><trkpt lat="43.26536420980631" lon="11.54207108395389"><ele>237.0</ele><time>2026-05-02T13:29:26.003Z</time></trkpt><trkpt lat="43.26542007582567" lon="11.541833473334119"><ele>237.33333333333331</ele><time>2026-05-02T13:29:27.003Z</time></trkpt><trkpt lat="43.26549073138224" lon="11.54160959956272"><ele>237.66666666666666</ele><time>2026-05-02T13:29:28.003Z</time></trkpt><trkpt lat="43.26552450550409" lon="11.541376098827"><ele>238.0</ele><time>2026-05-02T13:29:29.003Z</time></trkpt><trkpt lat="43.265549507536804" lon="11.541148154785258"><ele>238.0</ele><time>2026-05-02T13:29:30Z</time></trkpt><trkpt lat="43.26556373102207" lon="11.540929943735554"><ele>238.0</ele><time>2026-05-02T13:29:31Z</time></trkpt><trkpt lat="43.26557839295853" lon="11.540767447735968"><ele>238.0</ele><time>2026-05-02T13:29:32Z</time></trkpt><trkpt lat="43.26560404465366" lon="11.540643213163303"><ele>238.0</ele><time>2026-05-02T13:29:33Z</time></trkpt><trkpt lat="43.26564739519215" lon="11.540538562333174"><ele>239.25</ele><time>2026-05-02T13:29:34Z</time></trkpt><trkpt lat="43.26571057417376" lon="11.540433313965893"><ele>240.5</ele><time>2026-05-02T13:29:35Z</time></trkpt><trkpt lat="43.26579386973837" lon="11.540287120374131"><ele>241.75</ele><time>2026-05-02T13:29:36Z</time></trkpt><trkpt lat="43.26590947894323" lon="11.540127632430446"><ele>243.0</ele><time>2026-05-02T13:29:37Z</time></trkpt><trkpt lat="43.2660203327829" lon="11.539972090967279"><ele>244.0</ele><time>2026-05-02T13:29:38Z</time></trkpt><trkpt lat="43.26611837909825" lon="11.539818546513777"><ele>245.0</ele><time>2026-05-02T13:29:39Z</time></trkpt><trkpt lat="43.26621229810615" lon="11.53968310525176"><ele>246.0</ele><time>2026-05-02T13:29:40Z</time></trkpt><trkpt lat="43.26629147217505" lon="11.539541159232048"><ele>247.0</ele><time>2026-05-02T13:29:41Z</time></trkpt><trkpt lat="43.266368639799" lon="11.539407001801392"><ele>248.0</ele><time>2026-05-02T13:29:42Z</time></trkpt><trkpt lat="43.26643561578279" lon="11.53927979549641"><ele>249.0</ele><time>2026-05-02T13:29:43Z</time></trkpt><trkpt lat="43.26649694493309" lon="11.539173561184354"><ele>250.0</ele><time>2026-05-02T13:29:44Z</time></trkpt><trkpt lat="43.266564555021056" lon="11.53908666745244"><ele>251.0</ele><time>2026-05-02T13:29:45Z</time></trkpt><trkpt lat="43.26664687080325" lon="11.539031698917904"><ele>252.0</ele><time>2026-05-02T13:29:46Z</time></trkpt><trkpt lat="43.26676386221821" lon="11.538971632464552"><ele>247.33333333333331</ele><time>2026-05-02T13:29:47Z</time></trkpt><trkpt lat="43.26689925658984" lon="11.538903979298908"><ele>242.66666666666666</ele><time>2026-05-02T13:29:48Z</time></trkpt><trkpt lat="43.26704164618087" lon="11.538827253048112"><ele>238.0</ele><time>2026-05-02T13:29:49Z</time></trkpt><trkpt lat="43.26718585884548" lon="11.538738588003541"><ele>236.75</ele><time>2026-05-02T13:29:50Z</time></trkpt><trkpt lat="43.26732066002704" lon="11.538646443280541"><ele>235.5</ele><time>2026-05-02T13:29:51Z</time></trkpt><trkpt lat="43.26744816866394" lon="11.538551637707934"><ele>234.25</ele><time>2026-05-02T13:29:52Z</time></trkpt><trkpt lat="43.26755923736225" lon="11.538473091476261"><ele>233.0</ele><time>2026-05-02T13:29:53Z</time></trkpt><trkpt lat="43.2676519236807" lon="11.538407098220713"><ele>233.0</ele><time>2026-05-02T13:29:54Z</time></trkpt><trkpt lat="43.26774145755837" lon="11.538342101274376"><ele>233.0</ele><time>2026-05-02T13:29:55Z</time></trkpt><trkpt lat="43.26784928587149" lon="11.53826503114381"><ele>233.0</ele><time>2026-05-02T13:29:56Z</time></trkpt><trkpt lat="43.267973992240385" lon="11.538180070150615"><ele>233.0</ele><time>2026-05-02T13:29:57Z</time></trkpt><trkpt lat="43.268109877128154" lon="11.538083998371633"><ele>229.75</ele><time>2026-05-02T13:29:58Z</time></trkpt><trkpt lat="43.268231955751574" lon="11.537991949671854"><ele>226.5</ele><time>2026-05-02T13:29:59Z</time></trkpt><trkpt lat="43.26834128634719" lon="11.537917509559026"><ele>223.25</ele><time>2026-05-02T13:30:00.001Z</time></trkpt><trkpt lat="43.26844596852297" lon="11.537844766393029"><ele>220.0</ele><time>2026-05-02T13:30:01.001Z</time></trkpt><trkpt lat="43.26854015465289" lon="11.53778239373814"><ele>219.4</ele><time>2026-05-02T13:30:02.001Z</time></trkpt><trkpt lat="43.268630841992874" lon="11.537732534437552"><ele>218.8</ele><time>2026-05-02T13:30:03.001Z</time></trkpt><trkpt lat="43.26871444709131" lon="11.537706382040511"><ele>218.2</ele><time>2026-05-02T13:30:04.001Z</time></trkpt><trkpt lat="43.268815182875954" lon="11.537700658699904"><ele>217.6</ele><time>2026-05-02T13:30:05.001Z</time></trkpt><trkpt lat="43.268926162390564" lon="11.537729439793207"><ele>217.0</ele><time>2026-05-02T13:30:06.001Z</time></trkpt><trkpt lat="43.26903807372256" lon="11.537785203977505"><ele>213.5</ele><time>2026-05-02T13:30:07.001Z</time></trkpt><trkpt lat="43.269136541050045" lon="11.537821589020524"><ele>210.0</ele><time>2026-05-02T13:30:08.001Z</time></trkpt><trkpt lat="43.269240545591714" lon="11.53783522790754"><ele>206.5</ele><time>2026-05-02T13:30:09.001Z</time></trkpt><trkpt lat="43.26936695992542" lon="11.537828879544664"><ele>203.0</ele><time>2026-05-02T13:30:10.001Z</time></trkpt><trkpt lat="43.2695036925896" lon="11.537799783167763"><ele>203.0</ele><time>2026-05-02T13:30:11.001Z</time></trkpt><trkpt lat="43.269627840020874" lon="11.537748138320389"><ele>203.0</ele><time>2026-05-02T13:30:12.001Z</time></trkpt><trkpt lat="43.269739603753905" lon="11.537691112221562"><ele>203.0</ele><time>2026-05-02T13:30:13.001Z</time></trkpt><trkpt lat="43.26983932477882" lon="11.537634050314498"><ele>203.0</ele><time>2026-05-02T13:30:14.001Z</time></trkpt><trkpt lat="43.26994950447388" lon="11.537580073125625"><ele>199.75</ele><time>2026-05-02T13:30:15.001Z</time></trkpt><trkpt lat="43.270049868098546" lon="11.537556252950523"><ele>196.5</ele><time>2026-05-02T13:30:16.001Z</time></trkpt><trkpt lat="43.270158469136454" lon="11.537564170765625"><ele>193.25</ele><time>2026-05-02T13:30:17.001Z</time></trkpt><trkpt lat="43.27027424808457" lon="11.537641775717365"><ele>190.0</ele><time>2026-05-02T13:30:18.001Z</time></trkpt><trkpt lat="43.27040976070345" lon="11.537673697719047"><ele>190.0</ele><time>2026-05-02T13:30:19.001Z</time></trkpt><trkpt lat="43.27052546064871" lon="11.53771041888606"><ele>190.0</ele><time>2026-05-02T13:30:20.001Z</time></trkpt><trkpt lat="43.27062746842662" lon="11.53772853479267"><ele>190.0</ele><time>2026-05-02T13:30:21.001Z</time></trkpt><trkpt lat="43.27072033966575" lon="11.537779407888193"><ele>190.0</ele><time>2026-05-02T13:30:22.001Z</time></trkpt><trkpt lat="43.270831337833975" lon="11.537848468350582"><ele>190.0</ele><time>2026-05-02T13:30:23.001Z</time></trkpt><trkpt lat="43.27095970697536" lon="11.537922349770275"><ele>188.25</ele><time>2026-05-02T13:30:24.001Z</time></trkpt><trkpt lat="43.27105360025283" lon="11.538053209173523"><ele>186.5</ele><time>2026-05-02T13:30:25.001Z</time></trkpt><trkpt lat="43.2711267818188" lon="11.538164796580226"><ele>184.75</ele><time>2026-05-02T13:30:26.001Z</time></trkpt><trkpt lat="43.271197553703196" lon="11.538289600501535"><ele>183.0</ele><time>2026-05-02T13:30:27.001Z</time></trkpt><trkpt lat="43.27127984454595" lon="11.538467069688517"><ele>183.0</ele><time>2026-05-02T13:30:28.001Z</time></trkpt><trkpt lat="43.27137340142654" lon="11.538681871963451"><ele>183.0</ele><time>2026-05-02T13:30:29.001Z</time></trkpt><trkpt lat="43.27146933495472" lon="11.53890782940174"><ele>183.0</ele><time>2026-05-02T13:30:30.001Z</time></trkpt><trkpt lat="43.27156946074092" lon="11.539146974221284"><ele>184.33333333333334</ele><time>2026-05-02T13:30:31.001Z</time></trkpt><trkpt lat="43.27166674059019" lon="11.539384899531617"><ele>185.66666666666669</ele><time>2026-05-02T13:30:32.001Z</time></trkpt><trkpt lat="43.271768890388834" lon="11.539589768200532"><ele>187.0</ele><time>2026-05-02T13:30:33.001Z</time></trkpt><trkpt lat="43.27184284755834" lon="11.539777944180615"><ele>187.66666666666669</ele><time>2026-05-02T13:30:34.002Z</time></trkpt><trkpt lat="43.27192033929127" lon="11.539973461256498"><ele>188.33333333333334</ele><time>2026-05-02T13:30:35.002Z</time></trkpt><trkpt lat="43.272015020130084" lon="11.540202931507064"><ele>189.0</ele><time>2026-05-02T13:30:36.002Z</time></trkpt><trkpt lat="43.272111348531496" lon="11.54044087239149"><ele>189.66666666666666</ele><time>2026-05-02T13:30:37.002Z</time></trkpt><trkpt lat="43.27220041334676" lon="11.540666778304123"><ele>190.33333333333331</ele><time>2026-05-02T13:30:38.002Z</time></trkpt><trkpt lat="43.272270559489314" lon="11.540902653245572"><ele>191.0</ele><time>2026-05-02T13:30:39.002Z</time></trkpt><trkpt lat="43.27234921377843" lon="11.541133097589482"><ele>195.0</ele><time>2026-05-02T13:30:40.002Z</time></trkpt><trkpt lat="43.27241166954187" lon="11.541362260781248"><ele>199.0</ele><time>2026-05-02T13:30:41.002Z</time></trkpt><trkpt lat="43.27245371093884" lon="11.541622532832015"><ele>203.0</ele><time>2026-05-02T13:30:42.002Z</time></trkpt><trkpt lat="43.27248192617004" lon="11.541850217717409"><ele>205.66666666666669</ele><time>2026-05-02T13:30:43.002Z</time></trkpt><trkpt lat="43.27250470034397" lon="11.542079062490082"><ele>208.33333333333331</ele><time>2026-05-02T13:30:44.002Z</time></trkpt><trkpt lat="43.27254125750282" lon="11.542297123433984"><ele>211.0</ele><time>2026-05-02T13:30:45.002Z</time></trkpt><trkpt lat="43.27256183532059" lon="11.542482108037603"><ele>211.0</ele><time>2026-05-02T13:30:46.002Z</time></trkpt><trkpt lat="43.272591233438774" lon="11.54262871515068"><ele>211.0</ele><time>2026-05-02T13:30:47.002Z</time></trkpt><trkpt lat="43.272613015413285" lon="11.542759139946298"><ele>211.0</ele><time>2026-05-02T13:30:48.002Z</time></trkpt><trkpt lat="43.27266959059661" lon="11.542861396944833"><ele>211.0</ele><time>2026-05-02T13:30:49.002Z</time></trkpt><trkpt lat="43.27272352200599" lon="11.542943272347868"><ele>211.0</ele><time>2026-05-02T13:30:50.002Z</time></trkpt><trkpt lat="43.27279684031078" lon="11.542983919412814"><ele>212.49999999999997</ele><time>2026-05-02T13:30:51.002Z</time></trkpt><trkpt lat="43.272885018203866" lon="11.542977855507486"><ele>214.0</ele><time>2026-05-02T13:30:52.002Z</time></trkpt><trkpt lat="43.27296898832445" lon="11.542941831495302"><ele>215.5</ele><time>2026-05-02T13:30:53.002Z</time></trkpt><trkpt lat="43.273060602215736" lon="11.542906311739664"><ele>217.0</ele><time>2026-05-02T13:30:54.002Z</time></trkpt><trkpt lat="43.27313603745137" lon="11.542909600890772"><ele>218.49999999999997</ele><time>2026-05-02T13:30:55.002Z</time></trkpt><trkpt lat="43.2732209292597" lon="11.54297082661431"><ele>220.0</ele><time>2026-05-02T13:30:56.002Z</time></trkpt><trkpt lat="43.273323118858606" lon="11.543024190530852"><ele>222.4</ele><time>2026-05-02T13:30:57.002Z</time></trkpt><trkpt lat="43.27342764594202" lon="11.543127516595668"><ele>224.8</ele><time>2026-05-02T13:30:58.002Z</time></trkpt><trkpt lat="43.273514638943126" lon="11.543223901517383"><ele>227.2</ele><time>2026-05-02T13:30:59.002Z</time></trkpt><trkpt lat="43.27358066902887" lon="11.543309911188548"><ele>229.6</ele><time>2026-05-02T13:31:00.002Z</time></trkpt><trkpt lat="43.27362748438613" lon="11.543396798544041"><ele>232.0</ele><time>2026-05-02T13:31:01.002Z</time></trkpt><trkpt lat="43.27365147110041" lon="11.54350731366288"><ele>232.0</ele><time>2026-05-02T13:31:02.002Z</time></trkpt><trkpt lat="43.27362289562696" lon="11.54362562658176"><ele>232.0</ele><time>2026-05-02T13:31:03.002Z</time></trkpt><trkpt lat="43.27358531238973" lon="11.54373730872688"><ele>232.0</ele><time>2026-05-02T13:31:04.002Z</time></trkpt><trkpt lat="43.2735185363486" lon="11.543860243350792"><ele>232.0</ele><time>2026-05-02T13:31:05.002Z</time></trkpt><trkpt lat="43.2734332248496" lon="11.543990580726401"><ele>232.0</ele><time>2026-05-02T13:31:06.002Z</time></trkpt><trkpt lat="43.2733412955176" lon="11.544129424432803"><ele>233.6</ele><time>2026-05-02T13:31:07.003Z</time></trkpt><trkpt lat="43.273260911932375" lon="11.544248997564262"><ele>235.2</ele><time>2026-05-02T13:31:08.003Z</time></trkpt><trkpt lat="43.273209105587455" lon="11.544368524893319"><ele>236.8</ele><time>2026-05-02T13:31:09.003Z</time></trkpt><trkpt lat="43.273193412220664" lon="11.544494354922177"><ele>238.4</ele><time>2026-05-02T13:31:10.003Z</time></trkpt><trkpt lat="43.273178098478034" lon="11.544631909154537"><ele>240.0</ele><time>2026-05-02T13:31:11.003Z</time></trkpt><trkpt lat="43.27317226736375" lon="11.54479298860917"><ele>241.66666666666669</ele><time>2026-05-02T13:31:12.003Z</time></trkpt><trkpt lat="43.27316877402992" lon="11.544990369312677"><ele>243.33333333333334</ele><time>2026-05-02T13:31:13.003Z</time></trkpt><trkpt lat="43.2731591722119" lon="11.545214183001256"><ele>245.0</ele><time>2026-05-02T13:31:14.003Z</time></trkpt><trkpt lat="43.273140588391065" lon="11.545437993452596"><ele>247.33333333333334</ele><time>2026-05-02T13:31:15.003Z</time></trkpt><trkpt lat="43.273144670861676" lon="11.545672400507042"><ele>249.66666666666669</ele><time>2026-05-02T13:31:16.003Z</time></trkpt><trkpt lat="43.27317592580501" lon="11.545924782772632"><ele>252.0</ele><time>2026-05-02T13:31:17.003Z</time></trkpt><trkpt lat="43.27321858135941" lon="11.546151944661274"><ele>254.25</ele><time>2026-05-02T13:31:18.003Z</time></trkpt><trkpt lat="43.273274617316126" lon="11.546351952912861"><ele>256.5</ele><time>2026-05-02T13:31:19.003Z</time></trkpt><trkpt lat="43.27333587003682" lon="11.546543947937431"><ele>258.75</ele><time>2026-05-02T13:31:20.003Z</time></trkpt><trkpt lat="43.27340066223083" lon="11.546700857256726"><ele>261.0</ele><time>2026-05-02T13:31:21.003Z</time></trkpt><trkpt lat="43.273470719262455" lon="11.54684737388137"><ele>261.0</ele><time>2026-05-02T13:31:22.003Z</time></trkpt><trkpt lat="43.273553783215235" lon="11.54696417744027"><ele>261.0</ele><time>2026-05-02T13:31:23.003Z</time></trkpt><trkpt lat="43.27365061402268" lon="11.54705370703597"><ele>261.0</ele><time>2026-05-02T13:31:24.003Z</time></trkpt><trkpt lat="43.273760793545655" lon="11.547112212938936"><ele>261.0</ele><time>2026-05-02T13:31:25.003Z</time></trkpt><trkpt lat="43.27389445920887" lon="11.547140716311855"><ele>267.0</ele><time>2026-05-02T13:31:26.003Z</time></trkpt><trkpt lat="43.27404636770505" lon="11.547140302664733"><ele>273.0</ele><time>2026-05-02T13:31:27.003Z</time></trkpt><trkpt lat="43.27420462970019" lon="11.547125199340451"><ele>279.0</ele><time>2026-05-02T13:31:28.003Z</time></trkpt><trkpt lat="43.27434344597597" lon="11.547111811455952"><ele>279.0</ele><time>2026-05-02T13:31:29.003Z</time></trkpt><trkpt lat="43.27447179258196" lon="11.54709656749936"><ele>279.0</ele><time>2026-05-02T13:31:30.003Z</time></trkpt><trkpt lat="43.27457638416258" lon="11.547091715042978"><ele>279.0</ele><time>2026-05-02T13:31:31.003Z</time></trkpt><trkpt lat="43.274667869950946" lon="11.54711746375125"><ele>279.0</ele><time>2026-05-02T13:31:32.003Z</time></trkpt><trkpt lat="43.274752984866055" lon="11.54718042910571"><ele>279.0</ele><time>2026-05-02T13:31:33.003Z</time></trkpt><trkpt lat="43.274864921053165" lon="11.547274807205062"><ele>281.3333333333333</ele><time>2026-05-02T13:31:34.003Z</time></trkpt><trkpt lat="43.27498557650349" lon="11.547385836690422"><ele>283.66666666666663</ele><time>2026-05-02T13:31:35.003Z</time></trkpt><trkpt lat="43.27511640953308" lon="11.54749660514056"><ele>286.0</ele><time>2026-05-02T13:31:36Z</time></trkpt><trkpt lat="43.27524602504819" lon="11.547613210033534"><ele>286.0</ele><time>2026-05-02T13:31:37Z</time></trkpt><trkpt lat="43.275371129555545" lon="11.547720044584883"><ele>286.0</ele><time>2026-05-02T13:31:38Z</time></trkpt><trkpt lat="43.27549384458536" lon="11.547824917540652"><ele>286.0</ele><time>2026-05-02T13:31:39Z</time></trkpt><trkpt lat="43.27562420075834" lon="11.54792803612649"><ele>286.0</ele><time>2026-05-02T13:31:40Z</time></trkpt><trkpt lat="43.275752991658536" lon="11.548015992562599"><ele>289.75</ele><time>2026-05-02T13:31:41Z</time></trkpt><trkpt lat="43.275886587186335" lon="11.548078421974848"><ele>293.5</ele><time>2026-05-02T13:31:42Z</time></trkpt><trkpt lat="43.27602910269731" lon="11.548137917134362"><ele>297.25</ele><time>2026-05-02T13:31:43Z</time></trkpt><trkpt lat="43.276181916738516" lon="11.548192976031052"><ele>301.0</ele><time>2026-05-02T13:31:44Z</time></trkpt><trkpt lat="43.27630217778884" lon="11.548233047605773"><ele>301.0</ele><time>2026-05-02T13:31:45Z</time></trkpt><trkpt lat="43.276403822872155" lon="11.548271266084607"><ele>301.0</ele><time>2026-05-02T13:31:46Z</time></trkpt><trkpt lat="43.27650474890987" lon="11.548318787035141"><ele>301.0</ele><time>2026-05-02T13:31:47Z</time></trkpt><trkpt lat="43.27662170037721" lon="11.548380620502861"><ele>301.0</ele><time>2026-05-02T13:31:48Z</time></trkpt><trkpt lat="43.276741529460935" lon="11.548462997766181"><ele>301.66666666666663</ele><time>2026-05-02T13:31:49Z</time></trkpt><trkpt lat="43.276868558727564" lon="11.548579492810793"><ele>302.3333333333333</ele><time>2026-05-02T13:31:50Z</time></trkpt><trkpt lat="43.27699122363366" lon="11.548708918703763"><ele>303.0</ele><time>2026-05-02T13:31:51Z</time></trkpt><trkpt lat="43.27710708744424" lon="11.548834145536297"><ele>303.0</ele><time>2026-05-02T13:31:52Z</time></trkpt><trkpt lat="43.27722497890208" lon="11.548941531946932"><ele>303.0</ele><time>2026-05-02T13:31:53Z</time></trkpt><trkpt lat="43.27733716022362" lon="11.549031565510688"><ele>303.0</ele><time>2026-05-02T13:31:54Z</time></trkpt><trkpt lat="43.27743910184078" lon="11.549112327837083"><ele>303.0</ele><time>2026-05-02T13:31:55Z</time></trkpt><trkpt lat="43.27752896100961" lon="11.549189402490125"><ele>300.2</ele><time>2026-05-02T13:31:56Z</time></trkpt><trkpt lat="43.277618988048154" lon="11.549270477989962"><ele>297.4</ele><time>2026-05-02T13:31:57Z</time></trkpt><trkpt lat="43.27770591348008" lon="11.549340273281754"><ele>294.59999999999997</ele><time>2026-05-02T13:31:58Z</time></trkpt><trkpt lat="43.27780412150613" lon="11.54940099580345"><ele>291.8</ele><time>2026-05-02T13:31:59Z</time></trkpt><trkpt lat="43.27792739568819" lon="11.549444863915696"><ele>289.0</ele><time>2026-05-02T13:32:00Z</time></trkpt><trkpt lat="43.27807341567765" lon="11.549452016889008"><ele>284.0</ele><time>2026-05-02T13:32:01Z</time></trkpt><trkpt lat="43.278242760774454" lon="11.549447156678372"><ele>279.0</ele><time>2026-05-02T13:32:02Z</time></trkpt><trkpt lat="43.27842822362248" lon="11.549440702409504"><ele>274.0</ele><time>2026-05-02T13:32:03.001Z</time></trkpt><trkpt lat="43.27859988205375" lon="11.549442853561926"><ele>274.0</ele><time>2026-05-02T13:32:04.001Z</time></trkpt><trkpt lat="43.27873664845798" lon="11.549460094803383"><ele>274.0</ele><time>2026-05-02T13:32:05.001Z</time></trkpt><trkpt lat="43.27885587247223" lon="11.549487796307904"><ele>274.0</ele><time>2026-05-02T13:32:06.001Z</time></trkpt><trkpt lat="43.278967137285704" lon="11.549535275747887"><ele>274.0</ele><time>2026-05-02T13:32:07.001Z</time></trkpt><trkpt lat="43.27908649166912" lon="11.549618407646149"><ele>273.5</ele><time>2026-05-02T13:32:08.001Z</time></trkpt><trkpt lat="43.27920956781443" lon="11.549716075316976"><ele>273.0</ele><time>2026-05-02T13:32:09.001Z</time></trkpt><trkpt lat="43.27932206979717" lon="11.549799033403254"><ele>272.5</ele><time>2026-05-02T13:32:10.001Z</time></trkpt><trkpt lat="43.27943437574904" lon="11.549867272574701"><ele>272.0</ele><time>2026-05-02T13:32:11.001Z</time></trkpt><trkpt lat="43.279557183410105" lon="11.549919681174476"><ele>272.0</ele><time>2026-05-02T13:32:12.001Z</time></trkpt><trkpt lat="43.27968440558661" lon="11.549946011042941"><ele>272.0</ele><time>2026-05-02T13:32:13.001Z</time></trkpt><trkpt lat="43.279810066855234" lon="11.54994761313186"><ele>272.0</ele><time>2026-05-02T13:32:14.001Z</time></trkpt><trkpt lat="43.279929445706834" lon="11.549932314345408"><ele>272.0</ele><time>2026-05-02T13:32:15.001Z</time></trkpt><trkpt lat="43.28005141479333" lon="11.549901414861663"><ele>271.0</ele><time>2026-05-02T13:32:16.001Z</time></trkpt><trkpt lat="43.28018106057491" lon="11.549844539708012"><ele>270.0</ele><time>2026-05-02T13:32:17.001Z</time></trkpt><trkpt lat="43.28032632225178" lon="11.549745603976385"><ele>269.0</ele><time>2026-05-02T13:32:18.001Z</time></trkpt><trkpt lat="43.280469365868235" lon="11.549640320767393"><ele>269.0</ele><time>2026-05-02T13:32:19.001Z</time></trkpt><trkpt lat="43.280583781094755" lon="11.549556982855785"><ele>269.0</ele><time>2026-05-02T13:32:20.001Z</time></trkpt><trkpt lat="43.280685100881755" lon="11.549468134902785"><ele>269.0</ele><time>2026-05-02T13:32:21.001Z</time></trkpt><trkpt lat="43.280771299239085" lon="11.549347505678652"><ele>269.0</ele><time>2026-05-02T13:32:22.001Z</time></trkpt><trkpt lat="43.28084505672644" lon="11.549192963469226"><ele>271.75</ele><time>2026-05-02T13:32:23.001Z</time></trkpt><trkpt lat="43.280916087406695" lon="11.549034223795976"><ele>274.5</ele><time>2026-05-02T13:32:24.001Z</time></trkpt><trkpt lat="43.280992394803846" lon="11.548911622952883"><ele>277.25</ele><time>2026-05-02T13:32:25.001Z</time></trkpt><trkpt lat="43.2810844328654" lon="11.548790119352232"><ele>280.0</ele><time>2026-05-02T13:32:26.001Z</time></trkpt><trkpt lat="43.28119198987731" lon="11.54867604934473"><ele>280.0</ele><time>2026-05-02T13:32:27.001Z</time></trkpt><trkpt lat="43.2813027387112" lon="11.548553592688979"><ele>280.0</ele><time>2026-05-02T13:32:28.001Z</time></trkpt><trkpt lat="43.281428141632205" lon="11.54842525283365"><ele>280.0</ele><time>2026-05-02T13:32:29.001Z</time></trkpt><trkpt lat="43.28153404901602" lon="11.548318138952306"><ele>280.0</ele><time>2026-05-02T13:32:30.001Z</time></trkpt><trkpt lat="43.28162303272897" lon="11.548225363765383"><ele>283.5</ele><time>2026-05-02T13:32:31.001Z</time></trkpt><trkpt lat="43.28170758871461" lon="11.548158682064019"><ele>287.0</ele><time>2026-05-02T13:32:32.001Z</time></trkpt><trkpt lat="43.281787698205946" lon="11.548120954602059"><ele>290.5</ele><time>2026-05-02T13:32:33.001Z</time></trkpt><trkpt lat="43.28189121561551" lon="11.548135813188104"><ele>294.0</ele><time>2026-05-02T13:32:34.001Z</time></trkpt><trkpt lat="43.2819743875391" lon="11.548143417605196"><ele>297.5</ele><time>2026-05-02T13:32:35.001Z</time></trkpt><trkpt lat="43.282046568830964" lon="11.548127953666649"><ele>301.0</ele><time>2026-05-02T13:32:36.001Z</time></trkpt><trkpt lat="43.282132775714196" lon="11.548136960439212"><ele>301.0</ele><time>2026-05-02T13:32:37.001Z</time></trkpt><trkpt lat="43.28225295969026" lon="11.548135692301221"><ele>301.0</ele><time>2026-05-02T13:32:38.001Z</time></trkpt><trkpt lat="43.28239584014241" lon="11.548146295063358"><ele>301.0</ele><time>2026-05-02T13:32:39.002Z</time></trkpt><trkpt lat="43.2825343911556" lon="11.548165554896606"><ele>301.0</ele><time>2026-05-02T13:32:40.002Z</time></trkpt><trkpt lat="43.28265749856957" lon="11.548189015735423"><ele>300.5</ele><time>2026-05-02T13:32:41.002Z</time></trkpt><trkpt lat="43.282778177321376" lon="11.54822863994567"><ele>300.0</ele><time>2026-05-02T13:32:42.002Z</time></trkpt><trkpt lat="43.28290298197997" lon="11.54829791312929"><ele>299.5</ele><time>2026-05-02T13:32:43.002Z</time></trkpt><trkpt lat="43.28303146296086" lon="11.548378044786293"><ele>299.0</ele><time>2026-05-02T13:32:44.002Z</time></trkpt><trkpt lat="43.283171677520386" lon="11.548497230823946"><ele>299.0</ele><time>2026-05-02T13:32:45.002Z</time></trkpt><trkpt lat="43.283296350419356" lon="11.548616927367584"><ele>299.0</ele><time>2026-05-02T13:32:46.002Z</time></trkpt><trkpt lat="43.28340031293584" lon="11.548706938279084"><ele>299.0</ele><time>2026-05-02T13:32:47.002Z</time></trkpt><trkpt lat="43.28350463070363" lon="11.548766170646731"><ele>299.0</ele><time>2026-05-02T13:32:48.002Z</time></trkpt><trkpt lat="43.28361951309019" lon="11.548815783705987"><ele>298.59999999999997</ele><time>2026-05-02T13:32:49.002Z</time></trkpt><trkpt lat="43.28375050991344" lon="11.548845300695339"><ele>298.2</ele><time>2026-05-02T13:32:50.002Z</time></trkpt><trkpt lat="43.2838728318266" lon="11.548861220017857"><ele>297.79999999999995</ele><time>2026-05-02T13:32:51.002Z</time></trkpt><trkpt lat="43.2839665369653" lon="11.54886865569994"><ele>297.4</ele><time>2026-05-02T13:32:52.002Z</time></trkpt><trkpt lat="43.284055422604496" lon="11.54886256297894"><ele>297.0</ele><time>2026-05-02T13:32:53.002Z</time></trkpt><trkpt lat="43.284150293121535" lon="11.548822896603811"><ele>297.0</ele><time>2026-05-02T13:32:54.002Z</time></trkpt><trkpt lat="43.28425632271564" lon="11.548751600045625"><ele>297.0</ele><time>2026-05-02T13:32:55.002Z</time></trkpt><trkpt lat="43.2843385093672" lon="11.548657985002642"><ele>297.0</ele><time>2026-05-02T13:32:56.002Z</time></trkpt><trkpt lat="43.28440723814243" lon="11.548524319219291"><ele>297.0</ele><time>2026-05-02T13:32:57.002Z</time></trkpt><trkpt lat="43.28446887025601" lon="11.548353099352429"><ele>296.3333333333333</ele><time>2026-05-02T13:32:58.002Z</time></trkpt><trkpt lat="43.28454039504052" lon="11.548146007660868"><ele>295.66666666666663</ele><time>2026-05-02T13:32:59.002Z</time></trkpt><trkpt lat="43.28461727664966" lon="11.547939936496821"><ele>295.0</ele><time>2026-05-02T13:33:00.002Z</time></trkpt><trkpt lat="43.284684131233135" lon="11.54776107811075"><ele>292.5</ele><time>2026-05-02T13:33:01.002Z</time></trkpt><trkpt lat="43.284723188179186" lon="11.547592084240442"><ele>290.0</ele><time>2026-05-02T13:33:02.002Z</time></trkpt><trkpt lat="43.28474182794358" lon="11.547403359255771"><ele>287.5</ele><time>2026-05-02T13:33:03.002Z</time></trkpt><trkpt lat="43.284750105364765" lon="11.54722227538134"><ele>285.0</ele><time>2026-05-02T13:33:04.002Z</time></trkpt><trkpt lat="43.28478607956119" lon="11.547074184747858"><ele>291.25</ele><time>2026-05-02T13:33:05.002Z</time></trkpt><trkpt lat="43.284821055204524" lon="11.54695013596451"><ele>297.5</ele><time>2026-05-02T13:33:06.002Z</time></trkpt><trkpt lat="43.2848889735451" lon="11.546839229736188"><ele>303.75</ele><time>2026-05-02T13:33:07.002Z</time></trkpt><trkpt lat="43.28497532838977" lon="11.546715461653159"><ele>310.0</ele><time>2026-05-02T13:33:08.002Z</time></trkpt><trkpt lat="43.28507999759966" lon="11.546619052007097"><ele>310.0</ele><time>2026-05-02T13:33:09.002Z</time></trkpt><trkpt lat="43.285203122346246" lon="11.546528676677903"><ele>310.0</ele><time>2026-05-02T13:33:10.002Z</time></trkpt><trkpt lat="43.285316851221076" lon="11.546466774726927"><ele>310.0</ele><time>2026-05-02T13:33:11.002Z</time></trkpt><trkpt lat="43.28543848752758" lon="11.546422886531444"><ele>310.0</ele><time>2026-05-02T13:33:12.002Z</time></trkpt><trkpt lat="43.285561063969304" lon="11.54638407127809"><ele>309.5</ele><time>2026-05-02T13:33:13.002Z</time></trkpt><trkpt lat="43.28566600024787" lon="11.546327513398808"><ele>309.0</ele><time>2026-05-02T13:33:14.003Z</time></trkpt><trkpt lat="43.28577681312713" lon="11.546248744290457"><ele>308.5</ele><time>2026-05-02T13:33:15.003Z</time></trkpt><trkpt lat="43.285898986136644" lon="11.546131796747579"><ele>308.0</ele><time>2026-05-02T13:33:16.003Z</time></trkpt><trkpt lat="43.28600327034798" lon="11.546032867623842"><ele>308.8</ele><time>2026-05-02T13:33:17.003Z</time></trkpt><trkpt lat="43.28609404126365" lon="11.545963457364438"><ele>309.6</ele><time>2026-05-02T13:33:18.003Z</time></trkpt><trkpt lat="43.286183395758556" lon="11.545904432076776"><ele>310.4</ele><time>2026-05-02T13:33:19.003Z</time></trkpt><trkpt lat="43.286274072054105" lon="11.545864016856068"><ele>311.2</ele><time>2026-05-02T13:33:20.003Z</time></trkpt><trkpt lat="43.28637658540919" lon="11.545853240160358"><ele>312.0</ele><time>2026-05-02T13:33:21.003Z</time></trkpt><trkpt lat="43.28646691295837" lon="11.545885390530263"><ele>312.0</ele><time>2026-05-02T13:33:22.003Z</time></trkpt><trkpt lat="43.28655269466586" lon="11.545969545914481"><ele>312.0</ele><time>2026-05-02T13:33:23.003Z</time></trkpt><trkpt lat="43.286654588910736" lon="11.546055231265637"><ele>312.0</ele><time>2026-05-02T13:33:24.003Z</time></trkpt><trkpt lat="43.286756704464" lon="11.546121085827778"><ele>312.0</ele><time>2026-05-02T13:33:25.003Z</time></trkpt><trkpt lat="43.28684967378748" lon="11.546173575450423"><ele>312.0</ele><time>2026-05-02T13:33:26.003Z</time></trkpt><trkpt lat="43.286949717206" lon="11.546167982665652"><ele>312.0</ele><time>2026-05-02T13:33:27.003Z</time></trkpt><trkpt lat="43.287044647203025" lon="11.546143828352097"><ele>312.0</ele><time>2026-05-02T13:33:28.003Z</time></trkpt><trkpt lat="43.28712945714527" lon="11.546103560319278"><ele>312.0</ele><time>2026-05-02T13:33:29.003Z</time></trkpt><trkpt lat="43.28719604522518" lon="11.546035448437234"><ele>312.0</ele><time>2026-05-02T13:33:30.003Z</time></trkpt><trkpt lat="43.28725160507577" lon="11.545948732312144"><ele>312.0</ele><time>2026-05-02T13:33:31.003Z</time></trkpt><trkpt lat="43.28728536670352" lon="11.545836415001103"><ele>312.0</ele><time>2026-05-02T13:33:32.003Z</time></trkpt><trkpt lat="43.28730114519309" lon="11.545682364124497"><ele>308.3333333333333</ele><time>2026-05-02T13:33:33.003Z</time></trkpt><trkpt lat="43.28732779198733" lon="11.545482417267182"><ele>304.66666666666663</ele><time>2026-05-02T13:33:34.003Z</time></trkpt><trkpt lat="43.28735676903909" lon="11.545257929856499"><ele>301.0</ele><time>2026-05-02T13:33:35.003Z</time></trkpt><trkpt lat="43.2873765221257" lon="11.545019918373468"><ele>301.0</ele><time>2026-05-02T13:33:36.003Z</time></trkpt><trkpt lat="43.28739062192768" lon="11.54479675838832"><ele>301.0</ele><time>2026-05-02T13:33:37.003Z</time></trkpt><trkpt lat="43.287433301643745" lon="11.544591396521179"><ele>301.0</ele><time>2026-05-02T13:33:38.003Z</time></trkpt><trkpt lat="43.28747112971091" lon="11.544380575578698"><ele>300.5</ele><time>2026-05-02T13:33:39.003Z</time></trkpt><trkpt lat="43.28753316978148" lon="11.544202475488868"><ele>300.0</ele><time>2026-05-02T13:33:40.003Z</time></trkpt><trkpt lat="43.28758987177819" lon="11.544061794000923"><ele>299.5</ele><time>2026-05-02T13:33:41.003Z</time></trkpt><trkpt lat="43.28763606348835" lon="11.543923202950431"><ele>299.0</ele><time>2026-05-02T13:33:42Z</time></trkpt><trkpt lat="43.287643764668594" lon="11.543753720181217"><ele>297.33333333333337</ele><time>2026-05-02T13:33:43Z</time></trkpt><trkpt lat="43.28762952607592" lon="11.54353622430353"><ele>295.6666666666667</ele><time>2026-05-02T13:33:44Z</time></trkpt><trkpt lat="43.28762230087498" lon="11.54331440932278"><ele>294.0</ele><time>2026-05-02T13:33:45Z</time></trkpt><trkpt lat="43.287681955247066" lon="11.543111133362187"><ele>294.0</ele><time>2026-05-02T13:33:46Z</time></trkpt><trkpt lat="43.28773485193763" lon="11.54289353595988"><ele>294.0</ele><time>2026-05-02T13:33:47Z</time></trkpt><trkpt lat="43.28777575274687" lon="11.542717198494543"><ele>294.0</ele><time>2026-05-02T13:33:48Z</time></trkpt><trkpt lat="43.28782359150481" lon="11.542580087083945"><ele>294.0</ele><time>2026-05-02T13:33:49Z</time></trkpt><trkpt lat="43.2879150725846" lon="11.542447248412534"><ele>296.0</ele><time>2026-05-02T13:33:50Z</time></trkpt><trkpt lat="43.28799880713634" lon="11.542262949359447"><ele>298.0</ele><time>2026-05-02T13:33:51Z</time></trkpt><trkpt lat="43.2881116148307" lon="11.542080938406842"><ele>300.0</ele><time>2026-05-02T13:33:52Z</time></trkpt><trkpt lat="43.28820018402612" lon="11.541892592310337"><ele>300.5</ele><time>2026-05-02T13:33:53Z</time></trkpt><trkpt lat="43.288257305250134" lon="11.541721447500901"><ele>301.0</ele><time>2026-05-02T13:33:54Z</time></trkpt><trkpt lat="43.28830175839165" lon="11.541577396736212"><ele>301.5</ele><time>2026-05-02T13:33:55Z</time></trkpt><trkpt lat="43.288351012789626" lon="11.54147206864261"><ele>302.0</ele><time>2026-05-02T13:33:56Z</time></trkpt><trkpt lat="43.28843419444659" lon="11.541377273422466"><ele>302.0</ele><time>2026-05-02T13:33:57Z</time></trkpt><trkpt lat="43.288552890975666" lon="11.541295539165567"><ele>302.0</ele><time>2026-05-02T13:33:58Z</time></trkpt><trkpt lat="43.28869653430507" lon="11.541255072924828"><ele>302.0</ele><time>2026-05-02T13:33:59Z</time></trkpt><trkpt lat="43.28885460862569" lon="11.541212114927111"><ele>302.0</ele><time>2026-05-02T13:34:00Z</time></trkpt><trkpt lat="43.28901829046557" lon="11.541145814930683"><ele>302.0</ele><time>2026-05-02T13:34:01Z</time></trkpt><trkpt lat="43.289161745699396" lon="11.541103831328932"><ele>302.0</ele><time>2026-05-02T13:34:02Z</time></trkpt><trkpt lat="43.28926278194348" lon="11.541088643508163"><ele>302.0</ele><time>2026-05-02T13:34:03Z</time></trkpt><trkpt lat="43.289358863853096" lon="11.541086258051507"><ele>302.0</ele><time>2026-05-02T13:34:04Z</time></trkpt><trkpt lat="43.28946582828306" lon="11.541149398381085"><ele>302.0</ele><time>2026-05-02T13:34:05Z</time></trkpt><trkpt lat="43.28961708999372" lon="11.541202966034279"><ele>302.0</ele><time>2026-05-02T13:34:06Z</time></trkpt><trkpt lat="43.28976546725594" lon="11.541230511825537"><ele>302.0</ele><time>2026-05-02T13:34:07Z</time></trkpt><trkpt lat="43.28990469322336" lon="11.54123705677737"><ele>302.0</ele><time>2026-05-02T13:34:08Z</time></trkpt><trkpt lat="43.29003109446631" lon="11.541216239153096"><ele>302.0</ele><time>2026-05-02T13:34:09Z</time></trkpt><trkpt lat="43.2901612556863" lon="11.541194055657613"><ele>302.0</ele><time>2026-05-02T13:34:10Z</time></trkpt><trkpt lat="43.29028969378849" lon="11.541198611730534"><ele>302.0</ele><time>2026-05-02T13:34:11Z</time></trkpt><trkpt lat="43.290415546421755" lon="11.541253401496839"><ele>302.0</ele><time>2026-05-02T13:34:12Z</time></trkpt><trkpt lat="43.29055749883147" lon="11.541283014236003"><ele>303.6</ele><time>2026-05-02T13:34:13.001Z</time></trkpt><trkpt lat="43.29067703774456" lon="11.541339562161887"><ele>305.2</ele><time>2026-05-02T13:34:14.001Z</time></trkpt><trkpt lat="43.290789306120246" lon="11.541387281704285"><ele>306.8</ele><time>2026-05-02T13:34:15.001Z</time></trkpt><trkpt lat="43.290891978871414" lon="11.54141298288546"><ele>308.4</ele><time>2026-05-02T13:34:16.001Z</time></trkpt><trkpt lat="43.29098864047523" lon="11.541395902146947"><ele>310.0</ele><time>2026-05-02T13:34:17.001Z</time></trkpt><trkpt lat="43.29108924657308" lon="11.541340106733438"><ele>310.0</ele><time>2026-05-02T13:34:18.001Z</time></trkpt><trkpt lat="43.29116862900813" lon="11.541261664441144"><ele>310.0</ele><time>2026-05-02T13:34:19.001Z</time></trkpt><trkpt lat="43.291240728362055" lon="11.541162002524585"><ele>310.0</ele><time>2026-05-02T13:34:20.001Z</time></trkpt><trkpt lat="43.29130182545276" lon="11.541055514429678"><ele>310.0</ele><time>2026-05-02T13:34:21.001Z</time></trkpt><trkpt lat="43.2913400542731" lon="11.540944154922752"><ele>310.0</ele><time>2026-05-02T13:34:22.001Z</time></trkpt><trkpt lat="43.29135557040573" lon="11.540817428752915"><ele>308.5</ele><time>2026-05-02T13:34:23.001Z</time></trkpt><trkpt lat="43.2913436781374" lon="11.540653320922749"><ele>307.0</ele><time>2026-05-02T13:34:24.001Z</time></trkpt><trkpt lat="43.29132385323271" lon="11.540466610780808"><ele>305.5</ele><time>2026-05-02T13:34:25.001Z</time></trkpt><trkpt lat="43.291309637350786" lon="11.54027481431283"><ele>304.0</ele><time>2026-05-02T13:34:26.001Z</time></trkpt><trkpt lat="43.291348310920526" lon="11.540095428360756"><ele>303.3333333333333</ele><time>2026-05-02T13:34:27.001Z</time></trkpt><trkpt lat="43.29139759014241" lon="11.539908211777226"><ele>302.6666666666667</ele><time>2026-05-02T13:34:28.001Z</time></trkpt><trkpt lat="43.29146989689341" lon="11.539706013829896"><ele>302.0</ele><time>2026-05-02T13:34:29.001Z</time></trkpt><trkpt lat="43.291539152785425" lon="11.539472847918798"><ele>305.75</ele><time>2026-05-02T13:34:30.001Z</time></trkpt><trkpt lat="43.29162844599281" lon="11.539269047008348"><ele>309.5</ele><time>2026-05-02T13:34:31.001Z</time></trkpt><trkpt lat="43.29169103261361" lon="11.539102701656072"><ele>313.25</ele><time>2026-05-02T13:34:32.001Z</time></trkpt><trkpt lat="43.291748411754256" lon="11.538974164003506"><ele>317.0</ele><time>2026-05-02T13:34:33.001Z</time></trkpt><trkpt lat="43.2918005516566" lon="11.538884312297375"><ele>317.0</ele><time>2026-05-02T13:34:34.001Z</time></trkpt><trkpt lat="43.29187045440189" lon="11.538823149444994"><ele>317.0</ele><time>2026-05-02T13:34:35.001Z</time></trkpt><trkpt lat="43.29196825181812" lon="11.538788081757229"><ele>317.0</ele><time>2026-05-02T13:34:36.001Z</time></trkpt><trkpt lat="43.29208231872903" lon="11.538822794053125"><ele>317.0</ele><time>2026-05-02T13:34:37.001Z</time></trkpt><trkpt lat="43.29220928057469" lon="11.538869164545028"><ele>317.0</ele><time>2026-05-02T13:34:38.001Z</time></trkpt><trkpt lat="43.2923336900057" lon="11.538912114302923"><ele>317.0</ele><time>2026-05-02T13:34:39.001Z</time></trkpt><trkpt lat="43.292444862501114" lon="11.538921442174415"><ele>317.0</ele><time>2026-05-02T13:34:40.001Z</time></trkpt><trkpt lat="43.29255709231433" lon="11.538934982051552"><ele>317.0</ele><time>2026-05-02T13:34:41.001Z</time></trkpt><trkpt lat="43.29266034387769" lon="11.538924300140668"><ele>317.0</ele><time>2026-05-02T13:34:42.001Z</time></trkpt><trkpt lat="43.29275579912387" lon="11.538876463511937"><ele>317.0</ele><time>2026-05-02T13:34:43.001Z</time></trkpt><trkpt lat="43.292848562122956" lon="11.538797380315234"><ele>315.33333333333337</ele><time>2026-05-02T13:34:44.001Z</time></trkpt><trkpt lat="43.29295770822087" lon="11.538673598199477"><ele>313.6666666666667</ele><time>2026-05-02T13:34:45.001Z</time></trkpt><trkpt lat="43.293100072450784" lon="11.538523258534218"><ele>312.0</ele><time>2026-05-02T13:34:46.001Z</time></trkpt><trkpt lat="43.2932688381125" lon="11.538368661666645"><ele>312.0</ele><time>2026-05-02T13:34:47.002Z</time></trkpt><trkpt lat="43.29346709617589" lon="11.538220860389911"><ele>312.0</ele><time>2026-05-02T13:34:48.002Z</time></trkpt><trkpt lat="43.293664091415366" lon="11.538040563323612"><ele>312.3333333333333</ele><time>2026-05-02T13:34:49.002Z</time></trkpt><trkpt lat="43.29383822316341" lon="11.537884245006135"><ele>312.66666666666663</ele><time>2026-05-02T13:34:50.002Z</time></trkpt><trkpt lat="43.294000659876104" lon="11.537703651869895"><ele>313.0</ele><time>2026-05-02T13:34:51.002Z</time></trkpt><trkpt lat="43.29416397279" lon="11.537537101735346"><ele>313.0</ele><time>2026-05-02T13:34:52.002Z</time></trkpt><trkpt lat="43.29429596067866" lon="11.537378756493586"><ele>313.0</ele><time>2026-05-02T13:34:53.002Z</time></trkpt><trkpt lat="43.29440651682646" lon="11.537231119963904"><ele>313.0</ele><time>2026-05-02T13:34:54.002Z</time></trkpt><trkpt lat="43.29449403869957" lon="11.537123625655859"><ele>313.0</ele><time>2026-05-02T13:34:55.002Z</time></trkpt><trkpt lat="43.294587999964946" lon="11.537034338629237"><ele>312.0</ele><time>2026-05-02T13:34:56.002Z</time></trkpt><trkpt lat="43.29468879472771" lon="11.536972439423359"><ele>311.0</ele><time>2026-05-02T13:34:57.002Z</time></trkpt><trkpt lat="43.294774766215866" lon="11.536933890516847"><ele>310.0</ele><time>2026-05-02T13:34:58.002Z</time></trkpt><trkpt lat="43.294841628152014" lon="11.536906651984365"><ele>309.0</ele><time>2026-05-02T13:34:59.002Z</time></trkpt><trkpt lat="43.29491660360711" lon="11.536862826779071"><ele>308.0</ele><time>2026-05-02T13:35:00.002Z</time></trkpt><trkpt lat="43.29500238978258" lon="11.536813481237093"><ele>307.0</ele><time>2026-05-02T13:35:01.002Z</time></trkpt><trkpt lat="43.29510666294786" lon="11.536801253850323"><ele>307.0</ele><time>2026-05-02T13:35:02.002Z</time></trkpt><trkpt lat="43.29521829980628" lon="11.536770397571866"><ele>307.0</ele><time>2026-05-02T13:35:03.002Z</time></trkpt><trkpt lat="43.295323542620274" lon="11.536752180060365"><ele>307.0</ele><time>2026-05-02T13:35:04.002Z</time></trkpt><trkpt lat="43.29542264761877" lon="11.536676814562856"><ele>307.0</ele><time>2026-05-02T13:35:05.002Z</time></trkpt><trkpt lat="43.29551005163581" lon="11.53655818534647"><ele>307.0</ele><time>2026-05-02T13:35:06.002Z</time></trkpt><trkpt lat="43.2955819695951" lon="11.536393603319393"><ele>307.0</ele><time>2026-05-02T13:35:07.002Z</time></trkpt><trkpt lat="43.295651395328974" lon="11.536199496936723"><ele>307.0</ele><time>2026-05-02T13:35:08.002Z</time></trkpt><trkpt lat="43.29571650856896" lon="11.535988184709462"><ele>311.0</ele><time>2026-05-02T13:35:09.002Z</time></trkpt><trkpt lat="43.29576693260781" lon="11.535822783086704"><ele>315.0</ele><time>2026-05-02T13:35:10.002Z</time></trkpt><trkpt lat="43.29580229510823" lon="11.53565892639914"><ele>319.0</ele><time>2026-05-02T13:35:11.002Z</time></trkpt><trkpt lat="43.295821760046884" lon="11.535466600468435"><ele>323.0</ele><time>2026-05-02T13:35:12.002Z</time></trkpt><trkpt lat="43.29583370436194" lon="11.535268716206486"><ele>323.79999999999995</ele><time>2026-05-02T13:35:13.002Z</time></trkpt><trkpt lat="43.295843043937" lon="11.535108935666987"><ele>324.6</ele><time>2026-05-02T13:35:14.002Z</time></trkpt><trkpt lat="43.295853199049944" lon="11.534978324139972"><ele>325.4</ele><time>2026-05-02T13:35:15.002Z</time></trkpt><trkpt lat="43.29585261699684" lon="11.534862668312318"><ele>326.20000000000005</ele><time>2026-05-02T13:35:16.002Z</time></trkpt><trkpt lat="43.29582860943593" lon="11.534764113664009"><ele>327.0</ele><time>2026-05-02T13:35:17.002Z</time></trkpt><trkpt lat="43.2957826931768" lon="11.534670978769991"><ele>327.0</ele><time>2026-05-02T13:35:18.002Z</time></trkpt><trkpt lat="43.29571128137318" lon="11.53459575049842"><ele>327.0</ele><time>2026-05-02T13:35:19.002Z</time></trkpt><trkpt lat="43.29562464157554" lon="11.534532074286748"><ele>327.0</ele><time>2026-05-02T13:35:20.002Z</time></trkpt><trkpt lat="43.29553989250411" lon="11.534481340823536"><ele>327.0</ele><time>2026-05-02T13:35:21.003Z</time></trkpt><trkpt lat="43.29546378602529" lon="11.534425624111888"><ele>327.0</ele><time>2026-05-02T13:35:22.003Z</time></trkpt><trkpt lat="43.295392073862786" lon="11.534368695948856"><ele>327.5</ele><time>2026-05-02T13:35:23.003Z</time></trkpt><trkpt lat="43.29532161080838" lon="11.534304745747992"><ele>328.0</ele><time>2026-05-02T13:35:24.003Z</time></trkpt><trkpt lat="43.29525660886218" lon="11.534233570531866"><ele>328.5</ele><time>2026-05-02T13:35:25.003Z</time></trkpt><trkpt lat="43.2951995234997" lon="11.53415068776307"><ele>329.0</ele><time>2026-05-02T13:35:26.003Z</time></trkpt><trkpt lat="43.29513983802931" lon="11.534053613258118"><ele>329.5</ele><time>2026-05-02T13:35:27.003Z</time></trkpt><trkpt lat="43.295071420085236" lon="11.533963224132043"><ele>330.0</ele><time>2026-05-02T13:35:28.003Z</time></trkpt><trkpt lat="43.29498160356571" lon="11.533888026105751"><ele>330.0</ele><time>2026-05-02T13:35:29.003Z</time></trkpt><trkpt lat="43.294846519099885" lon="11.533821506588334"><ele>330.0</ele><time>2026-05-02T13:35:30.003Z</time></trkpt><trkpt lat="43.29472857143156" lon="11.533747626137611"><ele>330.0</ele><time>2026-05-02T13:35:31.003Z</time></trkpt><trkpt lat="43.294639838648436" lon="11.53368992958475"><ele>330.0</ele><time>2026-05-02T13:35:32.003Z</time></trkpt><trkpt lat="43.294568046456405" lon="11.533626280296282"><ele>329.0</ele><time>2026-05-02T13:35:33.003Z</time></trkpt><trkpt lat="43.294514763995586" lon="11.53356165557325"><ele>328.0</ele><time>2026-05-02T13:35:34.003Z</time></trkpt><trkpt lat="43.29447571765081" lon="11.533443088491502"><ele>327.0</ele><time>2026-05-02T13:35:35.003Z</time></trkpt><trkpt lat="43.294483129179504" lon="11.533301467027323"><ele>326.0</ele><time>2026-05-02T13:35:36.003Z</time></trkpt><trkpt lat="43.29448563457841" lon="11.533105946397933"><ele>325.0</ele><time>2026-05-02T13:35:37.003Z</time></trkpt><trkpt lat="43.29445836938641" lon="11.53288743472231"><ele>325.0</ele><time>2026-05-02T13:35:38.003Z</time></trkpt><trkpt lat="43.29446922265118" lon="11.532686135651982"><ele>325.0</ele><time>2026-05-02T13:35:39.003Z</time></trkpt><trkpt lat="43.29448837411054" lon="11.532492664096763"><ele>325.0</ele><time>2026-05-02T13:35:40.003Z</time></trkpt><trkpt lat="43.29452279392403" lon="11.532323020990601"><ele>325.0</ele><time>2026-05-02T13:35:41.003Z</time></trkpt><trkpt lat="43.29457656466189" lon="11.532157286201356"><ele>325.5</ele><time>2026-05-02T13:35:42.003Z</time></trkpt><trkpt lat="43.29462697385622" lon="11.531992491481756"><ele>326.0</ele><time>2026-05-02T13:35:43.003Z</time></trkpt><trkpt lat="43.29469271904941" lon="11.531832169572766"><ele>326.5</ele><time>2026-05-02T13:35:44.003Z</time></trkpt><trkpt lat="43.2947580711653" lon="11.531694837145102"><ele>327.0</ele><time>2026-05-02T13:35:45.003Z</time></trkpt><trkpt lat="43.29482650869159" lon="11.5315663641007"><ele>325.6</ele><time>2026-05-02T13:35:46.003Z</time></trkpt><trkpt lat="43.294898148929505" lon="11.53143156818201"><ele>324.20000000000005</ele><time>2026-05-02T13:35:47.003Z</time></trkpt><trkpt lat="43.29496789173094" lon="11.531323387562983"><ele>322.8</ele><time>2026-05-02T13:35:48Z</time></trkpt><trkpt lat="43.295017877652946" lon="11.531208937221072"><ele>321.4</ele><time>2026-05-02T13:35:49Z</time></trkpt><trkpt lat="43.295087852029646" lon="11.531125719518801"><ele>320.0</ele><time>2026-05-02T13:35:50Z</time></trkpt><trkpt lat="43.29516118380597" lon="11.531025188291228"><ele>320.0</ele><time>2026-05-02T13:35:51Z</time></trkpt><trkpt lat="43.29524959659407" lon="11.53093953972131"><ele>320.0</ele><time>2026-05-02T13:35:52Z</time></trkpt><trkpt lat="43.295353673882744" lon="11.530852028733305"><ele>320.0</ele><time>2026-05-02T13:35:53Z</time></trkpt><trkpt lat="43.29545282403901" lon="11.53077903442599"><ele>320.0</ele><time>2026-05-02T13:35:54Z</time></trkpt><trkpt lat="43.29554945554194" lon="11.530715217905788"><ele>316.25</ele><time>2026-05-02T13:35:55Z</time></trkpt><trkpt lat="43.29565489011522" lon="11.530627397479108"><ele>312.5</ele><time>2026-05-02T13:35:56Z</time></trkpt><trkpt lat="43.295776185922" lon="11.530576227170348"><ele>308.75</ele><time>2026-05-02T13:35:57Z</time></trkpt><trkpt lat="43.29589353074378" lon="11.530522350104707"><ele>305.0</ele><time>2026-05-02T13:35:58Z</time></trkpt><trkpt lat="43.29599839372566" lon="11.530480391980637"><ele>305.0</ele><time>2026-05-02T13:35:59Z</time></trkpt><trkpt lat="43.29610325116621" lon="11.530439350078835"><ele>305.0</ele><time>2026-05-02T13:36:00Z</time></trkpt><trkpt lat="43.29621100289262" lon="11.530392019449264"><ele>305.0</ele><time>2026-05-02T13:36:01Z</time></trkpt><trkpt lat="43.29632013443962" lon="11.53035037593195"><ele>305.0</ele><time>2026-05-02T13:36:02Z</time></trkpt><trkpt lat="43.29642389138086" lon="11.530311680619777"><ele>305.0</ele><time>2026-05-02T13:36:03Z</time></trkpt><trkpt lat="43.2965100507094" lon="11.530276851786299"><ele>303.7142857142857</ele><time>2026-05-02T13:36:04Z</time></trkpt><trkpt lat="43.29657686743295" lon="11.53022774227042"><ele>302.4285714285714</ele><time>2026-05-02T13:36:05Z</time></trkpt><trkpt lat="43.29663102555484" lon="11.530164995674397"><ele>301.1428571428571</ele><time>2026-05-02T13:36:06Z</time></trkpt><trkpt lat="43.296661120256026" lon="11.53008717465085"><ele>299.8571428571429</ele><time>2026-05-02T13:36:07Z</time></trkpt><trkpt lat="43.29666338016235" lon="11.529986201944281"><ele>298.57142857142856</ele><time>2026-05-02T13:36:08Z</time></trkpt><trkpt lat="43.29663671797688" lon="11.529888658062555"><ele>297.2857142857143</ele><time>2026-05-02T13:36:09Z</time></trkpt><trkpt lat="43.29658284018212" lon="11.529805954379347"><ele>296.0</ele><time>2026-05-02T13:36:10Z</time></trkpt><trkpt lat="43.29649971734352" lon="11.529757032702197"><ele>299.0</ele><time>2026-05-02T13:36:11Z</time></trkpt><trkpt lat="43.29637899687277" lon="11.529704835693154"><ele>302.0</ele><time>2026-05-02T13:36:12Z</time></trkpt><trkpt lat="43.296233966030805" lon="11.529644715552562"><ele>305.0</ele><time>2026-05-02T13:36:13Z</time></trkpt><trkpt lat="43.296089779195796" lon="11.529598570048064"><ele>308.0</ele><time>2026-05-02T13:36:14Z</time></trkpt><trkpt lat="43.29596761505033" lon="11.529578570881018"><ele>305.25</ele><time>2026-05-02T13:36:15Z</time></trkpt><trkpt lat="43.295867575117825" lon="11.52951051299357"><ele>302.5</ele><time>2026-05-02T13:36:16Z</time></trkpt><trkpt lat="43.295747109166236" lon="11.529413109424333"><ele>299.75</ele><time>2026-05-02T13:36:17Z</time></trkpt><trkpt lat="43.29561105830274" lon="11.529319723797292"><ele>297.0</ele><time>2026-05-02T13:36:18Z</time></trkpt><trkpt lat="43.29549635395672" lon="11.52927922262077"><ele>297.0</ele><time>2026-05-02T13:36:19Z</time></trkpt><trkpt lat="43.29541385764381" lon="11.529256062946697"><ele>297.0</ele><time>2026-05-02T13:36:20Z</time></trkpt><trkpt lat="43.29535780479322" lon="11.529197870865254"><ele>297.0</ele><time>2026-05-02T13:36:21Z</time></trkpt><trkpt lat="43.295294569926185" lon="11.529083113329953"><ele>297.0</ele><time>2026-05-02T13:36:23.001Z</time></trkpt><trkpt lat="43.295314088144124" lon="11.528988631436505"><ele>297.0</ele><time>2026-05-02T13:36:24.001Z</time></trkpt><trkpt lat="43.295377226619834" lon="11.528905813508231"><ele>297.0</ele><time>2026-05-02T13:36:25.001Z</time></trkpt><trkpt lat="43.29548046498849" lon="11.528850630267305"><ele>297.0</ele><time>2026-05-02T13:36:26.001Z</time></trkpt><trkpt lat="43.29558537012138" lon="11.528774588016137"><ele>297.0</ele><time>2026-05-02T13:36:27.001Z</time></trkpt><trkpt lat="43.295677516498415" lon="11.528684324636792"><ele>297.0</ele><time>2026-05-02T13:36:28.001Z</time></trkpt><trkpt lat="43.29576243929051" lon="11.528616476933909"><ele>297.0</ele><time>2026-05-02T13:36:29.001Z</time></trkpt><trkpt lat="43.295831634140825" lon="11.528530297259662"><ele>297.0</ele><time>2026-05-02T13:36:30.001Z</time></trkpt><trkpt lat="43.29588833055407" lon="11.52841294656553"><ele>295.75</ele><time>2026-05-02T13:36:31.001Z</time></trkpt><trkpt lat="43.29592340467732" lon="11.52827559382811"><ele>294.5</ele><time>2026-05-02T13:36:32.001Z</time></trkpt><trkpt lat="43.295941398965994" lon="11.528096312109893"><ele>293.25</ele><time>2026-05-02T13:36:33.001Z</time></trkpt><trkpt lat="43.29595653903762" lon="11.527862594029287"><ele>292.0</ele><time>2026-05-02T13:36:34.001Z</time></trkpt><trkpt lat="43.29597781109632" lon="11.527614747350528"><ele>292.0</ele><time>2026-05-02T13:36:35.001Z</time></trkpt><trkpt lat="43.296011904308315" lon="11.527395649749446"><ele>292.0</ele><time>2026-05-02T13:36:36.001Z</time></trkpt><trkpt lat="43.29604171204984" lon="11.527226718589572"><ele>292.0</ele><time>2026-05-02T13:36:37.001Z</time></trkpt><trkpt lat="43.29609219286594" lon="11.527065157217228"><ele>292.0</ele><time>2026-05-02T13:36:38.001Z</time></trkpt><trkpt lat="43.2961730111897" lon="11.526888794843131"><ele>291.0</ele><time>2026-05-02T13:36:39.001Z</time></trkpt><trkpt lat="43.29629910117842" lon="11.526717345470482"><ele>290.0</ele><time>2026-05-02T13:36:40.001Z</time></trkpt><trkpt lat="43.29640830773467" lon="11.526511057337512"><ele>289.0</ele><time>2026-05-02T13:36:41.001Z</time></trkpt><trkpt lat="43.29650756503073" lon="11.526359069235776"><ele>289.0</ele><time>2026-05-02T13:36:42.001Z</time></trkpt><trkpt lat="43.29659673956718" lon="11.52624618227687"><ele>289.0</ele><time>2026-05-02T13:36:43.001Z</time></trkpt><trkpt lat="43.296685757711224" lon="11.526153725042441"><ele>289.0</ele><time>2026-05-02T13:36:44.001Z</time></trkpt><trkpt lat="43.29674842952825" lon="11.526075673197216"><ele>289.0</ele><time>2026-05-02T13:36:45.001Z</time></trkpt><trkpt lat="43.296788969676854" lon="11.525951862721792"><ele>289.0</ele><time>2026-05-02T13:36:46.001Z</time></trkpt><trkpt lat="43.29679021542439" lon="11.525785310392793"><ele>289.0</ele><time>2026-05-02T13:36:47.001Z</time></trkpt><trkpt lat="43.2967603762262" lon="11.525591324975396"><ele>289.0</ele><time>2026-05-02T13:36:48.001Z</time></trkpt><trkpt lat="43.29674351966373" lon="11.525375796898556"><ele>289.0</ele><time>2026-05-02T13:36:49.001Z</time></trkpt><trkpt lat="43.296781424190435" lon="11.525168341749222"><ele>289.75</ele><time>2026-05-02T13:36:50.001Z</time></trkpt><trkpt lat="43.296781160083874" lon="11.524978166109962"><ele>290.5</ele><time>2026-05-02T13:36:51.001Z</time></trkpt><trkpt lat="43.29671690809368" lon="11.524807515194905"><ele>291.25</ele><time>2026-05-02T13:36:52.001Z</time></trkpt><trkpt lat="43.29665413976972" lon="11.524653152971263"><ele>292.0</ele><time>2026-05-02T13:36:53.001Z</time></trkpt><trkpt lat="43.296594857229" lon="11.524508387998125"><ele>294.5</ele><time>2026-05-02T13:36:54.001Z</time></trkpt><trkpt lat="43.29658044909673" lon="11.524329165704312"><ele>297.0</ele><time>2026-05-02T13:36:55.002Z</time></trkpt><trkpt lat="43.296559348691616" lon="11.524135891819318"><ele>299.5</ele><time>2026-05-02T13:36:56.002Z</time></trkpt><trkpt lat="43.29652669707309" lon="11.523935299399646"><ele>302.0</ele><time>2026-05-02T13:36:57.002Z</time></trkpt><trkpt lat="43.29648540520174" lon="11.52375559129597"><ele>303.25</ele><time>2026-05-02T13:36:58.002Z</time></trkpt><trkpt lat="43.29646468991119" lon="11.523591543859036"><ele>304.5</ele><time>2026-05-02T13:36:59.002Z</time></trkpt><trkpt lat="43.296443817459355" lon="11.52341915246515"><ele>305.75</ele><time>2026-05-02T13:37:00.002Z</time></trkpt><trkpt lat="43.29642906629447" lon="11.523233745977766"><ele>307.0</ele><time>2026-05-02T13:37:01.002Z</time></trkpt><trkpt lat="43.296422137204715" lon="11.523045958548261"><ele>306.8</ele><time>2026-05-02T13:37:02.002Z</time></trkpt><trkpt lat="43.296424640628416" lon="11.522878146696756"><ele>306.6</ele><time>2026-05-02T13:37:03.002Z</time></trkpt><trkpt lat="43.29643375773012" lon="11.522744809985722"><ele>306.40000000000003</ele><time>2026-05-02T13:37:04.002Z</time></trkpt><trkpt lat="43.296466882671666" lon="11.522615928092751"><ele>306.2</ele><time>2026-05-02T13:37:05.002Z</time></trkpt><trkpt lat="43.29651599868666" lon="11.52247539806508"><ele>306.0</ele><time>2026-05-02T13:37:06.002Z</time></trkpt><trkpt lat="43.296618911623746" lon="11.522345115026253"><ele>306.0</ele><time>2026-05-02T13:37:07.002Z</time></trkpt><trkpt lat="43.296669347447676" lon="11.522198942637404"><ele>306.0</ele><time>2026-05-02T13:37:08.002Z</time></trkpt><trkpt lat="43.296715102505914" lon="11.522039177691441"><ele>306.0</ele><time>2026-05-02T13:37:09.002Z</time></trkpt><trkpt lat="43.29673060228594" lon="11.521893417075226"><ele>306.0</ele><time>2026-05-02T13:37:10.002Z</time></trkpt><trkpt lat="43.29674188545049" lon="11.521773187351089"><ele>306.0</ele><time>2026-05-02T13:37:11.002Z</time></trkpt><trkpt lat="43.29676768191312" lon="11.521668820259732"><ele>305.6</ele><time>2026-05-02T13:37:12.002Z</time></trkpt><trkpt lat="43.296819601068925" lon="11.521587465737346"><ele>305.20000000000005</ele><time>2026-05-02T13:37:13.002Z</time></trkpt><trkpt lat="43.2969058872896" lon="11.521514315157123"><ele>304.79999999999995</ele><time>2026-05-02T13:37:14.002Z</time></trkpt><trkpt lat="43.29703378047267" lon="11.52146114877991"><ele>304.4</ele><time>2026-05-02T13:37:15.002Z</time></trkpt><trkpt lat="43.297154966421054" lon="11.521383673378235"><ele>304.0</ele><time>2026-05-02T13:37:16.002Z</time></trkpt><trkpt lat="43.29726597481175" lon="11.521353462591962"><ele>304.0</ele><time>2026-05-02T13:37:17.002Z</time></trkpt><trkpt lat="43.29736783288412" lon="11.52134167774436"><ele>304.0</ele><time>2026-05-02T13:37:18.002Z</time></trkpt><trkpt lat="43.297469783435176" lon="11.521357475163649"><ele>304.0</ele><time>2026-05-02T13:37:19.002Z</time></trkpt><trkpt lat="43.29756677080835" lon="11.521398454850475"><ele>304.0</ele><time>2026-05-02T13:37:20.002Z</time></trkpt><trkpt lat="43.29766128402612" lon="11.521494641011914"><ele>304.0</ele><time>2026-05-02T13:37:21.002Z</time></trkpt><trkpt lat="43.29776689344582" lon="11.521599683093571"><ele>304.0</ele><time>2026-05-02T13:37:22.002Z</time></trkpt><trkpt lat="43.29786327817773" lon="11.521711411178652"><ele>304.0</ele><time>2026-05-02T13:37:23.002Z</time></trkpt><trkpt lat="43.29795912309162" lon="11.521796599243801"><ele>304.0</ele><time>2026-05-02T13:37:24.002Z</time></trkpt><trkpt lat="43.29804277940276" lon="11.521941617728505"><ele>304.0</ele><time>2026-05-02T13:37:25.002Z</time></trkpt><trkpt lat="43.29809517181519" lon="11.52210630102803"><ele>304.2</ele><time>2026-05-02T13:37:26.002Z</time></trkpt><trkpt lat="43.298168970960354" lon="11.522218582044204"><ele>304.4</ele><time>2026-05-02T13:37:27.002Z</time></trkpt><trkpt lat="43.2982349014333" lon="11.522293392739137"><ele>304.6</ele><time>2026-05-02T13:37:28.002Z</time></trkpt><trkpt lat="43.29831677872966" lon="11.522351204372749"><ele>304.8</ele><time>2026-05-02T13:37:29.003Z</time></trkpt><trkpt lat="43.29842540796889" lon="11.522328137544996"><ele>305.0</ele><time>2026-05-02T13:37:30.003Z</time></trkpt><trkpt lat="43.298539352781596" lon="11.522288455110852"><ele>305.0</ele><time>2026-05-02T13:37:31.003Z</time></trkpt><trkpt lat="43.29863198723267" lon="11.522255239507771"><ele>305.0</ele><time>2026-05-02T13:37:32.003Z</time></trkpt><trkpt lat="43.298718293202334" lon="11.522283882708232"><ele>305.0</ele><time>2026-05-02T13:37:33.003Z</time></trkpt><trkpt lat="43.298807806207954" lon="11.522407154540279"><ele>305.0</ele><time>2026-05-02T13:37:34.003Z</time></trkpt><trkpt lat="43.29892283126645" lon="11.52251540695138"><ele>303.25</ele><time>2026-05-02T13:37:35.003Z</time></trkpt><trkpt lat="43.29902875569206" lon="11.522547229216888"><ele>301.5</ele><time>2026-05-02T13:37:36.003Z</time></trkpt><trkpt lat="43.29914188337049" lon="11.522549789943302"><ele>299.75</ele><time>2026-05-02T13:37:37.003Z</time></trkpt><trkpt lat="43.299276562505355" lon="11.522528928565912"><ele>298.0</ele><time>2026-05-02T13:37:38.003Z</time></trkpt><trkpt lat="43.299413903475006" lon="11.522489488107036"><ele>298.0</ele><time>2026-05-02T13:37:39.003Z</time></trkpt><trkpt lat="43.29952213020552" lon="11.522433086103215"><ele>298.0</ele><time>2026-05-02T13:37:40.003Z</time></trkpt><trkpt lat="43.29962006009537" lon="11.522360251665903"><ele>298.0</ele><time>2026-05-02T13:37:41.003Z</time></trkpt><trkpt lat="43.29971314143672" lon="11.522286055830264"><ele>298.0</ele><time>2026-05-02T13:37:42.003Z</time></trkpt><trkpt lat="43.29982107139192" lon="11.522254021316513"><ele>298.0</ele><time>2026-05-02T13:37:43.003Z</time></trkpt><trkpt lat="43.299935517929285" lon="11.522237857486719"><ele>298.25</ele><time>2026-05-02T13:37:44.003Z</time></trkpt><trkpt lat="43.300067370761695" lon="11.522252356632"><ele>298.5</ele><time>2026-05-02T13:37:45.003Z</time></trkpt><trkpt lat="43.30020539504409" lon="11.522283795533554"><ele>298.75</ele><time>2026-05-02T13:37:46.003Z</time></trkpt><trkpt lat="43.300316159652155" lon="11.52232261573889"><ele>299.0</ele><time>2026-05-02T13:37:47.003Z</time></trkpt><trkpt lat="43.30041468594609" lon="11.522372531932128"><ele>299.0</ele><time>2026-05-02T13:37:48.003Z</time></trkpt><trkpt lat="43.300539664567054" lon="11.522414751885973"><ele>299.0</ele><time>2026-05-02T13:37:49.003Z</time></trkpt><trkpt lat="43.30066906521144" lon="11.522478525948456"><ele>299.0</ele><time>2026-05-02T13:37:50.003Z</time></trkpt><trkpt lat="43.300804864697945" lon="11.522521392947542"><ele>299.0</ele><time>2026-05-02T13:37:51.003Z</time></trkpt><trkpt lat="43.300937544514674" lon="11.522558267382344"><ele>297.75</ele><time>2026-05-02T13:37:52.003Z</time></trkpt><trkpt lat="43.30106603366964" lon="11.522603291474892"><ele>296.5</ele><time>2026-05-02T13:37:53.003Z</time></trkpt><trkpt lat="43.30117907429389" lon="11.522652385162878"><ele>295.25</ele><time>2026-05-02T13:37:54Z</time></trkpt><trkpt lat="43.30127103035827" lon="11.522733832071655"><ele>294.0</ele><time>2026-05-02T13:37:55Z</time></trkpt><trkpt lat="43.30137141140715" lon="11.522800389321961"><ele>293.0</ele><time>2026-05-02T13:37:56Z</time></trkpt><trkpt lat="43.3014880004607" lon="11.52284542410516"><ele>292.0</ele><time>2026-05-02T13:37:57Z</time></trkpt><trkpt lat="43.30161226798922" lon="11.52288990765017"><ele>291.0</ele><time>2026-05-02T13:37:58Z</time></trkpt><trkpt lat="43.30173811082955" lon="11.52291372656016"><ele>290.0</ele><time>2026-05-02T13:37:59Z</time></trkpt><trkpt lat="43.30184754326406" lon="11.522922187514359"><ele>290.4</ele><time>2026-05-02T13:38:00Z</time></trkpt><trkpt lat="43.30195309469333" lon="11.522934925711667"><ele>290.8</ele><time>2026-05-02T13:38:01Z</time></trkpt><trkpt lat="43.302055618192824" lon="11.522948863231553"><ele>291.2</ele><time>2026-05-02T13:38:02Z</time></trkpt><trkpt lat="43.302141793693785" lon="11.522950030070467"><ele>291.6</ele><time>2026-05-02T13:38:03Z</time></trkpt><trkpt lat="43.30224135619309" lon="11.52292288556284"><ele>292.0</ele><time>2026-05-02T13:38:04Z</time></trkpt><trkpt lat="43.302360654688506" lon="11.52287195099438"><ele>292.0</ele><time>2026-05-02T13:38:05Z</time></trkpt><trkpt lat="43.30251965915544" lon="11.522798551205163"><ele>292.0</ele><time>2026-05-02T13:38:06Z</time></trkpt><trkpt lat="43.302671800386136" lon="11.522744809109428"><ele>292.0</ele><time>2026-05-02T13:38:07Z</time></trkpt><trkpt lat="43.302797609440645" lon="11.522702147751765"><ele>292.0</ele><time>2026-05-02T13:38:08Z</time></trkpt><trkpt lat="43.30291369130532" lon="11.522680856274764"><ele>292.0</ele><time>2026-05-02T13:38:09Z</time></trkpt><trkpt lat="43.30303213781451" lon="11.522677333045786"><ele>292.0</ele><time>2026-05-02T13:38:10Z</time></trkpt><trkpt lat="43.303149538441076" lon="11.522690116554678"><ele>292.0</ele><time>2026-05-02T13:38:11Z</time></trkpt><trkpt lat="43.303254896638556" lon="11.522711167075052"><ele>291.25</ele><time>2026-05-02T13:38:12Z</time></trkpt><trkpt lat="43.303345154568376" lon="11.522771542974908"><ele>290.5</ele><time>2026-05-02T13:38:13Z</time></trkpt><trkpt lat="43.30341494248431" lon="11.522881434759237"><ele>289.75</ele><time>2026-05-02T13:38:14Z</time></trkpt><trkpt lat="43.303498849664344" lon="11.523014753685175"><ele>289.0</ele><time>2026-05-02T13:38:15Z</time></trkpt><trkpt lat="43.30359999870684" lon="11.523187106959465"><ele>290.25</ele><time>2026-05-02T13:38:16Z</time></trkpt><trkpt lat="43.30370534308287" lon="11.523375400143582"><ele>291.5</ele><time>2026-05-02T13:38:17Z</time></trkpt><trkpt lat="43.30379527393938" lon="11.523531106463281"><ele>292.75</ele><time>2026-05-02T13:38:18Z</time></trkpt><trkpt lat="43.303871371258936" lon="11.523664686364796"><ele>294.0</ele><time>2026-05-02T13:38:19Z</time></trkpt><trkpt lat="43.303936416434844" lon="11.523758142819883"><ele>294.0</ele><time>2026-05-02T13:38:20Z</time></trkpt><trkpt lat="43.30400862238772" lon="11.523832354934143"><ele>294.0</ele><time>2026-05-02T13:38:21Z</time></trkpt><trkpt lat="43.30408518491331" lon="11.523875471851827"><ele>294.0</ele><time>2026-05-02T13:38:22.001Z</time></trkpt><trkpt lat="43.30418275996806" lon="11.523880822338214"><ele>294.0</ele><time>2026-05-02T13:38:23.001Z</time></trkpt><trkpt lat="43.30428786357628" lon="11.523854408039798"><ele>294.0</ele><time>2026-05-02T13:38:24.001Z</time></trkpt><trkpt lat="43.30437544400013" lon="11.523784163771516"><ele>294.0</ele><time>2026-05-02T13:38:25.001Z</time></trkpt><trkpt lat="43.30446129188742" lon="11.52368263858911"><ele>294.0</ele><time>2026-05-02T13:38:26.001Z</time></trkpt><trkpt lat="43.30454206889754" lon="11.52355670623791"><ele>294.0</ele><time>2026-05-02T13:38:27.001Z</time></trkpt><trkpt lat="43.30461129029143" lon="11.523420567000505"><ele>294.0</ele><time>2026-05-02T13:38:28.001Z</time></trkpt><trkpt lat="43.30468595578874" lon="11.523340814730947"><ele>294.0</ele><time>2026-05-02T13:38:29.001Z</time></trkpt><trkpt lat="43.30474455438763" lon="11.523277508547789"><ele>294.0</ele><time>2026-05-02T13:38:30.001Z</time></trkpt><trkpt lat="43.30482296665246" lon="11.523221685994098"><ele>294.0</ele><time>2026-05-02T13:38:31.001Z</time></trkpt><trkpt lat="43.30492868073193" lon="11.523144683669857"><ele>294.0</ele><time>2026-05-02T13:38:32.001Z</time></trkpt><trkpt lat="43.30504236421253" lon="11.523065855173128"><ele>294.0</ele><time>2026-05-02T13:38:33.001Z</time></trkpt><trkpt lat="43.30516742229536" lon="11.52299395090245"><ele>296.0</ele><time>2026-05-02T13:38:34.001Z</time></trkpt><trkpt lat="43.30530183798433" lon="11.522928169263443"><ele>298.0</ele><time>2026-05-02T13:38:35.001Z</time></trkpt><trkpt lat="43.30543204626171" lon="11.52286608189651"><ele>300.0</ele><time>2026-05-02T13:38:36.001Z</time></trkpt><trkpt lat="43.305551504651355" lon="11.522805307925507"><ele>302.0</ele><time>2026-05-02T13:38:37.001Z</time></trkpt><trkpt lat="43.305650645361865" lon="11.522801471346956"><ele>304.4</ele><time>2026-05-02T13:38:38.001Z</time></trkpt><trkpt lat="43.30572479240734" lon="11.522800646013698"><ele>306.79999999999995</ele><time>2026-05-02T13:38:39.001Z</time></trkpt><trkpt lat="43.305812629744395" lon="11.522832905739989"><ele>309.2</ele><time>2026-05-02T13:38:40.001Z</time></trkpt><trkpt lat="43.30592723198311" lon="11.522881679213295"><ele>311.59999999999997</ele><time>2026-05-02T13:38:41.001Z</time></trkpt><trkpt lat="43.30606638584776" lon="11.52294506977823"><ele>314.0</ele><time>2026-05-02T13:38:42.001Z</time></trkpt><trkpt lat="43.30622366613179" lon="11.523003607823963"><ele>315.33333333333337</ele><time>2026-05-02T13:38:43.001Z</time></trkpt><trkpt lat="43.30638707256175" lon="11.52301725272131"><ele>316.6666666666667</ele><time>2026-05-02T13:38:44.001Z</time></trkpt><trkpt lat="43.30654574215197" lon="11.523036429756194"><ele>318.0</ele><time>2026-05-02T13:38:45.001Z</time></trkpt><trkpt lat="43.30669238436482" lon="11.523072050820454"><ele>319.75</ele><time>2026-05-02T13:38:46.001Z</time></trkpt><trkpt lat="43.30682179088894" lon="11.523083474629008"><ele>321.5</ele><time>2026-05-02T13:38:47.001Z</time></trkpt><trkpt lat="43.30694814266987" lon="11.523091115017298"><ele>323.25</ele><time>2026-05-02T13:38:48.001Z</time></trkpt><trkpt lat="43.30708211116686" lon="11.523095743851798"><ele>325.0</ele><time>2026-05-02T13:38:49.001Z</time></trkpt><trkpt lat="43.3072063346813" lon="11.523098597101813"><ele>325.2</ele><time>2026-05-02T13:38:50.001Z</time></trkpt><trkpt lat="43.307320744615716" lon="11.523089496226472"><ele>325.4</ele><time>2026-05-02T13:38:51.001Z</time></trkpt><trkpt lat="43.3074170030483" lon="11.523139894655522"><ele>325.6</ele><time>2026-05-02T13:38:52.001Z</time></trkpt><trkpt lat="43.30749477540151" lon="11.523190068566509"><ele>325.8</ele><time>2026-05-02T13:38:53.001Z</time></trkpt><trkpt lat="43.30757684096855" lon="11.523220234316303"><ele>326.0</ele><time>2026-05-02T13:38:54.001Z</time></trkpt><trkpt lat="43.30765393916692" lon="11.523311796754449"><ele>326.0</ele><time>2026-05-02T13:38:55.002Z</time></trkpt><trkpt lat="43.30772280635129" lon="11.52341362026989"><ele>326.0</ele><time>2026-05-02T13:38:56.002Z</time></trkpt><trkpt lat="43.30783371424168" lon="11.523507269611656"><ele>326.0</ele><time>2026-05-02T13:38:57.002Z</time></trkpt><trkpt lat="43.30793720977128" lon="11.523626642815714"><ele>326.0</ele><time>2026-05-02T13:38:58.002Z</time></trkpt><trkpt lat="43.308045114559306" lon="11.523713788829973"><ele>326.0</ele><time>2026-05-02T13:38:59.002Z</time></trkpt><trkpt lat="43.30814495259086" lon="11.523787230793838"><ele>326.0</ele><time>2026-05-02T13:39:00.002Z</time></trkpt><trkpt lat="43.30823754448341" lon="11.52385396874806"><ele>326.0</ele><time>2026-05-02T13:39:01.002Z</time></trkpt><trkpt lat="43.308317916513595" lon="11.523916072761764"><ele>326.0</ele><time>2026-05-02T13:39:02.002Z</time></trkpt><trkpt lat="43.30839359833521" lon="11.523962749801667"><ele>326.0</ele><time>2026-05-02T13:39:03.002Z</time></trkpt><trkpt lat="43.308461508709264" lon="11.524026417087029"><ele>326.0</ele><time>2026-05-02T13:39:04.002Z</time></trkpt><trkpt lat="43.30850970389309" lon="11.5241183968125"><ele>326.0</ele><time>2026-05-02T13:39:05.002Z</time></trkpt><trkpt lat="43.30855786808521" lon="11.524197277319866"><ele>326.0</ele><time>2026-05-02T13:39:06.002Z</time></trkpt><trkpt lat="43.30862862122929" lon="11.524314513537771"><ele>326.0</ele><time>2026-05-02T13:39:08.002Z</time></trkpt><trkpt lat="43.30868380344428" lon="11.524397013638868"><ele>326.0</ele><time>2026-05-02T13:39:10.002Z</time></trkpt><trkpt lat="43.30872664807349" lon="11.524469783572231"><ele>326.0</ele><time>2026-05-02T13:39:12.002Z</time></trkpt></trkseg><trkseg><trkpt lat="43.30881330759108" lon="11.524509219438256"><ele>326.0</ele><time>2026-05-02T13:53:49.001Z</time></trkpt><trkpt lat="43.3088660647635" lon="11.52442690832034"><ele>326.0</ele><time>2026-05-02T13:53:53.001Z</time></trkpt><trkpt lat="43.308858726136364" lon="11.524298202381141"><ele>326.0</ele><time>2026-05-02T13:54:02.001Z</time></trkpt><trkpt lat="43.308875304245085" lon="11.524204935731198"><ele>326.0</ele><time>2026-05-02T13:54:03.001Z</time></trkpt><trkpt lat="43.30889869812675" lon="11.524108815664775"><ele>326.0</ele><time>2026-05-02T13:54:04.001Z</time></trkpt><trkpt lat="43.308918414005596" lon="11.524004783980542"><ele>326.0</ele><time>2026-05-02T13:54:05.001Z</time></trkpt><trkpt lat="43.30892550220954" lon="11.523894436851103"><ele>326.20000000000005</ele><time>2026-05-02T13:54:06.001Z</time></trkpt><trkpt lat="43.30892027772273" lon="11.523777877196537"><ele>326.40000000000003</ele><time>2026-05-02T13:54:07.001Z</time></trkpt><trkpt lat="43.3089089703371" lon="11.523648552297152"><ele>326.6</ele><time>2026-05-02T13:54:08.001Z</time></trkpt><trkpt lat="43.308876755261" lon="11.523516120657606"><ele>326.8</ele><time>2026-05-02T13:54:09.001Z</time></trkpt><trkpt lat="43.308853140988425" lon="11.523394154804945"><ele>327.0</ele><time>2026-05-02T13:54:10.001Z</time></trkpt><trkpt lat="43.30885633833586" lon="11.523281586210803"><ele>327.0</ele><time>2026-05-02T13:54:11.001Z</time></trkpt><trkpt lat="43.308905363393116" lon="11.52317253559034"><ele>327.0</ele><time>2026-05-02T13:54:12.001Z</time></trkpt><trkpt lat="43.30897420545078" lon="11.5230786709013"><ele>327.0</ele><time>2026-05-02T13:54:13.001Z</time></trkpt><trkpt lat="43.30906222893349" lon="11.52297515356346"><ele>327.0</ele><time>2026-05-02T13:54:14.001Z</time></trkpt><trkpt lat="43.30916568440841" lon="11.522868244847738"><ele>327.0</ele><time>2026-05-02T13:54:15.001Z</time></trkpt><trkpt lat="43.309284469987034" lon="11.522775414575037"><ele>322.75</ele><time>2026-05-02T13:54:16.001Z</time></trkpt><trkpt lat="43.30941414456184" lon="11.522693067806129"><ele>318.5</ele><time>2026-05-02T13:54:17.001Z</time></trkpt><trkpt lat="43.30953054696931" lon="11.522600068064316"><ele>314.25</ele><time>2026-05-02T13:54:18.001Z</time></trkpt><trkpt lat="43.309649279490074" lon="11.522520508595969"><ele>310.0</ele><time>2026-05-02T13:54:19.001Z</time></trkpt><trkpt lat="43.30975091519638" lon="11.52240946332586"><ele>309.25</ele><time>2026-05-02T13:54:20.002Z</time></trkpt><trkpt lat="43.30983186095854" lon="11.522279782090251"><ele>308.5</ele><time>2026-05-02T13:54:21.002Z</time></trkpt><trkpt lat="43.30988256287718" lon="11.522124286127049"><ele>307.75</ele><time>2026-05-02T13:54:22.002Z</time></trkpt><trkpt lat="43.30990523661921" lon="11.521948396576363"><ele>307.0</ele><time>2026-05-02T13:54:23.002Z</time></trkpt><trkpt lat="43.30989560286157" lon="11.521767112978592"><ele>306.5</ele><time>2026-05-02T13:54:24.002Z</time></trkpt><trkpt lat="43.30985873305639" lon="11.521579750904264"><ele>306.0</ele><time>2026-05-02T13:54:25.002Z</time></trkpt><trkpt lat="43.30979802149194" lon="11.521396258289878"><ele>305.5</ele><time>2026-05-02T13:54:26.002Z</time></trkpt><trkpt lat="43.30973525838777" lon="11.521201866128022"><ele>305.0</ele><time>2026-05-02T13:54:27.002Z</time></trkpt><trkpt lat="43.309700755044716" lon="11.5209900434938"><ele>302.75</ele><time>2026-05-02T13:54:28.002Z</time></trkpt><trkpt lat="43.309688950695" lon="11.520789123307303"><ele>300.5</ele><time>2026-05-02T13:54:29.002Z</time></trkpt><trkpt lat="43.30967637741636" lon="11.520603668185911"><ele>298.25</ele><time>2026-05-02T13:54:30.002Z</time></trkpt><trkpt lat="43.309664674836725" lon="11.520426559877729"><ele>296.0</ele><time>2026-05-02T13:54:31.002Z</time></trkpt><trkpt lat="43.3096555095736" lon="11.52025658787473"><ele>296.0</ele><time>2026-05-02T13:54:32.002Z</time></trkpt><trkpt lat="43.309650581271605" lon="11.520081308597709"><ele>296.0</ele><time>2026-05-02T13:54:33.002Z</time></trkpt><trkpt lat="43.309653979894314" lon="11.519912673587276"><ele>296.0</ele><time>2026-05-02T13:54:34.002Z</time></trkpt><trkpt lat="43.309669949807585" lon="11.519757463730729"><ele>296.0</ele><time>2026-05-02T13:54:35.002Z</time></trkpt><trkpt lat="43.30970523046795" lon="11.519618086420877"><ele>296.0</ele><time>2026-05-02T13:54:36.002Z</time></trkpt><trkpt lat="43.309755123701414" lon="11.519494639764241"><ele>296.0</ele><time>2026-05-02T13:54:37.002Z</time></trkpt><trkpt lat="43.30980280556322" lon="11.519370464528068"><ele>296.0</ele><time>2026-05-02T13:54:38.002Z</time></trkpt><trkpt lat="43.30985438759741" lon="11.5192308325279"><ele>296.0</ele><time>2026-05-02T13:54:39.002Z</time></trkpt><trkpt lat="43.30990251007706" lon="11.519088094429208"><ele>296.0</ele><time>2026-05-02T13:54:40.002Z</time></trkpt><trkpt lat="43.30995718131916" lon="11.518950177482445"><ele>296.0</ele><time>2026-05-02T13:54:41.002Z</time></trkpt><trkpt lat="43.30996278243126" lon="11.518787366775301"><ele>296.0</ele><time>2026-05-02T13:54:41.998Z</time></trkpt><trkpt lat="43.309955364942866" lon="11.518621804353977"><ele>296.0</ele><time>2026-05-02T13:54:42.998Z</time></trkpt><trkpt lat="43.309936200119424" lon="11.518458877749962"><ele>296.0</ele><time>2026-05-02T13:54:43.998Z</time></trkpt><trkpt lat="43.30988966500798" lon="11.51828762531918"><ele>295.6666666666667</ele><time>2026-05-02T13:54:44.998Z</time></trkpt><trkpt lat="43.30983172654761" lon="11.518111595994919"><ele>295.3333333333333</ele><time>2026-05-02T13:54:45.998Z</time></trkpt><trkpt lat="43.30976053564666" lon="11.517936021719912"><ele>295.0</ele><time>2026-05-02T13:54:46.998Z</time></trkpt><trkpt lat="43.309661021708145" lon="11.51775673476827"><ele>293.3333333333333</ele><time>2026-05-02T13:54:47.998Z</time></trkpt><trkpt lat="43.3095399110543" lon="11.517584034427399"><ele>291.6666666666667</ele><time>2026-05-02T13:54:48.998Z</time></trkpt><trkpt lat="43.30941527883298" lon="11.51743966241865"><ele>290.0</ele><time>2026-05-02T13:54:49.998Z</time></trkpt><trkpt lat="43.309306508244276" lon="11.517318990376072"><ele>290.0</ele><time>2026-05-02T13:54:50.998Z</time></trkpt><trkpt lat="43.30922724021306" lon="11.517195495906295"><ele>290.0</ele><time>2026-05-02T13:54:51.998Z</time></trkpt><trkpt lat="43.30918050008141" lon="11.51705189597023"><ele>290.0</ele><time>2026-05-02T13:54:52.998Z</time></trkpt><trkpt lat="43.309160381969015" lon="11.51690289203488"><ele>290.0</ele><time>2026-05-02T13:54:53.998Z</time></trkpt><trkpt lat="43.309168982580495" lon="11.516749294898801"><ele>291.0</ele><time>2026-05-02T13:54:54.998Z</time></trkpt><trkpt lat="43.30920707739686" lon="11.51661278490182"><ele>292.0</ele><time>2026-05-02T13:54:55.998Z</time></trkpt><trkpt lat="43.309308420846385" lon="11.516516128613073"><ele>293.0</ele><time>2026-05-02T13:54:56.998Z</time></trkpt><trkpt lat="43.30941300824265" lon="11.516388096109457"><ele>294.0</ele><time>2026-05-02T13:54:57.998Z</time></trkpt><trkpt lat="43.3095425811013" lon="11.516211336372715"><ele>295.3333333333333</ele><time>2026-05-02T13:54:58.999Z</time></trkpt><trkpt lat="43.309700257054914" lon="11.516010906642274"><ele>296.66666666666663</ele><time>2026-05-02T13:54:59.999Z</time></trkpt><trkpt lat="43.309843645994775" lon="11.515817170856488"><ele>298.0</ele><time>2026-05-02T13:55:00.999Z</time></trkpt><trkpt lat="43.309978404123484" lon="11.515658913647574"><ele>295.0</ele><time>2026-05-02T13:55:01.999Z</time></trkpt><trkpt lat="43.310112933538065" lon="11.515541236566536"><ele>292.0</ele><time>2026-05-02T13:55:02.999Z</time></trkpt><trkpt lat="43.310258493555324" lon="11.51543773820737"><ele>289.0</ele><time>2026-05-02T13:55:03.999Z</time></trkpt><trkpt lat="43.310427543147" lon="11.51535812793049"><ele>287.0</ele><time>2026-05-02T13:55:04.999Z</time></trkpt><trkpt lat="43.31062933659749" lon="11.515285860497144"><ele>285.0</ele><time>2026-05-02T13:55:05.999Z</time></trkpt><trkpt lat="43.31085350761114" lon="11.515218905342262"><ele>283.0</ele><time>2026-05-02T13:55:06.999Z</time></trkpt><trkpt lat="43.31109282036612" lon="11.515181130857496"><ele>283.0</ele><time>2026-05-02T13:55:07.999Z</time></trkpt><trkpt lat="43.31133747428119" lon="11.515174316165098"><ele>283.0</ele><time>2026-05-02T13:55:08.999Z</time></trkpt><trkpt lat="43.31155360706282" lon="11.5151795008058"><ele>285.0</ele><time>2026-05-02T13:55:09.999Z</time></trkpt><trkpt lat="43.311722598178534" lon="11.515175358664909"><ele>287.0</ele><time>2026-05-02T13:55:10.999Z</time></trkpt><trkpt lat="43.311854362260064" lon="11.515152504315196"><ele>289.0</ele><time>2026-05-02T13:55:11.999Z</time></trkpt><trkpt lat="43.31196430815726" lon="11.515113196789938"><ele>291.0</ele><time>2026-05-02T13:55:12.999Z</time></trkpt><trkpt lat="43.312061411080556" lon="11.515017161524412"><ele>291.0</ele><time>2026-05-02T13:55:13.999Z</time></trkpt><trkpt lat="43.312151104321465" lon="11.514866392424684"><ele>291.0</ele><time>2026-05-02T13:55:14.999Z</time></trkpt><trkpt lat="43.31223148402041" lon="11.51467783184151"><ele>291.0</ele><time>2026-05-02T13:55:15.999Z</time></trkpt><trkpt lat="43.31230851385855" lon="11.514474196350381"><ele>292.5</ele><time>2026-05-02T13:55:17Z</time></trkpt><trkpt lat="43.31239106427892" lon="11.51431042473837"><ele>294.0</ele><time>2026-05-02T13:55:18Z</time></trkpt><trkpt lat="43.31249943821183" lon="11.514200642844925"><ele>295.5</ele><time>2026-05-02T13:55:19Z</time></trkpt><trkpt lat="43.312623700034166" lon="11.51405963239344"><ele>297.0</ele><time>2026-05-02T13:55:20Z</time></trkpt><trkpt lat="43.31276963929275" lon="11.513915356401087"><ele>297.0</ele><time>2026-05-02T13:55:21Z</time></trkpt><trkpt lat="43.31294257982131" lon="11.513855573516537"><ele>297.0</ele><time>2026-05-02T13:55:22Z</time></trkpt><trkpt lat="43.313083771716535" lon="11.513811335384768"><ele>297.0</ele><time>2026-05-02T13:55:23Z</time></trkpt><trkpt lat="43.313217606356154" lon="11.513817707166153"><ele>297.6666666666667</ele><time>2026-05-02T13:55:24Z</time></trkpt><trkpt lat="43.31336571326605" lon="11.513873354429128"><ele>298.33333333333337</ele><time>2026-05-02T13:55:25Z</time></trkpt><trkpt lat="43.31353222840044" lon="11.513960697222071"><ele>299.0</ele><time>2026-05-02T13:55:26Z</time></trkpt><trkpt lat="43.31369418275762" lon="11.514085758493662"><ele>299.0</ele><time>2026-05-02T13:55:27Z</time></trkpt><trkpt lat="43.31384191740752" lon="11.514236177619605"><ele>299.0</ele><time>2026-05-02T13:55:28Z</time></trkpt><trkpt lat="43.313984659628304" lon="11.514405987217533"><ele>299.0</ele><time>2026-05-02T13:55:29Z</time></trkpt><trkpt lat="43.314088050542566" lon="11.5145504149665"><ele>299.0</ele><time>2026-05-02T13:55:30Z</time></trkpt><trkpt lat="43.314159011930045" lon="11.51463720322604"><ele>299.0</ele><time>2026-05-02T13:55:31Z</time></trkpt><trkpt lat="43.31423614279645" lon="11.514676626720162"><ele>299.0</ele><time>2026-05-02T13:55:32Z</time></trkpt><trkpt lat="43.31433468121931" lon="11.514670888773756"><ele>299.0</ele><time>2026-05-02T13:55:33Z</time></trkpt><trkpt lat="43.314450428927955" lon="11.51460502697215"><ele>299.0</ele><time>2026-05-02T13:55:34Z</time></trkpt><trkpt lat="43.31456253506587" lon="11.514479156155438"><ele>299.25</ele><time>2026-05-02T13:55:35Z</time></trkpt><trkpt lat="43.31465779325052" lon="11.514309686006234"><ele>299.5</ele><time>2026-05-02T13:55:36Z</time></trkpt><trkpt lat="43.31472670205832" lon="11.514124419464489"><ele>299.75</ele><time>2026-05-02T13:55:37Z</time></trkpt><trkpt lat="43.31478939879047" lon="11.51397826769948"><ele>300.0</ele><time>2026-05-02T13:55:38Z</time></trkpt><trkpt lat="43.314877845839526" lon="11.513887880670506"><ele>301.0</ele><time>2026-05-02T13:55:39Z</time></trkpt><trkpt lat="43.314990632430224" lon="11.513853907462668"><ele>302.0</ele><time>2026-05-02T13:55:40Z</time></trkpt><trkpt lat="43.31513081106294" lon="11.513844897587626"><ele>303.0</ele><time>2026-05-02T13:55:41Z</time></trkpt><trkpt lat="43.315291047467774" lon="11.513850505825383"><ele>304.0</ele><time>2026-05-02T13:55:42Z</time></trkpt><trkpt lat="43.31541866492432" lon="11.513874583427059"><ele>304.0</ele><time>2026-05-02T13:55:43Z</time></trkpt><trkpt lat="43.31550211958068" lon="11.513914738417798"><ele>304.0</ele><time>2026-05-02T13:55:44Z</time></trkpt><trkpt lat="43.31555278153034" lon="11.51400159688472"><ele>304.0</ele><time>2026-05-02T13:55:45Z</time></trkpt><trkpt lat="43.31558358288794" lon="11.514130448411128"><ele>304.0</ele><time>2026-05-02T13:55:46.001Z</time></trkpt><trkpt lat="43.31560090023976" lon="11.51431211875475"><ele>304.0</ele><time>2026-05-02T13:55:47.001Z</time></trkpt><trkpt lat="43.31560644001485" lon="11.51453295084874"><ele>302.3333333333333</ele><time>2026-05-02T13:55:48.001Z</time></trkpt><trkpt lat="43.31562415868601" lon="11.514758390264054"><ele>300.6666666666667</ele><time>2026-05-02T13:55:49.001Z</time></trkpt><trkpt lat="43.31568771398849" lon="11.514950692338012"><ele>299.0</ele><time>2026-05-02T13:55:50.001Z</time></trkpt><trkpt lat="43.3157933618787" lon="11.515123764109545"><ele>299.0</ele><time>2026-05-02T13:55:51.001Z</time></trkpt><trkpt lat="43.315922670876496" lon="11.51525283784924"><ele>299.0</ele><time>2026-05-02T13:55:52.001Z</time></trkpt><trkpt lat="43.316064698493506" lon="11.515318787797712"><ele>299.0</ele><time>2026-05-02T13:55:53.001Z</time></trkpt><trkpt lat="43.31621695673637" lon="11.515321836060178"><ele>299.0</ele><time>2026-05-02T13:55:54.001Z</time></trkpt><trkpt lat="43.31639228207761" lon="11.515260172011006"><ele>299.0</ele><time>2026-05-02T13:55:55.001Z</time></trkpt><trkpt lat="43.31660272507659" lon="11.515167078698578"><ele>299.0</ele><time>2026-05-02T13:55:56.001Z</time></trkpt><trkpt lat="43.31679807341631" lon="11.515075154697424"><ele>299.33333333333337</ele><time>2026-05-02T13:55:57.001Z</time></trkpt><trkpt lat="43.31699104270915" lon="11.514986444507578"><ele>299.6666666666667</ele><time>2026-05-02T13:55:58.001Z</time></trkpt><trkpt lat="43.31716623218548" lon="11.514904394487811"><ele>300.0</ele><time>2026-05-02T13:55:59.001Z</time></trkpt><trkpt lat="43.31731649061013" lon="11.514835756546423"><ele>300.25</ele><time>2026-05-02T13:56:00.001Z</time></trkpt><trkpt lat="43.317442366012074" lon="11.514756658535163"><ele>300.5</ele><time>2026-05-02T13:56:01.001Z</time></trkpt><trkpt lat="43.31753824280752" lon="11.514639977071"><ele>300.75</ele><time>2026-05-02T13:56:02.001Z</time></trkpt><trkpt lat="43.317615599793434" lon="11.514459478938543"><ele>301.0</ele><time>2026-05-02T13:56:03.001Z</time></trkpt><trkpt lat="43.31768020715363" lon="11.514228761790182"><ele>301.0</ele><time>2026-05-02T13:56:04.001Z</time></trkpt><trkpt lat="43.31772532207283" lon="11.513968388406427"><ele>301.0</ele><time>2026-05-02T13:56:05.001Z</time></trkpt><trkpt lat="43.31776270484111" lon="11.51374222977705"><ele>301.0</ele><time>2026-05-02T13:56:06.001Z</time></trkpt><trkpt lat="43.317816191538405" lon="11.513590557955139"><ele>300.25</ele><time>2026-05-02T13:56:07.001Z</time></trkpt><trkpt lat="43.317892836344626" lon="11.51348327357466"><ele>299.5</ele><time>2026-05-02T13:56:08.001Z</time></trkpt><trkpt lat="43.31800190339795" lon="11.513403622261377"><ele>298.75</ele><time>2026-05-02T13:56:09.001Z</time></trkpt><trkpt lat="43.318151260708156" lon="11.513348127192742"><ele>298.0</ele><time>2026-05-02T13:56:10.001Z</time></trkpt><trkpt lat="43.318311379394196" lon="11.513327887978598"><ele>298.0</ele><time>2026-05-02T13:56:11.001Z</time></trkpt><trkpt lat="43.318448517760494" lon="11.513357081966017"><ele>298.0</ele><time>2026-05-02T13:56:12.001Z</time></trkpt><trkpt lat="43.31856578857016" lon="11.513423609644004"><ele>298.0</ele><time>2026-05-02T13:56:13.001Z</time></trkpt><trkpt lat="43.318667296349105" lon="11.513519438296397"><ele>298.0</ele><time>2026-05-02T13:56:14.001Z</time></trkpt><trkpt lat="43.31873507269263" lon="11.513640025880385"><ele>298.5</ele><time>2026-05-02T13:56:15.001Z</time></trkpt><trkpt lat="43.318770104904026" lon="11.513771641063432"><ele>299.0</ele><time>2026-05-02T13:56:16.001Z</time></trkpt><trkpt lat="43.31878396105791" lon="11.513925576383597"><ele>299.5</ele><time>2026-05-02T13:56:17.001Z</time></trkpt><trkpt lat="43.318767835753974" lon="11.51409336173816"><ele>300.0</ele><time>2026-05-02T13:56:18.001Z</time></trkpt><trkpt lat="43.31871436518042" lon="11.514259659148912"><ele>300.0</ele><time>2026-05-02T13:56:19.001Z</time></trkpt><trkpt lat="43.31862184738218" lon="11.514430018765914"><ele>300.0</ele><time>2026-05-02T13:56:20.002Z</time></trkpt><trkpt lat="43.31849588747963" lon="11.514584763394378"><ele>300.0</ele><time>2026-05-02T13:56:21.002Z</time></trkpt><trkpt lat="43.31838522087437" lon="11.514683073621303"><ele>299.6666666666667</ele><time>2026-05-02T13:56:22.002Z</time></trkpt><trkpt lat="43.31832692398486" lon="11.514765869021277"><ele>299.3333333333333</ele><time>2026-05-02T13:56:23.002Z</time></trkpt><trkpt lat="43.31831383181587" lon="11.514861925014204"><ele>299.0</ele><time>2026-05-02T13:56:24.002Z</time></trkpt><trkpt lat="43.318348865521635" lon="11.51495258533614"><ele>298.66666666666663</ele><time>2026-05-02T13:56:25.002Z</time></trkpt><trkpt lat="43.318409411634704" lon="11.515016709041644"><ele>298.3333333333333</ele><time>2026-05-02T13:56:26.002Z</time></trkpt><trkpt lat="43.31848344601819" lon="11.515022039431356"><ele>298.0</ele><time>2026-05-02T13:56:27.002Z</time></trkpt><trkpt lat="43.3185530202799" lon="11.514964665410847"><ele>298.0</ele><time>2026-05-02T13:56:28.002Z</time></trkpt><trkpt lat="43.318627280967874" lon="11.514858049095988"><ele>298.0</ele><time>2026-05-02T13:56:29.002Z</time></trkpt><trkpt lat="43.318708881642515" lon="11.514706854262457"><ele>298.0</ele><time>2026-05-02T13:56:30.002Z</time></trkpt><trkpt lat="43.318809337581676" lon="11.514526921447287"><ele>298.0</ele><time>2026-05-02T13:56:31.002Z</time></trkpt><trkpt lat="43.31891803147118" lon="11.51436413834454"><ele>296.75</ele><time>2026-05-02T13:56:32.002Z</time></trkpt><trkpt lat="43.3189967288411" lon="11.514207018458977"><ele>295.5</ele><time>2026-05-02T13:56:33.002Z</time></trkpt><trkpt lat="43.319036000287966" lon="11.514044737986412"><ele>294.25</ele><time>2026-05-02T13:56:34.002Z</time></trkpt><trkpt lat="43.3190312812939" lon="11.513859803716711"><ele>293.0</ele><time>2026-05-02T13:56:35.002Z</time></trkpt><trkpt lat="43.319010028940774" lon="11.513641193548565"><ele>292.25</ele><time>2026-05-02T13:56:36.002Z</time></trkpt><trkpt lat="43.31899721591561" lon="11.513437556352683"><ele>291.5</ele><time>2026-05-02T13:56:37.002Z</time></trkpt><trkpt lat="43.31901969085248" lon="11.513258131830634"><ele>290.75</ele><time>2026-05-02T13:56:38.002Z</time></trkpt><trkpt lat="43.319083147285625" lon="11.513087647578226"><ele>290.0</ele><time>2026-05-02T13:56:39.002Z</time></trkpt><trkpt lat="43.319174509849795" lon="11.512922154190557"><ele>287.0</ele><time>2026-05-02T13:56:40.002Z</time></trkpt><trkpt lat="43.319250401772926" lon="11.512756758067006"><ele>284.0</ele><time>2026-05-02T13:56:41.002Z</time></trkpt><trkpt lat="43.319284615120964" lon="11.512532391654494"><ele>281.0</ele><time>2026-05-02T13:56:42.002Z</time></trkpt><trkpt lat="43.31927545250479" lon="11.512264005609852"><ele>278.33333333333337</ele><time>2026-05-02T13:56:43.002Z</time></trkpt><trkpt lat="43.319248526065955" lon="11.511981796903648"><ele>275.6666666666667</ele><time>2026-05-02T13:56:44.002Z</time></trkpt><trkpt lat="43.319208667636296" lon="11.511731123629296"><ele>273.0</ele><time>2026-05-02T13:56:45.002Z</time></trkpt><trkpt lat="43.31916729312912" lon="11.511501179857518"><ele>273.0</ele><time>2026-05-02T13:56:46.002Z</time></trkpt><trkpt lat="43.31913562049848" lon="11.511283698147734"><ele>273.0</ele><time>2026-05-02T13:56:47.002Z</time></trkpt><trkpt lat="43.31911340876861" lon="11.511065145194138"><ele>273.0</ele><time>2026-05-02T13:56:47.998Z</time></trkpt><trkpt lat="43.319120675516544" lon="11.510856741082954"><ele>270.0</ele><time>2026-05-02T13:56:48.998Z</time></trkpt><trkpt lat="43.31916002324934" lon="11.510663590679224"><ele>267.0</ele><time>2026-05-02T13:56:49.998Z</time></trkpt><trkpt lat="43.31923015787934" lon="11.510474792944793"><ele>264.0</ele><time>2026-05-02T13:56:50.998Z</time></trkpt><trkpt lat="43.31934827544624" lon="11.510255716289779"><ele>260.6666666666667</ele><time>2026-05-02T13:56:51.998Z</time></trkpt><trkpt lat="43.31950193080612" lon="11.51002889699883"><ele>257.33333333333337</ele><time>2026-05-02T13:56:52.998Z</time></trkpt><trkpt lat="43.3196347635113" lon="11.509825969082158"><ele>254.0</ele><time>2026-05-02T13:56:53.998Z</time></trkpt><trkpt lat="43.319734745266985" lon="11.509639704009533"><ele>251.66666666666669</ele><time>2026-05-02T13:56:54.998Z</time></trkpt><trkpt lat="43.31979948621973" lon="11.509442520760969"><ele>249.33333333333331</ele><time>2026-05-02T13:56:55.999Z</time></trkpt><trkpt lat="43.31983331039266" lon="11.509226948394712"><ele>247.0</ele><time>2026-05-02T13:56:56.999Z</time></trkpt><trkpt lat="43.31985679471037" lon="11.508976465905581"><ele>247.0</ele><time>2026-05-02T13:56:57.999Z</time></trkpt><trkpt lat="43.319869554927664" lon="11.508711655238795"><ele>247.0</ele><time>2026-05-02T13:56:58.999Z</time></trkpt><trkpt lat="43.319864856275046" lon="11.508442960745297"><ele>247.0</ele><time>2026-05-02T13:56:59.999Z</time></trkpt><trkpt lat="43.31983939298975" lon="11.508163753875701"><ele>246.0</ele><time>2026-05-02T13:57:00.999Z</time></trkpt><trkpt lat="43.31980328053695" lon="11.507864864074316"><ele>245.0</ele><time>2026-05-02T13:57:01.999Z</time></trkpt><trkpt lat="43.3197652111898" lon="11.507550840972373"><ele>252.0</ele><time>2026-05-02T13:57:02.999Z</time></trkpt><trkpt lat="43.31973024460185" lon="11.507211894449474"><ele>259.0</ele><time>2026-05-02T13:57:03.999Z</time></trkpt><trkpt lat="43.31970422898976" lon="11.506893080670547"><ele>259.0</ele><time>2026-05-02T13:57:04.999Z</time></trkpt><trkpt lat="43.319683705691034" lon="11.506637305044435"><ele>259.0</ele><time>2026-05-02T13:57:05.999Z</time></trkpt><trkpt lat="43.31967208622896" lon="11.50644400954854"><ele>259.0</ele><time>2026-05-02T13:57:06.999Z</time></trkpt><trkpt lat="43.31968061933197" lon="11.506306840132831"><ele>259.0</ele><time>2026-05-02T13:57:07.999Z</time></trkpt><trkpt lat="43.319718758903676" lon="11.506196401741143"><ele>255.25</ele><time>2026-05-02T13:57:08.999Z</time></trkpt><trkpt lat="43.31978832503659" lon="11.506104380363967"><ele>251.5</ele><time>2026-05-02T13:57:09.999Z</time></trkpt><trkpt lat="43.31988412069512" lon="11.506033082387752"><ele>247.75</ele><time>2026-05-02T13:57:10.999Z</time></trkpt><trkpt lat="43.31999752088749" lon="11.505976350743765"><ele>244.0</ele><time>2026-05-02T13:57:11.999Z</time></trkpt><trkpt lat="43.32014482164749" lon="11.505928445851909"><ele>244.0</ele><time>2026-05-02T13:57:12.999Z</time></trkpt><trkpt lat="43.32031678096526" lon="11.505866593551273"><ele>244.0</ele><time>2026-05-02T13:57:13.999Z</time></trkpt><trkpt lat="43.320524136114365" lon="11.505789647923255"><ele>244.0</ele><time>2026-05-02T13:57:14.999Z</time></trkpt><trkpt lat="43.32071948934597" lon="11.505718665624949"><ele>245.0</ele><time>2026-05-02T13:57:16Z</time></trkpt><trkpt lat="43.32088261971728" lon="11.50566421569764"><ele>246.0</ele><time>2026-05-02T13:57:17Z</time></trkpt><trkpt lat="43.32104117206899" lon="11.505640225911039"><ele>247.0</ele><time>2026-05-02T13:57:18Z</time></trkpt><trkpt lat="43.321201111703665" lon="11.505666622482977"><ele>247.0</ele><time>2026-05-02T13:57:19Z</time></trkpt><trkpt lat="43.321349273091066" lon="11.505742656890154"><ele>247.0</ele><time>2026-05-02T13:57:20Z</time></trkpt><trkpt lat="43.32149022748835" lon="11.505871106428987"><ele>247.0</ele><time>2026-05-02T13:57:21Z</time></trkpt><trkpt lat="43.32162951883597" lon="11.506045313185878"><ele>249.66666666666666</ele><time>2026-05-02T13:57:22Z</time></trkpt><trkpt lat="43.321771739629014" lon="11.506255424243976"><ele>252.33333333333331</ele><time>2026-05-02T13:57:23Z</time></trkpt><trkpt lat="43.32191759899406" lon="11.506487003965951"><ele>255.0</ele><time>2026-05-02T13:57:24Z</time></trkpt><trkpt lat="43.32207045243134" lon="11.506735705528586"><ele>261.0</ele><time>2026-05-02T13:57:25Z</time></trkpt><trkpt lat="43.32224151903216" lon="11.506991763404809"><ele>267.0</ele><time>2026-05-02T13:57:26Z</time></trkpt><trkpt lat="43.32240440765694" lon="11.507228038098635"><ele>267.6666666666667</ele><time>2026-05-02T13:57:27Z</time></trkpt><trkpt lat="43.322533125318586" lon="11.507414905951629"><ele>268.33333333333337</ele><time>2026-05-02T13:57:28Z</time></trkpt><trkpt lat="43.32264208582755" lon="11.507549733286433"><ele>269.0</ele><time>2026-05-02T13:57:29Z</time></trkpt><trkpt lat="43.3227646952384" lon="11.507633308882543"><ele>269.0</ele><time>2026-05-02T13:57:30Z</time></trkpt><trkpt lat="43.322918597338166" lon="11.507670516670336"><ele>269.0</ele><time>2026-05-02T13:57:31Z</time></trkpt><trkpt lat="43.32310369675888" lon="11.50767513476017"><ele>269.0</ele><time>2026-05-02T13:57:32Z</time></trkpt><trkpt lat="43.323302176587994" lon="11.507655362290262"><ele>271.0</ele><time>2026-05-02T13:57:33Z</time></trkpt><trkpt lat="43.32350018215174" lon="11.507643429784459"><ele>273.0</ele><time>2026-05-02T13:57:34Z</time></trkpt><trkpt lat="43.323667148988264" lon="11.507667610994396"><ele>275.0</ele><time>2026-05-02T13:57:35Z</time></trkpt><trkpt lat="43.323827214367626" lon="11.507736324101268"><ele>274.33333333333337</ele><time>2026-05-02T13:57:36Z</time></trkpt><trkpt lat="43.32397848872637" lon="11.507855689717992"><ele>273.6666666666667</ele><time>2026-05-02T13:57:37Z</time></trkpt><trkpt lat="43.32409367797039" lon="11.50802392029317"><ele>273.0</ele><time>2026-05-02T13:57:38Z</time></trkpt><trkpt lat="43.32418310187893" lon="11.508239107198307"><ele>276.6666666666667</ele><time>2026-05-02T13:57:39Z</time></trkpt><trkpt lat="43.32427172328644" lon="11.508487763446766"><ele>280.33333333333337</ele><time>2026-05-02T13:57:40Z</time></trkpt><trkpt lat="43.32436927497283" lon="11.508754446194526"><ele>284.0</ele><time>2026-05-02T13:57:41Z</time></trkpt><trkpt lat="43.324471940890874" lon="11.509025511672908"><ele>285.6666666666667</ele><time>2026-05-02T13:57:42.001Z</time></trkpt><trkpt lat="43.32456407513105" lon="11.509241512652803"><ele>287.3333333333333</ele><time>2026-05-02T13:57:43.001Z</time></trkpt><trkpt lat="43.32467320742814" lon="11.509395976093092"><ele>289.0</ele><time>2026-05-02T13:57:44.001Z</time></trkpt><trkpt lat="43.324795474512726" lon="11.509493627820875"><ele>289.0</ele><time>2026-05-02T13:57:45.001Z</time></trkpt><trkpt lat="43.32493747849786" lon="11.509540107983668"><ele>289.0</ele><time>2026-05-02T13:57:46.001Z</time></trkpt><trkpt lat="43.32508892189696" lon="11.509537862094929"><ele>289.0</ele><time>2026-05-02T13:57:47.001Z</time></trkpt><trkpt lat="43.325260055283636" lon="11.509490726128663"><ele>289.0</ele><time>2026-05-02T13:57:48.001Z</time></trkpt><trkpt lat="43.325444782361764" lon="11.509408222765504"><ele>289.0</ele><time>2026-05-02T13:57:49.001Z</time></trkpt><trkpt lat="43.32564634590385" lon="11.509310092103942"><ele>289.0</ele><time>2026-05-02T13:57:50.001Z</time></trkpt><trkpt lat="43.325861947680224" lon="11.509202341141451"><ele>289.5</ele><time>2026-05-02T13:57:51.001Z</time></trkpt><trkpt lat="43.326078272020396" lon="11.509101157251443"><ele>290.0</ele><time>2026-05-02T13:57:52.001Z</time></trkpt><trkpt lat="43.32629456495682" lon="11.508995825452073"><ele>291.5</ele><time>2026-05-02T13:57:53.001Z</time></trkpt><trkpt lat="43.32651410996958" lon="11.508884121080046"><ele>293.0</ele><time>2026-05-02T13:57:54.001Z</time></trkpt><trkpt lat="43.326725058115755" lon="11.50877319625697"><ele>294.0</ele><time>2026-05-02T13:57:55.001Z</time></trkpt><trkpt lat="43.32693712730389" lon="11.50865167564293"><ele>295.0</ele><time>2026-05-02T13:57:56.001Z</time></trkpt><trkpt lat="43.32714575737049" lon="11.508523323961983"><ele>297.0</ele><time>2026-05-02T13:57:57.001Z</time></trkpt><trkpt lat="43.327352314461834" lon="11.508390723750573"><ele>299.0</ele><time>2026-05-02T13:57:58.001Z</time></trkpt><trkpt lat="43.327558456664576" lon="11.508260830323422"><ele>299.0</ele><time>2026-05-02T13:57:59.001Z</time></trkpt><trkpt lat="43.32775741371154" lon="11.508128631637383"><ele>299.0</ele><time>2026-05-02T13:58:00.001Z</time></trkpt><trkpt lat="43.32795022207942" lon="11.508001114054709"><ele>299.0</ele><time>2026-05-02T13:58:01.001Z</time></trkpt><trkpt lat="43.32814234856805" lon="11.507878322686087"><ele>300.33333333333337</ele><time>2026-05-02T13:58:02.001Z</time></trkpt><trkpt lat="43.32833139426817" lon="11.507763287751084"><ele>301.6666666666667</ele><time>2026-05-02T13:58:03.001Z</time></trkpt><trkpt lat="43.328519501974114" lon="11.507648161205443"><ele>303.0</ele><time>2026-05-02T13:58:04.001Z</time></trkpt><trkpt lat="43.32870381843768" lon="11.507526490110383"><ele>303.0</ele><time>2026-05-02T13:58:05.001Z</time></trkpt><trkpt lat="43.32889142423377" lon="11.507408801796835"><ele>303.0</ele><time>2026-05-02T13:58:06.001Z</time></trkpt><trkpt lat="43.32908546438097" lon="11.507290866058348"><ele>303.0</ele><time>2026-05-02T13:58:07.001Z</time></trkpt><trkpt lat="43.329299931647526" lon="11.50719667213286"><ele>305.0</ele><time>2026-05-02T13:58:08.001Z</time></trkpt><trkpt lat="43.32953947276824" lon="11.507133994575975"><ele>307.0</ele><time>2026-05-02T13:58:09.001Z</time></trkpt><trkpt lat="43.329787225256204" lon="11.507086296737553"><ele>307.0</ele><time>2026-05-02T13:58:10.001Z</time></trkpt><trkpt lat="43.330030815366804" lon="11.5070431462144"><ele>307.0</ele><time>2026-05-02T13:58:11.001Z</time></trkpt><trkpt lat="43.33026780926209" lon="11.507000234169178"><ele>307.0</ele><time>2026-05-02T13:58:12.001Z</time></trkpt><trkpt lat="43.330504596450474" lon="11.5069585238708"><ele>307.0</ele><time>2026-05-02T13:58:13.001Z</time></trkpt><trkpt lat="43.33074369491675" lon="11.506916570057822"><ele>309.0</ele><time>2026-05-02T13:58:14.002Z</time></trkpt><trkpt lat="43.33098198195626" lon="11.50687188048591"><ele>311.0</ele><time>2026-05-02T13:58:15.002Z</time></trkpt><trkpt lat="43.33121816697126" lon="11.506813651802485"><ele>312.5</ele><time>2026-05-02T13:58:16.002Z</time></trkpt><trkpt lat="43.331448546899715" lon="11.506717462428211"><ele>314.0</ele><time>2026-05-02T13:58:17.002Z</time></trkpt><trkpt lat="43.33166884011577" lon="11.50657172016497"><ele>314.0</ele><time>2026-05-02T13:58:18.002Z</time></trkpt><trkpt lat="43.33188395822393" lon="11.506409590837675"><ele>314.0</ele><time>2026-05-02T13:58:19.002Z</time></trkpt><trkpt lat="43.332100863094695" lon="11.506257244822176"><ele>315.0</ele><time>2026-05-02T13:58:20.002Z</time></trkpt><trkpt lat="43.33231141193134" lon="11.506121281921642"><ele>316.0</ele><time>2026-05-02T13:58:21.002Z</time></trkpt><trkpt lat="43.332512762147516" lon="11.505994000392604"><ele>316.0</ele><time>2026-05-02T13:58:22.002Z</time></trkpt><trkpt lat="43.3327129861868" lon="11.505884323341776"><ele>316.0</ele><time>2026-05-02T13:58:23.002Z</time></trkpt><trkpt lat="43.332925946594806" lon="11.505802619971352"><ele>316.0</ele><time>2026-05-02T13:58:24.002Z</time></trkpt><trkpt lat="43.33315895803954" lon="11.505753874362641"><ele>316.0</ele><time>2026-05-02T13:58:25.002Z</time></trkpt><trkpt lat="43.33341308445828" lon="11.50571514679775"><ele>316.0</ele><time>2026-05-02T13:58:26.002Z</time></trkpt><trkpt lat="43.33366579596204" lon="11.505673223280512"><ele>315.5</ele><time>2026-05-02T13:58:27.002Z</time></trkpt><trkpt lat="43.33391351635779" lon="11.50562520745527"><ele>315.0</ele><time>2026-05-02T13:58:28.002Z</time></trkpt><trkpt lat="43.334156921465244" lon="11.505577273066974"><ele>315.0</ele><time>2026-05-02T13:58:29.002Z</time></trkpt><trkpt lat="43.3344020498381" lon="11.505527347177626"><ele>315.0</ele><time>2026-05-02T13:58:30.002Z</time></trkpt><trkpt lat="43.33464030056992" lon="11.505482633473614"><ele>314.5</ele><time>2026-05-02T13:58:31.002Z</time></trkpt><trkpt lat="43.33487777141725" lon="11.50543678167576"><ele>314.0</ele><time>2026-05-02T13:58:32.002Z</time></trkpt><trkpt lat="43.33511221941996" lon="11.505389076128145"><ele>316.0</ele><time>2026-05-02T13:58:33.002Z</time></trkpt><trkpt lat="43.33534439496984" lon="11.505340213484667"><ele>318.0</ele><time>2026-05-02T13:58:34.002Z</time></trkpt><trkpt lat="43.335578656767424" lon="11.5052908437545"><ele>318.0</ele><time>2026-05-02T13:58:35.002Z</time></trkpt><trkpt lat="43.335812388395055" lon="11.505239286797616"><ele>318.0</ele><time>2026-05-02T13:58:36.002Z</time></trkpt><trkpt lat="43.33604042699202" lon="11.50519165235088"><ele>318.0</ele><time>2026-05-02T13:58:37.002Z</time></trkpt><trkpt lat="43.336251776064614" lon="11.505152363044772"><ele>318.0</ele><time>2026-05-02T13:58:38.002Z</time></trkpt><trkpt lat="43.336446437542016" lon="11.505120645754573"><ele>318.0</ele><time>2026-05-02T13:58:39.002Z</time></trkpt><trkpt lat="43.33663850249999" lon="11.505087346387349"><ele>320.0</ele><time>2026-05-02T13:58:40.002Z</time></trkpt><trkpt lat="43.33683917946472" lon="11.505058600238158"><ele>322.0</ele><time>2026-05-02T13:58:41.002Z</time></trkpt><trkpt lat="43.33705523443556" lon="11.505072942532419"><ele>324.0</ele><time>2026-05-02T13:58:42.002Z</time></trkpt><trkpt lat="43.337276844473735" lon="11.505146335243879"><ele>324.5</ele><time>2026-05-02T13:58:43.002Z</time></trkpt><trkpt lat="43.33749181558076" lon="11.50525580364705"><ele>325.0</ele><time>2026-05-02T13:58:44.002Z</time></trkpt><trkpt lat="43.337699617382114" lon="11.50540255599874"><ele>327.0</ele><time>2026-05-02T13:58:45.002Z</time></trkpt><trkpt lat="43.33790771365246" lon="11.50555352457241"><ele>329.0</ele><time>2026-05-02T13:58:46.002Z</time></trkpt><trkpt lat="43.338102430821614" lon="11.50568812171917"><ele>330.0</ele><time>2026-05-02T13:58:47.003Z</time></trkpt><trkpt lat="43.33828467173651" lon="11.50579719939996"><ele>331.0</ele><time>2026-05-02T13:58:48.003Z</time></trkpt><trkpt lat="43.33847312321918" lon="11.505880626950479"><ele>332.0</ele><time>2026-05-02T13:58:49.003Z</time></trkpt><trkpt lat="43.338683341741564" lon="11.505924421414939"><ele>334.5</ele><time>2026-05-02T13:58:50.003Z</time></trkpt><trkpt lat="43.338914612336936" lon="11.505916346125899"><ele>337.0</ele><time>2026-05-02T13:58:51.003Z</time></trkpt><trkpt lat="43.339148730525686" lon="11.505868005610054"><ele>337.0</ele><time>2026-05-02T13:58:52.003Z</time></trkpt><trkpt lat="43.33934801117749" lon="11.50579259058928"><ele>337.0</ele><time>2026-05-02T13:58:53.003Z</time></trkpt><trkpt lat="43.339519968840285" lon="11.505712766877721"><ele>337.0</ele><time>2026-05-02T13:58:53.998Z</time></trkpt><trkpt lat="43.339687069633385" lon="11.505641704086855"><ele>336.66666666666663</ele><time>2026-05-02T13:58:54.999Z</time></trkpt><trkpt lat="43.339855644621494" lon="11.505576845652463"><ele>336.3333333333333</ele><time>2026-05-02T13:58:55.999Z</time></trkpt><trkpt lat="43.34001379400678" lon="11.505511462613837"><ele>336.0</ele><time>2026-05-02T13:58:56.999Z</time></trkpt><trkpt lat="43.340151634060426" lon="11.505457547633014"><ele>336.0</ele><time>2026-05-02T13:58:57.999Z</time></trkpt><trkpt lat="43.34027611896014" lon="11.50541744378983"><ele>336.0</ele><time>2026-05-02T13:58:58.999Z</time></trkpt><trkpt lat="43.340388838615944" lon="11.505387377982961"><ele>336.0</ele><time>2026-05-02T13:58:59.999Z</time></trkpt><trkpt lat="43.34048887146796" lon="11.505371151816567"><ele>336.0</ele><time>2026-05-02T13:59:00.999Z</time></trkpt><trkpt lat="43.34058485905981" lon="11.505366750298936"><ele>336.0</ele><time>2026-05-02T13:59:01.999Z</time></trkpt><trkpt lat="43.34067136708208" lon="11.505391213137623"><ele>335.8333333333333</ele><time>2026-05-02T13:59:02.999Z</time></trkpt><trkpt lat="43.340741157284306" lon="11.505403718004306"><ele>335.6666666666667</ele><time>2026-05-02T13:59:03.999Z</time></trkpt><trkpt lat="43.3408096922494" lon="11.505391122753188"><ele>335.5</ele><time>2026-05-02T13:59:04.999Z</time></trkpt><trkpt lat="43.3408748873191" lon="11.505341927793042"><ele>335.33333333333337</ele><time>2026-05-02T13:59:05.999Z</time></trkpt><trkpt lat="43.34093848622306" lon="11.505267754273662"><ele>335.1666666666667</ele><time>2026-05-02T13:59:06.999Z</time></trkpt><trkpt lat="43.34101094950903" lon="11.50520835893623"><ele>335.0</ele><time>2026-05-02T13:59:07.999Z</time></trkpt><trkpt lat="43.341091018106034" lon="11.5051745572018"><ele>335.0</ele><time>2026-05-02T13:59:08.999Z</time></trkpt><trkpt lat="43.34117525956503" lon="11.505137856310489"><ele>335.0</ele><time>2026-05-02T13:59:10Z</time></trkpt><trkpt lat="43.34125764193899" lon="11.505105620007177"><ele>335.0</ele><time>2026-05-02T13:59:11Z</time></trkpt><trkpt lat="43.34133255572315" lon="11.505080841987674"><ele>335.0</ele><time>2026-05-02T13:59:12Z</time></trkpt><trkpt lat="43.34140121144598" lon="11.505063952134442"><ele>335.0</ele><time>2026-05-02T13:59:13Z</time></trkpt><trkpt lat="43.34146592077022" lon="11.505051390174874"><ele>335.0</ele><time>2026-05-02T13:59:14Z</time></trkpt><trkpt lat="43.341533984718176" lon="11.505037673588884"><ele>335.0</ele><time>2026-05-02T13:59:15Z</time></trkpt><trkpt lat="43.34161432420761" lon="11.505019459398548"><ele>335.0</ele><time>2026-05-02T13:59:16Z</time></trkpt><trkpt lat="43.34171398486618" lon="11.50499763033327"><ele>335.0</ele><time>2026-05-02T13:59:17Z</time></trkpt><trkpt lat="43.34181951123778" lon="11.50497247385734"><ele>335.0</ele><time>2026-05-02T13:59:18Z</time></trkpt><trkpt lat="43.341944401195725" lon="11.504944528405144"><ele>335.0</ele><time>2026-05-02T13:59:19Z</time></trkpt><trkpt lat="43.342092090678136" lon="11.504909741613128"><ele>336.0</ele><time>2026-05-02T13:59:20Z</time></trkpt><trkpt lat="43.34225178131317" lon="11.50486392928767"><ele>337.0</ele><time>2026-05-02T13:59:21Z</time></trkpt><trkpt lat="43.34240687647136" lon="11.50482865874815"><ele>338.0</ele><time>2026-05-02T13:59:22Z</time></trkpt><trkpt lat="43.342563179788826" lon="11.504800231134428"><ele>338.0</ele><time>2026-05-02T13:59:23Z</time></trkpt><trkpt lat="43.34272747779438" lon="11.504772131536813"><ele>338.0</ele><time>2026-05-02T13:59:24Z</time></trkpt><trkpt lat="43.342891178258725" lon="11.50475119869204"><ele>338.0</ele><time>2026-05-02T13:59:25Z</time></trkpt><trkpt lat="43.34305689345788" lon="11.504729011572644"><ele>338.0</ele><time>2026-05-02T13:59:26Z</time></trkpt><trkpt lat="43.34322550309734" lon="11.504700626663148"><ele>338.0</ele><time>2026-05-02T13:59:27Z</time></trkpt><trkpt lat="43.34338345800023" lon="11.504672356895416"><ele>338.0</ele><time>2026-05-02T13:59:28Z</time></trkpt><trkpt lat="43.34352699217458" lon="11.504645712200418"><ele>338.0</ele><time>2026-05-02T13:59:29.001Z</time></trkpt><trkpt lat="43.343656772503635" lon="11.504624564738787"><ele>338.0</ele><time>2026-05-02T13:59:30.001Z</time></trkpt><trkpt lat="43.34376584147791" lon="11.50460004714161"><ele>338.0</ele><time>2026-05-02T13:59:31.001Z</time></trkpt><trkpt lat="43.34386094368333" lon="11.504573438450604"><ele>338.0</ele><time>2026-05-02T13:59:32.001Z</time></trkpt><trkpt lat="43.34396240055916" lon="11.504548301015573"><ele>338.0</ele><time>2026-05-02T13:59:33.001Z</time></trkpt><trkpt lat="43.344060966108245" lon="11.504531734208287"><ele>337.59999999999997</ele><time>2026-05-02T13:59:34.001Z</time></trkpt><trkpt lat="43.34415543014152" lon="11.504514945157496"><ele>337.2</ele><time>2026-05-02T13:59:35.001Z</time></trkpt><trkpt lat="43.34424732272341" lon="11.504498372576741"><ele>336.8</ele><time>2026-05-02T13:59:36.001Z</time></trkpt><trkpt lat="43.34434048704794" lon="11.504480631370463"><ele>336.4</ele><time>2026-05-02T13:59:37.001Z</time></trkpt><trkpt lat="43.34443975308977" lon="11.504466679239913"><ele>336.0</ele><time>2026-05-02T13:59:38.001Z</time></trkpt><trkpt lat="43.3445342068958" lon="11.504455045545674"><ele>336.0</ele><time>2026-05-02T13:59:39.001Z</time></trkpt><trkpt lat="43.344621640636326" lon="11.504451492113787"><ele>336.0</ele><time>2026-05-02T13:59:40.001Z</time></trkpt><trkpt lat="43.344706866512624" lon="11.504443931862927"><ele>336.0</ele><time>2026-05-02T13:59:41.001Z</time></trkpt><trkpt lat="43.34479695714736" lon="11.50435222976401"><ele>336.0</ele><time>2026-05-02T13:59:43.001Z</time></trkpt><trkpt lat="43.34483975405915" lon="11.504242765325301"><ele>336.0</ele><time>2026-05-02T13:59:44.001Z</time></trkpt><trkpt lat="43.344883864650306" lon="11.50408694425809"><ele>337.4</ele><time>2026-05-02T13:59:45.001Z</time></trkpt><trkpt lat="43.344950989750416" lon="11.50391481496662"><ele>338.8</ele><time>2026-05-02T13:59:46.001Z</time></trkpt><trkpt lat="43.34500836388927" lon="11.503779019858646"><ele>340.2</ele><time>2026-05-02T13:59:47.001Z</time></trkpt><trkpt lat="43.34504069354345" lon="11.503662924638144"><ele>341.59999999999997</ele><time>2026-05-02T13:59:48.001Z</time></trkpt><trkpt lat="43.345032173636014" lon="11.50354200901023"><ele>343.0</ele><time>2026-05-02T13:59:49.001Z</time></trkpt><trkpt lat="43.344986468718574" lon="11.503401651122116"><ele>343.0</ele><time>2026-05-02T13:59:50.001Z</time></trkpt><trkpt lat="43.344920040997906" lon="11.503242087130994"><ele>343.0</ele><time>2026-05-02T13:59:51.001Z</time></trkpt><trkpt lat="43.34487937436482" lon="11.503094994579955"><ele>343.0</ele><time>2026-05-02T13:59:52.001Z</time></trkpt><trkpt lat="43.34487372018717" lon="11.502962101506014"><ele>343.0</ele><time>2026-05-02T13:59:53.001Z</time></trkpt><trkpt lat="43.34488854125552" lon="11.502803662309988"><ele>343.25</ele><time>2026-05-02T13:59:54.001Z</time></trkpt><trkpt lat="43.34491604951" lon="11.502642263238988"><ele>343.5</ele><time>2026-05-02T13:59:55.001Z</time></trkpt><trkpt lat="43.344970217586244" lon="11.502480935323351"><ele>343.75</ele><time>2026-05-02T13:59:56.001Z</time></trkpt><trkpt lat="43.345057565213224" lon="11.502288125956282"><ele>344.0</ele><time>2026-05-02T13:59:57.002Z</time></trkpt><trkpt lat="43.34513066069561" lon="11.50209765564409"><ele>342.0</ele><time>2026-05-02T13:59:58.002Z</time></trkpt><trkpt lat="43.34518941960268" lon="11.501925055805755"><ele>340.0</ele><time>2026-05-02T13:59:59.002Z</time></trkpt><trkpt lat="43.345227810688264" lon="11.501773977721925"><ele>338.0</ele><time>2026-05-02T14:00:00.002Z</time></trkpt><trkpt lat="43.34523352649411" lon="11.50162993291613"><ele>336.0</ele><time>2026-05-02T14:00:01.002Z</time></trkpt><trkpt lat="43.345212524433265" lon="11.501485981224276"><ele>336.0</ele><time>2026-05-02T14:00:02.002Z</time></trkpt><trkpt lat="43.345170049573774" lon="11.501336584702898"><ele>336.0</ele><time>2026-05-02T14:00:03.002Z</time></trkpt><trkpt lat="43.34510921349009" lon="11.501188242056623"><ele>336.0</ele><time>2026-05-02T14:00:04.002Z</time></trkpt><trkpt lat="43.345041378632644" lon="11.501046123107827"><ele>336.0</ele><time>2026-05-02T14:00:05.002Z</time></trkpt><trkpt lat="43.344981236567946" lon="11.50093486730957"><ele>335.8333333333333</ele><time>2026-05-02T14:00:06.002Z</time></trkpt><trkpt lat="43.34493496194442" lon="11.500842366271618"><ele>335.6666666666667</ele><time>2026-05-02T14:00:07.002Z</time></trkpt><trkpt lat="43.34490763498707" lon="11.5007521543668"><ele>335.5</ele><time>2026-05-02T14:00:08.002Z</time></trkpt><trkpt lat="43.34496865813599" lon="11.500605293338669"><ele>335.33333333333337</ele><time>2026-05-02T14:00:10.002Z</time></trkpt><trkpt lat="43.34504561711113" lon="11.500557884709933"><ele>335.1666666666667</ele><time>2026-05-02T14:00:12.002Z</time></trkpt><trkpt lat="43.345069837693885" lon="11.500443544798427"><ele>335.0</ele><time>2026-05-02T14:00:16.002Z</time></trkpt><trkpt lat="43.34500840357711" lon="11.50034404792033"><ele>335.0</ele><time>2026-05-02T14:00:17.002Z</time></trkpt><trkpt lat="43.34496069912479" lon="11.500263463804169"><ele>335.0</ele><time>2026-05-02T14:00:18.002Z</time></trkpt><trkpt lat="43.34491797666433" lon="11.5001400764385"><ele>335.0</ele><time>2026-05-02T14:00:19.002Z</time></trkpt><trkpt lat="43.34487742210675" lon="11.500008950155076"><ele>335.0</ele><time>2026-05-02T14:00:20.002Z</time></trkpt><trkpt lat="43.34481541288163" lon="11.49986886149311"><ele>335.0</ele><time>2026-05-02T14:00:21.002Z</time></trkpt><trkpt lat="43.344747633102926" lon="11.499703842188902"><ele>335.33333333333337</ele><time>2026-05-02T14:00:22.002Z</time></trkpt><trkpt lat="43.344677804181615" lon="11.499507544455328"><ele>335.6666666666667</ele><time>2026-05-02T14:00:23.002Z</time></trkpt><trkpt lat="43.344598528646586" lon="11.49931031203837"><ele>336.0</ele><time>2026-05-02T14:00:24.002Z</time></trkpt><trkpt lat="43.34452314614966" lon="11.499105685792133"><ele>336.0</ele><time>2026-05-02T14:00:25.002Z</time></trkpt><trkpt lat="43.34445525685746" lon="11.498915517480086"><ele>336.0</ele><time>2026-05-02T14:00:26.002Z</time></trkpt><trkpt lat="43.34439175492789" lon="11.49870687117117"><ele>336.0</ele><time>2026-05-02T14:00:27.002Z</time></trkpt><trkpt lat="43.34431938138383" lon="11.498483360188885"><ele>336.3333333333333</ele><time>2026-05-02T14:00:28.002Z</time></trkpt><trkpt lat="43.34424124727645" lon="11.498239995206905"><ele>336.66666666666663</ele><time>2026-05-02T14:00:29.002Z</time></trkpt><trkpt lat="43.34415506940647" lon="11.497991846597712"><ele>337.0</ele><time>2026-05-02T14:00:30.003Z</time></trkpt><trkpt lat="43.34407496345825" lon="11.497767059825113"><ele>337.0</ele><time>2026-05-02T14:00:31.003Z</time></trkpt><trkpt lat="43.34400548193717" lon="11.497574742739573"><ele>337.0</ele><time>2026-05-02T14:00:32.003Z</time></trkpt><trkpt lat="43.34394180658077" lon="11.497405594900853"><ele>337.0</ele><time>2026-05-02T14:00:33.003Z</time></trkpt><trkpt lat="43.34389278028852" lon="11.497269446853434"><ele>337.0</ele><time>2026-05-02T14:00:34.003Z</time></trkpt><trkpt lat="43.34385246110883" lon="11.497174942037391"><ele>336.40000000000003</ele><time>2026-05-02T14:00:35.003Z</time></trkpt><trkpt lat="43.343804529418776" lon="11.497070978959647"><ele>335.8</ele><time>2026-05-02T14:00:36.003Z</time></trkpt><trkpt lat="43.343748397649215" lon="11.496986003970527"><ele>335.2</ele><time>2026-05-02T14:00:37.003Z</time></trkpt><trkpt lat="43.34366598609248" lon="11.49689369800012"><ele>334.6</ele><time>2026-05-02T14:00:38.003Z</time></trkpt><trkpt lat="43.343558348057186" lon="11.496777003990942"><ele>334.0</ele><time>2026-05-02T14:00:39.003Z</time></trkpt><trkpt lat="43.34345598445814" lon="11.496656176308056"><ele>334.0</ele><time>2026-05-02T14:00:40.003Z</time></trkpt><trkpt lat="43.34337368502808" lon="11.496552283283172"><ele>334.0</ele><time>2026-05-02T14:00:41.003Z</time></trkpt><trkpt lat="43.34329643041354" lon="11.496479320272082"><ele>334.0</ele><time>2026-05-02T14:00:42.003Z</time></trkpt><trkpt lat="43.34322846368612" lon="11.496416091266928"><ele>334.0</ele><time>2026-05-02T14:00:43.003Z</time></trkpt><trkpt lat="43.343170364280454" lon="11.496324526050403"><ele>334.0</ele><time>2026-05-02T14:00:44.003Z</time></trkpt><trkpt lat="43.34308977538884" lon="11.49620295797953"><ele>333.0</ele><time>2026-05-02T14:00:45.003Z</time></trkpt><trkpt lat="43.34298042058845" lon="11.496064648687362"><ele>332.0</ele><time>2026-05-02T14:00:46.003Z</time></trkpt><trkpt lat="43.34284778522792" lon="11.495903401567526"><ele>331.0</ele><time>2026-05-02T14:00:47.003Z</time></trkpt><trkpt lat="43.342694280559265" lon="11.495720428380679"><ele>331.0</ele><time>2026-05-02T14:00:48.003Z</time></trkpt><trkpt lat="43.34254456480153" lon="11.495531098932167"><ele>331.0</ele><time>2026-05-02T14:00:49.003Z</time></trkpt><trkpt lat="43.34237858086253" lon="11.495314553443421"><ele>331.0</ele><time>2026-05-02T14:00:50.003Z</time></trkpt><trkpt lat="43.34219626110535" lon="11.495103875718408"><ele>323.5</ele><time>2026-05-02T14:00:51.003Z</time></trkpt><trkpt lat="43.34202497760603" lon="11.494904171779993"><ele>316.0</ele><time>2026-05-02T14:00:52.003Z</time></trkpt><trkpt lat="43.34184694080553" lon="11.494697947674391"><ele>314.5</ele><time>2026-05-02T14:00:53.003Z</time></trkpt><trkpt lat="43.341657599812294" lon="11.494478328320511"><ele>313.0</ele><time>2026-05-02T14:00:54.003Z</time></trkpt><trkpt lat="43.341468805006315" lon="11.494248945896182"><ele>310.0</ele><time>2026-05-02T14:00:55.003Z</time></trkpt><trkpt lat="43.34127336913081" lon="11.494013499466176"><ele>307.0</ele><time>2026-05-02T14:00:56.003Z</time></trkpt><trkpt lat="43.3410797716237" lon="11.493783645787"><ele>308.5</ele><time>2026-05-02T14:00:57.003Z</time></trkpt><trkpt lat="43.340902666969704" lon="11.493570684486182"><ele>310.0</ele><time>2026-05-02T14:00:58.003Z</time></trkpt><trkpt lat="43.34073974616551" lon="11.4933750557327"><ele>310.0</ele><time>2026-05-02T14:00:59.003Z</time></trkpt><trkpt lat="43.34058325204694" lon="11.493188494883249"><ele>310.0</ele><time>2026-05-02T14:00:59.999Z</time></trkpt><trkpt lat="43.3404329497662" lon="11.493010525002413"><ele>310.0</ele><time>2026-05-02T14:01:00.999Z</time></trkpt><trkpt lat="43.34028275227152" lon="11.492820556538332"><ele>310.3333333333333</ele><time>2026-05-02T14:01:01.999Z</time></trkpt><trkpt lat="43.34014656435489" lon="11.492633504059896"><ele>310.6666666666667</ele><time>2026-05-02T14:01:02.999Z</time></trkpt><trkpt lat="43.34001468926733" lon="11.492447766704199"><ele>311.0</ele><time>2026-05-02T14:01:03.999Z</time></trkpt><trkpt lat="43.339895789305125" lon="11.492269793287324"><ele>311.0</ele><time>2026-05-02T14:01:04.999Z</time></trkpt><trkpt lat="43.339785263000635" lon="11.492104776869958"><ele>311.0</ele><time>2026-05-02T14:01:05.999Z</time></trkpt><trkpt lat="43.33967668711789" lon="11.491940904173292"><ele>311.0</ele><time>2026-05-02T14:01:06.999Z</time></trkpt><trkpt lat="43.33956666174465" lon="11.491775018999911"><ele>309.6666666666667</ele><time>2026-05-02T14:01:08Z</time></trkpt><trkpt lat="43.33944148696171" lon="11.491588302750008"><ele>308.3333333333333</ele><time>2026-05-02T14:01:09Z</time></trkpt><trkpt lat="43.339317083901975" lon="11.491388617376783"><ele>307.0</ele><time>2026-05-02T14:01:10Z</time></trkpt><trkpt lat="43.3391863748954" lon="11.49117249699334"><ele>306.66666666666663</ele><time>2026-05-02T14:01:11Z</time></trkpt><trkpt lat="43.339033251372" lon="11.490956406741418"><ele>306.3333333333333</ele><time>2026-05-02T14:01:12Z</time></trkpt><trkpt lat="43.33886287039568" lon="11.490757492573673"><ele>306.0</ele><time>2026-05-02T14:01:13Z</time></trkpt><trkpt lat="43.33868194886336" lon="11.490580848981917"><ele>305.0</ele><time>2026-05-02T14:01:14Z</time></trkpt><trkpt lat="43.33849719352931" lon="11.490402679231133"><ele>304.0</ele><time>2026-05-02T14:01:15Z</time></trkpt><trkpt lat="43.33832039526482" lon="11.490225791665177"><ele>303.0</ele><time>2026-05-02T14:01:16Z</time></trkpt><trkpt lat="43.33814412116902" lon="11.490039716865395"><ele>300.5</ele><time>2026-05-02T14:01:17Z</time></trkpt><trkpt lat="43.33796084259715" lon="11.489852673937579"><ele>298.0</ele><time>2026-05-02T14:01:18Z</time></trkpt><trkpt lat="43.33777132726604" lon="11.489657296960647"><ele>297.5</ele><time>2026-05-02T14:01:19Z</time></trkpt><trkpt lat="43.33758556403477" lon="11.48945807403599"><ele>297.0</ele><time>2026-05-02T14:01:20Z</time></trkpt><trkpt lat="43.33740155769894" lon="11.4892654439282"><ele>297.0</ele><time>2026-05-02T14:01:21Z</time></trkpt><trkpt lat="43.337221493594946" lon="11.489079747557401"><ele>297.0</ele><time>2026-05-02T14:01:22Z</time></trkpt><trkpt lat="43.33703684888287" lon="11.488920338381348"><ele>297.0</ele><time>2026-05-02T14:01:23Z</time></trkpt><trkpt lat="43.33684910313109" lon="11.488799012871924"><ele>297.6666666666667</ele><time>2026-05-02T14:01:24Z</time></trkpt><trkpt lat="43.33666943671251" lon="11.488709503291032"><ele>298.33333333333337</ele><time>2026-05-02T14:01:25Z</time></trkpt><trkpt lat="43.33649799185068" lon="11.488593415590652"><ele>299.0</ele><time>2026-05-02T14:01:26Z</time></trkpt><trkpt lat="43.33635620498657" lon="11.488413097701423"><ele>299.0</ele><time>2026-05-02T14:01:27Z</time></trkpt><trkpt lat="43.336233266886325" lon="11.488181981085303"><ele>299.0</ele><time>2026-05-02T14:01:28Z</time></trkpt><trkpt lat="43.33610804900861" lon="11.487945032649424"><ele>299.0</ele><time>2026-05-02T14:01:29Z</time></trkpt><trkpt lat="43.335958997478876" lon="11.48774740299734"><ele>298.33333333333337</ele><time>2026-05-02T14:01:30Z</time></trkpt><trkpt lat="43.33580498906331" lon="11.487581129833446"><ele>297.6666666666667</ele><time>2026-05-02T14:01:31Z</time></trkpt><trkpt lat="43.33565573342891" lon="11.48740680242735"><ele>297.0</ele><time>2026-05-02T14:01:32Z</time></trkpt><trkpt lat="43.33552166216254" lon="11.487182675254628"><ele>296.0</ele><time>2026-05-02T14:01:33Z</time></trkpt><trkpt lat="43.335406005171436" lon="11.486925133973362"><ele>295.0</ele><time>2026-05-02T14:01:34.001Z</time></trkpt><trkpt lat="43.335301644882456" lon="11.486663594428325"><ele>294.0</ele><time>2026-05-02T14:01:35.001Z</time></trkpt><trkpt lat="43.335208386701524" lon="11.486418385999029"><ele>291.0</ele><time>2026-05-02T14:01:36.001Z</time></trkpt><trkpt lat="43.33511360900514" lon="11.486176635042069"><ele>288.0</ele><time>2026-05-02T14:01:37.001Z</time></trkpt><trkpt lat="43.33502107563614" lon="11.48592346892358"><ele>285.0</ele><time>2026-05-02T14:01:38.001Z</time></trkpt><trkpt lat="43.33494283406375" lon="11.48563014417966"><ele>282.0</ele><time>2026-05-02T14:01:39.001Z</time></trkpt><trkpt lat="43.33488725453776" lon="11.485308477653343"><ele>279.0</ele><time>2026-05-02T14:01:40.001Z</time></trkpt><trkpt lat="43.33484955879254" lon="11.484981469405344"><ele>279.0</ele><time>2026-05-02T14:01:41.001Z</time></trkpt><trkpt lat="43.33481585589741" lon="11.484656645997399"><ele>279.0</ele><time>2026-05-02T14:01:42.001Z</time></trkpt><trkpt lat="43.334780488065256" lon="11.484350085363403"><ele>277.6666666666667</ele><time>2026-05-02T14:01:43.001Z</time></trkpt><trkpt lat="43.334748372920444" lon="11.48406158227611"><ele>276.33333333333337</ele><time>2026-05-02T14:01:44.001Z</time></trkpt><trkpt lat="43.334728037779676" lon="11.483774726690315"><ele>275.0</ele><time>2026-05-02T14:01:45.001Z</time></trkpt><trkpt lat="43.33471589416394" lon="11.483489918212042"><ele>277.0</ele><time>2026-05-02T14:01:46.001Z</time></trkpt><trkpt lat="43.33469529606974" lon="11.48322745857324"><ele>279.0</ele><time>2026-05-02T14:01:47.001Z</time></trkpt><trkpt lat="43.33466541571657" lon="11.482966363234258"><ele>281.0</ele><time>2026-05-02T14:01:48.001Z</time></trkpt><trkpt lat="43.334631689008226" lon="11.482738345438614"><ele>281.0</ele><time>2026-05-02T14:01:49.001Z</time></trkpt><trkpt lat="43.33459288257496" lon="11.482537953886183"><ele>281.0</ele><time>2026-05-02T14:01:50.001Z</time></trkpt><trkpt lat="43.33457169375233" lon="11.482357081939918"><ele>281.0</ele><time>2026-05-02T14:01:51.001Z</time></trkpt><trkpt lat="43.33457419041471" lon="11.482157331910056"><ele>281.0</ele><time>2026-05-02T14:01:52.001Z</time></trkpt><trkpt lat="43.33461367952955" lon="11.481949135896764"><ele>278.6666666666667</ele><time>2026-05-02T14:01:53.001Z</time></trkpt><trkpt lat="43.33469493646676" lon="11.481735635107038"><ele>276.3333333333333</ele><time>2026-05-02T14:01:54.001Z</time></trkpt><trkpt lat="43.334806759857585" lon="11.481536226809942"><ele>274.0</ele><time>2026-05-02T14:01:55.001Z</time></trkpt><trkpt lat="43.33493890487564" lon="11.481332484648995"><ele>275.66666666666663</ele><time>2026-05-02T14:01:56.001Z</time></trkpt><trkpt lat="43.335061441650346" lon="11.481137129594515"><ele>277.3333333333333</ele><time>2026-05-02T14:01:57.001Z</time></trkpt><trkpt lat="43.33517334276252" lon="11.480969311433125"><ele>279.0</ele><time>2026-05-02T14:01:58.001Z</time></trkpt><trkpt lat="43.335256730141325" lon="11.480837273471007"><ele>279.0</ele><time>2026-05-02T14:01:59.001Z</time></trkpt><trkpt lat="43.33532212437313" lon="11.480735130586037"><ele>279.0</ele><time>2026-05-02T14:02:00.001Z</time></trkpt><trkpt lat="43.33536411056847" lon="11.480651747732848"><ele>279.0</ele><time>2026-05-02T14:02:01.001Z</time></trkpt><trkpt lat="43.33542051941316" lon="11.480555101319151"><ele>279.0</ele><time>2026-05-02T14:02:03.001Z</time></trkpt><trkpt lat="43.335480341716725" lon="11.48048225194591"><ele>279.0</ele><time>2026-05-02T14:02:17.002Z</time></trkpt><trkpt lat="43.335539771716554" lon="11.48043409262679"><ele>279.0</ele><time>2026-05-02T14:02:18.002Z</time></trkpt><trkpt lat="43.33560494507259" lon="11.48037686482524"><ele>279.1666666666667</ele><time>2026-05-02T14:02:19.002Z</time></trkpt><trkpt lat="43.335665988000045" lon="11.480322643295477"><ele>279.3333333333333</ele><time>2026-05-02T14:02:20.002Z</time></trkpt><trkpt lat="43.3357241600457" lon="11.480263457752281"><ele>279.5</ele><time>2026-05-02T14:02:21.002Z</time></trkpt><trkpt lat="43.335816345436015" lon="11.480183286798773"><ele>279.66666666666663</ele><time>2026-05-02T14:02:23.002Z</time></trkpt><trkpt lat="43.335882352691655" lon="11.480134297283671"><ele>279.8333333333333</ele><time>2026-05-02T14:02:25.002Z</time></trkpt><trkpt lat="43.33594177633985" lon="11.480076096976813"><ele>280.0</ele><time>2026-05-02T14:02:54.003Z</time></trkpt><trkpt lat="43.33599325366312" lon="11.480014071263732"><ele>280.0</ele><time>2026-05-02T14:02:55.003Z</time></trkpt><trkpt lat="43.33607856882204" lon="11.479961437394476"><ele>280.0</ele><time>2026-05-02T14:02:56.003Z</time></trkpt><trkpt lat="43.33616328897488" lon="11.479871439672191"><ele>280.0</ele><time>2026-05-02T14:02:57.003Z</time></trkpt><trkpt lat="43.33625565409841" lon="11.47977524333367"><ele>280.0</ele><time>2026-05-02T14:02:58.003Z</time></trkpt><trkpt lat="43.336363851787866" lon="11.479677319485107"><ele>280.0</ele><time>2026-05-02T14:02:59.003Z</time></trkpt><trkpt lat="43.33647484099857" lon="11.479582374582433"><ele>279.0</ele><time>2026-05-02T14:03:00.003Z</time></trkpt><trkpt lat="43.33657613442684" lon="11.47949417022787"><ele>278.0</ele><time>2026-05-02T14:03:01.003Z</time></trkpt><trkpt lat="43.336682541610536" lon="11.479425021079765"><ele>277.0</ele><time>2026-05-02T14:03:02.003Z</time></trkpt><trkpt lat="43.336790319123715" lon="11.479363080523477"><ele>276.0</ele><time>2026-05-02T14:03:03.003Z</time></trkpt><trkpt lat="43.336900277705936" lon="11.47931346961991"><ele>276.0</ele><time>2026-05-02T14:03:04.003Z</time></trkpt><trkpt lat="43.33701415966214" lon="11.479286138311995"><ele>276.0</ele><time>2026-05-02T14:03:05.003Z</time></trkpt><trkpt lat="43.337134366149684" lon="11.479283007330345"><ele>276.0</ele><time>2026-05-02T14:03:06Z</time></trkpt><trkpt lat="43.3372613374773" lon="11.479274594899842"><ele>276.0</ele><time>2026-05-02T14:03:07Z</time></trkpt><trkpt lat="43.337394017203714" lon="11.479269663535332"><ele>275.5</ele><time>2026-05-02T14:03:08Z</time></trkpt><trkpt lat="43.337543821093305" lon="11.479255086693847"><ele>275.0</ele><time>2026-05-02T14:03:09Z</time></trkpt><trkpt lat="43.337673532153666" lon="11.479226156766149"><ele>274.5</ele><time>2026-05-02T14:03:10Z</time></trkpt><trkpt lat="43.33778114888872" lon="11.479183083022702"><ele>274.0</ele><time>2026-05-02T14:03:11Z</time></trkpt><trkpt lat="43.337854324217275" lon="11.479094210400133"><ele>274.0</ele><time>2026-05-02T14:03:12Z</time></trkpt><trkpt lat="43.33790902105854" lon="11.478980071061965"><ele>274.0</ele><time>2026-05-02T14:03:13Z</time></trkpt><trkpt lat="43.33793793745519" lon="11.478833298430631"><ele>274.0</ele><time>2026-05-02T14:03:14Z</time></trkpt><trkpt lat="43.33792666900681" lon="11.47867063995519"><ele>274.0</ele><time>2026-05-02T14:03:15Z</time></trkpt><trkpt lat="43.33788752851528" lon="11.478466976955445"><ele>273.0</ele><time>2026-05-02T14:03:16Z</time></trkpt><trkpt lat="43.33782762057459" lon="11.478215266643613"><ele>272.0</ele><time>2026-05-02T14:03:17Z</time></trkpt><trkpt lat="43.33776288381021" lon="11.477929901795493"><ele>271.0</ele><time>2026-05-02T14:03:18Z</time></trkpt><trkpt lat="43.337694599624925" lon="11.477613129106222"><ele>269.3333333333333</ele><time>2026-05-02T14:03:19Z</time></trkpt><trkpt lat="43.33763492386915" lon="11.477326607502249"><ele>267.6666666666667</ele><time>2026-05-02T14:03:20Z</time></trkpt><trkpt lat="43.337577773450185" lon="11.477066681668079"><ele>266.0</ele><time>2026-05-02T14:03:21Z</time></trkpt><trkpt lat="43.33753001775962" lon="11.476829203187311"><ele>265.0</ele><time>2026-05-02T14:03:22Z</time></trkpt><trkpt lat="43.3375043671231" lon="11.476615450567115"><ele>264.0</ele><time>2026-05-02T14:03:23Z</time></trkpt><trkpt lat="43.33750937014706" lon="11.476406173462346"><ele>263.0</ele><time>2026-05-02T14:03:24Z</time></trkpt><trkpt lat="43.337548792688914" lon="11.476173441146278"><ele>262.33333333333337</ele><time>2026-05-02T14:03:25Z</time></trkpt><trkpt lat="43.33762544324352" lon="11.475897676101296"><ele>261.6666666666667</ele><time>2026-05-02T14:03:26Z</time></trkpt><trkpt lat="43.337707237504596" lon="11.475607873677399"><ele>261.0</ele><time>2026-05-02T14:03:27Z</time></trkpt><trkpt lat="43.33775577430805" lon="11.47532481166612"><ele>258.3333333333333</ele><time>2026-05-02T14:03:28Z</time></trkpt><trkpt lat="43.33778642204873" lon="11.475053716031645"><ele>255.66666666666666</ele><time>2026-05-02T14:03:29Z</time></trkpt><trkpt lat="43.33783146098553" lon="11.474795571156113"><ele>253.0</ele><time>2026-05-02T14:03:30Z</time></trkpt><trkpt lat="43.33787340736397" lon="11.474555344308726"><ele>252.0</ele><time>2026-05-02T14:03:31Z</time></trkpt><trkpt lat="43.33794477235918" lon="11.474341829816598"><ele>251.0</ele><time>2026-05-02T14:03:32Z</time></trkpt><trkpt lat="43.33802280726265" lon="11.474166395652693"><ele>250.0</ele><time>2026-05-02T14:03:33Z</time></trkpt><trkpt lat="43.33813019842916" lon="11.474023935775863"><ele>250.0</ele><time>2026-05-02T14:03:34Z</time></trkpt><trkpt lat="43.33828266074628" lon="11.473940733174361"><ele>250.0</ele><time>2026-05-02T14:03:35Z</time></trkpt><trkpt lat="43.33844742045015" lon="11.473879768831454"><ele>250.0</ele><time>2026-05-02T14:03:36Z</time></trkpt><trkpt lat="43.338624447265985" lon="11.473849464993485"><ele>250.0</ele><time>2026-05-02T14:03:37.001Z</time></trkpt><trkpt lat="43.33880029157115" lon="11.473864959563569"><ele>250.0</ele><time>2026-05-02T14:03:38.001Z</time></trkpt><trkpt lat="43.339365579952634" lon="11.473369337796278"><ele>245.66666666666666</ele><time>2026-05-02T14:03:42.001Z</time></trkpt><trkpt lat="43.33947755680469" lon="11.473113873609108"><ele>241.33333333333331</ele><time>2026-05-02T14:03:43.001Z</time></trkpt><trkpt lat="43.33960210133691" lon="11.472862849334565"><ele>237.0</ele><time>2026-05-02T14:03:44.001Z</time></trkpt><trkpt lat="43.33974530979252" lon="11.472606762994458"><ele>233.5</ele><time>2026-05-02T14:03:45.001Z</time></trkpt><trkpt lat="43.339887776833365" lon="11.472353053841864"><ele>230.0</ele><time>2026-05-02T14:03:46.001Z</time></trkpt><trkpt lat="43.340011688796345" lon="11.472103654447306"><ele>230.0</ele><time>2026-05-02T14:03:47.001Z</time></trkpt><trkpt lat="43.34009732925142" lon="11.471871528984218"><ele>230.0</ele><time>2026-05-02T14:03:48.001Z</time></trkpt><trkpt lat="43.34012980437094" lon="11.471647593453696"><ele>230.0</ele><time>2026-05-02T14:03:49.001Z</time></trkpt><trkpt lat="43.34012087051992" lon="11.47142423811777"><ele>231.0</ele><time>2026-05-02T14:03:50.001Z</time></trkpt><trkpt lat="43.34007437578987" lon="11.471194323477986"><ele>232.0</ele><time>2026-05-02T14:03:51.001Z</time></trkpt><trkpt lat="43.3399991683828" lon="11.47096250489577"><ele>233.0</ele><time>2026-05-02T14:03:52.001Z</time></trkpt><trkpt lat="43.3399072393883" lon="11.47071812970313"><ele>233.0</ele><time>2026-05-02T14:03:53.001Z</time></trkpt><trkpt lat="43.339838417432155" lon="11.470506349756974"><ele>233.0</ele><time>2026-05-02T14:03:54.001Z</time></trkpt><trkpt lat="43.33981866279206" lon="11.470315757085714"><ele>233.0</ele><time>2026-05-02T14:03:55.001Z</time></trkpt><trkpt lat="43.33983530389516" lon="11.470085835643928"><ele>232.66666666666669</ele><time>2026-05-02T14:03:56.001Z</time></trkpt><trkpt lat="43.339901319400006" lon="11.46982527052372"><ele>232.33333333333331</ele><time>2026-05-02T14:03:57.001Z</time></trkpt><trkpt lat="43.34000640712267" lon="11.469576561608722"><ele>232.0</ele><time>2026-05-02T14:03:58.001Z</time></trkpt><trkpt lat="43.340128394027495" lon="11.469387395651523"><ele>232.0</ele><time>2026-05-02T14:03:59.001Z</time></trkpt><trkpt lat="43.340252186088996" lon="11.469260251305872"><ele>232.0</ele><time>2026-05-02T14:04:00.001Z</time></trkpt><trkpt lat="43.340387054730755" lon="11.469187510673951"><ele>232.0</ele><time>2026-05-02T14:04:01.001Z</time></trkpt><trkpt lat="43.340534847231446" lon="11.469149160197583"><ele>234.0</ele><time>2026-05-02T14:04:02.001Z</time></trkpt><trkpt lat="43.34068749513324" lon="11.46918204856168"><ele>236.0</ele><time>2026-05-02T14:04:03.001Z</time></trkpt><trkpt lat="43.340849072175395" lon="11.469254600835537"><ele>238.0</ele><time>2026-05-02T14:04:04.001Z</time></trkpt><trkpt lat="43.341020042867626" lon="11.469359986730263"><ele>238.0</ele><time>2026-05-02T14:04:05.001Z</time></trkpt><trkpt lat="43.34118263714219" lon="11.469428113408856"><ele>238.0</ele><time>2026-05-02T14:04:06.001Z</time></trkpt><trkpt lat="43.34134722054792" lon="11.469424778021148"><ele>238.0</ele><time>2026-05-02T14:04:07.001Z</time></trkpt><trkpt lat="43.34151117623792" lon="11.46935834727155"><ele>239.33333333333331</ele><time>2026-05-02T14:04:08.001Z</time></trkpt><trkpt lat="43.34166399882248" lon="11.469251033792254"><ele>240.66666666666669</ele><time>2026-05-02T14:04:09.001Z</time></trkpt><trkpt lat="43.34177722251141" lon="11.46911502815164"><ele>242.0</ele><time>2026-05-02T14:04:10.002Z</time></trkpt><trkpt lat="43.34184298342587" lon="11.46896289979135"><ele>241.66666666666669</ele><time>2026-05-02T14:04:11.002Z</time></trkpt><trkpt lat="43.34187917306318" lon="11.468758409481891"><ele>241.33333333333331</ele><time>2026-05-02T14:04:12.002Z</time></trkpt><trkpt lat="43.34188744326111" lon="11.468506401833992"><ele>241.0</ele><time>2026-05-02T14:04:13.002Z</time></trkpt><trkpt lat="43.34186903478681" lon="11.468221404948629"><ele>244.0</ele><time>2026-05-02T14:04:14.002Z</time></trkpt><trkpt lat="43.3418428884352" lon="11.467909987082688"><ele>247.0</ele><time>2026-05-02T14:04:15.002Z</time></trkpt><trkpt lat="43.341824978931804" lon="11.467591678421421"><ele>247.0</ele><time>2026-05-02T14:04:16.002Z</time></trkpt><trkpt lat="43.34181359284535" lon="11.467274268126033"><ele>247.0</ele><time>2026-05-02T14:04:17.002Z</time></trkpt><trkpt lat="43.34180520197591" lon="11.466954048737842"><ele>250.0</ele><time>2026-05-02T14:04:18.002Z</time></trkpt><trkpt lat="43.34179403884667" lon="11.466640882339018"><ele>253.0</ele><time>2026-05-02T14:04:19.002Z</time></trkpt><trkpt lat="43.34174328110948" lon="11.466332765565651"><ele>254.0</ele><time>2026-05-02T14:04:20.002Z</time></trkpt><trkpt lat="43.34165447414837" lon="11.466034435407334"><ele>255.0</ele><time>2026-05-02T14:04:21.002Z</time></trkpt><trkpt lat="43.341538606031335" lon="11.465780779825558"><ele>255.0</ele><time>2026-05-02T14:04:22.002Z</time></trkpt><trkpt lat="43.3414465525918" lon="11.465583117042875"><ele>255.0</ele><time>2026-05-02T14:04:23.002Z</time></trkpt><trkpt lat="43.34140706694461" lon="11.465410233237131"><ele>255.0</ele><time>2026-05-02T14:04:24.002Z</time></trkpt><trkpt lat="43.341423443416986" lon="11.46523572884259"><ele>255.0</ele><time>2026-05-02T14:04:25.002Z</time></trkpt><trkpt lat="43.34149177786367" lon="11.465089981587143"><ele>255.5</ele><time>2026-05-02T14:04:26.002Z</time></trkpt><trkpt lat="43.34159985192402" lon="11.464982616317135"><ele>256.0</ele><time>2026-05-02T14:04:27.002Z</time></trkpt><trkpt lat="43.34173294151215" lon="11.464912795843247"><ele>256.5</ele><time>2026-05-02T14:04:28.002Z</time></trkpt><trkpt lat="43.34187371959942" lon="11.464911978478474"><ele>257.0</ele><time>2026-05-02T14:04:29.002Z</time></trkpt><trkpt lat="43.3420056765762" lon="11.46498693084442"><ele>257.0</ele><time>2026-05-02T14:04:30.002Z</time></trkpt><trkpt lat="43.34213605748355" lon="11.465118706128102"><ele>257.0</ele><time>2026-05-02T14:04:31.002Z</time></trkpt><trkpt lat="43.34226414927221" lon="11.465293995825997"><ele>257.0</ele><time>2026-05-02T14:04:32.002Z</time></trkpt><trkpt lat="43.34240559435451" lon="11.465473812874256"><ele>258.0</ele><time>2026-05-02T14:04:33.002Z</time></trkpt><trkpt lat="43.3425524414627" lon="11.465626263968778"><ele>259.0</ele><time>2026-05-02T14:04:34.002Z</time></trkpt><trkpt lat="43.342699132452275" lon="11.465713627284286"><ele>260.0</ele><time>2026-05-02T14:04:35.002Z</time></trkpt><trkpt lat="43.34284293937597" lon="11.465717098215583"><ele>260.0</ele><time>2026-05-02T14:04:36.002Z</time></trkpt><trkpt lat="43.34298789274783" lon="11.465657132518214"><ele>260.0</ele><time>2026-05-02T14:04:37.002Z</time></trkpt><trkpt lat="43.34314270967916" lon="11.465544503015403"><ele>260.0</ele><time>2026-05-02T14:04:38.002Z</time></trkpt><trkpt lat="43.34332379781255" lon="11.465419632730264"><ele>261.6666666666667</ele><time>2026-05-02T14:04:39.002Z</time></trkpt><trkpt lat="43.34352530419424" lon="11.465349193731544"><ele>263.3333333333333</ele><time>2026-05-02T14:04:40.002Z</time></trkpt><trkpt lat="43.34373376500045" lon="11.4653736954112"><ele>265.0</ele><time>2026-05-02T14:04:41.002Z</time></trkpt><trkpt lat="43.34396986263449" lon="11.465436899468498"><ele>264.5</ele><time>2026-05-02T14:04:42.002Z</time></trkpt><trkpt lat="43.34422364678176" lon="11.465514156812686"><ele>264.0</ele><time>2026-05-02T14:04:43.003Z</time></trkpt><trkpt lat="43.34448609404918" lon="11.465588228588873"><ele>268.0</ele><time>2026-05-02T14:04:44.003Z</time></trkpt><trkpt lat="43.34474380023007" lon="11.46565346817568"><ele>272.0</ele><time>2026-05-02T14:04:45.003Z</time></trkpt><trkpt lat="43.34497246764154" lon="11.465728841997903"><ele>272.0</ele><time>2026-05-02T14:04:46.003Z</time></trkpt><trkpt lat="43.34518243893915" lon="11.465837476097724"><ele>272.0</ele><time>2026-05-02T14:04:47.003Z</time></trkpt><trkpt lat="43.34533394329132" lon="11.465963315131155"><ele>272.0</ele><time>2026-05-02T14:04:48.003Z</time></trkpt><trkpt lat="43.34546973617023" lon="11.466052592128444"><ele>273.6666666666667</ele><time>2026-05-02T14:04:49.003Z</time></trkpt><trkpt lat="43.345607123967426" lon="11.466079665032602"><ele>275.3333333333333</ele><time>2026-05-02T14:04:50.003Z</time></trkpt><trkpt lat="43.3457621409301" lon="11.466045300704506"><ele>277.0</ele><time>2026-05-02T14:04:51.003Z</time></trkpt><trkpt lat="43.3459417941592" lon="11.465971146394546"><ele>277.0</ele><time>2026-05-02T14:04:52.003Z</time></trkpt><trkpt lat="43.346149242190926" lon="11.46590481940658"><ele>277.0</ele><time>2026-05-02T14:04:53.003Z</time></trkpt><trkpt lat="43.34635998709324" lon="11.465899893245789"><ele>277.0</ele><time>2026-05-02T14:04:54.003Z</time></trkpt><trkpt lat="43.34654046911727" lon="11.4659171646376"><ele>276.66666666666663</ele><time>2026-05-02T14:04:55.003Z</time></trkpt><trkpt lat="43.34671188458068" lon="11.465882222961637"><ele>276.3333333333333</ele><time>2026-05-02T14:04:56.003Z</time></trkpt><trkpt lat="43.34687375925595" lon="11.465796062441262"><ele>276.0</ele><time>2026-05-02T14:04:57.003Z</time></trkpt><trkpt lat="43.34702047500759" lon="11.465623402278142"><ele>274.5</ele><time>2026-05-02T14:04:58.003Z</time></trkpt><trkpt lat="43.34717183998158" lon="11.465401069160128"><ele>273.0</ele><time>2026-05-02T14:04:59.003Z</time></trkpt><trkpt lat="43.34732412867715" lon="11.465157661783437"><ele>274.3333333333333</ele><time>2026-05-02T14:05:00.003Z</time></trkpt><trkpt lat="43.34746350742714" lon="11.464923683500796"><ele>275.66666666666663</ele><time>2026-05-02T14:05:01.003Z</time></trkpt><trkpt lat="43.34758499276922" lon="11.464734771688075"><ele>277.0</ele><time>2026-05-02T14:05:02.003Z</time></trkpt><trkpt lat="43.3477083349312" lon="11.464601032036237"><ele>277.0</ele><time>2026-05-02T14:05:03.003Z</time></trkpt><trkpt lat="43.34784077833885" lon="11.464524602481093"><ele>277.0</ele><time>2026-05-02T14:05:04.003Z</time></trkpt><trkpt lat="43.348002048411615" lon="11.464485409852195"><ele>277.0</ele><time>2026-05-02T14:05:05.003Z</time></trkpt><trkpt lat="43.34818922944095" lon="11.464470860613787"><ele>280.0</ele><time>2026-05-02T14:05:06.003Z</time></trkpt><trkpt lat="43.348398316260266" lon="11.4644585186385"><ele>283.0</ele><time>2026-05-02T14:05:07.003Z</time></trkpt><trkpt lat="43.3486146297459" lon="11.464455905215845"><ele>286.0</ele><time>2026-05-02T14:05:08.003Z</time></trkpt><trkpt lat="43.34879806062572" lon="11.464462200478629"><ele>288.0</ele><time>2026-05-02T14:05:09.003Z</time></trkpt><trkpt lat="43.34894916230817" lon="11.464494504762332"><ele>290.0</ele><time>2026-05-02T14:05:10.003Z</time></trkpt><trkpt lat="43.34910664272928" lon="11.46458489306277"><ele>292.0</ele><time>2026-05-02T14:05:11.003Z</time></trkpt><trkpt lat="43.349269241859595" lon="11.464768985383657"><ele>296.0</ele><time>2026-05-02T14:05:12Z</time></trkpt><trkpt lat="43.3494077112174" lon="11.464933122922435"><ele>300.0</ele><time>2026-05-02T14:05:13Z</time></trkpt><trkpt lat="43.349534117387186" lon="11.465028171619634"><ele>304.0</ele><time>2026-05-02T14:05:14Z</time></trkpt><trkpt lat="43.3496621105748" lon="11.465073388182322"><ele>305.0</ele><time>2026-05-02T14:05:15Z</time></trkpt><trkpt lat="43.34979231134236" lon="11.465059721468656"><ele>306.0</ele><time>2026-05-02T14:05:16Z</time></trkpt><trkpt lat="43.349915452193834" lon="11.464967468526371"><ele>307.0</ele><time>2026-05-02T14:05:17Z</time></trkpt><trkpt lat="43.34999981979252" lon="11.46483950823923"><ele>308.0</ele><time>2026-05-02T14:05:18Z</time></trkpt><trkpt lat="43.35005682541795" lon="11.464649403627314"><ele>306.0</ele><time>2026-05-02T14:05:19Z</time></trkpt><trkpt lat="43.35009606283889" lon="11.464422274584992"><ele>304.0</ele><time>2026-05-02T14:05:20Z</time></trkpt><trkpt lat="43.35012391580744" lon="11.464202470618918"><ele>302.0</ele><time>2026-05-02T14:05:21Z</time></trkpt><trkpt lat="43.35019196949098" lon="11.464039283564267"><ele>302.0</ele><time>2026-05-02T14:05:22Z</time></trkpt><trkpt lat="43.35032350263659" lon="11.463896343357678"><ele>302.0</ele><time>2026-05-02T14:05:23Z</time></trkpt><trkpt lat="43.35046696204641" lon="11.463799353585728"><ele>302.0</ele><time>2026-05-02T14:05:24Z</time></trkpt><trkpt lat="43.35055274415227" lon="11.463697536281487"><ele>302.0</ele><time>2026-05-02T14:05:25Z</time></trkpt><trkpt lat="43.350572022402154" lon="11.46355264330404"><ele>301.0</ele><time>2026-05-02T14:05:26Z</time></trkpt><trkpt lat="43.350536874206234" lon="11.463365212808236"><ele>300.0</ele><time>2026-05-02T14:05:27Z</time></trkpt><trkpt lat="43.35045589126551" lon="11.463166216609443"><ele>299.0</ele><time>2026-05-02T14:05:28Z</time></trkpt><trkpt lat="43.35033733171455" lon="11.462993667129437"><ele>300.59999999999997</ele><time>2026-05-02T14:05:29Z</time></trkpt><trkpt lat="43.35021017664818" lon="11.462882675279356"><ele>302.2</ele><time>2026-05-02T14:05:30Z</time></trkpt><trkpt lat="43.35011902347614" lon="11.462784842293754"><ele>303.79999999999995</ele><time>2026-05-02T14:05:31Z</time></trkpt><trkpt lat="43.35008674905805" lon="11.462677057335599"><ele>305.4</ele><time>2026-05-02T14:05:32Z</time></trkpt><trkpt lat="43.350104886491984" lon="11.462563065935848"><ele>307.0</ele><time>2026-05-02T14:05:33Z</time></trkpt><trkpt lat="43.35016195784878" lon="11.462462642959435"><ele>307.0</ele><time>2026-05-02T14:05:34Z</time></trkpt><trkpt lat="43.35027162491138" lon="11.46240509711211"><ele>307.0</ele><time>2026-05-02T14:05:35Z</time></trkpt><trkpt lat="43.35043964914652" lon="11.462358626574666"><ele>307.0</ele><time>2026-05-02T14:05:36Z</time></trkpt><trkpt lat="43.35061038654956" lon="11.46227393893749"><ele>307.0</ele><time>2026-05-02T14:05:37Z</time></trkpt><trkpt lat="43.35079448008881" lon="11.462202155488283"><ele>307.0</ele><time>2026-05-02T14:05:38Z</time></trkpt><trkpt lat="43.350989605766685" lon="11.462081635893036"><ele>307.0</ele><time>2026-05-02T14:05:39Z</time></trkpt><trkpt lat="43.35116018721082" lon="11.461933940753134"><ele>307.0</ele><time>2026-05-02T14:05:40Z</time></trkpt><trkpt lat="43.35130554668594" lon="11.461811719404182"><ele>307.0</ele><time>2026-05-02T14:05:41Z</time></trkpt><trkpt lat="43.35143182990079" lon="11.46175381337661"><ele>307.0</ele><time>2026-05-02T14:05:42.001Z</time></trkpt><trkpt lat="43.35155379962665" lon="11.461806107780701"><ele>307.0</ele><time>2026-05-02T14:05:43.001Z</time></trkpt><trkpt lat="43.35168858002906" lon="11.461857595839035"><ele>309.0</ele><time>2026-05-02T14:05:44.001Z</time></trkpt><trkpt lat="43.351826591347496" lon="11.461916065097414"><ele>311.0</ele><time>2026-05-02T14:05:45.001Z</time></trkpt><trkpt lat="43.35197486815633" lon="11.461929263149418"><ele>313.0</ele><time>2026-05-02T14:05:46.001Z</time></trkpt><trkpt lat="43.3521276316131" lon="11.461852871893427"><ele>314.3333333333333</ele><time>2026-05-02T14:05:47.001Z</time></trkpt><trkpt lat="43.35227847157248" lon="11.461714407276707"><ele>315.6666666666667</ele><time>2026-05-02T14:05:48.001Z</time></trkpt><trkpt lat="43.35244856947508" lon="11.46163335846353"><ele>317.0</ele><time>2026-05-02T14:05:49.001Z</time></trkpt><trkpt lat="43.352599469313446" lon="11.461584113930863"><ele>317.0</ele><time>2026-05-02T14:05:50.001Z</time></trkpt><trkpt lat="43.352734361919204" lon="11.461562956679773"><ele>317.0</ele><time>2026-05-02T14:05:51.001Z</time></trkpt><trkpt lat="43.352828495210595" lon="11.461528336411167"><ele>317.0</ele><time>2026-05-02T14:05:52.001Z</time></trkpt><trkpt lat="43.35288853378522" lon="11.461419250061617"><ele>317.0</ele><time>2026-05-02T14:05:53.001Z</time></trkpt><trkpt lat="43.352918005604955" lon="11.46124148399821"><ele>316.0</ele><time>2026-05-02T14:05:54.001Z</time></trkpt><trkpt lat="43.35292231208307" lon="11.461005212039144"><ele>315.0</ele><time>2026-05-02T14:05:55.001Z</time></trkpt><trkpt lat="43.35292966659801" lon="11.460814053922975"><ele>314.0</ele><time>2026-05-02T14:05:56.001Z</time></trkpt><trkpt lat="43.353026986457785" lon="11.46069634259347"><ele>313.0</ele><time>2026-05-02T14:05:57.001Z</time></trkpt><trkpt lat="43.35313411596845" lon="11.460601131599914"><ele>313.0</ele><time>2026-05-02T14:05:58.001Z</time></trkpt><trkpt lat="43.35328786138286" lon="11.460635883669218"><ele>313.0</ele><time>2026-05-02T14:05:59.001Z</time></trkpt><trkpt lat="43.35346188452751" lon="11.46062606074912"><ele>313.0</ele><time>2026-05-02T14:06:00.001Z</time></trkpt><trkpt lat="43.35360288466368" lon="11.460633152801716"><ele>313.0</ele><time>2026-05-02T14:06:01.001Z</time></trkpt><trkpt lat="43.353715584936836" lon="11.46057830516356"><ele>313.0</ele><time>2026-05-02T14:06:02.001Z</time></trkpt><trkpt lat="43.353785122267794" lon="11.460466426710699"><ele>313.0</ele><time>2026-05-02T14:06:03.001Z</time></trkpt><trkpt lat="43.35380376035016" lon="11.460305867881749"><ele>313.0</ele><time>2026-05-02T14:06:04.001Z</time></trkpt><trkpt lat="43.35376816726826" lon="11.460150407961525"><ele>308.3333333333333</ele><time>2026-05-02T14:06:05.001Z</time></trkpt><trkpt lat="43.35368474031512" lon="11.460006297022804"><ele>303.6666666666667</ele><time>2026-05-02T14:06:06.001Z</time></trkpt><trkpt lat="43.35355859394853" lon="11.459857991207773"><ele>299.0</ele><time>2026-05-02T14:06:07.001Z</time></trkpt><trkpt lat="43.35341909283094" lon="11.45969531494848"><ele>299.0</ele><time>2026-05-02T14:06:08.001Z</time></trkpt><trkpt lat="43.35328540731867" lon="11.459483546632637"><ele>299.0</ele><time>2026-05-02T14:06:09.001Z</time></trkpt><trkpt lat="43.353122042447126" lon="11.45927333096632"><ele>299.0</ele><time>2026-05-02T14:06:10.001Z</time></trkpt><trkpt lat="43.352987994878085" lon="11.458986335143111"><ele>291.5</ele><time>2026-05-02T14:06:11.001Z</time></trkpt><trkpt lat="43.3528556099682" lon="11.458664992630897"><ele>284.0</ele><time>2026-05-02T14:06:12.001Z</time></trkpt><trkpt lat="43.35271925742651" lon="11.458322717914896"><ele>284.0</ele><time>2026-05-02T14:06:13.001Z</time></trkpt><trkpt lat="43.35257045753095" lon="11.457978515382543"><ele>284.0</ele><time>2026-05-02T14:06:14.001Z</time></trkpt><trkpt lat="43.35244888992205" lon="11.457640680562905"><ele>283.6666666666667</ele><time>2026-05-02T14:06:15.002Z</time></trkpt><trkpt lat="43.35236360224057" lon="11.457332431398878"><ele>283.3333333333333</ele><time>2026-05-02T14:06:16.002Z</time></trkpt><trkpt lat="43.35227752588393" lon="11.457073428158084"><ele>283.0</ele><time>2026-05-02T14:06:17.002Z</time></trkpt><trkpt lat="43.35222497344227" lon="11.456858232954708"><ele>281.25</ele><time>2026-05-02T14:06:18.002Z</time></trkpt><trkpt lat="43.352199348007275" lon="11.456683858132337"><ele>279.5</ele><time>2026-05-02T14:06:19.002Z</time></trkpt><trkpt lat="43.35220029895279" lon="11.456517089664"><ele>277.75</ele><time>2026-05-02T14:06:20.002Z</time></trkpt><trkpt lat="43.35226767574192" lon="11.456357517833535"><ele>276.0</ele><time>2026-05-02T14:06:21.002Z</time></trkpt><trkpt lat="43.352345024860945" lon="11.4562093048048"><ele>274.0</ele><time>2026-05-02T14:06:22.002Z</time></trkpt><trkpt lat="43.35242360372135" lon="11.456096892356364"><ele>272.0</ele><time>2026-05-02T14:06:23.002Z</time></trkpt><trkpt lat="43.35252344349808" lon="11.456074717660503"><ele>270.0</ele><time>2026-05-02T14:06:24.002Z</time></trkpt><trkpt lat="43.352641242511716" lon="11.45614942735471"><ele>268.0</ele><time>2026-05-02T14:06:25.002Z</time></trkpt><trkpt lat="43.35277827113257" lon="11.456153911840397"><ele>268.0</ele><time>2026-05-02T14:06:26.002Z</time></trkpt><trkpt lat="43.35291660201671" lon="11.456169254060361"><ele>268.0</ele><time>2026-05-02T14:06:27.002Z</time></trkpt><trkpt lat="43.353039928121845" lon="11.456105563908018"><ele>268.0</ele><time>2026-05-02T14:06:28.002Z</time></trkpt><trkpt lat="43.35313205095698" lon="11.455960496122989"><ele>268.0</ele><time>2026-05-02T14:06:29.002Z</time></trkpt><trkpt lat="43.353212385168334" lon="11.455747804310796"><ele>268.0</ele><time>2026-05-02T14:06:30.002Z</time></trkpt><trkpt lat="43.35327983016608" lon="11.455497254855205"><ele>268.0</ele><time>2026-05-02T14:06:31.002Z</time></trkpt><trkpt lat="43.3533284900272" lon="11.455301255416176"><ele>268.0</ele><time>2026-05-02T14:06:32.002Z</time></trkpt><trkpt lat="43.353394147391434" lon="11.45518169758249"><ele>266.6</ele><time>2026-05-02T14:06:33.002Z</time></trkpt><trkpt lat="43.353455756870645" lon="11.455086238367535"><ele>265.20000000000005</ele><time>2026-05-02T14:06:34.002Z</time></trkpt><trkpt lat="43.353556568223276" lon="11.455062703786073"><ele>263.8</ele><time>2026-05-02T14:06:35.002Z</time></trkpt><trkpt lat="43.353668800496" lon="11.4551005942752"><ele>262.40000000000003</ele><time>2026-05-02T14:06:36.002Z</time></trkpt><trkpt lat="43.353745808466854" lon="11.45523526315062"><ele>261.0</ele><time>2026-05-02T14:06:37.002Z</time></trkpt><trkpt lat="43.35385069911393" lon="11.45538399012008"><ele>261.0</ele><time>2026-05-02T14:06:38.002Z</time></trkpt><trkpt lat="43.353924992503046" lon="11.455545298323237"><ele>261.0</ele><time>2026-05-02T14:06:39.002Z</time></trkpt><trkpt lat="43.353979498057264" lon="11.455617346426514"><ele>261.0</ele><time>2026-05-02T14:06:40.002Z</time></trkpt><trkpt lat="43.35404539675914" lon="11.455621514157876"><ele>261.0</ele><time>2026-05-02T14:06:41.002Z</time></trkpt><trkpt lat="43.35411265547547" lon="11.45557001432095"><ele>261.0</ele><time>2026-05-02T14:06:42.002Z</time></trkpt><trkpt lat="43.3541507214427" lon="11.455459507193678"><ele>261.0</ele><time>2026-05-02T14:06:43.002Z</time></trkpt><trkpt lat="43.354133223867215" lon="11.455297657032503"><ele>261.0</ele><time>2026-05-02T14:06:44.002Z</time></trkpt><trkpt lat="43.35407447002887" lon="11.455082547240416"><ele>261.0</ele><time>2026-05-02T14:06:45.002Z</time></trkpt><trkpt lat="43.35399304597538" lon="11.454821733359612"><ele>261.0</ele><time>2026-05-02T14:06:46.002Z</time></trkpt><trkpt lat="43.353909894265186" lon="11.454523046580654"><ele>257.0</ele><time>2026-05-02T14:06:47.002Z</time></trkpt><trkpt lat="43.353813128858036" lon="11.454184958612238"><ele>253.0</ele><time>2026-05-02T14:06:48.002Z</time></trkpt><trkpt lat="43.35367736837811" lon="11.453824088462458"><ele>251.5</ele><time>2026-05-02T14:06:49.003Z</time></trkpt><trkpt lat="43.3535048797599" lon="11.45348950103461"><ele>250.0</ele><time>2026-05-02T14:06:50.003Z</time></trkpt><trkpt lat="43.35332966365606" lon="11.453209940398384"><ele>250.0</ele><time>2026-05-02T14:06:51.003Z</time></trkpt><trkpt lat="43.35316623303755" lon="11.453020226002176"><ele>250.0</ele><time>2026-05-02T14:06:52.003Z</time></trkpt><trkpt lat="43.35303018824212" lon="11.452843590371675"><ele>250.0</ele><time>2026-05-02T14:06:53.003Z</time></trkpt><trkpt lat="43.35292552476105" lon="11.452631124314271"><ele>246.0</ele><time>2026-05-02T14:06:54.003Z</time></trkpt><trkpt lat="43.35282899841443" lon="11.452406075108462"><ele>242.0</ele><time>2026-05-02T14:06:55.003Z</time></trkpt><trkpt lat="43.352747505576126" lon="11.452169691540812"><ele>238.0</ele><time>2026-05-02T14:06:56.003Z</time></trkpt><trkpt lat="43.3526930949292" lon="11.451936128943212"><ele>235.66666666666666</ele><time>2026-05-02T14:06:57.003Z</time></trkpt><trkpt lat="43.3526878011379" lon="11.451673999473764"><ele>233.33333333333331</ele><time>2026-05-02T14:06:58.003Z</time></trkpt><trkpt lat="43.352720110570516" lon="11.451359511945858"><ele>231.0</ele><time>2026-05-02T14:06:59.003Z</time></trkpt><trkpt lat="43.352756685804884" lon="11.451007813136929"><ele>229.0</ele><time>2026-05-02T14:07:00.003Z</time></trkpt><trkpt lat="43.35278636926722" lon="11.450637869815266"><ele>227.0</ele><time>2026-05-02T14:07:01.003Z</time></trkpt><trkpt lat="43.35283048034972" lon="11.450272241364665"><ele>226.66666666666669</ele><time>2026-05-02T14:07:02.003Z</time></trkpt><trkpt lat="43.35286373129681" lon="11.449970823955603"><ele>226.33333333333331</ele><time>2026-05-02T14:07:03.003Z</time></trkpt><trkpt lat="43.35288465318834" lon="11.449726308045891"><ele>226.0</ele><time>2026-05-02T14:07:04.003Z</time></trkpt><trkpt lat="43.35287583972847" lon="11.44952889724267"><ele>228.0</ele><time>2026-05-02T14:07:05.003Z</time></trkpt><trkpt lat="43.35282428388599" lon="11.449349628332087"><ele>230.0</ele><time>2026-05-02T14:07:06.003Z</time></trkpt><trkpt lat="43.35273185646083" lon="11.44917931344263"><ele>232.0</ele><time>2026-05-02T14:07:07.003Z</time></trkpt><trkpt lat="43.35259964195557" lon="11.44903252258918"><ele>232.0</ele><time>2026-05-02T14:07:08.003Z</time></trkpt><trkpt lat="43.35242573947296" lon="11.448916473274668"><ele>232.0</ele><time>2026-05-02T14:07:09.003Z</time></trkpt><trkpt lat="43.35223362141312" lon="11.44879597611651"><ele>232.0</ele><time>2026-05-02T14:07:10.003Z</time></trkpt><trkpt lat="43.35206639179999" lon="11.448692551016606"><ele>232.5</ele><time>2026-05-02T14:07:11.003Z</time></trkpt><trkpt lat="43.351948979766426" lon="11.448581491784294"><ele>233.0</ele><time>2026-05-02T14:07:12.003Z</time></trkpt><trkpt lat="43.35187700909018" lon="11.448426283771154"><ele>233.5</ele><time>2026-05-02T14:07:13.003Z</time></trkpt><trkpt lat="43.35184104629215" lon="11.44820752019244"><ele>234.0</ele><time>2026-05-02T14:07:14.003Z</time></trkpt><trkpt lat="43.35182120466673" lon="11.44795530254787"><ele>234.0</ele><time>2026-05-02T14:07:15.003Z</time></trkpt><trkpt lat="43.35181529396527" lon="11.447652398522324"><ele>234.0</ele><time>2026-05-02T14:07:16.003Z</time></trkpt><trkpt lat="43.35179926600371" lon="11.447329803288397"><ele>234.5</ele><time>2026-05-02T14:07:17.003Z</time></trkpt><trkpt lat="43.35180914915227" lon="11.446981480411955"><ele>235.0</ele><time>2026-05-02T14:07:18Z</time></trkpt><trkpt lat="43.35180515312036" lon="11.44660157827201"><ele>237.5</ele><time>2026-05-02T14:07:19Z</time></trkpt><trkpt lat="43.35179400898523" lon="11.446240515306984"><ele>240.0</ele><time>2026-05-02T14:07:20Z</time></trkpt><trkpt lat="43.351795033987045" lon="11.445913292105782"><ele>240.0</ele><time>2026-05-02T14:07:21Z</time></trkpt><trkpt lat="43.351788212022356" lon="11.445587581290564"><ele>240.0</ele><time>2026-05-02T14:07:22Z</time></trkpt><trkpt lat="43.35178050184326" lon="11.44529509487432"><ele>241.33333333333331</ele><time>2026-05-02T14:07:23Z</time></trkpt><trkpt lat="43.35176519831771" lon="11.4450228217964"><ele>242.66666666666666</ele><time>2026-05-02T14:07:24Z</time></trkpt><trkpt lat="43.351727173603734" lon="11.444771571331106"><ele>244.0</ele><time>2026-05-02T14:07:25Z</time></trkpt><trkpt lat="43.35167302831767" lon="11.444547500581178"><ele>244.66666666666666</ele><time>2026-05-02T14:07:26Z</time></trkpt><trkpt lat="43.351612060187605" lon="11.444345966696304"><ele>245.33333333333331</ele><time>2026-05-02T14:07:27Z</time></trkpt><trkpt lat="43.35156454594119" lon="11.444145499424993"><ele>246.0</ele><time>2026-05-02T14:07:28Z</time></trkpt><trkpt lat="43.351534958400684" lon="11.443917459282702"><ele>244.25</ele><time>2026-05-02T14:07:29Z</time></trkpt><trkpt lat="43.351525494544276" lon="11.443708006667466"><ele>242.5</ele><time>2026-05-02T14:07:30Z</time></trkpt><trkpt lat="43.35153408130784" lon="11.443530007553218"><ele>240.75</ele><time>2026-05-02T14:07:31Z</time></trkpt><trkpt lat="43.351573077163515" lon="11.44337525183848"><ele>239.0</ele><time>2026-05-02T14:07:32Z</time></trkpt><trkpt lat="43.351654111171165" lon="11.443246682181465"><ele>239.0</ele><time>2026-05-02T14:07:33Z</time></trkpt><trkpt lat="43.35179835517184" lon="11.443163637581232"><ele>239.0</ele><time>2026-05-02T14:07:34Z</time></trkpt><trkpt lat="43.3519878414774" lon="11.44308828801089"><ele>239.0</ele><time>2026-05-02T14:07:35Z</time></trkpt><trkpt lat="43.35221072594452" lon="11.44301583106184"><ele>236.66666666666669</ele><time>2026-05-02T14:07:36Z</time></trkpt><trkpt lat="43.35242204213175" lon="11.442951321543806"><ele>234.33333333333331</ele><time>2026-05-02T14:07:37Z</time></trkpt><trkpt lat="43.35257961343295" lon="11.442923226260001"><ele>232.0</ele><time>2026-05-02T14:07:38Z</time></trkpt><trkpt lat="43.352694289086905" lon="11.442870352927931"><ele>232.0</ele><time>2026-05-02T14:07:39Z</time></trkpt><trkpt lat="43.3527959217904" lon="11.442767130958032"><ele>232.0</ele><time>2026-05-02T14:07:40Z</time></trkpt><trkpt lat="43.352856754697" lon="11.442624897090065"><ele>232.0</ele><time>2026-05-02T14:07:41Z</time></trkpt><trkpt lat="43.35286357020974" lon="11.442446535523969"><ele>232.0</ele><time>2026-05-02T14:07:42Z</time></trkpt><trkpt lat="43.35283019135914" lon="11.442227275639135"><ele>234.66666666666666</ele><time>2026-05-02T14:07:43Z</time></trkpt><trkpt lat="43.35276455736827" lon="11.44198140694423"><ele>237.33333333333331</ele><time>2026-05-02T14:07:44Z</time></trkpt><trkpt lat="43.35266096200578" lon="11.441728690463519"><ele>240.0</ele><time>2026-05-02T14:07:45Z</time></trkpt><trkpt lat="43.35253018394221" lon="11.44151580654968"><ele>240.0</ele><time>2026-05-02T14:07:46Z</time></trkpt><trkpt lat="43.352393127529986" lon="11.441365426449245"><ele>240.0</ele><time>2026-05-02T14:07:47.001Z</time></trkpt><trkpt lat="43.352227200333594" lon="11.441246183817377"><ele>240.0</ele><time>2026-05-02T14:07:48.001Z</time></trkpt><trkpt lat="43.3520281891376" lon="11.441174357591875"><ele>241.25</ele><time>2026-05-02T14:07:49.001Z</time></trkpt><trkpt lat="43.351834083363016" lon="11.441138023145925"><ele>242.5</ele><time>2026-05-02T14:07:50.001Z</time></trkpt><trkpt lat="43.35169332346846" lon="11.441141549856129"><ele>243.75</ele><time>2026-05-02T14:07:51.001Z</time></trkpt><trkpt lat="43.351587156728804" lon="11.441119050668954"><ele>245.0</ele><time>2026-05-02T14:07:52.001Z</time></trkpt><trkpt lat="43.35151032117638" lon="11.441035313755116"><ele>245.0</ele><time>2026-05-02T14:07:53.001Z</time></trkpt><trkpt lat="43.35144408834071" lon="11.440888638036554"><ele>245.0</ele><time>2026-05-02T14:07:54.001Z</time></trkpt><trkpt lat="43.351398895170895" lon="11.440691062900598"><ele>245.0</ele><time>2026-05-02T14:07:55.001Z</time></trkpt><trkpt lat="43.35137925881133" lon="11.440483455803522"><ele>245.0</ele><time>2026-05-02T14:07:56.001Z</time></trkpt><trkpt lat="43.35138852965026" lon="11.440316209263257"><ele>246.33333333333334</ele><time>2026-05-02T14:07:57.001Z</time></trkpt><trkpt lat="43.351401846091804" lon="11.440192739944685"><ele>247.66666666666669</ele><time>2026-05-02T14:07:58.001Z</time></trkpt><trkpt lat="43.35141687098279" lon="11.440069662814999"><ele>249.0</ele><time>2026-05-02T14:07:59.001Z</time></trkpt><trkpt lat="43.351441189746055" lon="11.439934875563857"><ele>250.33333333333331</ele><time>2026-05-02T14:08:00.001Z</time></trkpt><trkpt lat="43.35147423803845" lon="11.439823854804581"><ele>251.66666666666666</ele><time>2026-05-02T14:08:01.001Z</time></trkpt><trkpt lat="43.35151615153002" lon="11.439744420666518"><ele>253.0</ele><time>2026-05-02T14:08:02.001Z</time></trkpt><trkpt lat="43.35158158284024" lon="11.439637495901804"><ele>252.33333333333331</ele><time>2026-05-02T14:08:03.001Z</time></trkpt><trkpt lat="43.35170840234558" lon="11.439562941199767"><ele>251.66666666666669</ele><time>2026-05-02T14:08:04.001Z</time></trkpt><trkpt lat="43.351874910739625" lon="11.43943812757081"><ele>251.0</ele><time>2026-05-02T14:08:05.001Z</time></trkpt><trkpt lat="43.35206494567841" lon="11.43940109743922"><ele>253.33333333333334</ele><time>2026-05-02T14:08:06.001Z</time></trkpt><trkpt lat="43.352239986250844" lon="11.439357902785437"><ele>255.66666666666669</ele><time>2026-05-02T14:08:07.001Z</time></trkpt><trkpt lat="43.35236569853454" lon="11.439303061192179"><ele>258.0</ele><time>2026-05-02T14:08:08.001Z</time></trkpt><trkpt lat="43.35248821059451" lon="11.439186496970466"><ele>258.0</ele><time>2026-05-02T14:08:09.001Z</time></trkpt><trkpt lat="43.352618096972115" lon="11.439004737914333"><ele>258.0</ele><time>2026-05-02T14:08:10.001Z</time></trkpt><trkpt lat="43.35276929994765" lon="11.438789629939965"><ele>258.0</ele><time>2026-05-02T14:08:11.001Z</time></trkpt><trkpt lat="43.35294331642098" lon="11.438658524662426"><ele>260.3333333333333</ele><time>2026-05-02T14:08:12.001Z</time></trkpt><trkpt lat="43.353098381736324" lon="11.438516374728456"><ele>262.66666666666663</ele><time>2026-05-02T14:08:13.001Z</time></trkpt><trkpt lat="43.35324937835292" lon="11.438433356498516"><ele>265.0</ele><time>2026-05-02T14:08:14.001Z</time></trkpt><trkpt lat="43.35339471411335" lon="11.438372591685345"><ele>265.0</ele><time>2026-05-02T14:08:15.001Z</time></trkpt><trkpt lat="43.353551835672114" lon="11.438361624770542"><ele>265.0</ele><time>2026-05-02T14:08:16.001Z</time></trkpt><trkpt lat="43.35370173701468" lon="11.4383071714774"><ele>265.0</ele><time>2026-05-02T14:08:17.001Z</time></trkpt><trkpt lat="43.35384733155271" lon="11.438272437044654"><ele>265.3333333333333</ele><time>2026-05-02T14:08:18.001Z</time></trkpt><trkpt lat="43.35399487373583" lon="11.438233884280798"><ele>265.6666666666667</ele><time>2026-05-02T14:08:19.001Z</time></trkpt><trkpt lat="43.35414664496312" lon="11.438194942027682"><ele>266.0</ele><time>2026-05-02T14:08:20.002Z</time></trkpt><trkpt lat="43.35430207274642" lon="11.438161894507079"><ele>266.0</ele><time>2026-05-02T14:08:21.002Z</time></trkpt><trkpt lat="43.354454970923314" lon="11.438134590511519"><ele>266.0</ele><time>2026-05-02T14:08:22.002Z</time></trkpt><trkpt lat="43.354605796877266" lon="11.43812670292342"><ele>266.0</ele><time>2026-05-02T14:08:23.002Z</time></trkpt><trkpt lat="43.354752843286406" lon="11.438132521397726"><ele>266.6666666666667</ele><time>2026-05-02T14:08:24.002Z</time></trkpt><trkpt lat="43.35490067389776" lon="11.438149786360627"><ele>267.3333333333333</ele><time>2026-05-02T14:08:25.002Z</time></trkpt><trkpt lat="43.3550475068881" lon="11.438181149796772"><ele>268.0</ele><time>2026-05-02T14:08:26.002Z</time></trkpt><trkpt lat="43.35519807974493" lon="11.438215111171571"><ele>268.0</ele><time>2026-05-02T14:08:27.002Z</time></trkpt><trkpt lat="43.35534478525225" lon="11.438252188237083"><ele>268.0</ele><time>2026-05-02T14:08:28.002Z</time></trkpt><trkpt lat="43.35550652405623" lon="11.438288327089824"><ele>268.0</ele><time>2026-05-02T14:08:29.002Z</time></trkpt><trkpt lat="43.355675657279754" lon="11.438328622905251"><ele>267.5</ele><time>2026-05-02T14:08:30.002Z</time></trkpt><trkpt lat="43.35583025018898" lon="11.438364717899216"><ele>267.0</ele><time>2026-05-02T14:08:31.002Z</time></trkpt><trkpt lat="43.35597153719502" lon="11.438398973600078"><ele>266.5</ele><time>2026-05-02T14:08:32.002Z</time></trkpt><trkpt lat="43.356107003179964" lon="11.43843210609936"><ele>266.0</ele><time>2026-05-02T14:08:33.002Z</time></trkpt><trkpt lat="43.356256486410366" lon="11.438461991877393"><ele>265.6666666666667</ele><time>2026-05-02T14:08:34.002Z</time></trkpt><trkpt lat="43.35641567228883" lon="11.438498758436412"><ele>265.3333333333333</ele><time>2026-05-02T14:08:35.002Z</time></trkpt><trkpt lat="43.35658563893031" lon="11.438536253117165"><ele>265.0</ele><time>2026-05-02T14:08:36.002Z</time></trkpt><trkpt lat="43.356762643996774" lon="11.438574174338218"><ele>265.0</ele><time>2026-05-02T14:08:37.002Z</time></trkpt><trkpt lat="43.35693316363446" lon="11.438599527214844"><ele>265.0</ele><time>2026-05-02T14:08:38.002Z</time></trkpt><trkpt lat="43.357104850286156" lon="11.438611728116264"><ele>265.0</ele><time>2026-05-02T14:08:39.002Z</time></trkpt><trkpt lat="43.357281861460464" lon="11.438587054018052"><ele>265.0</ele><time>2026-05-02T14:08:40.002Z</time></trkpt><trkpt lat="43.357489451846504" lon="11.438522036718178"><ele>265.0</ele><time>2026-05-02T14:08:41.002Z</time></trkpt><trkpt lat="43.35771167548329" lon="11.438444753250662"><ele>265.0</ele><time>2026-05-02T14:08:42.002Z</time></trkpt><trkpt lat="43.3579059884901" lon="11.438377977629484"><ele>265.66666666666663</ele><time>2026-05-02T14:08:43.002Z</time></trkpt><trkpt lat="43.35806271124196" lon="11.438317490188444"><ele>266.3333333333333</ele><time>2026-05-02T14:08:44.002Z</time></trkpt><trkpt lat="43.3581917929707" lon="11.438225823334179"><ele>267.0</ele><time>2026-05-02T14:08:45.002Z</time></trkpt><trkpt lat="43.358296804141425" lon="11.438092508471971"><ele>267.6666666666667</ele><time>2026-05-02T14:08:46.002Z</time></trkpt><trkpt lat="43.35837664016768" lon="11.437883010315918"><ele>268.33333333333337</ele><time>2026-05-02T14:08:47.002Z</time></trkpt><trkpt lat="43.35842951202613" lon="11.437652756943237"><ele>269.0</ele><time>2026-05-02T14:08:48.002Z</time></trkpt><trkpt lat="43.3584464561761" lon="11.437405289655214"><ele>269.0</ele><time>2026-05-02T14:08:49.002Z</time></trkpt><trkpt lat="43.3584212103959" lon="11.437166490935732"><ele>269.0</ele><time>2026-05-02T14:08:50.002Z</time></trkpt><trkpt lat="43.35837308459659" lon="11.43692663192874"><ele>269.0</ele><time>2026-05-02T14:08:51.002Z</time></trkpt><trkpt lat="43.35834948429612" lon="11.436717655805568"><ele>269.0</ele><time>2026-05-02T14:08:52.002Z</time></trkpt><trkpt lat="43.35836542360105" lon="11.436511547754804"><ele>269.0</ele><time>2026-05-02T14:08:53.002Z</time></trkpt><trkpt lat="43.35841206295908" lon="11.436280200076357"><ele>269.0</ele><time>2026-05-02T14:08:54.003Z</time></trkpt><trkpt lat="43.358462627566645" lon="11.436021201395473"><ele>269.0</ele><time>2026-05-02T14:08:55.003Z</time></trkpt><trkpt lat="43.35852458798221" lon="11.435734710046585"><ele>269.0</ele><time>2026-05-02T14:08:56.003Z</time></trkpt><trkpt lat="43.358614047991615" lon="11.435420086624593"><ele>269.6666666666667</ele><time>2026-05-02T14:08:57.003Z</time></trkpt><trkpt lat="43.358724877241336" lon="11.435123894320608"><ele>270.3333333333333</ele><time>2026-05-02T14:08:58.003Z</time></trkpt><trkpt lat="43.35882817825357" lon="11.434894071246045"><ele>271.0</ele><time>2026-05-02T14:08:59.003Z</time></trkpt><trkpt lat="43.35891295288638" lon="11.434676854778568"><ele>268.3333333333333</ele><time>2026-05-02T14:09:00.003Z</time></trkpt><trkpt lat="43.35896869958771" lon="11.434427975116124"><ele>265.6666666666667</ele><time>2026-05-02T14:09:01.003Z</time></trkpt><trkpt lat="43.35899027151312" lon="11.434155498580765"><ele>263.0</ele><time>2026-05-02T14:09:02.003Z</time></trkpt><trkpt lat="43.3589768420392" lon="11.433859836538533"><ele>261.5</ele><time>2026-05-02T14:09:03.003Z</time></trkpt><trkpt lat="43.35893926573758" lon="11.433545841338175"><ele>260.0</ele><time>2026-05-02T14:09:04.003Z</time></trkpt><trkpt lat="43.358888923261965" lon="11.433251540539446"><ele>261.0</ele><time>2026-05-02T14:09:05.003Z</time></trkpt><trkpt lat="43.35884870476837" lon="11.432966054408405"><ele>262.0</ele><time>2026-05-02T14:09:06.003Z</time></trkpt><trkpt lat="43.358832272305634" lon="11.432694272879138"><ele>263.0</ele><time>2026-05-02T14:09:07.003Z</time></trkpt><trkpt lat="43.35883660982845" lon="11.432437042260759"><ele>262.33333333333337</ele><time>2026-05-02T14:09:08.003Z</time></trkpt><trkpt lat="43.35886849186971" lon="11.432173037426638"><ele>261.6666666666667</ele><time>2026-05-02T14:09:09.003Z</time></trkpt><trkpt lat="43.358934997616096" lon="11.431896762005042"><ele>261.0</ele><time>2026-05-02T14:09:10.003Z</time></trkpt><trkpt lat="43.358984592834325" lon="11.431600492147611"><ele>261.0</ele><time>2026-05-02T14:09:11.003Z</time></trkpt><trkpt lat="43.359046722532376" lon="11.431326113474066"><ele>261.0</ele><time>2026-05-02T14:09:12.003Z</time></trkpt><trkpt lat="43.359107575238575" lon="11.431041743769434"><ele>261.0</ele><time>2026-05-02T14:09:13.003Z</time></trkpt><trkpt lat="43.35915761129639" lon="11.430767940503861"><ele>262.0</ele><time>2026-05-02T14:09:14.003Z</time></trkpt><trkpt lat="43.35919633335673" lon="11.430513836971652"><ele>263.0</ele><time>2026-05-02T14:09:15.003Z</time></trkpt><trkpt lat="43.35921676759175" lon="11.430251322105361"><ele>264.0</ele><time>2026-05-02T14:09:16.003Z</time></trkpt><trkpt lat="43.35921016264979" lon="11.429975476840486"><ele>264.3333333333333</ele><time>2026-05-02T14:09:17.003Z</time></trkpt><trkpt lat="43.35917529581997" lon="11.429686692717304"><ele>264.66666666666663</ele><time>2026-05-02T14:09:18.003Z</time></trkpt><trkpt lat="43.35912192158321" lon="11.429403422996304"><ele>265.0</ele><time>2026-05-02T14:09:19.003Z</time></trkpt><trkpt lat="43.35905722597434" lon="11.429131610292716"><ele>265.66666666666663</ele><time>2026-05-02T14:09:20.003Z</time></trkpt><trkpt lat="43.35897569429278" lon="11.42887609922857"><ele>266.3333333333333</ele><time>2026-05-02T14:09:21.003Z</time></trkpt><trkpt lat="43.35885613107274" lon="11.428658160987787"><ele>267.0</ele><time>2026-05-02T14:09:22.003Z</time></trkpt><trkpt lat="43.35868345151483" lon="11.428434746926218"><ele>267.0</ele><time>2026-05-02T14:09:23.003Z</time></trkpt><trkpt lat="43.358506552503876" lon="11.428208505167717"><ele>267.0</ele><time>2026-05-02T14:09:24Z</time></trkpt><trkpt lat="43.35836082486716" lon="11.427964541757252"><ele>265.6666666666667</ele><time>2026-05-02T14:09:25Z</time></trkpt><trkpt lat="43.35822368985284" lon="11.42771531007421"><ele>264.33333333333337</ele><time>2026-05-02T14:09:26Z</time></trkpt><trkpt lat="43.35808574842687" lon="11.427499126118107"><ele>263.0</ele><time>2026-05-02T14:09:27Z</time></trkpt><trkpt lat="43.357959965428854" lon="11.427303126028844"><ele>259.6666666666667</ele><time>2026-05-02T14:09:28Z</time></trkpt><trkpt lat="43.357806201077175" lon="11.427141921261315"><ele>256.3333333333333</ele><time>2026-05-02T14:09:29Z</time></trkpt><trkpt lat="43.35761366228876" lon="11.427015600726804"><ele>253.0</ele><time>2026-05-02T14:09:30Z</time></trkpt><trkpt lat="43.357408990241105" lon="11.42690122271573"><ele>254.5</ele><time>2026-05-02T14:09:31Z</time></trkpt><trkpt lat="43.357199773910445" lon="11.426782525768699"><ele>256.0</ele><time>2026-05-02T14:09:32Z</time></trkpt><trkpt lat="43.35699813476732" lon="11.426627622556333"><ele>256.0</ele><time>2026-05-02T14:09:33Z</time></trkpt><trkpt lat="43.35680307381505" lon="11.42649228729588"><ele>256.0</ele><time>2026-05-02T14:09:34Z</time></trkpt><trkpt lat="43.35662207192306" lon="11.42634793270111"><ele>256.0</ele><time>2026-05-02T14:09:35Z</time></trkpt><trkpt lat="43.356448741653956" lon="11.42615236928427"><ele>251.0</ele><time>2026-05-02T14:09:36Z</time></trkpt><trkpt lat="43.356262532173275" lon="11.425907359785098"><ele>246.0</ele><time>2026-05-02T14:09:37Z</time></trkpt><trkpt lat="43.356070011252534" lon="11.42565195142131"><ele>243.0</ele><time>2026-05-02T14:09:38Z</time></trkpt><trkpt lat="43.355877486282935" lon="11.425426486156008"><ele>240.0</ele><time>2026-05-02T14:09:39Z</time></trkpt><trkpt lat="43.35571195028244" lon="11.425202244950917"><ele>240.0</ele><time>2026-05-02T14:09:40Z</time></trkpt><trkpt lat="43.35556203251994" lon="11.425001531590677"><ele>240.0</ele><time>2026-05-02T14:09:41Z</time></trkpt><trkpt lat="43.355416527827884" lon="11.424809650657066"><ele>240.0</ele><time>2026-05-02T14:09:42Z</time></trkpt><trkpt lat="43.355286633732035" lon="11.424638638949911"><ele>239.0</ele><time>2026-05-02T14:09:43Z</time></trkpt><trkpt lat="43.355170632867434" lon="11.424478972403012"><ele>238.0</ele><time>2026-05-02T14:09:44Z</time></trkpt><trkpt lat="43.35507240505062" lon="11.424341717469257"><ele>237.0</ele><time>2026-05-02T14:09:45Z</time></trkpt><trkpt lat="43.354991207807224" lon="11.424207711972198"><ele>236.0</ele><time>2026-05-02T14:09:46Z</time></trkpt><trkpt lat="43.35494700654581" lon="11.42405927904517"><ele>236.0</ele><time>2026-05-02T14:09:47Z</time></trkpt><trkpt lat="43.354939923269725" lon="11.423880960969106"><ele>236.0</ele><time>2026-05-02T14:09:48Z</time></trkpt><trkpt lat="43.35498307308581" lon="11.423654803211564"><ele>236.0</ele><time>2026-05-02T14:09:49Z</time></trkpt><trkpt lat="43.35505271233728" lon="11.423392771253475"><ele>234.66666666666669</ele><time>2026-05-02T14:09:50Z</time></trkpt><trkpt lat="43.35513434373456" lon="11.423123480065424"><ele>233.33333333333331</ele><time>2026-05-02T14:09:51Z</time></trkpt><trkpt lat="43.355213146101036" lon="11.422861463191051"><ele>232.0</ele><time>2026-05-02T14:09:52Z</time></trkpt><trkpt lat="43.3552620557509" lon="11.422606587245241"><ele>229.66666666666666</ele><time>2026-05-02T14:09:53Z</time></trkpt><trkpt lat="43.35529649581414" lon="11.422348839960936"><ele>227.33333333333331</ele><time>2026-05-02T14:09:54Z</time></trkpt><trkpt lat="43.35532244035392" lon="11.422090293858053"><ele>225.0</ele><time>2026-05-02T14:09:55.001Z</time></trkpt><trkpt lat="43.355348286331406" lon="11.421814787753043"><ele>222.66666666666669</ele><time>2026-05-02T14:09:56.001Z</time></trkpt><trkpt lat="43.355371695763154" lon="11.421550049641235"><ele>220.33333333333334</ele><time>2026-05-02T14:09:57.001Z</time></trkpt><trkpt lat="43.35539032017474" lon="11.421299281511457"><ele>218.0</ele><time>2026-05-02T14:09:58.001Z</time></trkpt><trkpt lat="43.35542004505241" lon="11.42104642330624"><ele>217.66666666666669</ele><time>2026-05-02T14:09:59.001Z</time></trkpt><trkpt lat="43.35546516900477" lon="11.420784618949321"><ele>217.33333333333331</ele><time>2026-05-02T14:10:00.001Z</time></trkpt><trkpt lat="43.35551919120587" lon="11.42051439516817"><ele>217.0</ele><time>2026-05-02T14:10:01.001Z</time></trkpt><trkpt lat="43.35557713049292" lon="11.420235521506173"><ele>217.0</ele><time>2026-05-02T14:10:02.001Z</time></trkpt><trkpt lat="43.35563699568196" lon="11.419954652738078"><ele>217.0</ele><time>2026-05-02T14:10:03.001Z</time></trkpt><trkpt lat="43.355712126061505" lon="11.419653630213682"><ele>217.0</ele><time>2026-05-02T14:10:04.001Z</time></trkpt><trkpt lat="43.35581323328329" lon="11.419361126898117"><ele>216.5</ele><time>2026-05-02T14:10:05.001Z</time></trkpt><trkpt lat="43.35593519489479" lon="11.419077691521197"><ele>216.0</ele><time>2026-05-02T14:10:06.001Z</time></trkpt><trkpt lat="43.356065518069784" lon="11.418823340565467"><ele>216.33333333333331</ele><time>2026-05-02T14:10:07.001Z</time></trkpt><trkpt lat="43.3561929109914" lon="11.418583642550947"><ele>216.66666666666666</ele><time>2026-05-02T14:10:08.001Z</time></trkpt><trkpt lat="43.35631088462794" lon="11.418344751512556"><ele>217.0</ele><time>2026-05-02T14:10:09.001Z</time></trkpt><trkpt lat="43.35642093020294" lon="11.41810934111455"><ele>217.66666666666666</ele><time>2026-05-02T14:10:10.001Z</time></trkpt><trkpt lat="43.356527272482914" lon="11.41788954054289"><ele>218.33333333333331</ele><time>2026-05-02T14:10:11.001Z</time></trkpt><trkpt lat="43.35662393431948" lon="11.41768532593631"><ele>219.0</ele><time>2026-05-02T14:10:12.001Z</time></trkpt><trkpt lat="43.356711751028264" lon="11.417493897154037"><ele>219.0</ele><time>2026-05-02T14:10:13.001Z</time></trkpt><trkpt lat="43.35679017808803" lon="11.417319779764952"><ele>218.99999999999997</ele><time>2026-05-02T14:10:14.001Z</time></trkpt><trkpt lat="43.356840949531644" lon="11.417175845281955"><ele>218.99999999999997</ele><time>2026-05-02T14:10:15.001Z</time></trkpt><trkpt lat="43.35685878870232" lon="11.41706257844115"><ele>219.0</ele><time>2026-05-02T14:10:16.001Z</time></trkpt><trkpt lat="43.356858566213226" lon="11.416972965222776"><ele>219.0</ele><time>2026-05-02T14:10:17.001Z</time></trkpt><trkpt lat="43.35687702931239" lon="11.416834556818374"><ele>219.0</ele><time>2026-05-02T14:10:19.001Z</time></trkpt><trkpt lat="43.35690513430871" lon="11.416736846210327"><ele>218.99999999999997</ele><time>2026-05-02T14:10:22.001Z</time></trkpt><trkpt lat="43.3568669352428" lon="11.416624831831754"><ele>218.99999999999997</ele><time>2026-05-02T14:10:23.001Z</time></trkpt><trkpt lat="43.356792226977355" lon="11.416515731420795"><ele>219.0</ele><time>2026-05-02T14:10:24.001Z</time></trkpt><trkpt lat="43.35669380964102" lon="11.4163907820583"><ele>219.0</ele><time>2026-05-02T14:10:25.001Z</time></trkpt><trkpt lat="43.35661965173107" lon="11.416231115778627"><ele>219.5</ele><time>2026-05-02T14:10:26.001Z</time></trkpt><trkpt lat="43.35652057966868" lon="11.416072042487631"><ele>220.0</ele><time>2026-05-02T14:10:27.001Z</time></trkpt><trkpt lat="43.35643326293065" lon="11.415936602964697"><ele>220.5</ele><time>2026-05-02T14:10:28.001Z</time></trkpt><trkpt lat="43.35637351690537" lon="11.415811761166816"><ele>221.0</ele><time>2026-05-02T14:10:29.001Z</time></trkpt><trkpt lat="43.35632346285113" lon="11.415729526208564"><ele>221.25</ele><time>2026-05-02T14:10:30.002Z</time></trkpt><trkpt lat="43.35636636102844" lon="11.415546746253503"><ele>221.5</ele><time>2026-05-02T14:10:31.002Z</time></trkpt><trkpt lat="43.35639893580362" lon="11.415358679590648"><ele>221.75</ele><time>2026-05-02T14:10:32.002Z</time></trkpt><trkpt lat="43.35642230087623" lon="11.415130983613578"><ele>222.0</ele><time>2026-05-02T14:10:33.002Z</time></trkpt><trkpt lat="43.356477718228135" lon="11.414904727265197"><ele>223.25</ele><time>2026-05-02T14:10:34.002Z</time></trkpt><trkpt lat="43.356532248554394" lon="11.414710914417697"><ele>224.5</ele><time>2026-05-02T14:10:35.002Z</time></trkpt><trkpt lat="43.356570218018824" lon="11.414546381556013"><ele>225.75</ele><time>2026-05-02T14:10:36.002Z</time></trkpt><trkpt lat="43.356605867103056" lon="11.414401770804032"><ele>227.0</ele><time>2026-05-02T14:10:37.002Z</time></trkpt><trkpt lat="43.35663727424303" lon="11.414267425899011"><ele>227.8</ele><time>2026-05-02T14:10:38.002Z</time></trkpt><trkpt lat="43.35666517329397" lon="11.414155607197582"><ele>228.6</ele><time>2026-05-02T14:10:39.002Z</time></trkpt><trkpt lat="43.35669661110832" lon="11.414042934252913"><ele>229.40000000000003</ele><time>2026-05-02T14:10:40.002Z</time></trkpt><trkpt lat="43.356727676350324" lon="11.413923552840727"><ele>230.20000000000002</ele><time>2026-05-02T14:10:41.002Z</time></trkpt><trkpt lat="43.3567677432358" lon="11.413778483667459"><ele>231.0</ele><time>2026-05-02T14:10:42.002Z</time></trkpt><trkpt lat="43.35680580670182" lon="11.41363168305564"><ele>231.75</ele><time>2026-05-02T14:10:43.002Z</time></trkpt><trkpt lat="43.356848966643746" lon="11.413471429529311"><ele>232.5</ele><time>2026-05-02T14:10:44.002Z</time></trkpt><trkpt lat="43.3568965888661" lon="11.41330159026663"><ele>233.25</ele><time>2026-05-02T14:10:45.002Z</time></trkpt><trkpt lat="43.35694712827025" lon="11.413136438078999"><ele>234.0</ele><time>2026-05-02T14:10:46.002Z</time></trkpt><trkpt lat="43.35700103850311" lon="11.412983625342186"><ele>234.75</ele><time>2026-05-02T14:10:47.002Z</time></trkpt><trkpt lat="43.357054683227595" lon="11.412843815669019"><ele>235.5</ele><time>2026-05-02T14:10:48.002Z</time></trkpt><trkpt lat="43.357109464756455" lon="11.412707017651245"><ele>236.25</ele><time>2026-05-02T14:10:49.002Z</time></trkpt><trkpt lat="43.35717354108367" lon="11.412577785927525"><ele>237.0</ele><time>2026-05-02T14:10:50.002Z</time></trkpt><trkpt lat="43.35725162242074" lon="11.41245547648066"><ele>238.25</ele><time>2026-05-02T14:10:51.002Z</time></trkpt><trkpt lat="43.357341628637144" lon="11.41235859662126"><ele>239.5</ele><time>2026-05-02T14:10:52.002Z</time></trkpt><trkpt lat="43.35745602933554" lon="11.412335864744664"><ele>240.75</ele><time>2026-05-02T14:10:53.002Z</time></trkpt><trkpt lat="43.35757092570811" lon="11.412304613328253"><ele>242.0</ele><time>2026-05-02T14:10:54.002Z</time></trkpt><trkpt lat="43.35768384515817" lon="11.412302818643969"><ele>242.0</ele><time>2026-05-02T14:10:55.002Z</time></trkpt><trkpt lat="43.35779396358577" lon="11.412332059466555"><ele>242.0</ele><time>2026-05-02T14:10:56.002Z</time></trkpt><trkpt lat="43.3579182662199" lon="11.412410451090198"><ele>242.0</ele><time>2026-05-02T14:10:57.002Z</time></trkpt><trkpt lat="43.35808764482651" lon="11.412455421752817"><ele>242.0</ele><time>2026-05-02T14:10:58.002Z</time></trkpt><trkpt lat="43.35824858562199" lon="11.412464083732939"><ele>243.25</ele><time>2026-05-02T14:10:59.002Z</time></trkpt><trkpt lat="43.3583942385867" lon="11.412465075642473"><ele>244.5</ele><time>2026-05-02T14:11:00.002Z</time></trkpt><trkpt lat="43.35853110089904" lon="11.412447351877521"><ele>245.75</ele><time>2026-05-02T14:11:01.002Z</time></trkpt><trkpt lat="43.35864356832751" lon="11.412417277580987"><ele>247.0</ele><time>2026-05-02T14:11:02.002Z</time></trkpt><trkpt lat="43.35874561185917" lon="11.41238247358051"><ele>246.99999999999997</ele><time>2026-05-02T14:11:03.002Z</time></trkpt><trkpt lat="43.35884722817228" lon="11.412324018916165"><ele>247.0</ele><time>2026-05-02T14:11:04.003Z</time></trkpt><trkpt lat="43.358918167892256" lon="11.412253590161523"><ele>247.0</ele><time>2026-05-02T14:11:05.003Z</time></trkpt><trkpt lat="43.358970551300175" lon="11.41215903986341"><ele>247.0</ele><time>2026-05-02T14:11:06.003Z</time></trkpt><trkpt lat="43.358999529096494" lon="11.412064365328737"><ele>246.99999999999997</ele><time>2026-05-02T14:11:07.003Z</time></trkpt><trkpt lat="43.359004814034535" lon="11.41196236545654"><ele>247.0</ele><time>2026-05-02T14:11:08.003Z</time></trkpt><trkpt lat="43.35900364714808" lon="11.411820736052345"><ele>249.2</ele><time>2026-05-02T14:11:09.003Z</time></trkpt><trkpt lat="43.3590010333329" lon="11.411672443113236"><ele>251.39999999999998</ele><time>2026-05-02T14:11:10.003Z</time></trkpt><trkpt lat="43.359006498302065" lon="11.411508987195221"><ele>253.60000000000002</ele><time>2026-05-02T14:11:11.003Z</time></trkpt><trkpt lat="43.359016725847106" lon="11.411357200266547"><ele>255.8</ele><time>2026-05-02T14:11:12.003Z</time></trkpt><trkpt lat="43.35904105519411" lon="11.411215144638746"><ele>258.0</ele><time>2026-05-02T14:11:13.003Z</time></trkpt><trkpt lat="43.3590754444361" lon="11.411102892075881"><ele>259.0</ele><time>2026-05-02T14:11:14.003Z</time></trkpt><trkpt lat="43.35912925800574" lon="11.411017341063163"><ele>260.0</ele><time>2026-05-02T14:11:15.003Z</time></trkpt><trkpt lat="43.35918791756241" lon="11.410950535834948"><ele>261.0</ele><time>2026-05-02T14:11:16.003Z</time></trkpt><trkpt lat="43.35926561106645" lon="11.410927076119368"><ele>262.0</ele><time>2026-05-02T14:11:17.003Z</time></trkpt><trkpt lat="43.359350412750366" lon="11.410935598582457"><ele>263.0</ele><time>2026-05-02T14:11:18.003Z</time></trkpt><trkpt lat="43.359403463098786" lon="11.411014110412628"><ele>264.0</ele><time>2026-05-02T14:11:19.003Z</time></trkpt><trkpt lat="43.359465014629784" lon="11.411083594824037"><ele>264.0</ele><time>2026-05-02T14:11:20.003Z</time></trkpt><trkpt lat="43.35949918269697" lon="11.411163032854557"><ele>264.0</ele><time>2026-05-02T14:11:21.003Z</time></trkpt><trkpt lat="43.35952926813925" lon="11.411271144232934"><ele>264.0</ele><time>2026-05-02T14:11:22.003Z</time></trkpt><trkpt lat="43.3595596872422" lon="11.411391337185869"><ele>264.0</ele><time>2026-05-02T14:11:23.003Z</time></trkpt><trkpt lat="43.3595797974554" lon="11.411529254769544"><ele>264.0</ele><time>2026-05-02T14:11:24.003Z</time></trkpt><trkpt lat="43.35960445792664" lon="11.411691989399593"><ele>262.8</ele><time>2026-05-02T14:11:25.003Z</time></trkpt><trkpt lat="43.35965021601416" lon="11.411833472892226"><ele>261.59999999999997</ele><time>2026-05-02T14:11:26.003Z</time></trkpt><trkpt lat="43.359687221291" lon="11.411941017214925"><ele>260.4</ele><time>2026-05-02T14:11:27.003Z</time></trkpt><trkpt lat="43.35973234018223" lon="11.412002341681138"><ele>259.2</ele><time>2026-05-02T14:11:28.003Z</time></trkpt><trkpt lat="43.35984416414206" lon="11.412065903034867"><ele>258.0</ele><time>2026-05-02T14:11:30Z</time></trkpt><trkpt lat="43.35995763580297" lon="11.412029511497167"><ele>260.4</ele><time>2026-05-02T14:11:32Z</time></trkpt><trkpt lat="43.36000449852803" lon="11.411893762400828"><ele>262.8</ele><time>2026-05-02T14:11:34Z</time></trkpt><trkpt lat="43.35999676456032" lon="11.411803759999788"><ele>265.2</ele><time>2026-05-02T14:11:35Z</time></trkpt><trkpt lat="43.35997266102986" lon="11.411685399094411"><ele>267.6</ele><time>2026-05-02T14:11:36Z</time></trkpt><trkpt lat="43.35994988826633" lon="11.411557412184973"><ele>270.0</ele><time>2026-05-02T14:11:37Z</time></trkpt><trkpt lat="43.35993584819684" lon="11.411432963560769"><ele>270.0</ele><time>2026-05-02T14:11:38Z</time></trkpt><trkpt lat="43.359956731812844" lon="11.411315397576876"><ele>270.0</ele><time>2026-05-02T14:11:39Z</time></trkpt><trkpt lat="43.36001062248876" lon="11.41119098014288"><ele>270.0</ele><time>2026-05-02T14:11:40Z</time></trkpt><trkpt lat="43.3600613848403" lon="11.411109119896729"><ele>270.0</ele><time>2026-05-02T14:11:41Z</time></trkpt><trkpt lat="43.36012052854647" lon="11.411043737019552"><ele>270.0</ele><time>2026-05-02T14:11:42Z</time></trkpt><trkpt lat="43.36020297604113" lon="11.410980851696149"><ele>270.0</ele><time>2026-05-02T14:11:43Z</time></trkpt><trkpt lat="43.360288813228124" lon="11.41094756769456"><ele>270.0</ele><time>2026-05-02T14:11:44Z</time></trkpt><trkpt lat="43.36039115115191" lon="11.410893944312683"><ele>270.0</ele><time>2026-05-02T14:11:45Z</time></trkpt><trkpt lat="43.36049511369932" lon="11.410844819308224"><ele>270.0</ele><time>2026-05-02T14:11:46Z</time></trkpt><trkpt lat="43.36059166591513" lon="11.410805069075797"><ele>270.0</ele><time>2026-05-02T14:11:47Z</time></trkpt><trkpt lat="43.3606843102798" lon="11.41075956840889"><ele>270.0</ele><time>2026-05-02T14:11:48Z</time></trkpt><trkpt lat="43.360768581250774" lon="11.410680765344754"><ele>271.6</ele><time>2026-05-02T14:11:49Z</time></trkpt><trkpt lat="43.360826452404055" lon="11.410584591492068"><ele>273.2</ele><time>2026-05-02T14:11:50Z</time></trkpt><trkpt lat="43.36086582205223" lon="11.41045179073811"><ele>274.8</ele><time>2026-05-02T14:11:51Z</time></trkpt><trkpt lat="43.36088268162632" lon="11.410299940462142"><ele>276.4</ele><time>2026-05-02T14:11:52Z</time></trkpt><trkpt lat="43.360870373702596" lon="11.41012730531283"><ele>278.0</ele><time>2026-05-02T14:11:53Z</time></trkpt><trkpt lat="43.360826068747606" lon="11.409944549355744"><ele>278.75</ele><time>2026-05-02T14:11:54Z</time></trkpt><trkpt lat="43.360756688140334" lon="11.40975979738235"><ele>279.5</ele><time>2026-05-02T14:11:55Z</time></trkpt><trkpt lat="43.360704814813715" lon="11.409588164750602"><ele>280.25</ele><time>2026-05-02T14:11:56Z</time></trkpt><trkpt lat="43.36064100710246" lon="11.409435947741189"><ele>281.0</ele><time>2026-05-02T14:11:57Z</time></trkpt><trkpt lat="43.36056336938134" lon="11.409295009302943"><ele>280.75</ele><time>2026-05-02T14:11:58Z</time></trkpt><trkpt lat="43.360490783906116" lon="11.409139060561701"><ele>280.5</ele><time>2026-05-02T14:11:59Z</time></trkpt><trkpt lat="43.36039714454258" lon="11.40898742189945"><ele>280.25</ele><time>2026-05-02T14:12:00Z</time></trkpt><trkpt lat="43.36031741287935" lon="11.408840777896517"><ele>280.0</ele><time>2026-05-02T14:12:01Z</time></trkpt><trkpt lat="43.360183330658515" lon="11.408736814846211"><ele>283.0</ele><time>2026-05-02T14:12:02.001Z</time></trkpt><trkpt lat="43.36003493517036" lon="11.408624431728795"><ele>286.0</ele><time>2026-05-02T14:12:03.001Z</time></trkpt><trkpt lat="43.35990058853773" lon="11.408499900772403"><ele>289.0</ele><time>2026-05-02T14:12:04.001Z</time></trkpt><trkpt lat="43.359780154730146" lon="11.408403137342782"><ele>289.0</ele><time>2026-05-02T14:12:05.001Z</time></trkpt><trkpt lat="43.3596725590714" lon="11.408316368217326"><ele>289.0</ele><time>2026-05-02T14:12:06.001Z</time></trkpt><trkpt lat="43.35959476360765" lon="11.408250165830719"><ele>289.0</ele><time>2026-05-02T14:12:07.001Z</time></trkpt><trkpt lat="43.35953504352924" lon="11.40818673378952"><ele>289.0</ele><time>2026-05-02T14:12:08.001Z</time></trkpt><trkpt lat="43.359497771405806" lon="11.4080891395168"><ele>289.0</ele><time>2026-05-02T14:12:09.001Z</time></trkpt><trkpt lat="43.359471608051045" lon="11.407990020176868"><ele>289.0</ele><time>2026-05-02T14:12:10.001Z</time></trkpt><trkpt lat="43.359477251827705" lon="11.407853915020409"><ele>290.2</ele><time>2026-05-02T14:12:11.001Z</time></trkpt><trkpt lat="43.35950895849384" lon="11.40772197867793"><ele>291.4</ele><time>2026-05-02T14:12:12.001Z</time></trkpt><trkpt lat="43.35956322018484" lon="11.407608815119588"><ele>292.6</ele><time>2026-05-02T14:12:13.001Z</time></trkpt><trkpt lat="43.35963657539024" lon="11.407524200600387"><ele>293.8</ele><time>2026-05-02T14:12:14.001Z</time></trkpt><trkpt lat="43.35972100438483" lon="11.407448833368273"><ele>295.0</ele><time>2026-05-02T14:12:15.001Z</time></trkpt><trkpt lat="43.35980266180897" lon="11.407399460191295"><ele>295.0</ele><time>2026-05-02T14:12:16.001Z</time></trkpt><trkpt lat="43.35989305532207" lon="11.407413356349439"><ele>295.0</ele><time>2026-05-02T14:12:17.001Z</time></trkpt><trkpt lat="43.359998098553106" lon="11.407441968425719"><ele>295.0</ele><time>2026-05-02T14:12:18.001Z</time></trkpt><trkpt lat="43.3601418153664" lon="11.407479404212044"><ele>295.0</ele><time>2026-05-02T14:12:19.001Z</time></trkpt><trkpt lat="43.36031865935327" lon="11.40751830884222"><ele>295.0</ele><time>2026-05-02T14:12:20.001Z</time></trkpt><trkpt lat="43.36052250435435" lon="11.407540764111758"><ele>295.0</ele><time>2026-05-02T14:12:21.001Z</time></trkpt><trkpt lat="43.36073198477582" lon="11.407563611768028"><ele>295.0</ele><time>2026-05-02T14:12:22.001Z</time></trkpt><trkpt lat="43.36092147882996" lon="11.407565457378658"><ele>296.0</ele><time>2026-05-02T14:12:23.001Z</time></trkpt><trkpt lat="43.36112153058443" lon="11.407558231277639"><ele>297.0</ele><time>2026-05-02T14:12:24.001Z</time></trkpt><trkpt lat="43.36132728597028" lon="11.407529368514556"><ele>298.0</ele><time>2026-05-02T14:12:25.001Z</time></trkpt><trkpt lat="43.3615312778889" lon="11.40748834789559"><ele>300.66666666666663</ele><time>2026-05-02T14:12:26.001Z</time></trkpt><trkpt lat="43.36174818378557" lon="11.407429064185502"><ele>303.3333333333333</ele><time>2026-05-02T14:12:27.001Z</time></trkpt><trkpt lat="43.361969123222266" lon="11.407361988217389"><ele>306.0</ele><time>2026-05-02T14:12:28.001Z</time></trkpt><trkpt lat="43.36219591990895" lon="11.407298027518426"><ele>307.6666666666667</ele><time>2026-05-02T14:12:29.001Z</time></trkpt><trkpt lat="43.36238863523497" lon="11.407239964086475"><ele>309.33333333333337</ele><time>2026-05-02T14:12:30.001Z</time></trkpt><trkpt lat="43.362561207102424" lon="11.407182187172666"><ele>311.0</ele><time>2026-05-02T14:12:31.001Z</time></trkpt><trkpt lat="43.36272600995579" lon="11.4071114677753"><ele>311.0</ele><time>2026-05-02T14:12:32.001Z</time></trkpt><trkpt lat="43.362867457512365" lon="11.40703878753652"><ele>311.0</ele><time>2026-05-02T14:12:33.001Z</time></trkpt><trkpt lat="43.36300047780814" lon="11.406968330893061"><ele>311.0</ele><time>2026-05-02T14:12:34.001Z</time></trkpt><trkpt lat="43.363139494320706" lon="11.406889237329532"><ele>311.0</ele><time>2026-05-02T14:12:35.002Z</time></trkpt><trkpt lat="43.363296800402125" lon="11.40679251155818"><ele>313.6666666666667</ele><time>2026-05-02T14:12:36.002Z</time></trkpt><trkpt lat="43.363463476101714" lon="11.406685389789912"><ele>316.3333333333333</ele><time>2026-05-02T14:12:37.002Z</time></trkpt><trkpt lat="43.36365135900668" lon="11.40656369197348"><ele>319.0</ele><time>2026-05-02T14:12:38.002Z</time></trkpt><trkpt lat="43.363835032756846" lon="11.406451756662758"><ele>322.0</ele><time>2026-05-02T14:12:39.002Z</time></trkpt><trkpt lat="43.36398696665756" lon="11.406342700167569"><ele>325.0</ele><time>2026-05-02T14:12:40.002Z</time></trkpt><trkpt lat="43.364114602219935" lon="11.406248765554349"><ele>328.0</ele><time>2026-05-02T14:12:41.002Z</time></trkpt><trkpt lat="43.364247726282095" lon="11.406154350920817"><ele>328.2</ele><time>2026-05-02T14:12:42.002Z</time></trkpt><trkpt lat="43.364378788060804" lon="11.406071791124118"><ele>328.4</ele><time>2026-05-02T14:12:43.002Z</time></trkpt><trkpt lat="43.36449040714388" lon="11.406019389536274"><ele>328.59999999999997</ele><time>2026-05-02T14:12:44.002Z</time></trkpt><trkpt lat="43.36458638359827" lon="11.406024940874996"><ele>328.79999999999995</ele><time>2026-05-02T14:12:45.002Z</time></trkpt><trkpt lat="43.36465957052457" lon="11.406029287577352"><ele>329.0</ele><time>2026-05-02T14:12:46.002Z</time></trkpt><trkpt lat="43.36470299482937" lon="11.40612672901087"><ele>331.0</ele><time>2026-05-02T14:12:47.002Z</time></trkpt><trkpt lat="43.364755553150516" lon="11.406212778300015"><ele>333.0</ele><time>2026-05-02T14:12:48.002Z</time></trkpt><trkpt lat="43.3648390719579" lon="11.406317937939003"><ele>335.0</ele><time>2026-05-02T14:12:49.002Z</time></trkpt><trkpt lat="43.36492721290471" lon="11.406414984465004"><ele>337.0</ele><time>2026-05-02T14:12:50.002Z</time></trkpt><trkpt lat="43.365015140814755" lon="11.40648378430327"><ele>339.0</ele><time>2026-05-02T14:12:51.002Z</time></trkpt><trkpt lat="43.36510178042906" lon="11.40650595222967"><ele>339.0</ele><time>2026-05-02T14:12:52.002Z</time></trkpt><trkpt lat="43.36520256317298" lon="11.406500463807635"><ele>339.0</ele><time>2026-05-02T14:12:53.002Z</time></trkpt><trkpt lat="43.36530865726164" lon="11.406458383005553"><ele>339.0</ele><time>2026-05-02T14:12:54.002Z</time></trkpt><trkpt lat="43.365415456176564" lon="11.40639975835043"><ele>339.0</ele><time>2026-05-02T14:12:55.002Z</time></trkpt><trkpt lat="43.365521313387276" lon="11.406335063806004"><ele>339.0</ele><time>2026-05-02T14:12:56.002Z</time></trkpt><trkpt lat="43.36562675756866" lon="11.406306178843227"><ele>339.8333333333333</ele><time>2026-05-02T14:12:57.002Z</time></trkpt><trkpt lat="43.36573426212688" lon="11.406271631608615"><ele>340.6666666666667</ele><time>2026-05-02T14:12:58.002Z</time></trkpt><trkpt lat="43.365816179087915" lon="11.406246786261988"><ele>341.5</ele><time>2026-05-02T14:12:59.002Z</time></trkpt><trkpt lat="43.3658839092743" lon="11.406206657474225"><ele>342.33333333333337</ele><time>2026-05-02T14:13:00.002Z</time></trkpt><trkpt lat="43.365951217182555" lon="11.406139659104904"><ele>343.1666666666667</ele><time>2026-05-02T14:13:01.002Z</time></trkpt><trkpt lat="43.36601287867244" lon="11.406040082482955"><ele>344.0</ele><time>2026-05-02T14:13:02.002Z</time></trkpt><trkpt lat="43.36604929163633" lon="11.405934794397966"><ele>344.0</ele><time>2026-05-02T14:13:03.002Z</time></trkpt><trkpt lat="43.36608687679862" lon="11.405812645858465"><ele>344.0</ele><time>2026-05-02T14:13:04.002Z</time></trkpt><trkpt lat="43.36612356373295" lon="11.405704807381245"><ele>344.0</ele><time>2026-05-02T14:13:05.002Z</time></trkpt><trkpt lat="43.36616755879052" lon="11.405596228893897"><ele>344.0</ele><time>2026-05-02T14:13:06.002Z</time></trkpt><trkpt lat="43.36621445699749" lon="11.405482172431205"><ele>344.0</ele><time>2026-05-02T14:13:07.002Z</time></trkpt><trkpt lat="43.36626363193967" lon="11.405356643081637"><ele>344.0</ele><time>2026-05-02T14:13:08.003Z</time></trkpt><trkpt lat="43.36631847807432" lon="11.405218183154437"><ele>344.0</ele><time>2026-05-02T14:13:09.003Z</time></trkpt><trkpt lat="43.36637655217242" lon="11.405077177663337"><ele>344.0</ele><time>2026-05-02T14:13:10.003Z</time></trkpt><trkpt lat="43.36643945641036" lon="11.404923671012444"><ele>344.0</ele><time>2026-05-02T14:13:11.003Z</time></trkpt><trkpt lat="43.3665098687889" lon="11.404776172945219"><ele>345.25</ele><time>2026-05-02T14:13:12.003Z</time></trkpt><trkpt lat="43.366594039482386" lon="11.404641611750051"><ele>346.5</ele><time>2026-05-02T14:13:13.003Z</time></trkpt><trkpt lat="43.36668799573297" lon="11.40451707946671"><ele>347.75</ele><time>2026-05-02T14:13:14.003Z</time></trkpt><trkpt lat="43.366795474894836" lon="11.404414968252947"><ele>349.0</ele><time>2026-05-02T14:13:15.003Z</time></trkpt><trkpt lat="43.36691411195378" lon="11.404341841262807"><ele>349.0</ele><time>2026-05-02T14:13:16.003Z</time></trkpt><trkpt lat="43.36704245400368" lon="11.40429134105902"><ele>349.0</ele><time>2026-05-02T14:13:17.003Z</time></trkpt><trkpt lat="43.36717337684981" lon="11.40429435012053"><ele>349.0</ele><time>2026-05-02T14:13:18.003Z</time></trkpt><trkpt lat="43.36730359137355" lon="11.404294631136265"><ele>349.0</ele><time>2026-05-02T14:13:19.003Z</time></trkpt><trkpt lat="43.36744664763417" lon="11.404291278022527"><ele>349.0</ele><time>2026-05-02T14:13:20.003Z</time></trkpt><trkpt lat="43.36764553888937" lon="11.404329864510146"><ele>349.0</ele><time>2026-05-02T14:13:21.003Z</time></trkpt><trkpt lat="43.367849228748696" lon="11.404364257229014"><ele>349.0</ele><time>2026-05-02T14:13:22.003Z</time></trkpt><trkpt lat="43.36806687996064" lon="11.404414175011306"><ele>350.0</ele><time>2026-05-02T14:13:23.003Z</time></trkpt><trkpt lat="43.36828363519502" lon="11.404453152673392"><ele>351.0</ele><time>2026-05-02T14:13:24.003Z</time></trkpt><trkpt lat="43.36849681136959" lon="11.404491513502519"><ele>352.0</ele><time>2026-05-02T14:13:25.003Z</time></trkpt><trkpt lat="43.368682790737836" lon="11.404520531995274"><ele>353.0</ele><time>2026-05-02T14:13:26.003Z</time></trkpt><trkpt lat="43.36886525105825" lon="11.40452894662429"><ele>354.0</ele><time>2026-05-02T14:13:27.003Z</time></trkpt><trkpt lat="43.36904925077061" lon="11.404516952015305"><ele>355.0</ele><time>2026-05-02T14:13:28.003Z</time></trkpt><trkpt lat="43.369226142615474" lon="11.404498576125867"><ele>355.0</ele><time>2026-05-02T14:13:29.003Z</time></trkpt><trkpt lat="43.369375323390784" lon="11.404483981130277"><ele>355.0</ele><time>2026-05-02T14:13:30.003Z</time></trkpt><trkpt lat="43.369494666363906" lon="11.40447563018871"><ele>355.0</ele><time>2026-05-02T14:13:31.003Z</time></trkpt><trkpt lat="43.36958227564671" lon="11.40448080910641"><ele>355.0</ele><time>2026-05-02T14:13:32.003Z</time></trkpt><trkpt lat="43.36969291138664" lon="11.404483465438883"><ele>356.0</ele><time>2026-05-02T14:13:34.003Z</time></trkpt><trkpt lat="43.36976335714602" lon="11.404498104426157"><ele>357.0</ele><time>2026-05-02T14:14:48.002Z</time></trkpt><trkpt lat="43.369880685985464" lon="11.404484588157672"><ele>358.0</ele><time>2026-05-02T14:14:50.002Z</time></trkpt><trkpt lat="43.36995085234905" lon="11.40449330229262"><ele>359.0</ele><time>2026-05-02T14:14:51.002Z</time></trkpt><trkpt lat="43.37002707758857" lon="11.40449286981388"><ele>360.0</ele><time>2026-05-02T14:14:52.002Z</time></trkpt><trkpt lat="43.37011153527911" lon="11.404500951902984"><ele>361.0</ele><time>2026-05-02T14:14:53.002Z</time></trkpt><trkpt lat="43.37019596631182" lon="11.404503245577743"><ele>361.0</ele><time>2026-05-02T14:14:54.002Z</time></trkpt><trkpt lat="43.370282318342646" lon="11.404506035048202"><ele>361.0</ele><time>2026-05-02T14:14:55.002Z</time></trkpt><trkpt lat="43.3703752291598" lon="11.404511758382261"><ele>361.0</ele><time>2026-05-02T14:14:56.002Z</time></trkpt><trkpt lat="43.37048179702135" lon="11.404516675606486"><ele>361.0</ele><time>2026-05-02T14:14:57.002Z</time></trkpt><trkpt lat="43.37058239223781" lon="11.40451879518453"><ele>361.0</ele><time>2026-05-02T14:14:58.002Z</time></trkpt><trkpt lat="43.37068038100613" lon="11.404492298321975"><ele>362.0</ele><time>2026-05-02T14:14:59.002Z</time></trkpt><trkpt lat="43.370770883470094" lon="11.404453949170996"><ele>363.0</ele><time>2026-05-02T14:15:00.002Z</time></trkpt><trkpt lat="43.37085828435516" lon="11.404400063706875"><ele>364.0</ele><time>2026-05-02T14:15:01.002Z</time></trkpt><trkpt lat="43.370934379200335" lon="11.404330002040073"><ele>365.0</ele><time>2026-05-02T14:15:02.002Z</time></trkpt><trkpt lat="43.37100493100721" lon="11.404240582766274"><ele>366.0</ele><time>2026-05-02T14:15:03.002Z</time></trkpt><trkpt lat="43.37106547322607" lon="11.404131711714378"><ele>366.0</ele><time>2026-05-02T14:15:04.002Z</time></trkpt><trkpt lat="43.3711222342947" lon="11.403989717940744"><ele>366.0</ele><time>2026-05-02T14:15:05.002Z</time></trkpt><trkpt lat="43.3711814435929" lon="11.403824479277993"><ele>366.0</ele><time>2026-05-02T14:15:06.002Z</time></trkpt><trkpt lat="43.371244774639266" lon="11.403658271109256"><ele>366.0</ele><time>2026-05-02T14:15:07.002Z</time></trkpt><trkpt lat="43.37132040835095" lon="11.403478650595622"><ele>368.0</ele><time>2026-05-02T14:15:08.002Z</time></trkpt><trkpt lat="43.37140592240365" lon="11.403275572142368"><ele>370.0</ele><time>2026-05-02T14:15:09.002Z</time></trkpt><trkpt lat="43.371493622817034" lon="11.403072622845693"><ele>372.0</ele><time>2026-05-02T14:15:10.003Z</time></trkpt><trkpt lat="43.371579160454914" lon="11.402877735417713"><ele>373.75</ele><time>2026-05-02T14:15:11.003Z</time></trkpt><trkpt lat="43.371660881286324" lon="11.4026818340973"><ele>375.5</ele><time>2026-05-02T14:15:12.003Z</time></trkpt><trkpt lat="43.37174485788728" lon="11.40250617047123"><ele>377.25</ele><time>2026-05-02T14:15:13.003Z</time></trkpt><trkpt lat="43.371813175163865" lon="11.402354316715353"><ele>379.0</ele><time>2026-05-02T14:15:14.003Z</time></trkpt><trkpt lat="43.371860947069464" lon="11.402206241424135"><ele>379.4</ele><time>2026-05-02T14:15:15.003Z</time></trkpt><trkpt lat="43.371882756598026" lon="11.40204102812419"><ele>379.79999999999995</ele><time>2026-05-02T14:15:16.003Z</time></trkpt><trkpt lat="43.371882255918464" lon="11.401889511569134"><ele>380.20000000000005</ele><time>2026-05-02T14:15:17.003Z</time></trkpt><trkpt lat="43.371899665719326" lon="11.401750111405526"><ele>380.6</ele><time>2026-05-02T14:15:18.003Z</time></trkpt><trkpt lat="43.37194275486887" lon="11.40163551231023"><ele>381.0</ele><time>2026-05-02T14:15:19.003Z</time></trkpt><trkpt lat="43.372016538661114" lon="11.401524785371068"><ele>381.0</ele><time>2026-05-02T14:15:20.003Z</time></trkpt><trkpt lat="43.37213388521419" lon="11.401433348288942"><ele>381.0</ele><time>2026-05-02T14:15:21.003Z</time></trkpt><trkpt lat="43.372242406248695" lon="11.401324557222791"><ele>381.0</ele><time>2026-05-02T14:15:22.003Z</time></trkpt><trkpt lat="43.3723391414533" lon="11.40122346426633"><ele>381.0</ele><time>2026-05-02T14:15:23.003Z</time></trkpt><trkpt lat="43.37245067691765" lon="11.401116387085189"><ele>382.25</ele><time>2026-05-02T14:15:24.003Z</time></trkpt><trkpt lat="43.3725588246342" lon="11.400997976145232"><ele>383.5</ele><time>2026-05-02T14:15:25.003Z</time></trkpt><trkpt lat="43.372645681329345" lon="11.400893290129613"><ele>384.75</ele><time>2026-05-02T14:15:26.003Z</time></trkpt><trkpt lat="43.37273524810634" lon="11.400790673182883"><ele>386.0</ele><time>2026-05-02T14:15:27.003Z</time></trkpt><trkpt lat="43.37282388805729" lon="11.400680380785776"><ele>386.0</ele><time>2026-05-02T14:15:28.003Z</time></trkpt><trkpt lat="43.37292327596928" lon="11.400564084265527"><ele>386.0</ele><time>2026-05-02T14:15:29.003Z</time></trkpt><trkpt lat="43.37302049052475" lon="11.400459800157273"><ele>386.0</ele><time>2026-05-02T14:15:30.003Z</time></trkpt><trkpt lat="43.373106221369966" lon="11.400371027274163"><ele>386.0</ele><time>2026-05-02T14:15:31.003Z</time></trkpt><trkpt lat="43.3732021376132" lon="11.400285830518436"><ele>385.25</ele><time>2026-05-02T14:15:32.003Z</time></trkpt><trkpt lat="43.37331291492677" lon="11.40021122683406"><ele>384.5</ele><time>2026-05-02T14:15:33.003Z</time></trkpt><trkpt lat="43.37342846210726" lon="11.400145451145479"><ele>383.75</ele><time>2026-05-02T14:15:34.003Z</time></trkpt><trkpt lat="43.373552216205745" lon="11.400114291437308"><ele>383.0</ele><time>2026-05-02T14:15:35.003Z</time></trkpt><trkpt lat="43.37366264962842" lon="11.400069416535095"><ele>383.0</ele><time>2026-05-02T14:15:36.003Z</time></trkpt><trkpt lat="43.3737703068778" lon="11.40002566974222"><ele>383.0</ele><time>2026-05-02T14:15:37.003Z</time></trkpt><trkpt lat="43.37386311139038" lon="11.399984891310353"><ele>383.0</ele><time>2026-05-02T14:15:38.003Z</time></trkpt><trkpt lat="43.37393486725085" lon="11.399935761648889"><ele>383.0</ele><time>2026-05-02T14:15:39.003Z</time></trkpt><trkpt lat="43.374029168879176" lon="11.39989859959637"><ele>383.0</ele><time>2026-05-02T14:15:41.001Z</time></trkpt><trkpt lat="43.37415654293267" lon="11.399805090028801"><ele>383.0</ele><time>2026-05-02T14:15:43.001Z</time></trkpt><trkpt lat="43.374230172067" lon="11.399746087502196"><ele>383.0</ele><time>2026-05-02T14:15:44.001Z</time></trkpt><trkpt lat="43.37430170657306" lon="11.399678302073585"><ele>383.0</ele><time>2026-05-02T14:15:45.001Z</time></trkpt><trkpt lat="43.374405184994785" lon="11.399604547735597"><ele>383.0</ele><time>2026-05-02T14:15:46.001Z</time></trkpt><trkpt lat="43.37451309866485" lon="11.399492449503551"><ele>383.0</ele><time>2026-05-02T14:15:47.001Z</time></trkpt><trkpt lat="43.37462972066193" lon="11.399366689463141"><ele>382.6666666666667</ele><time>2026-05-02T14:15:48.001Z</time></trkpt><trkpt lat="43.374751297237125" lon="11.399223436521467"><ele>382.3333333333333</ele><time>2026-05-02T14:15:49.001Z</time></trkpt><trkpt lat="43.3748825961188" lon="11.399070305336119"><ele>382.0</ele><time>2026-05-02T14:15:50Z</time></trkpt><trkpt lat="43.375030084275615" lon="11.398910899324257"><ele>382.3333333333333</ele><time>2026-05-02T14:15:51Z</time></trkpt><trkpt lat="43.37516814017961" lon="11.398763066578342"><ele>382.6666666666667</ele><time>2026-05-02T14:15:52Z</time></trkpt><trkpt lat="43.37530981015043" lon="11.398629772164721"><ele>383.0</ele><time>2026-05-02T14:15:53Z</time></trkpt><trkpt lat="43.375452691619685" lon="11.398522329714524"><ele>383.0</ele><time>2026-05-02T14:15:54Z</time></trkpt><trkpt lat="43.37562007035611" lon="11.398429137715006"><ele>383.0</ele><time>2026-05-02T14:15:55Z</time></trkpt><trkpt lat="43.375821604331136" lon="11.398338625375956"><ele>383.0</ele><time>2026-05-02T14:15:56Z</time></trkpt><trkpt lat="43.37603189725567" lon="11.398262742224759"><ele>383.0</ele><time>2026-05-02T14:15:57Z</time></trkpt><trkpt lat="43.37621952719272" lon="11.398197419109344"><ele>383.0</ele><time>2026-05-02T14:15:58Z</time></trkpt><trkpt lat="43.3763870597949" lon="11.398141548719408"><ele>383.0</ele><time>2026-05-02T14:15:59Z</time></trkpt><trkpt lat="43.376535665502345" lon="11.39807922629196"><ele>382.5</ele><time>2026-05-02T14:16:00Z</time></trkpt><trkpt lat="43.37665827428859" lon="11.398003315693096"><ele>382.0</ele><time>2026-05-02T14:16:01Z</time></trkpt><trkpt lat="43.376776473992535" lon="11.39789754569365"><ele>381.5</ele><time>2026-05-02T14:16:02Z</time></trkpt><trkpt lat="43.37688859057812" lon="11.39776769398102"><ele>381.0</ele><time>2026-05-02T14:16:03Z</time></trkpt><trkpt lat="43.37699992336366" lon="11.397634447055456"><ele>382.66666666666663</ele><time>2026-05-02T14:16:04Z</time></trkpt><trkpt lat="43.3771097630367" lon="11.397517885023609"><ele>384.3333333333333</ele><time>2026-05-02T14:16:05Z</time></trkpt><trkpt lat="43.37723920928131" lon="11.397393422869426"><ele>386.0</ele><time>2026-05-02T14:16:06Z</time></trkpt><trkpt lat="43.37738984851875" lon="11.397279162942956"><ele>386.0</ele><time>2026-05-02T14:16:07Z</time></trkpt><trkpt lat="43.37754126538464" lon="11.397187033914934"><ele>386.0</ele><time>2026-05-02T14:16:08Z</time></trkpt><trkpt lat="43.377705379505386" lon="11.397158394712479"><ele>386.0</ele><time>2026-05-02T14:16:09Z</time></trkpt><trkpt lat="43.37789534801006" lon="11.39714045293463"><ele>388.66666666666663</ele><time>2026-05-02T14:16:10Z</time></trkpt><trkpt lat="43.378108515415654" lon="11.39706907500012"><ele>391.33333333333337</ele><time>2026-05-02T14:16:11Z</time></trkpt><trkpt lat="43.37832941137826" lon="11.397008791868926"><ele>394.0</ele><time>2026-05-02T14:16:12Z</time></trkpt><trkpt lat="43.37856127832118" lon="11.39692232903938"><ele>394.0</ele><time>2026-05-02T14:16:13.001Z</time></trkpt><trkpt lat="43.378783743620026" lon="11.396845025646735"><ele>394.0</ele><time>2026-05-02T14:16:14.001Z</time></trkpt><trkpt lat="43.3789777341502" lon="11.396780728304087"><ele>394.0</ele><time>2026-05-02T14:16:15.001Z</time></trkpt><trkpt lat="43.37916036394245" lon="11.39672283939872"><ele>396.0</ele><time>2026-05-02T14:16:16.001Z</time></trkpt><trkpt lat="43.379349210379665" lon="11.396665317166512"><ele>398.0</ele><time>2026-05-02T14:16:17.001Z</time></trkpt><trkpt lat="43.37955271345195" lon="11.396605983498548"><ele>400.0</ele><time>2026-05-02T14:16:18.001Z</time></trkpt><trkpt lat="43.379764549933824" lon="11.396546638397432"><ele>402.0</ele><time>2026-05-02T14:16:19.001Z</time></trkpt><trkpt lat="43.37998215631223" lon="11.396493095789172"><ele>404.0</ele><time>2026-05-02T14:16:20.001Z</time></trkpt><trkpt lat="43.38020918073848" lon="11.39643820351622"><ele>404.0</ele><time>2026-05-02T14:16:21.001Z</time></trkpt><trkpt lat="43.38043220089753" lon="11.396381649673435"><ele>404.0</ele><time>2026-05-02T14:16:22.001Z</time></trkpt><trkpt lat="43.38062165704179" lon="11.396335360493005"><ele>404.0</ele><time>2026-05-02T14:16:23.001Z</time></trkpt><trkpt lat="43.380817731411284" lon="11.396295526162545"><ele>405.3333333333333</ele><time>2026-05-02T14:16:24.001Z</time></trkpt><trkpt lat="43.38102595538546" lon="11.3962758765488"><ele>406.66666666666663</ele><time>2026-05-02T14:16:25.001Z</time></trkpt><trkpt lat="43.38123816101918" lon="11.396275994277799"><ele>408.0</ele><time>2026-05-02T14:16:26.001Z</time></trkpt><trkpt lat="43.38144932646834" lon="11.396277085122756"><ele>408.66666666666663</ele><time>2026-05-02T14:16:27.001Z</time></trkpt><trkpt lat="43.38164322595179" lon="11.396262088305988"><ele>409.3333333333333</ele><time>2026-05-02T14:16:28.001Z</time></trkpt><trkpt lat="43.38180446111935" lon="11.396233484571251"><ele>410.0</ele><time>2026-05-02T14:16:29.001Z</time></trkpt><trkpt lat="43.38195691394366" lon="11.396200152527864"><ele>410.0</ele><time>2026-05-02T14:16:30.001Z</time></trkpt><trkpt lat="43.382113449719505" lon="11.396171173470599"><ele>410.0</ele><time>2026-05-02T14:16:31.001Z</time></trkpt><trkpt lat="43.382287321570026" lon="11.396135614356321"><ele>410.0</ele><time>2026-05-02T14:16:32.001Z</time></trkpt><trkpt lat="43.382461144796814" lon="11.396093424247738"><ele>411.3333333333333</ele><time>2026-05-02T14:16:33.001Z</time></trkpt><trkpt lat="43.38264037685955" lon="11.396045019511671"><ele>412.66666666666663</ele><time>2026-05-02T14:16:34.001Z</time></trkpt><trkpt lat="43.38280893979773" lon="11.395993631595003"><ele>414.0</ele><time>2026-05-02T14:16:35.001Z</time></trkpt><trkpt lat="43.38299200392004" lon="11.395933673763972"><ele>415.33333333333337</ele><time>2026-05-02T14:16:36.001Z</time></trkpt><trkpt lat="43.383175408066315" lon="11.395863203910318"><ele>416.6666666666667</ele><time>2026-05-02T14:16:37.001Z</time></trkpt><trkpt lat="43.38334588526033" lon="11.395786741222262"><ele>418.0</ele><time>2026-05-02T14:16:38.001Z</time></trkpt><trkpt lat="43.38351089938017" lon="11.395721422567037"><ele>418.0</ele><time>2026-05-02T14:16:39.001Z</time></trkpt><trkpt lat="43.38368015740954" lon="11.395660344436017"><ele>418.0</ele><time>2026-05-02T14:16:40.001Z</time></trkpt><trkpt lat="43.38384507374929" lon="11.39559903984464"><ele>418.0</ele><time>2026-05-02T14:16:41.001Z</time></trkpt><trkpt lat="43.38400751089119" lon="11.395541068324135"><ele>417.5</ele><time>2026-05-02T14:16:42.001Z</time></trkpt><trkpt lat="43.38415649329116" lon="11.395485621211215"><ele>417.0</ele><time>2026-05-02T14:16:43.001Z</time></trkpt><trkpt lat="43.38429801171829" lon="11.395431315053932"><ele>416.5</ele><time>2026-05-02T14:16:44.001Z</time></trkpt><trkpt lat="43.3844327488341" lon="11.395372634560612"><ele>416.0</ele><time>2026-05-02T14:16:45.001Z</time></trkpt><trkpt lat="43.38456645578352" lon="11.395290177057644"><ele>418.3333333333333</ele><time>2026-05-02T14:16:46.001Z</time></trkpt><trkpt lat="43.38469279795502" lon="11.395175926901528"><ele>420.66666666666663</ele><time>2026-05-02T14:16:47.001Z</time></trkpt><trkpt lat="43.38480924374263" lon="11.395016998698717"><ele>423.0</ele><time>2026-05-02T14:16:48.001Z</time></trkpt><trkpt lat="43.38492143495765" lon="11.394837457856593"><ele>423.66666666666663</ele><time>2026-05-02T14:16:49.001Z</time></trkpt><trkpt lat="43.3850353620625" lon="11.39465397348884"><ele>424.3333333333333</ele><time>2026-05-02T14:16:50.001Z</time></trkpt><trkpt lat="43.38515501357734" lon="11.394462084144742"><ele>425.0</ele><time>2026-05-02T14:16:51.001Z</time></trkpt><trkpt lat="43.385282996035194" lon="11.394278704463272"><ele>425.0</ele><time>2026-05-02T14:16:52.001Z</time></trkpt><trkpt lat="43.38541578560775" lon="11.394082354792259"><ele>425.0</ele><time>2026-05-02T14:16:53.001Z</time></trkpt><trkpt lat="43.385551275897754" lon="11.393889273591602"><ele>425.0</ele><time>2026-05-02T14:16:54.001Z</time></trkpt><trkpt lat="43.385679975855574" lon="11.393703688780633"><ele>426.0</ele><time>2026-05-02T14:16:55.001Z</time></trkpt><trkpt lat="43.385799890740024" lon="11.393527550617055"><ele>427.0</ele><time>2026-05-02T14:16:56.001Z</time></trkpt><trkpt lat="43.385923779410845" lon="11.393346670426293"><ele>428.0</ele><time>2026-05-02T14:16:57.001Z</time></trkpt><trkpt lat="43.386049887650756" lon="11.393157213573526"><ele>428.0</ele><time>2026-05-02T14:16:58.001Z</time></trkpt><trkpt lat="43.38616926780705" lon="11.392980220800482"><ele>428.0</ele><time>2026-05-02T14:16:59.001Z</time></trkpt><trkpt lat="43.3862755644379" lon="11.3928228788378"><ele>428.0</ele><time>2026-05-02T14:17:00.001Z</time></trkpt><trkpt lat="43.38639064325634" lon="11.392676870494963"><ele>429.0</ele><time>2026-05-02T14:17:01.002Z</time></trkpt><trkpt lat="43.38654699132871" lon="11.392559426228422"><ele>430.0</ele><time>2026-05-02T14:17:02.002Z</time></trkpt><trkpt lat="43.38669382988615" lon="11.392430254598871"><ele>431.0</ele><time>2026-05-02T14:17:03.002Z</time></trkpt><trkpt lat="43.38682855202863" lon="11.39227866851673"><ele>430.66666666666663</ele><time>2026-05-02T14:17:04.002Z</time></trkpt><trkpt lat="43.386955068625" lon="11.392136550722075"><ele>430.33333333333337</ele><time>2026-05-02T14:17:05.002Z</time></trkpt><trkpt lat="43.387071572981185" lon="11.39197389597767"><ele>430.0</ele><time>2026-05-02T14:17:06.002Z</time></trkpt><trkpt lat="43.38718827696998" lon="11.391786477001371"><ele>431.33333333333337</ele><time>2026-05-02T14:17:07.002Z</time></trkpt><trkpt lat="43.387304593460435" lon="11.391595008499337"><ele>432.66666666666663</ele><time>2026-05-02T14:17:08.002Z</time></trkpt><trkpt lat="43.3874202275863" lon="11.391414533255169"><ele>434.0</ele><time>2026-05-02T14:17:09.002Z</time></trkpt><trkpt lat="43.38752717173988" lon="11.391259498135094"><ele>434.5</ele><time>2026-05-02T14:17:10.002Z</time></trkpt><trkpt lat="43.38762260401276" lon="11.39112124227564"><ele>435.0</ele><time>2026-05-02T14:17:11.002Z</time></trkpt><trkpt lat="43.387708268463804" lon="11.390994629030835"><ele>435.5</ele><time>2026-05-02T14:17:12.002Z</time></trkpt><trkpt lat="43.38778430303941" lon="11.390875217016307"><ele>436.0</ele><time>2026-05-02T14:17:13.002Z</time></trkpt><trkpt lat="43.38787561994257" lon="11.390744831605074"><ele>436.0</ele><time>2026-05-02T14:17:14.002Z</time></trkpt><trkpt lat="43.3879545664236" lon="11.390630941877074"><ele>436.0</ele><time>2026-05-02T14:17:15.002Z</time></trkpt><trkpt lat="43.38802214183146" lon="11.390528000378925"><ele>436.0</ele><time>2026-05-02T14:17:16.002Z</time></trkpt><trkpt lat="43.38807564554541" lon="11.390411201760587"><ele>436.0</ele><time>2026-05-02T14:17:17.002Z</time></trkpt><trkpt lat="43.388116852687034" lon="11.390255707555756"><ele>436.0</ele><time>2026-05-02T14:17:18.002Z</time></trkpt><trkpt lat="43.38814355526063" lon="11.390055820546626"><ele>433.33333333333337</ele><time>2026-05-02T14:17:19.002Z</time></trkpt><trkpt lat="43.38817309811409" lon="11.389833594024864"><ele>430.66666666666663</ele><time>2026-05-02T14:17:20.002Z</time></trkpt><trkpt lat="43.388224557135906" lon="11.389607604636822"><ele>428.0</ele><time>2026-05-02T14:17:21.002Z</time></trkpt><trkpt lat="43.388305293529704" lon="11.389385247674308"><ele>427.66666666666663</ele><time>2026-05-02T14:17:22.002Z</time></trkpt><trkpt lat="43.388407034138766" lon="11.38914660404882"><ele>427.33333333333337</ele><time>2026-05-02T14:17:23.002Z</time></trkpt><trkpt lat="43.3885307459467" lon="11.388871509483941"><ele>427.0</ele><time>2026-05-02T14:17:24.002Z</time></trkpt><trkpt lat="43.38865495248539" lon="11.388595608741023"><ele>427.6666666666667</ele><time>2026-05-02T14:17:25.002Z</time></trkpt><trkpt lat="43.38877010149888" lon="11.388337456189122"><ele>428.33333333333337</ele><time>2026-05-02T14:17:26.002Z</time></trkpt><trkpt lat="43.3888747329322" lon="11.38809293408132"><ele>429.0</ele><time>2026-05-02T14:17:27.002Z</time></trkpt><trkpt lat="43.388972375849654" lon="11.387856938450222"><ele>426.66666666666663</ele><time>2026-05-02T14:17:28.002Z</time></trkpt><trkpt lat="43.38906303406411" lon="11.387632899559616"><ele>424.3333333333333</ele><time>2026-05-02T14:17:29.002Z</time></trkpt><trkpt lat="43.38914899130579" lon="11.387419388761792"><ele>422.0</ele><time>2026-05-02T14:17:30.002Z</time></trkpt><trkpt lat="43.389250014864956" lon="11.387209154344687"><ele>423.0</ele><time>2026-05-02T14:17:31.002Z</time></trkpt><trkpt lat="43.38934422597549" lon="11.38700886784596"><ele>424.0</ele><time>2026-05-02T14:17:32.002Z</time></trkpt><trkpt lat="43.389445909563506" lon="11.386839365133122"><ele>425.0</ele><time>2026-05-02T14:17:33.002Z</time></trkpt><trkpt lat="43.389525665363564" lon="11.386675288838969"><ele>425.0</ele><time>2026-05-02T14:17:34.002Z</time></trkpt><trkpt lat="43.38959879209385" lon="11.386519660163248"><ele>425.0</ele><time>2026-05-02T14:17:35.002Z</time></trkpt><trkpt lat="43.38965101179156" lon="11.386369596983453"><ele>425.0</ele><time>2026-05-02T14:17:36.002Z</time></trkpt><trkpt lat="43.389708890433305" lon="11.386234118897544"><ele>425.0</ele><time>2026-05-02T14:17:37.002Z</time></trkpt><trkpt lat="43.389761967472126" lon="11.386103844393945"><ele>424.49999999999994</ele><time>2026-05-02T14:17:38.002Z</time></trkpt><trkpt lat="43.38979726657968" lon="11.3859697380592"><ele>424.0</ele><time>2026-05-02T14:17:39.002Z</time></trkpt><trkpt lat="43.38984679779896" lon="11.385826610952863"><ele>423.5</ele><time>2026-05-02T14:17:41.002Z</time></trkpt><trkpt lat="43.389884879640405" lon="11.385741377166113"><ele>423.0</ele><time>2026-05-02T14:17:43.002Z</time></trkpt><trkpt lat="43.38993606835412" lon="11.385680090277535"><ele>422.49999999999994</ele><time>2026-05-02T14:17:45.003Z</time></trkpt><trkpt lat="43.39001486107517" lon="11.385620150838918"><ele>422.0</ele><time>2026-05-02T14:17:46.999Z</time></trkpt><trkpt lat="43.39011824865154" lon="11.38555561292456"><ele>421.99999999999994</ele><time>2026-05-02T14:17:48.999Z</time></trkpt><trkpt lat="43.390176933168675" lon="11.385517140204739"><ele>422.0</ele><time>2026-05-02T14:17:49.999Z</time></trkpt><trkpt lat="43.39025092776225" lon="11.385463795630073"><ele>422.0</ele><time>2026-05-02T14:17:50.999Z</time></trkpt><trkpt lat="43.39033072942823" lon="11.385402155875072"><ele>422.0</ele><time>2026-05-02T14:17:51.999Z</time></trkpt><trkpt lat="43.39041428134178" lon="11.385346797370795"><ele>421.99999999999994</ele><time>2026-05-02T14:17:52.999Z</time></trkpt><trkpt lat="43.39049601519911" lon="11.38528910093532"><ele>422.0</ele><time>2026-05-02T14:17:53.999Z</time></trkpt><trkpt lat="43.39056295815506" lon="11.38524141992478"><ele>422.40000000000003</ele><time>2026-05-02T14:17:54.999Z</time></trkpt><trkpt lat="43.39066637472757" lon="11.385164416916243"><ele>422.8</ele><time>2026-05-02T14:17:56.999Z</time></trkpt><trkpt lat="43.39075128973931" lon="11.38507944454029"><ele>423.2</ele><time>2026-05-02T14:17:58.999Z</time></trkpt><trkpt lat="43.390827253657164" lon="11.385013115502128"><ele>423.6</ele><time>2026-05-02T14:18:00.999Z</time></trkpt><trkpt lat="43.39089115709383" lon="11.384959912054171"><ele>424.0</ele><time>2026-05-02T14:18:01.999Z</time></trkpt><trkpt lat="43.39097782461495" lon="11.384896854453974"><ele>424.0</ele><time>2026-05-02T14:18:03Z</time></trkpt><trkpt lat="43.3910666670068" lon="11.384827968388358"><ele>424.0</ele><time>2026-05-02T14:18:04Z</time></trkpt><trkpt lat="43.39116696431093" lon="11.384734633854894"><ele>424.0</ele><time>2026-05-02T14:18:05Z</time></trkpt><trkpt lat="43.39127207062689" lon="11.384640494102937"><ele>424.0</ele><time>2026-05-02T14:18:06Z</time></trkpt><trkpt lat="43.39138452989447" lon="11.384549933555453"><ele>424.25</ele><time>2026-05-02T14:18:07Z</time></trkpt><trkpt lat="43.39149052475556" lon="11.384462327829088"><ele>424.5</ele><time>2026-05-02T14:18:08Z</time></trkpt><trkpt lat="43.39158339410231" lon="11.384379730102468"><ele>424.75</ele><time>2026-05-02T14:18:09Z</time></trkpt><trkpt lat="43.39167411378668" lon="11.38429753198379"><ele>425.0</ele><time>2026-05-02T14:18:10Z</time></trkpt><trkpt lat="43.391759403956485" lon="11.384209261458347"><ele>425.0</ele><time>2026-05-02T14:18:11Z</time></trkpt><trkpt lat="43.3918265929964" lon="11.384106627099637"><ele>425.0</ele><time>2026-05-02T14:18:12Z</time></trkpt><trkpt lat="43.391885777722976" lon="11.383962772413266"><ele>425.0</ele><time>2026-05-02T14:18:13Z</time></trkpt><trkpt lat="43.391929743145305" lon="11.383795285532955"><ele>425.0</ele><time>2026-05-02T14:18:14Z</time></trkpt><trkpt lat="43.39195726343783" lon="11.383595894450613"><ele>425.0</ele><time>2026-05-02T14:18:15Z</time></trkpt><trkpt lat="43.39197907996617" lon="11.383383075797"><ele>425.0</ele><time>2026-05-02T14:18:16Z</time></trkpt><trkpt lat="43.39200718192683" lon="11.38318774940127"><ele>425.0</ele><time>2026-05-02T14:18:17Z</time></trkpt><trkpt lat="43.39205212145798" lon="11.38298482109672"><ele>425.0</ele><time>2026-05-02T14:18:18Z</time></trkpt><trkpt lat="43.39211256443233" lon="11.382820789936657"><ele>425.0</ele><time>2026-05-02T14:18:19Z</time></trkpt><trkpt lat="43.39220805216504" lon="11.382665391642384"><ele>425.0</ele><time>2026-05-02T14:18:20Z</time></trkpt><trkpt lat="43.392327268154865" lon="11.382538784937482"><ele>425.0</ele><time>2026-05-02T14:18:21Z</time></trkpt><trkpt lat="43.3924701116106" lon="11.382395961891651"><ele>425.0</ele><time>2026-05-02T14:18:22Z</time></trkpt><trkpt lat="43.39263079740578" lon="11.382248853332877"><ele>425.0</ele><time>2026-05-02T14:18:23Z</time></trkpt><trkpt lat="43.39279289700909" lon="11.382102164885088"><ele>425.0</ele><time>2026-05-02T14:18:24Z</time></trkpt><trkpt lat="43.39294797588713" lon="11.381984503159366"><ele>423.66666666666663</ele><time>2026-05-02T14:18:25Z</time></trkpt><trkpt lat="43.393092390237165" lon="11.38187687083271"><ele>422.33333333333337</ele><time>2026-05-02T14:18:26Z</time></trkpt><trkpt lat="43.393241309459526" lon="11.381761600692645"><ele>421.0</ele><time>2026-05-02T14:18:27Z</time></trkpt><trkpt lat="43.39339022745236" lon="11.381636867216308"><ele>421.0</ele><time>2026-05-02T14:18:28.001Z</time></trkpt><trkpt lat="43.39354645590734" lon="11.381518849877894"><ele>421.0</ele><time>2026-05-02T14:18:29.001Z</time></trkpt><trkpt lat="43.39370681245118" lon="11.381404947772"><ele>421.0</ele><time>2026-05-02T14:18:30.001Z</time></trkpt><trkpt lat="43.39387265056335" lon="11.381294915438184"><ele>419.0</ele><time>2026-05-02T14:18:31.001Z</time></trkpt><trkpt lat="43.394055806435624" lon="11.38119972962459"><ele>417.0</ele><time>2026-05-02T14:18:32.001Z</time></trkpt><trkpt lat="43.394255663739465" lon="11.381118357759442"><ele>415.0</ele><time>2026-05-02T14:18:33.001Z</time></trkpt><trkpt lat="43.394443523775" lon="11.381063550327125"><ele>415.0</ele><time>2026-05-02T14:18:34.001Z</time></trkpt><trkpt lat="43.3946270563908" lon="11.381025371874049"><ele>415.0</ele><time>2026-05-02T14:18:35.001Z</time></trkpt><trkpt lat="43.394804450932995" lon="11.38098482960469"><ele>415.0</ele><time>2026-05-02T14:18:36.001Z</time></trkpt><trkpt lat="43.39498626362824" lon="11.380973848549838"><ele>415.33333333333337</ele><time>2026-05-02T14:18:37.001Z</time></trkpt><trkpt lat="43.395179729786754" lon="11.380968765147509"><ele>415.66666666666663</ele><time>2026-05-02T14:18:38.001Z</time></trkpt><trkpt lat="43.39537749237481" lon="11.381007798071519"><ele>416.0</ele><time>2026-05-02T14:18:39.001Z</time></trkpt><trkpt lat="43.39558013190303" lon="11.381044440826914"><ele>414.66666666666663</ele><time>2026-05-02T14:18:40.001Z</time></trkpt><trkpt lat="43.39577558570092" lon="11.381044566883139"><ele>413.33333333333337</ele><time>2026-05-02T14:18:41.001Z</time></trkpt><trkpt lat="43.39595183074471" lon="11.381066121420337"><ele>412.0</ele><time>2026-05-02T14:18:42.001Z</time></trkpt><trkpt lat="43.39610420609991" lon="11.38106172430204"><ele>412.0</ele><time>2026-05-02T14:18:43.001Z</time></trkpt><trkpt lat="43.396230130622186" lon="11.38097915628588"><ele>412.0</ele><time>2026-05-02T14:18:44.001Z</time></trkpt><trkpt lat="43.396364260720574" lon="11.380847189446477"><ele>412.0</ele><time>2026-05-02T14:18:45.001Z</time></trkpt><trkpt lat="43.396479887938746" lon="11.380678922858944"><ele>411.0</ele><time>2026-05-02T14:18:46.001Z</time></trkpt><trkpt lat="43.396569938370995" lon="11.380463377159417"><ele>410.0</ele><time>2026-05-02T14:18:47.001Z</time></trkpt><trkpt lat="43.39664304568979" lon="11.380185568756591"><ele>409.0</ele><time>2026-05-02T14:18:48.001Z</time></trkpt><trkpt lat="43.3966854968116" lon="11.379909756201924"><ele>410.6666666666667</ele><time>2026-05-02T14:18:49.001Z</time></trkpt><trkpt lat="43.39671596030495" lon="11.379672646156385"><ele>412.33333333333337</ele><time>2026-05-02T14:18:50.001Z</time></trkpt><trkpt lat="43.39675386073392" lon="11.379469707277224"><ele>414.0</ele><time>2026-05-02T14:18:51.001Z</time></trkpt><trkpt lat="43.3967938748758" lon="11.379271413139827"><ele>414.0</ele><time>2026-05-02T14:18:52.001Z</time></trkpt><trkpt lat="43.39683396888249" lon="11.379073526659848"><ele>414.0</ele><time>2026-05-02T14:18:53.001Z</time></trkpt><trkpt lat="43.39687198593097" lon="11.378895988908434"><ele>414.0</ele><time>2026-05-02T14:18:54.001Z</time></trkpt><trkpt lat="43.3969131020305" lon="11.378734118723818"><ele>414.0</ele><time>2026-05-02T14:18:55.001Z</time></trkpt><trkpt lat="43.396965143744445" lon="11.378593407401567"><ele>414.0</ele><time>2026-05-02T14:18:56.001Z</time></trkpt><trkpt lat="43.397042485243176" lon="11.378446146043128"><ele>414.0</ele><time>2026-05-02T14:18:57.001Z</time></trkpt><trkpt lat="43.397144997546945" lon="11.378274589872506"><ele>414.0</ele><time>2026-05-02T14:18:58.001Z</time></trkpt><trkpt lat="43.39724596369562" lon="11.378092411687938"><ele>415.66666666666663</ele><time>2026-05-02T14:18:59.001Z</time></trkpt><trkpt lat="43.397350961957365" lon="11.377903833757184"><ele>417.3333333333333</ele><time>2026-05-02T14:19:00.001Z</time></trkpt><trkpt lat="43.39745564003298" lon="11.377725470213036"><ele>419.0</ele><time>2026-05-02T14:19:01.001Z</time></trkpt><trkpt lat="43.39756546793802" lon="11.377575386724017"><ele>419.0</ele><time>2026-05-02T14:19:02.002Z</time></trkpt><trkpt lat="43.39766197927843" lon="11.377407813050246"><ele>419.0</ele><time>2026-05-02T14:19:03.002Z</time></trkpt><trkpt lat="43.39776794647381" lon="11.3772480707388"><ele>419.0</ele><time>2026-05-02T14:19:04.002Z</time></trkpt><trkpt lat="43.397877812494535" lon="11.377089210862083"><ele>418.3333333333333</ele><time>2026-05-02T14:19:05.002Z</time></trkpt><trkpt lat="43.397990932861056" lon="11.376931398178613"><ele>417.66666666666663</ele><time>2026-05-02T14:19:06.002Z</time></trkpt><trkpt lat="43.398111376154304" lon="11.376778184823053"><ele>417.0</ele><time>2026-05-02T14:19:07.002Z</time></trkpt><trkpt lat="43.39823888934454" lon="11.37662889868333"><ele>418.33333333333337</ele><time>2026-05-02T14:19:08.002Z</time></trkpt><trkpt lat="43.39836534518647" lon="11.376486226537764"><ele>419.6666666666667</ele><time>2026-05-02T14:19:09.002Z</time></trkpt><trkpt lat="43.39850431002226" lon="11.376354100268207"><ele>421.0</ele><time>2026-05-02T14:19:10.002Z</time></trkpt><trkpt lat="43.398651120507246" lon="11.376234849504673"><ele>421.6666666666667</ele><time>2026-05-02T14:19:11.002Z</time></trkpt><trkpt lat="43.39879816496659" lon="11.376139045250683"><ele>422.33333333333337</ele><time>2026-05-02T14:19:12.002Z</time></trkpt><trkpt lat="43.39894032083022" lon="11.376074347286341"><ele>423.0</ele><time>2026-05-02T14:19:13.002Z</time></trkpt><trkpt lat="43.39907811898117" lon="11.376040032918377"><ele>424.25</ele><time>2026-05-02T14:19:14.002Z</time></trkpt><trkpt lat="43.39921569283876" lon="11.376008155691508"><ele>425.5</ele><time>2026-05-02T14:19:15.002Z</time></trkpt><trkpt lat="43.39934313960467" lon="11.375978126445776"><ele>426.75</ele><time>2026-05-02T14:19:16.002Z</time></trkpt><trkpt lat="43.399455248794034" lon="11.375938591930494"><ele>428.0</ele><time>2026-05-02T14:19:17.002Z</time></trkpt><trkpt lat="43.39952715249229" lon="11.375886016796604"><ele>428.0</ele><time>2026-05-02T14:19:18.002Z</time></trkpt><trkpt lat="43.399578043330884" lon="11.375824741112902"><ele>427.99999999999994</ele><time>2026-05-02T14:19:19.002Z</time></trkpt><trkpt lat="43.399636059519956" lon="11.375747614596992"><ele>427.99999999999994</ele><time>2026-05-02T14:19:20.002Z</time></trkpt><trkpt lat="43.39970135618464" lon="11.375640294496158"><ele>428.0</ele><time>2026-05-02T14:19:21.002Z</time></trkpt><trkpt lat="43.399768114160715" lon="11.375505600071866"><ele>428.0</ele><time>2026-05-02T14:19:22.002Z</time></trkpt><trkpt lat="43.399855371950565" lon="11.37533800397336"><ele>430.66666666666663</ele><time>2026-05-02T14:19:23.002Z</time></trkpt><trkpt lat="43.39994977547045" lon="11.375169910013508"><ele>433.33333333333337</ele><time>2026-05-02T14:19:24.002Z</time></trkpt><trkpt lat="43.400040643265875" lon="11.375012146730164"><ele>436.0</ele><time>2026-05-02T14:19:25.002Z</time></trkpt><trkpt lat="43.40014077276225" lon="11.374851982802346"><ele>436.75</ele><time>2026-05-02T14:19:26.002Z</time></trkpt><trkpt lat="43.40024039191232" lon="11.37468386671801"><ele>437.5</ele><time>2026-05-02T14:19:27.002Z</time></trkpt><trkpt lat="43.400334999583556" lon="11.37451907853642"><ele>438.25</ele><time>2026-05-02T14:19:28.002Z</time></trkpt><trkpt lat="43.400417364404454" lon="11.37438061224983"><ele>439.0</ele><time>2026-05-02T14:19:29.002Z</time></trkpt><trkpt lat="43.40048533348599" lon="11.374265534486582"><ele>438.79999999999995</ele><time>2026-05-02T14:19:30.002Z</time></trkpt><trkpt lat="43.40053983988537" lon="11.374144881905842"><ele>438.59999999999997</ele><time>2026-05-02T14:19:31.002Z</time></trkpt><trkpt lat="43.40057537243511" lon="11.374027366421105"><ele>438.4</ele><time>2026-05-02T14:19:32.002Z</time></trkpt><trkpt lat="43.40060493840325" lon="11.37387339559201"><ele>438.2</ele><time>2026-05-02T14:19:33.002Z</time></trkpt><trkpt lat="43.400636846601216" lon="11.373704673261008"><ele>438.0</ele><time>2026-05-02T14:19:34.002Z</time></trkpt><trkpt lat="43.40066625917623" lon="11.373552027027543"><ele>438.0</ele><time>2026-05-02T14:19:35.002Z</time></trkpt><trkpt lat="43.40070657378089" lon="11.37341187036926"><ele>438.0</ele><time>2026-05-02T14:19:36.002Z</time></trkpt><trkpt lat="43.40075553049083" lon="11.373280078629245"><ele>438.0</ele><time>2026-05-02T14:19:37.002Z</time></trkpt><trkpt lat="43.4008347766633" lon="11.37314300432543"><ele>438.0</ele><time>2026-05-02T14:19:38.002Z</time></trkpt><trkpt lat="43.40093290042032" lon="11.373017373863453"><ele>437.59999999999997</ele><time>2026-05-02T14:19:39.003Z</time></trkpt><trkpt lat="43.401042579620764" lon="11.372908356594216"><ele>437.19999999999993</ele><time>2026-05-02T14:19:40.003Z</time></trkpt><trkpt lat="43.40112967620652" lon="11.372813083297165"><ele>436.8</ele><time>2026-05-02T14:19:41.003Z</time></trkpt><trkpt lat="43.40119716843762" lon="11.37272225760677"><ele>436.4</ele><time>2026-05-02T14:19:42.003Z</time></trkpt><trkpt lat="43.40123905785449" lon="11.372637676577652"><ele>436.0</ele><time>2026-05-02T14:19:43.003Z</time></trkpt><trkpt lat="43.40128048313945" lon="11.37252054453167"><ele>436.0</ele><time>2026-05-02T14:19:44.003Z</time></trkpt><trkpt lat="43.401298507182304" lon="11.372379251563526"><ele>436.0</ele><time>2026-05-02T14:19:45.003Z</time></trkpt><trkpt lat="43.40130605544112" lon="11.372217654513614"><ele>436.0</ele><time>2026-05-02T14:19:46.003Z</time></trkpt><trkpt lat="43.401297098959645" lon="11.37201174547847"><ele>436.0</ele><time>2026-05-02T14:19:47.003Z</time></trkpt><trkpt lat="43.40128056914689" lon="11.37181089258838"><ele>435.5</ele><time>2026-05-02T14:19:48.003Z</time></trkpt><trkpt lat="43.40127098480377" lon="11.371624235127188"><ele>435.0</ele><time>2026-05-02T14:19:49.003Z</time></trkpt><trkpt lat="43.40126768012919" lon="11.37145047650713"><ele>434.5</ele><time>2026-05-02T14:19:50.003Z</time></trkpt><trkpt lat="43.401269794662596" lon="11.371266420710352"><ele>434.0</ele><time>2026-05-02T14:19:51.003Z</time></trkpt><trkpt lat="43.401277217419654" lon="11.371065757408646"><ele>432.66666666666663</ele><time>2026-05-02T14:19:52.003Z</time></trkpt><trkpt lat="43.40128876797975" lon="11.37087771466935"><ele>431.33333333333337</ele><time>2026-05-02T14:19:52.999Z</time></trkpt><trkpt lat="43.40132558340756" lon="11.370670983889442"><ele>430.0</ele><time>2026-05-02T14:19:53.999Z</time></trkpt><trkpt lat="43.401382021295895" lon="11.370454739216541"><ele>429.6666666666667</ele><time>2026-05-02T14:19:54.999Z</time></trkpt><trkpt lat="43.40145796968214" lon="11.370236073287971"><ele>429.33333333333337</ele><time>2026-05-02T14:19:55.999Z</time></trkpt><trkpt lat="43.4015273849972" lon="11.370005717367816"><ele>429.0</ele><time>2026-05-02T14:19:56.999Z</time></trkpt><trkpt lat="43.40159461354692" lon="11.369769196059192"><ele>429.33333333333337</ele><time>2026-05-02T14:19:57.999Z</time></trkpt><trkpt lat="43.40164578454361" lon="11.369534461739311"><ele>429.6666666666667</ele><time>2026-05-02T14:19:58.999Z</time></trkpt><trkpt lat="43.401681220315496" lon="11.369317052795417"><ele>430.0</ele><time>2026-05-02T14:19:59.999Z</time></trkpt><trkpt lat="43.40170925107115" lon="11.369109203895597"><ele>430.0</ele><time>2026-05-02T14:20:00.999Z</time></trkpt><trkpt lat="43.40172282658927" lon="11.368911680369013"><ele>430.0</ele><time>2026-05-02T14:20:01.999Z</time></trkpt><trkpt lat="43.40171857642753" lon="11.368693917723798"><ele>430.0</ele><time>2026-05-02T14:20:02.999Z</time></trkpt><trkpt lat="43.401698205334945" lon="11.368469648643915"><ele>430.6666666666667</ele><time>2026-05-02T14:20:04Z</time></trkpt><trkpt lat="43.40166882603403" lon="11.368239461188319"><ele>431.33333333333337</ele><time>2026-05-02T14:20:05Z</time></trkpt><trkpt lat="43.401647580789174" lon="11.367998910115908"><ele>432.0</ele><time>2026-05-02T14:20:06Z</time></trkpt><trkpt lat="43.40163170461267" lon="11.367759738345528"><ele>432.66666666666663</ele><time>2026-05-02T14:20:07Z</time></trkpt><trkpt lat="43.40161629995323" lon="11.367536696192321"><ele>433.3333333333333</ele><time>2026-05-02T14:20:08Z</time></trkpt><trkpt lat="43.401598152855264" lon="11.36732016628002"><ele>434.0</ele><time>2026-05-02T14:20:09Z</time></trkpt><trkpt lat="43.40157216280483" lon="11.367129987594705"><ele>434.25</ele><time>2026-05-02T14:20:10Z</time></trkpt><trkpt lat="43.40152387016399" lon="11.3669364110569"><ele>434.5</ele><time>2026-05-02T14:20:11Z</time></trkpt><trkpt lat="43.40144774775195" lon="11.36676834227769"><ele>434.75</ele><time>2026-05-02T14:20:12Z</time></trkpt><trkpt lat="43.40136579757743" lon="11.366605758022946"><ele>435.0</ele><time>2026-05-02T14:20:13Z</time></trkpt><trkpt lat="43.401303077762904" lon="11.366440519054336"><ele>436.5</ele><time>2026-05-02T14:20:14Z</time></trkpt><trkpt lat="43.40126095342619" lon="11.366251574975726"><ele>438.0</ele><time>2026-05-02T14:20:15Z</time></trkpt><trkpt lat="43.40122070986028" lon="11.366048212744913"><ele>439.5</ele><time>2026-05-02T14:20:16Z</time></trkpt><trkpt lat="43.40119929770215" lon="11.365875931804691"><ele>441.0</ele><time>2026-05-02T14:20:17Z</time></trkpt><trkpt lat="43.40118113774729" lon="11.365730617454737"><ele>441.0</ele><time>2026-05-02T14:20:18Z</time></trkpt><trkpt lat="43.40116171158303" lon="11.365587171760295"><ele>441.0</ele><time>2026-05-02T14:20:19Z</time></trkpt><trkpt lat="43.4011356358311" lon="11.365458908843797"><ele>441.0</ele><time>2026-05-02T14:20:20Z</time></trkpt><trkpt lat="43.401118111809744" lon="11.365317643121806"><ele>441.0</ele><time>2026-05-02T14:20:21Z</time></trkpt><trkpt lat="43.40109233498455" lon="11.365162141213803"><ele>441.0</ele><time>2026-05-02T14:20:22Z</time></trkpt><trkpt lat="43.40106989582427" lon="11.365008727542271"><ele>440.75</ele><time>2026-05-02T14:20:23Z</time></trkpt><trkpt lat="43.40104641687237" lon="11.36483774369958"><ele>440.5</ele><time>2026-05-02T14:20:24Z</time></trkpt><trkpt lat="43.4010043296723" lon="11.364664259849754"><ele>440.25</ele><time>2026-05-02T14:20:25Z</time></trkpt><trkpt lat="43.40094270466316" lon="11.364485675796537"><ele>440.0</ele><time>2026-05-02T14:20:26Z</time></trkpt><trkpt lat="43.40087726224511" lon="11.364326007299908"><ele>440.0</ele><time>2026-05-02T14:20:27Z</time></trkpt><trkpt lat="43.40083031120886" lon="11.364180447007694"><ele>440.0</ele><time>2026-05-02T14:20:28Z</time></trkpt><trkpt lat="43.40080067528998" lon="11.364049911962876"><ele>440.0</ele><time>2026-05-02T14:20:29Z</time></trkpt><trkpt lat="43.40077363820913" lon="11.363908595574049"><ele>440.0</ele><time>2026-05-02T14:20:30Z</time></trkpt><trkpt lat="43.400774104978936" lon="11.363770141174674"><ele>440.0</ele><time>2026-05-02T14:20:31.001Z</time></trkpt><trkpt lat="43.40079293015893" lon="11.363627062968598"><ele>440.0</ele><time>2026-05-02T14:20:32.001Z</time></trkpt><trkpt lat="43.400829478152524" lon="11.363486731952095"><ele>440.0</ele><time>2026-05-02T14:20:33.001Z</time></trkpt><trkpt lat="43.40089647753301" lon="11.363367675395564"><ele>440.0</ele><time>2026-05-02T14:20:34.001Z</time></trkpt><trkpt lat="43.40098045727846" lon="11.363271881080337"><ele>440.0</ele><time>2026-05-02T14:20:35.001Z</time></trkpt><trkpt lat="43.40107475248399" lon="11.363212479201442"><ele>440.0</ele><time>2026-05-02T14:20:36.001Z</time></trkpt><trkpt lat="43.40118354260147" lon="11.363169303615821"><ele>440.0</ele><time>2026-05-02T14:20:37.001Z</time></trkpt><trkpt lat="43.40127622634907" lon="11.363119087481762"><ele>440.0</ele><time>2026-05-02T14:20:38.001Z</time></trkpt><trkpt lat="43.40135380731973" lon="11.363039044487596"><ele>440.0</ele><time>2026-05-02T14:20:39.001Z</time></trkpt><trkpt lat="43.40140844866897" lon="11.362920042825571"><ele>440.0</ele><time>2026-05-02T14:20:40.001Z</time></trkpt><trkpt lat="43.40143628857054" lon="11.362770338735046"><ele>440.0</ele><time>2026-05-02T14:20:41.001Z</time></trkpt><trkpt lat="43.40143771950905" lon="11.362605968597348"><ele>440.8</ele><time>2026-05-02T14:20:42.001Z</time></trkpt><trkpt lat="43.40141394241549" lon="11.362438808460537"><ele>441.6</ele><time>2026-05-02T14:20:43.001Z</time></trkpt><trkpt lat="43.401373718838734" lon="11.362282752612511"><ele>442.4</ele><time>2026-05-02T14:20:44.001Z</time></trkpt><trkpt lat="43.401334086290575" lon="11.362151177740303"><ele>443.2</ele><time>2026-05-02T14:20:45.001Z</time></trkpt><trkpt lat="43.401321546303045" lon="11.362045585993341"><ele>444.0</ele><time>2026-05-02T14:20:46.001Z</time></trkpt><trkpt lat="43.401342263453785" lon="11.361957393218544"><ele>444.0</ele><time>2026-05-02T14:20:47.001Z</time></trkpt><trkpt lat="43.401398493373705" lon="11.361879820804575"><ele>444.0</ele><time>2026-05-02T14:20:48.001Z</time></trkpt><trkpt lat="43.4014867596325" lon="11.36179199470085"><ele>444.0</ele><time>2026-05-02T14:20:49.001Z</time></trkpt><trkpt lat="43.40159524962771" lon="11.361685016750975"><ele>444.0</ele><time>2026-05-02T14:20:50.001Z</time></trkpt><trkpt lat="43.40171725666875" lon="11.361560163494664"><ele>444.0</ele><time>2026-05-02T14:20:51.001Z</time></trkpt><trkpt lat="43.40184142972755" lon="11.361413356615323"><ele>444.0</ele><time>2026-05-02T14:20:52.001Z</time></trkpt><trkpt lat="43.401968588424715" lon="11.36126338065448"><ele>444.0</ele><time>2026-05-02T14:20:53.001Z</time></trkpt><trkpt lat="43.40207151734624" lon="11.361126663332216"><ele>443.25</ele><time>2026-05-02T14:20:54.001Z</time></trkpt><trkpt lat="43.40216572282775" lon="11.361022626293606"><ele>442.5</ele><time>2026-05-02T14:20:55.001Z</time></trkpt><trkpt lat="43.40227670349757" lon="11.360932923039677"><ele>441.75</ele><time>2026-05-02T14:20:56.001Z</time></trkpt><trkpt lat="43.40238177686398" lon="11.360885189780515"><ele>441.0</ele><time>2026-05-02T14:20:57.001Z</time></trkpt><trkpt lat="43.402496690882046" lon="11.360870868242543"><ele>441.0</ele><time>2026-05-02T14:20:58.001Z</time></trkpt><trkpt lat="43.40262822086164" lon="11.360884078245189"><ele>441.0</ele><time>2026-05-02T14:20:59.001Z</time></trkpt><trkpt lat="43.40277691617489" lon="11.360933053305603"><ele>441.0</ele><time>2026-05-02T14:21:00.001Z</time></trkpt><trkpt lat="43.402907392697344" lon="11.360969427977718"><ele>441.0</ele><time>2026-05-02T14:21:01.001Z</time></trkpt><trkpt lat="43.4030343077411" lon="11.360959559880568"><ele>442.0</ele><time>2026-05-02T14:21:02.001Z</time></trkpt><trkpt lat="43.40315409045392" lon="11.360912633841936"><ele>443.0</ele><time>2026-05-02T14:21:03.002Z</time></trkpt><trkpt lat="43.40326911191778" lon="11.36087102275018"><ele>444.0</ele><time>2026-05-02T14:21:04.002Z</time></trkpt><trkpt lat="43.403364301416595" lon="11.360831739791898"><ele>445.0</ele><time>2026-05-02T14:21:05.002Z</time></trkpt><trkpt lat="43.40344039774914" lon="11.36078529256798"><ele>446.0</ele><time>2026-05-02T14:21:06.002Z</time></trkpt><trkpt lat="43.403501760210204" lon="11.360702586857114"><ele>446.0</ele><time>2026-05-02T14:21:07.002Z</time></trkpt><trkpt lat="43.40353866206704" lon="11.360582906393656"><ele>446.0</ele><time>2026-05-02T14:21:08.002Z</time></trkpt><trkpt lat="43.403541612591276" lon="11.360440736305131"><ele>446.0</ele><time>2026-05-02T14:21:09.002Z</time></trkpt><trkpt lat="43.403523348879204" lon="11.360267504302815"><ele>446.0</ele><time>2026-05-02T14:21:10.002Z</time></trkpt><trkpt lat="43.40351148010965" lon="11.360083565747686"><ele>445.75</ele><time>2026-05-02T14:21:11.002Z</time></trkpt><trkpt lat="43.40352075162229" lon="11.359917261613546"><ele>445.5</ele><time>2026-05-02T14:21:12.002Z</time></trkpt><trkpt lat="43.40355735733328" lon="11.359722099537418"><ele>445.25</ele><time>2026-05-02T14:21:13.002Z</time></trkpt><trkpt lat="43.40359399246498" lon="11.359547755640028"><ele>445.0</ele><time>2026-05-02T14:21:14.002Z</time></trkpt><trkpt lat="43.403615001092376" lon="11.359416985965812"><ele>445.0</ele><time>2026-05-02T14:21:15.002Z</time></trkpt><trkpt lat="43.40360813250698" lon="11.359310877460205"><ele>445.0</ele><time>2026-05-02T14:21:16.002Z</time></trkpt><trkpt lat="43.40356890369515" lon="11.359203858968884"><ele>445.0</ele><time>2026-05-02T14:21:17.002Z</time></trkpt><trkpt lat="43.40349600044614" lon="11.359098930046489"><ele>445.0</ele><time>2026-05-02T14:21:18.002Z</time></trkpt><trkpt lat="43.40339708624895" lon="11.359011411860495"><ele>445.0</ele><time>2026-05-02T14:21:19.002Z</time></trkpt><trkpt lat="43.4032822646771" lon="11.358954716353045"><ele>445.0</ele><time>2026-05-02T14:21:20.002Z</time></trkpt><trkpt lat="43.403162886239954" lon="11.358920488177944"><ele>445.0</ele><time>2026-05-02T14:21:21.002Z</time></trkpt><trkpt lat="43.403071346325724" lon="11.358898545709701"><ele>445.0</ele><time>2026-05-02T14:21:22.002Z</time></trkpt><trkpt lat="43.403001271341076" lon="11.358816404235684"><ele>445.0</ele><time>2026-05-02T14:21:23.002Z</time></trkpt><trkpt lat="43.40295258223254" lon="11.358717849725151"><ele>445.0</ele><time>2026-05-02T14:21:24.002Z</time></trkpt><trkpt lat="43.40291100620726" lon="11.35859333004362"><ele>444.5</ele><time>2026-05-02T14:21:25.002Z</time></trkpt><trkpt lat="43.402871505034575" lon="11.358467404633245"><ele>444.0</ele><time>2026-05-02T14:21:26.002Z</time></trkpt><trkpt lat="43.402863459810874" lon="11.358289468007449"><ele>443.5</ele><time>2026-05-02T14:21:27.002Z</time></trkpt><trkpt lat="43.40283367223236" lon="11.35812846522763"><ele>443.0</ele><time>2026-05-02T14:21:28.002Z</time></trkpt><trkpt lat="43.402801945542066" lon="11.357946369534478"><ele>443.0</ele><time>2026-05-02T14:21:29.002Z</time></trkpt><trkpt lat="43.40277251778782" lon="11.357768870113333"><ele>442.99999999999994</ele><time>2026-05-02T14:21:30.002Z</time></trkpt><trkpt lat="43.402755662636174" lon="11.357621732359465"><ele>442.99999999999994</ele><time>2026-05-02T14:21:31.002Z</time></trkpt><trkpt lat="43.40276809603104" lon="11.357496635079453"><ele>443.0</ele><time>2026-05-02T14:21:32.002Z</time></trkpt><trkpt lat="43.40281079426977" lon="11.35737443785067"><ele>443.0</ele><time>2026-05-02T14:21:33.002Z</time></trkpt><trkpt lat="43.40287559946375" lon="11.357266116530292"><ele>442.2</ele><time>2026-05-02T14:21:34.002Z</time></trkpt><trkpt lat="43.40295619778137" lon="11.357194482131792"><ele>441.4</ele><time>2026-05-02T14:21:35.002Z</time></trkpt><trkpt lat="43.40304890846309" lon="11.357142391571905"><ele>440.59999999999997</ele><time>2026-05-02T14:21:36.002Z</time></trkpt><trkpt lat="43.40314895157139" lon="11.357116790113984"><ele>439.79999999999995</ele><time>2026-05-02T14:21:37.003Z</time></trkpt><trkpt lat="43.40326038803496" lon="11.357116404929087"><ele>439.0</ele><time>2026-05-02T14:21:38.003Z</time></trkpt><trkpt lat="43.4033901357602" lon="11.357133106090206"><ele>440.6</ele><time>2026-05-02T14:21:39.003Z</time></trkpt><trkpt lat="43.403510812579476" lon="11.35713366591478"><ele>442.2</ele><time>2026-05-02T14:21:40.003Z</time></trkpt><trkpt lat="43.40362603889625" lon="11.357113384917549"><ele>443.80000000000007</ele><time>2026-05-02T14:21:41.003Z</time></trkpt><trkpt lat="43.40371817024415" lon="11.357081980296696"><ele>445.40000000000003</ele><time>2026-05-02T14:21:42.003Z</time></trkpt><trkpt lat="43.40378530267142" lon="11.357038094765883"><ele>447.0</ele><time>2026-05-02T14:21:43.003Z</time></trkpt><trkpt lat="43.40384199734378" lon="11.356959212065508"><ele>447.0</ele><time>2026-05-02T14:21:44.003Z</time></trkpt><trkpt lat="43.403871465925576" lon="11.356858917289818"><ele>447.00000000000006</ele><time>2026-05-02T14:21:45.003Z</time></trkpt><trkpt lat="43.40386826305885" lon="11.35672769348342"><ele>447.00000000000006</ele><time>2026-05-02T14:21:46.003Z</time></trkpt><trkpt lat="43.40383694378351" lon="11.356607910680038"><ele>447.0</ele><time>2026-05-02T14:21:47.003Z</time></trkpt><trkpt lat="43.40377510282502" lon="11.356489885894776"><ele>447.0</ele><time>2026-05-02T14:21:48.003Z</time></trkpt><trkpt lat="43.40370656274748" lon="11.356381965633581"><ele>446.8333333333333</ele><time>2026-05-02T14:21:49.003Z</time></trkpt><trkpt lat="43.40363185542597" lon="11.356289213227317"><ele>446.66666666666663</ele><time>2026-05-02T14:21:50.003Z</time></trkpt><trkpt lat="43.40358387850251" lon="11.356180311848794"><ele>446.5</ele><time>2026-05-02T14:21:51.003Z</time></trkpt><trkpt lat="43.40358034332113" lon="11.356079311854383"><ele>446.3333333333333</ele><time>2026-05-02T14:21:52.003Z</time></trkpt><trkpt lat="43.40361162427274" lon="11.3559958456384"><ele>446.16666666666663</ele><time>2026-05-02T14:21:53.003Z</time></trkpt><trkpt lat="43.40366730787209" lon="11.355921183793912"><ele>446.0</ele><time>2026-05-02T14:21:54.003Z</time></trkpt><trkpt lat="43.403745911899726" lon="11.355855162550696"><ele>447.5</ele><time>2026-05-02T14:21:55.003Z</time></trkpt><trkpt lat="43.40385543738662" lon="11.35576869657479"><ele>449.0</ele><time>2026-05-02T14:21:56.003Z</time></trkpt><trkpt lat="43.40397157598938" lon="11.355694879909791"><ele>450.5</ele><time>2026-05-02T14:21:57.003Z</time></trkpt><trkpt lat="43.40407329112324" lon="11.355633339398848"><ele>452.0</ele><time>2026-05-02T14:21:58.003Z</time></trkpt><trkpt lat="43.404168986232726" lon="11.35559722765821"><ele>452.0</ele><time>2026-05-02T14:21:59Z</time></trkpt><trkpt lat="43.404282318467416" lon="11.355595270982057"><ele>452.0</ele><time>2026-05-02T14:22:00Z</time></trkpt><trkpt lat="43.40439886664992" lon="11.355625748378309"><ele>452.0</ele><time>2026-05-02T14:22:01Z</time></trkpt><trkpt lat="43.40452660411725" lon="11.355668637807845"><ele>452.0</ele><time>2026-05-02T14:22:02Z</time></trkpt><trkpt lat="43.404643366265965" lon="11.35571975932179"><ele>453.0</ele><time>2026-05-02T14:22:03Z</time></trkpt><trkpt lat="43.4047451301987" lon="11.355823185772838"><ele>454.0</ele><time>2026-05-02T14:22:04Z</time></trkpt><trkpt lat="43.40488691318412" lon="11.355908891723152"><ele>455.0</ele><time>2026-05-02T14:22:05Z</time></trkpt><trkpt lat="43.404989594469335" lon="11.356006487005454"><ele>456.0</ele><time>2026-05-02T14:22:06Z</time></trkpt><trkpt lat="43.405081079022764" lon="11.356066855479673"><ele>456.0</ele><time>2026-05-02T14:22:07Z</time></trkpt><trkpt lat="43.40515377539533" lon="11.356119546365957"><ele>456.0</ele><time>2026-05-02T14:22:08Z</time></trkpt><trkpt lat="43.40522945743693" lon="11.356125727749346"><ele>456.0</ele><time>2026-05-02T14:22:09Z</time></trkpt><trkpt lat="43.40530187943535" lon="11.356098589790498"><ele>456.0</ele><time>2026-05-02T14:22:10Z</time></trkpt><trkpt lat="43.40535725105914" lon="11.356027185823613"><ele>456.0</ele><time>2026-05-02T14:22:11Z</time></trkpt><trkpt lat="43.405398186214754" lon="11.355910736084711"><ele>456.0</ele><time>2026-05-02T14:22:12Z</time></trkpt><trkpt lat="43.4054164455199" lon="11.355780187931781"><ele>456.0</ele><time>2026-05-02T14:22:13Z</time></trkpt><trkpt lat="43.405436744320575" lon="11.355625192654236"><ele>456.0</ele><time>2026-05-02T14:22:14Z</time></trkpt><trkpt lat="43.40547051335714" lon="11.35550085929825"><ele>456.0</ele><time>2026-05-02T14:22:15Z</time></trkpt><trkpt lat="43.40552526803295" lon="11.355441792395938"><ele>456.0</ele><time>2026-05-02T14:22:16Z</time></trkpt><trkpt lat="43.40560089867946" lon="11.355405260956639"><ele>456.0</ele><time>2026-05-02T14:22:17Z</time></trkpt><trkpt lat="43.40569021258036" lon="11.355409228473514"><ele>455.25</ele><time>2026-05-02T14:22:18Z</time></trkpt><trkpt lat="43.40578479039902" lon="11.355432733138729"><ele>454.5</ele><time>2026-05-02T14:22:19Z</time></trkpt><trkpt lat="43.40588737015484" lon="11.35552413002021"><ele>453.75</ele><time>2026-05-02T14:22:20Z</time></trkpt><trkpt lat="43.40600833576085" lon="11.355624291455667"><ele>453.0</ele><time>2026-05-02T14:22:21Z</time></trkpt><trkpt lat="43.40613410630535" lon="11.355744433054923"><ele>455.5</ele><time>2026-05-02T14:22:22Z</time></trkpt><trkpt lat="43.40625738525525" lon="11.355869452934266"><ele>458.0</ele><time>2026-05-02T14:22:23Z</time></trkpt><trkpt lat="43.40637113659" lon="11.355963488856641"><ele>460.5</ele><time>2026-05-02T14:22:24Z</time></trkpt><trkpt lat="43.40645137324004" lon="11.35603190997026"><ele>463.0</ele><time>2026-05-02T14:22:25Z</time></trkpt><trkpt lat="43.406511008474" lon="11.356084621122804"><ele>462.83333333333337</ele><time>2026-05-02T14:22:26Z</time></trkpt><trkpt lat="43.40661498798064" lon="11.356060894141311"><ele>462.6666666666667</ele><time>2026-05-02T14:22:28Z</time></trkpt><trkpt lat="43.406676173520744" lon="11.355996226415387"><ele>462.5</ele><time>2026-05-02T14:22:29Z</time></trkpt><trkpt lat="43.40670121571483" lon="11.355900565625129"><ele>462.33333333333337</ele><time>2026-05-02T14:22:30Z</time></trkpt><trkpt lat="43.406698246610325" lon="11.355779770225647"><ele>462.1666666666667</ele><time>2026-05-02T14:22:31Z</time></trkpt><trkpt lat="43.406677221435245" lon="11.355647387764202"><ele>462.0</ele><time>2026-05-02T14:22:32.001Z</time></trkpt><trkpt lat="43.40664213958471" lon="11.35549956101358"><ele>462.0</ele><time>2026-05-02T14:22:33.001Z</time></trkpt><trkpt lat="43.4065997550975" lon="11.355323496125242"><ele>462.0</ele><time>2026-05-02T14:22:34.001Z</time></trkpt><trkpt lat="43.40657662157151" lon="11.355148540782395"><ele>462.0</ele><time>2026-05-02T14:22:35.001Z</time></trkpt><trkpt lat="43.40656871568329" lon="11.355011865256083"><ele>462.0</ele><time>2026-05-02T14:22:36.001Z</time></trkpt><trkpt lat="43.40657635930501" lon="11.35488621380712"><ele>462.0</ele><time>2026-05-02T14:22:37.001Z</time></trkpt><trkpt lat="43.40660777118154" lon="11.35477425232182"><ele>462.00000000000006</ele><time>2026-05-02T14:22:38.001Z</time></trkpt><trkpt lat="43.4066830451813" lon="11.354689523541047"><ele>462.00000000000006</ele><time>2026-05-02T14:22:39.001Z</time></trkpt><trkpt lat="43.40676669646342" lon="11.354591417282357"><ele>462.0</ele><time>2026-05-02T14:22:40.001Z</time></trkpt><trkpt lat="43.40689483100344" lon="11.354503284282462"><ele>462.0</ele><time>2026-05-02T14:22:41.001Z</time></trkpt><trkpt lat="43.40703989193254" lon="11.354419741090464"><ele>462.6</ele><time>2026-05-02T14:22:42.001Z</time></trkpt><trkpt lat="43.407157648757384" lon="11.35436470480029"><ele>463.20000000000005</ele><time>2026-05-02T14:22:43.001Z</time></trkpt><trkpt lat="43.407264444727346" lon="11.35438201537763"><ele>463.8</ele><time>2026-05-02T14:22:44.001Z</time></trkpt><trkpt lat="43.40735402734406" lon="11.354421116225284"><ele>464.4</ele><time>2026-05-02T14:22:45.001Z</time></trkpt><trkpt lat="43.40745944167183" lon="11.354460475941636"><ele>465.0</ele><time>2026-05-02T14:22:46.001Z</time></trkpt><trkpt lat="43.407556569186085" lon="11.354448911120588"><ele>465.0</ele><time>2026-05-02T14:22:47.001Z</time></trkpt><trkpt lat="43.40761112151718" lon="11.354403675429204"><ele>465.0</ele><time>2026-05-02T14:22:48.001Z</time></trkpt><trkpt lat="43.40764633521708" lon="11.35432806083845"><ele>465.0</ele><time>2026-05-02T14:22:49.001Z</time></trkpt><trkpt lat="43.40766439204994" lon="11.354225470663371"><ele>465.0</ele><time>2026-05-02T14:22:50.001Z</time></trkpt><trkpt lat="43.40769271966653" lon="11.354082978467364"><ele>465.0</ele><time>2026-05-02T14:22:51.001Z</time></trkpt><trkpt lat="43.40771978624993" lon="11.353953413233468"><ele>465.0</ele><time>2026-05-02T14:22:52.001Z</time></trkpt><trkpt lat="43.407777364229986" lon="11.353854733235984"><ele>464.0</ele><time>2026-05-02T14:22:53.001Z</time></trkpt><trkpt lat="43.407856178352105" lon="11.353785583936022"><ele>463.0</ele><time>2026-05-02T14:22:54.001Z</time></trkpt><trkpt lat="43.407946724143386" lon="11.353752582436321"><ele>462.0</ele><time>2026-05-02T14:22:55.001Z</time></trkpt><trkpt lat="43.40803910476979" lon="11.353755475318579"><ele>461.0</ele><time>2026-05-02T14:22:56.001Z</time></trkpt><trkpt lat="43.40812546861341" lon="11.353798169589917"><ele>460.0</ele><time>2026-05-02T14:22:57.001Z</time></trkpt><trkpt lat="43.408198050646334" lon="11.353907555592507"><ele>463.0</ele><time>2026-05-02T14:22:58.001Z</time></trkpt><trkpt lat="43.4083055783025" lon="11.354024584786263"><ele>466.0</ele><time>2026-05-02T14:22:59.001Z</time></trkpt><trkpt lat="43.40840475277916" lon="11.354116036266499"><ele>469.0</ele><time>2026-05-02T14:23:00.001Z</time></trkpt><trkpt lat="43.40847442556535" lon="11.354184137653252"><ele>472.0</ele><time>2026-05-02T14:23:01.001Z</time></trkpt><trkpt lat="43.40861640010593" lon="11.354170588057253"><ele>472.0</ele><time>2026-05-02T14:23:03.001Z</time></trkpt><trkpt lat="43.408686132992884" lon="11.354110194212483"><ele>472.00000000000006</ele><time>2026-05-02T14:23:04.002Z</time></trkpt><trkpt lat="43.408738697321944" lon="11.354008963732054"><ele>472.00000000000006</ele><time>2026-05-02T14:23:05.002Z</time></trkpt><trkpt lat="43.408773496936035" lon="11.353878150671699"><ele>472.0</ele><time>2026-05-02T14:23:06.002Z</time></trkpt><trkpt lat="43.40879224305314" lon="11.35371523735278"><ele>472.0</ele><time>2026-05-02T14:23:07.002Z</time></trkpt><trkpt lat="43.40880160590088" lon="11.353548497812822"><ele>471.20000000000005</ele><time>2026-05-02T14:23:08.002Z</time></trkpt><trkpt lat="43.4088206929989" lon="11.353416181425398"><ele>470.40000000000003</ele><time>2026-05-02T14:23:09.002Z</time></trkpt><trkpt lat="43.408865770896924" lon="11.353321139942974"><ele>469.59999999999997</ele><time>2026-05-02T14:23:10.002Z</time></trkpt><trkpt lat="43.4089401606462" lon="11.353253163880053"><ele>468.79999999999995</ele><time>2026-05-02T14:23:11.002Z</time></trkpt><trkpt lat="43.40904553561948" lon="11.353212022056947"><ele>468.0</ele><time>2026-05-02T14:23:12.002Z</time></trkpt><trkpt lat="43.40917315203654" lon="11.353189817402376"><ele>468.0</ele><time>2026-05-02T14:23:13.002Z</time></trkpt><trkpt lat="43.40930203343254" lon="11.353202348881164"><ele>468.0</ele><time>2026-05-02T14:23:14.002Z</time></trkpt><trkpt lat="43.40942892139277" lon="11.35324620488851"><ele>468.0</ele><time>2026-05-02T14:23:15.002Z</time></trkpt><trkpt lat="43.40954328471073" lon="11.353337804301253"><ele>468.0</ele><time>2026-05-02T14:23:16.002Z</time></trkpt><trkpt lat="43.40962889089119" lon="11.353364026282952"><ele>468.2</ele><time>2026-05-02T14:23:17.002Z</time></trkpt><trkpt lat="43.40970151993395" lon="11.353360141427736"><ele>468.4</ele><time>2026-05-02T14:23:18.002Z</time></trkpt><trkpt lat="43.409803748614216" lon="11.353229064980276"><ele>468.59999999999997</ele><time>2026-05-02T14:23:20.002Z</time></trkpt><trkpt lat="43.409824265267275" lon="11.353115908004655"><ele>468.79999999999995</ele><time>2026-05-02T14:23:21.002Z</time></trkpt><trkpt lat="43.4098324827159" lon="11.35298790396671"><ele>469.0</ele><time>2026-05-02T14:23:22.002Z</time></trkpt><trkpt lat="43.40986980949968" lon="11.352855077071904"><ele>469.0</ele><time>2026-05-02T14:23:23.002Z</time></trkpt><trkpt lat="43.409899554273025" lon="11.352727011511798"><ele>469.0</ele><time>2026-05-02T14:23:24.002Z</time></trkpt><trkpt lat="43.409979736438274" lon="11.35263518830879"><ele>469.0</ele><time>2026-05-02T14:23:25.002Z</time></trkpt><trkpt lat="43.41007571235957" lon="11.352535853794326"><ele>469.0</ele><time>2026-05-02T14:23:26.002Z</time></trkpt><trkpt lat="43.410146343936184" lon="11.352453625983932"><ele>469.0</ele><time>2026-05-02T14:23:27.002Z</time></trkpt><trkpt lat="43.41020631844517" lon="11.352394742608855"><ele>469.0</ele><time>2026-05-02T14:23:28.002Z</time></trkpt><trkpt lat="43.410271255418124" lon="11.352318076648626"><ele>469.0</ele><time>2026-05-02T14:23:30.002Z</time></trkpt><trkpt lat="43.41036900966607" lon="11.352312914352758"><ele>469.0</ele><time>2026-05-02T14:23:31.002Z</time></trkpt><trkpt lat="43.41048841189482" lon="11.352300305615117"><ele>469.0</ele><time>2026-05-02T14:23:32.002Z</time></trkpt><trkpt lat="43.410634943417854" lon="11.352276846104568"><ele>469.6666666666667</ele><time>2026-05-02T14:23:33.002Z</time></trkpt><trkpt lat="43.41079939144531" lon="11.35222195827068"><ele>470.33333333333337</ele><time>2026-05-02T14:23:34.002Z</time></trkpt><trkpt lat="43.410989033945086" lon="11.352172586264375"><ele>471.0</ele><time>2026-05-02T14:23:35.002Z</time></trkpt><trkpt lat="43.41119158949461" lon="11.352120671135758"><ele>469.66666666666663</ele><time>2026-05-02T14:23:36.002Z</time></trkpt><trkpt lat="43.411401556902895" lon="11.35206343388745"><ele>468.3333333333333</ele><time>2026-05-02T14:23:37.003Z</time></trkpt><trkpt lat="43.41162784300421" lon="11.352000849136767"><ele>467.0</ele><time>2026-05-02T14:23:38.003Z</time></trkpt><trkpt lat="43.411858889422426" lon="11.351934707231788"><ele>467.0</ele><time>2026-05-02T14:23:39.003Z</time></trkpt><trkpt lat="43.41207114998496" lon="11.351879370028534"><ele>467.0</ele><time>2026-05-02T14:23:40.003Z</time></trkpt><trkpt lat="43.41225948924039" lon="11.351836833487951"><ele>467.0</ele><time>2026-05-02T14:23:41.003Z</time></trkpt><trkpt lat="43.41243349858634" lon="11.35179553956112"><ele>468.66666666666663</ele><time>2026-05-02T14:23:42.003Z</time></trkpt><trkpt lat="43.41258788337708" lon="11.35175619813966"><ele>470.33333333333337</ele><time>2026-05-02T14:23:43.003Z</time></trkpt><trkpt lat="43.41274726558621" lon="11.351714300773198"><ele>472.0</ele><time>2026-05-02T14:23:44.003Z</time></trkpt><trkpt lat="43.41290758601967" lon="11.351630181016057"><ele>474.33333333333337</ele><time>2026-05-02T14:23:45.003Z</time></trkpt><trkpt lat="43.41305687597346" lon="11.351480987927461"><ele>476.66666666666663</ele><time>2026-05-02T14:23:46.003Z</time></trkpt><trkpt lat="43.41318868519202" lon="11.351270806207804"><ele>479.0</ele><time>2026-05-02T14:23:47.003Z</time></trkpt><trkpt lat="43.413321281647264" lon="11.351051600266743"><ele>479.3333333333333</ele><time>2026-05-02T14:23:48.003Z</time></trkpt><trkpt lat="43.41345488579583" lon="11.350864715811646"><ele>479.66666666666663</ele><time>2026-05-02T14:23:49.003Z</time></trkpt><trkpt lat="43.413575672999364" lon="11.350705705985606"><ele>480.0</ele><time>2026-05-02T14:23:50.003Z</time></trkpt><trkpt lat="43.41367896904901" lon="11.350568638934481"><ele>482.75</ele><time>2026-05-02T14:23:51.003Z</time></trkpt><trkpt lat="43.41377678784398" lon="11.35044818810752"><ele>485.5</ele><time>2026-05-02T14:23:52.003Z</time></trkpt><trkpt lat="43.41386884264439" lon="11.350354223091637"><ele>488.25</ele><time>2026-05-02T14:23:53.003Z</time></trkpt><trkpt lat="43.413988708173825" lon="11.350330228295352"><ele>491.0</ele><time>2026-05-02T14:23:54.003Z</time></trkpt><trkpt lat="43.41411504524701" lon="11.350371039789344"><ele>491.6</ele><time>2026-05-02T14:23:55.003Z</time></trkpt><trkpt lat="43.41423586168996" lon="11.350438568905435"><ele>492.20000000000005</ele><time>2026-05-02T14:23:56.003Z</time></trkpt><trkpt lat="43.414350160715934" lon="11.350467320485771"><ele>492.79999999999995</ele><time>2026-05-02T14:23:57.003Z</time></trkpt><trkpt lat="43.414443302957736" lon="11.350508412519535"><ele>493.4</ele><time>2026-05-02T14:23:58.003Z</time></trkpt><trkpt lat="43.414532042668895" lon="11.350486189912202"><ele>494.0</ele><time>2026-05-02T14:23:59.003Z</time></trkpt><trkpt lat="43.41459780533521" lon="11.350393578103983"><ele>494.0</ele><time>2026-05-02T14:24:00.003Z</time></trkpt><trkpt lat="43.414629198495994" lon="11.350234069229964"><ele>494.0</ele><time>2026-05-02T14:24:01.003Z</time></trkpt><trkpt lat="43.414645222768556" lon="11.350050631064803"><ele>494.0</ele><time>2026-05-02T14:24:02.003Z</time></trkpt><trkpt lat="43.41464497961317" lon="11.349822289915954"><ele>494.0</ele><time>2026-05-02T14:24:03.003Z</time></trkpt><trkpt lat="43.414636596945265" lon="11.349579600395819"><ele>493.25</ele><time>2026-05-02T14:24:04.003Z</time></trkpt><trkpt lat="43.41464835093308" lon="11.349388548302745"><ele>492.5</ele><time>2026-05-02T14:24:05Z</time></trkpt><trkpt lat="43.414698134593856" lon="11.349229757994458"><ele>491.75</ele><time>2026-05-02T14:24:06Z</time></trkpt><trkpt lat="43.414815006735616" lon="11.349098351155575"><ele>491.0</ele><time>2026-05-02T14:24:07Z</time></trkpt><trkpt lat="43.41493916603935" lon="11.348943635247934"><ele>491.0</ele><time>2026-05-02T14:24:08Z</time></trkpt><trkpt lat="43.41509304880418" lon="11.348861906492909"><ele>491.0</ele><time>2026-05-02T14:24:09Z</time></trkpt><trkpt lat="43.415213604676" lon="11.348799319169546"><ele>491.0</ele><time>2026-05-02T14:24:10Z</time></trkpt><trkpt lat="43.415326358206315" lon="11.348831038153794"><ele>491.0</ele><time>2026-05-02T14:24:11Z</time></trkpt><trkpt lat="43.41546695916722" lon="11.348892689652386"><ele>490.66666666666663</ele><time>2026-05-02T14:24:12Z</time></trkpt><trkpt lat="43.415637601919336" lon="11.348930177438751"><ele>490.33333333333337</ele><time>2026-05-02T14:24:13Z</time></trkpt><trkpt lat="43.41582210200402" lon="11.348956964979902"><ele>490.0</ele><time>2026-05-02T14:24:14Z</time></trkpt><trkpt lat="43.416009331223286" lon="11.3489191616919"><ele>494.33333333333337</ele><time>2026-05-02T14:24:15Z</time></trkpt><trkpt lat="43.41620770758123" lon="11.348857133961884"><ele>498.66666666666663</ele><time>2026-05-02T14:24:16Z</time></trkpt><trkpt lat="43.416418111464516" lon="11.34881735368653"><ele>503.0</ele><time>2026-05-02T14:24:17Z</time></trkpt><trkpt lat="43.41661123017553" lon="11.34879332652189"><ele>503.5</ele><time>2026-05-02T14:24:18Z</time></trkpt><trkpt lat="43.41677408587226" lon="11.348772208592704"><ele>504.0</ele><time>2026-05-02T14:24:19Z</time></trkpt><trkpt lat="43.41690888455429" lon="11.348747000587839"><ele>504.5</ele><time>2026-05-02T14:24:20Z</time></trkpt><trkpt lat="43.41702813332362" lon="11.34870144129916"><ele>505.0</ele><time>2026-05-02T14:24:21Z</time></trkpt><trkpt lat="43.41712381243513" lon="11.348622582620672"><ele>506.2</ele><time>2026-05-02T14:24:22Z</time></trkpt><trkpt lat="43.41719531435668" lon="11.348526199129735"><ele>507.4</ele><time>2026-05-02T14:24:23Z</time></trkpt><trkpt lat="43.417236133975926" lon="11.348415220089752"><ele>508.6</ele><time>2026-05-02T14:24:24Z</time></trkpt><trkpt lat="43.417235306736934" lon="11.348284549746953"><ele>509.8</ele><time>2026-05-02T14:24:25Z</time></trkpt><trkpt lat="43.41720448119816" lon="11.348106482771374"><ele>511.0</ele><time>2026-05-02T14:24:26Z</time></trkpt><trkpt lat="43.41715013291433" lon="11.347899678414889"><ele>511.0</ele><time>2026-05-02T14:24:27Z</time></trkpt><trkpt lat="43.41711606495936" lon="11.347667045372267"><ele>511.0</ele><time>2026-05-02T14:24:28Z</time></trkpt><trkpt lat="43.41712907499632" lon="11.3474741633152"><ele>511.0</ele><time>2026-05-02T14:24:29Z</time></trkpt><trkpt lat="43.41721117890156" lon="11.347340532625944"><ele>511.0</ele><time>2026-05-02T14:24:30Z</time></trkpt><trkpt lat="43.41732313031502" lon="11.347220463761538"><ele>511.0</ele><time>2026-05-02T14:24:31Z</time></trkpt><trkpt lat="43.41747482136609" lon="11.347062721989051"><ele>511.0</ele><time>2026-05-02T14:24:32Z</time></trkpt><trkpt lat="43.41765845607668" lon="11.346886888615499"><ele>511.0</ele><time>2026-05-02T14:24:33Z</time></trkpt><trkpt lat="43.41785593762272" lon="11.346732590206111"><ele>507.0</ele><time>2026-05-02T14:24:34Z</time></trkpt><trkpt lat="43.41804712323682" lon="11.346628213507492"><ele>503.0</ele><time>2026-05-02T14:24:35.001Z</time></trkpt><trkpt lat="43.41822754407103" lon="11.346557956320881"><ele>499.0</ele><time>2026-05-02T14:24:36.001Z</time></trkpt><trkpt lat="43.418393854842904" lon="11.346509707056194"><ele>499.0</ele><time>2026-05-02T14:24:37.001Z</time></trkpt><trkpt lat="43.418553518527155" lon="11.346476318553744"><ele>499.0</ele><time>2026-05-02T14:24:38.001Z</time></trkpt><trkpt lat="43.418704787851766" lon="11.346442237093576"><ele>499.0</ele><time>2026-05-02T14:24:39.001Z</time></trkpt><trkpt lat="43.41884524712938" lon="11.346473437392353"><ele>499.6666666666667</ele><time>2026-05-02T14:24:40.001Z</time></trkpt><trkpt lat="43.41897704738334" lon="11.346573692745851"><ele>500.33333333333337</ele><time>2026-05-02T14:24:41.001Z</time></trkpt><trkpt lat="43.4191187621626" lon="11.346729940394606"><ele>501.0</ele><time>2026-05-02T14:24:42.001Z</time></trkpt><trkpt lat="43.41926354946262" lon="11.346825139649095"><ele>501.0</ele><time>2026-05-02T14:24:43.001Z</time></trkpt><trkpt lat="43.419388960928075" lon="11.346928324838188"><ele>501.0</ele><time>2026-05-02T14:24:44.001Z</time></trkpt><trkpt lat="43.41951137872537" lon="11.346993441076862"><ele>501.0</ele><time>2026-05-02T14:24:45.001Z</time></trkpt><trkpt lat="43.41962974432578" lon="11.34701964881981"><ele>501.0</ele><time>2026-05-02T14:24:46.001Z</time></trkpt><trkpt lat="43.4197472701617" lon="11.34700992181856"><ele>502.5</ele><time>2026-05-02T14:24:47.001Z</time></trkpt><trkpt lat="43.41987655308349" lon="11.346978984065409"><ele>504.0</ele><time>2026-05-02T14:24:48.001Z</time></trkpt><trkpt lat="43.420003947424874" lon="11.346973597851225"><ele>505.5</ele><time>2026-05-02T14:24:49.001Z</time></trkpt><trkpt lat="43.4201202832504" lon="11.347028122962547"><ele>507.0</ele><time>2026-05-02T14:24:50.001Z</time></trkpt><trkpt lat="43.42022200526757" lon="11.347089544316075"><ele>507.0</ele><time>2026-05-02T14:24:51.001Z</time></trkpt><trkpt lat="43.42031466401258" lon="11.347156458995835"><ele>507.00000000000006</ele><time>2026-05-02T14:24:52.001Z</time></trkpt><trkpt lat="43.420410170353485" lon="11.34720499067915"><ele>507.00000000000006</ele><time>2026-05-02T14:24:53.001Z</time></trkpt><trkpt lat="43.42048958630042" lon="11.347269527592088"><ele>507.0</ele><time>2026-05-02T14:24:54.001Z</time></trkpt><trkpt lat="43.420591611053396" lon="11.347299212805991"><ele>507.0</ele><time>2026-05-02T14:24:55.001Z</time></trkpt><trkpt lat="43.420697683874074" lon="11.347287215912447"><ele>505.8</ele><time>2026-05-02T14:24:56.001Z</time></trkpt><trkpt lat="43.420791568245136" lon="11.347274206222954"><ele>504.6</ele><time>2026-05-02T14:24:57.001Z</time></trkpt><trkpt lat="43.4208892862523" lon="11.347271840762847"><ele>503.40000000000003</ele><time>2026-05-02T14:24:58.001Z</time></trkpt><trkpt lat="43.42098697773979" lon="11.347291030407527"><ele>502.20000000000005</ele><time>2026-05-02T14:24:59.001Z</time></trkpt><trkpt lat="43.42108070831638" lon="11.347314396128002"><ele>501.0</ele><time>2026-05-02T14:25:00.001Z</time></trkpt><trkpt lat="43.42117418011368" lon="11.347345535632329"><ele>501.0</ele><time>2026-05-02T14:25:01.001Z</time></trkpt><trkpt lat="43.42126304529988" lon="11.347388263044914"><ele>501.0</ele><time>2026-05-02T14:25:02.001Z</time></trkpt><trkpt lat="43.4213328564472" lon="11.347462903960649"><ele>501.0</ele><time>2026-05-02T14:25:03.001Z</time></trkpt><trkpt lat="43.421384244381365" lon="11.347549728870353"><ele>501.0</ele><time>2026-05-02T14:25:04.001Z</time></trkpt><trkpt lat="43.421412047179054" lon="11.347644354662279"><ele>501.0</ele><time>2026-05-02T14:25:05.001Z</time></trkpt><trkpt lat="43.42138967053721" lon="11.347768342749928"><ele>501.0</ele><time>2026-05-02T14:25:06.001Z</time></trkpt><trkpt lat="43.42138629020355" lon="11.347895235728357"><ele>501.75</ele><time>2026-05-02T14:25:07.001Z</time></trkpt><trkpt lat="43.42140800445032" lon="11.348050760304032"><ele>502.5</ele><time>2026-05-02T14:25:08.001Z</time></trkpt><trkpt lat="43.42139880224478" lon="11.34822103351977"><ele>503.25</ele><time>2026-05-02T14:25:09.002Z</time></trkpt><trkpt lat="43.42137907692969" lon="11.348410309665326"><ele>504.0</ele><time>2026-05-02T14:25:10.002Z</time></trkpt><trkpt lat="43.42134158146274" lon="11.348614916211744"><ele>500.25</ele><time>2026-05-02T14:25:11.002Z</time></trkpt><trkpt lat="43.42129865059858" lon="11.34881377087192"><ele>496.5</ele><time>2026-05-02T14:25:12.002Z</time></trkpt><trkpt lat="43.42129460730169" lon="11.349001817537454"><ele>492.75</ele><time>2026-05-02T14:25:13.002Z</time></trkpt><trkpt lat="43.42129809213767" lon="11.349171206696344"><ele>489.0</ele><time>2026-05-02T14:25:14.002Z</time></trkpt><trkpt lat="43.421309424619615" lon="11.349307431110361"><ele>490.5</ele><time>2026-05-02T14:25:15.002Z</time></trkpt><trkpt lat="43.42132752916137" lon="11.349422214396368"><ele>492.0</ele><time>2026-05-02T14:25:16.002Z</time></trkpt><trkpt lat="43.42137813970787" lon="11.349501893003263"><ele>493.5</ele><time>2026-05-02T14:25:17.002Z</time></trkpt><trkpt lat="43.42143122178403" lon="11.349560543564039"><ele>495.0</ele><time>2026-05-02T14:25:18.002Z</time></trkpt><trkpt lat="43.42152229211122" lon="11.349586555020679"><ele>496.5</ele><time>2026-05-02T14:25:19.002Z</time></trkpt><trkpt lat="43.42163506008733" lon="11.349570183349769"><ele>498.0</ele><time>2026-05-02T14:25:20.002Z</time></trkpt><trkpt lat="43.42175759132332" lon="11.349539213003732"><ele>498.0</ele><time>2026-05-02T14:25:21.002Z</time></trkpt><trkpt lat="43.42185213302866" lon="11.349532494915819"><ele>497.99999999999994</ele><time>2026-05-02T14:25:22.002Z</time></trkpt><trkpt lat="43.42194298547464" lon="11.349566524716998"><ele>497.99999999999994</ele><time>2026-05-02T14:25:23.002Z</time></trkpt><trkpt lat="43.42203168030546" lon="11.349634291082573"><ele>498.0</ele><time>2026-05-02T14:25:24.002Z</time></trkpt><trkpt lat="43.42211171902968" lon="11.349756741731339"><ele>498.0</ele><time>2026-05-02T14:25:25.002Z</time></trkpt><trkpt lat="43.422186866229815" lon="11.349850141551668"><ele>495.6666666666667</ele><time>2026-05-02T14:25:26.002Z</time></trkpt><trkpt lat="43.42225373124849" lon="11.349914763354183"><ele>493.33333333333337</ele><time>2026-05-02T14:25:27.002Z</time></trkpt><trkpt lat="43.42232344649102" lon="11.349960200544157"><ele>491.0</ele><time>2026-05-02T14:25:28.002Z</time></trkpt><trkpt lat="43.42239767852701" lon="11.350007064290848"><ele>488.6666666666667</ele><time>2026-05-02T14:25:29.002Z</time></trkpt><trkpt lat="43.42248107968973" lon="11.350035307854641"><ele>486.33333333333337</ele><time>2026-05-02T14:25:30.002Z</time></trkpt><trkpt lat="43.42256074663573" lon="11.350094472468308"><ele>484.0</ele><time>2026-05-02T14:25:31.002Z</time></trkpt><trkpt lat="43.42262761979318" lon="11.350157960516936"><ele>484.00000000000006</ele><time>2026-05-02T14:25:32.002Z</time></trkpt><trkpt lat="43.42270647151864" lon="11.350221395071"><ele>484.0</ele><time>2026-05-02T14:25:33.002Z</time></trkpt><trkpt lat="43.422764811141356" lon="11.350295209097988"><ele>484.0</ele><time>2026-05-02T14:25:34.002Z</time></trkpt><trkpt lat="43.422807779845044" lon="11.35041617062436"><ele>484.0</ele><time>2026-05-02T14:25:35.002Z</time></trkpt><trkpt lat="43.422810236616755" lon="11.350516997326897"><ele>484.00000000000006</ele><time>2026-05-02T14:25:36.002Z</time></trkpt><trkpt lat="43.42285227747366" lon="11.350581971663555"><ele>484.0</ele><time>2026-05-02T14:25:37.002Z</time></trkpt><trkpt lat="43.422915199564265" lon="11.350691116151797"><ele>482.4</ele><time>2026-05-02T14:25:39.002Z</time></trkpt><trkpt lat="43.42302748818447" lon="11.350659445670658"><ele>480.79999999999995</ele><time>2026-05-02T14:25:41.002Z</time></trkpt><trkpt lat="43.42309435265032" lon="11.350582249736195"><ele>479.20000000000005</ele><time>2026-05-02T14:25:42.003Z</time></trkpt><trkpt lat="43.42316505407994" lon="11.35049835300537"><ele>477.6</ele><time>2026-05-02T14:25:43.003Z</time></trkpt><trkpt lat="43.42323444249314" lon="11.350405661646539"><ele>476.0</ele><time>2026-05-02T14:25:44.003Z</time></trkpt><trkpt lat="43.423310773966065" lon="11.350364526748281"><ele>476.0</ele><time>2026-05-02T14:25:45.003Z</time></trkpt><trkpt lat="43.42340624056232" lon="11.350317127691458"><ele>476.0</ele><time>2026-05-02T14:25:46.003Z</time></trkpt><trkpt lat="43.42352472977912" lon="11.350268508081284"><ele>476.0</ele><time>2026-05-02T14:25:47.003Z</time></trkpt><trkpt lat="43.42362143629722" lon="11.350230035615818"><ele>476.0</ele><time>2026-05-02T14:25:48.003Z</time></trkpt><trkpt lat="43.42372072440438" lon="11.350208870860627"><ele>476.0</ele><time>2026-05-02T14:25:49.003Z</time></trkpt><trkpt lat="43.42384787851857" lon="11.350217466977977"><ele>473.99999999999994</ele><time>2026-05-02T14:25:51.003Z</time></trkpt><trkpt lat="43.42391037527755" lon="11.35023192424505"><ele>472.0</ele><time>2026-05-02T14:25:52.003Z</time></trkpt><trkpt lat="43.42394845312903" lon="11.350308204794029"><ele>470.0</ele><time>2026-05-02T14:25:53.003Z</time></trkpt><trkpt lat="43.423976639231554" lon="11.350392002449885"><ele>468.0</ele><time>2026-05-02T14:25:54.003Z</time></trkpt><trkpt lat="43.423981269590485" lon="11.350521759505511"><ele>465.99999999999994</ele><time>2026-05-02T14:25:55.003Z</time></trkpt><trkpt lat="43.42397050176715" lon="11.350693285694286"><ele>464.0</ele><time>2026-05-02T14:25:56.003Z</time></trkpt><trkpt lat="43.42396346998591" lon="11.35088366475534"><ele>461.25</ele><time>2026-05-02T14:25:57.003Z</time></trkpt><trkpt lat="43.423949624947625" lon="11.351056919071336"><ele>458.5</ele><time>2026-05-02T14:25:58.003Z</time></trkpt><trkpt lat="43.423920380506225" lon="11.351243075285613"><ele>455.75</ele><time>2026-05-02T14:25:59.003Z</time></trkpt><trkpt lat="43.42387617297905" lon="11.351442229644658"><ele>453.0</ele><time>2026-05-02T14:26:00.003Z</time></trkpt><trkpt lat="43.4238213098064" lon="11.351628454253403"><ele>451.75</ele><time>2026-05-02T14:26:01.003Z</time></trkpt><trkpt lat="43.42376383627447" lon="11.351779612427928"><ele>450.5</ele><time>2026-05-02T14:26:02.003Z</time></trkpt><trkpt lat="43.42371319779515" lon="11.351931853736648"><ele>449.25</ele><time>2026-05-02T14:26:03.003Z</time></trkpt><trkpt lat="43.423678652478536" lon="11.352071473487753"><ele>448.0</ele><time>2026-05-02T14:26:04.003Z</time></trkpt><trkpt lat="43.4236776640898" lon="11.35221801519869"><ele>446.75</ele><time>2026-05-02T14:26:05.003Z</time></trkpt><trkpt lat="43.423657438801136" lon="11.352377364277983"><ele>445.5</ele><time>2026-05-02T14:26:06.003Z</time></trkpt><trkpt lat="43.42367140348789" lon="11.352572051554283"><ele>444.25</ele><time>2026-05-02T14:26:07.003Z</time></trkpt><trkpt lat="43.4236972519039" lon="11.352804846690338"><ele>443.0</ele><time>2026-05-02T14:26:08.003Z</time></trkpt><trkpt lat="43.423721065490675" lon="11.353013032379398"><ele>440.5</ele><time>2026-05-02T14:26:09.003Z</time></trkpt><trkpt lat="43.42374383671368" lon="11.353197087058007"><ele>438.0</ele><time>2026-05-02T14:26:10.003Z</time></trkpt><trkpt lat="43.42376781074873" lon="11.35337203169821"><ele>435.5</ele><time>2026-05-02T14:26:11Z</time></trkpt><trkpt lat="43.42378913978035" lon="11.353527190874736"><ele>433.0</ele><time>2026-05-02T14:26:12Z</time></trkpt><trkpt lat="43.423806260555146" lon="11.353672454178389"><ele>433.33333333333337</ele><time>2026-05-02T14:26:13Z</time></trkpt><trkpt lat="43.423815321660854" lon="11.353781512747835"><ele>433.6666666666667</ele><time>2026-05-02T14:26:14Z</time></trkpt><trkpt lat="43.42382479169053" lon="11.353895493084508"><ele>434.0</ele><time>2026-05-02T14:26:15Z</time></trkpt><trkpt lat="43.423837426755334" lon="11.354009285941425"><ele>434.33333333333337</ele><time>2026-05-02T14:26:16Z</time></trkpt><trkpt lat="43.42385773658991" lon="11.354115234716307"><ele>434.6666666666667</ele><time>2026-05-02T14:26:17Z</time></trkpt><trkpt lat="43.423884460987686" lon="11.354215439034483"><ele>435.0</ele><time>2026-05-02T14:26:18Z</time></trkpt><trkpt lat="43.42394814014045" lon="11.354380601261916"><ele>435.0</ele><time>2026-05-02T14:26:20Z</time></trkpt><trkpt lat="43.42401039965639" lon="11.354464321674218"><ele>435.0</ele><time>2026-05-02T14:26:21Z</time></trkpt><trkpt lat="43.42405691603756" lon="11.354567830107193"><ele>435.0</ele><time>2026-05-02T14:26:22Z</time></trkpt><trkpt lat="43.42410348792429" lon="11.354644039273595"><ele>435.0</ele><time>2026-05-02T14:26:23Z</time></trkpt><trkpt lat="43.424162142350106" lon="11.354713480849107"><ele>435.0</ele><time>2026-05-02T14:26:24Z</time></trkpt><trkpt lat="43.424236654439945" lon="11.354781482740696"><ele>435.0</ele><time>2026-05-02T14:26:25Z</time></trkpt><trkpt lat="43.424334149203034" lon="11.354827022931508"><ele>432.25</ele><time>2026-05-02T14:26:26Z</time></trkpt><trkpt lat="43.42446361501185" lon="11.354846704257398"><ele>429.5</ele><time>2026-05-02T14:26:27Z</time></trkpt><trkpt lat="43.42459999079529" lon="11.35485455442095"><ele>426.75</ele><time>2026-05-02T14:26:28Z</time></trkpt><trkpt lat="43.42472525027742" lon="11.354864950128814"><ele>424.0</ele><time>2026-05-02T14:26:29Z</time></trkpt><trkpt lat="43.42482350939947" lon="11.354872926603221"><ele>424.00000000000006</ele><time>2026-05-02T14:26:30Z</time></trkpt><trkpt lat="43.424905617456425" lon="11.354870171738279"><ele>424.0</ele><time>2026-05-02T14:26:31Z</time></trkpt><trkpt lat="43.42496929692981" lon="11.354837883530731"><ele>424.0</ele><time>2026-05-02T14:26:32Z</time></trkpt><trkpt lat="43.42501343248956" lon="11.354771177096753"><ele>424.0</ele><time>2026-05-02T14:26:33Z</time></trkpt><trkpt lat="43.42503033527393" lon="11.354665465485642"><ele>424.00000000000006</ele><time>2026-05-02T14:26:34Z</time></trkpt><trkpt lat="43.425037004813" lon="11.354550342513056"><ele>424.0</ele><time>2026-05-02T14:26:35Z</time></trkpt><trkpt lat="43.42507681456487" lon="11.35445768546893"><ele>424.25</ele><time>2026-05-02T14:26:36Z</time></trkpt><trkpt lat="43.42517540509398" lon="11.35441753439903"><ele>424.5</ele><time>2026-05-02T14:26:37Z</time></trkpt><trkpt lat="43.42530218593165" lon="11.354412042178192"><ele>424.75</ele><time>2026-05-02T14:26:38Z</time></trkpt><trkpt lat="43.425432297321684" lon="11.354408595145099"><ele>425.0</ele><time>2026-05-02T14:26:39Z</time></trkpt><trkpt lat="43.425527641274726" lon="11.354376194429953"><ele>420.5</ele><time>2026-05-02T14:26:40Z</time></trkpt><trkpt lat="43.42561279547562" lon="11.354311394410923"><ele>416.0</ele><time>2026-05-02T14:26:41Z</time></trkpt><trkpt lat="43.42568746411977" lon="11.354185358903665"><ele>411.5</ele><time>2026-05-02T14:26:42.001Z</time></trkpt><trkpt lat="43.425754075070046" lon="11.354011273551734"><ele>407.0</ele><time>2026-05-02T14:26:43.001Z</time></trkpt><trkpt lat="43.425799689291786" lon="11.353839446608958"><ele>405.0</ele><time>2026-05-02T14:26:44.001Z</time></trkpt><trkpt lat="43.425810729360016" lon="11.35366007758602"><ele>403.0</ele><time>2026-05-02T14:26:45.001Z</time></trkpt><trkpt lat="43.42578908208948" lon="11.353488085522825"><ele>401.0</ele><time>2026-05-02T14:26:46.001Z</time></trkpt><trkpt lat="43.425765345307674" lon="11.35332041419682"><ele>399.0</ele><time>2026-05-02T14:26:47.001Z</time></trkpt><trkpt lat="43.42577155045956" lon="11.353150125958214"><ele>399.5</ele><time>2026-05-02T14:26:48.001Z</time></trkpt><trkpt lat="43.42578513442946" lon="11.352981661146835"><ele>400.0</ele><time>2026-05-02T14:26:49.001Z</time></trkpt><trkpt lat="43.42580370329297" lon="11.352799466344576"><ele>400.5</ele><time>2026-05-02T14:26:50.001Z</time></trkpt><trkpt lat="43.42581370051477" lon="11.35261637816736"><ele>401.0</ele><time>2026-05-02T14:26:51.001Z</time></trkpt><trkpt lat="43.425846439587595" lon="11.352462579981255"><ele>401.0</ele><time>2026-05-02T14:26:52.001Z</time></trkpt><trkpt lat="43.42588857658224" lon="11.35231947592083"><ele>401.0</ele><time>2026-05-02T14:26:53.001Z</time></trkpt><trkpt lat="43.425941303710225" lon="11.352184823782258"><ele>401.0</ele><time>2026-05-02T14:26:54.001Z</time></trkpt><trkpt lat="43.426016671445836" lon="11.352074780629641"><ele>401.0</ele><time>2026-05-02T14:26:55.001Z</time></trkpt><trkpt lat="43.42611716565462" lon="11.35201023024849"><ele>401.0</ele><time>2026-05-02T14:26:56.001Z</time></trkpt><trkpt lat="43.426225587378326" lon="11.35189464450378"><ele>398.0</ele><time>2026-05-02T14:26:57.001Z</time></trkpt><trkpt lat="43.42632546716544" lon="11.351795347064966"><ele>395.0</ele><time>2026-05-02T14:26:58.001Z</time></trkpt><trkpt lat="43.42642827530513" lon="11.351696742225295"><ele>392.0</ele><time>2026-05-02T14:26:59.001Z</time></trkpt><trkpt lat="43.426515610789274" lon="11.351605151364579"><ele>389.0</ele><time>2026-05-02T14:27:00.001Z</time></trkpt><trkpt lat="43.42658620669004" lon="11.351517189748492"><ele>389.0</ele><time>2026-05-02T14:27:01.001Z</time></trkpt><trkpt lat="43.42663793080746" lon="11.351413825271562"><ele>389.0</ele><time>2026-05-02T14:27:02.001Z</time></trkpt><trkpt lat="43.426692806059506" lon="11.351275954515584"><ele>389.0</ele><time>2026-05-02T14:27:03.001Z</time></trkpt><trkpt lat="43.42674020447842" lon="11.351151438400791"><ele>389.0</ele><time>2026-05-02T14:27:04.001Z</time></trkpt><trkpt lat="43.426792263765904" lon="11.351021166175704"><ele>389.0</ele><time>2026-05-02T14:27:05.001Z</time></trkpt><trkpt lat="43.42683284484989" lon="11.350912606568537"><ele>390.0</ele><time>2026-05-02T14:27:06.001Z</time></trkpt><trkpt lat="43.42689111007161" lon="11.35078324580494"><ele>391.0</ele><time>2026-05-02T14:27:07.001Z</time></trkpt><trkpt lat="43.42692973498068" lon="11.350696776363979"><ele>392.0</ele><time>2026-05-02T14:27:08.001Z</time></trkpt><trkpt lat="43.42699842110813" lon="11.350567043624126"><ele>393.0</ele><time>2026-05-02T14:27:10.001Z</time></trkpt><trkpt lat="43.42712173586981" lon="11.350478168367308"><ele>394.0</ele><time>2026-05-02T14:27:12.001Z</time></trkpt><trkpt lat="43.42721895706065" lon="11.350428349990839"><ele>390.0</ele><time>2026-05-02T14:27:13.001Z</time></trkpt><trkpt lat="43.42735387846511" lon="11.350376021538027"><ele>386.0</ele><time>2026-05-02T14:27:14.001Z</time></trkpt><trkpt lat="43.427494960850595" lon="11.350352142355405"><ele>382.0</ele><time>2026-05-02T14:27:15.001Z</time></trkpt><trkpt lat="43.42763690153493" lon="11.350280992071534"><ele>378.0</ele><time>2026-05-02T14:27:16.001Z</time></trkpt><trkpt lat="43.427769697165786" lon="11.350223194439465"><ele>378.0</ele><time>2026-05-02T14:27:17.002Z</time></trkpt><trkpt lat="43.42790158415641" lon="11.35014246273034"><ele>378.0</ele><time>2026-05-02T14:27:18.002Z</time></trkpt><trkpt lat="43.42802447156798" lon="11.350064342897452"><ele>378.0</ele><time>2026-05-02T14:27:19.002Z</time></trkpt><trkpt lat="43.42814349490088" lon="11.350007962568391"><ele>378.0</ele><time>2026-05-02T14:27:20.002Z</time></trkpt><trkpt lat="43.428250609307504" lon="11.349989951822822"><ele>377.79999999999995</ele><time>2026-05-02T14:27:21.002Z</time></trkpt><trkpt lat="43.4283430399507" lon="11.350004063048923"><ele>377.6</ele><time>2026-05-02T14:27:22.002Z</time></trkpt><trkpt lat="43.42844113687156" lon="11.35002886226813"><ele>377.4</ele><time>2026-05-02T14:27:23.002Z</time></trkpt><trkpt lat="43.42853705459453" lon="11.35006380438721"><ele>377.20000000000005</ele><time>2026-05-02T14:27:24.002Z</time></trkpt><trkpt lat="43.42862864640242" lon="11.350123771693816"><ele>377.0</ele><time>2026-05-02T14:27:25.002Z</time></trkpt><trkpt lat="43.42871882291196" lon="11.350214558568391"><ele>377.0</ele><time>2026-05-02T14:27:26.002Z</time></trkpt><trkpt lat="43.42879851375125" lon="11.35029031817522"><ele>377.0</ele><time>2026-05-02T14:27:27.002Z</time></trkpt><trkpt lat="43.42890488745513" lon="11.350361780262892"><ele>377.0</ele><time>2026-05-02T14:27:28.002Z</time></trkpt><trkpt lat="43.429000227709835" lon="11.350427347844661"><ele>377.0</ele><time>2026-05-02T14:27:29.002Z</time></trkpt><trkpt lat="43.429081332920035" lon="11.35045832126095"><ele>377.0</ele><time>2026-05-02T14:27:30.002Z</time></trkpt><trkpt lat="43.429144436489175" lon="11.350504333773427"><ele>376.33333333333337</ele><time>2026-05-02T14:27:31.002Z</time></trkpt><trkpt lat="43.429215968638054" lon="11.350548622659836"><ele>375.6666666666667</ele><time>2026-05-02T14:27:32.002Z</time></trkpt><trkpt lat="43.429288122216214" lon="11.350608699677066"><ele>375.0</ele><time>2026-05-02T14:27:33.002Z</time></trkpt><trkpt lat="43.42935608748086" lon="11.350670598131074"><ele>374.3333333333333</ele><time>2026-05-02T14:27:34.002Z</time></trkpt><trkpt lat="43.42942524552292" lon="11.350735889954231"><ele>373.66666666666663</ele><time>2026-05-02T14:27:35.002Z</time></trkpt><trkpt lat="43.429496946288374" lon="11.350796700309745"><ele>373.0</ele><time>2026-05-02T14:27:36.002Z</time></trkpt><trkpt lat="43.429573900868135" lon="11.350842021545954"><ele>374.0</ele><time>2026-05-02T14:27:37.002Z</time></trkpt><trkpt lat="43.4296530724778" lon="11.350867193857368"><ele>375.0</ele><time>2026-05-02T14:27:38.002Z</time></trkpt><trkpt lat="43.4297460994511" lon="11.35087793347993"><ele>376.0</ele><time>2026-05-02T14:27:39.002Z</time></trkpt><trkpt lat="43.42984067459608" lon="11.350874110291352"><ele>377.0</ele><time>2026-05-02T14:27:40.002Z</time></trkpt><trkpt lat="43.42991937163152" lon="11.350861838133552"><ele>378.0</ele><time>2026-05-02T14:27:41.002Z</time></trkpt><trkpt lat="43.42998452601785" lon="11.35084629470715"><ele>379.0</ele><time>2026-05-02T14:27:42.002Z</time></trkpt><trkpt lat="43.43006379864729" lon="11.350828676035114"><ele>379.0</ele><time>2026-05-02T14:27:43.002Z</time></trkpt><trkpt lat="43.43013712265247" lon="11.350820482400682"><ele>379.0</ele><time>2026-05-02T14:27:44.002Z</time></trkpt><trkpt lat="43.430229316558695" lon="11.350812471228883"><ele>379.0</ele><time>2026-05-02T14:27:45.002Z</time></trkpt><trkpt lat="43.43032973190705" lon="11.350812224966226"><ele>379.0</ele><time>2026-05-02T14:27:46.002Z</time></trkpt><trkpt lat="43.43043064863877" lon="11.350817655537643"><ele>379.0</ele><time>2026-05-02T14:27:47.002Z</time></trkpt><trkpt lat="43.43054978528933" lon="11.350837586814794"><ele>379.75</ele><time>2026-05-02T14:27:48.002Z</time></trkpt><trkpt lat="43.430702282007815" lon="11.350874583455587"><ele>380.5</ele><time>2026-05-02T14:27:49.002Z</time></trkpt><trkpt lat="43.43083881176117" lon="11.350896325130362"><ele>381.25</ele><time>2026-05-02T14:27:50.002Z</time></trkpt><trkpt lat="43.43095683541528" lon="11.350883948978947"><ele>382.0</ele><time>2026-05-02T14:27:51.002Z</time></trkpt><trkpt lat="43.4310763547521" lon="11.350827513505761"><ele>382.0</ele><time>2026-05-02T14:27:52.003Z</time></trkpt><trkpt lat="43.4312005327745" lon="11.350739872591845"><ele>382.0</ele><time>2026-05-02T14:27:53.003Z</time></trkpt><trkpt lat="43.43128848121175" lon="11.350667493892942"><ele>382.0</ele><time>2026-05-02T14:27:54.003Z</time></trkpt><trkpt lat="43.43135764123599" lon="11.350640750589944"><ele>382.0</ele><time>2026-05-02T14:27:55.003Z</time></trkpt><trkpt lat="43.431467605513554" lon="11.350679328994893"><ele>382.0</ele><time>2026-05-02T14:27:57.003Z</time></trkpt><trkpt lat="43.43151811331946" lon="11.350765005705503"><ele>384.8</ele><time>2026-05-02T14:27:58.003Z</time></trkpt><trkpt lat="43.431561198383186" lon="11.350855867334694"><ele>387.6</ele><time>2026-05-02T14:27:59.003Z</time></trkpt><trkpt lat="43.431634353191505" lon="11.350963802596741"><ele>390.40000000000003</ele><time>2026-05-02T14:28:00.003Z</time></trkpt><trkpt lat="43.431717436274226" lon="11.351072905562035"><ele>393.20000000000005</ele><time>2026-05-02T14:28:01.003Z</time></trkpt><trkpt lat="43.43180628126043" lon="11.351173313171353"><ele>396.0</ele><time>2026-05-02T14:28:02.003Z</time></trkpt><trkpt lat="43.43187637583691" lon="11.351232747840095"><ele>396.0</ele><time>2026-05-02T14:28:03.003Z</time></trkpt><trkpt lat="43.43194358677575" lon="11.351278327334407"><ele>396.0</ele><time>2026-05-02T14:28:04.003Z</time></trkpt><trkpt lat="43.43201997395293" lon="11.351319840504877"><ele>396.0</ele><time>2026-05-02T14:28:05.003Z</time></trkpt><trkpt lat="43.43211466500477" lon="11.351354709674288"><ele>396.0</ele><time>2026-05-02T14:28:06.003Z</time></trkpt><trkpt lat="43.43223110828773" lon="11.351374179332689"><ele>396.0</ele><time>2026-05-02T14:28:07.003Z</time></trkpt><trkpt lat="43.43235753752359" lon="11.351394612473232"><ele>396.20000000000005</ele><time>2026-05-02T14:28:08.003Z</time></trkpt><trkpt lat="43.43248479254207" lon="11.351416836340068"><ele>396.40000000000003</ele><time>2026-05-02T14:28:09.003Z</time></trkpt><trkpt lat="43.43259351702411" lon="11.35142133656676"><ele>396.6</ele><time>2026-05-02T14:28:10.003Z</time></trkpt><trkpt lat="43.432698225420864" lon="11.351408459053363"><ele>396.8</ele><time>2026-05-02T14:28:11.003Z</time></trkpt><trkpt lat="43.43278897605309" lon="11.351374665800519"><ele>397.0</ele><time>2026-05-02T14:28:12.003Z</time></trkpt><trkpt lat="43.432893318142945" lon="11.351309207099005"><ele>391.6666666666667</ele><time>2026-05-02T14:28:13.003Z</time></trkpt><trkpt lat="43.43302448733606" lon="11.351215069533705"><ele>386.33333333333337</ele><time>2026-05-02T14:28:14.003Z</time></trkpt><trkpt lat="43.433175700668336" lon="11.351093101250543"><ele>381.0</ele><time>2026-05-02T14:28:15.003Z</time></trkpt><trkpt lat="43.433329619395494" lon="11.35096213626478"><ele>381.0</ele><time>2026-05-02T14:28:16.003Z</time></trkpt><trkpt lat="43.43347536014735" lon="11.350827329917488"><ele>381.0</ele><time>2026-05-02T14:28:17Z</time></trkpt><trkpt lat="43.433604151482676" lon="11.350693392472925"><ele>381.0</ele><time>2026-05-02T14:28:18Z</time></trkpt><trkpt lat="43.4337328463305" lon="11.350542302602882"><ele>381.3333333333333</ele><time>2026-05-02T14:28:19Z</time></trkpt><trkpt lat="43.43386854916612" lon="11.350380577200214"><ele>381.66666666666663</ele><time>2026-05-02T14:28:20Z</time></trkpt><trkpt lat="43.433995036244326" lon="11.3502298291555"><ele>382.0</ele><time>2026-05-02T14:28:21Z</time></trkpt><trkpt lat="43.43411265683359" lon="11.350096268932072"><ele>382.0</ele><time>2026-05-02T14:28:22Z</time></trkpt><trkpt lat="43.434208970075865" lon="11.34998065305318"><ele>382.0</ele><time>2026-05-02T14:28:23Z</time></trkpt><trkpt lat="43.434285678712165" lon="11.34987616378333"><ele>382.0</ele><time>2026-05-02T14:28:24Z</time></trkpt><trkpt lat="43.43434170543796" lon="11.349767343596639"><ele>382.0</ele><time>2026-05-02T14:28:25Z</time></trkpt><trkpt lat="43.43439669842377" lon="11.349638856739283"><ele>382.0</ele><time>2026-05-02T14:28:26Z</time></trkpt><trkpt lat="43.43446221346662" lon="11.349454120529883"><ele>379.75</ele><time>2026-05-02T14:28:27Z</time></trkpt><trkpt lat="43.43452246493104" lon="11.349267684427389"><ele>377.5</ele><time>2026-05-02T14:28:28Z</time></trkpt><trkpt lat="43.43457005913214" lon="11.34911572256598"><ele>375.25</ele><time>2026-05-02T14:28:29Z</time></trkpt><trkpt lat="43.43460905829443" lon="11.348991885687575"><ele>373.0</ele><time>2026-05-02T14:28:30Z</time></trkpt><trkpt lat="43.43464964428945" lon="11.348880947664384"><ele>375.2</ele><time>2026-05-02T14:28:31Z</time></trkpt><trkpt lat="43.43469314610048" lon="11.348780110090736"><ele>377.4</ele><time>2026-05-02T14:28:32Z</time></trkpt><trkpt lat="43.434765290728954" lon="11.348720663361098"><ele>379.59999999999997</ele><time>2026-05-02T14:28:33Z</time></trkpt><trkpt lat="43.43485516564971" lon="11.348693111541019"><ele>381.79999999999995</ele><time>2026-05-02T14:28:34Z</time></trkpt><trkpt lat="43.43494685073986" lon="11.348709579619909"><ele>384.0</ele><time>2026-05-02T14:28:35Z</time></trkpt><trkpt lat="43.4350438605252" lon="11.348752596843875"><ele>384.0</ele><time>2026-05-02T14:28:36Z</time></trkpt><trkpt lat="43.43511546177805" lon="11.348795350067574"><ele>384.0</ele><time>2026-05-02T14:28:37Z</time></trkpt><trkpt lat="43.43521262369324" lon="11.348822318798028"><ele>384.0</ele><time>2026-05-02T14:28:38Z</time></trkpt><trkpt lat="43.43533312701401" lon="11.348807492220011"><ele>384.0</ele><time>2026-05-02T14:28:39Z</time></trkpt><trkpt lat="43.435494260336476" lon="11.348754813968224"><ele>383.75</ele><time>2026-05-02T14:28:40Z</time></trkpt><trkpt lat="43.435648415608554" lon="11.348695895031168"><ele>383.5</ele><time>2026-05-02T14:28:41Z</time></trkpt><trkpt lat="43.43576936088594" lon="11.348654022040034"><ele>383.25</ele><time>2026-05-02T14:28:42Z</time></trkpt><trkpt lat="43.43587136474682" lon="11.34865781634332"><ele>383.0</ele><time>2026-05-02T14:28:43Z</time></trkpt><trkpt lat="43.43596252909376" lon="11.348688721987626"><ele>383.0</ele><time>2026-05-02T14:28:44Z</time></trkpt><trkpt lat="43.436057426021215" lon="11.34874721839013"><ele>383.0</ele><time>2026-05-02T14:28:45Z</time></trkpt><trkpt lat="43.436172371345755" lon="11.34882638305861"><ele>383.0</ele><time>2026-05-02T14:28:46Z</time></trkpt><trkpt lat="43.43628161942525" lon="11.348911266868832"><ele>383.0</ele><time>2026-05-02T14:28:47Z</time></trkpt><trkpt lat="43.436394170183874" lon="11.349011680742612"><ele>381.0</ele><time>2026-05-02T14:28:48Z</time></trkpt><trkpt lat="43.436503195677005" lon="11.349122741286717"><ele>379.0</ele><time>2026-05-02T14:28:49Z</time></trkpt><trkpt lat="43.43659512858053" lon="11.349223666568212"><ele>377.0</ele><time>2026-05-02T14:28:50.001Z</time></trkpt><trkpt lat="43.4366719058382" lon="11.349302065651324"><ele>375.0</ele><time>2026-05-02T14:28:51.001Z</time></trkpt><trkpt lat="43.43674623553737" lon="11.349361880738066"><ele>373.0</ele><time>2026-05-02T14:28:52.001Z</time></trkpt><trkpt lat="43.43682589634562" lon="11.34938887176877"><ele>373.0</ele><time>2026-05-02T14:28:53.001Z</time></trkpt><trkpt lat="43.43691071910481" lon="11.349398829862226"><ele>373.0</ele><time>2026-05-02T14:28:54.001Z</time></trkpt><trkpt lat="43.43699968268394" lon="11.349360972965291"><ele>373.0</ele><time>2026-05-02T14:28:55.001Z</time></trkpt><trkpt lat="43.4370758915367" lon="11.34930094839545"><ele>373.0</ele><time>2026-05-02T14:28:56.001Z</time></trkpt><trkpt lat="43.43713288716169" lon="11.349216797771055"><ele>373.0</ele><time>2026-05-02T14:28:57.001Z</time></trkpt><trkpt lat="43.43717753469738" lon="11.349111435661214"><ele>373.0</ele><time>2026-05-02T14:28:58.001Z</time></trkpt><trkpt lat="43.437221900590224" lon="11.34896553637712"><ele>374.0</ele><time>2026-05-02T14:28:59.001Z</time></trkpt><trkpt lat="43.437244187074384" lon="11.348806392821002"><ele>375.0</ele><time>2026-05-02T14:29:00.001Z</time></trkpt><trkpt lat="43.43728290086376" lon="11.348643825971433"><ele>376.0</ele><time>2026-05-02T14:29:01.001Z</time></trkpt><trkpt lat="43.437324062768404" lon="11.348506639640078"><ele>377.0</ele><time>2026-05-02T14:29:02.001Z</time></trkpt><trkpt lat="43.43739842182192" lon="11.3484122923464"><ele>377.0</ele><time>2026-05-02T14:29:03.001Z</time></trkpt><trkpt lat="43.437493884997046" lon="11.348346455141519"><ele>377.0</ele><time>2026-05-02T14:29:04.001Z</time></trkpt><trkpt lat="43.43760038166536" lon="11.348331408860995"><ele>377.0</ele><time>2026-05-02T14:29:05.001Z</time></trkpt><trkpt lat="43.43770923746388" lon="11.348374753075397"><ele>377.0</ele><time>2026-05-02T14:29:06.001Z</time></trkpt><trkpt lat="43.43781228575567" lon="11.348464390327463"><ele>377.0</ele><time>2026-05-02T14:29:07.001Z</time></trkpt><trkpt lat="43.43788906013038" lon="11.348612653665633"><ele>377.0</ele><time>2026-05-02T14:29:08.001Z</time></trkpt><trkpt lat="43.43794420234989" lon="11.348804108595814"><ele>377.0</ele><time>2026-05-02T14:29:09.001Z</time></trkpt><trkpt lat="43.43797907811115" lon="11.34903099907069"><ele>377.0</ele><time>2026-05-02T14:29:10.001Z</time></trkpt><trkpt lat="43.43801864185125" lon="11.349260536441584"><ele>376.5</ele><time>2026-05-02T14:29:11.001Z</time></trkpt><trkpt lat="43.43808334626016" lon="11.349453491987212"><ele>376.0</ele><time>2026-05-02T14:29:12.001Z</time></trkpt><trkpt lat="43.43818069924825" lon="11.349618239562442"><ele>375.5</ele><time>2026-05-02T14:29:13.001Z</time></trkpt><trkpt lat="43.438285561382685" lon="11.34974288634637"><ele>375.0</ele><time>2026-05-02T14:29:14.001Z</time></trkpt><trkpt lat="43.438397629277425" lon="11.34984091050709"><ele>375.0</ele><time>2026-05-02T14:29:15.001Z</time></trkpt><trkpt lat="43.43854101826534" lon="11.34992632641327"><ele>375.0</ele><time>2026-05-02T14:29:16.001Z</time></trkpt><trkpt lat="43.43869387228357" lon="11.349988391239762"><ele>375.0</ele><time>2026-05-02T14:29:17.001Z</time></trkpt><trkpt lat="43.438821824740096" lon="11.350035563646916"><ele>375.0</ele><time>2026-05-02T14:29:18.001Z</time></trkpt><trkpt lat="43.43894036130414" lon="11.350077636607475"><ele>375.5</ele><time>2026-05-02T14:29:19.001Z</time></trkpt><trkpt lat="43.43907609436744" lon="11.35012888654067"><ele>376.0</ele><time>2026-05-02T14:29:20.001Z</time></trkpt><trkpt lat="43.43921104241104" lon="11.350188054630346"><ele>376.5</ele><time>2026-05-02T14:29:21.001Z</time></trkpt><trkpt lat="43.4393333998387" lon="11.350244120194077"><ele>377.0</ele><time>2026-05-02T14:29:22.001Z</time></trkpt><trkpt lat="43.43944642870474" lon="11.350292266400874"><ele>377.0</ele><time>2026-05-02T14:29:23.002Z</time></trkpt><trkpt lat="43.43956792277381" lon="11.35033635177535"><ele>377.0</ele><time>2026-05-02T14:29:24.002Z</time></trkpt><trkpt lat="43.439694191390956" lon="11.350392267727328"><ele>377.0</ele><time>2026-05-02T14:29:25.002Z</time></trkpt><trkpt lat="43.43982089743224" lon="11.35046899261174"><ele>377.0</ele><time>2026-05-02T14:29:26.002Z</time></trkpt><trkpt lat="43.43994322017278" lon="11.350556134803163"><ele>376.20000000000005</ele><time>2026-05-02T14:29:27.002Z</time></trkpt><trkpt lat="43.44004441106516" lon="11.350631537004835"><ele>375.4</ele><time>2026-05-02T14:29:28.002Z</time></trkpt><trkpt lat="43.44013603488785" lon="11.350720464835197"><ele>374.6</ele><time>2026-05-02T14:29:29.002Z</time></trkpt><trkpt lat="43.440205951375376" lon="11.35081618636862"><ele>373.79999999999995</ele><time>2026-05-02T14:29:30.002Z</time></trkpt><trkpt lat="43.44025958146082" lon="11.350927175587788"><ele>373.0</ele><time>2026-05-02T14:29:31.002Z</time></trkpt><trkpt lat="43.440310371398475" lon="11.35107745880496"><ele>373.0</ele><time>2026-05-02T14:29:32.002Z</time></trkpt><trkpt lat="43.44036632340342" lon="11.35126588303829"><ele>373.0</ele><time>2026-05-02T14:29:33.002Z</time></trkpt><trkpt lat="43.44042254030781" lon="11.351451837061635"><ele>373.0</ele><time>2026-05-02T14:29:34.002Z</time></trkpt><trkpt lat="43.44048737147143" lon="11.351585798672438"><ele>373.0</ele><time>2026-05-02T14:29:35.002Z</time></trkpt><trkpt lat="43.44054510545352" lon="11.351691599408335"><ele>373.0</ele><time>2026-05-02T14:29:36.002Z</time></trkpt><trkpt lat="43.440571324719826" lon="11.351786933599724"><ele>373.0</ele><time>2026-05-02T14:29:37.002Z</time></trkpt><trkpt lat="43.44058300147652" lon="11.351928081484493"><ele>373.0</ele><time>2026-05-02T14:29:38.002Z</time></trkpt><trkpt lat="43.440590205566586" lon="11.352128147507356"><ele>373.0</ele><time>2026-05-02T14:29:39.002Z</time></trkpt><trkpt lat="43.44061141770409" lon="11.35234902399481"><ele>371.0</ele><time>2026-05-02T14:29:40.002Z</time></trkpt><trkpt lat="43.44064947725501" lon="11.35257278564781"><ele>369.0</ele><time>2026-05-02T14:29:41.002Z</time></trkpt><trkpt lat="43.44069054094137" lon="11.352821240895375"><ele>367.0</ele><time>2026-05-02T14:29:42.002Z</time></trkpt><trkpt lat="43.44072665247392" lon="11.353082691728039"><ele>365.5</ele><time>2026-05-02T14:29:43.002Z</time></trkpt><trkpt lat="43.44075344505058" lon="11.35330506256273"><ele>364.0</ele><time>2026-05-02T14:29:44.002Z</time></trkpt><trkpt lat="43.440775017141014" lon="11.353492942304502"><ele>362.5</ele><time>2026-05-02T14:29:45.002Z</time></trkpt><trkpt lat="43.44078773503242" lon="11.353670301758397"><ele>361.0</ele><time>2026-05-02T14:29:46.002Z</time></trkpt><trkpt lat="43.440801279549746" lon="11.353843026677309"><ele>359.5</ele><time>2026-05-02T14:29:47.002Z</time></trkpt><trkpt lat="43.440823460878356" lon="11.35402006934039"><ele>358.0</ele><time>2026-05-02T14:29:48.002Z</time></trkpt><trkpt lat="43.440859440171025" lon="11.354213652396403"><ele>356.5</ele><time>2026-05-02T14:29:49.002Z</time></trkpt><trkpt lat="43.44090550170051" lon="11.35443790095296"><ele>355.0</ele><time>2026-05-02T14:29:50.002Z</time></trkpt><trkpt lat="43.44095592609148" lon="11.354643322275187"><ele>354.5</ele><time>2026-05-02T14:29:51.002Z</time></trkpt><trkpt lat="43.44099712722499" lon="11.354837332837782"><ele>354.0</ele><time>2026-05-02T14:29:52.002Z</time></trkpt><trkpt lat="43.44103548846341" lon="11.355030029066466"><ele>353.5</ele><time>2026-05-02T14:29:53.002Z</time></trkpt><trkpt lat="43.441050456158344" lon="11.355185776018253"><ele>353.0</ele><time>2026-05-02T14:29:54.002Z</time></trkpt><trkpt lat="43.44105973710037" lon="11.355323248273377"><ele>353.0</ele><time>2026-05-02T14:29:55.002Z</time></trkpt><trkpt lat="43.44105184307197" lon="11.35545731546971"><ele>353.0</ele><time>2026-05-02T14:29:56.003Z</time></trkpt><trkpt lat="43.441033058689726" lon="11.355568289415649"><ele>353.0</ele><time>2026-05-02T14:29:57.003Z</time></trkpt><trkpt lat="43.44098827549364" lon="11.355711170325998"><ele>353.0</ele><time>2026-05-02T14:29:59.003Z</time></trkpt><trkpt lat="43.44101331575524" lon="11.355837873041546"><ele>353.0</ele><time>2026-05-02T14:30:02.003Z</time></trkpt><trkpt lat="43.44110718423207" lon="11.355875682227488"><ele>352.83333333333337</ele><time>2026-05-02T14:30:04.003Z</time></trkpt><trkpt lat="43.4411705045982" lon="11.3558613929787"><ele>352.6666666666667</ele><time>2026-05-02T14:30:05.003Z</time></trkpt><trkpt lat="43.4412867807857" lon="11.355794665432828"><ele>352.5</ele><time>2026-05-02T14:30:07.003Z</time></trkpt><trkpt lat="43.44134573836564" lon="11.355734690338078"><ele>352.3333333333333</ele><time>2026-05-02T14:30:08.003Z</time></trkpt><trkpt lat="43.44139944926888" lon="11.355676717756738"><ele>352.16666666666663</ele><time>2026-05-02T14:30:09.003Z</time></trkpt><trkpt lat="43.441459244166474" lon="11.355595348073413"><ele>352.0</ele><time>2026-05-02T14:30:10.003Z</time></trkpt><trkpt lat="43.441496216381275" lon="11.355511958419754"><ele>352.5</ele><time>2026-05-02T14:30:11.003Z</time></trkpt><trkpt lat="43.44153455813323" lon="11.355438296107508"><ele>353.0</ele><time>2026-05-02T14:30:12.003Z</time></trkpt><trkpt lat="43.44159336341757" lon="11.355365182700258"><ele>353.5</ele><time>2026-05-02T14:30:13.003Z</time></trkpt><trkpt lat="43.4416569371221" lon="11.35532316533208"><ele>354.0</ele><time>2026-05-02T14:30:14.003Z</time></trkpt><trkpt lat="43.44172834312684" lon="11.355306783502183"><ele>354.5</ele><time>2026-05-02T14:30:15.003Z</time></trkpt><trkpt lat="43.441818345174106" lon="11.355298093973076"><ele>355.0</ele><time>2026-05-02T14:30:16.003Z</time></trkpt><trkpt lat="43.44191982038443" lon="11.355281879454036"><ele>355.0</ele><time>2026-05-02T14:30:17.003Z</time></trkpt><trkpt lat="43.44200706142777" lon="11.355285582852023"><ele>355.0</ele><time>2026-05-02T14:30:18.003Z</time></trkpt><trkpt lat="43.44208533571847" lon="11.355283857856199"><ele>355.0</ele><time>2026-05-02T14:30:19.003Z</time></trkpt><trkpt lat="43.44215368807538" lon="11.355272605773298"><ele>355.0</ele><time>2026-05-02T14:30:20.003Z</time></trkpt><trkpt lat="43.44222001763164" lon="11.35525468701215"><ele>355.0</ele><time>2026-05-02T14:30:21.003Z</time></trkpt><trkpt lat="43.442281408952105" lon="11.355223341654074"><ele>355.0</ele><time>2026-05-02T14:30:22.003Z</time></trkpt><trkpt lat="43.44236697222929" lon="11.35515201202919"><ele>351.2</ele><time>2026-05-02T14:30:23Z</time></trkpt><trkpt lat="43.4424589685316" lon="11.355071875035431"><ele>347.4</ele><time>2026-05-02T14:30:24Z</time></trkpt><trkpt lat="43.44254549798986" lon="11.354998528324785"><ele>343.6</ele><time>2026-05-02T14:30:25Z</time></trkpt><trkpt lat="43.44262601797845" lon="11.354931529420472"><ele>339.8</ele><time>2026-05-02T14:30:26Z</time></trkpt><trkpt lat="43.44270007266326" lon="11.354861433161386"><ele>336.0</ele><time>2026-05-02T14:30:27Z</time></trkpt><trkpt lat="43.44278358319361" lon="11.354791447998046"><ele>336.0</ele><time>2026-05-02T14:30:28Z</time></trkpt><trkpt lat="43.4428927981837" lon="11.35471722585532"><ele>336.0</ele><time>2026-05-02T14:30:29Z</time></trkpt><trkpt lat="43.44302189080914" lon="11.354645688897165"><ele>336.0</ele><time>2026-05-02T14:30:30Z</time></trkpt><trkpt lat="43.44317261360216" lon="11.3545474799415"><ele>336.0</ele><time>2026-05-02T14:30:31Z</time></trkpt><trkpt lat="43.44332512686372" lon="11.354461359472134"><ele>335.3333333333333</ele><time>2026-05-02T14:30:32Z</time></trkpt><trkpt lat="43.443476201161765" lon="11.354365014767064"><ele>334.66666666666663</ele><time>2026-05-02T14:30:33Z</time></trkpt><trkpt lat="43.4436102554699" lon="11.354275315035473"><ele>334.0</ele><time>2026-05-02T14:30:34Z</time></trkpt><trkpt lat="43.443733887117325" lon="11.354189164611773"><ele>331.5</ele><time>2026-05-02T14:30:35Z</time></trkpt><trkpt lat="43.443848133922984" lon="11.3541140440286"><ele>329.0</ele><time>2026-05-02T14:30:36Z</time></trkpt><trkpt lat="43.44395863374389" lon="11.354044771973722"><ele>326.5</ele><time>2026-05-02T14:30:37Z</time></trkpt><trkpt lat="43.444054410859565" lon="11.353983789944344"><ele>324.0</ele><time>2026-05-02T14:30:38Z</time></trkpt><trkpt lat="43.444149397368214" lon="11.353931527992303"><ele>324.0</ele><time>2026-05-02T14:30:39Z</time></trkpt><trkpt lat="43.44425176965749" lon="11.353888947169338"><ele>324.0</ele><time>2026-05-02T14:30:40Z</time></trkpt><trkpt lat="43.44436078121224" lon="11.353857306392026"><ele>324.0</ele><time>2026-05-02T14:30:41Z</time></trkpt><trkpt lat="43.444483796980045" lon="11.3538100512609"><ele>324.0</ele><time>2026-05-02T14:30:42Z</time></trkpt><trkpt lat="43.444607342737946" lon="11.35376929654996"><ele>324.6</ele><time>2026-05-02T14:30:43Z</time></trkpt><trkpt lat="43.444704306266075" lon="11.353746395941926"><ele>325.2</ele><time>2026-05-02T14:30:44Z</time></trkpt><trkpt lat="43.44478756488188" lon="11.353727966851867"><ele>325.8</ele><time>2026-05-02T14:30:45Z</time></trkpt><trkpt lat="43.444877535855866" lon="11.353759932788428"><ele>326.40000000000003</ele><time>2026-05-02T14:30:47Z</time></trkpt><trkpt lat="43.44492481363575" lon="11.35386675334744"><ele>327.0</ele><time>2026-05-02T14:30:49Z</time></trkpt><trkpt lat="43.44493452280645" lon="11.354069337979702"><ele>327.20000000000005</ele><time>2026-05-02T14:30:51Z</time></trkpt><trkpt lat="43.444939273432254" lon="11.354215122831299"><ele>327.4</ele><time>2026-05-02T14:30:52Z</time></trkpt><trkpt lat="43.444959940314064" lon="11.354353120788577"><ele>327.6</ele><time>2026-05-02T14:30:53Z</time></trkpt><trkpt lat="43.44499101080125" lon="11.354463436066956"><ele>327.79999999999995</ele><time>2026-05-02T14:30:54Z</time></trkpt><trkpt lat="43.44503541831282" lon="11.354571465420012"><ele>328.0</ele><time>2026-05-02T14:30:55Z</time></trkpt><trkpt lat="43.4451068475017" lon="11.354699685362625"><ele>327.5</ele><time>2026-05-02T14:30:56Z</time></trkpt><trkpt lat="43.445195287239045" lon="11.35482128306862"><ele>327.0</ele><time>2026-05-02T14:30:57.001Z</time></trkpt><trkpt lat="43.44529767341315" lon="11.35493184571569"><ele>326.5</ele><time>2026-05-02T14:30:58.001Z</time></trkpt><trkpt lat="43.44539762264854" lon="11.355016319769247"><ele>326.0</ele><time>2026-05-02T14:30:59.001Z</time></trkpt><trkpt lat="43.44550566609814" lon="11.355090052538907"><ele>327.20000000000005</ele><time>2026-05-02T14:31:00.001Z</time></trkpt><trkpt lat="43.44560314212635" lon="11.35514415824097"><ele>328.40000000000003</ele><time>2026-05-02T14:31:01.001Z</time></trkpt><trkpt lat="43.445694570453924" lon="11.35518057994884"><ele>329.6</ele><time>2026-05-02T14:31:02.001Z</time></trkpt><trkpt lat="43.445799664526106" lon="11.355202156671766"><ele>330.8</ele><time>2026-05-02T14:31:03.001Z</time></trkpt><trkpt lat="43.44592329514289" lon="11.355218943691897"><ele>332.0</ele><time>2026-05-02T14:31:04.001Z</time></trkpt><trkpt lat="43.4460729818513" lon="11.355225520506936"><ele>332.0</ele><time>2026-05-02T14:31:05.001Z</time></trkpt><trkpt lat="43.44624261689755" lon="11.35523889353336"><ele>332.0</ele><time>2026-05-02T14:31:06.001Z</time></trkpt><trkpt lat="43.44643206999324" lon="11.355262314640958"><ele>332.0</ele><time>2026-05-02T14:31:07.001Z</time></trkpt><trkpt lat="43.44662449459701" lon="11.355294677893633"><ele>333.6666666666667</ele><time>2026-05-02T14:31:08.001Z</time></trkpt><trkpt lat="43.44681588639543" lon="11.355329041230958"><ele>335.3333333333333</ele><time>2026-05-02T14:31:09.001Z</time></trkpt><trkpt lat="43.44700602149285" lon="11.355375900050161"><ele>337.0</ele><time>2026-05-02T14:31:10.001Z</time></trkpt><trkpt lat="43.447173682986524" lon="11.35540489878146"><ele>335.5</ele><time>2026-05-02T14:31:11.001Z</time></trkpt><trkpt lat="43.447334836121" lon="11.355432148647731"><ele>334.0</ele><time>2026-05-02T14:31:12.001Z</time></trkpt><trkpt lat="43.447463765647235" lon="11.355472565886817"><ele>332.5</ele><time>2026-05-02T14:31:13.001Z</time></trkpt><trkpt lat="43.447610079834185" lon="11.35552492058902"><ele>331.0</ele><time>2026-05-02T14:31:14.001Z</time></trkpt><trkpt lat="43.447773155387736" lon="11.35561909256619"><ele>331.0</ele><time>2026-05-02T14:31:15.001Z</time></trkpt><trkpt lat="43.4479405766299" lon="11.35572708403611"><ele>331.0</ele><time>2026-05-02T14:31:16.001Z</time></trkpt><trkpt lat="43.448144897152794" lon="11.355857899657009"><ele>331.0</ele><time>2026-05-02T14:31:17.001Z</time></trkpt><trkpt lat="43.44834639020332" lon="11.355976357107576"><ele>332.66666666666663</ele><time>2026-05-02T14:31:18.001Z</time></trkpt><trkpt lat="43.44853499761971" lon="11.35608821078911"><ele>334.3333333333333</ele><time>2026-05-02T14:31:19.001Z</time></trkpt><trkpt lat="43.448699711956145" lon="11.356192992194147"><ele>336.0</ele><time>2026-05-02T14:31:20.001Z</time></trkpt><trkpt lat="43.44882661978126" lon="11.35627678559316"><ele>335.0</ele><time>2026-05-02T14:31:21.001Z</time></trkpt><trkpt lat="43.44894251255773" lon="11.356337157981173"><ele>334.0</ele><time>2026-05-02T14:31:22.001Z</time></trkpt><trkpt lat="43.44904588187102" lon="11.356430302318609"><ele>333.0</ele><time>2026-05-02T14:31:23.001Z</time></trkpt><trkpt lat="43.449148541737934" lon="11.35652444100637"><ele>332.0</ele><time>2026-05-02T14:31:24.001Z</time></trkpt><trkpt lat="43.44923793638659" lon="11.356601598547883"><ele>332.0</ele><time>2026-05-02T14:31:25.001Z</time></trkpt><trkpt lat="43.44932777989551" lon="11.356661618394869"><ele>332.0</ele><time>2026-05-02T14:31:26.001Z</time></trkpt><trkpt lat="43.44943198847182" lon="11.356693771160216"><ele>332.0</ele><time>2026-05-02T14:31:27.001Z</time></trkpt><trkpt lat="43.44955495357409" lon="11.356718431878726"><ele>332.0</ele><time>2026-05-02T14:31:28.001Z</time></trkpt><trkpt lat="43.44970657563742" lon="11.356744090911798"><ele>333.6</ele><time>2026-05-02T14:31:29.002Z</time></trkpt><trkpt lat="43.4498367496778" lon="11.35676603257053"><ele>335.20000000000005</ele><time>2026-05-02T14:31:30.002Z</time></trkpt><trkpt lat="43.44994558492834" lon="11.356772917987005"><ele>336.8</ele><time>2026-05-02T14:31:31.002Z</time></trkpt><trkpt lat="43.45004194222088" lon="11.356753017597278"><ele>338.4</ele><time>2026-05-02T14:31:32.002Z</time></trkpt><trkpt lat="43.45013673173923" lon="11.356708421365784"><ele>340.0</ele><time>2026-05-02T14:31:33.002Z</time></trkpt><trkpt lat="43.45023056962653" lon="11.3566320511226"><ele>340.0</ele><time>2026-05-02T14:31:34.002Z</time></trkpt><trkpt lat="43.450347711696956" lon="11.356527060162314"><ele>340.0</ele><time>2026-05-02T14:31:35.002Z</time></trkpt><trkpt lat="43.45047546507465" lon="11.356408303264924"><ele>340.0</ele><time>2026-05-02T14:31:36.002Z</time></trkpt><trkpt lat="43.45058572751796" lon="11.35629161098018"><ele>340.0</ele><time>2026-05-02T14:31:37.002Z</time></trkpt><trkpt lat="43.45066628482521" lon="11.356193870390044"><ele>341.4</ele><time>2026-05-02T14:31:38.002Z</time></trkpt><trkpt lat="43.450743207323" lon="11.356114176037169"><ele>342.8</ele><time>2026-05-02T14:31:39.002Z</time></trkpt><trkpt lat="43.45081693045726" lon="11.356033705863311"><ele>344.20000000000005</ele><time>2026-05-02T14:31:40.002Z</time></trkpt><trkpt lat="43.45090658200286" lon="11.355921853719746"><ele>345.6</ele><time>2026-05-02T14:31:41.002Z</time></trkpt><trkpt lat="43.45100618383913" lon="11.355790044527893"><ele>347.0</ele><time>2026-05-02T14:31:42.002Z</time></trkpt><trkpt lat="43.45110731725697" lon="11.35568145745488"><ele>347.0</ele><time>2026-05-02T14:31:43.002Z</time></trkpt><trkpt lat="43.451223963885134" lon="11.355589371248245"><ele>347.0</ele><time>2026-05-02T14:31:44.002Z</time></trkpt><trkpt lat="43.451364764735146" lon="11.355493584085336"><ele>347.0</ele><time>2026-05-02T14:31:45.002Z</time></trkpt><trkpt lat="43.45150257702954" lon="11.355408294157618"><ele>347.0</ele><time>2026-05-02T14:31:46.002Z</time></trkpt><trkpt lat="43.45161284813088" lon="11.355342117454871"><ele>347.5</ele><time>2026-05-02T14:31:47.002Z</time></trkpt><trkpt lat="43.45171790400832" lon="11.355290314615138"><ele>348.0</ele><time>2026-05-02T14:31:48.002Z</time></trkpt><trkpt lat="43.451846209637125" lon="11.355267116215293"><ele>348.5</ele><time>2026-05-02T14:31:49.002Z</time></trkpt><trkpt lat="43.45197800299116" lon="11.355254825531471"><ele>349.0</ele><time>2026-05-02T14:31:50.002Z</time></trkpt><trkpt lat="43.452093176169754" lon="11.355226898618904"><ele>347.25</ele><time>2026-05-02T14:31:51.002Z</time></trkpt><trkpt lat="43.452213621328404" lon="11.355177735214198"><ele>345.5</ele><time>2026-05-02T14:31:52.002Z</time></trkpt><trkpt lat="43.45235869986254" lon="11.355107883417622"><ele>343.75</ele><time>2026-05-02T14:31:53.002Z</time></trkpt><trkpt lat="43.45251517198145" lon="11.355030354924729"><ele>342.0</ele><time>2026-05-02T14:31:54.002Z</time></trkpt><trkpt lat="43.45267220231468" lon="11.354950086786774"><ele>342.0</ele><time>2026-05-02T14:31:55.002Z</time></trkpt><trkpt lat="43.45281059467937" lon="11.354873743910003"><ele>342.0</ele><time>2026-05-02T14:31:56.002Z</time></trkpt><trkpt lat="43.45295036340307" lon="11.354783243269303"><ele>342.0</ele><time>2026-05-02T14:31:57.002Z</time></trkpt><trkpt lat="43.453097546446756" lon="11.354695709128734"><ele>342.6666666666667</ele><time>2026-05-02T14:31:58.002Z</time></trkpt><trkpt lat="43.45324474561909" lon="11.35460942863777"><ele>343.33333333333337</ele><time>2026-05-02T14:31:59.002Z</time></trkpt><trkpt lat="43.453394873065996" lon="11.35452851757301"><ele>344.0</ele><time>2026-05-02T14:32:00.002Z</time></trkpt><trkpt lat="43.45354350847194" lon="11.354455964376022"><ele>344.0</ele><time>2026-05-02T14:32:01.002Z</time></trkpt><trkpt lat="43.45366990077206" lon="11.354397065983552"><ele>344.0</ele><time>2026-05-02T14:32:02.003Z</time></trkpt><trkpt lat="43.453775459694334" lon="11.354347604320845"><ele>344.0</ele><time>2026-05-02T14:32:03.003Z</time></trkpt><trkpt lat="43.45386428921899" lon="11.354305469514093"><ele>344.0</ele><time>2026-05-02T14:32:04.003Z</time></trkpt><trkpt lat="43.45393634781874" lon="11.354266749206555"><ele>344.0</ele><time>2026-05-02T14:32:05.003Z</time></trkpt><trkpt lat="43.45399657489207" lon="11.354239041244039"><ele>342.6666666666667</ele><time>2026-05-02T14:32:06.003Z</time></trkpt><trkpt lat="43.45410018614761" lon="11.354267129182398"><ele>341.33333333333337</ele><time>2026-05-02T14:32:08.003Z</time></trkpt><trkpt lat="43.45416651669569" lon="11.354325705962143"><ele>340.0</ele><time>2026-05-02T14:32:09.003Z</time></trkpt><trkpt lat="43.454248962997426" lon="11.354372063808034"><ele>338.6666666666667</ele><time>2026-05-02T14:32:10.003Z</time></trkpt><trkpt lat="43.45432893735028" lon="11.354382732728958"><ele>337.3333333333333</ele><time>2026-05-02T14:32:11.003Z</time></trkpt><trkpt lat="43.4544103320974" lon="11.354349355736503"><ele>336.0</ele><time>2026-05-02T14:32:12.003Z</time></trkpt><trkpt lat="43.45451009169767" lon="11.35428773480422"><ele>337.75</ele><time>2026-05-02T14:32:13.003Z</time></trkpt><trkpt lat="43.45463000806684" lon="11.354208443615544"><ele>339.5</ele><time>2026-05-02T14:32:14.003Z</time></trkpt><trkpt lat="43.45474803212287" lon="11.354123745611725"><ele>341.25</ele><time>2026-05-02T14:32:15.003Z</time></trkpt><trkpt lat="43.454851017418626" lon="11.354057077655694"><ele>343.0</ele><time>2026-05-02T14:32:16.003Z</time></trkpt><trkpt lat="43.45496440000729" lon="11.354007594303749"><ele>343.0</ele><time>2026-05-02T14:32:17.003Z</time></trkpt><trkpt lat="43.455069074780276" lon="11.35397564322626"><ele>343.0</ele><time>2026-05-02T14:32:18.003Z</time></trkpt><trkpt lat="43.455162969534896" lon="11.35395558800091"><ele>343.0</ele><time>2026-05-02T14:32:19.003Z</time></trkpt><trkpt lat="43.45525620762425" lon="11.353934347840035"><ele>343.0</ele><time>2026-05-02T14:32:20.003Z</time></trkpt><trkpt lat="43.45533331351898" lon="11.353912167430318"><ele>343.0</ele><time>2026-05-02T14:32:21.003Z</time></trkpt><trkpt lat="43.45540121049628" lon="11.353901723864935"><ele>343.0</ele><time>2026-05-02T14:32:22.003Z</time></trkpt><trkpt lat="43.4554890341456" lon="11.353903883674505"><ele>343.5</ele><time>2026-05-02T14:32:23.003Z</time></trkpt><trkpt lat="43.4555930900597" lon="11.353931109687755"><ele>344.0</ele><time>2026-05-02T14:32:24.003Z</time></trkpt><trkpt lat="43.45569298094202" lon="11.353978054918866"><ele>344.5</ele><time>2026-05-02T14:32:25.003Z</time></trkpt><trkpt lat="43.455808096209736" lon="11.35402995513435"><ele>345.0</ele><time>2026-05-02T14:32:26.003Z</time></trkpt><trkpt lat="43.45593467809127" lon="11.354076376083269"><ele>345.0</ele><time>2026-05-02T14:32:27.003Z</time></trkpt><trkpt lat="43.45607260758151" lon="11.354121114094504"><ele>345.0</ele><time>2026-05-02T14:32:28.003Z</time></trkpt><trkpt lat="43.45621217244649" lon="11.354159105291945"><ele>345.0</ele><time>2026-05-02T14:32:29Z</time></trkpt><trkpt lat="43.456355298221105" lon="11.354188326211464"><ele>345.0</ele><time>2026-05-02T14:32:30Z</time></trkpt><trkpt lat="43.45650939696456" lon="11.354202722670454"><ele>345.3333333333333</ele><time>2026-05-02T14:32:31Z</time></trkpt><trkpt lat="43.4566692719476" lon="11.35422211501048"><ele>345.66666666666663</ele><time>2026-05-02T14:32:32Z</time></trkpt><trkpt lat="43.45683008585269" lon="11.354254828839276"><ele>346.0</ele><time>2026-05-02T14:32:33Z</time></trkpt><trkpt lat="43.45695968371288" lon="11.35429529399396"><ele>346.0</ele><time>2026-05-02T14:32:34Z</time></trkpt><trkpt lat="43.457064604499394" lon="11.354325107488302"><ele>346.0</ele><time>2026-05-02T14:32:35Z</time></trkpt><trkpt lat="43.457175395866614" lon="11.354363603992596"><ele>346.0</ele><time>2026-05-02T14:32:36Z</time></trkpt><trkpt lat="43.45731823688242" lon="11.35443722846957"><ele>346.0</ele><time>2026-05-02T14:32:37Z</time></trkpt><trkpt lat="43.45748690822627" lon="11.354539200564561"><ele>349.0</ele><time>2026-05-02T14:32:38Z</time></trkpt><trkpt lat="43.45764174024317" lon="11.354618722305405"><ele>352.0</ele><time>2026-05-02T14:32:39Z</time></trkpt><trkpt lat="43.45779413782879" lon="11.354660119247503"><ele>355.0</ele><time>2026-05-02T14:32:40Z</time></trkpt><trkpt lat="43.457922247513665" lon="11.35469407794916"><ele>354.0</ele><time>2026-05-02T14:32:41Z</time></trkpt><trkpt lat="43.45801912099916" lon="11.3547254000874"><ele>353.0</ele><time>2026-05-02T14:32:42Z</time></trkpt><trkpt lat="43.45809462086307" lon="11.35476379905048"><ele>352.0</ele><time>2026-05-02T14:32:43Z</time></trkpt><trkpt lat="43.45818188459289" lon="11.354819111801893"><ele>351.0</ele><time>2026-05-02T14:32:44Z</time></trkpt><trkpt lat="43.45830644689018" lon="11.35491519027384"><ele>350.0</ele><time>2026-05-02T14:32:45Z</time></trkpt><trkpt lat="43.458446528230404" lon="11.355055766172159"><ele>350.0</ele><time>2026-05-02T14:32:46Z</time></trkpt><trkpt lat="43.45859056675446" lon="11.355188629904987"><ele>350.0</ele><time>2026-05-02T14:32:47Z</time></trkpt><trkpt lat="43.45871634885344" lon="11.355292206071354"><ele>350.0</ele><time>2026-05-02T14:32:48Z</time></trkpt><trkpt lat="43.458828830522144" lon="11.355366572627148"><ele>350.0</ele><time>2026-05-02T14:32:49Z</time></trkpt><trkpt lat="43.458943500915936" lon="11.355419565421514"><ele>349.6666666666667</ele><time>2026-05-02T14:32:50Z</time></trkpt><trkpt lat="43.45907819542704" lon="11.35546829115208"><ele>349.3333333333333</ele><time>2026-05-02T14:32:51Z</time></trkpt><trkpt lat="43.45923533047125" lon="11.355505465316691"><ele>349.0</ele><time>2026-05-02T14:32:52Z</time></trkpt><trkpt lat="43.459386125519615" lon="11.35553730848013"><ele>349.0</ele><time>2026-05-02T14:32:53Z</time></trkpt><trkpt lat="43.45952210084431" lon="11.35556047578748"><ele>349.0</ele><time>2026-05-02T14:32:54Z</time></trkpt><trkpt lat="43.45964022785085" lon="11.355582098269005"><ele>349.0</ele><time>2026-05-02T14:32:55Z</time></trkpt><trkpt lat="43.45975065246532" lon="11.355593709769614"><ele>349.0</ele><time>2026-05-02T14:32:56Z</time></trkpt><trkpt lat="43.45988578295056" lon="11.355577857488765"><ele>349.5</ele><time>2026-05-02T14:32:57Z</time></trkpt><trkpt lat="43.45999831251015" lon="11.355560484503455"><ele>350.0</ele><time>2026-05-02T14:32:58Z</time></trkpt><trkpt lat="43.460118785135585" lon="11.355511425397177"><ele>350.5</ele><time>2026-05-02T14:32:59Z</time></trkpt><trkpt lat="43.460233118211455" lon="11.355492887496155"><ele>351.0</ele><time>2026-05-02T14:33:00.001Z</time></trkpt><trkpt lat="43.46035696654313" lon="11.355512941720603"><ele>351.75</ele><time>2026-05-02T14:33:01.001Z</time></trkpt><trkpt lat="43.460493492905705" lon="11.35556420984971"><ele>352.5</ele><time>2026-05-02T14:33:02.001Z</time></trkpt><trkpt lat="43.4606217518029" lon="11.355607111853116"><ele>353.25</ele><time>2026-05-02T14:33:03.001Z</time></trkpt><trkpt lat="43.46074726651013" lon="11.355621066752862"><ele>354.0</ele><time>2026-05-02T14:33:04.001Z</time></trkpt><trkpt lat="43.460869229531404" lon="11.35562906730549"><ele>354.0</ele><time>2026-05-02T14:33:05.001Z</time></trkpt><trkpt lat="43.46101821525748" lon="11.355596727403332"><ele>354.0</ele><time>2026-05-02T14:33:06.001Z</time></trkpt><trkpt lat="43.46116903685074" lon="11.355553918271465"><ele>354.0</ele><time>2026-05-02T14:33:07.001Z</time></trkpt><trkpt lat="43.46129543630629" lon="11.355529157108013"><ele>354.0</ele><time>2026-05-02T14:33:08.001Z</time></trkpt><trkpt lat="43.461398953640845" lon="11.355523510696473"><ele>354.5</ele><time>2026-05-02T14:33:09.001Z</time></trkpt><trkpt lat="43.46148495085147" lon="11.355543318157158"><ele>355.0</ele><time>2026-05-02T14:33:10.001Z</time></trkpt><trkpt lat="43.46158420548781" lon="11.355592595451814"><ele>355.5</ele><time>2026-05-02T14:33:11.001Z</time></trkpt><trkpt lat="43.4617079338811" lon="11.35568633872929"><ele>356.0</ele><time>2026-05-02T14:33:12.001Z</time></trkpt><trkpt lat="43.46185168320112" lon="11.355812343189042"><ele>356.0</ele><time>2026-05-02T14:33:13.001Z</time></trkpt><trkpt lat="43.462008851414716" lon="11.355952761682568"><ele>356.0</ele><time>2026-05-02T14:33:14.001Z</time></trkpt><trkpt lat="43.46217104058031" lon="11.356104169436385"><ele>356.0</ele><time>2026-05-02T14:33:15.001Z</time></trkpt><trkpt lat="43.4623208467124" lon="11.356251446889477"><ele>355.6666666666667</ele><time>2026-05-02T14:33:16.001Z</time></trkpt><trkpt lat="43.462466735741835" lon="11.356389713136705"><ele>355.3333333333333</ele><time>2026-05-02T14:33:17.001Z</time></trkpt><trkpt lat="43.462606071092715" lon="11.356506338019003"><ele>355.0</ele><time>2026-05-02T14:33:18.001Z</time></trkpt><trkpt lat="43.46273789069622" lon="11.356631735601125"><ele>355.0</ele><time>2026-05-02T14:33:19.001Z</time></trkpt><trkpt lat="43.4628581189159" lon="11.356750110888214"><ele>355.0</ele><time>2026-05-02T14:33:20.001Z</time></trkpt><trkpt lat="43.462964546831536" lon="11.356858612947878"><ele>355.0</ele><time>2026-05-02T14:33:21.001Z</time></trkpt><trkpt lat="43.463046762897505" lon="11.356946008857946"><ele>355.0</ele><time>2026-05-02T14:33:22.001Z</time></trkpt><trkpt lat="43.46311582250729" lon="11.356995859619184"><ele>357.6</ele><time>2026-05-02T14:33:23.001Z</time></trkpt><trkpt lat="43.46318151606593" lon="11.357030913134508"><ele>360.2</ele><time>2026-05-02T14:33:24.001Z</time></trkpt><trkpt lat="43.46327689539903" lon="11.357022392327684"><ele>362.79999999999995</ele><time>2026-05-02T14:33:25.001Z</time></trkpt><trkpt lat="43.46339453760636" lon="11.357011041760648"><ele>365.4</ele><time>2026-05-02T14:33:26.001Z</time></trkpt><trkpt lat="43.463495734912584" lon="11.35702554009349"><ele>368.0</ele><time>2026-05-02T14:33:27.001Z</time></trkpt><trkpt lat="43.46358423249401" lon="11.357062147417723"><ele>368.0</ele><time>2026-05-02T14:33:28.001Z</time></trkpt><trkpt lat="43.46366834545358" lon="11.357090786385413"><ele>368.0</ele><time>2026-05-02T14:33:29.001Z</time></trkpt><trkpt lat="43.46374149381591" lon="11.357101656374752"><ele>368.0</ele><time>2026-05-02T14:33:30.001Z</time></trkpt><trkpt lat="43.46381969054927" lon="11.357097084015017"><ele>368.0</ele><time>2026-05-02T14:33:31.001Z</time></trkpt><trkpt lat="43.46393036010776" lon="11.35712206575751"><ele>368.0</ele><time>2026-05-02T14:33:32.001Z</time></trkpt><trkpt lat="43.46403894003999" lon="11.357179436128744"><ele>367.2</ele><time>2026-05-02T14:33:33.001Z</time></trkpt><trkpt lat="43.464138485308936" lon="11.357260518500388"><ele>366.4</ele><time>2026-05-02T14:33:34.002Z</time></trkpt><trkpt lat="43.46422708728024" lon="11.357340115755123"><ele>365.59999999999997</ele><time>2026-05-02T14:33:35.002Z</time></trkpt><trkpt lat="43.46431096170485" lon="11.35741546829028"><ele>364.79999999999995</ele><time>2026-05-02T14:33:36.002Z</time></trkpt><trkpt lat="43.46439988206837" lon="11.357499384670291"><ele>364.0</ele><time>2026-05-02T14:33:37.002Z</time></trkpt><trkpt lat="43.46449031607793" lon="11.357607263367537"><ele>364.0</ele><time>2026-05-02T14:33:38.002Z</time></trkpt><trkpt lat="43.46456698382049" lon="11.357723989932431"><ele>364.0</ele><time>2026-05-02T14:33:39.002Z</time></trkpt><trkpt lat="43.464634966312296" lon="11.357856434724914"><ele>364.0</ele><time>2026-05-02T14:33:40.002Z</time></trkpt><trkpt lat="43.46470468687399" lon="11.358003378636981"><ele>364.0</ele><time>2026-05-02T14:33:41.002Z</time></trkpt><trkpt lat="43.46476518146177" lon="11.358176064936062"><ele>365.66666666666663</ele><time>2026-05-02T14:33:42.002Z</time></trkpt><trkpt lat="43.46482082052498" lon="11.358368641611507"><ele>367.3333333333333</ele><time>2026-05-02T14:33:43.002Z</time></trkpt><trkpt lat="43.464868922737445" lon="11.358578526920837"><ele>369.0</ele><time>2026-05-02T14:33:44.002Z</time></trkpt><trkpt lat="43.464915335510405" lon="11.358812906138711"><ele>368.0</ele><time>2026-05-02T14:33:45.002Z</time></trkpt><trkpt lat="43.46494552775298" lon="11.359031932367206"><ele>367.0</ele><time>2026-05-02T14:33:46.002Z</time></trkpt><trkpt lat="43.46496716724789" lon="11.35921426724334"><ele>366.0</ele><time>2026-05-02T14:33:47.002Z</time></trkpt><trkpt lat="43.46499500396949" lon="11.359371433006114"><ele>365.0</ele><time>2026-05-02T14:33:48.002Z</time></trkpt><trkpt lat="43.465035033167354" lon="11.359528874989905"><ele>364.6</ele><time>2026-05-02T14:33:49.002Z</time></trkpt><trkpt lat="43.4650698295893" lon="11.359707076307988"><ele>364.2</ele><time>2026-05-02T14:33:50.002Z</time></trkpt><trkpt lat="43.4651379393657" lon="11.359856129642482"><ele>363.79999999999995</ele><time>2026-05-02T14:33:51.002Z</time></trkpt><trkpt lat="43.465190898561396" lon="11.35997994470245"><ele>363.4</ele><time>2026-05-02T14:33:52.002Z</time></trkpt><trkpt lat="43.46524182146657" lon="11.360070546799543"><ele>363.0</ele><time>2026-05-02T14:33:53.002Z</time></trkpt><trkpt lat="43.46530909984256" lon="11.360162398200734"><ele>363.0</ele><time>2026-05-02T14:33:54.002Z</time></trkpt><trkpt lat="43.465401321179485" lon="11.360260533954811"><ele>363.0</ele><time>2026-05-02T14:33:55.002Z</time></trkpt><trkpt lat="43.46549386824887" lon="11.360380966552329"><ele>363.0</ele><time>2026-05-02T14:33:56.002Z</time></trkpt><trkpt lat="43.465568591774755" lon="11.360523931578765"><ele>363.0</ele><time>2026-05-02T14:33:57.002Z</time></trkpt><trkpt lat="43.46561638851259" lon="11.360650897806263"><ele>364.75</ele><time>2026-05-02T14:33:58.002Z</time></trkpt><trkpt lat="43.465681979200575" lon="11.360771194374719"><ele>366.5</ele><time>2026-05-02T14:33:59.002Z</time></trkpt><trkpt lat="43.46575615072519" lon="11.360883266029825"><ele>368.25</ele><time>2026-05-02T14:34:00.002Z</time></trkpt><trkpt lat="43.4658598345761" lon="11.360977173329003"><ele>370.0</ele><time>2026-05-02T14:34:01.002Z</time></trkpt><trkpt lat="43.46596536647833" lon="11.361059855766861"><ele>370.0</ele><time>2026-05-02T14:34:02.002Z</time></trkpt><trkpt lat="43.46605015499795" lon="11.361111856543252"><ele>370.0</ele><time>2026-05-02T14:34:03.002Z</time></trkpt><trkpt lat="43.46611545532606" lon="11.361190291519517"><ele>370.0</ele><time>2026-05-02T14:34:04.002Z</time></trkpt><trkpt lat="43.466167830264986" lon="11.361289408937719"><ele>370.0</ele><time>2026-05-02T14:34:05.002Z</time></trkpt><trkpt lat="43.466214028979486" lon="11.361434504187994"><ele>370.0</ele><time>2026-05-02T14:34:06.002Z</time></trkpt><trkpt lat="43.46626646182985" lon="11.361633923073299"><ele>369.75</ele><time>2026-05-02T14:34:07.003Z</time></trkpt><trkpt lat="43.46631319869099" lon="11.361839886611255"><ele>369.5</ele><time>2026-05-02T14:34:08.003Z</time></trkpt><trkpt lat="43.466360358897056" lon="11.362022209489085"><ele>369.25</ele><time>2026-05-02T14:34:09.003Z</time></trkpt><trkpt lat="43.46641724317615" lon="11.362193562803611"><ele>369.0</ele><time>2026-05-02T14:34:10.003Z</time></trkpt><trkpt lat="43.46648899098193" lon="11.362355268314799"><ele>369.0</ele><time>2026-05-02T14:34:11.003Z</time></trkpt><trkpt lat="43.466566520827364" lon="11.362508519623734"><ele>369.0</ele><time>2026-05-02T14:34:12.003Z</time></trkpt><trkpt lat="43.46664005549436" lon="11.362635509058165"><ele>369.0</ele><time>2026-05-02T14:34:13.003Z</time></trkpt><trkpt lat="43.4667056327794" lon="11.362739677391183"><ele>369.0</ele><time>2026-05-02T14:34:14.003Z</time></trkpt><trkpt lat="43.46677223874079" lon="11.362837650175377"><ele>369.0</ele><time>2026-05-02T14:34:15.003Z</time></trkpt><trkpt lat="43.46682890682387" lon="11.362947239493009"><ele>369.0</ele><time>2026-05-02T14:34:16.003Z</time></trkpt><trkpt lat="43.466858335770276" lon="11.363066731383784"><ele>369.0</ele><time>2026-05-02T14:34:17.003Z</time></trkpt><trkpt lat="43.46685398389515" lon="11.363201599651132"><ele>369.0</ele><time>2026-05-02T14:34:18.003Z</time></trkpt><trkpt lat="43.46682968508427" lon="11.363343820708568"><ele>369.0</ele><time>2026-05-02T14:34:19.003Z</time></trkpt><trkpt lat="43.46678641309643" lon="11.363526452691747"><ele>369.0</ele><time>2026-05-02T14:34:20.003Z</time></trkpt><trkpt lat="43.46673176697318" lon="11.363740845618329"><ele>369.0</ele><time>2026-05-02T14:34:21.003Z</time></trkpt><trkpt lat="43.46666970819337" lon="11.363980967366604"><ele>369.0</ele><time>2026-05-02T14:34:22.003Z</time></trkpt><trkpt lat="43.46661321966083" lon="11.364213205778594"><ele>369.0</ele><time>2026-05-02T14:34:23.003Z</time></trkpt><trkpt lat="43.46655896699226" lon="11.364444457498417"><ele>369.0</ele><time>2026-05-02T14:34:24.003Z</time></trkpt><trkpt lat="43.46649886778889" lon="11.364719309957067"><ele>369.0</ele><time>2026-05-02T14:34:25.003Z</time></trkpt><trkpt lat="43.466437337011136" lon="11.36501159275914"><ele>369.5</ele><time>2026-05-02T14:34:26.003Z</time></trkpt><trkpt lat="43.4663691275615" lon="11.365328622837323"><ele>370.0</ele><time>2026-05-02T14:34:27.003Z</time></trkpt><trkpt lat="43.4662983142743" lon="11.36565771609337"><ele>369.66666666666663</ele><time>2026-05-02T14:34:28.003Z</time></trkpt><trkpt lat="43.46623232515456" lon="11.365958035070378"><ele>369.3333333333333</ele><time>2026-05-02T14:34:29.003Z</time></trkpt><trkpt lat="43.4661713526348" lon="11.366246499145586"><ele>369.0</ele><time>2026-05-02T14:34:30.003Z</time></trkpt><trkpt lat="43.46611493978222" lon="11.366519748330768"><ele>369.0</ele><time>2026-05-02T14:34:31.003Z</time></trkpt><trkpt lat="43.46605869673037" lon="11.366776028128857"><ele>369.0</ele><time>2026-05-02T14:34:32.003Z</time></trkpt><trkpt lat="43.465999833503986" lon="11.367038721874527"><ele>369.0</ele><time>2026-05-02T14:34:33.003Z</time></trkpt><trkpt lat="43.465947620706324" lon="11.36728008585998"><ele>369.6666666666667</ele><time>2026-05-02T14:34:34.003Z</time></trkpt><trkpt lat="43.46590274953079" lon="11.367497674522188"><ele>370.33333333333337</ele><time>2026-05-02T14:34:35Z</time></trkpt><trkpt lat="43.46586036505698" lon="11.367721156016392"><ele>371.0</ele><time>2026-05-02T14:34:36Z</time></trkpt><trkpt lat="43.46581985617143" lon="11.367901852737448"><ele>371.6</ele><time>2026-05-02T14:34:37Z</time></trkpt><trkpt lat="43.46578872428914" lon="11.368062389213087"><ele>372.20000000000005</ele><time>2026-05-02T14:34:38Z</time></trkpt><trkpt lat="43.46576640163306" lon="11.36820205758259"><ele>372.79999999999995</ele><time>2026-05-02T14:34:39Z</time></trkpt><trkpt lat="43.465749673372244" lon="11.368338520042633"><ele>373.4</ele><time>2026-05-02T14:34:40Z</time></trkpt><trkpt lat="43.46574107989403" lon="11.36847330473088"><ele>374.0</ele><time>2026-05-02T14:34:41Z</time></trkpt><trkpt lat="43.46574242237539" lon="11.368619526495984"><ele>374.0</ele><time>2026-05-02T14:34:42Z</time></trkpt><trkpt lat="43.46576218965199" lon="11.368780519009796"><ele>374.0</ele><time>2026-05-02T14:34:43Z</time></trkpt><trkpt lat="43.465797277009074" lon="11.368945727840881"><ele>374.0</ele><time>2026-05-02T14:34:44Z</time></trkpt><trkpt lat="43.465846158267226" lon="11.369133240673236"><ele>374.0</ele><time>2026-05-02T14:34:45Z</time></trkpt><trkpt lat="43.46590391748998" lon="11.369350869047635"><ele>374.0</ele><time>2026-05-02T14:34:46Z</time></trkpt><trkpt lat="43.46596450977465" lon="11.36958387444289"><ele>374.0</ele><time>2026-05-02T14:34:47Z</time></trkpt><trkpt lat="43.46603063434359" lon="11.36981659232845"><ele>374.0</ele><time>2026-05-02T14:34:48Z</time></trkpt><trkpt lat="43.46610945822968" lon="11.370031809579618"><ele>374.6666666666667</ele><time>2026-05-02T14:34:49Z</time></trkpt><trkpt lat="43.466200800076486" lon="11.370229654398065"><ele>375.3333333333333</ele><time>2026-05-02T14:34:50Z</time></trkpt><trkpt lat="43.46630467854357" lon="11.370432376887601"><ele>376.0</ele><time>2026-05-02T14:34:51Z</time></trkpt><trkpt lat="43.466413086928114" lon="11.370634143118941"><ele>377.0</ele><time>2026-05-02T14:34:52Z</time></trkpt><trkpt lat="43.46651871489297" lon="11.370812582482406"><ele>378.0</ele><time>2026-05-02T14:34:53Z</time></trkpt><trkpt lat="43.466618471767916" lon="11.370969737203357"><ele>379.0</ele><time>2026-05-02T14:34:54Z</time></trkpt><trkpt lat="43.46671503770216" lon="11.371112088976133"><ele>379.0</ele><time>2026-05-02T14:34:55Z</time></trkpt><trkpt lat="43.46681289774148" lon="11.371232249374946"><ele>379.0</ele><time>2026-05-02T14:34:56Z</time></trkpt><trkpt lat="43.46692479070412" lon="11.371325260064756"><ele>379.0</ele><time>2026-05-02T14:34:57Z</time></trkpt><trkpt lat="43.4670666166775" lon="11.371412698330499"><ele>379.0</ele><time>2026-05-02T14:34:58Z</time></trkpt><trkpt lat="43.46721629360782" lon="11.371494698995265"><ele>379.25</ele><time>2026-05-02T14:34:59Z</time></trkpt><trkpt lat="43.46733002006864" lon="11.371579910633145"><ele>379.5</ele><time>2026-05-02T14:35:00Z</time></trkpt><trkpt lat="43.46742272831567" lon="11.37167899445641"><ele>379.75</ele><time>2026-05-02T14:35:01Z</time></trkpt><trkpt lat="43.46750319080185" lon="11.371790096541371"><ele>380.0</ele><time>2026-05-02T14:35:02Z</time></trkpt><trkpt lat="43.4675758119792" lon="11.371925274474197"><ele>380.0</ele><time>2026-05-02T14:35:03Z</time></trkpt><trkpt lat="43.46764872141567" lon="11.372104446712074"><ele>380.0</ele><time>2026-05-02T14:35:04.001Z</time></trkpt><trkpt lat="43.46772481037277" lon="11.372313332084621"><ele>380.0</ele><time>2026-05-02T14:35:05.001Z</time></trkpt><trkpt lat="43.46778256336107" lon="11.372495999525858"><ele>379.4</ele><time>2026-05-02T14:35:06.001Z</time></trkpt><trkpt lat="43.467829248923266" lon="11.372663478811054"><ele>378.8</ele><time>2026-05-02T14:35:07.001Z</time></trkpt><trkpt lat="43.46785854125383" lon="11.372810433001073"><ele>378.20000000000005</ele><time>2026-05-02T14:35:08.001Z</time></trkpt><trkpt lat="43.467874526227966" lon="11.372937974531217"><ele>377.6</ele><time>2026-05-02T14:35:09.001Z</time></trkpt><trkpt lat="43.467880267372536" lon="11.373049924191553"><ele>377.0</ele><time>2026-05-02T14:35:10.001Z</time></trkpt><trkpt lat="43.467877857165284" lon="11.373179150361485"><ele>378.5</ele><time>2026-05-02T14:35:12.001Z</time></trkpt><trkpt lat="43.4679452785535" lon="11.373295407718354"><ele>380.0</ele><time>2026-05-02T14:35:15.001Z</time></trkpt><trkpt lat="43.46804692077506" lon="11.37334716365175"><ele>381.5</ele><time>2026-05-02T14:35:16.001Z</time></trkpt><trkpt lat="43.46817410773454" lon="11.373397779877331"><ele>383.0</ele><time>2026-05-02T14:35:17.001Z</time></trkpt><trkpt lat="43.46832405688496" lon="11.373450732882448"><ele>383.0</ele><time>2026-05-02T14:35:18.001Z</time></trkpt><trkpt lat="43.46845044128738" lon="11.373520653792019"><ele>383.0</ele><time>2026-05-02T14:35:19.001Z</time></trkpt><trkpt lat="43.46855695028722" lon="11.373615786380919"><ele>383.0</ele><time>2026-05-02T14:35:20.001Z</time></trkpt><trkpt lat="43.46866247095333" lon="11.373775405534687"><ele>383.0</ele><time>2026-05-02T14:35:21.001Z</time></trkpt><trkpt lat="43.4687670702862" lon="11.373944067690363"><ele>383.5</ele><time>2026-05-02T14:35:22.001Z</time></trkpt><trkpt lat="43.46885060550791" lon="11.374080942955315"><ele>384.0</ele><time>2026-05-02T14:35:23.001Z</time></trkpt><trkpt lat="43.468950473403446" lon="11.374172439648587"><ele>384.5</ele><time>2026-05-02T14:35:24.001Z</time></trkpt><trkpt lat="43.46908087399964" lon="11.374240572927109"><ele>385.0</ele><time>2026-05-02T14:35:25.001Z</time></trkpt><trkpt lat="43.46923338454757" lon="11.374274184282656"><ele>385.0</ele><time>2026-05-02T14:35:26.001Z</time></trkpt><trkpt lat="43.46942059868483" lon="11.374274237313353"><ele>385.0</ele><time>2026-05-02T14:35:27.001Z</time></trkpt><trkpt lat="43.46963567662919" lon="11.374263202999378"><ele>385.0</ele><time>2026-05-02T14:35:28.001Z</time></trkpt><trkpt lat="43.46987045343828" lon="11.37426165713317"><ele>388.5</ele><time>2026-05-02T14:35:29.001Z</time></trkpt><trkpt lat="43.470108865881876" lon="11.374271992445522"><ele>392.0</ele><time>2026-05-02T14:35:30.001Z</time></trkpt><trkpt lat="43.470356263318735" lon="11.374292092930745"><ele>393.0</ele><time>2026-05-02T14:35:31.001Z</time></trkpt><trkpt lat="43.47058441693121" lon="11.374306009328777"><ele>394.0</ele><time>2026-05-02T14:35:32.001Z</time></trkpt><trkpt lat="43.470778247537616" lon="11.374303845439734"><ele>395.0</ele><time>2026-05-02T14:35:33.001Z</time></trkpt><trkpt lat="43.47096184551764" lon="11.37428386569189"><ele>395.0</ele><time>2026-05-02T14:35:34.001Z</time></trkpt><trkpt lat="43.47115298828057" lon="11.37424110985754"><ele>395.0</ele><time>2026-05-02T14:35:35.001Z</time></trkpt><trkpt lat="43.471367586859024" lon="11.37416919619382"><ele>395.0</ele><time>2026-05-02T14:35:36.001Z</time></trkpt><trkpt lat="43.471596108367216" lon="11.37408929869914"><ele>395.66666666666663</ele><time>2026-05-02T14:35:37.001Z</time></trkpt><trkpt lat="43.47180476773833" lon="11.374025041698415"><ele>396.33333333333337</ele><time>2026-05-02T14:35:38.001Z</time></trkpt><trkpt lat="43.471984324186536" lon="11.373978452784813"><ele>397.0</ele><time>2026-05-02T14:35:39.001Z</time></trkpt><trkpt lat="43.47214833895484" lon="11.373942860030901"><ele>398.5</ele><time>2026-05-02T14:35:40.001Z</time></trkpt><trkpt lat="43.47229839016491" lon="11.37392365608041"><ele>400.0</ele><time>2026-05-02T14:35:41.002Z</time></trkpt><trkpt lat="43.47243696373421" lon="11.373927074443628"><ele>401.5</ele><time>2026-05-02T14:35:42.002Z</time></trkpt><trkpt lat="43.47256031869605" lon="11.373967913351995"><ele>403.0</ele><time>2026-05-02T14:35:43.002Z</time></trkpt><trkpt lat="43.47268574389683" lon="11.374040356430783"><ele>403.0</ele><time>2026-05-02T14:35:44.002Z</time></trkpt><trkpt lat="43.47280556171723" lon="11.374123852058357"><ele>403.0</ele><time>2026-05-02T14:35:45.002Z</time></trkpt><trkpt lat="43.47290674822728" lon="11.37419479180634"><ele>403.0</ele><time>2026-05-02T14:35:46.002Z</time></trkpt><trkpt lat="43.472995379287035" lon="11.374254235324221"><ele>403.0</ele><time>2026-05-02T14:35:47.002Z</time></trkpt><trkpt lat="43.47308323506788" lon="11.374304933383108"><ele>403.0</ele><time>2026-05-02T14:35:48.002Z</time></trkpt><trkpt lat="43.47317484134412" lon="11.374353831860702"><ele>404.83333333333337</ele><time>2026-05-02T14:35:49.002Z</time></trkpt><trkpt lat="43.47326725830515" lon="11.374388541082048"><ele>406.6666666666667</ele><time>2026-05-02T14:35:50.002Z</time></trkpt><trkpt lat="43.47334974990914" lon="11.374407977881633"><ele>408.5</ele><time>2026-05-02T14:35:51.002Z</time></trkpt><trkpt lat="43.47343084900705" lon="11.37441447971644"><ele>410.33333333333337</ele><time>2026-05-02T14:35:52.002Z</time></trkpt><trkpt lat="43.473520661973836" lon="11.374407165234693"><ele>412.1666666666667</ele><time>2026-05-02T14:35:53.002Z</time></trkpt><trkpt lat="43.473601535469925" lon="11.374381243320208"><ele>414.0</ele><time>2026-05-02T14:35:54.002Z</time></trkpt><trkpt lat="43.47367388885122" lon="11.374334161526082"><ele>414.0</ele><time>2026-05-02T14:35:55.002Z</time></trkpt><trkpt lat="43.473746015893674" lon="11.374272550728874"><ele>414.0</ele><time>2026-05-02T14:35:56.002Z</time></trkpt><trkpt lat="43.47381237094369" lon="11.374197479137845"><ele>414.0</ele><time>2026-05-02T14:35:57.002Z</time></trkpt><trkpt lat="43.47386174328702" lon="11.374103913639335"><ele>414.0</ele><time>2026-05-02T14:35:58.002Z</time></trkpt><trkpt lat="43.473897979062414" lon="11.374015875406203"><ele>414.0</ele><time>2026-05-02T14:35:59.002Z</time></trkpt><trkpt lat="43.47393680817825" lon="11.37393599068313"><ele>414.0</ele><time>2026-05-02T14:36:00.002Z</time></trkpt><trkpt lat="43.47398170987953" lon="11.373854858992054"><ele>416.5</ele><time>2026-05-02T14:36:01.002Z</time></trkpt><trkpt lat="43.474035692742376" lon="11.37377022901619"><ele>419.0</ele><time>2026-05-02T14:36:02.002Z</time></trkpt><trkpt lat="43.47410269573572" lon="11.373685275202384"><ele>421.5</ele><time>2026-05-02T14:36:03.002Z</time></trkpt><trkpt lat="43.47417754507687" lon="11.373625705577842"><ele>424.0</ele><time>2026-05-02T14:36:04.002Z</time></trkpt><trkpt lat="43.474253511802694" lon="11.373577430867156"><ele>426.5</ele><time>2026-05-02T14:36:05.002Z</time></trkpt><trkpt lat="43.47432274150226" lon="11.37353784624146"><ele>429.0</ele><time>2026-05-02T14:36:06.002Z</time></trkpt><trkpt lat="43.474388170828064" lon="11.373530815275679"><ele>429.0</ele><time>2026-05-02T14:36:07.002Z</time></trkpt><trkpt lat="43.47445238686358" lon="11.373537704932861"><ele>429.0</ele><time>2026-05-02T14:36:08.002Z</time></trkpt><trkpt lat="43.47452502816471" lon="11.373574906892149"><ele>429.0</ele><time>2026-05-02T14:36:09.002Z</time></trkpt><trkpt lat="43.4745980622088" lon="11.373635820896068"><ele>429.0</ele><time>2026-05-02T14:36:10.002Z</time></trkpt><trkpt lat="43.4746542630214" lon="11.373718219553515"><ele>429.0</ele><time>2026-05-02T14:36:11.002Z</time></trkpt><trkpt lat="43.474707709915464" lon="11.373803521383529"><ele>429.0</ele><time>2026-05-02T14:36:12.002Z</time></trkpt><trkpt lat="43.47476180030647" lon="11.373868010607092"><ele>426.75</ele><time>2026-05-02T14:36:13.002Z</time></trkpt><trkpt lat="43.474833015579655" lon="11.373909490684836"><ele>424.5</ele><time>2026-05-02T14:36:14.002Z</time></trkpt><trkpt lat="43.47493325348632" lon="11.373928762227786"><ele>422.25</ele><time>2026-05-02T14:36:15.002Z</time></trkpt><trkpt lat="43.47507729334568" lon="11.373911103196223"><ele>420.0</ele><time>2026-05-02T14:36:16.003Z</time></trkpt><trkpt lat="43.47525846166373" lon="11.373879452170875"><ele>422.0</ele><time>2026-05-02T14:36:17.003Z</time></trkpt><trkpt lat="43.475467162910846" lon="11.373856036727355"><ele>424.0</ele><time>2026-05-02T14:36:18.003Z</time></trkpt><trkpt lat="43.475688224753995" lon="11.373841761513761"><ele>426.0</ele><time>2026-05-02T14:36:19.003Z</time></trkpt><trkpt lat="43.475887502837224" lon="11.373814322098896"><ele>428.66666666666663</ele><time>2026-05-02T14:36:20.003Z</time></trkpt><trkpt lat="43.476058560444216" lon="11.373791797859825"><ele>431.3333333333333</ele><time>2026-05-02T14:36:21.003Z</time></trkpt><trkpt lat="43.47621522843085" lon="11.37377211345899"><ele>434.0</ele><time>2026-05-02T14:36:22.003Z</time></trkpt><trkpt lat="43.47633740335372" lon="11.37375658514332"><ele>434.0</ele><time>2026-05-02T14:36:23.003Z</time></trkpt><trkpt lat="43.47643545166257" lon="11.373727645732052"><ele>434.0</ele><time>2026-05-02T14:36:24.003Z</time></trkpt><trkpt lat="43.47650185039317" lon="11.373658183240508"><ele>434.0</ele><time>2026-05-02T14:36:25.003Z</time></trkpt><trkpt lat="43.47655233374885" lon="11.373549883580905"><ele>434.0</ele><time>2026-05-02T14:36:26.003Z</time></trkpt><trkpt lat="43.476584548378185" lon="11.373371192264253"><ele>434.0</ele><time>2026-05-02T14:36:27.003Z</time></trkpt><trkpt lat="43.47660985883196" lon="11.373155431891046"><ele>438.0</ele><time>2026-05-02T14:36:28.003Z</time></trkpt><trkpt lat="43.476631377625154" lon="11.372910027623538"><ele>442.0</ele><time>2026-05-02T14:36:29.003Z</time></trkpt><trkpt lat="43.47666137790033" lon="11.372627159469646"><ele>446.0</ele><time>2026-05-02T14:36:30.003Z</time></trkpt><trkpt lat="43.47668652494504" lon="11.372364961597103"><ele>448.25</ele><time>2026-05-02T14:36:31.003Z</time></trkpt><trkpt lat="43.47671606042867" lon="11.372160720701899"><ele>450.5</ele><time>2026-05-02T14:36:32.003Z</time></trkpt><trkpt lat="43.476749199828646" lon="11.372012161662084"><ele>452.75</ele><time>2026-05-02T14:36:33.003Z</time></trkpt><trkpt lat="43.47681098521423" lon="11.371895601701429"><ele>455.0</ele><time>2026-05-02T14:36:34.003Z</time></trkpt><trkpt lat="43.476910365381826" lon="11.371813159903983"><ele>455.0</ele><time>2026-05-02T14:36:35.003Z</time></trkpt><trkpt lat="43.47703524980334" lon="11.371787318621047"><ele>455.0</ele><time>2026-05-02T14:36:36.003Z</time></trkpt><trkpt lat="43.477179972905375" lon="11.371809372122424"><ele>455.0</ele><time>2026-05-02T14:36:37.003Z</time></trkpt><trkpt lat="43.47733321916252" lon="11.371882612581684"><ele>455.0</ele><time>2026-05-02T14:36:38.003Z</time></trkpt><trkpt lat="43.477492931219096" lon="11.371975580310659"><ele>454.66666666666663</ele><time>2026-05-02T14:36:39.003Z</time></trkpt><trkpt lat="43.47765657078819" lon="11.372026678956033"><ele>454.33333333333337</ele><time>2026-05-02T14:36:40.003Z</time></trkpt><trkpt lat="43.477830132889366" lon="11.37201163538323"><ele>454.0</ele><time>2026-05-02T14:36:41Z</time></trkpt><trkpt lat="43.47796702076179" lon="11.371970257096036"><ele>454.0</ele><time>2026-05-02T14:36:42Z</time></trkpt><trkpt lat="43.47807374861496" lon="11.371898231464243"><ele>454.0</ele><time>2026-05-02T14:36:43Z</time></trkpt><trkpt lat="43.47817486167566" lon="11.37177560227299"><ele>454.0</ele><time>2026-05-02T14:36:44Z</time></trkpt><trkpt lat="43.47825226348182" lon="11.371621334376023"><ele>454.0</ele><time>2026-05-02T14:36:45Z</time></trkpt><trkpt lat="43.4782857729678" lon="11.371457387194265"><ele>457.0</ele><time>2026-05-02T14:36:46Z</time></trkpt><trkpt lat="43.478268512206924" lon="11.371268172833691"><ele>460.0</ele><time>2026-05-02T14:36:47Z</time></trkpt><trkpt lat="43.478216380795054" lon="11.371053111358542"><ele>463.0</ele><time>2026-05-02T14:36:48Z</time></trkpt><trkpt lat="43.47813765570632" lon="11.370811209814255"><ele>463.0</ele><time>2026-05-02T14:36:49Z</time></trkpt><trkpt lat="43.47805687267673" lon="11.370548630679409"><ele>463.0</ele><time>2026-05-02T14:36:50Z</time></trkpt><trkpt lat="43.47799093638121" lon="11.370303810792594"><ele>463.0</ele><time>2026-05-02T14:36:51Z</time></trkpt><trkpt lat="43.47795779466249" lon="11.370122769531449"><ele>464.59999999999997</ele><time>2026-05-02T14:36:52Z</time></trkpt><trkpt lat="43.477958992289274" lon="11.36997293021118"><ele>466.19999999999993</ele><time>2026-05-02T14:36:53Z</time></trkpt><trkpt lat="43.4779992758246" lon="11.3698512268159"><ele>467.8</ele><time>2026-05-02T14:36:54Z</time></trkpt><trkpt lat="43.47807766702173" lon="11.369777998016303"><ele>469.4</ele><time>2026-05-02T14:36:55Z</time></trkpt><trkpt lat="43.478185964339595" lon="11.369746321623701"><ele>471.0</ele><time>2026-05-02T14:36:56Z</time></trkpt><trkpt lat="43.478306716488675" lon="11.369753212682081"><ele>471.0</ele><time>2026-05-02T14:36:57Z</time></trkpt><trkpt lat="43.47843926264214" lon="11.36981135395242"><ele>471.0</ele><time>2026-05-02T14:36:58Z</time></trkpt><trkpt lat="43.47859154749848" lon="11.36983333963981"><ele>471.0</ele><time>2026-05-02T14:36:59Z</time></trkpt><trkpt lat="43.478729411092345" lon="11.369771797657846"><ele>471.0</ele><time>2026-05-02T14:37:00Z</time></trkpt><trkpt lat="43.47884885080993" lon="11.369655885879329"><ele>474.33333333333337</ele><time>2026-05-02T14:37:01Z</time></trkpt><trkpt lat="43.478966526135395" lon="11.369470584190067"><ele>477.6666666666667</ele><time>2026-05-02T14:37:02Z</time></trkpt><trkpt lat="43.4790967632912" lon="11.369253979077035"><ele>481.0</ele><time>2026-05-02T14:37:03Z</time></trkpt><trkpt lat="43.479244666850384" lon="11.369015665061958"><ele>488.0</ele><time>2026-05-02T14:37:04Z</time></trkpt><trkpt lat="43.47940271128321" lon="11.368782173885405"><ele>495.0</ele><time>2026-05-02T14:37:05Z</time></trkpt><trkpt lat="43.479575568418426" lon="11.368546981854443"><ele>488.5</ele><time>2026-05-02T14:37:06Z</time></trkpt><trkpt lat="43.479749451768804" lon="11.368304335588215"><ele>482.0</ele><time>2026-05-02T14:37:07Z</time></trkpt><trkpt lat="43.479900952105446" lon="11.36808437189855"><ele>486.66666666666663</ele><time>2026-05-02T14:37:08Z</time></trkpt><trkpt lat="43.48003753385085" lon="11.3678846827727"><ele>491.33333333333337</ele><time>2026-05-02T14:37:09Z</time></trkpt><trkpt lat="43.48014880387389" lon="11.367738059081448"><ele>496.0</ele><time>2026-05-02T14:37:10Z</time></trkpt><trkpt lat="43.48024335509629" lon="11.367649091372382"><ele>496.0</ele><time>2026-05-02T14:37:11Z</time></trkpt><trkpt lat="43.48034980975141" lon="11.367605121253261"><ele>496.0</ele><time>2026-05-02T14:37:12.001Z</time></trkpt><trkpt lat="43.48045930686767" lon="11.367646971025827"><ele>496.0</ele><time>2026-05-02T14:37:13.001Z</time></trkpt><trkpt lat="43.48055461859783" lon="11.367733881257683"><ele>496.0</ele><time>2026-05-02T14:37:14.001Z</time></trkpt><trkpt lat="43.480658064929194" lon="11.36777177031184"><ele>496.0</ele><time>2026-05-02T14:37:15.001Z</time></trkpt><trkpt lat="43.48075625829934" lon="11.367743016987475"><ele>494.0</ele><time>2026-05-02T14:37:16.001Z</time></trkpt><trkpt lat="43.480858567937275" lon="11.367626868219036"><ele>492.0</ele><time>2026-05-02T14:37:17.001Z</time></trkpt><trkpt lat="43.48095136968346" lon="11.367449514583189"><ele>490.0</ele><time>2026-05-02T14:37:18.001Z</time></trkpt><trkpt lat="43.481046403593474" lon="11.367246950513014"><ele>492.0</ele><time>2026-05-02T14:37:19.001Z</time></trkpt><trkpt lat="43.48117834972559" lon="11.367128885354957"><ele>494.0</ele><time>2026-05-02T14:37:20.001Z</time></trkpt><trkpt lat="43.481336384695396" lon="11.367097181142858"><ele>496.0</ele><time>2026-05-02T14:37:21.001Z</time></trkpt><trkpt lat="43.48150806330108" lon="11.367107597423567"><ele>496.0</ele><time>2026-05-02T14:37:22.001Z</time></trkpt><trkpt lat="43.481661660424095" lon="11.36712450598615"><ele>496.0</ele><time>2026-05-02T14:37:23.001Z</time></trkpt><trkpt lat="43.481803290632406" lon="11.367069888936939"><ele>496.0</ele><time>2026-05-02T14:37:24.001Z</time></trkpt><trkpt lat="43.48193754011253" lon="11.366941454130853"><ele>496.0</ele><time>2026-05-02T14:37:25.001Z</time></trkpt><trkpt lat="43.48205369547915" lon="11.366758010610312"><ele>496.0</ele><time>2026-05-02T14:37:26.001Z</time></trkpt><trkpt lat="43.48214865371014" lon="11.366568210677613"><ele>496.0</ele><time>2026-05-02T14:37:27.001Z</time></trkpt><trkpt lat="43.48224630094722" lon="11.36643770995656"><ele>495.0</ele><time>2026-05-02T14:37:28.001Z</time></trkpt><trkpt lat="43.48236273823122" lon="11.366366150557608"><ele>494.0</ele><time>2026-05-02T14:37:29.001Z</time></trkpt><trkpt lat="43.48248818791927" lon="11.366358923988757"><ele>493.0</ele><time>2026-05-02T14:37:30.001Z</time></trkpt><trkpt lat="43.4826568486926" lon="11.366406324590196"><ele>492.0</ele><time>2026-05-02T14:37:31.001Z</time></trkpt><trkpt lat="43.48284292912773" lon="11.366473060261164"><ele>492.25</ele><time>2026-05-02T14:37:32.001Z</time></trkpt><trkpt lat="43.48299106562328" lon="11.366520052040656"><ele>492.5</ele><time>2026-05-02T14:37:33.001Z</time></trkpt><trkpt lat="43.48310249159384" lon="11.366519652369156"><ele>492.75</ele><time>2026-05-02T14:37:34.001Z</time></trkpt><trkpt lat="43.48321707916256" lon="11.36645997362964"><ele>493.0</ele><time>2026-05-02T14:37:35.001Z</time></trkpt><trkpt lat="43.48334945524642" lon="11.366347797628729"><ele>497.6666666666667</ele><time>2026-05-02T14:37:36.001Z</time></trkpt><trkpt lat="43.48349452953651" lon="11.366179659618835"><ele>502.33333333333337</ele><time>2026-05-02T14:37:37.001Z</time></trkpt><trkpt lat="43.48361275388282" lon="11.365992119101179"><ele>507.0</ele><time>2026-05-02T14:37:38.001Z</time></trkpt><trkpt lat="43.483712275998954" lon="11.365824925778275"><ele>507.5</ele><time>2026-05-02T14:37:39.001Z</time></trkpt><trkpt lat="43.48380066825446" lon="11.365692817860042"><ele>508.0</ele><time>2026-05-02T14:37:40.001Z</time></trkpt><trkpt lat="43.48386921577853" lon="11.365617818024369"><ele>508.5</ele><time>2026-05-02T14:37:41.001Z</time></trkpt><trkpt lat="43.483929117257865" lon="11.365570818818552"><ele>509.0</ele><time>2026-05-02T14:37:42.001Z</time></trkpt><trkpt lat="43.4839868765078" lon="11.365535645934196"><ele>509.5</ele><time>2026-05-02T14:37:44.001Z</time></trkpt><trkpt lat="43.48404996178008" lon="11.365500490674169"><ele>510.0</ele><time>2026-05-02T14:38:04.002Z</time></trkpt><trkpt lat="43.48412467427012" lon="11.365522962590111"><ele>508.2</ele><time>2026-05-02T14:38:05.002Z</time></trkpt><trkpt lat="43.48420630001719" lon="11.365584995302404"><ele>506.4</ele><time>2026-05-02T14:38:06.002Z</time></trkpt><trkpt lat="43.48428474007422" lon="11.365657226774871"><ele>504.6</ele><time>2026-05-02T14:38:07.002Z</time></trkpt><trkpt lat="43.48435683815274" lon="11.365744619438582"><ele>502.8</ele><time>2026-05-02T14:38:08.002Z</time></trkpt><trkpt lat="43.484398211187546" lon="11.365843827193236"><ele>501.0</ele><time>2026-05-02T14:38:09.002Z</time></trkpt><trkpt lat="43.48441824487697" lon="11.365970650544526"><ele>501.0</ele><time>2026-05-02T14:38:10.002Z</time></trkpt><trkpt lat="43.48439280114475" lon="11.366118713019898"><ele>501.0</ele><time>2026-05-02T14:38:11.002Z</time></trkpt><trkpt lat="43.484365858709104" lon="11.366297825212527"><ele>501.0</ele><time>2026-05-02T14:38:12.002Z</time></trkpt><trkpt lat="43.484358035857575" lon="11.366462784927453"><ele>501.0</ele><time>2026-05-02T14:38:13.002Z</time></trkpt><trkpt lat="43.48434273966369" lon="11.366611655496277"><ele>499.5</ele><time>2026-05-02T14:38:14.002Z</time></trkpt><trkpt lat="43.48435540935923" lon="11.366765802865872"><ele>498.0</ele><time>2026-05-02T14:38:15.002Z</time></trkpt><trkpt lat="43.48439050317998" lon="11.366935647239812"><ele>496.5</ele><time>2026-05-02T14:38:16.002Z</time></trkpt><trkpt lat="43.484446548951645" lon="11.367112635109232"><ele>495.0</ele><time>2026-05-02T14:38:17.002Z</time></trkpt><trkpt lat="43.48449868888168" lon="11.367298858694154"><ele>494.66666666666663</ele><time>2026-05-02T14:38:18.002Z</time></trkpt><trkpt lat="43.484553188951644" lon="11.367508638745036"><ele>494.3333333333333</ele><time>2026-05-02T14:38:19.002Z</time></trkpt><trkpt lat="43.48460565073274" lon="11.367762117488512"><ele>494.0</ele><time>2026-05-02T14:38:20.002Z</time></trkpt><trkpt lat="43.4846306194139" lon="11.368046059937416"><ele>496.66666666666663</ele><time>2026-05-02T14:38:21.002Z</time></trkpt><trkpt lat="43.48466900377242" lon="11.368346769493304"><ele>499.33333333333337</ele><time>2026-05-02T14:38:22.002Z</time></trkpt><trkpt lat="43.48471702172621" lon="11.368645542740824"><ele>502.0</ele><time>2026-05-02T14:38:23.002Z</time></trkpt><trkpt lat="43.484748385212676" lon="11.368913844941906"><ele>503.25</ele><time>2026-05-02T14:38:24.003Z</time></trkpt><trkpt lat="43.484783543744555" lon="11.369131341604426"><ele>504.5</ele><time>2026-05-02T14:38:25.003Z</time></trkpt><trkpt lat="43.48482909173252" lon="11.369310662488873"><ele>505.75</ele><time>2026-05-02T14:38:26.003Z</time></trkpt><trkpt lat="43.48491323023239" lon="11.369481226537383"><ele>507.0</ele><time>2026-05-02T14:38:27.003Z</time></trkpt><trkpt lat="43.485039662279576" lon="11.369650458443367"><ele>508.66666666666663</ele><time>2026-05-02T14:38:28.003Z</time></trkpt><trkpt lat="43.485188665615325" lon="11.369777910142219"><ele>510.3333333333333</ele><time>2026-05-02T14:38:29.003Z</time></trkpt><trkpt lat="43.48534443627785" lon="11.369877614127066"><ele>512.0</ele><time>2026-05-02T14:38:30.003Z</time></trkpt><trkpt lat="43.48550257878278" lon="11.369914313429712"><ele>512.0</ele><time>2026-05-02T14:38:31.003Z</time></trkpt><trkpt lat="43.485645026985104" lon="11.369934198560545"><ele>512.0</ele><time>2026-05-02T14:38:32.003Z</time></trkpt><trkpt lat="43.485760834703434" lon="11.369999037452152"><ele>512.0</ele><time>2026-05-02T14:38:33.003Z</time></trkpt><trkpt lat="43.48583816951534" lon="11.370121488087547"><ele>512.0</ele><time>2026-05-02T14:38:34.003Z</time></trkpt><trkpt lat="43.48590860381116" lon="11.370270163474123"><ele>512.0</ele><time>2026-05-02T14:38:35.003Z</time></trkpt><trkpt lat="43.48597084865165" lon="11.370428601335536"><ele>512.0</ele><time>2026-05-02T14:38:36.003Z</time></trkpt><trkpt lat="43.486029001702114" lon="11.370597224103705"><ele>512.0</ele><time>2026-05-02T14:38:37.003Z</time></trkpt><trkpt lat="43.48607525474964" lon="11.370747530847844"><ele>512.0</ele><time>2026-05-02T14:38:38.003Z</time></trkpt><trkpt lat="43.486114336418325" lon="11.370876809650778"><ele>513.4</ele><time>2026-05-02T14:38:39.003Z</time></trkpt><trkpt lat="43.48617877554023" lon="11.37099600621603"><ele>514.8000000000001</ele><time>2026-05-02T14:38:40.003Z</time></trkpt><trkpt lat="43.486219906206635" lon="11.371142955631056"><ele>516.2</ele><time>2026-05-02T14:38:41.003Z</time></trkpt><trkpt lat="43.48625408334485" lon="11.371298486350454"><ele>517.6</ele><time>2026-05-02T14:38:42.003Z</time></trkpt><trkpt lat="43.48627173512024" lon="11.37143979030102"><ele>519.0</ele><time>2026-05-02T14:38:43.003Z</time></trkpt><trkpt lat="43.4862609547886" lon="11.371563555679359"><ele>518.4285714285714</ele><time>2026-05-02T14:38:44.003Z</time></trkpt><trkpt lat="43.48627346196295" lon="11.371660473856322"><ele>517.8571428571428</ele><time>2026-05-02T14:38:45.003Z</time></trkpt><trkpt lat="43.48628476960587" lon="11.37175362245328"><ele>517.2857142857142</ele><time>2026-05-02T14:38:46.003Z</time></trkpt><trkpt lat="43.486309686340995" lon="11.371844757055584"><ele>516.7142857142857</ele><time>2026-05-02T14:38:47Z</time></trkpt><trkpt lat="43.48631563687604" lon="11.37194114226047"><ele>516.1428571428571</ele><time>2026-05-02T14:38:48Z</time></trkpt><trkpt lat="43.48632468259619" lon="11.372035617382648"><ele>515.5714285714286</ele><time>2026-05-02T14:38:49Z</time></trkpt><trkpt lat="43.4863398056195" lon="11.372129182561757"><ele>515.0</ele><time>2026-05-02T14:38:50Z</time></trkpt><trkpt lat="43.486334745365305" lon="11.372228291385483"><ele>515.0</ele><time>2026-05-02T14:38:51Z</time></trkpt><trkpt lat="43.48636338924767" lon="11.372358692466975"><ele>515.0</ele><time>2026-05-02T14:38:53Z</time></trkpt><trkpt lat="43.48637254473795" lon="11.37246179285926"><ele>515.0</ele><time>2026-05-02T14:38:55Z</time></trkpt><trkpt lat="43.48637481888089" lon="11.3725594266573"><ele>515.0</ele><time>2026-05-02T14:38:57Z</time></trkpt><trkpt lat="43.4863874394713" lon="11.372671931442182"><ele>515.0</ele><time>2026-05-02T14:38:59Z</time></trkpt><trkpt lat="43.486402489375216" lon="11.372808505980474"><ele>515.0</ele><time>2026-05-02T14:39:01Z</time></trkpt><trkpt lat="43.4864108342721" lon="11.372970913339673"><ele>517.5</ele><time>2026-05-02T14:39:03Z</time></trkpt><trkpt lat="43.48640799416815" lon="11.373070563392307"><ele>520.0</ele><time>2026-05-02T14:39:04Z</time></trkpt><trkpt lat="43.48640067175791" lon="11.373162680453989"><ele>522.5</ele><time>2026-05-02T14:39:05Z</time></trkpt><trkpt lat="43.48638376229459" lon="11.373300654714038"><ele>525.0</ele><time>2026-05-02T14:39:07Z</time></trkpt><trkpt lat="43.48635048003246" lon="11.373451841931873"><ele>527.5</ele><time>2026-05-02T14:39:09Z</time></trkpt><trkpt lat="43.48630277412984" lon="11.373536628782167"><ele>530.0</ele><time>2026-05-02T14:39:10Z</time></trkpt><trkpt lat="43.48627836171276" lon="11.373660562351242"><ele>528.5</ele><time>2026-05-02T14:39:11Z</time></trkpt><trkpt lat="43.486243716299455" lon="11.373783653414588"><ele>527.0</ele><time>2026-05-02T14:39:12Z</time></trkpt><trkpt lat="43.48619629403229" lon="11.373903807977618"><ele>525.5</ele><time>2026-05-02T14:39:13Z</time></trkpt><trkpt lat="43.48618140802658" lon="11.37402529171543"><ele>524.0</ele><time>2026-05-02T14:39:14Z</time></trkpt><trkpt lat="43.486142783359035" lon="11.374126949838939"><ele>522.5</ele><time>2026-05-02T14:39:15Z</time></trkpt><trkpt lat="43.48612643899421" lon="11.374217832663101"><ele>521.0</ele><time>2026-05-02T14:39:16Z</time></trkpt><trkpt lat="43.48611345508833" lon="11.374353521935191"><ele>521.0</ele><time>2026-05-02T14:39:18Z</time></trkpt><trkpt lat="43.48611756934355" lon="11.374457998178725"><ele>521.0</ele><time>2026-05-02T14:39:20Z</time></trkpt><trkpt lat="43.48615606563799" lon="11.37461312575342"><ele>521.0</ele><time>2026-05-02T14:39:22.001Z</time></trkpt><trkpt lat="43.486228828446826" lon="11.374748423773065"><ele>521.0</ele><time>2026-05-02T14:39:24.001Z</time></trkpt><trkpt lat="43.48627095622868" lon="11.374821263494436"><ele>521.0</ele><time>2026-05-02T14:39:25.001Z</time></trkpt><trkpt lat="43.48633611607999" lon="11.374896902859534"><ele>522.8333333333333</ele><time>2026-05-02T14:39:26.001Z</time></trkpt><trkpt lat="43.486392635528844" lon="11.374989592868195"><ele>524.6666666666666</ele><time>2026-05-02T14:39:27.001Z</time></trkpt><trkpt lat="43.4864342052849" lon="11.375090960434429"><ele>526.5</ele><time>2026-05-02T14:39:28.001Z</time></trkpt><trkpt lat="43.48648435240524" lon="11.37517354585794"><ele>528.3333333333334</ele><time>2026-05-02T14:39:29.001Z</time></trkpt><trkpt lat="43.486531857200966" lon="11.375251779734262"><ele>530.1666666666667</ele><time>2026-05-02T14:39:30.001Z</time></trkpt><trkpt lat="43.486610566699305" lon="11.375348503120454"><ele>532.0</ele><time>2026-05-02T14:39:32.001Z</time></trkpt><trkpt lat="43.4866519486139" lon="11.375422434048106"><ele>530.3333333333334</ele><time>2026-05-02T14:39:35.001Z</time></trkpt><trkpt lat="43.486694610780425" lon="11.375520429980174"><ele>528.6666666666667</ele><time>2026-05-02T14:39:40.001Z</time></trkpt><trkpt lat="43.486735989465" lon="11.375589023109637"><ele>527.0</ele><time>2026-05-02T14:39:42.001Z</time></trkpt><trkpt lat="43.48678152246785" lon="11.375664502814676"><ele>525.3333333333334</ele><time>2026-05-02T14:39:44.001Z</time></trkpt><trkpt lat="43.486835177064876" lon="11.375757885985738"><ele>523.6666666666666</ele><time>2026-05-02T14:39:47.001Z</time></trkpt><trkpt lat="43.48687877431058" lon="11.37585452669631"><ele>522.0</ele><time>2026-05-02T14:39:49.001Z</time></trkpt><trkpt lat="43.486906535712315" lon="11.376026026134713"><ele>522.0</ele><time>2026-05-02T14:39:51.001Z</time></trkpt><trkpt lat="43.48690625004207" lon="11.37614247739236"><ele>522.0</ele><time>2026-05-02T14:39:52.001Z</time></trkpt><trkpt lat="43.48689475544949" lon="11.37629366759397"><ele>522.0</ele><time>2026-05-02T14:39:53.001Z</time></trkpt><trkpt lat="43.486881611759785" lon="11.376480237589059"><ele>522.0</ele><time>2026-05-02T14:39:54.001Z</time></trkpt><trkpt lat="43.48686754515183" lon="11.376674523562855"><ele>520.25</ele><time>2026-05-02T14:39:55.001Z</time></trkpt><trkpt lat="43.48685392463091" lon="11.376865117521008"><ele>518.5</ele><time>2026-05-02T14:39:56.001Z</time></trkpt><trkpt lat="43.48685510295678" lon="11.377042234273482"><ele>516.75</ele><time>2026-05-02T14:39:57.001Z</time></trkpt><trkpt lat="43.48684186839215" lon="11.377211354867892"><ele>515.0</ele><time>2026-05-02T14:39:58.002Z</time></trkpt><trkpt lat="43.48682756968891" lon="11.37736970249642"><ele>515.0</ele><time>2026-05-02T14:39:59.002Z</time></trkpt><trkpt lat="43.48681710396426" lon="11.377515437501886"><ele>515.0</ele><time>2026-05-02T14:40:00.002Z</time></trkpt><trkpt lat="43.48681054335507" lon="11.377657873029046"><ele>515.0</ele><time>2026-05-02T14:40:01.002Z</time></trkpt><trkpt lat="43.48680127674704" lon="11.377807957725533"><ele>515.0</ele><time>2026-05-02T14:40:02.002Z</time></trkpt><trkpt lat="43.48681406349293" lon="11.377964611091043"><ele>515.0</ele><time>2026-05-02T14:40:03.002Z</time></trkpt><trkpt lat="43.48683682222841" lon="11.378108910464956"><ele>515.8</ele><time>2026-05-02T14:40:04.002Z</time></trkpt><trkpt lat="43.48687197984582" lon="11.378244018077377"><ele>516.6</ele><time>2026-05-02T14:40:05.002Z</time></trkpt><trkpt lat="43.48691526286869" lon="11.37837508735335"><ele>517.4</ele><time>2026-05-02T14:40:06.002Z</time></trkpt><trkpt lat="43.486967397417104" lon="11.378497208285284"><ele>518.2</ele><time>2026-05-02T14:40:07.002Z</time></trkpt><trkpt lat="43.48703178655074" lon="11.37862389625557"><ele>519.0</ele><time>2026-05-02T14:40:08.002Z</time></trkpt><trkpt lat="43.48710124057424" lon="11.378753512062739"><ele>516.4</ele><time>2026-05-02T14:40:09.002Z</time></trkpt><trkpt lat="43.48717019797054" lon="11.378877990100323"><ele>513.8</ele><time>2026-05-02T14:40:10.002Z</time></trkpt><trkpt lat="43.487237871992825" lon="11.378999422323956"><ele>511.20000000000005</ele><time>2026-05-02T14:40:11.002Z</time></trkpt><trkpt lat="43.48730199759361" lon="11.379123693768992"><ele>508.6</ele><time>2026-05-02T14:40:12.002Z</time></trkpt><trkpt lat="43.48737037929497" lon="11.379236028385506"><ele>506.0</ele><time>2026-05-02T14:40:13.002Z</time></trkpt><trkpt lat="43.48744929566474" lon="11.379352740989848"><ele>506.0</ele><time>2026-05-02T14:40:14.002Z</time></trkpt><trkpt lat="43.48752387577207" lon="11.379449937654362"><ele>506.0</ele><time>2026-05-02T14:40:15.002Z</time></trkpt><trkpt lat="43.48759510029767" lon="11.379526855682885"><ele>506.0</ele><time>2026-05-02T14:40:16.002Z</time></trkpt><trkpt lat="43.48767195942373" lon="11.379607790469302"><ele>506.0</ele><time>2026-05-02T14:40:17.002Z</time></trkpt><trkpt lat="43.48774397416855" lon="11.37968789471728"><ele>506.0</ele><time>2026-05-02T14:40:18.002Z</time></trkpt><trkpt lat="43.487802157996796" lon="11.3797780156512"><ele>505.25</ele><time>2026-05-02T14:40:19.002Z</time></trkpt><trkpt lat="43.487820194774706" lon="11.379917329390082"><ele>504.5</ele><time>2026-05-02T14:40:20.002Z</time></trkpt><trkpt lat="43.48783599301111" lon="11.380086133590407"><ele>503.75</ele><time>2026-05-02T14:40:21.002Z</time></trkpt><trkpt lat="43.48786813611866" lon="11.380265851651316"><ele>503.0</ele><time>2026-05-02T14:40:22.002Z</time></trkpt><trkpt lat="43.48786844773109" lon="11.380455712185563"><ele>502.3333333333333</ele><time>2026-05-02T14:40:23.002Z</time></trkpt><trkpt lat="43.48790010486049" lon="11.38070858485065"><ele>501.66666666666663</ele><time>2026-05-02T14:40:24.002Z</time></trkpt><trkpt lat="43.48795368099101" lon="11.380985485625342"><ele>501.0</ele><time>2026-05-02T14:40:25.002Z</time></trkpt><trkpt lat="43.48800881252031" lon="11.381220652330999"><ele>496.0</ele><time>2026-05-02T14:40:26.002Z</time></trkpt><trkpt lat="43.488077215656105" lon="11.381437773651056"><ele>491.0</ele><time>2026-05-02T14:40:27.002Z</time></trkpt><trkpt lat="43.488162840702195" lon="11.381648166845284"><ele>486.0</ele><time>2026-05-02T14:40:28.002Z</time></trkpt><trkpt lat="43.48825278095563" lon="11.381883003608877"><ele>486.0</ele><time>2026-05-02T14:40:29.002Z</time></trkpt><trkpt lat="43.488352554886966" lon="11.38210303417947"><ele>486.0</ele><time>2026-05-02T14:40:30.002Z</time></trkpt><trkpt lat="43.48845319404681" lon="11.382300364894355"><ele>486.0</ele><time>2026-05-02T14:40:31.002Z</time></trkpt><trkpt lat="43.48857215734027" lon="11.382461536887863"><ele>484.0</ele><time>2026-05-02T14:40:32.002Z</time></trkpt><trkpt lat="43.48869857023434" lon="11.382616869216665"><ele>482.0</ele><time>2026-05-02T14:40:33.003Z</time></trkpt><trkpt lat="43.4888680552181" lon="11.382783263486276"><ele>480.0</ele><time>2026-05-02T14:40:34.003Z</time></trkpt><trkpt lat="43.48907083316764" lon="11.382953478042646"><ele>475.0</ele><time>2026-05-02T14:40:35.003Z</time></trkpt><trkpt lat="43.489276868720445" lon="11.383177633032545"><ele>470.0</ele><time>2026-05-02T14:40:36.003Z</time></trkpt><trkpt lat="43.4894637292658" lon="11.383377842311786"><ele>467.66666666666663</ele><time>2026-05-02T14:40:37.003Z</time></trkpt><trkpt lat="43.48961558216613" lon="11.383540909962633"><ele>465.33333333333337</ele><time>2026-05-02T14:40:38.003Z</time></trkpt><trkpt lat="43.489751513204595" lon="11.383688585866064"><ele>463.0</ele><time>2026-05-02T14:40:39.003Z</time></trkpt><trkpt lat="43.489858377036086" lon="11.383823870379437"><ele>463.0</ele><time>2026-05-02T14:40:40.003Z</time></trkpt><trkpt lat="43.48993757612204" lon="11.383965574721346"><ele>463.0</ele><time>2026-05-02T14:40:41.003Z</time></trkpt><trkpt lat="43.489992763223256" lon="11.384120737604437"><ele>463.0</ele><time>2026-05-02T14:40:42.003Z</time></trkpt><trkpt lat="43.490020439587816" lon="11.384308301772597"><ele>463.0</ele><time>2026-05-02T14:40:43.003Z</time></trkpt><trkpt lat="43.49004523394525" lon="11.384551135256352"><ele>461.75</ele><time>2026-05-02T14:40:44.003Z</time></trkpt><trkpt lat="43.49009645264176" lon="11.384774395918976"><ele>460.5</ele><time>2026-05-02T14:40:45.003Z</time></trkpt><trkpt lat="43.49016004379449" lon="11.38494259772997"><ele>459.25</ele><time>2026-05-02T14:40:46.003Z</time></trkpt><trkpt lat="43.49023929110232" lon="11.385051054617321"><ele>458.0</ele><time>2026-05-02T14:40:47.003Z</time></trkpt><trkpt lat="43.49029975553844" lon="11.385166846485486"><ele>458.0</ele><time>2026-05-02T14:40:48.003Z</time></trkpt><trkpt lat="43.49032196542942" lon="11.385338571632344"><ele>458.0</ele><time>2026-05-02T14:40:49.003Z</time></trkpt><trkpt lat="43.49032375932842" lon="11.385568935365315"><ele>458.0</ele><time>2026-05-02T14:40:50.003Z</time></trkpt><trkpt lat="43.490312734141504" lon="11.38578682380195"><ele>458.25</ele><time>2026-05-02T14:40:51.003Z</time></trkpt><trkpt lat="43.49028767916433" lon="11.385972976591406"><ele>458.5</ele><time>2026-05-02T14:40:52.003Z</time></trkpt><trkpt lat="43.49020944992046" lon="11.386108746767942"><ele>458.75</ele><time>2026-05-02T14:40:52.999Z</time></trkpt><trkpt lat="43.49013415523869" lon="11.38622856307356"><ele>459.0</ele><time>2026-05-02T14:40:53.999Z</time></trkpt><trkpt lat="43.49004772065798" lon="11.386288335659613"><ele>459.0</ele><time>2026-05-02T14:40:54.999Z</time></trkpt><trkpt lat="43.48998027089425" lon="11.386319923384812"><ele>459.0</ele><time>2026-05-02T14:40:55.999Z</time></trkpt><trkpt lat="43.48985950445999" lon="11.386280307869585"><ele>459.0</ele><time>2026-05-02T14:40:58.999Z</time></trkpt><trkpt lat="43.4897850344584" lon="11.386184931221571"><ele>459.0</ele><time>2026-05-02T14:41:00.999Z</time></trkpt><trkpt lat="43.48970488380301" lon="11.38620417485462"><ele>459.0</ele><time>2026-05-02T14:41:02.999Z</time></trkpt><trkpt lat="43.48966346489398" lon="11.386325754736252"><ele>459.6666666666667</ele><time>2026-05-02T14:41:04.999Z</time></trkpt><trkpt lat="43.48966179268852" lon="11.386422219116174"><ele>460.33333333333337</ele><time>2026-05-02T14:41:05.999Z</time></trkpt><trkpt lat="43.48964865914361" lon="11.386518622701447"><ele>461.0</ele><time>2026-05-02T14:41:06.999Z</time></trkpt><trkpt lat="43.489626335827865" lon="11.386619582108779"><ele>461.6666666666667</ele><time>2026-05-02T14:41:07.999Z</time></trkpt><trkpt lat="43.48959771932467" lon="11.38674941176148"><ele>462.33333333333337</ele><time>2026-05-02T14:41:08.999Z</time></trkpt><trkpt lat="43.48957110290494" lon="11.386918395551517"><ele>463.0</ele><time>2026-05-02T14:41:09.999Z</time></trkpt><trkpt lat="43.489553429670615" lon="11.387131280927747"><ele>458.0</ele><time>2026-05-02T14:41:10.999Z</time></trkpt><trkpt lat="43.489536465314686" lon="11.38737460264801"><ele>453.0</ele><time>2026-05-02T14:41:12Z</time></trkpt><trkpt lat="43.48951242081917" lon="11.3876402210986"><ele>448.0</ele><time>2026-05-02T14:41:13Z</time></trkpt><trkpt lat="43.48947982857937" lon="11.38789655599161"><ele>449.0</ele><time>2026-05-02T14:41:14Z</time></trkpt><trkpt lat="43.489447364904194" lon="11.388158326429803"><ele>450.0</ele><time>2026-05-02T14:41:15Z</time></trkpt><trkpt lat="43.48941836673056" lon="11.388396223445849"><ele>451.0</ele><time>2026-05-02T14:41:16Z</time></trkpt><trkpt lat="43.48939196824025" lon="11.388618759676982"><ele>451.0</ele><time>2026-05-02T14:41:17Z</time></trkpt><trkpt lat="43.4893524702113" lon="11.388816561148843"><ele>451.0</ele><time>2026-05-02T14:41:18Z</time></trkpt><trkpt lat="43.48930193177627" lon="11.388987888823278"><ele>451.0</ele><time>2026-05-02T14:41:19Z</time></trkpt><trkpt lat="43.48926073313825" lon="11.389140685208515"><ele>451.0</ele><time>2026-05-02T14:41:20Z</time></trkpt><trkpt lat="43.48925929246079" lon="11.389287255193276"><ele>451.5</ele><time>2026-05-02T14:41:21Z</time></trkpt><trkpt lat="43.48929902334449" lon="11.389455575428828"><ele>452.0</ele><time>2026-05-02T14:41:22Z</time></trkpt><trkpt lat="43.48936647640654" lon="11.389639140714255"><ele>452.5</ele><time>2026-05-02T14:41:23Z</time></trkpt><trkpt lat="43.48943999667199" lon="11.389815492958808"><ele>453.0</ele><time>2026-05-02T14:41:24Z</time></trkpt><trkpt lat="43.489506768080716" lon="11.389993121942148"><ele>453.0</ele><time>2026-05-02T14:41:25Z</time></trkpt><trkpt lat="43.48957400132578" lon="11.390188646467836"><ele>453.0</ele><time>2026-05-02T14:41:26Z</time></trkpt><trkpt lat="43.489643416625974" lon="11.390391434468059"><ele>453.0</ele><time>2026-05-02T14:41:27Z</time></trkpt><trkpt lat="43.489729420238675" lon="11.390610563849702"><ele>455.0</ele><time>2026-05-02T14:41:28Z</time></trkpt><trkpt lat="43.48983776032922" lon="11.390817316816417"><ele>457.0</ele><time>2026-05-02T14:41:29Z</time></trkpt><trkpt lat="43.48995951315439" lon="11.39100075479608"><ele>459.0</ele><time>2026-05-02T14:41:30Z</time></trkpt><trkpt lat="43.49007957694526" lon="11.39114561219682"><ele>459.0</ele><time>2026-05-02T14:41:31Z</time></trkpt><trkpt lat="43.49017386910927" lon="11.391292763232688"><ele>459.0</ele><time>2026-05-02T14:41:32Z</time></trkpt><trkpt lat="43.49022204841295" lon="11.391473524262015"><ele>459.0</ele><time>2026-05-02T14:41:33Z</time></trkpt><trkpt lat="43.4902291936458" lon="11.391701060286266"><ele>459.0</ele><time>2026-05-02T14:41:34Z</time></trkpt><trkpt lat="43.4901985756127" lon="11.391959078196235"><ele>458.33333333333337</ele><time>2026-05-02T14:41:35Z</time></trkpt><trkpt lat="43.49017512660796" lon="11.3921956882238"><ele>457.6666666666667</ele><time>2026-05-02T14:41:36Z</time></trkpt><trkpt lat="43.49019006338372" lon="11.392432396751719"><ele>457.0</ele><time>2026-05-02T14:41:37Z</time></trkpt><trkpt lat="43.4902465001765" lon="11.392697304102608"><ele>457.0</ele><time>2026-05-02T14:41:38.001Z</time></trkpt><trkpt lat="43.49033052521029" lon="11.392955024136162"><ele>457.0</ele><time>2026-05-02T14:41:39.001Z</time></trkpt><trkpt lat="43.49040393238552" lon="11.393176299390698"><ele>457.0</ele><time>2026-05-02T14:41:40.001Z</time></trkpt><trkpt lat="43.49043465738638" lon="11.393383057350613"><ele>458.0</ele><time>2026-05-02T14:41:41.001Z</time></trkpt><trkpt lat="43.490417083363035" lon="11.393581527035076"><ele>459.0</ele><time>2026-05-02T14:41:42.001Z</time></trkpt><trkpt lat="43.49035733927127" lon="11.393773733298405"><ele>460.0</ele><time>2026-05-02T14:41:43.001Z</time></trkpt><trkpt lat="43.49027479554518" lon="11.39396098687539"><ele>461.33333333333337</ele><time>2026-05-02T14:41:44.001Z</time></trkpt><trkpt lat="43.490176699886916" lon="11.39413975089731"><ele>462.66666666666663</ele><time>2026-05-02T14:41:45.001Z</time></trkpt><trkpt lat="43.49009671071345" lon="11.394349815871328"><ele>464.0</ele><time>2026-05-02T14:41:46.001Z</time></trkpt><trkpt lat="43.49006607203469" lon="11.394567460455942"><ele>465.66666666666663</ele><time>2026-05-02T14:41:47.001Z</time></trkpt><trkpt lat="43.49007009353152" lon="11.394829004250598"><ele>467.33333333333337</ele><time>2026-05-02T14:41:48.001Z</time></trkpt><trkpt lat="43.490092131158114" lon="11.39510810781534"><ele>469.0</ele><time>2026-05-02T14:41:49.001Z</time></trkpt><trkpt lat="43.490117274206455" lon="11.395367895363785"><ele>470.33333333333337</ele><time>2026-05-02T14:41:50.001Z</time></trkpt><trkpt lat="43.490118813285214" lon="11.395620926378317"><ele>471.66666666666663</ele><time>2026-05-02T14:41:51.001Z</time></trkpt><trkpt lat="43.49009550547121" lon="11.395860871031756"><ele>473.0</ele><time>2026-05-02T14:41:52.001Z</time></trkpt><trkpt lat="43.49006018693354" lon="11.396070130580313"><ele>473.0</ele><time>2026-05-02T14:41:53.001Z</time></trkpt><trkpt lat="43.49002076093031" lon="11.39625937219779"><ele>473.0</ele><time>2026-05-02T14:41:54.001Z</time></trkpt><trkpt lat="43.48997157331256" lon="11.396418195898056"><ele>473.0</ele><time>2026-05-02T14:41:55.001Z</time></trkpt><trkpt lat="43.48988904760384" lon="11.396553807329772"><ele>473.0</ele><time>2026-05-02T14:41:56.001Z</time></trkpt><trkpt lat="43.48976475599398" lon="11.396686699249512"><ele>473.0</ele><time>2026-05-02T14:41:57.001Z</time></trkpt><trkpt lat="43.48962496987137" lon="11.396849955927136"><ele>473.0</ele><time>2026-05-02T14:41:58.001Z</time></trkpt><trkpt lat="43.48952221672636" lon="11.397066549412681"><ele>473.0</ele><time>2026-05-02T14:41:59.001Z</time></trkpt><trkpt lat="43.489423291377136" lon="11.397320511190504"><ele>478.66666666666663</ele><time>2026-05-02T14:42:00.001Z</time></trkpt><trkpt lat="43.48932298148766" lon="11.397548200296342"><ele>484.33333333333337</ele><time>2026-05-02T14:42:01.001Z</time></trkpt><trkpt lat="43.48921759069299" lon="11.39777036890381"><ele>490.0</ele><time>2026-05-02T14:42:02.001Z</time></trkpt><trkpt lat="43.48911289725887" lon="11.397992417942628"><ele>488.0</ele><time>2026-05-02T14:42:03.001Z</time></trkpt><trkpt lat="43.48900702190189" lon="11.39821643289435"><ele>486.0</ele><time>2026-05-02T14:42:04.001Z</time></trkpt><trkpt lat="43.488894339765835" lon="11.398454996936664"><ele>484.0</ele><time>2026-05-02T14:42:05.001Z</time></trkpt><trkpt lat="43.488779968281605" lon="11.398697758829273"><ele>489.33333333333337</ele><time>2026-05-02T14:42:06.001Z</time></trkpt><trkpt lat="43.4886632971856" lon="11.398946640050061"><ele>494.66666666666663</ele><time>2026-05-02T14:42:07.001Z</time></trkpt><trkpt lat="43.48856231195001" lon="11.399167780814649"><ele>500.0</ele><time>2026-05-02T14:42:08.001Z</time></trkpt><trkpt lat="43.48847414323475" lon="11.399353429731331"><ele>500.0</ele><time>2026-05-02T14:42:09.001Z</time></trkpt><trkpt lat="43.48838447031587" lon="11.399515617614169"><ele>500.0</ele><time>2026-05-02T14:42:10.002Z</time></trkpt><trkpt lat="43.488278755204" lon="11.399634713601808"><ele>500.0</ele><time>2026-05-02T14:42:11.002Z</time></trkpt><trkpt lat="43.488147142053826" lon="11.399724979165036"><ele>500.0</ele><time>2026-05-02T14:42:12.002Z</time></trkpt><trkpt lat="43.48800115943728" lon="11.39975219980974"><ele>500.2</ele><time>2026-05-02T14:42:13.002Z</time></trkpt><trkpt lat="43.48787239371901" lon="11.399756323946383"><ele>500.4</ele><time>2026-05-02T14:42:14.002Z</time></trkpt><trkpt lat="43.487768296271994" lon="11.399735683897525"><ele>500.6</ele><time>2026-05-02T14:42:15.002Z</time></trkpt><trkpt lat="43.48769109147437" lon="11.399747212453272"><ele>500.8</ele><time>2026-05-02T14:42:16.002Z</time></trkpt><trkpt lat="43.487625721104784" lon="11.399807456121684"><ele>501.0</ele><time>2026-05-02T14:42:17.002Z</time></trkpt><trkpt lat="43.48757582413895" lon="11.399930355847033"><ele>501.0</ele><time>2026-05-02T14:42:18.002Z</time></trkpt><trkpt lat="43.4875537882963" lon="11.400097205289066"><ele>501.0</ele><time>2026-05-02T14:42:19.002Z</time></trkpt><trkpt lat="43.48756221254169" lon="11.400313348096926"><ele>501.0</ele><time>2026-05-02T14:42:20.002Z</time></trkpt><trkpt lat="43.48756332255959" lon="11.400542139951261"><ele>501.0</ele><time>2026-05-02T14:42:21.002Z</time></trkpt><trkpt lat="43.48754783466053" lon="11.400766212353272"><ele>501.8</ele><time>2026-05-02T14:42:22.002Z</time></trkpt><trkpt lat="43.48750963874196" lon="11.400938794356083"><ele>502.6</ele><time>2026-05-02T14:42:23.002Z</time></trkpt><trkpt lat="43.487469147853815" lon="11.401086682386167"><ele>503.4</ele><time>2026-05-02T14:42:24.002Z</time></trkpt><trkpt lat="43.487464659414286" lon="11.401190906667354"><ele>504.2</ele><time>2026-05-02T14:42:25.002Z</time></trkpt><trkpt lat="43.487496891307885" lon="11.401269986888328"><ele>505.0</ele><time>2026-05-02T14:42:26.002Z</time></trkpt><trkpt lat="43.48757405707934" lon="11.401295722087273"><ele>505.0</ele><time>2026-05-02T14:42:27.002Z</time></trkpt><trkpt lat="43.4876664411521" lon="11.401265798883832"><ele>505.0</ele><time>2026-05-02T14:42:28.002Z</time></trkpt><trkpt lat="43.487745693390856" lon="11.401153879521438"><ele>505.0</ele><time>2026-05-02T14:42:29.002Z</time></trkpt><trkpt lat="43.48782495190419" lon="11.400982727934403"><ele>505.0</ele><time>2026-05-02T14:42:30.002Z</time></trkpt><trkpt lat="43.487914100732375" lon="11.40080382463268"><ele>507.0</ele><time>2026-05-02T14:42:31.002Z</time></trkpt><trkpt lat="43.48801246483009" lon="11.400708863018261"><ele>509.0</ele><time>2026-05-02T14:42:32.002Z</time></trkpt><trkpt lat="43.48812303577831" lon="11.400692899585923"><ele>511.0</ele><time>2026-05-02T14:42:33.002Z</time></trkpt><trkpt lat="43.48825502412822" lon="11.400755080461877"><ele>513.0</ele><time>2026-05-02T14:42:34.002Z</time></trkpt><trkpt lat="43.4884141270749" lon="11.400860717890312"><ele>513.0</ele><time>2026-05-02T14:42:35.002Z</time></trkpt><trkpt lat="43.488588460896416" lon="11.401015320874585"><ele>513.0</ele><time>2026-05-02T14:42:36.002Z</time></trkpt><trkpt lat="43.48875102816106" lon="11.401163296834959"><ele>513.0</ele><time>2026-05-02T14:42:37.002Z</time></trkpt><trkpt lat="43.48886850418915" lon="11.401283327008269"><ele>512.75</ele><time>2026-05-02T14:42:38.002Z</time></trkpt><trkpt lat="43.48893388629006" lon="11.401406386165363"><ele>512.5</ele><time>2026-05-02T14:42:39.002Z</time></trkpt><trkpt lat="43.48895279174949" lon="11.401563059698063"><ele>512.25</ele><time>2026-05-02T14:42:40.002Z</time></trkpt><trkpt lat="43.488931318032094" lon="11.40175408936994"><ele>512.0</ele><time>2026-05-02T14:42:41.002Z</time></trkpt><trkpt lat="43.48887280826144" lon="11.40197334482422"><ele>512.3333333333333</ele><time>2026-05-02T14:42:42.003Z</time></trkpt><trkpt lat="43.48879687978426" lon="11.402210408493655"><ele>512.6666666666666</ele><time>2026-05-02T14:42:43.003Z</time></trkpt><trkpt lat="43.48875832929488" lon="11.40249488988088"><ele>513.0</ele><time>2026-05-02T14:42:44.003Z</time></trkpt><trkpt lat="43.488741299632686" lon="11.402807823201485"><ele>521.3333333333334</ele><time>2026-05-02T14:42:45.003Z</time></trkpt><trkpt lat="43.488740891228005" lon="11.403118703478425"><ele>529.6666666666667</ele><time>2026-05-02T14:42:46.003Z</time></trkpt><trkpt lat="43.488749598711586" lon="11.403425711459874"><ele>538.0</ele><time>2026-05-02T14:42:47.003Z</time></trkpt><trkpt lat="43.488745976992455" lon="11.40371810822195"><ele>538.6666666666667</ele><time>2026-05-02T14:42:48.003Z</time></trkpt><trkpt lat="43.48871035066648" lon="11.403987130139718"><ele>539.3333333333334</ele><time>2026-05-02T14:42:49.003Z</time></trkpt><trkpt lat="43.488675202400486" lon="11.404235074220155"><ele>540.0</ele><time>2026-05-02T14:42:50.003Z</time></trkpt><trkpt lat="43.48867937194966" lon="11.404462458896583"><ele>539.6666666666666</ele><time>2026-05-02T14:42:51.003Z</time></trkpt><trkpt lat="43.48873130045803" lon="11.404699514781324"><ele>539.3333333333333</ele><time>2026-05-02T14:42:52.003Z</time></trkpt><trkpt lat="43.488833356471766" lon="11.404947663910871"><ele>539.0</ele><time>2026-05-02T14:42:53.003Z</time></trkpt><trkpt lat="43.488934405395646" lon="11.405200069498646"><ele>536.5</ele><time>2026-05-02T14:42:54.003Z</time></trkpt><trkpt lat="43.488984832853625" lon="11.405490073382323"><ele>534.0</ele><time>2026-05-02T14:42:55.003Z</time></trkpt><trkpt lat="43.489032279704645" lon="11.405805090182538"><ele>534.0</ele><time>2026-05-02T14:42:56.003Z</time></trkpt><trkpt lat="43.48910513590453" lon="11.40608631011089"><ele>534.0</ele><time>2026-05-02T14:42:57.003Z</time></trkpt><trkpt lat="43.48917515648723" lon="11.406334102545477"><ele>534.0</ele><time>2026-05-02T14:42:58.003Z</time></trkpt><trkpt lat="43.48928938897913" lon="11.40656762505016"><ele>534.0</ele><time>2026-05-02T14:42:58.999Z</time></trkpt><trkpt lat="43.48943714741785" lon="11.40679303275734"><ele>534.0</ele><time>2026-05-02T14:42:59.999Z</time></trkpt><trkpt lat="43.48960644585022" lon="11.40700277821019"><ele>534.0</ele><time>2026-05-02T14:43:00.999Z</time></trkpt><trkpt lat="43.4897294468092" lon="11.407217092365029"><ele>536.0</ele><time>2026-05-02T14:43:01.999Z</time></trkpt><trkpt lat="43.489837356652764" lon="11.407398461087384"><ele>538.0</ele><time>2026-05-02T14:43:02.999Z</time></trkpt><trkpt lat="43.48990857899768" lon="11.407587722436435"><ele>540.0</ele><time>2026-05-02T14:43:03.999Z</time></trkpt><trkpt lat="43.48995186633358" lon="11.407822721123049"><ele>540.6666666666666</ele><time>2026-05-02T14:43:04.999Z</time></trkpt><trkpt lat="43.489985993167714" lon="11.408105435795719"><ele>541.3333333333333</ele><time>2026-05-02T14:43:05.999Z</time></trkpt><trkpt lat="43.49000053679408" lon="11.408396188881166"><ele>542.0</ele><time>2026-05-02T14:43:06.999Z</time></trkpt><trkpt lat="43.49001112085504" lon="11.408679272903083"><ele>543.3333333333333</ele><time>2026-05-02T14:43:07.999Z</time></trkpt><trkpt lat="43.490014350122074" lon="11.408968509084968"><ele>544.6666666666666</ele><time>2026-05-02T14:43:08.999Z</time></trkpt><trkpt lat="43.48999826972197" lon="11.409260640512791"><ele>546.0</ele><time>2026-05-02T14:43:09.999Z</time></trkpt><trkpt lat="43.489980069366936" lon="11.409523433006322"><ele>546.6666666666666</ele><time>2026-05-02T14:43:10.999Z</time></trkpt><trkpt lat="43.48996308155156" lon="11.409768717755217"><ele>547.3333333333333</ele><time>2026-05-02T14:43:11.999Z</time></trkpt><trkpt lat="43.48994891409774" lon="11.41000748632475"><ele>548.0</ele><time>2026-05-02T14:43:12.999Z</time></trkpt><trkpt lat="43.48985603230174" lon="11.410202384279266"><ele>548.0</ele><time>2026-05-02T14:43:13.999Z</time></trkpt><trkpt lat="43.489760656070985" lon="11.410408529219309"><ele>548.0</ele><time>2026-05-02T14:43:14.999Z</time></trkpt><trkpt lat="43.48963733350847" lon="11.410621492420507"><ele>548.0</ele><time>2026-05-02T14:43:16Z</time></trkpt><trkpt lat="43.48951524980962" lon="11.410819002075005"><ele>548.25</ele><time>2026-05-02T14:43:17Z</time></trkpt><trkpt lat="43.48944094336864" lon="11.410996728049646"><ele>548.5</ele><time>2026-05-02T14:43:18Z</time></trkpt><trkpt lat="43.48940513856692" lon="11.411153257646722"><ele>548.75</ele><time>2026-05-02T14:43:19Z</time></trkpt><trkpt lat="43.48940580194761" lon="11.41135261540773"><ele>549.0</ele><time>2026-05-02T14:43:20Z</time></trkpt><trkpt lat="43.48944568234064" lon="11.411588805050046"><ele>550.0</ele><time>2026-05-02T14:43:21Z</time></trkpt><trkpt lat="43.48951883226118" lon="11.411824703589136"><ele>551.0</ele><time>2026-05-02T14:43:22Z</time></trkpt><trkpt lat="43.48961105391416" lon="11.412011628393193"><ele>552.0</ele><time>2026-05-02T14:43:23Z</time></trkpt><trkpt lat="43.48973343704651" lon="11.412177279833468"><ele>554.0</ele><time>2026-05-02T14:43:24Z</time></trkpt><trkpt lat="43.48989275082844" lon="11.412337633095316"><ele>556.0</ele><time>2026-05-02T14:43:25Z</time></trkpt><trkpt lat="43.49008650635695" lon="11.412504733991337"><ele>558.0</ele><time>2026-05-02T14:43:26Z</time></trkpt><trkpt lat="43.49024174738045" lon="11.412723625108502"><ele>558.0</ele><time>2026-05-02T14:43:27Z</time></trkpt><trkpt lat="43.49037615760502" lon="11.412913062141795"><ele>558.0</ele><time>2026-05-02T14:43:28Z</time></trkpt><trkpt lat="43.49048479491985" lon="11.413091318979196"><ele>558.0</ele><time>2026-05-02T14:43:29Z</time></trkpt><trkpt lat="43.49055714547617" lon="11.413268890009778"><ele>556.3333333333334</ele><time>2026-05-02T14:43:30Z</time></trkpt><trkpt lat="43.490590961158844" lon="11.4134482622848"><ele>554.6666666666667</ele><time>2026-05-02T14:43:31Z</time></trkpt><trkpt lat="43.49057390433652" lon="11.413655574145064"><ele>553.0</ele><time>2026-05-02T14:43:32Z</time></trkpt><trkpt lat="43.49053102556885" lon="11.413926388770554"><ele>553.0</ele><time>2026-05-02T14:43:33Z</time></trkpt><trkpt lat="43.49048111208867" lon="11.414222463485851"><ele>553.0</ele><time>2026-05-02T14:43:34Z</time></trkpt><trkpt lat="43.49043400523595" lon="11.414531055755765"><ele>553.0</ele><time>2026-05-02T14:43:35Z</time></trkpt><trkpt lat="43.490384969165085" lon="11.414861520429744"><ele>553.3333333333334</ele><time>2026-05-02T14:43:36Z</time></trkpt><trkpt lat="43.490337046624894" lon="11.415168942184417"><ele>553.6666666666666</ele><time>2026-05-02T14:43:37.001Z</time></trkpt><trkpt lat="43.49028519233072" lon="11.415452936235667"><ele>554.0</ele><time>2026-05-02T14:43:38.001Z</time></trkpt><trkpt lat="43.49022500354957" lon="11.415730636423108"><ele>554.6666666666666</ele><time>2026-05-02T14:43:39.001Z</time></trkpt><trkpt lat="43.49015750439302" lon="11.416013561020357"><ele>555.3333333333334</ele><time>2026-05-02T14:43:40.001Z</time></trkpt><trkpt lat="43.49009435396227" lon="11.416280973194857"><ele>556.0</ele><time>2026-05-02T14:43:41.001Z</time></trkpt><trkpt lat="43.49006383386017" lon="11.41655627218914"><ele>558.0</ele><time>2026-05-02T14:43:42.001Z</time></trkpt><trkpt lat="43.490054757789366" lon="11.416815306613467"><ele>560.0</ele><time>2026-05-02T14:43:43.001Z</time></trkpt><trkpt lat="43.49008386465728" lon="11.417065975183124"><ele>562.0</ele><time>2026-05-02T14:43:44.001Z</time></trkpt><trkpt lat="43.490146819288" lon="11.417317564153556"><ele>563.3333333333334</ele><time>2026-05-02T14:43:45.001Z</time></trkpt><trkpt lat="43.49022297641565" lon="11.417560499251087"><ele>564.6666666666666</ele><time>2026-05-02T14:43:46.001Z</time></trkpt><trkpt lat="43.49031083071978" lon="11.417751984452032"><ele>566.0</ele><time>2026-05-02T14:43:47.001Z</time></trkpt><trkpt lat="43.490403561705115" lon="11.41791486141094"><ele>566.5</ele><time>2026-05-02T14:43:48.001Z</time></trkpt><trkpt lat="43.49052352962528" lon="11.418020256224047"><ele>567.0</ele><time>2026-05-02T14:43:49.001Z</time></trkpt><trkpt lat="43.49064952926449" lon="11.418099313803744"><ele>567.5</ele><time>2026-05-02T14:43:50.001Z</time></trkpt><trkpt lat="43.490775504299556" lon="11.418151667326917"><ele>568.0</ele><time>2026-05-02T14:43:51.001Z</time></trkpt><trkpt lat="43.490869066803604" lon="11.418229202194544"><ele>568.0</ele><time>2026-05-02T14:43:52.001Z</time></trkpt><trkpt lat="43.49095284433466" lon="11.418326751073494"><ele>568.0</ele><time>2026-05-02T14:43:53.001Z</time></trkpt><trkpt lat="43.490967049930795" lon="11.418502009041541"><ele>568.0</ele><time>2026-05-02T14:43:54.001Z</time></trkpt><trkpt lat="43.49095701603914" lon="11.418676844793481"><ele>568.0</ele><time>2026-05-02T14:43:55.001Z</time></trkpt><trkpt lat="43.490957695054206" lon="11.418900375273235"><ele>566.3333333333334</ele><time>2026-05-02T14:43:56.001Z</time></trkpt><trkpt lat="43.49099363418479" lon="11.41914758691315"><ele>564.6666666666666</ele><time>2026-05-02T14:43:57.001Z</time></trkpt><trkpt lat="43.49105205249365" lon="11.41941519530043"><ele>563.0</ele><time>2026-05-02T14:43:58.001Z</time></trkpt><trkpt lat="43.491122484410226" lon="11.419676600617477"><ele>561.0</ele><time>2026-05-02T14:43:59.001Z</time></trkpt><trkpt lat="43.491183740727024" lon="11.419943618781849"><ele>559.0</ele><time>2026-05-02T14:44:00.001Z</time></trkpt><trkpt lat="43.49122602605052" lon="11.420203665627229"><ele>557.0</ele><time>2026-05-02T14:44:01.001Z</time></trkpt><trkpt lat="43.491259031584605" lon="11.420446116526685"><ele>557.6</ele><time>2026-05-02T14:44:02.001Z</time></trkpt><trkpt lat="43.49126480069867" lon="11.420664905392735"><ele>558.2</ele><time>2026-05-02T14:44:03.001Z</time></trkpt><trkpt lat="43.49129138581771" lon="11.42083958209401"><ele>558.8</ele><time>2026-05-02T14:44:04.001Z</time></trkpt><trkpt lat="43.491307511995934" lon="11.420964465975189"><ele>559.4</ele><time>2026-05-02T14:44:05.001Z</time></trkpt><trkpt lat="43.49132238016636" lon="11.42105475879753"><ele>560.0</ele><time>2026-05-02T14:44:06.002Z</time></trkpt><trkpt lat="43.491293346670645" lon="11.421139289111212"><ele>560.0</ele><time>2026-05-02T14:44:08.002Z</time></trkpt><trkpt lat="43.49123374436521" lon="11.421216153615955"><ele>560.0</ele><time>2026-05-02T14:45:11Z</time></trkpt><trkpt lat="43.49116120644789" lon="11.42120452561039"><ele>560.0</ele><time>2026-05-02T14:45:12Z</time></trkpt><trkpt lat="43.49108403455524" lon="11.421220253437697"><ele>560.0</ele><time>2026-05-02T14:45:13Z</time></trkpt><trkpt lat="43.490999877049646" lon="11.421247376306793"><ele>560.0</ele><time>2026-05-02T14:45:14Z</time></trkpt><trkpt lat="43.490914166844426" lon="11.421277854418463"><ele>560.0</ele><time>2026-05-02T14:45:15Z</time></trkpt><trkpt lat="43.49082986127753" lon="11.42130120187579"><ele>561.6</ele><time>2026-05-02T14:45:16Z</time></trkpt><trkpt lat="43.490739668325936" lon="11.421332961184746"><ele>563.2</ele><time>2026-05-02T14:45:17Z</time></trkpt><trkpt lat="43.49064774695026" lon="11.421360956792379"><ele>564.8</ele><time>2026-05-02T14:45:18Z</time></trkpt><trkpt lat="43.490556421909055" lon="11.421377638527613"><ele>566.4</ele><time>2026-05-02T14:45:19Z</time></trkpt><trkpt lat="43.490453527677445" lon="11.421370708031507"><ele>568.0</ele><time>2026-05-02T14:45:20Z</time></trkpt><trkpt lat="43.490358933930985" lon="11.42142366208082"><ele>568.0</ele><time>2026-05-02T14:45:21Z</time></trkpt><trkpt lat="43.49024764830688" lon="11.421460259524386"><ele>568.0</ele><time>2026-05-02T14:45:22Z</time></trkpt><trkpt lat="43.49012731975816" lon="11.421476182394514"><ele>568.0</ele><time>2026-05-02T14:45:23Z</time></trkpt><trkpt lat="43.490012200227156" lon="11.421514062589894"><ele>568.0</ele><time>2026-05-02T14:45:24Z</time></trkpt><trkpt lat="43.489892163890566" lon="11.421553560679008"><ele>568.0</ele><time>2026-05-02T14:45:25Z</time></trkpt><trkpt lat="43.48975745696263" lon="11.421602930309653"><ele>568.0</ele><time>2026-05-02T14:45:26Z</time></trkpt><trkpt lat="43.48962164015254" lon="11.42166237828908"><ele>568.0</ele><time>2026-05-02T14:45:27Z</time></trkpt><trkpt lat="43.4894930512074" lon="11.421738361966867"><ele>568.0</ele><time>2026-05-02T14:45:28Z</time></trkpt><trkpt lat="43.4893711460913" lon="11.421815835873609"><ele>564.8</ele><time>2026-05-02T14:45:29Z</time></trkpt><trkpt lat="43.489270080671716" lon="11.42187055733666"><ele>561.5999999999999</ele><time>2026-05-02T14:45:30Z</time></trkpt><trkpt lat="43.48917775541363" lon="11.421885471327483"><ele>558.4000000000001</ele><time>2026-05-02T14:45:31Z</time></trkpt><trkpt lat="43.489070244302184" lon="11.421883091406148"><ele>555.2</ele><time>2026-05-02T14:45:32Z</time></trkpt><trkpt lat="43.48895125208802" lon="11.42188624560662"><ele>552.0</ele><time>2026-05-02T14:45:33Z</time></trkpt><trkpt lat="43.488841597604505" lon="11.42190131185011"><ele>550.2</ele><time>2026-05-02T14:45:34Z</time></trkpt><trkpt lat="43.4887513956684" lon="11.421925702872207"><ele>548.4000000000001</ele><time>2026-05-02T14:45:35.001Z</time></trkpt><trkpt lat="43.48866482473798" lon="11.421963696319905"><ele>546.5999999999999</ele><time>2026-05-02T14:45:36.001Z</time></trkpt><trkpt lat="43.48857166001493" lon="11.422015790149604"><ele>544.8</ele><time>2026-05-02T14:45:37.001Z</time></trkpt><trkpt lat="43.4884883132202" lon="11.42206947710417"><ele>543.0</ele><time>2026-05-02T14:45:38.001Z</time></trkpt><trkpt lat="43.48842032645113" lon="11.42213240787717"><ele>545.5</ele><time>2026-05-02T14:45:39.001Z</time></trkpt><trkpt lat="43.488368075318924" lon="11.422199999644505"><ele>548.0</ele><time>2026-05-02T14:45:40.001Z</time></trkpt><trkpt lat="43.488345086199566" lon="11.42231457404907"><ele>550.5</ele><time>2026-05-02T14:45:41.001Z</time></trkpt><trkpt lat="43.48831401022551" lon="11.422434888223352"><ele>553.0</ele><time>2026-05-02T14:45:42.001Z</time></trkpt><trkpt lat="43.48828876777421" lon="11.422555641577466"><ele>555.5</ele><time>2026-05-02T14:45:43.001Z</time></trkpt><trkpt lat="43.48826685791805" lon="11.42265626268991"><ele>558.0</ele><time>2026-05-02T14:45:44.001Z</time></trkpt><trkpt lat="43.488224034596705" lon="11.422774282134192"><ele>558.0</ele><time>2026-05-02T14:45:46.001Z</time></trkpt><trkpt lat="43.48810954924105" lon="11.422816633151477"><ele>558.0</ele><time>2026-05-02T14:45:48.001Z</time></trkpt><trkpt lat="43.488031213223145" lon="11.422761234690823"><ele>558.0</ele><time>2026-05-02T14:45:49.001Z</time></trkpt><trkpt lat="43.4879705253891" lon="11.422688216684634"><ele>558.0</ele><time>2026-05-02T14:45:50.001Z</time></trkpt><trkpt lat="43.48788685011932" lon="11.422613683558058"><ele>558.0</ele><time>2026-05-02T14:45:51.001Z</time></trkpt><trkpt lat="43.48778870913342" lon="11.422521632943106"><ele>557.0</ele><time>2026-05-02T14:45:52.001Z</time></trkpt><trkpt lat="43.487680133626775" lon="11.422417295316741"><ele>556.0</ele><time>2026-05-02T14:45:53.001Z</time></trkpt><trkpt lat="43.48755558855324" lon="11.422299096366904"><ele>555.0</ele><time>2026-05-02T14:45:54.001Z</time></trkpt><trkpt lat="43.487422307590315" lon="11.422174373689385"><ele>554.0</ele><time>2026-05-02T14:45:55.001Z</time></trkpt><trkpt lat="43.4873111785474" lon="11.422063703784282"><ele>551.25</ele><time>2026-05-02T14:45:56.001Z</time></trkpt><trkpt lat="43.48721646701278" lon="11.421952931536346"><ele>548.5</ele><time>2026-05-02T14:45:57.001Z</time></trkpt><trkpt lat="43.487114712145285" lon="11.421847240108695"><ele>545.75</ele><time>2026-05-02T14:45:58.001Z</time></trkpt><trkpt lat="43.48704715398704" lon="11.421712778715046"><ele>543.0</ele><time>2026-05-02T14:45:59.001Z</time></trkpt><trkpt lat="43.48698716665868" lon="11.42159448217627"><ele>543.0</ele><time>2026-05-02T14:46:00.001Z</time></trkpt><trkpt lat="43.48692844578584" lon="11.421468485837192"><ele>543.0</ele><time>2026-05-02T14:46:01.001Z</time></trkpt><trkpt lat="43.4868740710268" lon="11.421360485106478"><ele>543.0</ele><time>2026-05-02T14:46:02.001Z</time></trkpt><trkpt lat="43.48681734106238" lon="11.42125617366127"><ele>543.0</ele><time>2026-05-02T14:46:03.001Z</time></trkpt><trkpt lat="43.486769059700755" lon="11.421151864943205"><ele>543.0</ele><time>2026-05-02T14:46:04.001Z</time></trkpt><trkpt lat="43.48672370955715" lon="11.421076515727226"><ele>542.0</ele><time>2026-05-02T14:46:05.001Z</time></trkpt><trkpt lat="43.486684256937714" lon="11.421000934060569"><ele>542.0</ele><time>2026-05-02T14:46:06.001Z</time></trkpt><trkpt lat="43.4866184718256" lon="11.420886819854621"><ele>542.0</ele><time>2026-05-02T14:46:08.001Z</time></trkpt><trkpt lat="43.48657272370425" lon="11.420800570606197"><ele>542.0</ele><time>2026-05-02T14:46:11.002Z</time></trkpt></trkseg><trkseg><trkpt lat="43.486507433197566" lon="11.42074501557605"><ele>542.0</ele><time>2026-05-02T15:01:13.001Z</time></trkpt><trkpt lat="43.48645800921685" lon="11.420689871351769"><ele>542.0</ele><time>2026-05-02T15:01:14.001Z</time></trkpt><trkpt lat="43.48640303798844" lon="11.420618764764825"><ele>542.0</ele><time>2026-05-02T15:01:15.001Z</time></trkpt><trkpt lat="43.486349723641055" lon="11.420562434053622"><ele>542.0</ele><time>2026-05-02T15:01:16.001Z</time></trkpt><trkpt lat="43.486280873790044" lon="11.420500979457403"><ele>542.0</ele><time>2026-05-02T15:01:17.001Z</time></trkpt><trkpt lat="43.48620251858838" lon="11.42037892140087"><ele>542.0</ele><time>2026-05-02T15:01:18.001Z</time></trkpt><trkpt lat="43.48609687220446" lon="11.420300895892064"><ele>543.6666666666666</ele><time>2026-05-02T15:01:19.001Z</time></trkpt><trkpt lat="43.48596025442338" lon="11.420215559613117"><ele>545.3333333333334</ele><time>2026-05-02T15:01:20.001Z</time></trkpt><trkpt lat="43.48581260921482" lon="11.420125520555036"><ele>547.0</ele><time>2026-05-02T15:01:21.001Z</time></trkpt><trkpt lat="43.48565589228355" lon="11.420032211218617"><ele>547.0</ele><time>2026-05-02T15:01:22.001Z</time></trkpt><trkpt lat="43.48547931009917" lon="11.419933966829117"><ele>547.0</ele><time>2026-05-02T15:01:23.001Z</time></trkpt><trkpt lat="43.485290871817135" lon="11.419829250163435"><ele>547.0</ele><time>2026-05-02T15:01:24.001Z</time></trkpt><trkpt lat="43.48512147011285" lon="11.419731472851772"><ele>546.75</ele><time>2026-05-02T15:01:25.001Z</time></trkpt><trkpt lat="43.484974481567406" lon="11.419645079764809"><ele>546.5</ele><time>2026-05-02T15:01:26.001Z</time></trkpt><trkpt lat="43.484844956220805" lon="11.419570196277617"><ele>546.25</ele><time>2026-05-02T15:01:27.001Z</time></trkpt><trkpt lat="43.484731139773196" lon="11.419510057759846"><ele>546.0</ele><time>2026-05-02T15:01:28.001Z</time></trkpt><trkpt lat="43.484635960196954" lon="11.41946555033865"><ele>546.4</ele><time>2026-05-02T15:01:29.001Z</time></trkpt><trkpt lat="43.484546330101004" lon="11.419432358824592"><ele>546.8</ele><time>2026-05-02T15:01:30.001Z</time></trkpt><trkpt lat="43.484451935064264" lon="11.419409820499634"><ele>547.1999999999999</ele><time>2026-05-02T15:01:31.001Z</time></trkpt><trkpt lat="43.48435356810974" lon="11.419410289888841"><ele>547.6</ele><time>2026-05-02T15:01:32.001Z</time></trkpt><trkpt lat="43.48425252129175" lon="11.41942145907911"><ele>548.0</ele><time>2026-05-02T15:01:33.001Z</time></trkpt><trkpt lat="43.48412572578249" lon="11.419466578680101"><ele>548.0</ele><time>2026-05-02T15:01:34.001Z</time></trkpt><trkpt lat="43.48399729594497" lon="11.41952627957143"><ele>548.0</ele><time>2026-05-02T15:01:35.001Z</time></trkpt><trkpt lat="43.48385072472678" lon="11.4196198602862"><ele>548.0</ele><time>2026-05-02T15:01:36.001Z</time></trkpt><trkpt lat="43.48367593988982" lon="11.419733884714102"><ele>547.0</ele><time>2026-05-02T15:01:37.001Z</time></trkpt><trkpt lat="43.483492676209785" lon="11.419865245019603"><ele>546.0</ele><time>2026-05-02T15:01:38.001Z</time></trkpt><trkpt lat="43.4833059061364" lon="11.419993523021809"><ele>545.0</ele><time>2026-05-02T15:01:39.001Z</time></trkpt><trkpt lat="43.48312279118506" lon="11.42011137905859"><ele>545.0</ele><time>2026-05-02T15:01:40.001Z</time></trkpt><trkpt lat="43.48295340204262" lon="11.42021945883397"><ele>545.0</ele><time>2026-05-02T15:01:41.001Z</time></trkpt><trkpt lat="43.482798301084586" lon="11.420320824286199"><ele>545.0</ele><time>2026-05-02T15:01:42.001Z</time></trkpt><trkpt lat="43.48265518490908" lon="11.420421138286034"><ele>544.75</ele><time>2026-05-02T15:01:43.001Z</time></trkpt><trkpt lat="43.48252720286841" lon="11.420511215759598"><ele>544.5</ele><time>2026-05-02T15:01:44.001Z</time></trkpt><trkpt lat="43.48241264044592" lon="11.420592460711239"><ele>544.25</ele><time>2026-05-02T15:01:45.001Z</time></trkpt><trkpt lat="43.482299085939566" lon="11.42065458213174"><ele>544.0</ele><time>2026-05-02T15:01:46.001Z</time></trkpt><trkpt lat="43.482200884384554" lon="11.420725668333558"><ele>544.0</ele><time>2026-05-02T15:01:47.001Z</time></trkpt><trkpt lat="43.48211620479852" lon="11.420788121351142"><ele>544.0</ele><time>2026-05-02T15:01:48.001Z</time></trkpt><trkpt lat="43.48204311470888" lon="11.420842522906847"><ele>544.0</ele><time>2026-05-02T15:01:49.001Z</time></trkpt><trkpt lat="43.48198331939009" lon="11.420887220270787"><ele>544.0</ele><time>2026-05-02T15:01:50.001Z</time></trkpt><trkpt lat="43.481898183859656" lon="11.420952246465669"><ele>544.0</ele><time>2026-05-02T15:01:52.001Z</time></trkpt><trkpt lat="43.481842449041125" lon="11.420995637079631"><ele>544.0</ele><time>2026-05-02T15:01:54Z</time></trkpt><trkpt lat="43.4817792589133" lon="11.421044845581056"><ele>542.6</ele><time>2026-05-02T15:01:57Z</time></trkpt><trkpt lat="43.4817187519878" lon="11.421092913486293"><ele>541.2</ele><time>2026-05-02T15:01:59.999Z</time></trkpt><trkpt lat="43.481651134634795" lon="11.421146630064358"><ele>539.8000000000001</ele><time>2026-05-02T15:02:02.999Z</time></trkpt><trkpt lat="43.48154982723303" lon="11.421227403179028"><ele>538.4</ele><time>2026-05-02T15:02:05.999Z</time></trkpt><trkpt lat="43.48147844653667" lon="11.421284915824444"><ele>537.0</ele><time>2026-05-02T15:02:06.999Z</time></trkpt><trkpt lat="43.481396854738904" lon="11.421376636645785"><ele>537.2</ele><time>2026-05-02T15:02:07.999Z</time></trkpt><trkpt lat="43.481295391433015" lon="11.421460294676743"><ele>537.4000000000001</ele><time>2026-05-02T15:02:08.999Z</time></trkpt><trkpt lat="43.48119423756791" lon="11.421517972703375"><ele>537.5999999999999</ele><time>2026-05-02T15:02:09.999Z</time></trkpt><trkpt lat="43.48111298455512" lon="11.421585327546033"><ele>537.8</ele><time>2026-05-02T15:02:11Z</time></trkpt><trkpt lat="43.48103845695831" lon="11.421647491510628"><ele>538.0</ele><time>2026-05-02T15:02:12Z</time></trkpt><trkpt lat="43.48095365153381" lon="11.421718449615875"><ele>538.0</ele><time>2026-05-02T15:02:13Z</time></trkpt><trkpt lat="43.480867808000085" lon="11.42180195897449"><ele>538.0</ele><time>2026-05-02T15:02:14Z</time></trkpt><trkpt lat="43.480763332710836" lon="11.42189433656221"><ele>538.0</ele><time>2026-05-02T15:02:15Z</time></trkpt><trkpt lat="43.48064906708969" lon="11.421980665816637"><ele>538.0</ele><time>2026-05-02T15:02:16Z</time></trkpt><trkpt lat="43.480547970961574" lon="11.422055854830106"><ele>538.0</ele><time>2026-05-02T15:02:17Z</time></trkpt><trkpt lat="43.480444124234985" lon="11.422127643968599"><ele>538.0</ele><time>2026-05-02T15:02:18Z</time></trkpt><trkpt lat="43.480326413642956" lon="11.42221301254611"><ele>538.0</ele><time>2026-05-02T15:02:19Z</time></trkpt><trkpt lat="43.48020237220198" lon="11.422321315314427"><ele>538.0</ele><time>2026-05-02T15:02:20Z</time></trkpt><trkpt lat="43.480075677120304" lon="11.422463935749354"><ele>536.3333333333334</ele><time>2026-05-02T15:02:21Z</time></trkpt><trkpt lat="43.47994244101919" lon="11.422609179955499"><ele>534.6666666666666</ele><time>2026-05-02T15:02:22Z</time></trkpt><trkpt lat="43.47981517645861" lon="11.422751049895924"><ele>533.0</ele><time>2026-05-02T15:02:23Z</time></trkpt><trkpt lat="43.47970202783356" lon="11.422881781915507"><ele>533.25</ele><time>2026-05-02T15:02:24Z</time></trkpt><trkpt lat="43.479599951724445" lon="11.423007287740164"><ele>533.5</ele><time>2026-05-02T15:02:25Z</time></trkpt><trkpt lat="43.479507987289004" lon="11.423133332308177"><ele>533.75</ele><time>2026-05-02T15:02:26Z</time></trkpt><trkpt lat="43.479426747698064" lon="11.423286153909428"><ele>534.0</ele><time>2026-05-02T15:02:27Z</time></trkpt><trkpt lat="43.47936233797945" lon="11.423416814955079"><ele>534.0</ele><time>2026-05-02T15:02:28Z</time></trkpt><trkpt lat="43.4792958660305" lon="11.423539535536268"><ele>534.0</ele><time>2026-05-02T15:02:29Z</time></trkpt><trkpt lat="43.47923260770543" lon="11.42365472049451"><ele>534.0</ele><time>2026-05-02T15:02:30Z</time></trkpt><trkpt lat="43.479170494809544" lon="11.423753422529913"><ele>534.0</ele><time>2026-05-02T15:02:31Z</time></trkpt><trkpt lat="43.479097703830156" lon="11.423861288444886"><ele>534.0</ele><time>2026-05-02T15:02:32Z</time></trkpt><trkpt lat="43.47902693147867" lon="11.423965398852088"><ele>532.8</ele><time>2026-05-02T15:02:33Z</time></trkpt><trkpt lat="43.478958891192285" lon="11.424058075240085"><ele>531.5999999999999</ele><time>2026-05-02T15:02:34Z</time></trkpt><trkpt lat="43.47888857729999" lon="11.424134881101494"><ele>530.4</ele><time>2026-05-02T15:02:35Z</time></trkpt><trkpt lat="43.478799279152476" lon="11.424224574337893"><ele>529.1999999999999</ele><time>2026-05-02T15:02:36Z</time></trkpt><trkpt lat="43.478702081710324" lon="11.424275815486865"><ele>528.0</ele><time>2026-05-02T15:02:37Z</time></trkpt><trkpt lat="43.478631747356054" lon="11.424346443489561"><ele>526.8</ele><time>2026-05-02T15:02:38Z</time></trkpt><trkpt lat="43.47853654081039" lon="11.424399310082343"><ele>525.5999999999999</ele><time>2026-05-02T15:02:39Z</time></trkpt><trkpt lat="43.47844513577026" lon="11.42446542789088"><ele>524.4000000000001</ele><time>2026-05-02T15:02:40Z</time></trkpt><trkpt lat="43.47835175896724" lon="11.424529005065411"><ele>523.2</ele><time>2026-05-02T15:02:41Z</time></trkpt><trkpt lat="43.47827956276394" lon="11.424579951781592"><ele>522.0</ele><time>2026-05-02T15:02:42Z</time></trkpt><trkpt lat="43.47822363625701" lon="11.424622184237087"><ele>522.0</ele><time>2026-05-02T15:02:43Z</time></trkpt><trkpt lat="43.47813955052729" lon="11.424683915964662"><ele>522.0</ele><time>2026-05-02T15:02:45Z</time></trkpt><trkpt lat="43.478071672007445" lon="11.424696501693795"><ele>522.0</ele><time>2026-05-02T15:02:47Z</time></trkpt><trkpt lat="43.477974357508295" lon="11.424625022457585"><ele>522.0</ele><time>2026-05-02T15:02:50Z</time></trkpt><trkpt lat="43.477903782923626" lon="11.424527178045835"><ele>522.0</ele><time>2026-05-02T15:02:52Z</time></trkpt><trkpt lat="43.47785164401183" lon="11.424448865581807"><ele>519.2</ele><time>2026-05-02T15:02:53Z</time></trkpt><trkpt lat="43.47780205369673" lon="11.424372378513322"><ele>516.4000000000001</ele><time>2026-05-02T15:02:54Z</time></trkpt><trkpt lat="43.47775688661696" lon="11.424294401708446"><ele>513.5999999999999</ele><time>2026-05-02T15:02:55Z</time></trkpt><trkpt lat="43.47770065754711" lon="11.424208495166075"><ele>510.79999999999995</ele><time>2026-05-02T15:02:56Z</time></trkpt><trkpt lat="43.47763133562548" lon="11.42410397433776"><ele>508.0</ele><time>2026-05-02T15:02:57Z</time></trkpt><trkpt lat="43.47755443083736" lon="11.42398097831867"><ele>508.0</ele><time>2026-05-02T15:02:58Z</time></trkpt><trkpt lat="43.47747973357806" lon="11.423867900162639"><ele>507.99999999999994</ele><time>2026-05-02T15:02:59Z</time></trkpt><trkpt lat="43.47740256982965" lon="11.423769413179109"><ele>507.99999999999994</ele><time>2026-05-02T15:03:00Z</time></trkpt><trkpt lat="43.47734112980459" lon="11.423653861921318"><ele>508.0</ele><time>2026-05-02T15:03:01Z</time></trkpt><trkpt lat="43.47726606514567" lon="11.42355073028871"><ele>508.0</ele><time>2026-05-02T15:03:02Z</time></trkpt><trkpt lat="43.477180898461484" lon="11.42344502420639"><ele>507.5</ele><time>2026-05-02T15:03:03Z</time></trkpt><trkpt lat="43.47709295116512" lon="11.423333612739816"><ele>507.0</ele><time>2026-05-02T15:03:04Z</time></trkpt><trkpt lat="43.47700874541693" lon="11.423210409153837"><ele>506.5</ele><time>2026-05-02T15:03:05Z</time></trkpt><trkpt lat="43.47692724598231" lon="11.423086452457337"><ele>506.0</ele><time>2026-05-02T15:03:06Z</time></trkpt><trkpt lat="43.476835090080435" lon="11.422976325288857"><ele>505.5</ele><time>2026-05-02T15:03:07Z</time></trkpt><trkpt lat="43.47673808137347" lon="11.422886026140718"><ele>505.0</ele><time>2026-05-02T15:03:08Z</time></trkpt><trkpt lat="43.476640211454324" lon="11.422820974309065"><ele>504.5</ele><time>2026-05-02T15:03:09Z</time></trkpt><trkpt lat="43.47654200652804" lon="11.422759263065922"><ele>504.0</ele><time>2026-05-02T15:03:10Z</time></trkpt><trkpt lat="43.47642893170289" lon="11.422715720545284"><ele>504.0</ele><time>2026-05-02T15:03:11Z</time></trkpt><trkpt lat="43.476314784506506" lon="11.422647158376614"><ele>504.0</ele><time>2026-05-02T15:03:12Z</time></trkpt><trkpt lat="43.4761919098044" lon="11.422572846499895"><ele>504.0</ele><time>2026-05-02T15:03:13Z</time></trkpt><trkpt lat="43.47606577474936" lon="11.422495750390569"><ele>504.0</ele><time>2026-05-02T15:03:14Z</time></trkpt><trkpt lat="43.47594129678703" lon="11.42242621670941"><ele>504.5</ele><time>2026-05-02T15:03:15Z</time></trkpt><trkpt lat="43.475825458488" lon="11.42236542486366"><ele>505.0</ele><time>2026-05-02T15:03:16Z</time></trkpt><trkpt lat="43.475707261047184" lon="11.422336668686539"><ele>505.5</ele><time>2026-05-02T15:03:17Z</time></trkpt><trkpt lat="43.47558501031744" lon="11.422310867353275"><ele>506.0</ele><time>2026-05-02T15:03:18Z</time></trkpt><trkpt lat="43.47547110751746" lon="11.422360738430724"><ele>508.75</ele><time>2026-05-02T15:03:19Z</time></trkpt><trkpt lat="43.47535463045543" lon="11.422415235351142"><ele>511.5</ele><time>2026-05-02T15:03:20Z</time></trkpt><trkpt lat="43.47523499911155" lon="11.422486735504306"><ele>514.25</ele><time>2026-05-02T15:03:21Z</time></trkpt><trkpt lat="43.47511519711109" lon="11.42256032760203"><ele>517.0</ele><time>2026-05-02T15:03:22Z</time></trkpt><trkpt lat="43.475006596062755" lon="11.422587463246447"><ele>517.0</ele><time>2026-05-02T15:03:23Z</time></trkpt><trkpt lat="43.474915031211864" lon="11.42262961142074"><ele>517.0</ele><time>2026-05-02T15:03:24Z</time></trkpt><trkpt lat="43.47480455616278" lon="11.4226290228579"><ele>517.0</ele><time>2026-05-02T15:03:25Z</time></trkpt><trkpt lat="43.4746912513785" lon="11.422576637239748"><ele>517.0</ele><time>2026-05-02T15:03:26Z</time></trkpt><trkpt lat="43.47456858843418" lon="11.422535081117553"><ele>517.75</ele><time>2026-05-02T15:03:27Z</time></trkpt><trkpt lat="43.474427378509" lon="11.42248705135052"><ele>518.5</ele><time>2026-05-02T15:03:28Z</time></trkpt><trkpt lat="43.474288718146454" lon="11.422456456093666"><ele>519.25</ele><time>2026-05-02T15:03:29Z</time></trkpt><trkpt lat="43.47415723626688" lon="11.422412937239185"><ele>520.0</ele><time>2026-05-02T15:03:30Z</time></trkpt><trkpt lat="43.47402191745961" lon="11.422391523735197"><ele>520.0</ele><time>2026-05-02T15:03:31Z</time></trkpt><trkpt lat="43.47389827690217" lon="11.422361362288141"><ele>520.0</ele><time>2026-05-02T15:03:32Z</time></trkpt><trkpt lat="43.47377853290372" lon="11.42233668774911"><ele>520.0</ele><time>2026-05-02T15:03:33Z</time></trkpt><trkpt lat="43.47366243386451" lon="11.422306271403723"><ele>520.0</ele><time>2026-05-02T15:03:34Z</time></trkpt><trkpt lat="43.47355125028509" lon="11.42226622847775"><ele>519.5</ele><time>2026-05-02T15:03:35Z</time></trkpt><trkpt lat="43.473433558721425" lon="11.422219384754495"><ele>519.0</ele><time>2026-05-02T15:03:36Z</time></trkpt><trkpt lat="43.47332393298673" lon="11.422169525144973"><ele>518.5</ele><time>2026-05-02T15:03:37Z</time></trkpt><trkpt lat="43.47322351341592" lon="11.422114287587332"><ele>518.0</ele><time>2026-05-02T15:03:38Z</time></trkpt><trkpt lat="43.47312173685524" lon="11.422048346371211"><ele>517.6666666666666</ele><time>2026-05-02T15:03:39.001Z</time></trkpt><trkpt lat="43.47301671954194" lon="11.42194491974975"><ele>517.3333333333334</ele><time>2026-05-02T15:03:40.001Z</time></trkpt><trkpt lat="43.4729011383086" lon="11.421806813903912"><ele>517.0</ele><time>2026-05-02T15:03:41.001Z</time></trkpt><trkpt lat="43.47276284772399" lon="11.42164508291993"><ele>517.0</ele><time>2026-05-02T15:03:42.001Z</time></trkpt><trkpt lat="43.47261803934653" lon="11.421494971414674"><ele>517.0</ele><time>2026-05-02T15:03:43.001Z</time></trkpt><trkpt lat="43.472488477551394" lon="11.421390725071507"><ele>517.0</ele><time>2026-05-02T15:03:44.001Z</time></trkpt><trkpt lat="43.4723744298511" lon="11.421315165426025"><ele>517.25</ele><time>2026-05-02T15:03:45.001Z</time></trkpt><trkpt lat="43.47224815556062" lon="11.421246447221174"><ele>517.5</ele><time>2026-05-02T15:03:46.001Z</time></trkpt><trkpt lat="43.47212648146681" lon="11.421196415784344"><ele>517.75</ele><time>2026-05-02T15:03:47.001Z</time></trkpt><trkpt lat="43.47201517377233" lon="11.421145610045594"><ele>518.0</ele><time>2026-05-02T15:03:48.001Z</time></trkpt><trkpt lat="43.47192202106209" lon="11.421051580318272"><ele>519.0</ele><time>2026-05-02T15:03:49.001Z</time></trkpt><trkpt lat="43.4718237236779" lon="11.420949197191195"><ele>520.0</ele><time>2026-05-02T15:03:50.001Z</time></trkpt><trkpt lat="43.47171635517566" lon="11.420820964294256"><ele>521.0</ele><time>2026-05-02T15:03:51.001Z</time></trkpt><trkpt lat="43.47161510281127" lon="11.420687105710826"><ele>522.0</ele><time>2026-05-02T15:03:52.001Z</time></trkpt><trkpt lat="43.4715242732507" lon="11.42055623401985"><ele>521.2</ele><time>2026-05-02T15:03:53.001Z</time></trkpt><trkpt lat="43.47144098376348" lon="11.420418687798469"><ele>520.4000000000001</ele><time>2026-05-02T15:03:54.001Z</time></trkpt><trkpt lat="43.47136449493887" lon="11.420305303653956"><ele>519.5999999999999</ele><time>2026-05-02T15:03:55.001Z</time></trkpt><trkpt lat="43.47131609298285" lon="11.420182157072869"><ele>518.8</ele><time>2026-05-02T15:03:56.001Z</time></trkpt><trkpt lat="43.471244181842884" lon="11.420091267717604"><ele>518.0</ele><time>2026-05-02T15:03:57.001Z</time></trkpt><trkpt lat="43.47118179150133" lon="11.419974635942333"><ele>516.75</ele><time>2026-05-02T15:03:58.001Z</time></trkpt><trkpt lat="43.47110129275582" lon="11.419854167667513"><ele>515.5</ele><time>2026-05-02T15:03:58.996Z</time></trkpt><trkpt lat="43.47102183128955" lon="11.419728561319937"><ele>514.25</ele><time>2026-05-02T15:03:59.996Z</time></trkpt><trkpt lat="43.47094183181445" lon="11.419612033618112"><ele>513.0</ele><time>2026-05-02T15:04:00.996Z</time></trkpt><trkpt lat="43.47087416725141" lon="11.419486327126744"><ele>511.59999999999997</ele><time>2026-05-02T15:04:01.996Z</time></trkpt><trkpt lat="43.47080125756887" lon="11.419369706321485"><ele>510.19999999999993</ele><time>2026-05-02T15:04:02.996Z</time></trkpt><trkpt lat="43.470730918601554" lon="11.419254956855601"><ele>508.8</ele><time>2026-05-02T15:04:03.997Z</time></trkpt><trkpt lat="43.47065331524103" lon="11.419140695735187"><ele>507.4</ele><time>2026-05-02T15:04:04.997Z</time></trkpt><trkpt lat="43.470584696694814" lon="11.419017714984367"><ele>506.0</ele><time>2026-05-02T15:04:05.997Z</time></trkpt><trkpt lat="43.47052291186879" lon="11.418904279809432"><ele>505.3333333333333</ele><time>2026-05-02T15:04:06.997Z</time></trkpt><trkpt lat="43.47046135421627" lon="11.41879713564948"><ele>504.66666666666663</ele><time>2026-05-02T15:04:07.997Z</time></trkpt><trkpt lat="43.47040514093423" lon="11.418703770127433"><ele>504.0</ele><time>2026-05-02T15:04:08.997Z</time></trkpt><trkpt lat="43.47035889846718" lon="11.418621956739404"><ele>503.33333333333337</ele><time>2026-05-02T15:04:09.997Z</time></trkpt><trkpt lat="43.470315614493884" lon="11.418552769400671"><ele>502.6666666666667</ele><time>2026-05-02T15:04:10.997Z</time></trkpt><trkpt lat="43.47026231949663" lon="11.41845015075248"><ele>502.0</ele><time>2026-05-02T15:04:12.997Z</time></trkpt><trkpt lat="43.470222094566175" lon="11.418374004039775"><ele>502.0</ele><time>2026-05-02T15:04:15.997Z</time></trkpt></trkseg><trkseg><trkpt lat="43.47004001640089" lon="11.418810333755804"><ele>502.33333333333337</ele><time>2026-05-02T15:20:40.001Z</time></trkpt><trkpt lat="43.469949772289475" lon="11.418893788665075"><ele>502.6666666666667</ele><time>2026-05-02T15:20:42.001Z</time></trkpt><trkpt lat="43.46990783168109" lon="11.418958721306296"><ele>503.0</ele><time>2026-05-02T15:20:43.001Z</time></trkpt><trkpt lat="43.46983340856767" lon="11.41907547920641"><ele>503.33333333333337</ele><time>2026-05-02T15:20:45.001Z</time></trkpt><trkpt lat="43.46979210938723" lon="11.419141672614947"><ele>503.6666666666667</ele><time>2026-05-02T15:20:46.001Z</time></trkpt><trkpt lat="43.46975958825266" lon="11.419233593011187"><ele>504.0</ele><time>2026-05-02T15:20:47.001Z</time></trkpt><trkpt lat="43.46971239651946" lon="11.419324471567174"><ele>504.0</ele><time>2026-05-02T15:20:48.001Z</time></trkpt><trkpt lat="43.46967630775324" lon="11.419423912658447"><ele>504.0</ele><time>2026-05-02T15:20:49.001Z</time></trkpt><trkpt lat="43.46966313361559" lon="11.419515942566486"><ele>504.0</ele><time>2026-05-02T15:20:50Z</time></trkpt><trkpt lat="43.46967610116539" lon="11.41961409791451"><ele>504.0</ele><time>2026-05-02T15:20:51Z</time></trkpt><trkpt lat="43.469707125966245" lon="11.419717674731723"><ele>504.0</ele><time>2026-05-02T15:20:52Z</time></trkpt><trkpt lat="43.46974865655762" lon="11.419823495641648"><ele>504.0</ele><time>2026-05-02T15:20:53Z</time></trkpt><trkpt lat="43.469804121432595" lon="11.419935383499775"><ele>503.25</ele><time>2026-05-02T15:20:54Z</time></trkpt><trkpt lat="43.469866592600525" lon="11.420051578067428"><ele>502.5</ele><time>2026-05-02T15:20:55Z</time></trkpt><trkpt lat="43.469956343448594" lon="11.420210203072655"><ele>501.75</ele><time>2026-05-02T15:20:56Z</time></trkpt><trkpt lat="43.47005621786963" lon="11.420404649846825"><ele>501.0</ele><time>2026-05-02T15:20:57Z</time></trkpt><trkpt lat="43.47017258933951" lon="11.420634227695443"><ele>498.25</ele><time>2026-05-02T15:20:58Z</time></trkpt><trkpt lat="43.4702635645353" lon="11.420815582904925"><ele>495.5</ele><time>2026-05-02T15:20:59Z</time></trkpt><trkpt lat="43.470317507359816" lon="11.420972427504411"><ele>492.75</ele><time>2026-05-02T15:21:00Z</time></trkpt><trkpt lat="43.47035871997398" lon="11.421103625133448"><ele>490.0</ele><time>2026-05-02T15:21:01Z</time></trkpt><trkpt lat="43.47036748519106" lon="11.421231458867753"><ele>490.75</ele><time>2026-05-02T15:21:02Z</time></trkpt><trkpt lat="43.47033150980408" lon="11.421355426730722"><ele>491.5</ele><time>2026-05-02T15:21:03Z</time></trkpt><trkpt lat="43.470248739158556" lon="11.421423747604615"><ele>492.25</ele><time>2026-05-02T15:21:04Z</time></trkpt><trkpt lat="43.470144165077855" lon="11.42153634242852"><ele>493.0</ele><time>2026-05-02T15:21:05Z</time></trkpt><trkpt lat="43.470006873522614" lon="11.421647272684686"><ele>493.0</ele><time>2026-05-02T15:21:06Z</time></trkpt><trkpt lat="43.46982668861385" lon="11.421765323978978"><ele>493.0</ele><time>2026-05-02T15:21:07Z</time></trkpt><trkpt lat="43.46965006468906" lon="11.421883328544215"><ele>493.0</ele><time>2026-05-02T15:21:08Z</time></trkpt><trkpt lat="43.469476451570564" lon="11.422009649559998"><ele>492.0</ele><time>2026-05-02T15:21:09Z</time></trkpt><trkpt lat="43.46931081668759" lon="11.422132458055149"><ele>491.0</ele><time>2026-05-02T15:21:10Z</time></trkpt><trkpt lat="43.46914891891011" lon="11.422250375436521"><ele>490.0</ele><time>2026-05-02T15:21:11Z</time></trkpt><trkpt lat="43.468967772283634" lon="11.422377642033549"><ele>490.0</ele><time>2026-05-02T15:21:12Z</time></trkpt><trkpt lat="43.46879426173252" lon="11.42250113926615"><ele>490.0</ele><time>2026-05-02T15:21:13Z</time></trkpt><trkpt lat="43.468621925535196" lon="11.422630512577802"><ele>490.0</ele><time>2026-05-02T15:21:14Z</time></trkpt><trkpt lat="43.46845382254948" lon="11.422756837392136"><ele>487.75</ele><time>2026-05-02T15:21:15Z</time></trkpt><trkpt lat="43.468311756530525" lon="11.422862625895037"><ele>485.5</ele><time>2026-05-02T15:21:16Z</time></trkpt><trkpt lat="43.468184518584415" lon="11.422954215087326"><ele>483.25</ele><time>2026-05-02T15:21:17Z</time></trkpt><trkpt lat="43.46807259769192" lon="11.423048745983143"><ele>481.0</ele><time>2026-05-02T15:21:18Z</time></trkpt><trkpt lat="43.46792964401434" lon="11.423053549981049"><ele>480.6</ele><time>2026-05-02T15:21:19Z</time></trkpt><trkpt lat="43.467812007414466" lon="11.423065986729098"><ele>480.20000000000005</ele><time>2026-05-02T15:21:20Z</time></trkpt><trkpt lat="43.46773205850341" lon="11.423116882784186"><ele>479.79999999999995</ele><time>2026-05-02T15:21:21Z</time></trkpt><trkpt lat="43.467626979996886" lon="11.423213822580827"><ele>479.4</ele><time>2026-05-02T15:21:23Z</time></trkpt><trkpt lat="43.46763238037143" lon="11.4233574757455"><ele>479.0</ele><time>2026-05-02T15:21:24Z</time></trkpt><trkpt lat="43.467656916096914" lon="11.423486703382434"><ele>479.0</ele><time>2026-05-02T15:21:25Z</time></trkpt><trkpt lat="43.46772800161667" lon="11.423599056007596"><ele>479.0</ele><time>2026-05-02T15:21:26Z</time></trkpt><trkpt lat="43.467837942518806" lon="11.423699364306794"><ele>479.0</ele><time>2026-05-02T15:21:27Z</time></trkpt><trkpt lat="43.46798365171802" lon="11.423801249754975"><ele>479.0</ele><time>2026-05-02T15:21:28Z</time></trkpt><trkpt lat="43.46813528906824" lon="11.423948661398358"><ele>476.5</ele><time>2026-05-02T15:21:29Z</time></trkpt><trkpt lat="43.468278210275564" lon="11.424075552897241"><ele>474.0</ele><time>2026-05-02T15:21:30Z</time></trkpt><trkpt lat="43.46838727468556" lon="11.424179255882589"><ele>471.5</ele><time>2026-05-02T15:21:31Z</time></trkpt><trkpt lat="43.46848991725368" lon="11.424268828598313"><ele>469.0</ele><time>2026-05-02T15:21:32Z</time></trkpt><trkpt lat="43.46862925480027" lon="11.424311255449895"><ele>468.33333333333337</ele><time>2026-05-02T15:21:33Z</time></trkpt><trkpt lat="43.46878765114064" lon="11.424340970902746"><ele>467.66666666666663</ele><time>2026-05-02T15:21:34Z</time></trkpt><trkpt lat="43.46897231528029" lon="11.424377209472922"><ele>467.0</ele><time>2026-05-02T15:21:35Z</time></trkpt><trkpt lat="43.46913514446015" lon="11.424403444540369"><ele>467.0</ele><time>2026-05-02T15:21:36Z</time></trkpt><trkpt lat="43.46928289363904" lon="11.42443368383521"><ele>467.0</ele><time>2026-05-02T15:21:37Z</time></trkpt><trkpt lat="43.46941817493634" lon="11.424475282605833"><ele>467.0</ele><time>2026-05-02T15:21:38Z</time></trkpt><trkpt lat="43.46953596510233" lon="11.42452169093101"><ele>467.0</ele><time>2026-05-02T15:21:39Z</time></trkpt><trkpt lat="43.46965236271687" lon="11.424567252814546"><ele>465.25</ele><time>2026-05-02T15:21:40Z</time></trkpt><trkpt lat="43.46974095008419" lon="11.424672889917465"><ele>463.5</ele><time>2026-05-02T15:21:41Z</time></trkpt><trkpt lat="43.46980747366458" lon="11.424806371740818"><ele>461.75</ele><time>2026-05-02T15:21:42Z</time></trkpt><trkpt lat="43.469848704944816" lon="11.424963281442926"><ele>460.0</ele><time>2026-05-02T15:21:43Z</time></trkpt><trkpt lat="43.46987377668464" lon="11.425180357367122"><ele>460.0</ele><time>2026-05-02T15:21:44Z</time></trkpt><trkpt lat="43.469880979815976" lon="11.425413539772842"><ele>460.0</ele><time>2026-05-02T15:21:45Z</time></trkpt><trkpt lat="43.46988548896971" lon="11.425614241425553"><ele>460.0</ele><time>2026-05-02T15:21:46Z</time></trkpt><trkpt lat="43.46989465996229" lon="11.42580343352152"><ele>457.0</ele><time>2026-05-02T15:21:47Z</time></trkpt><trkpt lat="43.46990336144803" lon="11.425994277786188"><ele>454.0</ele><time>2026-05-02T15:21:48Z</time></trkpt><trkpt lat="43.46990709351654" lon="11.426192940695811"><ele>451.0</ele><time>2026-05-02T15:21:49Z</time></trkpt><trkpt lat="43.46989956878495" lon="11.426391458378468"><ele>448.0</ele><time>2026-05-02T15:21:50Z</time></trkpt><trkpt lat="43.469878089335815" lon="11.426576544240335"><ele>446.0</ele><time>2026-05-02T15:21:51Z</time></trkpt><trkpt lat="43.46985160968628" lon="11.426753799202718"><ele>444.0</ele><time>2026-05-02T15:21:52Z</time></trkpt><trkpt lat="43.46981895686531" lon="11.426953597733736"><ele>442.0</ele><time>2026-05-02T15:21:53Z</time></trkpt><trkpt lat="43.46977823845224" lon="11.427165123960288"><ele>440.0</ele><time>2026-05-02T15:21:54Z</time></trkpt><trkpt lat="43.46969326513445" lon="11.4273642031644"><ele>434.0</ele><time>2026-05-02T15:21:55Z</time></trkpt><trkpt lat="43.469591853837734" lon="11.427563565726137"><ele>428.0</ele><time>2026-05-02T15:21:56Z</time></trkpt><trkpt lat="43.469475873675506" lon="11.427761687258794"><ele>422.0</ele><time>2026-05-02T15:21:57Z</time></trkpt><trkpt lat="43.46935340965977" lon="11.427958683571303"><ele>421.66666666666663</ele><time>2026-05-02T15:21:58Z</time></trkpt><trkpt lat="43.46923900984873" lon="11.428169299910019"><ele>421.33333333333337</ele><time>2026-05-02T15:21:59Z</time></trkpt><trkpt lat="43.46911327484659" lon="11.428365638016603"><ele>421.0</ele><time>2026-05-02T15:22:00Z</time></trkpt><trkpt lat="43.46899924158526" lon="11.428549829173162"><ele>421.0</ele><time>2026-05-02T15:22:01Z</time></trkpt><trkpt lat="43.46888846453921" lon="11.428726015693504"><ele>421.0</ele><time>2026-05-02T15:22:02Z</time></trkpt><trkpt lat="43.46878247213176" lon="11.428900796991972"><ele>421.0</ele><time>2026-05-02T15:22:03Z</time></trkpt><trkpt lat="43.46868140121766" lon="11.429069997767899"><ele>417.75</ele><time>2026-05-02T15:22:04Z</time></trkpt><trkpt lat="43.46858107018065" lon="11.429233342374962"><ele>414.5</ele><time>2026-05-02T15:22:05Z</time></trkpt><trkpt lat="43.46848352941515" lon="11.42938835477284"><ele>411.25</ele><time>2026-05-02T15:22:06Z</time></trkpt><trkpt lat="43.46838059032343" lon="11.429500676370681"><ele>408.0</ele><time>2026-05-02T15:22:07Z</time></trkpt><trkpt lat="43.46828747422542" lon="11.429601831244211"><ele>406.75</ele><time>2026-05-02T15:22:07.998Z</time></trkpt><trkpt lat="43.46818309871412" lon="11.429685900105882"><ele>405.5</ele><time>2026-05-02T15:22:08.998Z</time></trkpt><trkpt lat="43.468063255297075" lon="11.429754958262222"><ele>404.25</ele><time>2026-05-02T15:22:09.998Z</time></trkpt><trkpt lat="43.4679442310381" lon="11.429847831670005"><ele>403.0</ele><time>2026-05-02T15:22:10.998Z</time></trkpt><trkpt lat="43.467815965049105" lon="11.429944340508646"><ele>401.75</ele><time>2026-05-02T15:22:11.998Z</time></trkpt><trkpt lat="43.46769773661185" lon="11.430031369043883"><ele>400.5</ele><time>2026-05-02T15:22:12.999Z</time></trkpt><trkpt lat="43.467580899790484" lon="11.4301049941257"><ele>399.25</ele><time>2026-05-02T15:22:13.999Z</time></trkpt><trkpt lat="43.46746402612692" lon="11.430179085950376"><ele>398.0</ele><time>2026-05-02T15:22:14.999Z</time></trkpt><trkpt lat="43.46735668528249" lon="11.430249327596748"><ele>398.0</ele><time>2026-05-02T15:22:15.999Z</time></trkpt><trkpt lat="43.467250391783644" lon="11.430333496865698"><ele>398.0</ele><time>2026-05-02T15:22:16.999Z</time></trkpt><trkpt lat="43.467143498053154" lon="11.430403836220187"><ele>398.0</ele><time>2026-05-02T15:22:17.999Z</time></trkpt><trkpt lat="43.46704295282778" lon="11.430473769074679"><ele>398.0</ele><time>2026-05-02T15:22:18.999Z</time></trkpt><trkpt lat="43.466944025053785" lon="11.4305259316171"><ele>396.0</ele><time>2026-05-02T15:22:19.999Z</time></trkpt><trkpt lat="43.46685238374725" lon="11.43058554943914"><ele>394.0</ele><time>2026-05-02T15:22:20.999Z</time></trkpt><trkpt lat="43.466777017006784" lon="11.430632851072133"><ele>392.0</ele><time>2026-05-02T15:22:21.999Z</time></trkpt><trkpt lat="43.4667159664706" lon="11.430672664884037"><ele>390.0</ele><time>2026-05-02T15:22:22.999Z</time></trkpt><trkpt lat="43.466631077037235" lon="11.43076339255913"><ele>388.0</ele><time>2026-05-02T15:22:24.999Z</time></trkpt><trkpt lat="43.466590144984224" lon="11.430885340579046"><ele>388.0</ele><time>2026-05-02T15:22:26.999Z</time></trkpt><trkpt lat="43.46664502587384" lon="11.430993165190188"><ele>388.0</ele><time>2026-05-02T15:22:27.999Z</time></trkpt><trkpt lat="43.46671298354712" lon="11.43111198908224"><ele>388.0</ele><time>2026-05-02T15:22:28.999Z</time></trkpt><trkpt lat="43.466809138812785" lon="11.43122365688697"><ele>388.0</ele><time>2026-05-02T15:22:29.999Z</time></trkpt><trkpt lat="43.466940042809355" lon="11.431300287303804"><ele>384.0</ele><time>2026-05-02T15:22:30.999Z</time></trkpt><trkpt lat="43.467101180646196" lon="11.431363624055784"><ele>380.0</ele><time>2026-05-02T15:22:31.999Z</time></trkpt><trkpt lat="43.46726106408615" lon="11.431413950265775"><ele>376.0</ele><time>2026-05-02T15:22:32.999Z</time></trkpt><trkpt lat="43.46740571068606" lon="11.431490029367053"><ele>376.0</ele><time>2026-05-02T15:22:33.999Z</time></trkpt><trkpt lat="43.4675434378468" lon="11.431582010470903"><ele>376.0</ele><time>2026-05-02T15:22:34.999Z</time></trkpt><trkpt lat="43.4676712731985" lon="11.43168344892619"><ele>376.0</ele><time>2026-05-02T15:22:35.999Z</time></trkpt><trkpt lat="43.46778386948561" lon="11.431791183608"><ele>376.0</ele><time>2026-05-02T15:22:36.999Z</time></trkpt><trkpt lat="43.46789111055902" lon="11.4319106154914"><ele>375.75</ele><time>2026-05-02T15:22:37.999Z</time></trkpt><trkpt lat="43.46799235527995" lon="11.432026892709137"><ele>375.5</ele><time>2026-05-02T15:22:38.999Z</time></trkpt><trkpt lat="43.468088952859574" lon="11.432142483552987"><ele>375.25</ele><time>2026-05-02T15:22:39.999Z</time></trkpt><trkpt lat="43.46818493167291" lon="11.432249951010814"><ele>375.0</ele><time>2026-05-02T15:22:40.999Z</time></trkpt><trkpt lat="43.46827739464977" lon="11.43236493734776"><ele>372.8</ele><time>2026-05-02T15:22:41.999Z</time></trkpt><trkpt lat="43.46835378672095" lon="11.43246261099821"><ele>370.6</ele><time>2026-05-02T15:22:42.999Z</time></trkpt><trkpt lat="43.46841850399697" lon="11.43255812675031"><ele>368.4</ele><time>2026-05-02T15:22:43.999Z</time></trkpt><trkpt lat="43.46846880511478" lon="11.43267321008699"><ele>366.2</ele><time>2026-05-02T15:22:44.999Z</time></trkpt><trkpt lat="43.46845941249268" lon="11.4328013130841"><ele>364.0</ele><time>2026-05-02T15:22:45.999Z</time></trkpt><trkpt lat="43.4684868285138" lon="11.432913150232611"><ele>362.5</ele><time>2026-05-02T15:22:46.999Z</time></trkpt><trkpt lat="43.468534773926585" lon="11.433033219169195"><ele>361.0</ele><time>2026-05-02T15:22:48.999Z</time></trkpt><trkpt lat="43.46854484516736" lon="11.433157051365862"><ele>359.5</ele><time>2026-05-02T15:22:50.999Z</time></trkpt><trkpt lat="43.468372363767" lon="11.433284195313092"><ele>358.0</ele><time>2026-05-02T15:22:53.999Z</time></trkpt><trkpt lat="43.46823064570563" lon="11.433372499568442"><ele>358.0</ele><time>2026-05-02T15:22:54.999Z</time></trkpt><trkpt lat="43.468099969744245" lon="11.433503154577387"><ele>358.0</ele><time>2026-05-02T15:22:55.999Z</time></trkpt><trkpt lat="43.467975976380686" lon="11.433611458474827"><ele>358.0</ele><time>2026-05-02T15:22:56.999Z</time></trkpt><trkpt lat="43.467878499272345" lon="11.4337121510967"><ele>358.0</ele><time>2026-05-02T15:22:57.999Z</time></trkpt><trkpt lat="43.46779611853214" lon="11.433800977007541"><ele>357.42857142857144</ele><time>2026-05-02T15:22:58.999Z</time></trkpt><trkpt lat="43.46772860674798" lon="11.433872513871188"><ele>356.8571428571429</ele><time>2026-05-02T15:22:59.999Z</time></trkpt><trkpt lat="43.467676265610564" lon="11.433922582761056"><ele>356.28571428571433</ele><time>2026-05-02T15:23:00.999Z</time></trkpt><trkpt lat="43.46759212523556" lon="11.43400308781895"><ele>355.7142857142857</ele><time>2026-05-02T15:23:02.999Z</time></trkpt><trkpt lat="43.46753569246929" lon="11.434048095058497"><ele>355.1428571428571</ele><time>2026-05-02T15:23:05.999Z</time></trkpt><trkpt lat="43.46748352058504" lon="11.4340973853142"><ele>354.5714285714286</ele><time>2026-05-02T15:23:12.999Z</time></trkpt><trkpt lat="43.467459103281925" lon="11.434183429385914"><ele>354.0</ele><time>2026-05-02T15:23:15Z</time></trkpt><trkpt lat="43.46750219277848" lon="11.43429848735497"><ele>354.0</ele><time>2026-05-02T15:23:17Z</time></trkpt><trkpt lat="43.46756016623523" lon="11.434366947925668"><ele>354.0</ele><time>2026-05-02T15:23:20Z</time></trkpt><trkpt lat="43.467508525881726" lon="11.43429745229462"><ele>354.0</ele><time>2026-05-02T15:23:24Z</time></trkpt></trkseg></trk></gpx>